<?xml version="1.0" encoding="UTF-8" standalone="no" ?>
<gpx xmlns="http://www.topografix.com/GPX/1/1" xmlns:xsi="http://www.w3.org/2001/XMLSchema-instance" xsi:schemaLocation="http://www.topografix.com/GPX/1/1 http://www.topografix.com/GPX/1/1/gpx.xsd" version="1.1" creator="VisuGPX - https://www.visugpx.com">
  <metadata>
    <name>Saint-denis retouché3</name>
  </metadata>
  <wpt lat="43.42859" lon="2.24425">
    <ele>876.4</ele>
  </wpt>
  <trk>
    <name><![CDATA[Saint-denis retouché3]]></name>
    <trkseg>
      <trkpt lat="43.36034" lon="2.21972">
        <ele>539.36016846</ele>
        <time>2022-07-10T12:28:15Z</time>
      </trkpt>
      <trkpt lat="43.36031" lon="2.21895">
        <ele>536.56030273</ele>
        <time>2022-07-10T12:30:25Z</time>
      </trkpt>
      <trkpt lat="43.36033" lon="2.2189">
        <ele>536.45031738</ele>
        <time>2022-07-10T12:30:26Z</time>
      </trkpt>
      <trkpt lat="43.36052" lon="2.21876">
        <ele>529.70977783</ele>
        <time>2022-07-10T06:58:12Z</time>
      </trkpt>
      <trkpt lat="43.36055" lon="2.21878">
        <ele>529.89978027</ele>
        <time>2022-07-10T06:58:13Z</time>
      </trkpt>
      <trkpt lat="43.36058" lon="2.21879">
        <ele>530.08978271</ele>
        <time>2022-07-10T06:58:14Z</time>
      </trkpt>
      <trkpt lat="43.36061" lon="2.2188">
        <ele>530.29980469</ele>
        <time>2022-07-10T06:58:15Z</time>
      </trkpt>
      <trkpt lat="43.36063" lon="2.21881">
        <ele>530.4697876</ele>
        <time>2022-07-10T06:58:16Z</time>
      </trkpt>
      <trkpt lat="43.36067" lon="2.21884">
        <ele>530.73980713</ele>
        <time>2022-07-10T06:58:17Z</time>
      </trkpt>
      <trkpt lat="43.3607" lon="2.21885">
        <ele>530.98980713</ele>
        <time>2022-07-10T06:58:18Z</time>
      </trkpt>
      <trkpt lat="43.36072" lon="2.21886">
        <ele>531.29980469</ele>
        <time>2022-07-10T06:58:19Z</time>
      </trkpt>
      <trkpt lat="43.36074" lon="2.21887">
        <ele>531.6697998</ele>
        <time>2022-07-10T06:58:20Z</time>
      </trkpt>
      <trkpt lat="43.36078" lon="2.21888">
        <ele>531.90979004</ele>
        <time>2022-07-10T06:58:21Z</time>
      </trkpt>
      <trkpt lat="43.3608" lon="2.21889">
        <ele>532.09979248</ele>
        <time>2022-07-10T06:58:22Z</time>
      </trkpt>
      <trkpt lat="43.36082" lon="2.2189">
        <ele>532.23980713</ele>
        <time>2022-07-10T06:58:23Z</time>
      </trkpt>
      <trkpt lat="43.36085" lon="2.21892">
        <ele>532.38983154</ele>
        <time>2022-07-10T06:58:24Z</time>
      </trkpt>
      <trkpt lat="43.36086" lon="2.21893">
        <ele>532.58984375</ele>
        <time>2022-07-10T06:58:25Z</time>
      </trkpt>
      <trkpt lat="43.36089" lon="2.21894">
        <ele>532.74981689</ele>
        <time>2022-07-10T06:58:26Z</time>
      </trkpt>
      <trkpt lat="43.36091" lon="2.21894">
        <ele>532.93981934</ele>
        <time>2022-07-10T06:58:27Z</time>
      </trkpt>
      <trkpt lat="43.36093" lon="2.21893">
        <ele>533.12982178</ele>
        <time>2022-07-10T06:58:28Z</time>
      </trkpt>
      <trkpt lat="43.36095" lon="2.21894">
        <ele>533.55981445</ele>
        <time>2022-07-10T06:58:30Z</time>
      </trkpt>
      <trkpt lat="43.36096" lon="2.21895">
        <ele>533.83984375</ele>
        <time>2022-07-10T06:58:31Z</time>
      </trkpt>
      <trkpt lat="43.36098" lon="2.21896">
        <ele>534.08984375</ele>
        <time>2022-07-10T06:58:32Z</time>
      </trkpt>
      <trkpt lat="43.36101" lon="2.21896">
        <ele>534.27984619</ele>
        <time>2022-07-10T06:58:33Z</time>
      </trkpt>
      <trkpt lat="43.36103" lon="2.21897">
        <ele>534.48986816</ele>
        <time>2022-07-10T06:58:34Z</time>
      </trkpt>
      <trkpt lat="43.36106" lon="2.21899">
        <ele>534.63989258</ele>
        <time>2022-07-10T06:58:35Z</time>
      </trkpt>
      <trkpt lat="43.36108" lon="2.219">
        <ele>534.80987549</ele>
        <time>2022-07-10T06:58:36Z</time>
      </trkpt>
      <trkpt lat="43.3611" lon="2.21901">
        <ele>534.99987793</ele>
        <time>2022-07-10T06:58:37Z</time>
      </trkpt>
      <trkpt lat="43.36112" lon="2.21902">
        <ele>535.12988281</ele>
        <time>2022-07-10T06:58:38Z</time>
      </trkpt>
      <trkpt lat="43.36115" lon="2.21904">
        <ele>535.31988525</ele>
        <time>2022-07-10T06:58:39Z</time>
      </trkpt>
      <trkpt lat="43.36118" lon="2.21905">
        <ele>535.46990967</ele>
        <time>2022-07-10T06:58:40Z</time>
      </trkpt>
      <trkpt lat="43.3612" lon="2.21906">
        <ele>535.60992432</ele>
        <time>2022-07-10T06:58:41Z</time>
      </trkpt>
      <trkpt lat="43.36122" lon="2.21906">
        <ele>535.76989746</ele>
        <time>2022-07-10T06:58:42Z</time>
      </trkpt>
      <trkpt lat="43.36124" lon="2.21908">
        <ele>535.88989258</ele>
        <time>2022-07-10T06:58:43Z</time>
      </trkpt>
      <trkpt lat="43.36126" lon="2.21908">
        <ele>536.04986572</ele>
        <time>2022-07-10T06:58:44Z</time>
      </trkpt>
      <trkpt lat="43.36128" lon="2.21909">
        <ele>536.16986084</ele>
        <time>2022-07-10T06:58:45Z</time>
      </trkpt>
      <trkpt lat="43.3613" lon="2.21911">
        <ele>536.28985596</ele>
        <time>2022-07-10T06:58:46Z</time>
      </trkpt>
      <trkpt lat="43.36132" lon="2.21911">
        <ele>536.42987061</ele>
        <time>2022-07-10T06:58:47Z</time>
      </trkpt>
      <trkpt lat="43.36135" lon="2.21913">
        <ele>536.54986572</ele>
        <time>2022-07-10T06:58:48Z</time>
      </trkpt>
      <trkpt lat="43.36137" lon="2.21914">
        <ele>536.65985107</ele>
        <time>2022-07-10T06:58:49Z</time>
      </trkpt>
      <trkpt lat="43.3614" lon="2.21914">
        <ele>536.77984619</ele>
        <time>2022-07-10T06:58:50Z</time>
      </trkpt>
      <trkpt lat="43.36142" lon="2.21915">
        <ele>536.83984375</ele>
        <time>2022-07-10T06:58:51Z</time>
      </trkpt>
      <trkpt lat="43.36144" lon="2.21917">
        <ele>536.82983398</ele>
        <time>2022-07-10T06:58:52Z</time>
      </trkpt>
      <trkpt lat="43.36146" lon="2.21918">
        <ele>536.89984131</ele>
        <time>2022-07-10T06:58:53Z</time>
      </trkpt>
      <trkpt lat="43.36148" lon="2.2192">
        <ele>536.95983887</ele>
        <time>2022-07-10T06:58:54Z</time>
      </trkpt>
      <trkpt lat="43.3615" lon="2.21921">
        <ele>537.04986572</ele>
        <time>2022-07-10T06:58:55Z</time>
      </trkpt>
      <trkpt lat="43.36151" lon="2.21922">
        <ele>537.27984619</ele>
        <time>2022-07-10T06:58:56Z</time>
      </trkpt>
      <trkpt lat="43.36154" lon="2.21923">
        <ele>537.45983887</ele>
        <time>2022-07-10T06:58:57Z</time>
      </trkpt>
      <trkpt lat="43.36157" lon="2.21924">
        <ele>537.61981201</ele>
        <time>2022-07-10T06:58:58Z</time>
      </trkpt>
      <trkpt lat="43.36158" lon="2.21923">
        <ele>537.74981689</ele>
        <time>2022-07-10T06:58:59Z</time>
      </trkpt>
      <trkpt lat="43.3616" lon="2.21922">
        <ele>537.88983154</ele>
        <time>2022-07-10T06:59:00Z</time>
      </trkpt>
      <trkpt lat="43.36161" lon="2.2192">
        <ele>538.05981445</ele>
        <time>2022-07-10T06:59:01Z</time>
      </trkpt>
      <trkpt lat="43.36162" lon="2.21916">
        <ele>538.24981689</ele>
        <time>2022-07-10T06:59:02Z</time>
      </trkpt>
      <trkpt lat="43.36163" lon="2.21913">
        <ele>538.43981934</ele>
        <time>2022-07-10T06:59:03Z</time>
      </trkpt>
      <trkpt lat="43.36164" lon="2.2191">
        <ele>538.54980469</ele>
        <time>2022-07-10T06:59:04Z</time>
      </trkpt>
      <trkpt lat="43.36165" lon="2.21907">
        <ele>538.61981201</ele>
        <time>2022-07-10T06:59:05Z</time>
      </trkpt>
      <trkpt lat="43.36166" lon="2.21904">
        <ele>538.63983154</ele>
        <time>2022-07-10T06:59:06Z</time>
      </trkpt>
      <trkpt lat="43.36167" lon="2.21901">
        <ele>538.64984131</ele>
        <time>2022-07-10T06:59:07Z</time>
      </trkpt>
      <trkpt lat="43.36168" lon="2.21898">
        <ele>538.64984131</ele>
        <time>2022-07-10T06:59:08Z</time>
      </trkpt>
      <trkpt lat="43.36169" lon="2.21895">
        <ele>538.84985352</ele>
        <time>2022-07-10T06:59:09Z</time>
      </trkpt>
      <trkpt lat="43.36171" lon="2.2189">
        <ele>538.85986328</ele>
        <time>2022-07-10T06:59:10Z</time>
      </trkpt>
      <trkpt lat="43.36172" lon="2.21887">
        <ele>538.89984131</ele>
        <time>2022-07-10T06:59:11Z</time>
      </trkpt>
      <trkpt lat="43.36173" lon="2.21885">
        <ele>538.91986084</ele>
        <time>2022-07-10T06:59:12Z</time>
      </trkpt>
      <trkpt lat="43.36174" lon="2.21882">
        <ele>538.93988037</ele>
        <time>2022-07-10T06:59:13Z</time>
      </trkpt>
      <trkpt lat="43.36175" lon="2.21879">
        <ele>539.0098877</ele>
        <time>2022-07-10T06:59:14Z</time>
      </trkpt>
      <trkpt lat="43.36176" lon="2.21873">
        <ele>539.07989502</ele>
        <time>2022-07-10T06:59:15Z</time>
      </trkpt>
      <trkpt lat="43.36177" lon="2.2187">
        <ele>539.18988037</ele>
        <time>2022-07-10T06:59:16Z</time>
      </trkpt>
      <trkpt lat="43.36178" lon="2.21867">
        <ele>539.32989502</ele>
        <time>2022-07-10T06:59:17Z</time>
      </trkpt>
      <trkpt lat="43.36179" lon="2.21863">
        <ele>539.42987061</ele>
        <time>2022-07-10T06:59:18Z</time>
      </trkpt>
      <trkpt lat="43.3618" lon="2.21859">
        <ele>539.54986572</ele>
        <time>2022-07-10T06:59:19Z</time>
      </trkpt>
      <trkpt lat="43.36181" lon="2.21855">
        <ele>539.65985107</ele>
        <time>2022-07-10T06:59:20Z</time>
      </trkpt>
      <trkpt lat="43.36182" lon="2.21852">
        <ele>539.74987793</ele>
        <time>2022-07-10T06:59:21Z</time>
      </trkpt>
      <trkpt lat="43.36183" lon="2.21849">
        <ele>539.83990479</ele>
        <time>2022-07-10T06:59:22Z</time>
      </trkpt>
      <trkpt lat="43.36184" lon="2.21845">
        <ele>539.89990234</ele>
        <time>2022-07-10T06:59:23Z</time>
      </trkpt>
      <trkpt lat="43.36185" lon="2.2184">
        <ele>539.91992188</ele>
        <time>2022-07-10T06:59:24Z</time>
      </trkpt>
      <trkpt lat="43.36186" lon="2.21837">
        <ele>539.92993164</ele>
        <time>2022-07-10T06:59:25Z</time>
      </trkpt>
      <trkpt lat="43.36187" lon="2.21834">
        <ele>539.93994141</ele>
        <time>2022-07-10T06:59:26Z</time>
      </trkpt>
      <trkpt lat="43.36188" lon="2.21831">
        <ele>539.89996338</ele>
        <time>2022-07-10T06:59:27Z</time>
      </trkpt>
      <trkpt lat="43.36189" lon="2.21827">
        <ele>539.91998291</ele>
        <time>2022-07-10T06:59:28Z</time>
      </trkpt>
      <trkpt lat="43.3619" lon="2.21824">
        <ele>539.92999268</ele>
        <time>2022-07-10T06:59:29Z</time>
      </trkpt>
      <trkpt lat="43.36191" lon="2.21821">
        <ele>539.92999268</ele>
        <time>2022-07-10T06:59:30Z</time>
      </trkpt>
      <trkpt lat="43.36192" lon="2.21818">
        <ele>540.02001953</ele>
        <time>2022-07-10T06:59:31Z</time>
      </trkpt>
      <trkpt lat="43.36193" lon="2.21814">
        <ele>540.05004883</ele>
        <time>2022-07-10T06:59:32Z</time>
      </trkpt>
      <trkpt lat="43.36193" lon="2.21808">
        <ele>540.11004639</ele>
        <time>2022-07-10T06:59:33Z</time>
      </trkpt>
      <trkpt lat="43.36194" lon="2.21804">
        <ele>540.21002197</ele>
        <time>2022-07-10T06:59:34Z</time>
      </trkpt>
      <trkpt lat="43.36195" lon="2.21801">
        <ele>540.30004883</ele>
        <time>2022-07-10T06:59:35Z</time>
      </trkpt>
      <trkpt lat="43.36196" lon="2.21797">
        <ele>540.43005371</ele>
        <time>2022-07-10T06:59:36Z</time>
      </trkpt>
      <trkpt lat="43.36197" lon="2.21792">
        <ele>540.5100708</ele>
        <time>2022-07-10T06:59:37Z</time>
      </trkpt>
      <trkpt lat="43.36197" lon="2.21789">
        <ele>540.60009766</ele>
        <time>2022-07-10T06:59:38Z</time>
      </trkpt>
      <trkpt lat="43.36198" lon="2.21787">
        <ele>540.65008545</ele>
        <time>2022-07-10T06:59:39Z</time>
      </trkpt>
      <trkpt lat="43.36199" lon="2.21783">
        <ele>540.71008301</ele>
        <time>2022-07-10T06:59:40Z</time>
      </trkpt>
      <trkpt lat="43.362" lon="2.2178">
        <ele>540.7901001</ele>
        <time>2022-07-10T06:59:41Z</time>
      </trkpt>
      <trkpt lat="43.36202" lon="2.21776">
        <ele>540.90008545</ele>
        <time>2022-07-10T06:59:42Z</time>
      </trkpt>
      <trkpt lat="43.36203" lon="2.21773">
        <ele>541.05010986</ele>
        <time>2022-07-10T06:59:43Z</time>
      </trkpt>
      <trkpt lat="43.36204" lon="2.2177">
        <ele>541.16009521</ele>
        <time>2022-07-10T06:59:44Z</time>
      </trkpt>
      <trkpt lat="43.36205" lon="2.21767">
        <ele>541.31011963</ele>
        <time>2022-07-10T06:59:45Z</time>
      </trkpt>
      <trkpt lat="43.36206" lon="2.21762">
        <ele>541.40014648</ele>
        <time>2022-07-10T06:59:46Z</time>
      </trkpt>
      <trkpt lat="43.36207" lon="2.21759">
        <ele>541.49017334</ele>
        <time>2022-07-10T06:59:47Z</time>
      </trkpt>
      <trkpt lat="43.36208" lon="2.21755">
        <ele>541.57019043</ele>
        <time>2022-07-10T06:59:48Z</time>
      </trkpt>
      <trkpt lat="43.36208" lon="2.21752">
        <ele>541.67016602</ele>
        <time>2022-07-10T06:59:49Z</time>
      </trkpt>
      <trkpt lat="43.36209" lon="2.21748">
        <ele>541.8001709</ele>
        <time>2022-07-10T06:59:50Z</time>
      </trkpt>
      <trkpt lat="43.36209" lon="2.21744">
        <ele>541.91015625</ele>
        <time>2022-07-10T06:59:51Z</time>
      </trkpt>
      <trkpt lat="43.3621" lon="2.21741">
        <ele>542.06018066</ele>
        <time>2022-07-10T06:59:52Z</time>
      </trkpt>
      <trkpt lat="43.36211" lon="2.21738">
        <ele>542.15020752</ele>
        <time>2022-07-10T06:59:53Z</time>
      </trkpt>
      <trkpt lat="43.36212" lon="2.21735">
        <ele>542.22021484</ele>
        <time>2022-07-10T06:59:54Z</time>
      </trkpt>
      <trkpt lat="43.36213" lon="2.2173">
        <ele>542.3302002</ele>
        <time>2022-07-10T06:59:55Z</time>
      </trkpt>
      <trkpt lat="43.36214" lon="2.21726">
        <ele>542.42022705</ele>
        <time>2022-07-10T06:59:56Z</time>
      </trkpt>
      <trkpt lat="43.36215" lon="2.21723">
        <ele>542.55023193</ele>
        <time>2022-07-10T06:59:57Z</time>
      </trkpt>
      <trkpt lat="43.36215" lon="2.21721">
        <ele>542.71020508</ele>
        <time>2022-07-10T06:59:58Z</time>
      </trkpt>
      <trkpt lat="43.36216" lon="2.21718">
        <ele>542.88018799</ele>
        <time>2022-07-10T06:59:59Z</time>
      </trkpt>
      <trkpt lat="43.36218" lon="2.21714">
        <ele>543.0802002</ele>
        <time>2022-07-10T07:00:00Z</time>
      </trkpt>
      <trkpt lat="43.36219" lon="2.21711">
        <ele>543.31018066</ele>
        <time>2022-07-10T07:00:01Z</time>
      </trkpt>
      <trkpt lat="43.36218" lon="2.21709">
        <ele>543.52020264</ele>
        <time>2022-07-10T07:00:02Z</time>
      </trkpt>
      <trkpt lat="43.36219" lon="2.21706">
        <ele>543.71020508</ele>
        <time>2022-07-10T07:00:03Z</time>
      </trkpt>
      <trkpt lat="43.3622" lon="2.21702">
        <ele>543.87017822</ele>
        <time>2022-07-10T07:00:04Z</time>
      </trkpt>
      <trkpt lat="43.36221" lon="2.217">
        <ele>544.01019287</ele>
        <time>2022-07-10T07:00:05Z</time>
      </trkpt>
      <trkpt lat="43.36221" lon="2.21697">
        <ele>544.16021729</ele>
        <time>2022-07-10T07:00:06Z</time>
      </trkpt>
      <trkpt lat="43.36222" lon="2.21696">
        <ele>544.34020996</ele>
        <time>2022-07-10T07:00:07Z</time>
      </trkpt>
      <trkpt lat="43.36223" lon="2.21693">
        <ele>544.49023438</ele>
        <time>2022-07-10T07:00:08Z</time>
      </trkpt>
      <trkpt lat="43.36224" lon="2.21689">
        <ele>544.5302124</ele>
        <time>2022-07-10T07:00:09Z</time>
      </trkpt>
      <trkpt lat="43.36225" lon="2.21687">
        <ele>544.73022461</ele>
        <time>2022-07-10T07:00:10Z</time>
      </trkpt>
      <trkpt lat="43.36225" lon="2.21684">
        <ele>544.93023682</ele>
        <time>2022-07-10T07:00:11Z</time>
      </trkpt>
      <trkpt lat="43.36226" lon="2.21681">
        <ele>545.18023682</ele>
        <time>2022-07-10T07:00:12Z</time>
      </trkpt>
      <trkpt lat="43.36227" lon="2.21677">
        <ele>545.45025635</ele>
        <time>2022-07-10T07:00:13Z</time>
      </trkpt>
      <trkpt lat="43.36228" lon="2.21676">
        <ele>545.68023682</ele>
        <time>2022-07-10T07:00:14Z</time>
      </trkpt>
      <trkpt lat="43.36229" lon="2.21674">
        <ele>545.90020752</ele>
        <time>2022-07-10T07:00:15Z</time>
      </trkpt>
      <trkpt lat="43.3623" lon="2.21672">
        <ele>546.11022949</ele>
        <time>2022-07-10T07:00:16Z</time>
      </trkpt>
      <trkpt lat="43.36232" lon="2.2167">
        <ele>546.32025146</ele>
        <time>2022-07-10T07:00:17Z</time>
      </trkpt>
      <trkpt lat="43.36232" lon="2.21667">
        <ele>546.53027344</ele>
        <time>2022-07-10T07:00:18Z</time>
      </trkpt>
      <trkpt lat="43.36233" lon="2.21664">
        <ele>546.73028564</ele>
        <time>2022-07-10T07:00:19Z</time>
      </trkpt>
      <trkpt lat="43.36233" lon="2.21661">
        <ele>546.97027588</ele>
        <time>2022-07-10T07:00:20Z</time>
      </trkpt>
      <trkpt lat="43.36233" lon="2.21658">
        <ele>547.17028809</ele>
        <time>2022-07-10T07:00:21Z</time>
      </trkpt>
      <trkpt lat="43.36235" lon="2.21654">
        <ele>547.37030029</ele>
        <time>2022-07-10T07:00:22Z</time>
      </trkpt>
      <trkpt lat="43.36235" lon="2.21653">
        <ele>547.5402832</ele>
        <time>2022-07-10T07:00:23Z</time>
      </trkpt>
      <trkpt lat="43.36235" lon="2.2165">
        <ele>547.66027832</ele>
        <time>2022-07-10T07:00:24Z</time>
      </trkpt>
      <trkpt lat="43.36236" lon="2.21648">
        <ele>547.78027344</ele>
        <time>2022-07-10T07:00:25Z</time>
      </trkpt>
      <trkpt lat="43.36237" lon="2.21645">
        <ele>547.93029785</ele>
        <time>2022-07-10T07:00:26Z</time>
      </trkpt>
      <trkpt lat="43.36238" lon="2.21643">
        <ele>548.0402832</ele>
        <time>2022-07-10T07:00:27Z</time>
      </trkpt>
      <trkpt lat="43.36239" lon="2.2164">
        <ele>548.21026611</ele>
        <time>2022-07-10T07:00:28Z</time>
      </trkpt>
      <trkpt lat="43.3624" lon="2.21638">
        <ele>548.37023926</ele>
        <time>2022-07-10T07:00:29Z</time>
      </trkpt>
      <trkpt lat="43.36241" lon="2.21635">
        <ele>548.60021973</ele>
        <time>2022-07-10T07:00:30Z</time>
      </trkpt>
      <trkpt lat="43.36242" lon="2.21633">
        <ele>548.86022949</ele>
        <time>2022-07-10T07:00:31Z</time>
      </trkpt>
      <trkpt lat="43.36243" lon="2.2163">
        <ele>549.13024902</ele>
        <time>2022-07-10T07:00:32Z</time>
      </trkpt>
      <trkpt lat="43.36244" lon="2.21629">
        <ele>549.48022461</ele>
        <time>2022-07-10T07:00:33Z</time>
      </trkpt>
      <trkpt lat="43.36245" lon="2.21627">
        <ele>549.73022461</ele>
        <time>2022-07-10T07:00:34Z</time>
      </trkpt>
      <trkpt lat="43.36247" lon="2.21626">
        <ele>549.97021484</ele>
        <time>2022-07-10T07:00:35Z</time>
      </trkpt>
      <trkpt lat="43.3625" lon="2.21627">
        <ele>550.18023682</ele>
        <time>2022-07-10T07:00:36Z</time>
      </trkpt>
      <trkpt lat="43.36251" lon="2.21627">
        <ele>550.32025146</ele>
        <time>2022-07-10T07:00:37Z</time>
      </trkpt>
      <trkpt lat="43.36253" lon="2.21627">
        <ele>550.48022461</ele>
        <time>2022-07-10T07:00:38Z</time>
      </trkpt>
      <trkpt lat="43.36254" lon="2.21627">
        <ele>550.67022705</ele>
        <time>2022-07-10T07:00:39Z</time>
      </trkpt>
      <trkpt lat="43.36257" lon="2.21627">
        <ele>550.80023193</ele>
        <time>2022-07-10T07:00:40Z</time>
      </trkpt>
      <trkpt lat="43.36259" lon="2.21628">
        <ele>550.96020508</ele>
        <time>2022-07-10T07:00:41Z</time>
      </trkpt>
      <trkpt lat="43.36261" lon="2.21628">
        <ele>551.0802002</ele>
        <time>2022-07-10T07:00:42Z</time>
      </trkpt>
      <trkpt lat="43.36263" lon="2.21628">
        <ele>551.19018555</ele>
        <time>2022-07-10T07:00:43Z</time>
      </trkpt>
      <trkpt lat="43.36265" lon="2.21629">
        <ele>551.32019043</ele>
        <time>2022-07-10T07:00:44Z</time>
      </trkpt>
      <trkpt lat="43.36268" lon="2.2163">
        <ele>551.47021484</ele>
        <time>2022-07-10T07:00:45Z</time>
      </trkpt>
      <trkpt lat="43.36269" lon="2.21631">
        <ele>551.64019775</ele>
        <time>2022-07-10T07:00:46Z</time>
      </trkpt>
      <trkpt lat="43.36271" lon="2.21632">
        <ele>551.85021973</ele>
        <time>2022-07-10T07:00:47Z</time>
      </trkpt>
      <trkpt lat="43.36272" lon="2.21633">
        <ele>552.0802002</ele>
        <time>2022-07-10T07:00:48Z</time>
      </trkpt>
      <trkpt lat="43.36274" lon="2.21635">
        <ele>552.27020264</ele>
        <time>2022-07-10T07:00:49Z</time>
      </trkpt>
      <trkpt lat="43.36275" lon="2.21636">
        <ele>552.49017334</ele>
        <time>2022-07-10T07:00:50Z</time>
      </trkpt>
      <trkpt lat="43.36277" lon="2.21636">
        <ele>552.71014404</ele>
        <time>2022-07-10T07:00:51Z</time>
      </trkpt>
      <trkpt lat="43.36278" lon="2.21637">
        <ele>552.93011475</ele>
        <time>2022-07-10T07:00:52Z</time>
      </trkpt>
      <trkpt lat="43.36279" lon="2.21638">
        <ele>553.18011475</ele>
        <time>2022-07-10T07:00:53Z</time>
      </trkpt>
      <trkpt lat="43.36281" lon="2.21639">
        <ele>553.46014404</ele>
        <time>2022-07-10T07:00:54Z</time>
      </trkpt>
      <trkpt lat="43.36282" lon="2.21639">
        <ele>553.76013184</ele>
        <time>2022-07-10T07:00:55Z</time>
      </trkpt>
      <trkpt lat="43.36284" lon="2.2164">
        <ele>554.0201416</ele>
        <time>2022-07-10T07:00:56Z</time>
      </trkpt>
      <trkpt lat="43.36286" lon="2.21641">
        <ele>554.2701416</ele>
        <time>2022-07-10T07:00:57Z</time>
      </trkpt>
      <trkpt lat="43.36288" lon="2.21643">
        <ele>554.48016357</ele>
        <time>2022-07-10T07:00:58Z</time>
      </trkpt>
      <trkpt lat="43.36289" lon="2.21644">
        <ele>554.70013428</ele>
        <time>2022-07-10T07:00:59Z</time>
      </trkpt>
      <trkpt lat="43.36291" lon="2.21644">
        <ele>554.91015625</ele>
        <time>2022-07-10T07:01:00Z</time>
      </trkpt>
      <trkpt lat="43.36293" lon="2.21645">
        <ele>555.14013672</ele>
        <time>2022-07-10T07:01:01Z</time>
      </trkpt>
      <trkpt lat="43.36295" lon="2.21645">
        <ele>555.36010742</ele>
        <time>2022-07-10T07:01:02Z</time>
      </trkpt>
      <trkpt lat="43.36297" lon="2.21646">
        <ele>555.5401001</ele>
        <time>2022-07-10T07:01:03Z</time>
      </trkpt>
      <trkpt lat="43.36298" lon="2.21647">
        <ele>555.7901001</ele>
        <time>2022-07-10T07:01:04Z</time>
      </trkpt>
      <trkpt lat="43.363" lon="2.21648">
        <ele>556.02008057</ele>
        <time>2022-07-10T07:01:05Z</time>
      </trkpt>
      <trkpt lat="43.36302" lon="2.21648">
        <ele>556.28009033</ele>
        <time>2022-07-10T07:01:06Z</time>
      </trkpt>
      <trkpt lat="43.36304" lon="2.21649">
        <ele>556.58007812</ele>
        <time>2022-07-10T07:01:07Z</time>
      </trkpt>
      <trkpt lat="43.36306" lon="2.2165">
        <ele>556.84008789</ele>
        <time>2022-07-10T07:01:08Z</time>
      </trkpt>
      <trkpt lat="43.36307" lon="2.2165">
        <ele>557.02008057</ele>
        <time>2022-07-10T07:01:09Z</time>
      </trkpt>
      <trkpt lat="43.36309" lon="2.21651">
        <ele>557.31005859</ele>
        <time>2022-07-10T07:01:10Z</time>
      </trkpt>
      <trkpt lat="43.3631" lon="2.21652">
        <ele>557.61004639</ele>
        <time>2022-07-10T07:01:11Z</time>
      </trkpt>
      <trkpt lat="43.36313" lon="2.21652">
        <ele>557.92004395</ele>
        <time>2022-07-10T07:01:12Z</time>
      </trkpt>
      <trkpt lat="43.36316" lon="2.21653">
        <ele>558.22003174</ele>
        <time>2022-07-10T07:01:13Z</time>
      </trkpt>
      <trkpt lat="43.36317" lon="2.21653">
        <ele>558.50006104</ele>
        <time>2022-07-10T07:01:14Z</time>
      </trkpt>
      <trkpt lat="43.36319" lon="2.21654">
        <ele>558.74005127</ele>
        <time>2022-07-10T07:01:15Z</time>
      </trkpt>
      <trkpt lat="43.36322" lon="2.21654">
        <ele>558.99005127</ele>
        <time>2022-07-10T07:01:16Z</time>
      </trkpt>
      <trkpt lat="43.36324" lon="2.21655">
        <ele>559.20007324</ele>
        <time>2022-07-10T07:01:17Z</time>
      </trkpt>
      <trkpt lat="43.36326" lon="2.21656">
        <ele>559.40008545</ele>
        <time>2022-07-10T07:01:18Z</time>
      </trkpt>
      <trkpt lat="43.36328" lon="2.21656">
        <ele>559.60009766</ele>
        <time>2022-07-10T07:01:19Z</time>
      </trkpt>
      <trkpt lat="43.3633" lon="2.21657">
        <ele>559.7600708</ele>
        <time>2022-07-10T07:01:20Z</time>
      </trkpt>
      <trkpt lat="43.36332" lon="2.21658">
        <ele>559.9800415</ele>
        <time>2022-07-10T07:01:21Z</time>
      </trkpt>
      <trkpt lat="43.36334" lon="2.21659">
        <ele>560.20001221</ele>
        <time>2022-07-10T07:01:22Z</time>
      </trkpt>
      <trkpt lat="43.36336" lon="2.21659">
        <ele>560.41003418</ele>
        <time>2022-07-10T07:01:23Z</time>
      </trkpt>
      <trkpt lat="43.36338" lon="2.21659">
        <ele>560.63000488</ele>
        <time>2022-07-10T07:01:24Z</time>
      </trkpt>
      <trkpt lat="43.3634" lon="2.2166">
        <ele>560.77001953</ele>
        <time>2022-07-10T07:01:25Z</time>
      </trkpt>
      <trkpt lat="43.36342" lon="2.21661">
        <ele>560.90002441</ele>
        <time>2022-07-10T07:01:26Z</time>
      </trkpt>
      <trkpt lat="43.36343" lon="2.21662">
        <ele>561.02001953</ele>
        <time>2022-07-10T07:01:27Z</time>
      </trkpt>
      <trkpt lat="43.36345" lon="2.21663">
        <ele>561.11999512</ele>
        <time>2022-07-10T07:01:28Z</time>
      </trkpt>
      <trkpt lat="43.36346" lon="2.21663">
        <ele>561.26000977</ele>
        <time>2022-07-10T07:01:29Z</time>
      </trkpt>
      <trkpt lat="43.36349" lon="2.21664">
        <ele>561.46002197</ele>
        <time>2022-07-10T07:01:30Z</time>
      </trkpt>
      <trkpt lat="43.36351" lon="2.21665">
        <ele>561.70001221</ele>
        <time>2022-07-10T07:01:31Z</time>
      </trkpt>
      <trkpt lat="43.36352" lon="2.21666">
        <ele>561.95001221</ele>
        <time>2022-07-10T07:01:32Z</time>
      </trkpt>
      <trkpt lat="43.36354" lon="2.21667">
        <ele>562.21002197</ele>
        <time>2022-07-10T07:01:33Z</time>
      </trkpt>
      <trkpt lat="43.36356" lon="2.21668">
        <ele>562.44000244</ele>
        <time>2022-07-10T07:01:34Z</time>
      </trkpt>
      <trkpt lat="43.36358" lon="2.21668">
        <ele>562.67999268</ele>
        <time>2022-07-10T07:01:35Z</time>
      </trkpt>
      <trkpt lat="43.36359" lon="2.21668">
        <ele>562.88000488</ele>
        <time>2022-07-10T07:01:36Z</time>
      </trkpt>
      <trkpt lat="43.36361" lon="2.21669">
        <ele>563.04998779</ele>
        <time>2022-07-10T07:01:37Z</time>
      </trkpt>
      <trkpt lat="43.36363" lon="2.2167">
        <ele>563.17999268</ele>
        <time>2022-07-10T07:01:38Z</time>
      </trkpt>
      <trkpt lat="43.36365" lon="2.21671">
        <ele>563.33996582</ele>
        <time>2022-07-10T07:01:39Z</time>
      </trkpt>
      <trkpt lat="43.36367" lon="2.21671">
        <ele>563.53997803</ele>
        <time>2022-07-10T07:01:40Z</time>
      </trkpt>
      <trkpt lat="43.36369" lon="2.21672">
        <ele>563.82000732</ele>
        <time>2022-07-10T07:01:41Z</time>
      </trkpt>
      <trkpt lat="43.3637" lon="2.21672">
        <ele>564.14001465</ele>
        <time>2022-07-10T07:01:42Z</time>
      </trkpt>
      <trkpt lat="43.36373" lon="2.21673">
        <ele>564.39001465</ele>
        <time>2022-07-10T07:01:43Z</time>
      </trkpt>
      <trkpt lat="43.36374" lon="2.21673">
        <ele>564.67999268</ele>
        <time>2022-07-10T07:01:44Z</time>
      </trkpt>
      <trkpt lat="43.36376" lon="2.21673">
        <ele>564.92999268</ele>
        <time>2022-07-10T07:01:45Z</time>
      </trkpt>
      <trkpt lat="43.36377" lon="2.21672">
        <ele>565.14001465</ele>
        <time>2022-07-10T07:01:46Z</time>
      </trkpt>
      <trkpt lat="43.36378" lon="2.2167">
        <ele>565.2800293</ele>
        <time>2022-07-10T07:01:47Z</time>
      </trkpt>
      <trkpt lat="43.3638" lon="2.21667">
        <ele>565.33001709</ele>
        <time>2022-07-10T07:01:48Z</time>
      </trkpt>
      <trkpt lat="43.36381" lon="2.21664">
        <ele>565.29003906</ele>
        <time>2022-07-10T07:01:49Z</time>
      </trkpt>
      <trkpt lat="43.36382" lon="2.21662">
        <ele>565.24005127</ele>
        <time>2022-07-10T07:01:50Z</time>
      </trkpt>
      <trkpt lat="43.36383" lon="2.21659">
        <ele>565.22003174</ele>
        <time>2022-07-10T07:01:51Z</time>
      </trkpt>
      <trkpt lat="43.36384" lon="2.21656">
        <ele>565.27001953</ele>
        <time>2022-07-10T07:01:52Z</time>
      </trkpt>
      <trkpt lat="43.36385" lon="2.21654">
        <ele>565.39001465</ele>
        <time>2022-07-10T07:01:53Z</time>
      </trkpt>
      <trkpt lat="43.36387" lon="2.21652">
        <ele>565.52001953</ele>
        <time>2022-07-10T07:01:54Z</time>
      </trkpt>
      <trkpt lat="43.36388" lon="2.2165">
        <ele>565.69000244</ele>
        <time>2022-07-10T07:01:55Z</time>
      </trkpt>
      <trkpt lat="43.36389" lon="2.21647">
        <ele>565.80999756</ele>
        <time>2022-07-10T07:01:56Z</time>
      </trkpt>
      <trkpt lat="43.36391" lon="2.21645">
        <ele>565.90997314</ele>
        <time>2022-07-10T07:01:57Z</time>
      </trkpt>
      <trkpt lat="43.36392" lon="2.21643">
        <ele>566.02996826</ele>
        <time>2022-07-10T07:01:58Z</time>
      </trkpt>
      <trkpt lat="43.36393" lon="2.21641">
        <ele>566.16998291</ele>
        <time>2022-07-10T07:01:59Z</time>
      </trkpt>
      <trkpt lat="43.36394" lon="2.21639">
        <ele>566.30999756</ele>
        <time>2022-07-10T07:02:00Z</time>
      </trkpt>
      <trkpt lat="43.36396" lon="2.21637">
        <ele>566.51000977</ele>
        <time>2022-07-10T07:02:01Z</time>
      </trkpt>
      <trkpt lat="43.36398" lon="2.21635">
        <ele>566.69000244</ele>
        <time>2022-07-10T07:02:02Z</time>
      </trkpt>
      <trkpt lat="43.364" lon="2.21633">
        <ele>566.79998779</ele>
        <time>2022-07-10T07:02:03Z</time>
      </trkpt>
      <trkpt lat="43.36401" lon="2.21632">
        <ele>566.85998535</ele>
        <time>2022-07-10T07:02:04Z</time>
      </trkpt>
      <trkpt lat="43.36403" lon="2.2163">
        <ele>566.88000488</ele>
        <time>2022-07-10T07:02:05Z</time>
      </trkpt>
      <trkpt lat="43.36405" lon="2.21628">
        <ele>566.91998291</ele>
        <time>2022-07-10T07:02:06Z</time>
      </trkpt>
      <trkpt lat="43.36407" lon="2.21626">
        <ele>567</ele>
        <time>2022-07-10T07:02:07Z</time>
      </trkpt>
      <trkpt lat="43.36408" lon="2.21625">
        <ele>567.16998291</ele>
        <time>2022-07-10T07:02:08Z</time>
      </trkpt>
      <trkpt lat="43.3641" lon="2.21624">
        <ele>567.16998291</ele>
        <time>2022-07-10T07:02:09Z</time>
      </trkpt>
      <trkpt lat="43.36412" lon="2.21622">
        <ele>567.28997803</ele>
        <time>2022-07-10T07:02:10Z</time>
      </trkpt>
      <trkpt lat="43.36413" lon="2.2162">
        <ele>567.41998291</ele>
        <time>2022-07-10T07:02:11Z</time>
      </trkpt>
      <trkpt lat="43.36415" lon="2.21619">
        <ele>567.52996826</ele>
        <time>2022-07-10T07:02:12Z</time>
      </trkpt>
      <trkpt lat="43.36416" lon="2.21618">
        <ele>567.64996338</ele>
        <time>2022-07-10T07:02:13Z</time>
      </trkpt>
      <trkpt lat="43.36418" lon="2.21616">
        <ele>567.79998779</ele>
        <time>2022-07-10T07:02:14Z</time>
      </trkpt>
      <trkpt lat="43.3642" lon="2.21614">
        <ele>567.95001221</ele>
        <time>2022-07-10T07:02:15Z</time>
      </trkpt>
      <trkpt lat="43.36422" lon="2.21613">
        <ele>568.10003662</ele>
        <time>2022-07-10T07:02:16Z</time>
      </trkpt>
      <trkpt lat="43.36424" lon="2.21612">
        <ele>568.2800293</ele>
        <time>2022-07-10T07:02:17Z</time>
      </trkpt>
      <trkpt lat="43.36425" lon="2.21611">
        <ele>568.41003418</ele>
        <time>2022-07-10T07:02:18Z</time>
      </trkpt>
      <trkpt lat="43.36427" lon="2.21611">
        <ele>568.5300293</ele>
        <time>2022-07-10T07:02:19Z</time>
      </trkpt>
      <trkpt lat="43.3643" lon="2.21609">
        <ele>568.67004395</ele>
        <time>2022-07-10T07:02:20Z</time>
      </trkpt>
      <trkpt lat="43.36431" lon="2.21609">
        <ele>568.77001953</ele>
        <time>2022-07-10T07:02:21Z</time>
      </trkpt>
      <trkpt lat="43.36433" lon="2.21608">
        <ele>568.94000244</ele>
        <time>2022-07-10T07:02:22Z</time>
      </trkpt>
      <trkpt lat="43.36435" lon="2.21608">
        <ele>569.03997803</ele>
        <time>2022-07-10T07:02:23Z</time>
      </trkpt>
      <trkpt lat="43.36437" lon="2.21607">
        <ele>569.10998535</ele>
        <time>2022-07-10T07:02:24Z</time>
      </trkpt>
      <trkpt lat="43.36439" lon="2.21607">
        <ele>569.20001221</ele>
        <time>2022-07-10T07:02:25Z</time>
      </trkpt>
      <trkpt lat="43.36441" lon="2.21607">
        <ele>569.2300415</ele>
        <time>2022-07-10T07:02:26Z</time>
      </trkpt>
      <trkpt lat="43.36442" lon="2.21606">
        <ele>569.2800293</ele>
        <time>2022-07-10T07:02:27Z</time>
      </trkpt>
      <trkpt lat="43.36445" lon="2.21606">
        <ele>569.41003418</ele>
        <time>2022-07-10T07:02:28Z</time>
      </trkpt>
      <trkpt lat="43.36447" lon="2.21606">
        <ele>569.59002686</ele>
        <time>2022-07-10T07:02:29Z</time>
      </trkpt>
      <trkpt lat="43.36449" lon="2.21606">
        <ele>569.77001953</ele>
        <time>2022-07-10T07:02:30Z</time>
      </trkpt>
      <trkpt lat="43.3645" lon="2.21606">
        <ele>570.01000977</ele>
        <time>2022-07-10T07:02:31Z</time>
      </trkpt>
      <trkpt lat="43.36452" lon="2.21606">
        <ele>570.16998291</ele>
        <time>2022-07-10T07:02:32Z</time>
      </trkpt>
      <trkpt lat="43.36455" lon="2.21606">
        <ele>570.29998779</ele>
        <time>2022-07-10T07:02:33Z</time>
      </trkpt>
      <trkpt lat="43.36457" lon="2.21606">
        <ele>570.44000244</ele>
        <time>2022-07-10T07:02:34Z</time>
      </trkpt>
      <trkpt lat="43.36458" lon="2.21606">
        <ele>570.55999756</ele>
        <time>2022-07-10T07:02:35Z</time>
      </trkpt>
      <trkpt lat="43.3646" lon="2.21606">
        <ele>570.71002197</ele>
        <time>2022-07-10T07:02:36Z</time>
      </trkpt>
      <trkpt lat="43.36463" lon="2.21606">
        <ele>570.88000488</ele>
        <time>2022-07-10T07:02:37Z</time>
      </trkpt>
      <trkpt lat="43.36464" lon="2.21605">
        <ele>571.09002686</ele>
        <time>2022-07-10T07:02:38Z</time>
      </trkpt>
      <trkpt lat="43.36466" lon="2.21605">
        <ele>571.30004883</ele>
        <time>2022-07-10T07:02:39Z</time>
      </trkpt>
      <trkpt lat="43.36468" lon="2.21605">
        <ele>571.44006348</ele>
        <time>2022-07-10T07:02:40Z</time>
      </trkpt>
      <trkpt lat="43.3647" lon="2.21605">
        <ele>571.58007812</ele>
        <time>2022-07-10T07:02:41Z</time>
      </trkpt>
      <trkpt lat="43.36473" lon="2.21605">
        <ele>571.70007324</ele>
        <time>2022-07-10T07:02:42Z</time>
      </trkpt>
      <trkpt lat="43.36475" lon="2.21604">
        <ele>571.7600708</ele>
        <time>2022-07-10T07:02:43Z</time>
      </trkpt>
      <trkpt lat="43.36477" lon="2.21605">
        <ele>571.83007812</ele>
        <time>2022-07-10T07:02:44Z</time>
      </trkpt>
      <trkpt lat="43.36478" lon="2.21604">
        <ele>571.94006348</ele>
        <time>2022-07-10T07:02:45Z</time>
      </trkpt>
      <trkpt lat="43.3648" lon="2.21604">
        <ele>572.07006836</ele>
        <time>2022-07-10T07:02:46Z</time>
      </trkpt>
      <trkpt lat="43.36483" lon="2.21604">
        <ele>572.18005371</ele>
        <time>2022-07-10T07:02:47Z</time>
      </trkpt>
      <trkpt lat="43.36484" lon="2.21604">
        <ele>572.33007812</ele>
        <time>2022-07-10T07:02:48Z</time>
      </trkpt>
      <trkpt lat="43.36486" lon="2.21604">
        <ele>572.42010498</ele>
        <time>2022-07-10T07:02:49Z</time>
      </trkpt>
      <trkpt lat="43.36488" lon="2.21605">
        <ele>572.47009277</ele>
        <time>2022-07-10T07:02:50Z</time>
      </trkpt>
      <trkpt lat="43.36491" lon="2.21605">
        <ele>572.59008789</ele>
        <time>2022-07-10T07:02:51Z</time>
      </trkpt>
      <trkpt lat="43.36493" lon="2.21606">
        <ele>572.77008057</ele>
        <time>2022-07-10T07:02:52Z</time>
      </trkpt>
      <trkpt lat="43.36495" lon="2.21605">
        <ele>572.82006836</ele>
        <time>2022-07-10T07:02:53Z</time>
      </trkpt>
      <trkpt lat="43.36496" lon="2.21605">
        <ele>572.92004395</ele>
        <time>2022-07-10T07:02:54Z</time>
      </trkpt>
      <trkpt lat="43.36498" lon="2.21605">
        <ele>573.0300293</ele>
        <time>2022-07-10T07:02:55Z</time>
      </trkpt>
      <trkpt lat="43.36501" lon="2.21604">
        <ele>573.05004883</ele>
        <time>2022-07-10T07:02:56Z</time>
      </trkpt>
      <trkpt lat="43.36503" lon="2.21604">
        <ele>573.17004395</ele>
        <time>2022-07-10T07:02:57Z</time>
      </trkpt>
      <trkpt lat="43.36505" lon="2.21603">
        <ele>573.2600708</ele>
        <time>2022-07-10T07:02:58Z</time>
      </trkpt>
      <trkpt lat="43.36507" lon="2.21603">
        <ele>573.33007812</ele>
        <time>2022-07-10T07:02:59Z</time>
      </trkpt>
      <trkpt lat="43.36509" lon="2.21603">
        <ele>573.44006348</ele>
        <time>2022-07-10T07:03:00Z</time>
      </trkpt>
      <trkpt lat="43.36511" lon="2.21603">
        <ele>573.57006836</ele>
        <time>2022-07-10T07:03:01Z</time>
      </trkpt>
      <trkpt lat="43.36513" lon="2.21603">
        <ele>573.68005371</ele>
        <time>2022-07-10T07:03:02Z</time>
      </trkpt>
      <trkpt lat="43.36515" lon="2.21602">
        <ele>573.75006104</ele>
        <time>2022-07-10T07:03:03Z</time>
      </trkpt>
      <trkpt lat="43.36518" lon="2.21602">
        <ele>573.85003662</ele>
        <time>2022-07-10T07:03:04Z</time>
      </trkpt>
      <trkpt lat="43.3652" lon="2.21601">
        <ele>573.95001221</ele>
        <time>2022-07-10T07:03:05Z</time>
      </trkpt>
      <trkpt lat="43.36522" lon="2.21601">
        <ele>574.02001953</ele>
        <time>2022-07-10T07:03:06Z</time>
      </trkpt>
      <trkpt lat="43.36524" lon="2.21601">
        <ele>574.05999756</ele>
        <time>2022-07-10T07:03:07Z</time>
      </trkpt>
      <trkpt lat="43.36525" lon="2.21601">
        <ele>574.08001709</ele>
        <time>2022-07-10T07:03:08Z</time>
      </trkpt>
      <trkpt lat="43.36528" lon="2.21601">
        <ele>574.17004395</ele>
        <time>2022-07-10T07:03:09Z</time>
      </trkpt>
      <trkpt lat="43.3653" lon="2.21601">
        <ele>574.33001709</ele>
        <time>2022-07-10T07:03:10Z</time>
      </trkpt>
      <trkpt lat="43.36532" lon="2.21601">
        <ele>574.51000977</ele>
        <time>2022-07-10T07:03:11Z</time>
      </trkpt>
      <trkpt lat="43.36534" lon="2.21601">
        <ele>574.66998291</ele>
        <time>2022-07-10T07:03:12Z</time>
      </trkpt>
      <trkpt lat="43.36536" lon="2.21601">
        <ele>574.70001221</ele>
        <time>2022-07-10T07:03:13Z</time>
      </trkpt>
      <trkpt lat="43.36538" lon="2.21601">
        <ele>574.7300415</ele>
        <time>2022-07-10T07:03:14Z</time>
      </trkpt>
      <trkpt lat="43.3654" lon="2.216">
        <ele>574.80004883</ele>
        <time>2022-07-10T07:03:15Z</time>
      </trkpt>
      <trkpt lat="43.36542" lon="2.216">
        <ele>574.96002197</ele>
        <time>2022-07-10T07:03:16Z</time>
      </trkpt>
      <trkpt lat="43.36543" lon="2.216">
        <ele>575.17004395</ele>
        <time>2022-07-10T07:03:17Z</time>
      </trkpt>
      <trkpt lat="43.36546" lon="2.216">
        <ele>575.33001709</ele>
        <time>2022-07-10T07:03:18Z</time>
      </trkpt>
      <trkpt lat="43.36548" lon="2.216">
        <ele>575.54003906</ele>
        <time>2022-07-10T07:03:19Z</time>
      </trkpt>
      <trkpt lat="43.3655" lon="2.216">
        <ele>575.68005371</ele>
        <time>2022-07-10T07:03:20Z</time>
      </trkpt>
      <trkpt lat="43.36551" lon="2.216">
        <ele>575.80004883</ele>
        <time>2022-07-10T07:03:21Z</time>
      </trkpt>
      <trkpt lat="43.36553" lon="2.21599">
        <ele>575.92004395</ele>
        <time>2022-07-10T07:03:22Z</time>
      </trkpt>
      <trkpt lat="43.36555" lon="2.216">
        <ele>576.07006836</ele>
        <time>2022-07-10T07:03:23Z</time>
      </trkpt>
      <trkpt lat="43.36557" lon="2.216">
        <ele>576.14007568</ele>
        <time>2022-07-10T07:03:24Z</time>
      </trkpt>
      <trkpt lat="43.36559" lon="2.216">
        <ele>576.30004883</ele>
        <time>2022-07-10T07:03:25Z</time>
      </trkpt>
      <trkpt lat="43.36561" lon="2.216">
        <ele>576.46002197</ele>
        <time>2022-07-10T07:03:26Z</time>
      </trkpt>
      <trkpt lat="43.36564" lon="2.21601">
        <ele>576.5300293</ele>
        <time>2022-07-10T07:03:27Z</time>
      </trkpt>
      <trkpt lat="43.36565" lon="2.21601">
        <ele>576.63000488</ele>
        <time>2022-07-10T07:03:28Z</time>
      </trkpt>
      <trkpt lat="43.36567" lon="2.21602">
        <ele>576.58001709</ele>
        <time>2022-07-10T07:03:29Z</time>
      </trkpt>
      <trkpt lat="43.36569" lon="2.21602">
        <ele>576.64001465</ele>
        <time>2022-07-10T07:03:30Z</time>
      </trkpt>
      <trkpt lat="43.36571" lon="2.21602">
        <ele>576.7300415</ele>
        <time>2022-07-10T07:03:31Z</time>
      </trkpt>
      <trkpt lat="43.36573" lon="2.21602">
        <ele>576.75006104</ele>
        <time>2022-07-10T07:03:32Z</time>
      </trkpt>
      <trkpt lat="43.36575" lon="2.21603">
        <ele>576.88006592</ele>
        <time>2022-07-10T07:03:33Z</time>
      </trkpt>
      <trkpt lat="43.36577" lon="2.21603">
        <ele>576.94006348</ele>
        <time>2022-07-10T07:03:34Z</time>
      </trkpt>
      <trkpt lat="43.36579" lon="2.21604">
        <ele>576.96008301</ele>
        <time>2022-07-10T07:03:35Z</time>
      </trkpt>
      <trkpt lat="43.36582" lon="2.21604">
        <ele>577.15008545</ele>
        <time>2022-07-10T07:03:36Z</time>
      </trkpt>
      <trkpt lat="43.36584" lon="2.21605">
        <ele>577.43011475</ele>
        <time>2022-07-10T07:03:37Z</time>
      </trkpt>
      <trkpt lat="43.36586" lon="2.21605">
        <ele>577.65008545</ele>
        <time>2022-07-10T07:03:38Z</time>
      </trkpt>
      <trkpt lat="43.36588" lon="2.21605">
        <ele>577.81005859</ele>
        <time>2022-07-10T07:03:39Z</time>
      </trkpt>
      <trkpt lat="43.3659" lon="2.21605">
        <ele>577.86004639</ele>
        <time>2022-07-10T07:03:40Z</time>
      </trkpt>
      <trkpt lat="43.36593" lon="2.21606">
        <ele>577.86004639</ele>
        <time>2022-07-10T07:03:41Z</time>
      </trkpt>
      <trkpt lat="43.36595" lon="2.21606">
        <ele>578.00006104</ele>
        <time>2022-07-10T07:03:42Z</time>
      </trkpt>
      <trkpt lat="43.36597" lon="2.21607">
        <ele>578.2300415</ele>
        <time>2022-07-10T07:03:43Z</time>
      </trkpt>
      <trkpt lat="43.36599" lon="2.21608">
        <ele>578.34002686</ele>
        <time>2022-07-10T07:03:44Z</time>
      </trkpt>
      <trkpt lat="43.36602" lon="2.21608">
        <ele>578.39001465</ele>
        <time>2022-07-10T07:03:45Z</time>
      </trkpt>
      <trkpt lat="43.36603" lon="2.21608">
        <ele>578.36999512</ele>
        <time>2022-07-10T07:03:46Z</time>
      </trkpt>
      <trkpt lat="43.36605" lon="2.21608">
        <ele>578.34997559</ele>
        <time>2022-07-10T07:03:47Z</time>
      </trkpt>
      <trkpt lat="43.36607" lon="2.21608">
        <ele>578.47998047</ele>
        <time>2022-07-10T07:03:48Z</time>
      </trkpt>
      <trkpt lat="43.3661" lon="2.21609">
        <ele>578.5199585</ele>
        <time>2022-07-10T07:03:49Z</time>
      </trkpt>
      <trkpt lat="43.36612" lon="2.21608">
        <ele>578.61993408</ele>
        <time>2022-07-10T07:03:50Z</time>
      </trkpt>
      <trkpt lat="43.36615" lon="2.21608">
        <ele>578.67993164</ele>
        <time>2022-07-10T07:03:51Z</time>
      </trkpt>
      <trkpt lat="43.36617" lon="2.21608">
        <ele>578.74993896</ele>
        <time>2022-07-10T07:03:52Z</time>
      </trkpt>
      <trkpt lat="43.36618" lon="2.21608">
        <ele>578.93994141</ele>
        <time>2022-07-10T07:03:53Z</time>
      </trkpt>
      <trkpt lat="43.3662" lon="2.21608">
        <ele>579.05993652</ele>
        <time>2022-07-10T07:03:54Z</time>
      </trkpt>
      <trkpt lat="43.36622" lon="2.21608">
        <ele>579.18994141</ele>
        <time>2022-07-10T07:03:55Z</time>
      </trkpt>
      <trkpt lat="43.36625" lon="2.21608">
        <ele>579.2399292</ele>
        <time>2022-07-10T07:03:56Z</time>
      </trkpt>
      <trkpt lat="43.36627" lon="2.21608">
        <ele>579.21990967</ele>
        <time>2022-07-10T07:03:57Z</time>
      </trkpt>
      <trkpt lat="43.3663" lon="2.21608">
        <ele>579.19989014</ele>
        <time>2022-07-10T07:03:58Z</time>
      </trkpt>
      <trkpt lat="43.36632" lon="2.21607">
        <ele>579.22991943</ele>
        <time>2022-07-10T07:03:59Z</time>
      </trkpt>
      <trkpt lat="43.36634" lon="2.21607">
        <ele>579.29992676</ele>
        <time>2022-07-10T07:04:00Z</time>
      </trkpt>
      <trkpt lat="43.36636" lon="2.21607">
        <ele>579.47991943</ele>
        <time>2022-07-10T07:04:01Z</time>
      </trkpt>
      <trkpt lat="43.36637" lon="2.21607">
        <ele>579.63989258</ele>
        <time>2022-07-10T07:04:02Z</time>
      </trkpt>
      <trkpt lat="43.3664" lon="2.21606">
        <ele>579.72991943</ele>
        <time>2022-07-10T07:04:03Z</time>
      </trkpt>
      <trkpt lat="43.36642" lon="2.21607">
        <ele>579.77990723</ele>
        <time>2022-07-10T07:04:04Z</time>
      </trkpt>
      <trkpt lat="43.36644" lon="2.21606">
        <ele>579.78991699</ele>
        <time>2022-07-10T07:04:05Z</time>
      </trkpt>
      <trkpt lat="43.36647" lon="2.21606">
        <ele>579.82989502</ele>
        <time>2022-07-10T07:04:06Z</time>
      </trkpt>
      <trkpt lat="43.3665" lon="2.21607">
        <ele>579.90991211</ele>
        <time>2022-07-10T07:04:07Z</time>
      </trkpt>
      <trkpt lat="43.36652" lon="2.21607">
        <ele>580.01989746</ele>
        <time>2022-07-10T07:04:08Z</time>
      </trkpt>
      <trkpt lat="43.36654" lon="2.21606">
        <ele>580.09991455</ele>
        <time>2022-07-10T07:04:09Z</time>
      </trkpt>
      <trkpt lat="43.36656" lon="2.21606">
        <ele>580.17993164</ele>
        <time>2022-07-10T07:04:10Z</time>
      </trkpt>
      <trkpt lat="43.36658" lon="2.21605">
        <ele>580.31994629</ele>
        <time>2022-07-10T07:04:11Z</time>
      </trkpt>
      <trkpt lat="43.36662" lon="2.21605">
        <ele>580.37994385</ele>
        <time>2022-07-10T07:04:12Z</time>
      </trkpt>
      <trkpt lat="43.36664" lon="2.21605">
        <ele>580.44995117</ele>
        <time>2022-07-10T07:04:13Z</time>
      </trkpt>
      <trkpt lat="43.36666" lon="2.21605">
        <ele>580.53997803</ele>
        <time>2022-07-10T07:04:14Z</time>
      </trkpt>
      <trkpt lat="43.36668" lon="2.21605">
        <ele>580.58996582</ele>
        <time>2022-07-10T07:04:15Z</time>
      </trkpt>
      <trkpt lat="43.36669" lon="2.21605">
        <ele>580.67999268</ele>
        <time>2022-07-10T07:04:16Z</time>
      </trkpt>
      <trkpt lat="43.36672" lon="2.21604">
        <ele>580.78997803</ele>
        <time>2022-07-10T07:04:17Z</time>
      </trkpt>
      <trkpt lat="43.36674" lon="2.21604">
        <ele>580.84997559</ele>
        <time>2022-07-10T07:04:18Z</time>
      </trkpt>
      <trkpt lat="43.36676" lon="2.21604">
        <ele>580.88000488</ele>
        <time>2022-07-10T07:04:19Z</time>
      </trkpt>
      <trkpt lat="43.36678" lon="2.21604">
        <ele>581</ele>
        <time>2022-07-10T07:04:20Z</time>
      </trkpt>
      <trkpt lat="43.36682" lon="2.21603">
        <ele>581.14001465</ele>
        <time>2022-07-10T07:04:21Z</time>
      </trkpt>
      <trkpt lat="43.36684" lon="2.21603">
        <ele>581.20001221</ele>
        <time>2022-07-10T07:04:22Z</time>
      </trkpt>
      <trkpt lat="43.36686" lon="2.21603">
        <ele>581.2800293</ele>
        <time>2022-07-10T07:04:23Z</time>
      </trkpt>
      <trkpt lat="43.36688" lon="2.21602">
        <ele>581.31005859</ele>
        <time>2022-07-10T07:04:24Z</time>
      </trkpt>
      <trkpt lat="43.36691" lon="2.216">
        <ele>581.31005859</ele>
        <time>2022-07-10T07:04:25Z</time>
      </trkpt>
      <trkpt lat="43.36693" lon="2.216">
        <ele>581.44006348</ele>
        <time>2022-07-10T07:04:26Z</time>
      </trkpt>
      <trkpt lat="43.36695" lon="2.216">
        <ele>581.53009033</ele>
        <time>2022-07-10T07:04:27Z</time>
      </trkpt>
      <trkpt lat="43.36697" lon="2.21599">
        <ele>581.69006348</ele>
        <time>2022-07-10T07:04:28Z</time>
      </trkpt>
      <trkpt lat="43.36699" lon="2.21599">
        <ele>581.79003906</ele>
        <time>2022-07-10T07:04:29Z</time>
      </trkpt>
      <trkpt lat="43.36702" lon="2.21599">
        <ele>581.84002686</ele>
        <time>2022-07-10T07:04:30Z</time>
      </trkpt>
      <trkpt lat="43.36703" lon="2.21599">
        <ele>581.83001709</ele>
        <time>2022-07-10T07:04:31Z</time>
      </trkpt>
      <trkpt lat="43.36705" lon="2.21599">
        <ele>581.89001465</ele>
        <time>2022-07-10T07:04:32Z</time>
      </trkpt>
      <trkpt lat="43.36707" lon="2.21599">
        <ele>581.9800415</ele>
        <time>2022-07-10T07:04:33Z</time>
      </trkpt>
      <trkpt lat="43.3671" lon="2.21599">
        <ele>582.0100708</ele>
        <time>2022-07-10T07:04:34Z</time>
      </trkpt>
      <trkpt lat="43.36712" lon="2.21599">
        <ele>582.21008301</ele>
        <time>2022-07-10T07:04:35Z</time>
      </trkpt>
      <trkpt lat="43.36713" lon="2.21598">
        <ele>582.31005859</ele>
        <time>2022-07-10T07:04:36Z</time>
      </trkpt>
      <trkpt lat="43.36715" lon="2.21599">
        <ele>582.42004395</ele>
        <time>2022-07-10T07:04:37Z</time>
      </trkpt>
      <trkpt lat="43.36716" lon="2.21599">
        <ele>582.63006592</ele>
        <time>2022-07-10T07:04:38Z</time>
      </trkpt>
      <trkpt lat="43.36719" lon="2.21598">
        <ele>582.74005127</ele>
        <time>2022-07-10T07:04:39Z</time>
      </trkpt>
      <trkpt lat="43.3672" lon="2.21598">
        <ele>582.84002686</ele>
        <time>2022-07-10T07:04:40Z</time>
      </trkpt>
      <trkpt lat="43.36721" lon="2.21598">
        <ele>582.99005127</ele>
        <time>2022-07-10T07:04:41Z</time>
      </trkpt>
      <trkpt lat="43.36723" lon="2.21597">
        <ele>583.12005615</ele>
        <time>2022-07-10T07:04:42Z</time>
      </trkpt>
      <trkpt lat="43.36725" lon="2.21596">
        <ele>583.30004883</ele>
        <time>2022-07-10T07:04:43Z</time>
      </trkpt>
      <trkpt lat="43.36726" lon="2.21593">
        <ele>583.5300293</ele>
        <time>2022-07-10T07:04:44Z</time>
      </trkpt>
      <trkpt lat="43.36728" lon="2.21591">
        <ele>583.68005371</ele>
        <time>2022-07-10T07:04:45Z</time>
      </trkpt>
      <trkpt lat="43.36729" lon="2.21589">
        <ele>583.77008057</ele>
        <time>2022-07-10T07:04:46Z</time>
      </trkpt>
      <trkpt lat="43.36731" lon="2.21586">
        <ele>583.81005859</ele>
        <time>2022-07-10T07:04:47Z</time>
      </trkpt>
      <trkpt lat="43.36733" lon="2.21582">
        <ele>583.74005127</ele>
        <time>2022-07-10T07:04:48Z</time>
      </trkpt>
      <trkpt lat="43.36734" lon="2.2158">
        <ele>583.67004395</ele>
        <time>2022-07-10T07:04:49Z</time>
      </trkpt>
      <trkpt lat="43.36735" lon="2.21577">
        <ele>583.66003418</ele>
        <time>2022-07-10T07:04:50Z</time>
      </trkpt>
      <trkpt lat="43.36737" lon="2.21575">
        <ele>583.70001221</ele>
        <time>2022-07-10T07:04:51Z</time>
      </trkpt>
      <trkpt lat="43.36738" lon="2.21573">
        <ele>583.82000732</ele>
        <time>2022-07-10T07:04:52Z</time>
      </trkpt>
      <trkpt lat="43.36739" lon="2.21569">
        <ele>583.89001465</ele>
        <time>2022-07-10T07:04:53Z</time>
      </trkpt>
      <trkpt lat="43.36741" lon="2.21567">
        <ele>584.0300293</ele>
        <time>2022-07-10T07:04:54Z</time>
      </trkpt>
      <trkpt lat="43.36742" lon="2.21564">
        <ele>584.09002686</ele>
        <time>2022-07-10T07:04:55Z</time>
      </trkpt>
      <trkpt lat="43.36744" lon="2.21562">
        <ele>584.21002197</ele>
        <time>2022-07-10T07:04:56Z</time>
      </trkpt>
      <trkpt lat="43.36746" lon="2.21558">
        <ele>584.30004883</ele>
        <time>2022-07-10T07:04:57Z</time>
      </trkpt>
      <trkpt lat="43.36747" lon="2.21555">
        <ele>584.41003418</ele>
        <time>2022-07-10T07:04:58Z</time>
      </trkpt>
      <trkpt lat="43.36749" lon="2.21553">
        <ele>584.52001953</ele>
        <time>2022-07-10T07:04:59Z</time>
      </trkpt>
      <trkpt lat="43.3675" lon="2.2155">
        <ele>584.61004639</ele>
        <time>2022-07-10T07:05:00Z</time>
      </trkpt>
      <trkpt lat="43.36751" lon="2.21548">
        <ele>584.7600708</ele>
        <time>2022-07-10T07:05:01Z</time>
      </trkpt>
      <trkpt lat="43.36753" lon="2.21544">
        <ele>584.83007812</ele>
        <time>2022-07-10T07:05:02Z</time>
      </trkpt>
      <trkpt lat="43.36755" lon="2.21541">
        <ele>584.87005615</ele>
        <time>2022-07-10T07:05:03Z</time>
      </trkpt>
      <trkpt lat="43.36757" lon="2.21539">
        <ele>584.85003662</ele>
        <time>2022-07-10T07:05:04Z</time>
      </trkpt>
      <trkpt lat="43.36758" lon="2.21536">
        <ele>584.84002686</ele>
        <time>2022-07-10T07:05:05Z</time>
      </trkpt>
      <trkpt lat="43.36761" lon="2.21532">
        <ele>584.84002686</ele>
        <time>2022-07-10T07:05:06Z</time>
      </trkpt>
      <trkpt lat="43.36762" lon="2.21529">
        <ele>584.84002686</ele>
        <time>2022-07-10T07:05:07Z</time>
      </trkpt>
      <trkpt lat="43.36764" lon="2.21527">
        <ele>584.84002686</ele>
        <time>2022-07-10T07:05:08Z</time>
      </trkpt>
      <trkpt lat="43.36766" lon="2.21524">
        <ele>584.7800293</ele>
        <time>2022-07-10T07:05:09Z</time>
      </trkpt>
      <trkpt lat="43.36767" lon="2.21522">
        <ele>584.7300415</ele>
        <time>2022-07-10T07:05:10Z</time>
      </trkpt>
      <trkpt lat="43.3677" lon="2.21518">
        <ele>584.72003174</ele>
        <time>2022-07-10T07:05:11Z</time>
      </trkpt>
      <trkpt lat="43.36772" lon="2.21516">
        <ele>584.69000244</ele>
        <time>2022-07-10T07:05:12Z</time>
      </trkpt>
      <trkpt lat="43.36773" lon="2.21514">
        <ele>584.63000488</ele>
        <time>2022-07-10T07:05:13Z</time>
      </trkpt>
      <trkpt lat="43.36776" lon="2.21511">
        <ele>584.58001709</ele>
        <time>2022-07-10T07:05:14Z</time>
      </trkpt>
      <trkpt lat="43.36778" lon="2.21508">
        <ele>584.57000732</ele>
        <time>2022-07-10T07:05:15Z</time>
      </trkpt>
      <trkpt lat="43.3678" lon="2.21506">
        <ele>584.57000732</ele>
        <time>2022-07-10T07:05:16Z</time>
      </trkpt>
      <trkpt lat="43.36782" lon="2.21504">
        <ele>584.61999512</ele>
        <time>2022-07-10T07:05:17Z</time>
      </trkpt>
      <trkpt lat="43.36785" lon="2.21502">
        <ele>584.66998291</ele>
        <time>2022-07-10T07:05:18Z</time>
      </trkpt>
      <trkpt lat="43.36787" lon="2.215">
        <ele>584.63995361</ele>
        <time>2022-07-10T07:05:19Z</time>
      </trkpt>
      <trkpt lat="43.3679" lon="2.21497">
        <ele>584.70996094</ele>
        <time>2022-07-10T07:05:20Z</time>
      </trkpt>
      <trkpt lat="43.36792" lon="2.21495">
        <ele>584.81994629</ele>
        <time>2022-07-10T07:05:21Z</time>
      </trkpt>
      <trkpt lat="43.36794" lon="2.21494">
        <ele>584.90997314</ele>
        <time>2022-07-10T07:05:22Z</time>
      </trkpt>
      <trkpt lat="43.36796" lon="2.21492">
        <ele>584.98999023</ele>
        <time>2022-07-10T07:05:23Z</time>
      </trkpt>
      <trkpt lat="43.368" lon="2.21489">
        <ele>584.98999023</ele>
        <time>2022-07-10T07:05:24Z</time>
      </trkpt>
      <trkpt lat="43.36802" lon="2.21487">
        <ele>584.95996094</ele>
        <time>2022-07-10T07:05:25Z</time>
      </trkpt>
      <trkpt lat="43.36804" lon="2.21485">
        <ele>584.98999023</ele>
        <time>2022-07-10T07:05:26Z</time>
      </trkpt>
      <trkpt lat="43.36806" lon="2.21484">
        <ele>585.07000732</ele>
        <time>2022-07-10T07:05:27Z</time>
      </trkpt>
      <trkpt lat="43.36808" lon="2.21481">
        <ele>585.13000488</ele>
        <time>2022-07-10T07:05:28Z</time>
      </trkpt>
      <trkpt lat="43.36811" lon="2.21478">
        <ele>585.17999268</ele>
        <time>2022-07-10T07:05:29Z</time>
      </trkpt>
      <trkpt lat="43.36813" lon="2.21476">
        <ele>585.23999023</ele>
        <time>2022-07-10T07:05:30Z</time>
      </trkpt>
      <trkpt lat="43.36816" lon="2.21474">
        <ele>585.27996826</ele>
        <time>2022-07-10T07:05:31Z</time>
      </trkpt>
      <trkpt lat="43.36818" lon="2.21473">
        <ele>585.32995605</ele>
        <time>2022-07-10T07:05:32Z</time>
      </trkpt>
      <trkpt lat="43.36821" lon="2.2147">
        <ele>585.43994141</ele>
        <time>2022-07-10T07:05:33Z</time>
      </trkpt>
      <trkpt lat="43.36824" lon="2.21469">
        <ele>585.42993164</ele>
        <time>2022-07-10T07:05:34Z</time>
      </trkpt>
      <trkpt lat="43.36827" lon="2.21468">
        <ele>585.40991211</ele>
        <time>2022-07-10T07:05:35Z</time>
      </trkpt>
      <trkpt lat="43.36829" lon="2.21467">
        <ele>585.40991211</ele>
        <time>2022-07-10T07:05:36Z</time>
      </trkpt>
      <trkpt lat="43.36833" lon="2.21466">
        <ele>585.31988525</ele>
        <time>2022-07-10T07:05:37Z</time>
      </trkpt>
      <trkpt lat="43.36836" lon="2.21467">
        <ele>585.26989746</ele>
        <time>2022-07-10T07:05:38Z</time>
      </trkpt>
      <trkpt lat="43.36839" lon="2.21467">
        <ele>585.2598877</ele>
        <time>2022-07-10T07:05:39Z</time>
      </trkpt>
      <trkpt lat="43.36842" lon="2.21467">
        <ele>585.16986084</ele>
        <time>2022-07-10T07:05:40Z</time>
      </trkpt>
      <trkpt lat="43.36844" lon="2.21467">
        <ele>585.14984131</ele>
        <time>2022-07-10T07:05:41Z</time>
      </trkpt>
      <trkpt lat="43.36848" lon="2.21467">
        <ele>585.1998291</ele>
        <time>2022-07-10T07:05:42Z</time>
      </trkpt>
      <trkpt lat="43.36851" lon="2.21467">
        <ele>585.25982666</ele>
        <time>2022-07-10T07:05:43Z</time>
      </trkpt>
      <trkpt lat="43.36854" lon="2.21467">
        <ele>585.34985352</ele>
        <time>2022-07-10T07:05:44Z</time>
      </trkpt>
      <trkpt lat="43.36856" lon="2.21467">
        <ele>585.38983154</ele>
        <time>2022-07-10T07:05:45Z</time>
      </trkpt>
      <trkpt lat="43.36859" lon="2.21467">
        <ele>585.33984375</ele>
        <time>2022-07-10T07:05:46Z</time>
      </trkpt>
      <trkpt lat="43.36863" lon="2.21468">
        <ele>585.33984375</ele>
        <time>2022-07-10T07:05:47Z</time>
      </trkpt>
      <trkpt lat="43.36866" lon="2.21468">
        <ele>585.30981445</ele>
        <time>2022-07-10T07:05:48Z</time>
      </trkpt>
      <trkpt lat="43.36869" lon="2.21469">
        <ele>585.29980469</ele>
        <time>2022-07-10T07:05:49Z</time>
      </trkpt>
      <trkpt lat="43.36872" lon="2.2147">
        <ele>585.33978271</ele>
        <time>2022-07-10T07:05:50Z</time>
      </trkpt>
      <trkpt lat="43.36877" lon="2.21472">
        <ele>585.30975342</ele>
        <time>2022-07-10T07:05:51Z</time>
      </trkpt>
      <trkpt lat="43.36879" lon="2.21473">
        <ele>585.39978027</ele>
        <time>2022-07-10T07:05:52Z</time>
      </trkpt>
      <trkpt lat="43.36882" lon="2.21475">
        <ele>585.44976807</ele>
        <time>2022-07-10T07:05:53Z</time>
      </trkpt>
      <trkpt lat="43.36884" lon="2.21477">
        <ele>585.4697876</ele>
        <time>2022-07-10T07:05:54Z</time>
      </trkpt>
      <trkpt lat="43.36886" lon="2.2148">
        <ele>585.49981689</ele>
        <time>2022-07-10T07:05:55Z</time>
      </trkpt>
      <trkpt lat="43.36889" lon="2.21484">
        <ele>585.51983643</ele>
        <time>2022-07-10T07:05:56Z</time>
      </trkpt>
      <trkpt lat="43.36891" lon="2.21486">
        <ele>585.57983398</ele>
        <time>2022-07-10T07:05:57Z</time>
      </trkpt>
      <trkpt lat="43.36893" lon="2.21489">
        <ele>585.65985107</ele>
        <time>2022-07-10T07:05:58Z</time>
      </trkpt>
      <trkpt lat="43.36895" lon="2.21491">
        <ele>585.75982666</ele>
        <time>2022-07-10T07:05:59Z</time>
      </trkpt>
      <trkpt lat="43.36898" lon="2.21495">
        <ele>585.82983398</ele>
        <time>2022-07-10T07:06:00Z</time>
      </trkpt>
      <trkpt lat="43.369" lon="2.21497">
        <ele>585.92980957</ele>
        <time>2022-07-10T07:06:01Z</time>
      </trkpt>
      <trkpt lat="43.36903" lon="2.21498">
        <ele>585.97979736</ele>
        <time>2022-07-10T07:06:02Z</time>
      </trkpt>
      <trkpt lat="43.36905" lon="2.215">
        <ele>586.03979492</ele>
        <time>2022-07-10T07:06:03Z</time>
      </trkpt>
      <trkpt lat="43.36911" lon="2.21503">
        <ele>586.09979248</ele>
        <time>2022-07-10T07:06:04Z</time>
      </trkpt>
      <trkpt lat="43.36914" lon="2.21504">
        <ele>586.09979248</ele>
        <time>2022-07-10T07:06:05Z</time>
      </trkpt>
      <trkpt lat="43.36916" lon="2.21504">
        <ele>586.10980225</ele>
        <time>2022-07-10T07:06:06Z</time>
      </trkpt>
      <trkpt lat="43.36919" lon="2.21504">
        <ele>586.10980225</ele>
        <time>2022-07-10T07:06:07Z</time>
      </trkpt>
      <trkpt lat="43.36922" lon="2.21503">
        <ele>586.06982422</ele>
        <time>2022-07-10T07:06:08Z</time>
      </trkpt>
      <trkpt lat="43.36926" lon="2.21501">
        <ele>585.9197998</ele>
        <time>2022-07-10T07:06:09Z</time>
      </trkpt>
      <trkpt lat="43.3693" lon="2.215">
        <ele>585.9197998</ele>
        <time>2022-07-10T07:06:10Z</time>
      </trkpt>
      <trkpt lat="43.36932" lon="2.21498">
        <ele>585.86981201</ele>
        <time>2022-07-10T07:06:11Z</time>
      </trkpt>
      <trkpt lat="43.36935" lon="2.21496">
        <ele>585.88983154</ele>
        <time>2022-07-10T07:06:12Z</time>
      </trkpt>
      <trkpt lat="43.36938" lon="2.21492">
        <ele>585.89984131</ele>
        <time>2022-07-10T07:06:13Z</time>
      </trkpt>
      <trkpt lat="43.3694" lon="2.21488">
        <ele>585.89984131</ele>
        <time>2022-07-10T07:06:14Z</time>
      </trkpt>
      <trkpt lat="43.36942" lon="2.21485">
        <ele>585.88983154</ele>
        <time>2022-07-10T07:06:15Z</time>
      </trkpt>
      <trkpt lat="43.36944" lon="2.21481">
        <ele>585.86981201</ele>
        <time>2022-07-10T07:06:16Z</time>
      </trkpt>
      <trkpt lat="43.36946" lon="2.21477">
        <ele>585.85980225</ele>
        <time>2022-07-10T07:06:17Z</time>
      </trkpt>
      <trkpt lat="43.36949" lon="2.2147">
        <ele>585.85980225</ele>
        <time>2022-07-10T07:06:18Z</time>
      </trkpt>
      <trkpt lat="43.3695" lon="2.21466">
        <ele>585.85980225</ele>
        <time>2022-07-10T07:06:19Z</time>
      </trkpt>
      <trkpt lat="43.36952" lon="2.21462">
        <ele>585.83978271</ele>
        <time>2022-07-10T07:06:20Z</time>
      </trkpt>
      <trkpt lat="43.36954" lon="2.21459">
        <ele>585.82977295</ele>
        <time>2022-07-10T07:06:21Z</time>
      </trkpt>
      <trkpt lat="43.36956" lon="2.21455">
        <ele>585.80975342</ele>
        <time>2022-07-10T07:06:22Z</time>
      </trkpt>
      <trkpt lat="43.36959" lon="2.2145">
        <ele>585.82977295</ele>
        <time>2022-07-10T07:06:23Z</time>
      </trkpt>
      <trkpt lat="43.36961" lon="2.21447">
        <ele>585.86975098</ele>
        <time>2022-07-10T07:06:24Z</time>
      </trkpt>
      <trkpt lat="43.36964" lon="2.21443">
        <ele>585.86975098</ele>
        <time>2022-07-10T07:06:25Z</time>
      </trkpt>
      <trkpt lat="43.36966" lon="2.21439">
        <ele>585.85974121</ele>
        <time>2022-07-10T07:06:26Z</time>
      </trkpt>
      <trkpt lat="43.3697" lon="2.21432">
        <ele>585.89971924</ele>
        <time>2022-07-10T07:06:27Z</time>
      </trkpt>
      <trkpt lat="43.36973" lon="2.2143">
        <ele>585.93969727</ele>
        <time>2022-07-10T07:06:28Z</time>
      </trkpt>
      <trkpt lat="43.36976" lon="2.21429">
        <ele>586.02972412</ele>
        <time>2022-07-10T07:06:29Z</time>
      </trkpt>
      <trkpt lat="43.36979" lon="2.21428">
        <ele>586.159729</ele>
        <time>2022-07-10T07:06:30Z</time>
      </trkpt>
      <trkpt lat="43.36984" lon="2.21427">
        <ele>586.1897583</ele>
        <time>2022-07-10T07:06:31Z</time>
      </trkpt>
      <trkpt lat="43.36987" lon="2.21425">
        <ele>586.20977783</ele>
        <time>2022-07-10T07:06:32Z</time>
      </trkpt>
      <trkpt lat="43.3699" lon="2.21423">
        <ele>586.2197876</ele>
        <time>2022-07-10T07:06:33Z</time>
      </trkpt>
      <trkpt lat="43.36993" lon="2.21422">
        <ele>586.2197876</ele>
        <time>2022-07-10T07:06:34Z</time>
      </trkpt>
      <trkpt lat="43.36996" lon="2.2142">
        <ele>586.24981689</ele>
        <time>2022-07-10T07:06:35Z</time>
      </trkpt>
      <trkpt lat="43.37" lon="2.21418">
        <ele>586.25982666</ele>
        <time>2022-07-10T07:06:36Z</time>
      </trkpt>
      <trkpt lat="43.37003" lon="2.21416">
        <ele>586.27984619</ele>
        <time>2022-07-10T07:06:37Z</time>
      </trkpt>
      <trkpt lat="43.37006" lon="2.21416">
        <ele>586.27984619</ele>
        <time>2022-07-10T07:06:38Z</time>
      </trkpt>
      <trkpt lat="43.37009" lon="2.21415">
        <ele>586.28985596</ele>
        <time>2022-07-10T07:06:39Z</time>
      </trkpt>
      <trkpt lat="43.37013" lon="2.21413">
        <ele>586.32983398</ele>
        <time>2022-07-10T07:06:40Z</time>
      </trkpt>
      <trkpt lat="43.37018" lon="2.21413">
        <ele>586.32983398</ele>
        <time>2022-07-10T07:06:41Z</time>
      </trkpt>
      <trkpt lat="43.3702" lon="2.21413">
        <ele>586.29980469</ele>
        <time>2022-07-10T07:06:42Z</time>
      </trkpt>
      <trkpt lat="43.37022" lon="2.21413">
        <ele>586.26977539</ele>
        <time>2022-07-10T07:06:43Z</time>
      </trkpt>
      <trkpt lat="43.37024" lon="2.21413">
        <ele>586.20977783</ele>
        <time>2022-07-10T07:06:44Z</time>
      </trkpt>
      <trkpt lat="43.37029" lon="2.21413">
        <ele>586.17974854</ele>
        <time>2022-07-10T07:06:45Z</time>
      </trkpt>
      <trkpt lat="43.37032" lon="2.21413">
        <ele>586.17974854</ele>
        <time>2022-07-10T07:06:46Z</time>
      </trkpt>
      <trkpt lat="43.37035" lon="2.21413">
        <ele>586.26977539</ele>
        <time>2022-07-10T07:06:47Z</time>
      </trkpt>
      <trkpt lat="43.37038" lon="2.21414">
        <ele>586.38977051</ele>
        <time>2022-07-10T07:06:48Z</time>
      </trkpt>
      <trkpt lat="43.37043" lon="2.21414">
        <ele>586.52978516</ele>
        <time>2022-07-10T07:06:49Z</time>
      </trkpt>
      <trkpt lat="43.37046" lon="2.21414">
        <ele>586.59979248</ele>
        <time>2022-07-10T07:06:50Z</time>
      </trkpt>
      <trkpt lat="43.3705" lon="2.21414">
        <ele>586.59979248</ele>
        <time>2022-07-10T07:06:51Z</time>
      </trkpt>
      <trkpt lat="43.37054" lon="2.21414">
        <ele>586.59979248</ele>
        <time>2022-07-10T07:06:52Z</time>
      </trkpt>
      <trkpt lat="43.37058" lon="2.21412">
        <ele>586.55981445</ele>
        <time>2022-07-10T07:06:53Z</time>
      </trkpt>
      <trkpt lat="43.37064" lon="2.21411">
        <ele>586.65979004</ele>
        <time>2022-07-10T07:06:54Z</time>
      </trkpt>
      <trkpt lat="43.37068" lon="2.2141">
        <ele>586.73980713</ele>
        <time>2022-07-10T07:06:55Z</time>
      </trkpt>
      <trkpt lat="43.37073" lon="2.21408">
        <ele>586.87982178</ele>
        <time>2022-07-10T07:06:56Z</time>
      </trkpt>
      <trkpt lat="43.37076" lon="2.21406">
        <ele>587.03979492</ele>
        <time>2022-07-10T07:06:57Z</time>
      </trkpt>
      <trkpt lat="43.37081" lon="2.21404">
        <ele>587.14978027</ele>
        <time>2022-07-10T07:06:58Z</time>
      </trkpt>
      <trkpt lat="43.37084" lon="2.21403">
        <ele>587.30975342</ele>
        <time>2022-07-10T07:06:59Z</time>
      </trkpt>
      <trkpt lat="43.37088" lon="2.21403">
        <ele>587.36975098</ele>
        <time>2022-07-10T07:07:00Z</time>
      </trkpt>
      <trkpt lat="43.37091" lon="2.21402">
        <ele>587.35974121</ele>
        <time>2022-07-10T07:07:01Z</time>
      </trkpt>
      <trkpt lat="43.37094" lon="2.21401">
        <ele>587.38977051</ele>
        <time>2022-07-10T07:07:02Z</time>
      </trkpt>
      <trkpt lat="43.37099" lon="2.214">
        <ele>587.42974854</ele>
        <time>2022-07-10T07:07:03Z</time>
      </trkpt>
      <trkpt lat="43.37102" lon="2.21399">
        <ele>587.47973633</ele>
        <time>2022-07-10T07:07:04Z</time>
      </trkpt>
      <trkpt lat="43.37105" lon="2.21399">
        <ele>587.62976074</ele>
        <time>2022-07-10T07:07:05Z</time>
      </trkpt>
      <trkpt lat="43.37108" lon="2.21399">
        <ele>587.70977783</ele>
        <time>2022-07-10T07:07:06Z</time>
      </trkpt>
      <trkpt lat="43.37113" lon="2.21399">
        <ele>587.73980713</ele>
        <time>2022-07-10T07:07:07Z</time>
      </trkpt>
      <trkpt lat="43.37116" lon="2.214">
        <ele>587.79980469</ele>
        <time>2022-07-10T07:07:08Z</time>
      </trkpt>
      <trkpt lat="43.37119" lon="2.214">
        <ele>587.84979248</ele>
        <time>2022-07-10T07:07:09Z</time>
      </trkpt>
      <trkpt lat="43.37122" lon="2.21401">
        <ele>587.86981201</ele>
        <time>2022-07-10T07:07:10Z</time>
      </trkpt>
      <trkpt lat="43.37125" lon="2.21402">
        <ele>587.86981201</ele>
        <time>2022-07-10T07:07:11Z</time>
      </trkpt>
      <trkpt lat="43.3713" lon="2.21404">
        <ele>587.85980225</ele>
        <time>2022-07-10T07:07:12Z</time>
      </trkpt>
      <trkpt lat="43.37133" lon="2.21405">
        <ele>587.92980957</ele>
        <time>2022-07-10T07:07:13Z</time>
      </trkpt>
      <trkpt lat="43.37136" lon="2.21405">
        <ele>587.92980957</ele>
        <time>2022-07-10T07:07:14Z</time>
      </trkpt>
      <trkpt lat="43.3714" lon="2.21406">
        <ele>587.9697876</ele>
        <time>2022-07-10T07:07:15Z</time>
      </trkpt>
      <trkpt lat="43.37144" lon="2.21407">
        <ele>588.04980469</ele>
        <time>2022-07-10T07:07:16Z</time>
      </trkpt>
      <trkpt lat="43.37148" lon="2.21408">
        <ele>588.03979492</ele>
        <time>2022-07-10T07:07:17Z</time>
      </trkpt>
      <trkpt lat="43.37151" lon="2.2141">
        <ele>588.11981201</ele>
        <time>2022-07-10T07:07:18Z</time>
      </trkpt>
      <trkpt lat="43.37154" lon="2.21411">
        <ele>588.17980957</ele>
        <time>2022-07-10T07:07:19Z</time>
      </trkpt>
      <trkpt lat="43.37159" lon="2.21413">
        <ele>588.18981934</ele>
        <time>2022-07-10T07:07:20Z</time>
      </trkpt>
      <trkpt lat="43.37162" lon="2.21415">
        <ele>588.1998291</ele>
        <time>2022-07-10T07:07:21Z</time>
      </trkpt>
      <trkpt lat="43.37164" lon="2.21416">
        <ele>588.27984619</ele>
        <time>2022-07-10T07:07:22Z</time>
      </trkpt>
      <trkpt lat="43.37167" lon="2.21417">
        <ele>588.37982178</ele>
        <time>2022-07-10T07:07:23Z</time>
      </trkpt>
      <trkpt lat="43.3717" lon="2.21419">
        <ele>588.48980713</ele>
        <time>2022-07-10T07:07:24Z</time>
      </trkpt>
      <trkpt lat="43.37176" lon="2.21421">
        <ele>588.64978027</ele>
        <time>2022-07-10T07:07:25Z</time>
      </trkpt>
      <trkpt lat="43.37179" lon="2.21422">
        <ele>588.67980957</ele>
        <time>2022-07-10T07:07:26Z</time>
      </trkpt>
      <trkpt lat="43.37181" lon="2.21423">
        <ele>588.67980957</ele>
        <time>2022-07-10T07:07:27Z</time>
      </trkpt>
      <trkpt lat="43.37184" lon="2.21424">
        <ele>588.63983154</ele>
        <time>2022-07-10T07:07:28Z</time>
      </trkpt>
      <trkpt lat="43.37188" lon="2.21426">
        <ele>588.54980469</ele>
        <time>2022-07-10T07:07:29Z</time>
      </trkpt>
      <trkpt lat="43.37192" lon="2.21428">
        <ele>588.50982666</ele>
        <time>2022-07-10T07:07:30Z</time>
      </trkpt>
      <trkpt lat="43.37195" lon="2.21429">
        <ele>588.55981445</ele>
        <time>2022-07-10T07:07:31Z</time>
      </trkpt>
      <trkpt lat="43.37198" lon="2.2143">
        <ele>588.63983154</ele>
        <time>2022-07-10T07:07:32Z</time>
      </trkpt>
      <trkpt lat="43.37202" lon="2.21431">
        <ele>588.82983398</ele>
        <time>2022-07-10T07:07:33Z</time>
      </trkpt>
      <trkpt lat="43.37207" lon="2.21431">
        <ele>588.92980957</ele>
        <time>2022-07-10T07:07:34Z</time>
      </trkpt>
      <trkpt lat="43.3721" lon="2.21431">
        <ele>588.93981934</ele>
        <time>2022-07-10T07:07:35Z</time>
      </trkpt>
      <trkpt lat="43.37214" lon="2.2143">
        <ele>588.95983887</ele>
        <time>2022-07-10T07:07:36Z</time>
      </trkpt>
      <trkpt lat="43.37217" lon="2.2143">
        <ele>588.86981201</ele>
        <time>2022-07-10T07:07:37Z</time>
      </trkpt>
      <trkpt lat="43.37221" lon="2.21429">
        <ele>588.86981201</ele>
        <time>2022-07-10T07:07:38Z</time>
      </trkpt>
      <trkpt lat="43.37226" lon="2.21428">
        <ele>588.86981201</ele>
        <time>2022-07-10T07:07:39Z</time>
      </trkpt>
      <trkpt lat="43.37229" lon="2.21427">
        <ele>588.89984131</ele>
        <time>2022-07-10T07:07:40Z</time>
      </trkpt>
      <trkpt lat="43.37232" lon="2.21426">
        <ele>588.92987061</ele>
        <time>2022-07-10T07:07:41Z</time>
      </trkpt>
      <trkpt lat="43.37236" lon="2.21424">
        <ele>588.92987061</ele>
        <time>2022-07-10T07:07:42Z</time>
      </trkpt>
      <trkpt lat="43.37242" lon="2.21421">
        <ele>588.96984863</ele>
        <time>2022-07-10T07:07:43Z</time>
      </trkpt>
      <trkpt lat="43.37245" lon="2.21418">
        <ele>588.9498291</ele>
        <time>2022-07-10T07:07:44Z</time>
      </trkpt>
      <trkpt lat="43.37248" lon="2.21416">
        <ele>588.9498291</ele>
        <time>2022-07-10T07:07:45Z</time>
      </trkpt>
      <trkpt lat="43.37251" lon="2.21414">
        <ele>588.9798584</ele>
        <time>2022-07-10T07:07:46Z</time>
      </trkpt>
      <trkpt lat="43.37254" lon="2.21412">
        <ele>588.9798584</ele>
        <time>2022-07-10T07:07:47Z</time>
      </trkpt>
      <trkpt lat="43.37259" lon="2.21408">
        <ele>589.05987549</ele>
        <time>2022-07-10T07:07:48Z</time>
      </trkpt>
      <trkpt lat="43.37262" lon="2.21406">
        <ele>589.13989258</ele>
        <time>2022-07-10T07:07:49Z</time>
      </trkpt>
      <trkpt lat="43.37265" lon="2.21403">
        <ele>589.2098999</ele>
        <time>2022-07-10T07:07:50Z</time>
      </trkpt>
      <trkpt lat="43.37268" lon="2.21401">
        <ele>589.34991455</ele>
        <time>2022-07-10T07:07:51Z</time>
      </trkpt>
      <trkpt lat="43.37272" lon="2.21398">
        <ele>589.36993408</ele>
        <time>2022-07-10T07:07:52Z</time>
      </trkpt>
      <trkpt lat="43.37275" lon="2.21396">
        <ele>589.37994385</ele>
        <time>2022-07-10T07:07:53Z</time>
      </trkpt>
      <trkpt lat="43.37278" lon="2.21393">
        <ele>589.37994385</ele>
        <time>2022-07-10T07:07:54Z</time>
      </trkpt>
      <trkpt lat="43.37281" lon="2.21391">
        <ele>589.35992432</ele>
        <time>2022-07-10T07:07:55Z</time>
      </trkpt>
      <trkpt lat="43.37284" lon="2.21388">
        <ele>589.36993408</ele>
        <time>2022-07-10T07:07:56Z</time>
      </trkpt>
      <trkpt lat="43.37288" lon="2.21386">
        <ele>589.34991455</ele>
        <time>2022-07-10T07:07:57Z</time>
      </trkpt>
      <trkpt lat="43.37291" lon="2.21385">
        <ele>589.34991455</ele>
        <time>2022-07-10T07:07:58Z</time>
      </trkpt>
      <trkpt lat="43.37294" lon="2.21383">
        <ele>589.32989502</ele>
        <time>2022-07-10T07:07:59Z</time>
      </trkpt>
      <trkpt lat="43.37296" lon="2.21381">
        <ele>589.26989746</ele>
        <time>2022-07-10T07:08:00Z</time>
      </trkpt>
      <trkpt lat="43.37301" lon="2.21378">
        <ele>589.24987793</ele>
        <time>2022-07-10T07:08:01Z</time>
      </trkpt>
      <trkpt lat="43.37304" lon="2.21375">
        <ele>589.21984863</ele>
        <time>2022-07-10T07:08:02Z</time>
      </trkpt>
      <trkpt lat="43.37307" lon="2.21372">
        <ele>589.20983887</ele>
        <time>2022-07-10T07:08:03Z</time>
      </trkpt>
      <trkpt lat="43.3731" lon="2.2137">
        <ele>589.26983643</ele>
        <time>2022-07-10T07:08:04Z</time>
      </trkpt>
      <trkpt lat="43.37314" lon="2.21367">
        <ele>589.30981445</ele>
        <time>2022-07-10T07:08:05Z</time>
      </trkpt>
      <trkpt lat="43.3732" lon="2.21362">
        <ele>589.34979248</ele>
        <time>2022-07-10T07:08:06Z</time>
      </trkpt>
      <trkpt lat="43.37323" lon="2.21359">
        <ele>589.34979248</ele>
        <time>2022-07-10T07:08:07Z</time>
      </trkpt>
      <trkpt lat="43.37326" lon="2.21356">
        <ele>589.31976318</ele>
        <time>2022-07-10T07:08:08Z</time>
      </trkpt>
      <trkpt lat="43.37329" lon="2.21353">
        <ele>589.27978516</ele>
        <time>2022-07-10T07:08:09Z</time>
      </trkpt>
      <trkpt lat="43.37334" lon="2.21347">
        <ele>589.27978516</ele>
        <time>2022-07-10T07:08:10Z</time>
      </trkpt>
      <trkpt lat="43.37337" lon="2.21344">
        <ele>589.36981201</ele>
        <time>2022-07-10T07:08:11Z</time>
      </trkpt>
      <trkpt lat="43.37341" lon="2.21341">
        <ele>589.50982666</ele>
        <time>2022-07-10T07:08:12Z</time>
      </trkpt>
      <trkpt lat="43.37344" lon="2.21338">
        <ele>589.67980957</ele>
        <time>2022-07-10T07:08:13Z</time>
      </trkpt>
      <trkpt lat="43.37348" lon="2.21334">
        <ele>589.76983643</ele>
        <time>2022-07-10T07:08:14Z</time>
      </trkpt>
      <trkpt lat="43.37352" lon="2.21329">
        <ele>589.81982422</ele>
        <time>2022-07-10T07:08:15Z</time>
      </trkpt>
      <trkpt lat="43.37355" lon="2.21327">
        <ele>589.79980469</ele>
        <time>2022-07-10T07:08:16Z</time>
      </trkpt>
      <trkpt lat="43.37358" lon="2.21324">
        <ele>589.73980713</ele>
        <time>2022-07-10T07:08:17Z</time>
      </trkpt>
      <trkpt lat="43.37361" lon="2.2132">
        <ele>589.72979736</ele>
        <time>2022-07-10T07:08:18Z</time>
      </trkpt>
      <trkpt lat="43.37366" lon="2.21315">
        <ele>589.61981201</ele>
        <time>2022-07-10T07:08:19Z</time>
      </trkpt>
      <trkpt lat="43.37369" lon="2.21312">
        <ele>589.50982666</ele>
        <time>2022-07-10T07:08:20Z</time>
      </trkpt>
      <trkpt lat="43.37372" lon="2.21309">
        <ele>589.46984863</ele>
        <time>2022-07-10T07:08:21Z</time>
      </trkpt>
      <trkpt lat="43.37375" lon="2.21305">
        <ele>589.43981934</ele>
        <time>2022-07-10T07:08:22Z</time>
      </trkpt>
      <trkpt lat="43.37378" lon="2.21303">
        <ele>589.4498291</ele>
        <time>2022-07-10T07:08:23Z</time>
      </trkpt>
      <trkpt lat="43.37383" lon="2.21299">
        <ele>589.45983887</ele>
        <time>2022-07-10T07:08:24Z</time>
      </trkpt>
      <trkpt lat="43.37386" lon="2.21296">
        <ele>589.4798584</ele>
        <time>2022-07-10T07:08:25Z</time>
      </trkpt>
      <trkpt lat="43.3739" lon="2.21293">
        <ele>589.48986816</ele>
        <time>2022-07-10T07:08:26Z</time>
      </trkpt>
      <trkpt lat="43.37393" lon="2.21291">
        <ele>589.51989746</ele>
        <time>2022-07-10T07:08:27Z</time>
      </trkpt>
      <trkpt lat="43.37397" lon="2.21287">
        <ele>589.60992432</ele>
        <time>2022-07-10T07:08:28Z</time>
      </trkpt>
      <trkpt lat="43.37401" lon="2.21284">
        <ele>589.64990234</ele>
        <time>2022-07-10T07:08:29Z</time>
      </trkpt>
      <trkpt lat="43.37403" lon="2.2128">
        <ele>589.67993164</ele>
        <time>2022-07-10T07:08:30Z</time>
      </trkpt>
      <trkpt lat="43.37406" lon="2.21276">
        <ele>589.68994141</ele>
        <time>2022-07-10T07:08:31Z</time>
      </trkpt>
      <trkpt lat="43.37409" lon="2.21274">
        <ele>589.69995117</ele>
        <time>2022-07-10T07:08:32Z</time>
      </trkpt>
      <trkpt lat="43.37412" lon="2.21268">
        <ele>589.72998047</ele>
        <time>2022-07-10T07:08:33Z</time>
      </trkpt>
      <trkpt lat="43.37415" lon="2.21265">
        <ele>589.77996826</ele>
        <time>2022-07-10T07:08:34Z</time>
      </trkpt>
      <trkpt lat="43.37417" lon="2.21262">
        <ele>589.83996582</ele>
        <time>2022-07-10T07:08:35Z</time>
      </trkpt>
      <trkpt lat="43.37419" lon="2.21259">
        <ele>589.77996826</ele>
        <time>2022-07-10T07:08:36Z</time>
      </trkpt>
      <trkpt lat="43.37423" lon="2.21254">
        <ele>589.70996094</ele>
        <time>2022-07-10T07:08:37Z</time>
      </trkpt>
      <trkpt lat="43.37425" lon="2.2125">
        <ele>589.68994141</ele>
        <time>2022-07-10T07:08:38Z</time>
      </trkpt>
      <trkpt lat="43.37428" lon="2.21247">
        <ele>589.65991211</ele>
        <time>2022-07-10T07:08:39Z</time>
      </trkpt>
      <trkpt lat="43.37431" lon="2.21246">
        <ele>589.72991943</ele>
        <time>2022-07-10T07:08:40Z</time>
      </trkpt>
      <trkpt lat="43.37435" lon="2.21245">
        <ele>589.76989746</ele>
        <time>2022-07-10T07:08:41Z</time>
      </trkpt>
      <trkpt lat="43.37439" lon="2.21245">
        <ele>589.81988525</ele>
        <time>2022-07-10T07:08:42Z</time>
      </trkpt>
      <trkpt lat="43.3744" lon="2.21246">
        <ele>589.85986328</ele>
        <time>2022-07-10T07:08:43Z</time>
      </trkpt>
      <trkpt lat="43.37441" lon="2.21245">
        <ele>589.94989014</ele>
        <time>2022-07-10T07:08:44Z</time>
      </trkpt>
      <trkpt lat="43.37442" lon="2.21245">
        <ele>590.14990234</ele>
        <time>2022-07-10T07:08:45Z</time>
      </trkpt>
      <trkpt lat="43.37444" lon="2.21245">
        <ele>590.47991943</ele>
        <time>2022-07-10T07:08:47Z</time>
      </trkpt>
      <trkpt lat="43.37444" lon="2.21243">
        <ele>590.56994629</ele>
        <time>2022-07-10T07:08:48Z</time>
      </trkpt>
      <trkpt lat="43.37445" lon="2.21241">
        <ele>590.63995361</ele>
        <time>2022-07-10T07:08:49Z</time>
      </trkpt>
      <trkpt lat="43.37445" lon="2.2124">
        <ele>590.68994141</ele>
        <time>2022-07-10T07:08:50Z</time>
      </trkpt>
      <trkpt lat="43.37446" lon="2.21236">
        <ele>590.62994385</ele>
        <time>2022-07-10T07:08:51Z</time>
      </trkpt>
      <trkpt lat="43.37447" lon="2.21233">
        <ele>590.65997314</ele>
        <time>2022-07-10T07:08:52Z</time>
      </trkpt>
      <trkpt lat="43.37448" lon="2.21231">
        <ele>590.56994629</ele>
        <time>2022-07-10T07:08:53Z</time>
      </trkpt>
      <trkpt lat="43.37448" lon="2.21228">
        <ele>590.45996094</ele>
        <time>2022-07-10T07:08:54Z</time>
      </trkpt>
      <trkpt lat="43.37449" lon="2.21226">
        <ele>590.45996094</ele>
        <time>2022-07-10T07:08:55Z</time>
      </trkpt>
      <trkpt lat="43.37449" lon="2.21224">
        <ele>590.43994141</ele>
        <time>2022-07-10T07:08:56Z</time>
      </trkpt>
      <trkpt lat="43.3745" lon="2.21221">
        <ele>590.4899292</ele>
        <time>2022-07-10T07:08:57Z</time>
      </trkpt>
      <trkpt lat="43.3745" lon="2.21218">
        <ele>590.56994629</ele>
        <time>2022-07-10T07:08:58Z</time>
      </trkpt>
      <trkpt lat="43.3745" lon="2.21216">
        <ele>590.64996338</ele>
        <time>2022-07-10T07:08:59Z</time>
      </trkpt>
      <trkpt lat="43.37452" lon="2.21212">
        <ele>590.7699585</ele>
        <time>2022-07-10T07:09:00Z</time>
      </trkpt>
      <trkpt lat="43.37453" lon="2.2121">
        <ele>591.0199585</ele>
        <time>2022-07-10T07:09:01Z</time>
      </trkpt>
      <trkpt lat="43.37455" lon="2.21207">
        <ele>591.41998291</ele>
        <time>2022-07-10T07:09:02Z</time>
      </trkpt>
      <trkpt lat="43.37455" lon="2.21206">
        <ele>591.85998535</ele>
        <time>2022-07-10T07:09:03Z</time>
      </trkpt>
      <trkpt lat="43.37458" lon="2.21203">
        <ele>592.32995605</ele>
        <time>2022-07-10T07:09:04Z</time>
      </trkpt>
      <trkpt lat="43.3746" lon="2.21202">
        <ele>592.75994873</ele>
        <time>2022-07-10T07:09:05Z</time>
      </trkpt>
      <trkpt lat="43.37461" lon="2.212">
        <ele>593.12994385</ele>
        <time>2022-07-10T07:09:06Z</time>
      </trkpt>
      <trkpt lat="43.37462" lon="2.21198">
        <ele>593.43994141</ele>
        <time>2022-07-10T07:09:07Z</time>
      </trkpt>
      <trkpt lat="43.37464" lon="2.21197">
        <ele>593.69995117</ele>
        <time>2022-07-10T07:09:08Z</time>
      </trkpt>
      <trkpt lat="43.37467" lon="2.21196">
        <ele>593.90997314</ele>
        <time>2022-07-10T07:09:09Z</time>
      </trkpt>
      <trkpt lat="43.37469" lon="2.21195">
        <ele>594.06994629</ele>
        <time>2022-07-10T07:09:10Z</time>
      </trkpt>
      <trkpt lat="43.3747" lon="2.21193">
        <ele>594.22991943</ele>
        <time>2022-07-10T07:09:11Z</time>
      </trkpt>
      <trkpt lat="43.37472" lon="2.21192">
        <ele>594.37994385</ele>
        <time>2022-07-10T07:09:12Z</time>
      </trkpt>
      <trkpt lat="43.37474" lon="2.21191">
        <ele>594.4899292</ele>
        <time>2022-07-10T07:09:13Z</time>
      </trkpt>
      <trkpt lat="43.37476" lon="2.21189">
        <ele>594.58990479</ele>
        <time>2022-07-10T07:09:14Z</time>
      </trkpt>
      <trkpt lat="43.37478" lon="2.21188">
        <ele>594.67993164</ele>
        <time>2022-07-10T07:09:15Z</time>
      </trkpt>
      <trkpt lat="43.37479" lon="2.21186">
        <ele>594.74993896</ele>
        <time>2022-07-10T07:09:16Z</time>
      </trkpt>
      <trkpt lat="43.37481" lon="2.21185">
        <ele>594.86993408</ele>
        <time>2022-07-10T07:09:17Z</time>
      </trkpt>
      <trkpt lat="43.37484" lon="2.21183">
        <ele>594.90991211</ele>
        <time>2022-07-10T07:09:18Z</time>
      </trkpt>
      <trkpt lat="43.37486" lon="2.21182">
        <ele>595.0098877</ele>
        <time>2022-07-10T07:09:19Z</time>
      </trkpt>
      <trkpt lat="43.37488" lon="2.21181">
        <ele>595.17987061</ele>
        <time>2022-07-10T07:09:20Z</time>
      </trkpt>
      <trkpt lat="43.3749" lon="2.2118">
        <ele>595.34985352</ele>
        <time>2022-07-10T07:09:21Z</time>
      </trkpt>
      <trkpt lat="43.37493" lon="2.21178">
        <ele>595.52984619</ele>
        <time>2022-07-10T07:09:22Z</time>
      </trkpt>
      <trkpt lat="43.37495" lon="2.21177">
        <ele>595.71984863</ele>
        <time>2022-07-10T07:09:23Z</time>
      </trkpt>
      <trkpt lat="43.37497" lon="2.21177">
        <ele>595.78985596</ele>
        <time>2022-07-10T07:09:24Z</time>
      </trkpt>
      <trkpt lat="43.37499" lon="2.21176">
        <ele>595.95983887</ele>
        <time>2022-07-10T07:09:25Z</time>
      </trkpt>
      <trkpt lat="43.37501" lon="2.21176">
        <ele>596.12982178</ele>
        <time>2022-07-10T07:09:26Z</time>
      </trkpt>
      <trkpt lat="43.37504" lon="2.21177">
        <ele>596.25982666</ele>
        <time>2022-07-10T07:09:27Z</time>
      </trkpt>
      <trkpt lat="43.37506" lon="2.21178">
        <ele>596.58984375</ele>
        <time>2022-07-10T07:09:28Z</time>
      </trkpt>
      <trkpt lat="43.37508" lon="2.21178">
        <ele>596.75982666</ele>
        <time>2022-07-10T07:09:29Z</time>
      </trkpt>
      <trkpt lat="43.37512" lon="2.21181">
        <ele>596.99981689</ele>
        <time>2022-07-10T07:09:30Z</time>
      </trkpt>
      <trkpt lat="43.37514" lon="2.21182">
        <ele>597.29980469</ele>
        <time>2022-07-10T07:09:31Z</time>
      </trkpt>
      <trkpt lat="43.37516" lon="2.21183">
        <ele>597.4697876</ele>
        <time>2022-07-10T07:09:32Z</time>
      </trkpt>
      <trkpt lat="43.37518" lon="2.21183">
        <ele>597.6697998</ele>
        <time>2022-07-10T07:09:33Z</time>
      </trkpt>
      <trkpt lat="43.3752" lon="2.21184">
        <ele>597.81982422</ele>
        <time>2022-07-10T07:09:34Z</time>
      </trkpt>
      <trkpt lat="43.37522" lon="2.21185">
        <ele>597.95983887</ele>
        <time>2022-07-10T07:09:35Z</time>
      </trkpt>
      <trkpt lat="43.37525" lon="2.21185">
        <ele>598.04986572</ele>
        <time>2022-07-10T07:09:36Z</time>
      </trkpt>
      <trkpt lat="43.37527" lon="2.21185">
        <ele>598.20983887</ele>
        <time>2022-07-10T07:09:37Z</time>
      </trkpt>
      <trkpt lat="43.3753" lon="2.21185">
        <ele>598.34985352</ele>
        <time>2022-07-10T07:09:38Z</time>
      </trkpt>
      <trkpt lat="43.37532" lon="2.21186">
        <ele>598.40985107</ele>
        <time>2022-07-10T07:09:39Z</time>
      </trkpt>
      <trkpt lat="43.37534" lon="2.21187">
        <ele>598.45983887</ele>
        <time>2022-07-10T07:09:40Z</time>
      </trkpt>
      <trkpt lat="43.37537" lon="2.21189">
        <ele>598.48986816</ele>
        <time>2022-07-10T07:09:41Z</time>
      </trkpt>
      <trkpt lat="43.37539" lon="2.21191">
        <ele>598.55987549</ele>
        <time>2022-07-10T07:09:42Z</time>
      </trkpt>
      <trkpt lat="43.3754" lon="2.21192">
        <ele>598.63989258</ele>
        <time>2022-07-10T07:09:43Z</time>
      </trkpt>
      <trkpt lat="43.37542" lon="2.21194">
        <ele>598.73986816</ele>
        <time>2022-07-10T07:09:44Z</time>
      </trkpt>
      <trkpt lat="43.37544" lon="2.21197">
        <ele>598.79986572</ele>
        <time>2022-07-10T07:09:45Z</time>
      </trkpt>
      <trkpt lat="43.37545" lon="2.212">
        <ele>598.86987305</ele>
        <time>2022-07-10T07:09:46Z</time>
      </trkpt>
      <trkpt lat="43.37545" lon="2.21203">
        <ele>598.93988037</ele>
        <time>2022-07-10T07:09:47Z</time>
      </trkpt>
      <trkpt lat="43.37545" lon="2.21205">
        <ele>599.06988525</ele>
        <time>2022-07-10T07:09:48Z</time>
      </trkpt>
      <trkpt lat="43.37544" lon="2.21209">
        <ele>599.24987793</ele>
        <time>2022-07-10T07:09:49Z</time>
      </trkpt>
      <trkpt lat="43.37544" lon="2.21211">
        <ele>599.37988281</ele>
        <time>2022-07-10T07:09:50Z</time>
      </trkpt>
      <trkpt lat="43.37544" lon="2.21214">
        <ele>599.52990723</ele>
        <time>2022-07-10T07:09:51Z</time>
      </trkpt>
      <trkpt lat="43.37545" lon="2.21216">
        <ele>599.58990479</ele>
        <time>2022-07-10T07:09:52Z</time>
      </trkpt>
      <trkpt lat="43.37546" lon="2.21219">
        <ele>599.60992432</ele>
        <time>2022-07-10T07:09:53Z</time>
      </trkpt>
      <trkpt lat="43.37547" lon="2.21222">
        <ele>599.61993408</ele>
        <time>2022-07-10T07:09:54Z</time>
      </trkpt>
      <trkpt lat="43.37548" lon="2.21224">
        <ele>599.63995361</ele>
        <time>2022-07-10T07:09:55Z</time>
      </trkpt>
      <trkpt lat="43.37549" lon="2.21226">
        <ele>599.67993164</ele>
        <time>2022-07-10T07:09:56Z</time>
      </trkpt>
      <trkpt lat="43.3755" lon="2.21228">
        <ele>599.70996094</ele>
        <time>2022-07-10T07:09:57Z</time>
      </trkpt>
      <trkpt lat="43.3755" lon="2.2123">
        <ele>599.75994873</ele>
        <time>2022-07-10T07:09:58Z</time>
      </trkpt>
      <trkpt lat="43.3755" lon="2.21231">
        <ele>599.75994873</ele>
        <time>2022-07-10T07:09:59Z</time>
      </trkpt>
      <trkpt lat="43.37552" lon="2.21232">
        <ele>599.7199707</ele>
        <time>2022-07-10T07:10:00Z</time>
      </trkpt>
      <trkpt lat="43.37554" lon="2.21233">
        <ele>599.62994385</ele>
        <time>2022-07-10T07:10:01Z</time>
      </trkpt>
      <trkpt lat="43.37555" lon="2.21234">
        <ele>599.52996826</ele>
        <time>2022-07-10T07:10:02Z</time>
      </trkpt>
      <trkpt lat="43.37557" lon="2.21234">
        <ele>599.40997314</ele>
        <time>2022-07-10T07:10:03Z</time>
      </trkpt>
      <trkpt lat="43.37558" lon="2.21235">
        <ele>599.32995605</ele>
        <time>2022-07-10T07:10:04Z</time>
      </trkpt>
      <trkpt lat="43.37558" lon="2.21237">
        <ele>599.28997803</ele>
        <time>2022-07-10T07:10:05Z</time>
      </trkpt>
      <trkpt lat="43.37558" lon="2.21238">
        <ele>599.27996826</ele>
        <time>2022-07-10T07:10:06Z</time>
      </trkpt>
      <trkpt lat="43.37557" lon="2.21241">
        <ele>599.32995605</ele>
        <time>2022-07-10T07:10:07Z</time>
      </trkpt>
      <trkpt lat="43.37557" lon="2.21243">
        <ele>599.37994385</ele>
        <time>2022-07-10T07:10:08Z</time>
      </trkpt>
      <trkpt lat="43.37556" lon="2.21245">
        <ele>599.44995117</ele>
        <time>2022-07-10T07:10:09Z</time>
      </trkpt>
      <trkpt lat="43.37557" lon="2.21247">
        <ele>599.50994873</ele>
        <time>2022-07-10T07:10:10Z</time>
      </trkpt>
      <trkpt lat="43.37558" lon="2.21249">
        <ele>599.62994385</ele>
        <time>2022-07-10T07:10:11Z</time>
      </trkpt>
      <trkpt lat="43.37558" lon="2.21253">
        <ele>599.79992676</ele>
        <time>2022-07-10T07:10:12Z</time>
      </trkpt>
      <trkpt lat="43.37559" lon="2.21255">
        <ele>599.9598999</ele>
        <time>2022-07-10T07:10:13Z</time>
      </trkpt>
      <trkpt lat="43.37559" lon="2.21258">
        <ele>600.13989258</ele>
        <time>2022-07-10T07:10:14Z</time>
      </trkpt>
      <trkpt lat="43.37561" lon="2.21259">
        <ele>600.26989746</ele>
        <time>2022-07-10T07:10:15Z</time>
      </trkpt>
      <trkpt lat="43.37562" lon="2.21262">
        <ele>600.34991455</ele>
        <time>2022-07-10T07:10:16Z</time>
      </trkpt>
      <trkpt lat="43.37565" lon="2.21265">
        <ele>600.40991211</ele>
        <time>2022-07-10T07:10:17Z</time>
      </trkpt>
      <trkpt lat="43.37567" lon="2.21266">
        <ele>600.44989014</ele>
        <time>2022-07-10T07:10:18Z</time>
      </trkpt>
      <trkpt lat="43.37569" lon="2.21267">
        <ele>600.47991943</ele>
        <time>2022-07-10T07:10:19Z</time>
      </trkpt>
      <trkpt lat="43.37572" lon="2.21268">
        <ele>600.53991699</ele>
        <time>2022-07-10T07:10:20Z</time>
      </trkpt>
      <trkpt lat="43.37574" lon="2.2127">
        <ele>600.57989502</ele>
        <time>2022-07-10T07:10:21Z</time>
      </trkpt>
      <trkpt lat="43.37577" lon="2.21272">
        <ele>600.62988281</ele>
        <time>2022-07-10T07:10:22Z</time>
      </trkpt>
      <trkpt lat="43.37578" lon="2.21274">
        <ele>600.65991211</ele>
        <time>2022-07-10T07:10:23Z</time>
      </trkpt>
      <trkpt lat="43.3758" lon="2.21276">
        <ele>600.66992188</ele>
        <time>2022-07-10T07:10:24Z</time>
      </trkpt>
      <trkpt lat="43.37583" lon="2.2128">
        <ele>600.71990967</ele>
        <time>2022-07-10T07:10:25Z</time>
      </trkpt>
      <trkpt lat="43.37584" lon="2.21282">
        <ele>600.7399292</ele>
        <time>2022-07-10T07:10:26Z</time>
      </trkpt>
      <trkpt lat="43.37585" lon="2.21285">
        <ele>600.80993652</ele>
        <time>2022-07-10T07:10:27Z</time>
      </trkpt>
      <trkpt lat="43.37587" lon="2.21288">
        <ele>600.84991455</ele>
        <time>2022-07-10T07:10:28Z</time>
      </trkpt>
      <trkpt lat="43.37587" lon="2.2129">
        <ele>600.89990234</ele>
        <time>2022-07-10T07:10:29Z</time>
      </trkpt>
      <trkpt lat="43.37589" lon="2.21294">
        <ele>600.9598999</ele>
        <time>2022-07-10T07:10:30Z</time>
      </trkpt>
      <trkpt lat="43.3759" lon="2.21297">
        <ele>600.97991943</ele>
        <time>2022-07-10T07:10:31Z</time>
      </trkpt>
      <trkpt lat="43.37591" lon="2.213">
        <ele>600.97991943</ele>
        <time>2022-07-10T07:10:32Z</time>
      </trkpt>
      <trkpt lat="43.37591" lon="2.21304">
        <ele>600.96990967</ele>
        <time>2022-07-10T07:10:33Z</time>
      </trkpt>
      <trkpt lat="43.37594" lon="2.21308">
        <ele>600.96990967</ele>
        <time>2022-07-10T07:10:34Z</time>
      </trkpt>
      <trkpt lat="43.37595" lon="2.21312">
        <ele>600.90991211</ele>
        <time>2022-07-10T07:10:35Z</time>
      </trkpt>
      <trkpt lat="43.37596" lon="2.21316">
        <ele>600.90991211</ele>
        <time>2022-07-10T07:10:36Z</time>
      </trkpt>
      <trkpt lat="43.37597" lon="2.2132">
        <ele>600.91992188</ele>
        <time>2022-07-10T07:10:37Z</time>
      </trkpt>
      <trkpt lat="43.37597" lon="2.21323">
        <ele>600.97991943</ele>
        <time>2022-07-10T07:10:38Z</time>
      </trkpt>
      <trkpt lat="43.376" lon="2.21328">
        <ele>601.05993652</ele>
        <time>2022-07-10T07:10:39Z</time>
      </trkpt>
      <trkpt lat="43.37601" lon="2.21331">
        <ele>601.13995361</ele>
        <time>2022-07-10T07:10:40Z</time>
      </trkpt>
      <trkpt lat="43.37603" lon="2.21334">
        <ele>601.20996094</ele>
        <time>2022-07-10T07:10:41Z</time>
      </trkpt>
      <trkpt lat="43.37606" lon="2.21337">
        <ele>601.2199707</ele>
        <time>2022-07-10T07:10:42Z</time>
      </trkpt>
      <trkpt lat="43.37609" lon="2.21341">
        <ele>601.28997803</ele>
        <time>2022-07-10T07:10:43Z</time>
      </trkpt>
      <trkpt lat="43.37611" lon="2.21345">
        <ele>601.32995605</ele>
        <time>2022-07-10T07:10:44Z</time>
      </trkpt>
      <trkpt lat="43.37613" lon="2.21347">
        <ele>601.39996338</ele>
        <time>2022-07-10T07:10:45Z</time>
      </trkpt>
      <trkpt lat="43.37615" lon="2.2135">
        <ele>601.50994873</ele>
        <time>2022-07-10T07:10:46Z</time>
      </trkpt>
      <trkpt lat="43.37617" lon="2.21352">
        <ele>601.59997559</ele>
        <time>2022-07-10T07:10:47Z</time>
      </trkpt>
      <trkpt lat="43.37621" lon="2.21355">
        <ele>601.66998291</ele>
        <time>2022-07-10T07:10:48Z</time>
      </trkpt>
      <trkpt lat="43.37623" lon="2.21357">
        <ele>601.73999023</ele>
        <time>2022-07-10T07:10:49Z</time>
      </trkpt>
      <trkpt lat="43.37626" lon="2.21358">
        <ele>601.79998779</ele>
        <time>2022-07-10T07:10:50Z</time>
      </trkpt>
      <trkpt lat="43.37629" lon="2.2136">
        <ele>601.83996582</ele>
        <time>2022-07-10T07:10:51Z</time>
      </trkpt>
      <trkpt lat="43.37633" lon="2.21363">
        <ele>601.88995361</ele>
        <time>2022-07-10T07:10:52Z</time>
      </trkpt>
      <trkpt lat="43.37636" lon="2.21365">
        <ele>601.85992432</ele>
        <time>2022-07-10T07:10:53Z</time>
      </trkpt>
      <trkpt lat="43.37639" lon="2.21368">
        <ele>601.7399292</ele>
        <time>2022-07-10T07:10:54Z</time>
      </trkpt>
      <trkpt lat="43.37642" lon="2.21371">
        <ele>601.7098999</ele>
        <time>2022-07-10T07:10:55Z</time>
      </trkpt>
      <trkpt lat="43.37644" lon="2.21374">
        <ele>601.69989014</ele>
        <time>2022-07-10T07:10:56Z</time>
      </trkpt>
      <trkpt lat="43.37649" lon="2.21378">
        <ele>601.49987793</ele>
        <time>2022-07-10T07:10:57Z</time>
      </trkpt>
      <trkpt lat="43.37652" lon="2.2138">
        <ele>601.30987549</ele>
        <time>2022-07-10T07:10:58Z</time>
      </trkpt>
      <trkpt lat="43.37655" lon="2.21382">
        <ele>600.98986816</ele>
        <time>2022-07-10T07:10:59Z</time>
      </trkpt>
      <trkpt lat="43.37659" lon="2.21385">
        <ele>600.73986816</ele>
        <time>2022-07-10T07:11:00Z</time>
      </trkpt>
      <trkpt lat="43.37664" lon="2.21388">
        <ele>600.73986816</ele>
        <time>2022-07-10T07:11:01Z</time>
      </trkpt>
      <trkpt lat="43.37667" lon="2.21389">
        <ele>600.64984131</ele>
        <time>2022-07-10T07:11:02Z</time>
      </trkpt>
      <trkpt lat="43.37671" lon="2.21391">
        <ele>600.66986084</ele>
        <time>2022-07-10T07:11:03Z</time>
      </trkpt>
      <trkpt lat="43.37674" lon="2.21393">
        <ele>600.56988525</ele>
        <time>2022-07-10T07:11:04Z</time>
      </trkpt>
      <trkpt lat="43.37678" lon="2.21394">
        <ele>600.42987061</ele>
        <time>2022-07-10T07:11:05Z</time>
      </trkpt>
      <trkpt lat="43.37684" lon="2.21397">
        <ele>600.43988037</ele>
        <time>2022-07-10T07:11:06Z</time>
      </trkpt>
      <trkpt lat="43.37687" lon="2.21399">
        <ele>600.39990234</ele>
        <time>2022-07-10T07:11:07Z</time>
      </trkpt>
      <trkpt lat="43.3769" lon="2.214">
        <ele>600.34991455</ele>
        <time>2022-07-10T07:11:08Z</time>
      </trkpt>
      <trkpt lat="43.37693" lon="2.21401">
        <ele>600.35992432</ele>
        <time>2022-07-10T07:11:09Z</time>
      </trkpt>
      <trkpt lat="43.377" lon="2.21402">
        <ele>600.2399292</ele>
        <time>2022-07-10T07:11:10Z</time>
      </trkpt>
      <trkpt lat="43.37703" lon="2.21402">
        <ele>600.08990479</ele>
        <time>2022-07-10T07:11:11Z</time>
      </trkpt>
      <trkpt lat="43.37707" lon="2.21401">
        <ele>599.89990234</ele>
        <time>2022-07-10T07:11:12Z</time>
      </trkpt>
      <trkpt lat="43.37711" lon="2.214">
        <ele>599.79992676</ele>
        <time>2022-07-10T07:11:13Z</time>
      </trkpt>
      <trkpt lat="43.37715" lon="2.21398">
        <ele>599.64990234</ele>
        <time>2022-07-10T07:11:14Z</time>
      </trkpt>
      <trkpt lat="43.3772" lon="2.21394">
        <ele>599.49987793</ele>
        <time>2022-07-10T07:11:15Z</time>
      </trkpt>
      <trkpt lat="43.37724" lon="2.21391">
        <ele>599.4598999</ele>
        <time>2022-07-10T07:11:16Z</time>
      </trkpt>
      <trkpt lat="43.37727" lon="2.21388">
        <ele>599.27990723</ele>
        <time>2022-07-10T07:11:17Z</time>
      </trkpt>
      <trkpt lat="43.37729" lon="2.21385">
        <ele>599.2098999</ele>
        <time>2022-07-10T07:11:18Z</time>
      </trkpt>
      <trkpt lat="43.37732" lon="2.21379">
        <ele>599.21990967</ele>
        <time>2022-07-10T07:11:19Z</time>
      </trkpt>
      <trkpt lat="43.37735" lon="2.21376">
        <ele>599.2399292</ele>
        <time>2022-07-10T07:11:20Z</time>
      </trkpt>
      <trkpt lat="43.37737" lon="2.21373">
        <ele>599.27990723</ele>
        <time>2022-07-10T07:11:21Z</time>
      </trkpt>
      <trkpt lat="43.37739" lon="2.21369">
        <ele>599.40991211</ele>
        <time>2022-07-10T07:11:22Z</time>
      </trkpt>
      <trkpt lat="43.37742" lon="2.21364">
        <ele>599.43994141</ele>
        <time>2022-07-10T07:11:23Z</time>
      </trkpt>
      <trkpt lat="43.37745" lon="2.21359">
        <ele>599.4699707</ele>
        <time>2022-07-10T07:11:24Z</time>
      </trkpt>
      <trkpt lat="43.37747" lon="2.21355">
        <ele>599.41998291</ele>
        <time>2022-07-10T07:11:25Z</time>
      </trkpt>
      <trkpt lat="43.37749" lon="2.2135">
        <ele>599.38000488</ele>
        <time>2022-07-10T07:11:26Z</time>
      </trkpt>
      <trkpt lat="43.3775" lon="2.21346">
        <ele>599.33001709</ele>
        <time>2022-07-10T07:11:27Z</time>
      </trkpt>
      <trkpt lat="43.37753" lon="2.21338">
        <ele>599.21002197</ele>
        <time>2022-07-10T07:11:28Z</time>
      </trkpt>
      <trkpt lat="43.37755" lon="2.21332">
        <ele>599.05004883</ele>
        <time>2022-07-10T07:11:29Z</time>
      </trkpt>
      <trkpt lat="43.37756" lon="2.21327">
        <ele>598.92004395</ele>
        <time>2022-07-10T07:11:30Z</time>
      </trkpt>
      <trkpt lat="43.37758" lon="2.21323">
        <ele>598.75006104</ele>
        <time>2022-07-10T07:11:31Z</time>
      </trkpt>
      <trkpt lat="43.3776" lon="2.21318">
        <ele>598.59008789</ele>
        <time>2022-07-10T07:11:32Z</time>
      </trkpt>
      <trkpt lat="43.37764" lon="2.21311">
        <ele>598.55010986</ele>
        <time>2022-07-10T07:11:33Z</time>
      </trkpt>
      <trkpt lat="43.37767" lon="2.21308">
        <ele>598.5401001</ele>
        <time>2022-07-10T07:11:34Z</time>
      </trkpt>
      <trkpt lat="43.37769" lon="2.21304">
        <ele>598.63012695</ele>
        <time>2022-07-10T07:11:35Z</time>
      </trkpt>
      <trkpt lat="43.37771" lon="2.213">
        <ele>598.81011963</ele>
        <time>2022-07-10T07:11:36Z</time>
      </trkpt>
      <trkpt lat="43.37774" lon="2.21295">
        <ele>598.96014404</ele>
        <time>2022-07-10T07:11:37Z</time>
      </trkpt>
      <trkpt lat="43.37777" lon="2.21291">
        <ele>599.00012207</ele>
        <time>2022-07-10T07:11:38Z</time>
      </trkpt>
      <trkpt lat="43.37779" lon="2.21286">
        <ele>599.01013184</ele>
        <time>2022-07-10T07:11:39Z</time>
      </trkpt>
      <trkpt lat="43.37781" lon="2.21282">
        <ele>599.05010986</ele>
        <time>2022-07-10T07:11:40Z</time>
      </trkpt>
      <trkpt lat="43.37784" lon="2.21276">
        <ele>599.20013428</ele>
        <time>2022-07-10T07:11:41Z</time>
      </trkpt>
      <trkpt lat="43.37785" lon="2.21272">
        <ele>599.42010498</ele>
        <time>2022-07-10T07:11:42Z</time>
      </trkpt>
      <trkpt lat="43.37786" lon="2.21269">
        <ele>599.71008301</ele>
        <time>2022-07-10T07:11:43Z</time>
      </trkpt>
      <trkpt lat="43.37787" lon="2.21265">
        <ele>599.87005615</ele>
        <time>2022-07-10T07:11:44Z</time>
      </trkpt>
      <trkpt lat="43.37788" lon="2.21261">
        <ele>599.99005127</ele>
        <time>2022-07-10T07:11:45Z</time>
      </trkpt>
      <trkpt lat="43.37791" lon="2.21258">
        <ele>600.04003906</ele>
        <time>2022-07-10T07:11:46Z</time>
      </trkpt>
      <trkpt lat="43.37795" lon="2.21254">
        <ele>600.06005859</ele>
        <time>2022-07-10T07:11:47Z</time>
      </trkpt>
      <trkpt lat="43.37797" lon="2.21254">
        <ele>600.08007812</ele>
        <time>2022-07-10T07:11:48Z</time>
      </trkpt>
      <trkpt lat="43.37799" lon="2.21254">
        <ele>600.06005859</ele>
        <time>2022-07-10T07:11:49Z</time>
      </trkpt>
      <trkpt lat="43.378" lon="2.21256">
        <ele>600.12005615</ele>
        <time>2022-07-10T07:11:50Z</time>
      </trkpt>
      <trkpt lat="43.37801" lon="2.21261">
        <ele>600.21008301</ele>
        <time>2022-07-10T07:11:51Z</time>
      </trkpt>
      <trkpt lat="43.37801" lon="2.21264">
        <ele>600.30010986</ele>
        <time>2022-07-10T07:11:52Z</time>
      </trkpt>
      <trkpt lat="43.378" lon="2.21267">
        <ele>600.38012695</ele>
        <time>2022-07-10T07:11:53Z</time>
      </trkpt>
      <trkpt lat="43.378" lon="2.2127">
        <ele>600.38012695</ele>
        <time>2022-07-10T07:11:54Z</time>
      </trkpt>
      <trkpt lat="43.37799" lon="2.21276">
        <ele>600.22015381</ele>
        <time>2022-07-10T07:11:55Z</time>
      </trkpt>
      <trkpt lat="43.37798" lon="2.2128">
        <ele>600.08013916</ele>
        <time>2022-07-10T07:11:56Z</time>
      </trkpt>
      <trkpt lat="43.37798" lon="2.21284">
        <ele>599.94012451</ele>
        <time>2022-07-10T07:11:57Z</time>
      </trkpt>
      <trkpt lat="43.37798" lon="2.21288">
        <ele>599.80010986</ele>
        <time>2022-07-10T07:11:58Z</time>
      </trkpt>
      <trkpt lat="43.37797" lon="2.21292">
        <ele>599.78009033</ele>
        <time>2022-07-10T07:11:59Z</time>
      </trkpt>
      <trkpt lat="43.37797" lon="2.21297">
        <ele>599.82006836</ele>
        <time>2022-07-10T07:12:00Z</time>
      </trkpt>
      <trkpt lat="43.37796" lon="2.21301">
        <ele>599.94006348</ele>
        <time>2022-07-10T07:12:01Z</time>
      </trkpt>
      <trkpt lat="43.37796" lon="2.21305">
        <ele>600.11004639</ele>
        <time>2022-07-10T07:12:02Z</time>
      </trkpt>
      <trkpt lat="43.37796" lon="2.21309">
        <ele>600.32006836</ele>
        <time>2022-07-10T07:12:03Z</time>
      </trkpt>
      <trkpt lat="43.37795" lon="2.21315">
        <ele>600.45007324</ele>
        <time>2022-07-10T07:12:04Z</time>
      </trkpt>
      <trkpt lat="43.37794" lon="2.21319">
        <ele>600.65008545</ele>
        <time>2022-07-10T07:12:05Z</time>
      </trkpt>
      <trkpt lat="43.37794" lon="2.21323">
        <ele>600.84008789</ele>
        <time>2022-07-10T07:12:06Z</time>
      </trkpt>
      <trkpt lat="43.37793" lon="2.21328">
        <ele>601.00006104</ele>
        <time>2022-07-10T07:12:07Z</time>
      </trkpt>
      <trkpt lat="43.37793" lon="2.21333">
        <ele>601.17004395</ele>
        <time>2022-07-10T07:12:08Z</time>
      </trkpt>
      <trkpt lat="43.37793" lon="2.21339">
        <ele>601.22003174</ele>
        <time>2022-07-10T07:12:09Z</time>
      </trkpt>
      <trkpt lat="43.37792" lon="2.21344">
        <ele>601.24005127</ele>
        <time>2022-07-10T07:12:10Z</time>
      </trkpt>
      <trkpt lat="43.37792" lon="2.21348">
        <ele>601.2300415</ele>
        <time>2022-07-10T07:12:11Z</time>
      </trkpt>
      <trkpt lat="43.37791" lon="2.21353">
        <ele>601.21002197</ele>
        <time>2022-07-10T07:12:12Z</time>
      </trkpt>
      <trkpt lat="43.37792" lon="2.21361">
        <ele>601.19000244</ele>
        <time>2022-07-10T07:12:13Z</time>
      </trkpt>
      <trkpt lat="43.37793" lon="2.21365">
        <ele>601.17999268</ele>
        <time>2022-07-10T07:12:14Z</time>
      </trkpt>
      <trkpt lat="43.37793" lon="2.2137">
        <ele>601.39996338</ele>
        <time>2022-07-10T07:12:15Z</time>
      </trkpt>
      <trkpt lat="43.37792" lon="2.21375">
        <ele>601.35998535</ele>
        <time>2022-07-10T07:12:16Z</time>
      </trkpt>
      <trkpt lat="43.37792" lon="2.2138">
        <ele>601.27996826</ele>
        <time>2022-07-10T07:12:17Z</time>
      </trkpt>
      <trkpt lat="43.37792" lon="2.21389">
        <ele>601.17999268</ele>
        <time>2022-07-10T07:12:18Z</time>
      </trkpt>
      <trkpt lat="43.37792" lon="2.21394">
        <ele>600.76000977</ele>
        <time>2022-07-10T07:12:19Z</time>
      </trkpt>
      <trkpt lat="43.37793" lon="2.21399">
        <ele>600.65002441</ele>
        <time>2022-07-10T07:12:20Z</time>
      </trkpt>
      <trkpt lat="43.37794" lon="2.21405">
        <ele>600.63000488</ele>
        <time>2022-07-10T07:12:21Z</time>
      </trkpt>
      <trkpt lat="43.37794" lon="2.2141">
        <ele>600.66998291</ele>
        <time>2022-07-10T07:12:22Z</time>
      </trkpt>
      <trkpt lat="43.37794" lon="2.21418">
        <ele>600.82000732</ele>
        <time>2022-07-10T07:12:23Z</time>
      </trkpt>
      <trkpt lat="43.37794" lon="2.21423">
        <ele>601.02001953</ele>
        <time>2022-07-10T07:12:24Z</time>
      </trkpt>
      <trkpt lat="43.37794" lon="2.21428">
        <ele>601.10003662</ele>
        <time>2022-07-10T07:12:25Z</time>
      </trkpt>
      <trkpt lat="43.37795" lon="2.21431">
        <ele>601.05004883</ele>
        <time>2022-07-10T07:12:26Z</time>
      </trkpt>
      <trkpt lat="43.37795" lon="2.21438">
        <ele>601.05004883</ele>
        <time>2022-07-10T07:12:27Z</time>
      </trkpt>
      <trkpt lat="43.37795" lon="2.21441">
        <ele>600.88006592</ele>
        <time>2022-07-10T07:12:28Z</time>
      </trkpt>
      <trkpt lat="43.37795" lon="2.21446">
        <ele>600.70007324</ele>
        <time>2022-07-10T07:12:29Z</time>
      </trkpt>
      <trkpt lat="43.37795" lon="2.2145">
        <ele>600.48010254</ele>
        <time>2022-07-10T07:12:30Z</time>
      </trkpt>
      <trkpt lat="43.37797" lon="2.21455">
        <ele>600.14007568</ele>
        <time>2022-07-10T07:12:31Z</time>
      </trkpt>
      <trkpt lat="43.37799" lon="2.21458">
        <ele>599.82006836</ele>
        <time>2022-07-10T07:12:32Z</time>
      </trkpt>
      <trkpt lat="43.37802" lon="2.2146">
        <ele>599.57006836</ele>
        <time>2022-07-10T07:12:33Z</time>
      </trkpt>
      <trkpt lat="43.37805" lon="2.21461">
        <ele>599.32006836</ele>
        <time>2022-07-10T07:12:34Z</time>
      </trkpt>
      <trkpt lat="43.37807" lon="2.21462">
        <ele>599.13006592</ele>
        <time>2022-07-10T07:12:35Z</time>
      </trkpt>
      <trkpt lat="43.37812" lon="2.21464">
        <ele>599.12005615</ele>
        <time>2022-07-10T07:12:36Z</time>
      </trkpt>
      <trkpt lat="43.37815" lon="2.21465">
        <ele>599.05004883</ele>
        <time>2022-07-10T07:12:37Z</time>
      </trkpt>
      <trkpt lat="43.37817" lon="2.21467">
        <ele>599.10003662</ele>
        <time>2022-07-10T07:12:38Z</time>
      </trkpt>
      <trkpt lat="43.37819" lon="2.2147">
        <ele>599.09002686</ele>
        <time>2022-07-10T07:12:39Z</time>
      </trkpt>
      <trkpt lat="43.37822" lon="2.21472">
        <ele>599.04003906</ele>
        <time>2022-07-10T07:12:40Z</time>
      </trkpt>
      <trkpt lat="43.37826" lon="2.21475">
        <ele>599.01000977</ele>
        <time>2022-07-10T07:12:41Z</time>
      </trkpt>
      <trkpt lat="43.37829" lon="2.21477">
        <ele>599</ele>
        <time>2022-07-10T07:12:42Z</time>
      </trkpt>
      <trkpt lat="43.37832" lon="2.21477">
        <ele>599.03997803</ele>
        <time>2022-07-10T07:12:43Z</time>
      </trkpt>
      <trkpt lat="43.37835" lon="2.21476">
        <ele>599.13000488</ele>
        <time>2022-07-10T07:12:44Z</time>
      </trkpt>
      <trkpt lat="43.37838" lon="2.21475">
        <ele>599.30999756</ele>
        <time>2022-07-10T07:12:45Z</time>
      </trkpt>
      <trkpt lat="43.37842" lon="2.21475">
        <ele>599.44000244</ele>
        <time>2022-07-10T07:12:46Z</time>
      </trkpt>
      <trkpt lat="43.37846" lon="2.21474">
        <ele>599.5</ele>
        <time>2022-07-10T07:12:47Z</time>
      </trkpt>
      <trkpt lat="43.3785" lon="2.21472">
        <ele>599.46002197</ele>
        <time>2022-07-10T07:12:48Z</time>
      </trkpt>
      <trkpt lat="43.37854" lon="2.21468">
        <ele>599.33001709</ele>
        <time>2022-07-10T07:12:49Z</time>
      </trkpt>
      <trkpt lat="43.37857" lon="2.21465">
        <ele>599.22003174</ele>
        <time>2022-07-10T07:12:50Z</time>
      </trkpt>
      <trkpt lat="43.37859" lon="2.21463">
        <ele>599.10003662</ele>
        <time>2022-07-10T07:12:51Z</time>
      </trkpt>
      <trkpt lat="43.37863" lon="2.2146">
        <ele>599.07000732</ele>
        <time>2022-07-10T07:12:52Z</time>
      </trkpt>
      <trkpt lat="43.37866" lon="2.21458">
        <ele>599.03997803</ele>
        <time>2022-07-10T07:12:53Z</time>
      </trkpt>
      <trkpt lat="43.3787" lon="2.21454">
        <ele>598.94995117</ele>
        <time>2022-07-10T07:12:54Z</time>
      </trkpt>
      <trkpt lat="43.37872" lon="2.21452">
        <ele>598.95996094</ele>
        <time>2022-07-10T07:12:55Z</time>
      </trkpt>
      <trkpt lat="43.37875" lon="2.2145">
        <ele>598.90997314</ele>
        <time>2022-07-10T07:12:56Z</time>
      </trkpt>
      <trkpt lat="43.37878" lon="2.21447">
        <ele>598.87994385</ele>
        <time>2022-07-10T07:12:57Z</time>
      </trkpt>
      <trkpt lat="43.37884" lon="2.21442">
        <ele>598.87994385</ele>
        <time>2022-07-10T07:12:58Z</time>
      </trkpt>
      <trkpt lat="43.37887" lon="2.21439">
        <ele>598.85992432</ele>
        <time>2022-07-10T07:12:59Z</time>
      </trkpt>
      <trkpt lat="43.37889" lon="2.21436">
        <ele>598.86993408</ele>
        <time>2022-07-10T07:13:00Z</time>
      </trkpt>
      <trkpt lat="43.37892" lon="2.21433">
        <ele>598.84991455</ele>
        <time>2022-07-10T07:13:01Z</time>
      </trkpt>
      <trkpt lat="43.37895" lon="2.2143">
        <ele>598.83990479</ele>
        <time>2022-07-10T07:13:02Z</time>
      </trkpt>
      <trkpt lat="43.379" lon="2.21427">
        <ele>598.87988281</ele>
        <time>2022-07-10T07:13:03Z</time>
      </trkpt>
      <trkpt lat="43.37904" lon="2.21425">
        <ele>598.81988525</ele>
        <time>2022-07-10T07:13:04Z</time>
      </trkpt>
      <trkpt lat="43.37907" lon="2.21424">
        <ele>598.88989258</ele>
        <time>2022-07-10T07:13:05Z</time>
      </trkpt>
      <trkpt lat="43.3791" lon="2.21423">
        <ele>598.86987305</ele>
        <time>2022-07-10T07:13:06Z</time>
      </trkpt>
      <trkpt lat="43.37914" lon="2.2142">
        <ele>598.93988037</ele>
        <time>2022-07-10T07:13:07Z</time>
      </trkpt>
      <trkpt lat="43.37917" lon="2.21419">
        <ele>599.16986084</ele>
        <time>2022-07-10T07:13:08Z</time>
      </trkpt>
      <trkpt lat="43.37918" lon="2.21419">
        <ele>600.07983398</ele>
        <time>2022-07-10T07:13:09Z</time>
      </trkpt>
      <trkpt lat="43.3792" lon="2.21419">
        <ele>600.39984131</ele>
        <time>2022-07-10T07:13:10Z</time>
      </trkpt>
      <trkpt lat="43.37925" lon="2.21416">
        <ele>600.73974609</ele>
        <time>2022-07-10T07:13:51Z</time>
      </trkpt>
      <trkpt lat="43.37927" lon="2.21413">
        <ele>600.7097168</ele>
        <time>2022-07-10T07:13:52Z</time>
      </trkpt>
      <trkpt lat="43.37928" lon="2.21411">
        <ele>600.61968994</ele>
        <time>2022-07-10T07:13:53Z</time>
      </trkpt>
      <trkpt lat="43.37928" lon="2.21409">
        <ele>600.57971191</ele>
        <time>2022-07-10T07:13:54Z</time>
      </trkpt>
      <trkpt lat="43.37929" lon="2.21408">
        <ele>600.47973633</ele>
        <time>2022-07-10T07:13:55Z</time>
      </trkpt>
      <trkpt lat="43.37929" lon="2.21406">
        <ele>600.4397583</ele>
        <time>2022-07-10T07:13:56Z</time>
      </trkpt>
      <trkpt lat="43.3793" lon="2.21403">
        <ele>600.4397583</ele>
        <time>2022-07-10T07:13:57Z</time>
      </trkpt>
      <trkpt lat="43.37931" lon="2.214">
        <ele>600.35974121</ele>
        <time>2022-07-10T07:13:58Z</time>
      </trkpt>
      <trkpt lat="43.37933" lon="2.21398">
        <ele>600.29974365</ele>
        <time>2022-07-10T07:13:59Z</time>
      </trkpt>
      <trkpt lat="43.37935" lon="2.21395">
        <ele>600.26971436</ele>
        <time>2022-07-10T07:14:00Z</time>
      </trkpt>
      <trkpt lat="43.37937" lon="2.21392">
        <ele>600.22973633</ele>
        <time>2022-07-10T07:14:01Z</time>
      </trkpt>
      <trkpt lat="43.37938" lon="2.21389">
        <ele>600.24975586</ele>
        <time>2022-07-10T07:14:02Z</time>
      </trkpt>
      <trkpt lat="43.37941" lon="2.21387">
        <ele>600.25976562</ele>
        <time>2022-07-10T07:14:03Z</time>
      </trkpt>
      <trkpt lat="43.37943" lon="2.21384">
        <ele>600.28979492</ele>
        <time>2022-07-10T07:14:04Z</time>
      </trkpt>
      <trkpt lat="43.37945" lon="2.21383">
        <ele>600.36981201</ele>
        <time>2022-07-10T07:14:05Z</time>
      </trkpt>
      <trkpt lat="43.37947" lon="2.21381">
        <ele>600.38983154</ele>
        <time>2022-07-10T07:14:06Z</time>
      </trkpt>
      <trkpt lat="43.37949" lon="2.21381">
        <ele>600.38983154</ele>
        <time>2022-07-10T07:14:07Z</time>
      </trkpt>
      <trkpt lat="43.37952" lon="2.21379">
        <ele>600.32983398</ele>
        <time>2022-07-10T07:14:08Z</time>
      </trkpt>
      <trkpt lat="43.37955" lon="2.21378">
        <ele>600.30981445</ele>
        <time>2022-07-10T07:14:09Z</time>
      </trkpt>
      <trkpt lat="43.37958" lon="2.21377">
        <ele>600.30981445</ele>
        <time>2022-07-10T07:14:10Z</time>
      </trkpt>
      <trkpt lat="43.3796" lon="2.21376">
        <ele>600.35980225</ele>
        <time>2022-07-10T07:14:11Z</time>
      </trkpt>
      <trkpt lat="43.37962" lon="2.21376">
        <ele>600.38983154</ele>
        <time>2022-07-10T07:14:12Z</time>
      </trkpt>
      <trkpt lat="43.37964" lon="2.21375">
        <ele>600.38983154</ele>
        <time>2022-07-10T07:14:13Z</time>
      </trkpt>
      <trkpt lat="43.37965" lon="2.21375">
        <ele>600.43981934</ele>
        <time>2022-07-10T07:14:14Z</time>
      </trkpt>
      <trkpt lat="43.37969" lon="2.21375">
        <ele>600.45983887</ele>
        <time>2022-07-10T07:14:15Z</time>
      </trkpt>
      <trkpt lat="43.37972" lon="2.21375">
        <ele>600.43981934</ele>
        <time>2022-07-10T07:14:16Z</time>
      </trkpt>
      <trkpt lat="43.37974" lon="2.21376">
        <ele>600.37982178</ele>
        <time>2022-07-10T07:14:17Z</time>
      </trkpt>
      <trkpt lat="43.37975" lon="2.21376">
        <ele>600.32983398</ele>
        <time>2022-07-10T07:14:18Z</time>
      </trkpt>
      <trkpt lat="43.37979" lon="2.21375">
        <ele>600.29980469</ele>
        <time>2022-07-10T07:14:19Z</time>
      </trkpt>
      <trkpt lat="43.37981" lon="2.21375">
        <ele>600.34979248</ele>
        <time>2022-07-10T07:14:20Z</time>
      </trkpt>
      <trkpt lat="43.37983" lon="2.21376">
        <ele>600.33978271</ele>
        <time>2022-07-10T07:14:21Z</time>
      </trkpt>
      <trkpt lat="43.37985" lon="2.21377">
        <ele>600.26977539</ele>
        <time>2022-07-10T07:14:22Z</time>
      </trkpt>
      <trkpt lat="43.37988" lon="2.21378">
        <ele>600.17974854</ele>
        <time>2022-07-10T07:14:23Z</time>
      </trkpt>
      <trkpt lat="43.3799" lon="2.21379">
        <ele>600.04974365</ele>
        <time>2022-07-10T07:14:24Z</time>
      </trkpt>
      <trkpt lat="43.37992" lon="2.2138">
        <ele>599.96972656</ele>
        <time>2022-07-10T07:14:25Z</time>
      </trkpt>
      <trkpt lat="43.37993" lon="2.21381">
        <ele>599.98974609</ele>
        <time>2022-07-10T07:14:26Z</time>
      </trkpt>
      <trkpt lat="43.37995" lon="2.21383">
        <ele>599.96972656</ele>
        <time>2022-07-10T07:14:27Z</time>
      </trkpt>
      <trkpt lat="43.37998" lon="2.21385">
        <ele>600.00970459</ele>
        <time>2022-07-10T07:14:28Z</time>
      </trkpt>
      <trkpt lat="43.38" lon="2.21387">
        <ele>600.02972412</ele>
        <time>2022-07-10T07:14:29Z</time>
      </trkpt>
      <trkpt lat="43.38001" lon="2.21389">
        <ele>600.01971436</ele>
        <time>2022-07-10T07:14:30Z</time>
      </trkpt>
      <trkpt lat="43.38004" lon="2.21391">
        <ele>600.01971436</ele>
        <time>2022-07-10T07:14:31Z</time>
      </trkpt>
      <trkpt lat="43.38006" lon="2.21394">
        <ele>600.11968994</ele>
        <time>2022-07-10T07:14:32Z</time>
      </trkpt>
      <trkpt lat="43.3801" lon="2.21397">
        <ele>600.19970703</ele>
        <time>2022-07-10T07:14:33Z</time>
      </trkpt>
      <trkpt lat="43.38014" lon="2.21398">
        <ele>600.23968506</ele>
        <time>2022-07-10T07:14:34Z</time>
      </trkpt>
      <trkpt lat="43.38016" lon="2.21399">
        <ele>600.35968018</ele>
        <time>2022-07-10T07:14:35Z</time>
      </trkpt>
      <trkpt lat="43.38019" lon="2.214">
        <ele>600.37969971</ele>
        <time>2022-07-10T07:14:36Z</time>
      </trkpt>
      <trkpt lat="43.38022" lon="2.21402">
        <ele>600.38970947</ele>
        <time>2022-07-10T07:14:37Z</time>
      </trkpt>
      <trkpt lat="43.38024" lon="2.21403">
        <ele>600.48968506</ele>
        <time>2022-07-10T07:14:38Z</time>
      </trkpt>
      <trkpt lat="43.38026" lon="2.21404">
        <ele>600.57971191</ele>
        <time>2022-07-10T07:14:39Z</time>
      </trkpt>
      <trkpt lat="43.38027" lon="2.21405">
        <ele>600.54968262</ele>
        <time>2022-07-10T07:14:40Z</time>
      </trkpt>
      <trkpt lat="43.38029" lon="2.21404">
        <ele>600.57971191</ele>
        <time>2022-07-10T07:14:41Z</time>
      </trkpt>
      <trkpt lat="43.38032" lon="2.21406">
        <ele>600.47973633</ele>
        <time>2022-07-10T07:14:42Z</time>
      </trkpt>
      <trkpt lat="43.38035" lon="2.21407">
        <ele>600.38970947</ele>
        <time>2022-07-10T07:14:43Z</time>
      </trkpt>
      <trkpt lat="43.38037" lon="2.21407">
        <ele>600.37969971</ele>
        <time>2022-07-10T07:14:44Z</time>
      </trkpt>
      <trkpt lat="43.38039" lon="2.21407">
        <ele>600.37969971</ele>
        <time>2022-07-10T07:14:45Z</time>
      </trkpt>
      <trkpt lat="43.38043" lon="2.21407">
        <ele>600.4296875</ele>
        <time>2022-07-10T07:14:46Z</time>
      </trkpt>
      <trkpt lat="43.38045" lon="2.21407">
        <ele>600.49969482</ele>
        <time>2022-07-10T07:14:47Z</time>
      </trkpt>
      <trkpt lat="43.38047" lon="2.21407">
        <ele>600.58972168</ele>
        <time>2022-07-10T07:14:48Z</time>
      </trkpt>
      <trkpt lat="43.38048" lon="2.21407">
        <ele>600.62969971</ele>
        <time>2022-07-10T07:14:49Z</time>
      </trkpt>
      <trkpt lat="43.38051" lon="2.21409">
        <ele>600.62969971</ele>
        <time>2022-07-10T07:14:50Z</time>
      </trkpt>
      <trkpt lat="43.38053" lon="2.21408">
        <ele>600.54968262</ele>
        <time>2022-07-10T07:14:51Z</time>
      </trkpt>
      <trkpt lat="43.38056" lon="2.21407">
        <ele>600.52966309</ele>
        <time>2022-07-10T07:14:52Z</time>
      </trkpt>
      <trkpt lat="43.38058" lon="2.21405">
        <ele>600.52966309</ele>
        <time>2022-07-10T07:14:53Z</time>
      </trkpt>
      <trkpt lat="43.38061" lon="2.21402">
        <ele>600.61968994</ele>
        <time>2022-07-10T07:14:54Z</time>
      </trkpt>
      <trkpt lat="43.38065" lon="2.214">
        <ele>600.73968506</ele>
        <time>2022-07-10T07:14:55Z</time>
      </trkpt>
      <trkpt lat="43.38067" lon="2.21399">
        <ele>600.85968018</ele>
        <time>2022-07-10T07:14:56Z</time>
      </trkpt>
      <trkpt lat="43.38069" lon="2.21398">
        <ele>600.97967529</ele>
        <time>2022-07-10T07:14:57Z</time>
      </trkpt>
      <trkpt lat="43.3807" lon="2.21397">
        <ele>601.07965088</ele>
        <time>2022-07-10T07:14:58Z</time>
      </trkpt>
      <trkpt lat="43.3807" lon="2.21398">
        <ele>601.17962646</ele>
        <time>2022-07-10T07:14:59Z</time>
      </trkpt>
      <trkpt lat="43.38071" lon="2.21397">
        <ele>601.28961182</ele>
        <time>2022-07-10T07:15:00Z</time>
      </trkpt>
      <trkpt lat="43.38087" lon="2.21389">
        <ele>604.85961914</ele>
        <time>2022-07-10T07:15:33Z</time>
      </trkpt>
      <trkpt lat="43.38087" lon="2.21388">
        <ele>604.97961426</ele>
        <time>2022-07-10T07:15:34Z</time>
      </trkpt>
      <trkpt lat="43.38088" lon="2.21387">
        <ele>605.30957031</ele>
        <time>2022-07-10T07:15:36Z</time>
      </trkpt>
      <trkpt lat="43.38089" lon="2.21386">
        <ele>605.46954346</ele>
        <time>2022-07-10T07:15:37Z</time>
      </trkpt>
      <trkpt lat="43.38091" lon="2.21385">
        <ele>605.69952393</ele>
        <time>2022-07-10T07:15:40Z</time>
      </trkpt>
      <trkpt lat="43.38092" lon="2.21385">
        <ele>605.79949951</ele>
        <time>2022-07-10T07:15:41Z</time>
      </trkpt>
      <trkpt lat="43.38092" lon="2.21384">
        <ele>605.91949463</ele>
        <time>2022-07-10T07:15:42Z</time>
      </trkpt>
      <trkpt lat="43.38097" lon="2.2139">
        <ele>605.16949463</ele>
        <time>2022-07-10T07:15:54Z</time>
      </trkpt>
      <trkpt lat="43.381" lon="2.21391">
        <ele>604.79949951</ele>
        <time>2022-07-10T07:15:55Z</time>
      </trkpt>
      <trkpt lat="43.38101" lon="2.21393">
        <ele>604.21948242</ele>
        <time>2022-07-10T07:15:56Z</time>
      </trkpt>
      <trkpt lat="43.38102" lon="2.21395">
        <ele>603.53948975</ele>
        <time>2022-07-10T07:15:57Z</time>
      </trkpt>
      <trkpt lat="43.38104" lon="2.21397">
        <ele>602.85949707</ele>
        <time>2022-07-10T07:15:58Z</time>
      </trkpt>
      <trkpt lat="43.38105" lon="2.21399">
        <ele>602.27947998</ele>
        <time>2022-07-10T07:15:59Z</time>
      </trkpt>
      <trkpt lat="43.38107" lon="2.21401">
        <ele>601.95947266</ele>
        <time>2022-07-10T07:16:00Z</time>
      </trkpt>
      <trkpt lat="43.38108" lon="2.21403">
        <ele>601.75946045</ele>
        <time>2022-07-10T07:16:01Z</time>
      </trkpt>
      <trkpt lat="43.3811" lon="2.21405">
        <ele>601.73944092</ele>
        <time>2022-07-10T07:16:02Z</time>
      </trkpt>
      <trkpt lat="43.38111" lon="2.21407">
        <ele>601.74945068</ele>
        <time>2022-07-10T07:16:03Z</time>
      </trkpt>
      <trkpt lat="43.38112" lon="2.21409">
        <ele>601.71942139</ele>
        <time>2022-07-10T07:16:04Z</time>
      </trkpt>
      <trkpt lat="43.38113" lon="2.21412">
        <ele>601.70941162</ele>
        <time>2022-07-10T07:16:05Z</time>
      </trkpt>
      <trkpt lat="43.38115" lon="2.21415">
        <ele>601.68939209</ele>
        <time>2022-07-10T07:16:06Z</time>
      </trkpt>
      <trkpt lat="43.38117" lon="2.21416">
        <ele>601.72937012</ele>
        <time>2022-07-10T07:16:07Z</time>
      </trkpt>
      <trkpt lat="43.38121" lon="2.21417">
        <ele>601.76934814</ele>
        <time>2022-07-10T07:16:08Z</time>
      </trkpt>
      <trkpt lat="43.38123" lon="2.21418">
        <ele>602.38934326</ele>
        <time>2022-07-10T07:16:09Z</time>
      </trkpt>
      <trkpt lat="43.38124" lon="2.2142">
        <ele>602.48931885</ele>
        <time>2022-07-10T07:16:10Z</time>
      </trkpt>
      <trkpt lat="43.38126" lon="2.2142">
        <ele>602.47930908</ele>
        <time>2022-07-10T07:16:11Z</time>
      </trkpt>
      <trkpt lat="43.38129" lon="2.21422">
        <ele>602.45928955</ele>
        <time>2022-07-10T07:16:12Z</time>
      </trkpt>
      <trkpt lat="43.38131" lon="2.21423">
        <ele>602.53930664</ele>
        <time>2022-07-10T07:16:13Z</time>
      </trkpt>
      <trkpt lat="43.38133" lon="2.21423">
        <ele>602.50927734</ele>
        <time>2022-07-10T07:16:14Z</time>
      </trkpt>
      <trkpt lat="43.38136" lon="2.21423">
        <ele>602.58929443</ele>
        <time>2022-07-10T07:16:15Z</time>
      </trkpt>
      <trkpt lat="43.38139" lon="2.21423">
        <ele>602.67932129</ele>
        <time>2022-07-10T07:16:16Z</time>
      </trkpt>
      <trkpt lat="43.38141" lon="2.21424">
        <ele>602.67932129</ele>
        <time>2022-07-10T07:16:17Z</time>
      </trkpt>
      <trkpt lat="43.38143" lon="2.21425">
        <ele>602.79931641</ele>
        <time>2022-07-10T07:16:18Z</time>
      </trkpt>
      <trkpt lat="43.38144" lon="2.21428">
        <ele>602.8793335</ele>
        <time>2022-07-10T07:16:19Z</time>
      </trkpt>
      <trkpt lat="43.38146" lon="2.21432">
        <ele>602.89935303</ele>
        <time>2022-07-10T07:16:20Z</time>
      </trkpt>
      <trkpt lat="43.38148" lon="2.21437">
        <ele>602.96936035</ele>
        <time>2022-07-10T07:16:21Z</time>
      </trkpt>
      <trkpt lat="43.3815" lon="2.21438">
        <ele>602.88934326</ele>
        <time>2022-07-10T07:16:22Z</time>
      </trkpt>
      <trkpt lat="43.38151" lon="2.21439">
        <ele>602.77935791</ele>
        <time>2022-07-10T07:16:23Z</time>
      </trkpt>
      <trkpt lat="43.38152" lon="2.21441">
        <ele>602.65936279</ele>
        <time>2022-07-10T07:16:24Z</time>
      </trkpt>
      <trkpt lat="43.38154" lon="2.21445">
        <ele>602.50933838</ele>
        <time>2022-07-10T07:16:25Z</time>
      </trkpt>
      <trkpt lat="43.38156" lon="2.21448">
        <ele>602.47930908</ele>
        <time>2022-07-10T07:16:26Z</time>
      </trkpt>
      <trkpt lat="43.38157" lon="2.2145">
        <ele>602.44927979</ele>
        <time>2022-07-10T07:16:27Z</time>
      </trkpt>
      <trkpt lat="43.38158" lon="2.21452">
        <ele>602.46929932</ele>
        <time>2022-07-10T07:16:28Z</time>
      </trkpt>
      <trkpt lat="43.38162" lon="2.21454">
        <ele>602.57928467</ele>
        <time>2022-07-10T07:16:29Z</time>
      </trkpt>
      <trkpt lat="43.38165" lon="2.21455">
        <ele>602.64929199</ele>
        <time>2022-07-10T07:16:30Z</time>
      </trkpt>
      <trkpt lat="43.38167" lon="2.21457">
        <ele>602.72930908</ele>
        <time>2022-07-10T07:16:31Z</time>
      </trkpt>
      <trkpt lat="43.38168" lon="2.21459">
        <ele>602.77929688</ele>
        <time>2022-07-10T07:16:32Z</time>
      </trkpt>
      <trkpt lat="43.3817" lon="2.2146">
        <ele>602.77929688</ele>
        <time>2022-07-10T07:16:33Z</time>
      </trkpt>
      <trkpt lat="43.38173" lon="2.21462">
        <ele>602.71929932</ele>
        <time>2022-07-10T07:16:34Z</time>
      </trkpt>
      <trkpt lat="43.38175" lon="2.21464">
        <ele>602.76928711</ele>
        <time>2022-07-10T07:16:35Z</time>
      </trkpt>
      <trkpt lat="43.38177" lon="2.21464">
        <ele>603.12927246</ele>
        <time>2022-07-10T07:16:36Z</time>
      </trkpt>
      <trkpt lat="43.38179" lon="2.21465">
        <ele>603.43927002</ele>
        <time>2022-07-10T07:16:37Z</time>
      </trkpt>
      <trkpt lat="43.3818" lon="2.21466">
        <ele>603.8692627</ele>
        <time>2022-07-10T07:16:38Z</time>
      </trkpt>
      <trkpt lat="43.38182" lon="2.21467">
        <ele>604.3192749</ele>
        <time>2022-07-10T07:16:39Z</time>
      </trkpt>
      <trkpt lat="43.38182" lon="2.21468">
        <ele>604.6192627</ele>
        <time>2022-07-10T07:16:40Z</time>
      </trkpt>
      <trkpt lat="43.38183" lon="2.21469">
        <ele>605.18927002</ele>
        <time>2022-07-10T07:16:41Z</time>
      </trkpt>
      <trkpt lat="43.38185" lon="2.21471">
        <ele>605.63928223</ele>
        <time>2022-07-10T07:16:42Z</time>
      </trkpt>
      <trkpt lat="43.38188" lon="2.21474">
        <ele>605.77929688</ele>
        <time>2022-07-10T07:16:43Z</time>
      </trkpt>
      <trkpt lat="43.38189" lon="2.21475">
        <ele>605.94927979</ele>
        <time>2022-07-10T07:16:44Z</time>
      </trkpt>
      <trkpt lat="43.38191" lon="2.21476">
        <ele>605.92926025</ele>
        <time>2022-07-10T07:16:45Z</time>
      </trkpt>
      <trkpt lat="43.38194" lon="2.21477">
        <ele>605.92926025</ele>
        <time>2022-07-10T07:16:46Z</time>
      </trkpt>
      <trkpt lat="43.38199" lon="2.21479">
        <ele>606.07928467</ele>
        <time>2022-07-10T07:16:47Z</time>
      </trkpt>
      <trkpt lat="43.38205" lon="2.21481">
        <ele>606.08929443</ele>
        <time>2022-07-10T07:16:48Z</time>
      </trkpt>
      <trkpt lat="43.38208" lon="2.21482">
        <ele>605.91931152</ele>
        <time>2022-07-10T07:16:49Z</time>
      </trkpt>
      <trkpt lat="43.3821" lon="2.21483">
        <ele>605.61932373</ele>
        <time>2022-07-10T07:16:50Z</time>
      </trkpt>
      <trkpt lat="43.38213" lon="2.21484">
        <ele>605.44934082</ele>
        <time>2022-07-10T07:16:51Z</time>
      </trkpt>
      <trkpt lat="43.38217" lon="2.21487">
        <ele>605.28936768</ele>
        <time>2022-07-10T07:16:52Z</time>
      </trkpt>
      <trkpt lat="43.3822" lon="2.21489">
        <ele>605.16937256</ele>
        <time>2022-07-10T07:16:53Z</time>
      </trkpt>
      <trkpt lat="43.38223" lon="2.21491">
        <ele>605.08935547</ele>
        <time>2022-07-10T07:16:54Z</time>
      </trkpt>
      <trkpt lat="43.38225" lon="2.21493">
        <ele>604.86938477</ele>
        <time>2022-07-10T07:16:55Z</time>
      </trkpt>
      <trkpt lat="43.38229" lon="2.21493">
        <ele>604.62939453</ele>
        <time>2022-07-10T07:16:56Z</time>
      </trkpt>
      <trkpt lat="43.38233" lon="2.21494">
        <ele>604.47937012</ele>
        <time>2022-07-10T07:16:57Z</time>
      </trkpt>
      <trkpt lat="43.38236" lon="2.21494">
        <ele>604.42938232</ele>
        <time>2022-07-10T07:16:58Z</time>
      </trkpt>
      <trkpt lat="43.38238" lon="2.21493">
        <ele>604.37939453</ele>
        <time>2022-07-10T07:16:59Z</time>
      </trkpt>
      <trkpt lat="43.3824" lon="2.2149">
        <ele>604.31939697</ele>
        <time>2022-07-10T07:17:00Z</time>
      </trkpt>
      <trkpt lat="43.38245" lon="2.21486">
        <ele>604.31939697</ele>
        <time>2022-07-10T07:17:01Z</time>
      </trkpt>
      <trkpt lat="43.38248" lon="2.21485">
        <ele>604.30938721</ele>
        <time>2022-07-10T07:17:02Z</time>
      </trkpt>
      <trkpt lat="43.3825" lon="2.21484">
        <ele>604.359375</ele>
        <time>2022-07-10T07:17:03Z</time>
      </trkpt>
      <trkpt lat="43.38251" lon="2.21482">
        <ele>604.43939209</ele>
        <time>2022-07-10T07:17:04Z</time>
      </trkpt>
      <trkpt lat="43.38252" lon="2.2148">
        <ele>604.44940186</ele>
        <time>2022-07-10T07:17:05Z</time>
      </trkpt>
      <trkpt lat="43.38254" lon="2.21477">
        <ele>604.51940918</ele>
        <time>2022-07-10T07:17:06Z</time>
      </trkpt>
      <trkpt lat="43.38256" lon="2.21476">
        <ele>604.61938477</ele>
        <time>2022-07-10T07:17:07Z</time>
      </trkpt>
      <trkpt lat="43.38258" lon="2.21476">
        <ele>604.70941162</ele>
        <time>2022-07-10T07:17:08Z</time>
      </trkpt>
      <trkpt lat="43.38259" lon="2.21477">
        <ele>605.26940918</ele>
        <time>2022-07-10T07:17:09Z</time>
      </trkpt>
      <trkpt lat="43.38263" lon="2.21476">
        <ele>605.22943115</ele>
        <time>2022-07-10T07:17:10Z</time>
      </trkpt>
      <trkpt lat="43.38264" lon="2.21475">
        <ele>605.07940674</ele>
        <time>2022-07-10T07:17:11Z</time>
      </trkpt>
      <trkpt lat="43.38265" lon="2.21473">
        <ele>604.85943604</ele>
        <time>2022-07-10T07:17:12Z</time>
      </trkpt>
      <trkpt lat="43.38267" lon="2.21471">
        <ele>604.71942139</ele>
        <time>2022-07-10T07:17:13Z</time>
      </trkpt>
      <trkpt lat="43.38269" lon="2.21469">
        <ele>604.65942383</ele>
        <time>2022-07-10T07:17:14Z</time>
      </trkpt>
      <trkpt lat="43.38271" lon="2.21468">
        <ele>604.60943604</ele>
        <time>2022-07-10T07:17:15Z</time>
      </trkpt>
      <trkpt lat="43.38272" lon="2.21468">
        <ele>604.66943359</ele>
        <time>2022-07-10T07:17:16Z</time>
      </trkpt>
      <trkpt lat="43.38274" lon="2.21466">
        <ele>604.66943359</ele>
        <time>2022-07-10T07:17:17Z</time>
      </trkpt>
      <trkpt lat="43.38274" lon="2.21467">
        <ele>604.68945312</ele>
        <time>2022-07-10T07:17:18Z</time>
      </trkpt>
      <trkpt lat="43.38279" lon="2.21469">
        <ele>604.65948486</ele>
        <time>2022-07-10T07:17:23Z</time>
      </trkpt>
      <trkpt lat="43.3828" lon="2.21469">
        <ele>604.6494751</ele>
        <time>2022-07-10T07:17:24Z</time>
      </trkpt>
      <trkpt lat="43.38283" lon="2.21472">
        <ele>604.55944824</ele>
        <time>2022-07-10T07:17:30Z</time>
      </trkpt>
      <trkpt lat="43.38284" lon="2.21474">
        <ele>604.55944824</ele>
        <time>2022-07-10T07:17:31Z</time>
      </trkpt>
      <trkpt lat="43.38285" lon="2.21476">
        <ele>604.59942627</ele>
        <time>2022-07-10T07:17:32Z</time>
      </trkpt>
      <trkpt lat="43.38289" lon="2.21478">
        <ele>604.6394043</ele>
        <time>2022-07-10T07:17:33Z</time>
      </trkpt>
      <trkpt lat="43.3829" lon="2.21478">
        <ele>604.6394043</ele>
        <time>2022-07-10T07:17:34Z</time>
      </trkpt>
      <trkpt lat="43.38292" lon="2.21479">
        <ele>604.71942139</ele>
        <time>2022-07-10T07:17:35Z</time>
      </trkpt>
      <trkpt lat="43.38293" lon="2.21481">
        <ele>604.77941895</ele>
        <time>2022-07-10T07:17:37Z</time>
      </trkpt>
      <trkpt lat="43.38294" lon="2.21484">
        <ele>604.8394165</ele>
        <time>2022-07-10T07:17:38Z</time>
      </trkpt>
      <trkpt lat="43.38295" lon="2.21486">
        <ele>604.82940674</ele>
        <time>2022-07-10T07:17:39Z</time>
      </trkpt>
      <trkpt lat="43.38297" lon="2.21487">
        <ele>604.8394165</ele>
        <time>2022-07-10T07:17:40Z</time>
      </trkpt>
      <trkpt lat="43.38299" lon="2.21488">
        <ele>604.8694458</ele>
        <time>2022-07-10T07:17:41Z</time>
      </trkpt>
      <trkpt lat="43.38303" lon="2.21489">
        <ele>604.87945557</ele>
        <time>2022-07-10T07:17:42Z</time>
      </trkpt>
      <trkpt lat="43.38305" lon="2.21488">
        <ele>604.93945312</ele>
        <time>2022-07-10T07:17:43Z</time>
      </trkpt>
      <trkpt lat="43.38307" lon="2.21488">
        <ele>604.91943359</ele>
        <time>2022-07-10T07:17:44Z</time>
      </trkpt>
      <trkpt lat="43.38309" lon="2.21487">
        <ele>604.8894043</ele>
        <time>2022-07-10T07:17:45Z</time>
      </trkpt>
      <trkpt lat="43.38311" lon="2.21486">
        <ele>604.87939453</ele>
        <time>2022-07-10T07:17:46Z</time>
      </trkpt>
      <trkpt lat="43.38313" lon="2.21487">
        <ele>604.8894043</ele>
        <time>2022-07-10T07:17:47Z</time>
      </trkpt>
      <trkpt lat="43.38314" lon="2.21486">
        <ele>604.95941162</ele>
        <time>2022-07-10T07:17:48Z</time>
      </trkpt>
      <trkpt lat="43.38317" lon="2.21486">
        <ele>605.07940674</ele>
        <time>2022-07-10T07:17:49Z</time>
      </trkpt>
      <trkpt lat="43.38318" lon="2.21487">
        <ele>605.17938232</ele>
        <time>2022-07-10T07:17:50Z</time>
      </trkpt>
      <trkpt lat="43.3832" lon="2.21487">
        <ele>605.23937988</ele>
        <time>2022-07-10T07:17:51Z</time>
      </trkpt>
      <trkpt lat="43.38321" lon="2.21487">
        <ele>605.27935791</ele>
        <time>2022-07-10T07:17:52Z</time>
      </trkpt>
      <trkpt lat="43.38323" lon="2.21487">
        <ele>605.34936523</ele>
        <time>2022-07-10T07:17:53Z</time>
      </trkpt>
      <trkpt lat="43.38325" lon="2.21488">
        <ele>605.41937256</ele>
        <time>2022-07-10T07:17:54Z</time>
      </trkpt>
      <trkpt lat="43.38329" lon="2.2149">
        <ele>605.41937256</ele>
        <time>2022-07-10T07:17:55Z</time>
      </trkpt>
      <trkpt lat="43.38331" lon="2.21493">
        <ele>605.40936279</ele>
        <time>2022-07-10T07:17:56Z</time>
      </trkpt>
      <trkpt lat="43.38334" lon="2.21494">
        <ele>605.39935303</ele>
        <time>2022-07-10T07:17:57Z</time>
      </trkpt>
      <trkpt lat="43.38336" lon="2.21496">
        <ele>605.38934326</ele>
        <time>2022-07-10T07:17:58Z</time>
      </trkpt>
      <trkpt lat="43.38338" lon="2.21497">
        <ele>605.42932129</ele>
        <time>2022-07-10T07:17:59Z</time>
      </trkpt>
      <trkpt lat="43.38342" lon="2.21496">
        <ele>605.45935059</ele>
        <time>2022-07-10T07:18:00Z</time>
      </trkpt>
      <trkpt lat="43.38345" lon="2.21496">
        <ele>605.45935059</ele>
        <time>2022-07-10T07:18:01Z</time>
      </trkpt>
      <trkpt lat="43.38349" lon="2.21498">
        <ele>605.45935059</ele>
        <time>2022-07-10T07:18:02Z</time>
      </trkpt>
      <trkpt lat="43.38351" lon="2.21499">
        <ele>605.47937012</ele>
        <time>2022-07-10T07:18:03Z</time>
      </trkpt>
      <trkpt lat="43.38356" lon="2.21501">
        <ele>605.48937988</ele>
        <time>2022-07-10T07:18:04Z</time>
      </trkpt>
      <trkpt lat="43.38358" lon="2.21504">
        <ele>605.54937744</ele>
        <time>2022-07-10T07:18:05Z</time>
      </trkpt>
      <trkpt lat="43.3836" lon="2.21504">
        <ele>605.54937744</ele>
        <time>2022-07-10T07:18:06Z</time>
      </trkpt>
      <trkpt lat="43.38361" lon="2.21506">
        <ele>605.53936768</ele>
        <time>2022-07-10T07:18:07Z</time>
      </trkpt>
      <trkpt lat="43.38364" lon="2.21506">
        <ele>605.63934326</ele>
        <time>2022-07-10T07:18:08Z</time>
      </trkpt>
      <trkpt lat="43.38367" lon="2.21508">
        <ele>605.67932129</ele>
        <time>2022-07-10T07:18:09Z</time>
      </trkpt>
      <trkpt lat="43.38369" lon="2.21511">
        <ele>605.85931396</ele>
        <time>2022-07-10T07:18:10Z</time>
      </trkpt>
      <trkpt lat="43.38371" lon="2.21512">
        <ele>605.96929932</ele>
        <time>2022-07-10T07:18:11Z</time>
      </trkpt>
      <trkpt lat="43.38373" lon="2.21514">
        <ele>606.00927734</ele>
        <time>2022-07-10T07:18:12Z</time>
      </trkpt>
      <trkpt lat="43.38373" lon="2.21518">
        <ele>606.0692749</ele>
        <time>2022-07-10T07:18:13Z</time>
      </trkpt>
      <trkpt lat="43.38374" lon="2.21519">
        <ele>605.96929932</ele>
        <time>2022-07-10T07:18:14Z</time>
      </trkpt>
      <trkpt lat="43.38374" lon="2.2152">
        <ele>605.93927002</ele>
        <time>2022-07-10T07:18:15Z</time>
      </trkpt>
      <trkpt lat="43.38374" lon="2.21522">
        <ele>605.73925781</ele>
        <time>2022-07-10T07:18:16Z</time>
      </trkpt>
      <trkpt lat="43.38374" lon="2.21525">
        <ele>605.57928467</ele>
        <time>2022-07-10T07:18:17Z</time>
      </trkpt>
      <trkpt lat="43.38374" lon="2.21528">
        <ele>605.51928711</ele>
        <time>2022-07-10T07:18:18Z</time>
      </trkpt>
      <trkpt lat="43.38374" lon="2.21529">
        <ele>605.42926025</ele>
        <time>2022-07-10T07:18:19Z</time>
      </trkpt>
      <trkpt lat="43.38375" lon="2.21531">
        <ele>605.44927979</ele>
        <time>2022-07-10T07:18:20Z</time>
      </trkpt>
      <trkpt lat="43.38376" lon="2.21535">
        <ele>605.41925049</ele>
        <time>2022-07-10T07:18:21Z</time>
      </trkpt>
      <trkpt lat="43.38378" lon="2.21541">
        <ele>605.3692627</ele>
        <time>2022-07-10T07:18:22Z</time>
      </trkpt>
      <trkpt lat="43.3838" lon="2.21544">
        <ele>605.34924316</ele>
        <time>2022-07-10T07:18:23Z</time>
      </trkpt>
      <trkpt lat="43.38381" lon="2.21547">
        <ele>605.35925293</ele>
        <time>2022-07-10T07:18:24Z</time>
      </trkpt>
      <trkpt lat="43.38383" lon="2.21548">
        <ele>605.3692627</ele>
        <time>2022-07-10T07:18:25Z</time>
      </trkpt>
      <trkpt lat="43.38385" lon="2.21549">
        <ele>605.40924072</ele>
        <time>2022-07-10T07:18:26Z</time>
      </trkpt>
      <trkpt lat="43.38388" lon="2.21549">
        <ele>605.49926758</ele>
        <time>2022-07-10T07:18:27Z</time>
      </trkpt>
      <trkpt lat="43.3839" lon="2.21549">
        <ele>605.50927734</ele>
        <time>2022-07-10T07:18:28Z</time>
      </trkpt>
      <trkpt lat="43.38393" lon="2.2155">
        <ele>605.50927734</ele>
        <time>2022-07-10T07:18:29Z</time>
      </trkpt>
      <trkpt lat="43.38395" lon="2.2155">
        <ele>605.52929688</ele>
        <time>2022-07-10T07:18:30Z</time>
      </trkpt>
      <trkpt lat="43.38397" lon="2.21552">
        <ele>605.44927979</ele>
        <time>2022-07-10T07:18:31Z</time>
      </trkpt>
      <trkpt lat="43.38398" lon="2.21556">
        <ele>605.47930908</ele>
        <time>2022-07-10T07:18:32Z</time>
      </trkpt>
      <trkpt lat="43.384" lon="2.21558">
        <ele>605.47930908</ele>
        <time>2022-07-10T07:18:33Z</time>
      </trkpt>
      <trkpt lat="43.38402" lon="2.21561">
        <ele>605.56933594</ele>
        <time>2022-07-10T07:18:34Z</time>
      </trkpt>
      <trkpt lat="43.38405" lon="2.21564">
        <ele>605.65936279</ele>
        <time>2022-07-10T07:18:35Z</time>
      </trkpt>
      <trkpt lat="43.38407" lon="2.21567">
        <ele>605.78936768</ele>
        <time>2022-07-10T07:18:36Z</time>
      </trkpt>
      <trkpt lat="43.3841" lon="2.21568">
        <ele>605.89935303</ele>
        <time>2022-07-10T07:18:37Z</time>
      </trkpt>
      <trkpt lat="43.38411" lon="2.21569">
        <ele>605.86932373</ele>
        <time>2022-07-10T07:18:38Z</time>
      </trkpt>
      <trkpt lat="43.38413" lon="2.21571">
        <ele>605.8493042</ele>
        <time>2022-07-10T07:18:39Z</time>
      </trkpt>
      <trkpt lat="43.38415" lon="2.21573">
        <ele>605.82928467</ele>
        <time>2022-07-10T07:18:40Z</time>
      </trkpt>
      <trkpt lat="43.38417" lon="2.21575">
        <ele>605.82928467</ele>
        <time>2022-07-10T07:18:41Z</time>
      </trkpt>
      <trkpt lat="43.38418" lon="2.21577">
        <ele>605.8493042</ele>
        <time>2022-07-10T07:18:42Z</time>
      </trkpt>
      <trkpt lat="43.38419" lon="2.21578">
        <ele>605.93933105</ele>
        <time>2022-07-10T07:18:43Z</time>
      </trkpt>
      <trkpt lat="43.38421" lon="2.21578">
        <ele>605.96936035</ele>
        <time>2022-07-10T07:18:44Z</time>
      </trkpt>
      <trkpt lat="43.38424" lon="2.21576">
        <ele>606.01934814</ele>
        <time>2022-07-10T07:18:45Z</time>
      </trkpt>
      <trkpt lat="43.38427" lon="2.21575">
        <ele>606.02935791</ele>
        <time>2022-07-10T07:18:46Z</time>
      </trkpt>
      <trkpt lat="43.3843" lon="2.21573">
        <ele>606.00933838</ele>
        <time>2022-07-10T07:18:47Z</time>
      </trkpt>
      <trkpt lat="43.38432" lon="2.21572">
        <ele>605.99932861</ele>
        <time>2022-07-10T07:18:48Z</time>
      </trkpt>
      <trkpt lat="43.38434" lon="2.2157">
        <ele>605.99932861</ele>
        <time>2022-07-10T07:18:49Z</time>
      </trkpt>
      <trkpt lat="43.38438" lon="2.2157">
        <ele>606.02935791</ele>
        <time>2022-07-10T07:18:50Z</time>
      </trkpt>
      <trkpt lat="43.3844" lon="2.2157">
        <ele>606.02935791</ele>
        <time>2022-07-10T07:18:51Z</time>
      </trkpt>
      <trkpt lat="43.38442" lon="2.21571">
        <ele>606.0793457</ele>
        <time>2022-07-10T07:18:52Z</time>
      </trkpt>
      <trkpt lat="43.38444" lon="2.21571">
        <ele>606.22937012</ele>
        <time>2022-07-10T07:18:53Z</time>
      </trkpt>
      <trkpt lat="43.38447" lon="2.21572">
        <ele>606.29937744</ele>
        <time>2022-07-10T07:18:54Z</time>
      </trkpt>
      <trkpt lat="43.3845" lon="2.21575">
        <ele>606.42938232</ele>
        <time>2022-07-10T07:18:55Z</time>
      </trkpt>
      <trkpt lat="43.38452" lon="2.21578">
        <ele>606.49938965</ele>
        <time>2022-07-10T07:18:56Z</time>
      </trkpt>
      <trkpt lat="43.38455" lon="2.21582">
        <ele>606.43939209</ele>
        <time>2022-07-10T07:18:57Z</time>
      </trkpt>
      <trkpt lat="43.38457" lon="2.21586">
        <ele>606.50939941</ele>
        <time>2022-07-10T07:18:58Z</time>
      </trkpt>
      <trkpt lat="43.38459" lon="2.21591">
        <ele>606.53942871</ele>
        <time>2022-07-10T07:18:59Z</time>
      </trkpt>
      <trkpt lat="43.3846" lon="2.21595">
        <ele>606.55944824</ele>
        <time>2022-07-10T07:19:00Z</time>
      </trkpt>
      <trkpt lat="43.38461" lon="2.21599">
        <ele>606.6194458</ele>
        <time>2022-07-10T07:19:01Z</time>
      </trkpt>
      <trkpt lat="43.3846" lon="2.21602">
        <ele>606.6194458</ele>
        <time>2022-07-10T07:19:02Z</time>
      </trkpt>
      <trkpt lat="43.38459" lon="2.21606">
        <ele>606.59942627</ele>
        <time>2022-07-10T07:19:03Z</time>
      </trkpt>
      <trkpt lat="43.38458" lon="2.21608">
        <ele>606.59942627</ele>
        <time>2022-07-10T07:19:04Z</time>
      </trkpt>
      <trkpt lat="43.38458" lon="2.21611">
        <ele>606.6194458</ele>
        <time>2022-07-10T07:19:05Z</time>
      </trkpt>
      <trkpt lat="43.38456" lon="2.21612">
        <ele>606.6194458</ele>
        <time>2022-07-10T07:19:06Z</time>
      </trkpt>
      <trkpt lat="43.38453" lon="2.21616">
        <ele>606.52941895</ele>
        <time>2022-07-10T07:19:07Z</time>
      </trkpt>
      <trkpt lat="43.38451" lon="2.21619">
        <ele>606.37939453</ele>
        <time>2022-07-10T07:19:08Z</time>
      </trkpt>
      <trkpt lat="43.3845" lon="2.2162">
        <ele>606.22937012</ele>
        <time>2022-07-10T07:19:09Z</time>
      </trkpt>
      <trkpt lat="43.3845" lon="2.21622">
        <ele>606.09936523</ele>
        <time>2022-07-10T07:19:10Z</time>
      </trkpt>
      <trkpt lat="43.3845" lon="2.21625">
        <ele>606.14935303</ele>
        <time>2022-07-10T07:19:11Z</time>
      </trkpt>
      <trkpt lat="43.38451" lon="2.21629">
        <ele>606.21936035</ele>
        <time>2022-07-10T07:19:12Z</time>
      </trkpt>
      <trkpt lat="43.38453" lon="2.21632">
        <ele>606.34936523</ele>
        <time>2022-07-10T07:19:13Z</time>
      </trkpt>
      <trkpt lat="43.38453" lon="2.21636">
        <ele>606.52935791</ele>
        <time>2022-07-10T07:19:14Z</time>
      </trkpt>
      <trkpt lat="43.38454" lon="2.2164">
        <ele>606.58935547</ele>
        <time>2022-07-10T07:19:15Z</time>
      </trkpt>
      <trkpt lat="43.38454" lon="2.21645">
        <ele>606.58935547</ele>
        <time>2022-07-10T07:19:16Z</time>
      </trkpt>
      <trkpt lat="43.38454" lon="2.2165">
        <ele>606.52935791</ele>
        <time>2022-07-10T07:19:17Z</time>
      </trkpt>
      <trkpt lat="43.38455" lon="2.21653">
        <ele>606.51934814</ele>
        <time>2022-07-10T07:19:18Z</time>
      </trkpt>
      <trkpt lat="43.38456" lon="2.21657">
        <ele>606.53936768</ele>
        <time>2022-07-10T07:19:19Z</time>
      </trkpt>
      <trkpt lat="43.38457" lon="2.21661">
        <ele>606.64935303</ele>
        <time>2022-07-10T07:19:20Z</time>
      </trkpt>
      <trkpt lat="43.38459" lon="2.21665">
        <ele>606.609375</ele>
        <time>2022-07-10T07:19:21Z</time>
      </trkpt>
      <trkpt lat="43.3846" lon="2.21667">
        <ele>606.609375</ele>
        <time>2022-07-10T07:19:22Z</time>
      </trkpt>
      <trkpt lat="43.38461" lon="2.2167">
        <ele>606.55938721</ele>
        <time>2022-07-10T07:19:23Z</time>
      </trkpt>
      <trkpt lat="43.38463" lon="2.21672">
        <ele>606.46936035</ele>
        <time>2022-07-10T07:19:24Z</time>
      </trkpt>
      <trkpt lat="43.38464" lon="2.21675">
        <ele>606.47937012</ele>
        <time>2022-07-10T07:19:25Z</time>
      </trkpt>
      <trkpt lat="43.38464" lon="2.21681">
        <ele>606.31939697</ele>
        <time>2022-07-10T07:19:26Z</time>
      </trkpt>
      <trkpt lat="43.38464" lon="2.21684">
        <ele>606.43939209</ele>
        <time>2022-07-10T07:19:27Z</time>
      </trkpt>
      <trkpt lat="43.38464" lon="2.21687">
        <ele>606.55938721</ele>
        <time>2022-07-10T07:19:28Z</time>
      </trkpt>
      <trkpt lat="43.38465" lon="2.2169">
        <ele>606.70941162</ele>
        <time>2022-07-10T07:19:29Z</time>
      </trkpt>
      <trkpt lat="43.38467" lon="2.21693">
        <ele>606.95941162</ele>
        <time>2022-07-10T07:19:30Z</time>
      </trkpt>
      <trkpt lat="43.3847" lon="2.21696">
        <ele>606.92938232</ele>
        <time>2022-07-10T07:19:31Z</time>
      </trkpt>
      <trkpt lat="43.38473" lon="2.21697">
        <ele>606.91937256</ele>
        <time>2022-07-10T07:19:32Z</time>
      </trkpt>
      <trkpt lat="43.38475" lon="2.21698">
        <ele>606.99938965</ele>
        <time>2022-07-10T07:19:33Z</time>
      </trkpt>
      <trkpt lat="43.38477" lon="2.21701">
        <ele>606.93939209</ele>
        <time>2022-07-10T07:19:34Z</time>
      </trkpt>
      <trkpt lat="43.3848" lon="2.21705">
        <ele>606.90936279</ele>
        <time>2022-07-10T07:19:35Z</time>
      </trkpt>
      <trkpt lat="43.38481" lon="2.2171">
        <ele>606.86938477</ele>
        <time>2022-07-10T07:19:36Z</time>
      </trkpt>
      <trkpt lat="43.38484" lon="2.21715">
        <ele>606.75939941</ele>
        <time>2022-07-10T07:19:37Z</time>
      </trkpt>
      <trkpt lat="43.38487" lon="2.21718">
        <ele>606.65942383</ele>
        <time>2022-07-10T07:19:38Z</time>
      </trkpt>
      <trkpt lat="43.38491" lon="2.21721">
        <ele>606.62939453</ele>
        <time>2022-07-10T07:19:39Z</time>
      </trkpt>
      <trkpt lat="43.38493" lon="2.21722">
        <ele>606.62939453</ele>
        <time>2022-07-10T07:19:40Z</time>
      </trkpt>
      <trkpt lat="43.38496" lon="2.21723">
        <ele>606.57940674</ele>
        <time>2022-07-10T07:19:41Z</time>
      </trkpt>
      <trkpt lat="43.38499" lon="2.21723">
        <ele>606.67938232</ele>
        <time>2022-07-10T07:19:42Z</time>
      </trkpt>
      <trkpt lat="43.38504" lon="2.21723">
        <ele>606.84936523</ele>
        <time>2022-07-10T07:19:43Z</time>
      </trkpt>
      <trkpt lat="43.38506" lon="2.21722">
        <ele>607.00933838</ele>
        <time>2022-07-10T07:19:44Z</time>
      </trkpt>
      <trkpt lat="43.3851" lon="2.21723">
        <ele>607.21936035</ele>
        <time>2022-07-10T07:19:45Z</time>
      </trkpt>
      <trkpt lat="43.38514" lon="2.21724">
        <ele>607.3293457</ele>
        <time>2022-07-10T07:19:46Z</time>
      </trkpt>
      <trkpt lat="43.38516" lon="2.21725">
        <ele>607.3293457</ele>
        <time>2022-07-10T07:19:47Z</time>
      </trkpt>
      <trkpt lat="43.38521" lon="2.21725">
        <ele>607.29931641</ele>
        <time>2022-07-10T07:19:48Z</time>
      </trkpt>
      <trkpt lat="43.38525" lon="2.21726">
        <ele>607.26928711</ele>
        <time>2022-07-10T07:19:49Z</time>
      </trkpt>
      <trkpt lat="43.38527" lon="2.21726">
        <ele>607.25927734</ele>
        <time>2022-07-10T07:19:50Z</time>
      </trkpt>
      <trkpt lat="43.3853" lon="2.21727">
        <ele>607.30926514</ele>
        <time>2022-07-10T07:19:51Z</time>
      </trkpt>
      <trkpt lat="43.38534" lon="2.21728">
        <ele>607.30926514</ele>
        <time>2022-07-10T07:19:52Z</time>
      </trkpt>
      <trkpt lat="43.38537" lon="2.21728">
        <ele>607.30926514</ele>
        <time>2022-07-10T07:19:53Z</time>
      </trkpt>
      <trkpt lat="43.3854" lon="2.21728">
        <ele>607.3192749</ele>
        <time>2022-07-10T07:19:54Z</time>
      </trkpt>
      <trkpt lat="43.38543" lon="2.21728">
        <ele>607.3192749</ele>
        <time>2022-07-10T07:19:55Z</time>
      </trkpt>
      <trkpt lat="43.38546" lon="2.21729">
        <ele>607.3493042</ele>
        <time>2022-07-10T07:19:56Z</time>
      </trkpt>
      <trkpt lat="43.38551" lon="2.21729">
        <ele>607.38928223</ele>
        <time>2022-07-10T07:19:57Z</time>
      </trkpt>
      <trkpt lat="43.38554" lon="2.21728">
        <ele>607.39929199</ele>
        <time>2022-07-10T07:19:58Z</time>
      </trkpt>
      <trkpt lat="43.38557" lon="2.21727">
        <ele>607.39929199</ele>
        <time>2022-07-10T07:19:59Z</time>
      </trkpt>
      <trkpt lat="43.3856" lon="2.21727">
        <ele>607.37927246</ele>
        <time>2022-07-10T07:20:00Z</time>
      </trkpt>
      <trkpt lat="43.38563" lon="2.21728">
        <ele>607.37927246</ele>
        <time>2022-07-10T07:20:01Z</time>
      </trkpt>
      <trkpt lat="43.38567" lon="2.21731">
        <ele>607.45928955</ele>
        <time>2022-07-10T07:20:02Z</time>
      </trkpt>
      <trkpt lat="43.3857" lon="2.21732">
        <ele>607.48931885</ele>
        <time>2022-07-10T07:20:03Z</time>
      </trkpt>
      <trkpt lat="43.38573" lon="2.21733">
        <ele>607.60931396</ele>
        <time>2022-07-10T07:20:04Z</time>
      </trkpt>
      <trkpt lat="43.38576" lon="2.21734">
        <ele>607.60931396</ele>
        <time>2022-07-10T07:20:05Z</time>
      </trkpt>
      <trkpt lat="43.38581" lon="2.21735">
        <ele>607.57928467</ele>
        <time>2022-07-10T07:20:06Z</time>
      </trkpt>
      <trkpt lat="43.38584" lon="2.21735">
        <ele>607.55926514</ele>
        <time>2022-07-10T07:20:07Z</time>
      </trkpt>
      <trkpt lat="43.38588" lon="2.21736">
        <ele>607.59924316</ele>
        <time>2022-07-10T07:20:08Z</time>
      </trkpt>
      <trkpt lat="43.3859" lon="2.21736">
        <ele>607.79925537</ele>
        <time>2022-07-10T07:20:09Z</time>
      </trkpt>
      <trkpt lat="43.38593" lon="2.21735">
        <ele>608.14923096</ele>
        <time>2022-07-10T07:20:10Z</time>
      </trkpt>
      <trkpt lat="43.38596" lon="2.21735">
        <ele>608.50921631</ele>
        <time>2022-07-10T07:20:11Z</time>
      </trkpt>
      <trkpt lat="43.38599" lon="2.21735">
        <ele>608.84924316</ele>
        <time>2022-07-10T07:20:12Z</time>
      </trkpt>
      <trkpt lat="43.38601" lon="2.21735">
        <ele>609.10925293</ele>
        <time>2022-07-10T07:20:13Z</time>
      </trkpt>
      <trkpt lat="43.38604" lon="2.21735">
        <ele>609.28924561</ele>
        <time>2022-07-10T07:20:14Z</time>
      </trkpt>
      <trkpt lat="43.38608" lon="2.21735">
        <ele>609.41925049</ele>
        <time>2022-07-10T07:20:15Z</time>
      </trkpt>
      <trkpt lat="43.3861" lon="2.21735">
        <ele>609.50927734</ele>
        <time>2022-07-10T07:20:16Z</time>
      </trkpt>
      <trkpt lat="43.38613" lon="2.21735">
        <ele>609.58929443</ele>
        <time>2022-07-10T07:20:17Z</time>
      </trkpt>
      <trkpt lat="43.38616" lon="2.21735">
        <ele>609.55926514</ele>
        <time>2022-07-10T07:20:18Z</time>
      </trkpt>
      <trkpt lat="43.3862" lon="2.21736">
        <ele>609.59924316</ele>
        <time>2022-07-10T07:20:19Z</time>
      </trkpt>
      <trkpt lat="43.38623" lon="2.21738">
        <ele>609.62927246</ele>
        <time>2022-07-10T07:20:20Z</time>
      </trkpt>
      <trkpt lat="43.38625" lon="2.2174">
        <ele>609.48925781</ele>
        <time>2022-07-10T07:20:21Z</time>
      </trkpt>
      <trkpt lat="43.38628" lon="2.21742">
        <ele>609.50927734</ele>
        <time>2022-07-10T07:20:22Z</time>
      </trkpt>
      <trkpt lat="43.3863" lon="2.21744">
        <ele>609.44927979</ele>
        <time>2022-07-10T07:20:23Z</time>
      </trkpt>
      <trkpt lat="43.38634" lon="2.21747">
        <ele>609.3192749</ele>
        <time>2022-07-10T07:20:24Z</time>
      </trkpt>
      <trkpt lat="43.38637" lon="2.21748">
        <ele>609.32928467</ele>
        <time>2022-07-10T07:20:25Z</time>
      </trkpt>
      <trkpt lat="43.3864" lon="2.2175">
        <ele>609.23925781</ele>
        <time>2022-07-10T07:20:26Z</time>
      </trkpt>
      <trkpt lat="43.38642" lon="2.21751">
        <ele>609.24926758</ele>
        <time>2022-07-10T07:20:27Z</time>
      </trkpt>
      <trkpt lat="43.38647" lon="2.21752">
        <ele>609.29925537</ele>
        <time>2022-07-10T07:20:28Z</time>
      </trkpt>
      <trkpt lat="43.3865" lon="2.21753">
        <ele>609.38928223</ele>
        <time>2022-07-10T07:20:29Z</time>
      </trkpt>
      <trkpt lat="43.38652" lon="2.21755">
        <ele>609.52929688</ele>
        <time>2022-07-10T07:20:30Z</time>
      </trkpt>
      <trkpt lat="43.38654" lon="2.21758">
        <ele>609.58929443</ele>
        <time>2022-07-10T07:20:31Z</time>
      </trkpt>
      <trkpt lat="43.38657" lon="2.2176">
        <ele>609.62927246</ele>
        <time>2022-07-10T07:20:32Z</time>
      </trkpt>
      <trkpt lat="43.3866" lon="2.21764">
        <ele>609.65930176</ele>
        <time>2022-07-10T07:20:33Z</time>
      </trkpt>
      <trkpt lat="43.38661" lon="2.21768">
        <ele>609.57928467</ele>
        <time>2022-07-10T07:20:34Z</time>
      </trkpt>
      <trkpt lat="43.38663" lon="2.21771">
        <ele>609.49926758</ele>
        <time>2022-07-10T07:20:35Z</time>
      </trkpt>
      <trkpt lat="43.38665" lon="2.21774">
        <ele>609.55926514</ele>
        <time>2022-07-10T07:20:36Z</time>
      </trkpt>
      <trkpt lat="43.38668" lon="2.21778">
        <ele>609.55926514</ele>
        <time>2022-07-10T07:20:37Z</time>
      </trkpt>
      <trkpt lat="43.38671" lon="2.2178">
        <ele>609.68927002</ele>
        <time>2022-07-10T07:20:38Z</time>
      </trkpt>
      <trkpt lat="43.38673" lon="2.21783">
        <ele>609.8692627</ele>
        <time>2022-07-10T07:20:39Z</time>
      </trkpt>
      <trkpt lat="43.38675" lon="2.21786">
        <ele>609.90924072</ele>
        <time>2022-07-10T07:20:40Z</time>
      </trkpt>
      <trkpt lat="43.38678" lon="2.21789">
        <ele>609.95922852</ele>
        <time>2022-07-10T07:20:41Z</time>
      </trkpt>
      <trkpt lat="43.38682" lon="2.21792">
        <ele>610.01922607</ele>
        <time>2022-07-10T07:20:42Z</time>
      </trkpt>
      <trkpt lat="43.38685" lon="2.21795">
        <ele>610.01922607</ele>
        <time>2022-07-10T07:20:43Z</time>
      </trkpt>
      <trkpt lat="43.38687" lon="2.21797">
        <ele>610.01922607</ele>
        <time>2022-07-10T07:20:44Z</time>
      </trkpt>
      <trkpt lat="43.3869" lon="2.21799">
        <ele>610.12921143</ele>
        <time>2022-07-10T07:20:45Z</time>
      </trkpt>
      <trkpt lat="43.38692" lon="2.21801">
        <ele>610.15924072</ele>
        <time>2022-07-10T07:20:46Z</time>
      </trkpt>
      <trkpt lat="43.38694" lon="2.21805">
        <ele>610.15924072</ele>
        <time>2022-07-10T07:20:47Z</time>
      </trkpt>
      <trkpt lat="43.38696" lon="2.21808">
        <ele>610.24926758</ele>
        <time>2022-07-10T07:20:48Z</time>
      </trkpt>
      <trkpt lat="43.38699" lon="2.21809">
        <ele>610.3192749</ele>
        <time>2022-07-10T07:20:49Z</time>
      </trkpt>
      <trkpt lat="43.38701" lon="2.21811">
        <ele>610.48925781</ele>
        <time>2022-07-10T07:20:50Z</time>
      </trkpt>
      <trkpt lat="43.38705" lon="2.21814">
        <ele>610.69927979</ele>
        <time>2022-07-10T07:20:51Z</time>
      </trkpt>
      <trkpt lat="43.38707" lon="2.21816">
        <ele>610.88928223</ele>
        <time>2022-07-10T07:20:52Z</time>
      </trkpt>
      <trkpt lat="43.38709" lon="2.21818">
        <ele>611.08929443</ele>
        <time>2022-07-10T07:20:53Z</time>
      </trkpt>
      <trkpt lat="43.38711" lon="2.21819">
        <ele>611.28930664</ele>
        <time>2022-07-10T07:20:54Z</time>
      </trkpt>
      <trkpt lat="43.38715" lon="2.21823">
        <ele>611.52929688</ele>
        <time>2022-07-10T07:20:55Z</time>
      </trkpt>
      <trkpt lat="43.38717" lon="2.21825">
        <ele>611.72930908</ele>
        <time>2022-07-10T07:20:56Z</time>
      </trkpt>
      <trkpt lat="43.3872" lon="2.21828">
        <ele>611.79931641</ele>
        <time>2022-07-10T07:20:57Z</time>
      </trkpt>
      <trkpt lat="43.38722" lon="2.21831">
        <ele>611.8293457</ele>
        <time>2022-07-10T07:20:58Z</time>
      </trkpt>
      <trkpt lat="43.38723" lon="2.21833">
        <ele>611.86932373</ele>
        <time>2022-07-10T07:20:59Z</time>
      </trkpt>
      <trkpt lat="43.38727" lon="2.21837">
        <ele>611.92932129</ele>
        <time>2022-07-10T07:21:00Z</time>
      </trkpt>
      <trkpt lat="43.38729" lon="2.21839">
        <ele>612.03930664</ele>
        <time>2022-07-10T07:21:01Z</time>
      </trkpt>
      <trkpt lat="43.3873" lon="2.21841">
        <ele>612.08929443</ele>
        <time>2022-07-10T07:21:02Z</time>
      </trkpt>
      <trkpt lat="43.38732" lon="2.21843">
        <ele>612.23931885</ele>
        <time>2022-07-10T07:21:03Z</time>
      </trkpt>
      <trkpt lat="43.38736" lon="2.21847">
        <ele>612.36932373</ele>
        <time>2022-07-10T07:21:04Z</time>
      </trkpt>
      <trkpt lat="43.38738" lon="2.21849">
        <ele>612.55932617</ele>
        <time>2022-07-10T07:21:05Z</time>
      </trkpt>
      <trkpt lat="43.38741" lon="2.21851">
        <ele>612.74932861</ele>
        <time>2022-07-10T07:21:06Z</time>
      </trkpt>
      <trkpt lat="43.38744" lon="2.21854">
        <ele>612.83935547</ele>
        <time>2022-07-10T07:21:07Z</time>
      </trkpt>
      <trkpt lat="43.38747" lon="2.21857">
        <ele>612.84936523</ele>
        <time>2022-07-10T07:21:08Z</time>
      </trkpt>
      <trkpt lat="43.38751" lon="2.2186">
        <ele>612.81933594</ele>
        <time>2022-07-10T07:21:09Z</time>
      </trkpt>
      <trkpt lat="43.38753" lon="2.21862">
        <ele>612.81933594</ele>
        <time>2022-07-10T07:21:10Z</time>
      </trkpt>
      <trkpt lat="43.38756" lon="2.21865">
        <ele>612.89935303</ele>
        <time>2022-07-10T07:21:11Z</time>
      </trkpt>
      <trkpt lat="43.38758" lon="2.21867">
        <ele>613.04937744</ele>
        <time>2022-07-10T07:21:12Z</time>
      </trkpt>
      <trkpt lat="43.38762" lon="2.2187">
        <ele>613.14935303</ele>
        <time>2022-07-10T07:21:13Z</time>
      </trkpt>
      <trkpt lat="43.38764" lon="2.21872">
        <ele>613.24932861</ele>
        <time>2022-07-10T07:21:14Z</time>
      </trkpt>
      <trkpt lat="43.38768" lon="2.21874">
        <ele>613.35931396</ele>
        <time>2022-07-10T07:21:15Z</time>
      </trkpt>
      <trkpt lat="43.3877" lon="2.21876">
        <ele>613.41931152</ele>
        <time>2022-07-10T07:21:16Z</time>
      </trkpt>
      <trkpt lat="43.38772" lon="2.21877">
        <ele>613.49932861</ele>
        <time>2022-07-10T07:21:17Z</time>
      </trkpt>
      <trkpt lat="43.38773" lon="2.21878">
        <ele>613.55932617</ele>
        <time>2022-07-10T07:21:18Z</time>
      </trkpt>
      <trkpt lat="43.38776" lon="2.2188">
        <ele>613.69934082</ele>
        <time>2022-07-10T07:21:19Z</time>
      </trkpt>
      <trkpt lat="43.38778" lon="2.21881">
        <ele>613.84936523</ele>
        <time>2022-07-10T07:21:20Z</time>
      </trkpt>
      <trkpt lat="43.38781" lon="2.21881">
        <ele>614.03936768</ele>
        <time>2022-07-10T07:21:21Z</time>
      </trkpt>
      <trkpt lat="43.38784" lon="2.21883">
        <ele>614.38934326</ele>
        <time>2022-07-10T07:21:22Z</time>
      </trkpt>
      <trkpt lat="43.38785" lon="2.21885">
        <ele>614.52935791</ele>
        <time>2022-07-10T07:21:23Z</time>
      </trkpt>
      <trkpt lat="43.38787" lon="2.21886">
        <ele>614.8293457</ele>
        <time>2022-07-10T07:21:24Z</time>
      </trkpt>
      <trkpt lat="43.38789" lon="2.21887">
        <ele>615.03936768</ele>
        <time>2022-07-10T07:21:25Z</time>
      </trkpt>
      <trkpt lat="43.38791" lon="2.21889">
        <ele>615.109375</ele>
        <time>2022-07-10T07:21:26Z</time>
      </trkpt>
      <trkpt lat="43.38796" lon="2.21892">
        <ele>615.21936035</ele>
        <time>2022-07-10T07:21:27Z</time>
      </trkpt>
      <trkpt lat="43.38799" lon="2.21893">
        <ele>615.29937744</ele>
        <time>2022-07-10T07:21:28Z</time>
      </trkpt>
      <trkpt lat="43.38802" lon="2.21894">
        <ele>615.45935059</ele>
        <time>2022-07-10T07:21:29Z</time>
      </trkpt>
      <trkpt lat="43.38805" lon="2.21895">
        <ele>615.55932617</ele>
        <time>2022-07-10T07:21:30Z</time>
      </trkpt>
      <trkpt lat="43.3881" lon="2.21896">
        <ele>615.70935059</ele>
        <time>2022-07-10T07:21:31Z</time>
      </trkpt>
      <trkpt lat="43.38813" lon="2.21896">
        <ele>615.77935791</ele>
        <time>2022-07-10T07:21:32Z</time>
      </trkpt>
      <trkpt lat="43.38816" lon="2.21896">
        <ele>615.86938477</ele>
        <time>2022-07-10T07:21:33Z</time>
      </trkpt>
      <trkpt lat="43.38819" lon="2.21895">
        <ele>616.00939941</ele>
        <time>2022-07-10T07:21:34Z</time>
      </trkpt>
      <trkpt lat="43.38823" lon="2.21894">
        <ele>616.00939941</ele>
        <time>2022-07-10T07:21:35Z</time>
      </trkpt>
      <trkpt lat="43.38827" lon="2.21893">
        <ele>616.04937744</ele>
        <time>2022-07-10T07:21:36Z</time>
      </trkpt>
      <trkpt lat="43.38829" lon="2.21892">
        <ele>616.17938232</ele>
        <time>2022-07-10T07:21:37Z</time>
      </trkpt>
      <trkpt lat="43.38832" lon="2.2189">
        <ele>616.24938965</ele>
        <time>2022-07-10T07:21:38Z</time>
      </trkpt>
      <trkpt lat="43.38834" lon="2.21889">
        <ele>616.45941162</ele>
        <time>2022-07-10T07:21:39Z</time>
      </trkpt>
      <trkpt lat="43.38838" lon="2.21888">
        <ele>616.67938232</ele>
        <time>2022-07-10T07:21:40Z</time>
      </trkpt>
      <trkpt lat="43.3884" lon="2.21887">
        <ele>616.86938477</ele>
        <time>2022-07-10T07:21:41Z</time>
      </trkpt>
      <trkpt lat="43.38843" lon="2.21886">
        <ele>617.01940918</ele>
        <time>2022-07-10T07:21:42Z</time>
      </trkpt>
      <trkpt lat="43.38845" lon="2.21885">
        <ele>617.20941162</ele>
        <time>2022-07-10T07:21:43Z</time>
      </trkpt>
      <trkpt lat="43.38846" lon="2.21884">
        <ele>617.23944092</ele>
        <time>2022-07-10T07:21:44Z</time>
      </trkpt>
      <trkpt lat="43.38849" lon="2.21883">
        <ele>617.28942871</ele>
        <time>2022-07-10T07:21:45Z</time>
      </trkpt>
      <trkpt lat="43.38852" lon="2.21883">
        <ele>617.41943359</ele>
        <time>2022-07-10T07:21:46Z</time>
      </trkpt>
      <trkpt lat="43.38855" lon="2.21882">
        <ele>617.57940674</ele>
        <time>2022-07-10T07:21:47Z</time>
      </trkpt>
      <trkpt lat="43.38858" lon="2.21882">
        <ele>617.8394165</ele>
        <time>2022-07-10T07:21:48Z</time>
      </trkpt>
      <trkpt lat="43.38862" lon="2.21882">
        <ele>617.96942139</ele>
        <time>2022-07-10T07:21:49Z</time>
      </trkpt>
      <trkpt lat="43.38863" lon="2.21883">
        <ele>618.20941162</ele>
        <time>2022-07-10T07:21:50Z</time>
      </trkpt>
      <trkpt lat="43.38866" lon="2.21884">
        <ele>618.32940674</ele>
        <time>2022-07-10T07:21:51Z</time>
      </trkpt>
      <trkpt lat="43.38868" lon="2.21884">
        <ele>618.41943359</ele>
        <time>2022-07-10T07:21:52Z</time>
      </trkpt>
      <trkpt lat="43.3887" lon="2.21884">
        <ele>618.6194458</ele>
        <time>2022-07-10T07:21:53Z</time>
      </trkpt>
      <trkpt lat="43.38874" lon="2.21885">
        <ele>618.67944336</ele>
        <time>2022-07-10T07:21:54Z</time>
      </trkpt>
      <trkpt lat="43.38875" lon="2.21885">
        <ele>618.78942871</ele>
        <time>2022-07-10T07:21:55Z</time>
      </trkpt>
      <trkpt lat="43.38877" lon="2.21885">
        <ele>618.90942383</ele>
        <time>2022-07-10T07:21:56Z</time>
      </trkpt>
      <trkpt lat="43.38879" lon="2.21884">
        <ele>618.91943359</ele>
        <time>2022-07-10T07:21:57Z</time>
      </trkpt>
      <trkpt lat="43.38883" lon="2.21883">
        <ele>618.97943115</ele>
        <time>2022-07-10T07:21:58Z</time>
      </trkpt>
      <trkpt lat="43.38886" lon="2.21882">
        <ele>619.03942871</ele>
        <time>2022-07-10T07:21:59Z</time>
      </trkpt>
      <trkpt lat="43.38889" lon="2.21881">
        <ele>619.17944336</ele>
        <time>2022-07-10T07:22:00Z</time>
      </trkpt>
      <trkpt lat="43.38891" lon="2.2188">
        <ele>619.34942627</ele>
        <time>2022-07-10T07:22:01Z</time>
      </trkpt>
      <trkpt lat="43.38894" lon="2.21878">
        <ele>619.52941895</ele>
        <time>2022-07-10T07:22:02Z</time>
      </trkpt>
      <trkpt lat="43.38895" lon="2.21877">
        <ele>619.66943359</ele>
        <time>2022-07-10T07:22:03Z</time>
      </trkpt>
      <trkpt lat="43.38897" lon="2.21876">
        <ele>619.75946045</ele>
        <time>2022-07-10T07:22:04Z</time>
      </trkpt>
      <trkpt lat="43.38898" lon="2.21874">
        <ele>619.91943359</ele>
        <time>2022-07-10T07:22:05Z</time>
      </trkpt>
      <trkpt lat="43.389" lon="2.21873">
        <ele>620.01940918</ele>
        <time>2022-07-10T07:22:06Z</time>
      </trkpt>
      <trkpt lat="43.38903" lon="2.21871">
        <ele>620.12939453</ele>
        <time>2022-07-10T07:22:07Z</time>
      </trkpt>
      <trkpt lat="43.38905" lon="2.2187">
        <ele>620.24938965</ele>
        <time>2022-07-10T07:22:08Z</time>
      </trkpt>
      <trkpt lat="43.38907" lon="2.21869">
        <ele>622.11938477</ele>
        <time>2022-07-10T07:22:09Z</time>
      </trkpt>
      <trkpt lat="43.38909" lon="2.21868">
        <ele>622.37939453</ele>
        <time>2022-07-10T07:22:10Z</time>
      </trkpt>
      <trkpt lat="43.38911" lon="2.21866">
        <ele>622.5894165</ele>
        <time>2022-07-10T07:22:11Z</time>
      </trkpt>
      <trkpt lat="43.38914" lon="2.21865">
        <ele>622.71942139</ele>
        <time>2022-07-10T07:22:12Z</time>
      </trkpt>
      <trkpt lat="43.38916" lon="2.21864">
        <ele>622.8394165</ele>
        <time>2022-07-10T07:22:13Z</time>
      </trkpt>
      <trkpt lat="43.38917" lon="2.21864">
        <ele>622.81939697</ele>
        <time>2022-07-10T07:22:14Z</time>
      </trkpt>
      <trkpt lat="43.38919" lon="2.21862">
        <ele>622.86938477</ele>
        <time>2022-07-10T07:22:15Z</time>
      </trkpt>
      <trkpt lat="43.38923" lon="2.21862">
        <ele>622.94940186</ele>
        <time>2022-07-10T07:22:16Z</time>
      </trkpt>
      <trkpt lat="43.38926" lon="2.21861">
        <ele>622.97943115</ele>
        <time>2022-07-10T07:22:17Z</time>
      </trkpt>
      <trkpt lat="43.3893" lon="2.21861">
        <ele>623.05944824</ele>
        <time>2022-07-10T07:22:18Z</time>
      </trkpt>
      <trkpt lat="43.38933" lon="2.2186">
        <ele>623.09942627</ele>
        <time>2022-07-10T07:22:19Z</time>
      </trkpt>
      <trkpt lat="43.38936" lon="2.2186">
        <ele>623.18945312</ele>
        <time>2022-07-10T07:22:20Z</time>
      </trkpt>
      <trkpt lat="43.38939" lon="2.21859">
        <ele>623.24945068</ele>
        <time>2022-07-10T07:22:21Z</time>
      </trkpt>
      <trkpt lat="43.38942" lon="2.21859">
        <ele>623.35943604</ele>
        <time>2022-07-10T07:22:22Z</time>
      </trkpt>
      <trkpt lat="43.38944" lon="2.21859">
        <ele>623.45941162</ele>
        <time>2022-07-10T07:22:23Z</time>
      </trkpt>
      <trkpt lat="43.38947" lon="2.21859">
        <ele>623.52941895</ele>
        <time>2022-07-10T07:22:24Z</time>
      </trkpt>
      <trkpt lat="43.3895" lon="2.2186">
        <ele>623.6394043</ele>
        <time>2022-07-10T07:22:25Z</time>
      </trkpt>
      <trkpt lat="43.38952" lon="2.21861">
        <ele>623.73937988</ele>
        <time>2022-07-10T07:22:26Z</time>
      </trkpt>
      <trkpt lat="43.38954" lon="2.21862">
        <ele>623.86938477</ele>
        <time>2022-07-10T07:22:27Z</time>
      </trkpt>
      <trkpt lat="43.38956" lon="2.21864">
        <ele>623.98937988</ele>
        <time>2022-07-10T07:22:28Z</time>
      </trkpt>
      <trkpt lat="43.38959" lon="2.21866">
        <ele>624.08935547</ele>
        <time>2022-07-10T07:22:29Z</time>
      </trkpt>
      <trkpt lat="43.38963" lon="2.21868">
        <ele>624.14935303</ele>
        <time>2022-07-10T07:22:30Z</time>
      </trkpt>
      <trkpt lat="43.38965" lon="2.21869">
        <ele>624.19934082</ele>
        <time>2022-07-10T07:22:31Z</time>
      </trkpt>
      <trkpt lat="43.38968" lon="2.21869">
        <ele>624.36932373</ele>
        <time>2022-07-10T07:22:32Z</time>
      </trkpt>
      <trkpt lat="43.3897" lon="2.2187">
        <ele>624.6293335</ele>
        <time>2022-07-10T07:22:33Z</time>
      </trkpt>
      <trkpt lat="43.38973" lon="2.2187">
        <ele>624.8793335</ele>
        <time>2022-07-10T07:22:34Z</time>
      </trkpt>
      <trkpt lat="43.38974" lon="2.2187">
        <ele>625.22930908</ele>
        <time>2022-07-10T07:22:35Z</time>
      </trkpt>
      <trkpt lat="43.38975" lon="2.2187">
        <ele>625.46929932</ele>
        <time>2022-07-10T07:22:36Z</time>
      </trkpt>
      <trkpt lat="43.38977" lon="2.21871">
        <ele>625.66931152</ele>
        <time>2022-07-10T07:22:37Z</time>
      </trkpt>
      <trkpt lat="43.38979" lon="2.21872">
        <ele>625.8493042</ele>
        <time>2022-07-10T07:22:38Z</time>
      </trkpt>
      <trkpt lat="43.38984" lon="2.21873">
        <ele>626.04931641</ele>
        <time>2022-07-10T07:22:39Z</time>
      </trkpt>
      <trkpt lat="43.38986" lon="2.21875">
        <ele>626.22930908</ele>
        <time>2022-07-10T07:22:40Z</time>
      </trkpt>
      <trkpt lat="43.38989" lon="2.21876">
        <ele>626.3793335</ele>
        <time>2022-07-10T07:22:41Z</time>
      </trkpt>
      <trkpt lat="43.38991" lon="2.21877">
        <ele>626.56933594</ele>
        <time>2022-07-10T07:22:42Z</time>
      </trkpt>
      <trkpt lat="43.38995" lon="2.21879">
        <ele>626.6293335</ele>
        <time>2022-07-10T07:22:43Z</time>
      </trkpt>
      <trkpt lat="43.38999" lon="2.2188">
        <ele>626.66931152</ele>
        <time>2022-07-10T07:22:44Z</time>
      </trkpt>
      <trkpt lat="43.39001" lon="2.21882">
        <ele>626.67932129</ele>
        <time>2022-07-10T07:22:45Z</time>
      </trkpt>
      <trkpt lat="43.39004" lon="2.21884">
        <ele>626.5793457</ele>
        <time>2022-07-10T07:22:46Z</time>
      </trkpt>
      <trkpt lat="43.39006" lon="2.21887">
        <ele>626.41937256</ele>
        <time>2022-07-10T07:22:47Z</time>
      </trkpt>
      <trkpt lat="43.39008" lon="2.2189">
        <ele>626.25939941</ele>
        <time>2022-07-10T07:22:48Z</time>
      </trkpt>
      <trkpt lat="43.39011" lon="2.21894">
        <ele>626.18939209</ele>
        <time>2022-07-10T07:22:49Z</time>
      </trkpt>
      <trkpt lat="43.39014" lon="2.21897">
        <ele>626.04937744</ele>
        <time>2022-07-10T07:22:50Z</time>
      </trkpt>
      <trkpt lat="43.39015" lon="2.21901">
        <ele>625.84936523</ele>
        <time>2022-07-10T07:22:51Z</time>
      </trkpt>
      <trkpt lat="43.39019" lon="2.21905">
        <ele>625.72937012</ele>
        <time>2022-07-10T07:22:52Z</time>
      </trkpt>
      <trkpt lat="43.39021" lon="2.21909">
        <ele>625.52935791</ele>
        <time>2022-07-10T07:22:53Z</time>
      </trkpt>
      <trkpt lat="43.39024" lon="2.21912">
        <ele>625.38934326</ele>
        <time>2022-07-10T07:22:54Z</time>
      </trkpt>
      <trkpt lat="43.39025" lon="2.21915">
        <ele>625.34936523</ele>
        <time>2022-07-10T07:22:55Z</time>
      </trkpt>
      <trkpt lat="43.39027" lon="2.21919">
        <ele>625.17938232</ele>
        <time>2022-07-10T07:22:56Z</time>
      </trkpt>
      <trkpt lat="43.39028" lon="2.21925">
        <ele>624.96936035</ele>
        <time>2022-07-10T07:22:57Z</time>
      </trkpt>
      <trkpt lat="43.3903" lon="2.21929">
        <ele>624.83935547</ele>
        <time>2022-07-10T07:22:58Z</time>
      </trkpt>
      <trkpt lat="43.39031" lon="2.21933">
        <ele>624.67938232</ele>
        <time>2022-07-10T07:22:59Z</time>
      </trkpt>
      <trkpt lat="43.39033" lon="2.21938">
        <ele>624.61938477</ele>
        <time>2022-07-10T07:23:00Z</time>
      </trkpt>
      <trkpt lat="43.39036" lon="2.21943">
        <ele>624.53936768</ele>
        <time>2022-07-10T07:23:01Z</time>
      </trkpt>
      <trkpt lat="43.39038" lon="2.21946">
        <ele>624.5793457</ele>
        <time>2022-07-10T07:23:02Z</time>
      </trkpt>
      <trkpt lat="43.39039" lon="2.21949">
        <ele>624.6293335</ele>
        <time>2022-07-10T07:23:03Z</time>
      </trkpt>
      <trkpt lat="43.3904" lon="2.21952">
        <ele>624.73931885</ele>
        <time>2022-07-10T07:23:04Z</time>
      </trkpt>
      <trkpt lat="43.39042" lon="2.21954">
        <ele>624.99932861</ele>
        <time>2022-07-10T07:23:05Z</time>
      </trkpt>
      <trkpt lat="43.39044" lon="2.21959">
        <ele>625.22930908</ele>
        <time>2022-07-10T07:23:06Z</time>
      </trkpt>
      <trkpt lat="43.39046" lon="2.21962">
        <ele>625.45928955</ele>
        <time>2022-07-10T07:23:07Z</time>
      </trkpt>
      <trkpt lat="43.39049" lon="2.21965">
        <ele>625.5692749</ele>
        <time>2022-07-10T07:23:08Z</time>
      </trkpt>
      <trkpt lat="43.39051" lon="2.21968">
        <ele>627.3493042</ele>
        <time>2022-07-10T07:23:09Z</time>
      </trkpt>
      <trkpt lat="43.39055" lon="2.21972">
        <ele>627.44927979</ele>
        <time>2022-07-10T07:23:10Z</time>
      </trkpt>
      <trkpt lat="43.39057" lon="2.21975">
        <ele>627.60925293</ele>
        <time>2022-07-10T07:23:11Z</time>
      </trkpt>
      <trkpt lat="43.39058" lon="2.21979">
        <ele>627.71923828</ele>
        <time>2022-07-10T07:23:12Z</time>
      </trkpt>
      <trkpt lat="43.39061" lon="2.21982">
        <ele>627.71923828</ele>
        <time>2022-07-10T07:23:13Z</time>
      </trkpt>
      <trkpt lat="43.39063" lon="2.21984">
        <ele>627.78924561</ele>
        <time>2022-07-10T07:23:14Z</time>
      </trkpt>
      <trkpt lat="43.39065" lon="2.21989">
        <ele>627.8192749</ele>
        <time>2022-07-10T07:23:15Z</time>
      </trkpt>
      <trkpt lat="43.39067" lon="2.21991">
        <ele>627.89929199</ele>
        <time>2022-07-10T07:23:16Z</time>
      </trkpt>
      <trkpt lat="43.39069" lon="2.21994">
        <ele>628.03930664</ele>
        <time>2022-07-10T07:23:17Z</time>
      </trkpt>
      <trkpt lat="43.39072" lon="2.21998">
        <ele>628.00927734</ele>
        <time>2022-07-10T07:23:18Z</time>
      </trkpt>
      <trkpt lat="43.39075" lon="2.22002">
        <ele>628.02929688</ele>
        <time>2022-07-10T07:23:19Z</time>
      </trkpt>
      <trkpt lat="43.39077" lon="2.22004">
        <ele>628.0692749</ele>
        <time>2022-07-10T07:23:20Z</time>
      </trkpt>
      <trkpt lat="43.39078" lon="2.22006">
        <ele>628.05926514</ele>
        <time>2022-07-10T07:23:21Z</time>
      </trkpt>
      <trkpt lat="43.39079" lon="2.22008">
        <ele>628.09924316</ele>
        <time>2022-07-10T07:23:22Z</time>
      </trkpt>
      <trkpt lat="43.39081" lon="2.22011">
        <ele>628.13922119</ele>
        <time>2022-07-10T07:23:23Z</time>
      </trkpt>
      <trkpt lat="43.39084" lon="2.22013">
        <ele>628.11920166</ele>
        <time>2022-07-10T07:23:24Z</time>
      </trkpt>
      <trkpt lat="43.39086" lon="2.22016">
        <ele>628.15917969</ele>
        <time>2022-07-10T07:23:25Z</time>
      </trkpt>
      <trkpt lat="43.39088" lon="2.22019">
        <ele>628.23919678</ele>
        <time>2022-07-10T07:23:26Z</time>
      </trkpt>
      <trkpt lat="43.39092" lon="2.22022">
        <ele>628.23919678</ele>
        <time>2022-07-10T07:23:27Z</time>
      </trkpt>
      <trkpt lat="43.39096" lon="2.22027">
        <ele>628.3092041</ele>
        <time>2022-07-10T07:23:28Z</time>
      </trkpt>
      <trkpt lat="43.39097" lon="2.2203">
        <ele>628.3392334</ele>
        <time>2022-07-10T07:23:29Z</time>
      </trkpt>
      <trkpt lat="43.39099" lon="2.22033">
        <ele>628.3692627</ele>
        <time>2022-07-10T07:23:30Z</time>
      </trkpt>
      <trkpt lat="43.39101" lon="2.22037">
        <ele>628.43927002</ele>
        <time>2022-07-10T07:23:31Z</time>
      </trkpt>
      <trkpt lat="43.39103" lon="2.2204">
        <ele>628.51928711</ele>
        <time>2022-07-10T07:23:32Z</time>
      </trkpt>
      <trkpt lat="43.39105" lon="2.22043">
        <ele>628.62927246</ele>
        <time>2022-07-10T07:23:33Z</time>
      </trkpt>
      <trkpt lat="43.39107" lon="2.22047">
        <ele>628.71929932</ele>
        <time>2022-07-10T07:23:34Z</time>
      </trkpt>
      <trkpt lat="43.39109" lon="2.2205">
        <ele>628.76928711</ele>
        <time>2022-07-10T07:23:35Z</time>
      </trkpt>
      <trkpt lat="43.39111" lon="2.22052">
        <ele>628.79931641</ele>
        <time>2022-07-10T07:23:36Z</time>
      </trkpt>
      <trkpt lat="43.39114" lon="2.22057">
        <ele>628.80932617</ele>
        <time>2022-07-10T07:23:37Z</time>
      </trkpt>
      <trkpt lat="43.39117" lon="2.22061">
        <ele>628.8293457</ele>
        <time>2022-07-10T07:23:38Z</time>
      </trkpt>
      <trkpt lat="43.3912" lon="2.22064">
        <ele>628.86932373</ele>
        <time>2022-07-10T07:23:39Z</time>
      </trkpt>
      <trkpt lat="43.39123" lon="2.22069">
        <ele>628.91931152</ele>
        <time>2022-07-10T07:23:40Z</time>
      </trkpt>
      <trkpt lat="43.39127" lon="2.22075">
        <ele>628.98931885</ele>
        <time>2022-07-10T07:23:41Z</time>
      </trkpt>
      <trkpt lat="43.39131" lon="2.22078">
        <ele>629.00933838</ele>
        <time>2022-07-10T07:23:42Z</time>
      </trkpt>
      <trkpt lat="43.39133" lon="2.22081">
        <ele>629.1293335</ele>
        <time>2022-07-10T07:23:43Z</time>
      </trkpt>
      <trkpt lat="43.39136" lon="2.22085">
        <ele>629.19934082</ele>
        <time>2022-07-10T07:23:44Z</time>
      </trkpt>
      <trkpt lat="43.39138" lon="2.22087">
        <ele>629.21936035</ele>
        <time>2022-07-10T07:23:45Z</time>
      </trkpt>
      <trkpt lat="43.39142" lon="2.2209">
        <ele>629.30938721</ele>
        <time>2022-07-10T07:23:46Z</time>
      </trkpt>
      <trkpt lat="43.39145" lon="2.22092">
        <ele>629.36938477</ele>
        <time>2022-07-10T07:23:47Z</time>
      </trkpt>
      <trkpt lat="43.39148" lon="2.22095">
        <ele>629.44940186</ele>
        <time>2022-07-10T07:23:48Z</time>
      </trkpt>
      <trkpt lat="43.39151" lon="2.22097">
        <ele>629.62939453</ele>
        <time>2022-07-10T07:23:49Z</time>
      </trkpt>
      <trkpt lat="43.39154" lon="2.22099">
        <ele>629.78936768</ele>
        <time>2022-07-10T07:23:50Z</time>
      </trkpt>
      <trkpt lat="43.39158" lon="2.22103">
        <ele>629.96936035</ele>
        <time>2022-07-10T07:23:51Z</time>
      </trkpt>
      <trkpt lat="43.39161" lon="2.22105">
        <ele>630.1293335</ele>
        <time>2022-07-10T07:23:52Z</time>
      </trkpt>
      <trkpt lat="43.39163" lon="2.22107">
        <ele>630.28930664</ele>
        <time>2022-07-10T07:23:53Z</time>
      </trkpt>
      <trkpt lat="43.39166" lon="2.22109">
        <ele>630.48931885</ele>
        <time>2022-07-10T07:23:54Z</time>
      </trkpt>
      <trkpt lat="43.3917" lon="2.22112">
        <ele>630.6293335</ele>
        <time>2022-07-10T07:23:55Z</time>
      </trkpt>
      <trkpt lat="43.39172" lon="2.22114">
        <ele>630.83935547</ele>
        <time>2022-07-10T07:23:56Z</time>
      </trkpt>
      <trkpt lat="43.39175" lon="2.22115">
        <ele>630.97937012</ele>
        <time>2022-07-10T07:23:57Z</time>
      </trkpt>
      <trkpt lat="43.39177" lon="2.22117">
        <ele>631.05938721</ele>
        <time>2022-07-10T07:23:58Z</time>
      </trkpt>
      <trkpt lat="43.39179" lon="2.22119">
        <ele>631.109375</ele>
        <time>2022-07-10T07:23:59Z</time>
      </trkpt>
      <trkpt lat="43.39185" lon="2.22122">
        <ele>631.1394043</ele>
        <time>2022-07-10T07:24:00Z</time>
      </trkpt>
      <trkpt lat="43.39188" lon="2.22123">
        <ele>631.32940674</ele>
        <time>2022-07-10T07:24:01Z</time>
      </trkpt>
      <trkpt lat="43.3919" lon="2.22123">
        <ele>631.41943359</ele>
        <time>2022-07-10T07:24:02Z</time>
      </trkpt>
      <trkpt lat="43.39192" lon="2.22124">
        <ele>631.56945801</ele>
        <time>2022-07-10T07:24:03Z</time>
      </trkpt>
      <trkpt lat="43.39197" lon="2.22127">
        <ele>631.74945068</ele>
        <time>2022-07-10T07:24:04Z</time>
      </trkpt>
      <trkpt lat="43.392" lon="2.22128">
        <ele>631.85943604</ele>
        <time>2022-07-10T07:24:05Z</time>
      </trkpt>
      <trkpt lat="43.39203" lon="2.22129">
        <ele>632.10943604</ele>
        <time>2022-07-10T07:24:06Z</time>
      </trkpt>
      <trkpt lat="43.39206" lon="2.22131">
        <ele>632.26940918</ele>
        <time>2022-07-10T07:24:07Z</time>
      </trkpt>
      <trkpt lat="43.39209" lon="2.22132">
        <ele>632.43939209</ele>
        <time>2022-07-10T07:24:08Z</time>
      </trkpt>
      <trkpt lat="43.39214" lon="2.22134">
        <ele>633.8394165</ele>
        <time>2022-07-10T07:24:09Z</time>
      </trkpt>
      <trkpt lat="43.39216" lon="2.22135">
        <ele>633.8894043</ele>
        <time>2022-07-10T07:24:10Z</time>
      </trkpt>
      <trkpt lat="43.39219" lon="2.22137">
        <ele>634.01940918</ele>
        <time>2022-07-10T07:24:11Z</time>
      </trkpt>
      <trkpt lat="43.39222" lon="2.22138">
        <ele>634.10943604</ele>
        <time>2022-07-10T07:24:12Z</time>
      </trkpt>
      <trkpt lat="43.39226" lon="2.2214">
        <ele>634.25946045</ele>
        <time>2022-07-10T07:24:13Z</time>
      </trkpt>
      <trkpt lat="43.39229" lon="2.22142">
        <ele>634.37945557</ele>
        <time>2022-07-10T07:24:14Z</time>
      </trkpt>
      <trkpt lat="43.39232" lon="2.22143">
        <ele>634.53942871</ele>
        <time>2022-07-10T07:24:15Z</time>
      </trkpt>
      <trkpt lat="43.39235" lon="2.22146">
        <ele>634.67944336</ele>
        <time>2022-07-10T07:24:16Z</time>
      </trkpt>
      <trkpt lat="43.39238" lon="2.2215">
        <ele>634.77941895</ele>
        <time>2022-07-10T07:24:17Z</time>
      </trkpt>
      <trkpt lat="43.3924" lon="2.22152">
        <ele>634.8894043</ele>
        <time>2022-07-10T07:24:18Z</time>
      </trkpt>
      <trkpt lat="43.39242" lon="2.22155">
        <ele>634.94940186</ele>
        <time>2022-07-10T07:24:19Z</time>
      </trkpt>
      <trkpt lat="43.39245" lon="2.22158">
        <ele>634.99938965</ele>
        <time>2022-07-10T07:24:20Z</time>
      </trkpt>
      <trkpt lat="43.39248" lon="2.2216">
        <ele>635.07940674</ele>
        <time>2022-07-10T07:24:21Z</time>
      </trkpt>
      <trkpt lat="43.39252" lon="2.22162">
        <ele>635.18939209</ele>
        <time>2022-07-10T07:24:22Z</time>
      </trkpt>
      <trkpt lat="43.39255" lon="2.22163">
        <ele>635.23937988</ele>
        <time>2022-07-10T07:24:23Z</time>
      </trkpt>
      <trkpt lat="43.39257" lon="2.22164">
        <ele>635.31939697</ele>
        <time>2022-07-10T07:24:24Z</time>
      </trkpt>
      <trkpt lat="43.3926" lon="2.22165">
        <ele>635.3394165</ele>
        <time>2022-07-10T07:24:25Z</time>
      </trkpt>
      <trkpt lat="43.39263" lon="2.22166">
        <ele>635.34942627</ele>
        <time>2022-07-10T07:24:26Z</time>
      </trkpt>
      <trkpt lat="43.39267" lon="2.22167">
        <ele>635.41943359</ele>
        <time>2022-07-10T07:24:27Z</time>
      </trkpt>
      <trkpt lat="43.3927" lon="2.22169">
        <ele>635.41943359</ele>
        <time>2022-07-10T07:24:28Z</time>
      </trkpt>
      <trkpt lat="43.39273" lon="2.22169">
        <ele>635.54943848</ele>
        <time>2022-07-10T07:24:29Z</time>
      </trkpt>
      <trkpt lat="43.39276" lon="2.2217">
        <ele>635.68945312</ele>
        <time>2022-07-10T07:24:30Z</time>
      </trkpt>
      <trkpt lat="43.3928" lon="2.22172">
        <ele>635.77947998</ele>
        <time>2022-07-10T07:24:31Z</time>
      </trkpt>
      <trkpt lat="43.39283" lon="2.22174">
        <ele>635.92950439</ele>
        <time>2022-07-10T07:24:32Z</time>
      </trkpt>
      <trkpt lat="43.39286" lon="2.22176">
        <ele>635.99951172</ele>
        <time>2022-07-10T07:24:33Z</time>
      </trkpt>
      <trkpt lat="43.39288" lon="2.22177">
        <ele>636.13952637</ele>
        <time>2022-07-10T07:24:34Z</time>
      </trkpt>
      <trkpt lat="43.39291" lon="2.22178">
        <ele>636.24951172</ele>
        <time>2022-07-10T07:24:35Z</time>
      </trkpt>
      <trkpt lat="43.39294" lon="2.22181">
        <ele>636.42950439</ele>
        <time>2022-07-10T07:24:36Z</time>
      </trkpt>
      <trkpt lat="43.39295" lon="2.22182">
        <ele>636.61950684</ele>
        <time>2022-07-10T07:24:37Z</time>
      </trkpt>
      <trkpt lat="43.39298" lon="2.22184">
        <ele>636.73950195</ele>
        <time>2022-07-10T07:24:38Z</time>
      </trkpt>
      <trkpt lat="43.39301" lon="2.22186">
        <ele>636.92950439</ele>
        <time>2022-07-10T07:24:39Z</time>
      </trkpt>
      <trkpt lat="43.39305" lon="2.22187">
        <ele>636.97949219</ele>
        <time>2022-07-10T07:24:40Z</time>
      </trkpt>
      <trkpt lat="43.39307" lon="2.22189">
        <ele>636.97949219</ele>
        <time>2022-07-10T07:24:41Z</time>
      </trkpt>
      <trkpt lat="43.39309" lon="2.2219">
        <ele>636.8994751</ele>
        <time>2022-07-10T07:24:42Z</time>
      </trkpt>
      <trkpt lat="43.39311" lon="2.22192">
        <ele>636.77947998</ele>
        <time>2022-07-10T07:24:43Z</time>
      </trkpt>
      <trkpt lat="43.39313" lon="2.22193">
        <ele>636.72949219</ele>
        <time>2022-07-10T07:24:44Z</time>
      </trkpt>
      <trkpt lat="43.39315" lon="2.22195">
        <ele>636.67950439</ele>
        <time>2022-07-10T07:24:45Z</time>
      </trkpt>
      <trkpt lat="43.39317" lon="2.22197">
        <ele>636.58947754</ele>
        <time>2022-07-10T07:24:46Z</time>
      </trkpt>
      <trkpt lat="43.39319" lon="2.22199">
        <ele>636.5994873</ele>
        <time>2022-07-10T07:24:47Z</time>
      </trkpt>
      <trkpt lat="43.3932" lon="2.222">
        <ele>636.51947021</ele>
        <time>2022-07-10T07:24:48Z</time>
      </trkpt>
      <trkpt lat="43.39323" lon="2.22202">
        <ele>636.46948242</ele>
        <time>2022-07-10T07:24:49Z</time>
      </trkpt>
      <trkpt lat="43.39325" lon="2.22203">
        <ele>636.5994873</ele>
        <time>2022-07-10T07:24:50Z</time>
      </trkpt>
      <trkpt lat="43.39327" lon="2.22205">
        <ele>636.60949707</ele>
        <time>2022-07-10T07:24:51Z</time>
      </trkpt>
      <trkpt lat="43.39329" lon="2.22206">
        <ele>636.73950195</ele>
        <time>2022-07-10T07:24:52Z</time>
      </trkpt>
      <trkpt lat="43.39332" lon="2.22206">
        <ele>636.95947266</ele>
        <time>2022-07-10T07:24:53Z</time>
      </trkpt>
      <trkpt lat="43.39338" lon="2.22208">
        <ele>637.1494751</ele>
        <time>2022-07-10T07:24:54Z</time>
      </trkpt>
      <trkpt lat="43.39341" lon="2.22211">
        <ele>637.30944824</ele>
        <time>2022-07-10T07:24:55Z</time>
      </trkpt>
      <trkpt lat="43.39344" lon="2.22212">
        <ele>637.51947021</ele>
        <time>2022-07-10T07:24:56Z</time>
      </trkpt>
      <trkpt lat="43.39347" lon="2.22214">
        <ele>637.67944336</ele>
        <time>2022-07-10T07:24:57Z</time>
      </trkpt>
      <trkpt lat="43.39351" lon="2.22216">
        <ele>637.84942627</ele>
        <time>2022-07-10T07:24:58Z</time>
      </trkpt>
      <trkpt lat="43.39354" lon="2.22217">
        <ele>638.09942627</ele>
        <time>2022-07-10T07:24:59Z</time>
      </trkpt>
      <trkpt lat="43.39357" lon="2.22218">
        <ele>638.27941895</ele>
        <time>2022-07-10T07:25:00Z</time>
      </trkpt>
      <trkpt lat="43.39359" lon="2.22218">
        <ele>638.3894043</ele>
        <time>2022-07-10T07:25:01Z</time>
      </trkpt>
      <trkpt lat="43.39362" lon="2.22217">
        <ele>638.48937988</ele>
        <time>2022-07-10T07:25:02Z</time>
      </trkpt>
      <trkpt lat="43.39365" lon="2.22216">
        <ele>638.53936768</ele>
        <time>2022-07-10T07:25:03Z</time>
      </trkpt>
      <trkpt lat="43.39367" lon="2.22216">
        <ele>638.68939209</ele>
        <time>2022-07-10T07:25:04Z</time>
      </trkpt>
      <trkpt lat="43.39369" lon="2.22217">
        <ele>638.859375</ele>
        <time>2022-07-10T07:25:05Z</time>
      </trkpt>
      <trkpt lat="43.3937" lon="2.22218">
        <ele>638.92938232</ele>
        <time>2022-07-10T07:25:06Z</time>
      </trkpt>
      <trkpt lat="43.39373" lon="2.2222">
        <ele>638.93939209</ele>
        <time>2022-07-10T07:25:07Z</time>
      </trkpt>
      <trkpt lat="43.39374" lon="2.22223">
        <ele>638.74938965</ele>
        <time>2022-07-10T07:25:08Z</time>
      </trkpt>
      <trkpt lat="43.39376" lon="2.22224">
        <ele>638.49938965</ele>
        <time>2022-07-10T07:25:09Z</time>
      </trkpt>
      <trkpt lat="43.39378" lon="2.22226">
        <ele>638.32940674</ele>
        <time>2022-07-10T07:25:10Z</time>
      </trkpt>
      <trkpt lat="43.39379" lon="2.22228">
        <ele>638.17938232</ele>
        <time>2022-07-10T07:25:11Z</time>
      </trkpt>
      <trkpt lat="43.39378" lon="2.22231">
        <ele>638.11938477</ele>
        <time>2022-07-10T07:25:12Z</time>
      </trkpt>
      <trkpt lat="43.39378" lon="2.22234">
        <ele>638.07940674</ele>
        <time>2022-07-10T07:25:13Z</time>
      </trkpt>
      <trkpt lat="43.39378" lon="2.22235">
        <ele>638.0894165</ele>
        <time>2022-07-10T07:25:14Z</time>
      </trkpt>
      <trkpt lat="43.39378" lon="2.22237">
        <ele>638.18939209</ele>
        <time>2022-07-10T07:25:15Z</time>
      </trkpt>
      <trkpt lat="43.39379" lon="2.22239">
        <ele>638.25939941</ele>
        <time>2022-07-10T07:25:16Z</time>
      </trkpt>
      <trkpt lat="43.39381" lon="2.22242">
        <ele>638.36938477</ele>
        <time>2022-07-10T07:25:17Z</time>
      </trkpt>
      <trkpt lat="43.39382" lon="2.22244">
        <ele>638.37939453</ele>
        <time>2022-07-10T07:25:18Z</time>
      </trkpt>
      <trkpt lat="43.39383" lon="2.22247">
        <ele>638.37939453</ele>
        <time>2022-07-10T07:25:19Z</time>
      </trkpt>
      <trkpt lat="43.39384" lon="2.2225">
        <ele>638.40942383</ele>
        <time>2022-07-10T07:25:20Z</time>
      </trkpt>
      <trkpt lat="43.39385" lon="2.22256">
        <ele>638.49945068</ele>
        <time>2022-07-10T07:25:21Z</time>
      </trkpt>
      <trkpt lat="43.39386" lon="2.22259">
        <ele>638.55944824</ele>
        <time>2022-07-10T07:25:22Z</time>
      </trkpt>
      <trkpt lat="43.39385" lon="2.22261">
        <ele>638.6194458</ele>
        <time>2022-07-10T07:25:23Z</time>
      </trkpt>
      <trkpt lat="43.39385" lon="2.22265">
        <ele>638.63946533</ele>
        <time>2022-07-10T07:25:24Z</time>
      </trkpt>
      <trkpt lat="43.39385" lon="2.2227">
        <ele>638.57946777</ele>
        <time>2022-07-10T07:25:25Z</time>
      </trkpt>
      <trkpt lat="43.39385" lon="2.22272">
        <ele>638.52947998</ele>
        <time>2022-07-10T07:25:26Z</time>
      </trkpt>
      <trkpt lat="43.39384" lon="2.22275">
        <ele>638.51947021</ele>
        <time>2022-07-10T07:25:27Z</time>
      </trkpt>
      <trkpt lat="43.39385" lon="2.22277">
        <ele>638.53948975</ele>
        <time>2022-07-10T07:25:28Z</time>
      </trkpt>
      <trkpt lat="43.39386" lon="2.2228">
        <ele>638.5994873</ele>
        <time>2022-07-10T07:25:29Z</time>
      </trkpt>
      <trkpt lat="43.39387" lon="2.22285">
        <ele>638.56945801</ele>
        <time>2022-07-10T07:25:30Z</time>
      </trkpt>
      <trkpt lat="43.39388" lon="2.22287">
        <ele>638.5994873</ele>
        <time>2022-07-10T07:25:31Z</time>
      </trkpt>
      <trkpt lat="43.39388" lon="2.22289">
        <ele>638.6295166</ele>
        <time>2022-07-10T07:25:32Z</time>
      </trkpt>
      <trkpt lat="43.39388" lon="2.22291">
        <ele>638.70953369</ele>
        <time>2022-07-10T07:25:33Z</time>
      </trkpt>
      <trkpt lat="43.39388" lon="2.22294">
        <ele>638.96954346</ele>
        <time>2022-07-10T07:25:34Z</time>
      </trkpt>
      <trkpt lat="43.3939" lon="2.22296">
        <ele>639.14953613</ele>
        <time>2022-07-10T07:25:35Z</time>
      </trkpt>
      <trkpt lat="43.39391" lon="2.22298">
        <ele>639.34954834</ele>
        <time>2022-07-10T07:25:36Z</time>
      </trkpt>
      <trkpt lat="43.39392" lon="2.22302">
        <ele>639.46954346</ele>
        <time>2022-07-10T07:25:37Z</time>
      </trkpt>
      <trkpt lat="43.39392" lon="2.22304">
        <ele>639.46954346</ele>
        <time>2022-07-10T07:25:38Z</time>
      </trkpt>
      <trkpt lat="43.39394" lon="2.22309">
        <ele>639.39953613</ele>
        <time>2022-07-10T07:25:39Z</time>
      </trkpt>
      <trkpt lat="43.39393" lon="2.22311">
        <ele>639.39953613</ele>
        <time>2022-07-10T07:25:40Z</time>
      </trkpt>
      <trkpt lat="43.39394" lon="2.22314">
        <ele>639.31951904</ele>
        <time>2022-07-10T07:25:41Z</time>
      </trkpt>
      <trkpt lat="43.39394" lon="2.22317">
        <ele>639.28948975</ele>
        <time>2022-07-10T07:25:42Z</time>
      </trkpt>
      <trkpt lat="43.39396" lon="2.22321">
        <ele>639.3494873</ele>
        <time>2022-07-10T07:25:43Z</time>
      </trkpt>
      <trkpt lat="43.39396" lon="2.22324">
        <ele>639.43951416</ele>
        <time>2022-07-10T07:25:44Z</time>
      </trkpt>
      <trkpt lat="43.39397" lon="2.22328">
        <ele>639.53948975</ele>
        <time>2022-07-10T07:25:45Z</time>
      </trkpt>
      <trkpt lat="43.39398" lon="2.22332">
        <ele>639.66949463</ele>
        <time>2022-07-10T07:25:46Z</time>
      </trkpt>
      <trkpt lat="43.39398" lon="2.22338">
        <ele>639.68951416</ele>
        <time>2022-07-10T07:25:47Z</time>
      </trkpt>
      <trkpt lat="43.39398" lon="2.22341">
        <ele>639.66949463</ele>
        <time>2022-07-10T07:25:48Z</time>
      </trkpt>
      <trkpt lat="43.39397" lon="2.22345">
        <ele>639.78948975</ele>
        <time>2022-07-10T07:25:49Z</time>
      </trkpt>
      <trkpt lat="43.39397" lon="2.22347">
        <ele>639.8494873</ele>
        <time>2022-07-10T07:25:50Z</time>
      </trkpt>
      <trkpt lat="43.39396" lon="2.22351">
        <ele>639.98950195</ele>
        <time>2022-07-10T07:25:51Z</time>
      </trkpt>
      <trkpt lat="43.39396" lon="2.22354">
        <ele>639.97949219</ele>
        <time>2022-07-10T07:25:52Z</time>
      </trkpt>
      <trkpt lat="43.39396" lon="2.22359">
        <ele>640.01947021</ele>
        <time>2022-07-10T07:25:53Z</time>
      </trkpt>
      <trkpt lat="43.39395" lon="2.22362">
        <ele>639.97949219</ele>
        <time>2022-07-10T07:25:54Z</time>
      </trkpt>
      <trkpt lat="43.39395" lon="2.22365">
        <ele>640.22949219</ele>
        <time>2022-07-10T07:25:55Z</time>
      </trkpt>
      <trkpt lat="43.39394" lon="2.22368">
        <ele>640.52947998</ele>
        <time>2022-07-10T07:25:56Z</time>
      </trkpt>
      <trkpt lat="43.39394" lon="2.22372">
        <ele>640.76947021</ele>
        <time>2022-07-10T07:25:57Z</time>
      </trkpt>
      <trkpt lat="43.39395" lon="2.22376">
        <ele>641.26947021</ele>
        <time>2022-07-10T07:25:58Z</time>
      </trkpt>
      <trkpt lat="43.39394" lon="2.22379">
        <ele>641.51947021</ele>
        <time>2022-07-10T07:25:59Z</time>
      </trkpt>
      <trkpt lat="43.39393" lon="2.22382">
        <ele>641.8494873</ele>
        <time>2022-07-10T07:26:00Z</time>
      </trkpt>
      <trkpt lat="43.39394" lon="2.22386">
        <ele>642.06945801</ele>
        <time>2022-07-10T07:26:01Z</time>
      </trkpt>
      <trkpt lat="43.39395" lon="2.2239">
        <ele>642.01947021</ele>
        <time>2022-07-10T07:26:02Z</time>
      </trkpt>
      <trkpt lat="43.39397" lon="2.22394">
        <ele>641.8994751</ele>
        <time>2022-07-10T07:26:03Z</time>
      </trkpt>
      <trkpt lat="43.39398" lon="2.22396">
        <ele>641.68945312</ele>
        <time>2022-07-10T07:26:04Z</time>
      </trkpt>
      <trkpt lat="43.39399" lon="2.22399">
        <ele>641.47943115</ele>
        <time>2022-07-10T07:26:05Z</time>
      </trkpt>
      <trkpt lat="43.39401" lon="2.22404">
        <ele>641.47943115</ele>
        <time>2022-07-10T07:26:06Z</time>
      </trkpt>
      <trkpt lat="43.39404" lon="2.22408">
        <ele>641.46942139</ele>
        <time>2022-07-10T07:26:07Z</time>
      </trkpt>
      <trkpt lat="43.39406" lon="2.2241">
        <ele>641.53942871</ele>
        <time>2022-07-10T07:26:08Z</time>
      </trkpt>
      <trkpt lat="43.39408" lon="2.22413">
        <ele>643.16943359</ele>
        <time>2022-07-10T07:26:09Z</time>
      </trkpt>
      <trkpt lat="43.3941" lon="2.22418">
        <ele>643.20941162</ele>
        <time>2022-07-10T07:26:10Z</time>
      </trkpt>
      <trkpt lat="43.39412" lon="2.22421">
        <ele>643.32940674</ele>
        <time>2022-07-10T07:26:11Z</time>
      </trkpt>
      <trkpt lat="43.39415" lon="2.22423">
        <ele>643.41943359</ele>
        <time>2022-07-10T07:26:12Z</time>
      </trkpt>
      <trkpt lat="43.39417" lon="2.22424">
        <ele>643.53942871</ele>
        <time>2022-07-10T07:26:13Z</time>
      </trkpt>
      <trkpt lat="43.3942" lon="2.22425">
        <ele>643.72943115</ele>
        <time>2022-07-10T07:26:14Z</time>
      </trkpt>
      <trkpt lat="43.39421" lon="2.22428">
        <ele>643.87945557</ele>
        <time>2022-07-10T07:26:15Z</time>
      </trkpt>
      <trkpt lat="43.39423" lon="2.22429">
        <ele>644.10943604</ele>
        <time>2022-07-10T07:26:16Z</time>
      </trkpt>
      <trkpt lat="43.39424" lon="2.2243">
        <ele>644.31945801</ele>
        <time>2022-07-10T07:26:17Z</time>
      </trkpt>
      <trkpt lat="43.39426" lon="2.22431">
        <ele>644.55944824</ele>
        <time>2022-07-10T07:26:18Z</time>
      </trkpt>
      <trkpt lat="43.39428" lon="2.22432">
        <ele>644.76947021</ele>
        <time>2022-07-10T07:26:19Z</time>
      </trkpt>
      <trkpt lat="43.3943" lon="2.22432">
        <ele>644.81945801</ele>
        <time>2022-07-10T07:26:20Z</time>
      </trkpt>
      <trkpt lat="43.39434" lon="2.22433">
        <ele>644.94946289</ele>
        <time>2022-07-10T07:26:21Z</time>
      </trkpt>
      <trkpt lat="43.39436" lon="2.22434">
        <ele>644.95947266</ele>
        <time>2022-07-10T07:26:22Z</time>
      </trkpt>
      <trkpt lat="43.39439" lon="2.22435">
        <ele>644.95947266</ele>
        <time>2022-07-10T07:26:23Z</time>
      </trkpt>
      <trkpt lat="43.39444" lon="2.22437">
        <ele>645.03948975</ele>
        <time>2022-07-10T07:26:24Z</time>
      </trkpt>
      <trkpt lat="43.39446" lon="2.22439">
        <ele>645.03948975</ele>
        <time>2022-07-10T07:26:25Z</time>
      </trkpt>
      <trkpt lat="43.39449" lon="2.2244">
        <ele>645.06951904</ele>
        <time>2022-07-10T07:26:26Z</time>
      </trkpt>
      <trkpt lat="43.39451" lon="2.22441">
        <ele>645.10949707</ele>
        <time>2022-07-10T07:26:27Z</time>
      </trkpt>
      <trkpt lat="43.39455" lon="2.22443">
        <ele>645.22949219</ele>
        <time>2022-07-10T07:26:28Z</time>
      </trkpt>
      <trkpt lat="43.39456" lon="2.22444">
        <ele>645.36950684</ele>
        <time>2022-07-10T07:26:29Z</time>
      </trkpt>
      <trkpt lat="43.39459" lon="2.22444">
        <ele>645.49951172</ele>
        <time>2022-07-10T07:26:30Z</time>
      </trkpt>
      <trkpt lat="43.39461" lon="2.22445">
        <ele>645.65948486</ele>
        <time>2022-07-10T07:26:31Z</time>
      </trkpt>
      <trkpt lat="43.39464" lon="2.22446">
        <ele>645.77947998</ele>
        <time>2022-07-10T07:26:32Z</time>
      </trkpt>
      <trkpt lat="43.39468" lon="2.22448">
        <ele>645.87945557</ele>
        <time>2022-07-10T07:26:33Z</time>
      </trkpt>
      <trkpt lat="43.39471" lon="2.2245">
        <ele>645.99945068</ele>
        <time>2022-07-10T07:26:34Z</time>
      </trkpt>
      <trkpt lat="43.39473" lon="2.22451">
        <ele>646.13946533</ele>
        <time>2022-07-10T07:26:35Z</time>
      </trkpt>
      <trkpt lat="43.39476" lon="2.22451">
        <ele>646.22949219</ele>
        <time>2022-07-10T07:26:36Z</time>
      </trkpt>
      <trkpt lat="43.3948" lon="2.22453">
        <ele>646.30950928</ele>
        <time>2022-07-10T07:26:37Z</time>
      </trkpt>
      <trkpt lat="43.39483" lon="2.22453">
        <ele>646.36950684</ele>
        <time>2022-07-10T07:26:38Z</time>
      </trkpt>
      <trkpt lat="43.39486" lon="2.22455">
        <ele>646.40948486</ele>
        <time>2022-07-10T07:26:39Z</time>
      </trkpt>
      <trkpt lat="43.39489" lon="2.22457">
        <ele>646.46948242</ele>
        <time>2022-07-10T07:26:40Z</time>
      </trkpt>
      <trkpt lat="43.39491" lon="2.2246">
        <ele>646.60949707</ele>
        <time>2022-07-10T07:26:41Z</time>
      </trkpt>
      <trkpt lat="43.39495" lon="2.22462">
        <ele>646.8494873</ele>
        <time>2022-07-10T07:26:42Z</time>
      </trkpt>
      <trkpt lat="43.39497" lon="2.22464">
        <ele>647.04949951</ele>
        <time>2022-07-10T07:26:43Z</time>
      </trkpt>
      <trkpt lat="43.39499" lon="2.22466">
        <ele>647.28948975</ele>
        <time>2022-07-10T07:26:44Z</time>
      </trkpt>
      <trkpt lat="43.395" lon="2.22467">
        <ele>647.45947266</ele>
        <time>2022-07-10T07:26:45Z</time>
      </trkpt>
      <trkpt lat="43.39503" lon="2.22468">
        <ele>647.50946045</ele>
        <time>2022-07-10T07:26:46Z</time>
      </trkpt>
      <trkpt lat="43.39505" lon="2.2247">
        <ele>647.6194458</ele>
        <time>2022-07-10T07:26:47Z</time>
      </trkpt>
      <trkpt lat="43.39507" lon="2.22473">
        <ele>647.72943115</ele>
        <time>2022-07-10T07:26:48Z</time>
      </trkpt>
      <trkpt lat="43.39508" lon="2.22476">
        <ele>647.90942383</ele>
        <time>2022-07-10T07:26:49Z</time>
      </trkpt>
      <trkpt lat="43.39508" lon="2.22478">
        <ele>648.17944336</ele>
        <time>2022-07-10T07:26:50Z</time>
      </trkpt>
      <trkpt lat="43.39511" lon="2.22481">
        <ele>648.3694458</ele>
        <time>2022-07-10T07:26:51Z</time>
      </trkpt>
      <trkpt lat="43.39512" lon="2.22484">
        <ele>648.48944092</ele>
        <time>2022-07-10T07:26:52Z</time>
      </trkpt>
      <trkpt lat="43.39513" lon="2.22486">
        <ele>648.57946777</ele>
        <time>2022-07-10T07:26:53Z</time>
      </trkpt>
      <trkpt lat="43.39515" lon="2.22488">
        <ele>648.60949707</ele>
        <time>2022-07-10T07:26:54Z</time>
      </trkpt>
      <trkpt lat="43.39517" lon="2.22492">
        <ele>648.67950439</ele>
        <time>2022-07-10T07:26:55Z</time>
      </trkpt>
      <trkpt lat="43.39519" lon="2.22494">
        <ele>648.8494873</ele>
        <time>2022-07-10T07:26:56Z</time>
      </trkpt>
      <trkpt lat="43.39521" lon="2.22497">
        <ele>649.03948975</ele>
        <time>2022-07-10T07:26:57Z</time>
      </trkpt>
      <trkpt lat="43.39523" lon="2.22499">
        <ele>649.25946045</ele>
        <time>2022-07-10T07:26:58Z</time>
      </trkpt>
      <trkpt lat="43.39525" lon="2.22502">
        <ele>649.48944092</ele>
        <time>2022-07-10T07:26:59Z</time>
      </trkpt>
      <trkpt lat="43.39528" lon="2.22505">
        <ele>649.72943115</ele>
        <time>2022-07-10T07:27:00Z</time>
      </trkpt>
      <trkpt lat="43.3953" lon="2.22507">
        <ele>649.96942139</ele>
        <time>2022-07-10T07:27:01Z</time>
      </trkpt>
      <trkpt lat="43.39532" lon="2.22508">
        <ele>650.09942627</ele>
        <time>2022-07-10T07:27:02Z</time>
      </trkpt>
      <trkpt lat="43.39534" lon="2.2251">
        <ele>650.45941162</ele>
        <time>2022-07-10T07:27:03Z</time>
      </trkpt>
      <trkpt lat="43.39536" lon="2.22513">
        <ele>650.75939941</ele>
        <time>2022-07-10T07:27:04Z</time>
      </trkpt>
      <trkpt lat="43.39539" lon="2.22516">
        <ele>651.04937744</ele>
        <time>2022-07-10T07:27:05Z</time>
      </trkpt>
      <trkpt lat="43.39541" lon="2.22519">
        <ele>651.41937256</ele>
        <time>2022-07-10T07:27:06Z</time>
      </trkpt>
      <trkpt lat="43.39543" lon="2.22522">
        <ele>651.53936768</ele>
        <time>2022-07-10T07:27:07Z</time>
      </trkpt>
      <trkpt lat="43.39544" lon="2.22526">
        <ele>651.66937256</ele>
        <time>2022-07-10T07:27:08Z</time>
      </trkpt>
      <trkpt lat="43.39545" lon="2.22529">
        <ele>651.69940186</ele>
        <time>2022-07-10T07:27:09Z</time>
      </trkpt>
      <trkpt lat="43.39546" lon="2.22532">
        <ele>651.74938965</ele>
        <time>2022-07-10T07:27:10Z</time>
      </trkpt>
      <trkpt lat="43.39547" lon="2.22536">
        <ele>651.78936768</ele>
        <time>2022-07-10T07:27:11Z</time>
      </trkpt>
      <trkpt lat="43.39548" lon="2.2254">
        <ele>651.78936768</ele>
        <time>2022-07-10T07:27:12Z</time>
      </trkpt>
      <trkpt lat="43.3955" lon="2.22544">
        <ele>651.79937744</ele>
        <time>2022-07-10T07:27:13Z</time>
      </trkpt>
      <trkpt lat="43.39553" lon="2.22548">
        <ele>651.70935059</ele>
        <time>2022-07-10T07:27:14Z</time>
      </trkpt>
      <trkpt lat="43.39555" lon="2.22551">
        <ele>651.65936279</ele>
        <time>2022-07-10T07:27:15Z</time>
      </trkpt>
      <trkpt lat="43.39556" lon="2.22555">
        <ele>651.6293335</ele>
        <time>2022-07-10T07:27:16Z</time>
      </trkpt>
      <trkpt lat="43.39557" lon="2.22559">
        <ele>651.66931152</ele>
        <time>2022-07-10T07:27:17Z</time>
      </trkpt>
      <trkpt lat="43.3956" lon="2.22564">
        <ele>651.75933838</ele>
        <time>2022-07-10T07:27:18Z</time>
      </trkpt>
      <trkpt lat="43.39561" lon="2.22568">
        <ele>651.84936523</ele>
        <time>2022-07-10T07:27:19Z</time>
      </trkpt>
      <trkpt lat="43.39562" lon="2.22572">
        <ele>651.87939453</ele>
        <time>2022-07-10T07:27:20Z</time>
      </trkpt>
      <trkpt lat="43.39564" lon="2.22575">
        <ele>651.87939453</ele>
        <time>2022-07-10T07:27:21Z</time>
      </trkpt>
      <trkpt lat="43.39565" lon="2.22579">
        <ele>651.91937256</ele>
        <time>2022-07-10T07:27:22Z</time>
      </trkpt>
      <trkpt lat="43.39566" lon="2.22583">
        <ele>651.91937256</ele>
        <time>2022-07-10T07:27:23Z</time>
      </trkpt>
      <trkpt lat="43.39566" lon="2.22586">
        <ele>651.97937012</ele>
        <time>2022-07-10T07:27:24Z</time>
      </trkpt>
      <trkpt lat="43.39567" lon="2.2259">
        <ele>652.02935791</ele>
        <time>2022-07-10T07:27:25Z</time>
      </trkpt>
      <trkpt lat="43.39568" lon="2.22594">
        <ele>652.109375</ele>
        <time>2022-07-10T07:27:26Z</time>
      </trkpt>
      <trkpt lat="43.3957" lon="2.22598">
        <ele>652.19940186</ele>
        <time>2022-07-10T07:27:27Z</time>
      </trkpt>
      <trkpt lat="43.39572" lon="2.22602">
        <ele>652.29937744</ele>
        <time>2022-07-10T07:27:28Z</time>
      </trkpt>
      <trkpt lat="43.39574" lon="2.22605">
        <ele>652.36938477</ele>
        <time>2022-07-10T07:27:29Z</time>
      </trkpt>
      <trkpt lat="43.39575" lon="2.22609">
        <ele>652.36938477</ele>
        <time>2022-07-10T07:27:30Z</time>
      </trkpt>
      <trkpt lat="43.39577" lon="2.22614">
        <ele>652.41937256</ele>
        <time>2022-07-10T07:27:31Z</time>
      </trkpt>
      <trkpt lat="43.39579" lon="2.22618">
        <ele>652.42938232</ele>
        <time>2022-07-10T07:27:32Z</time>
      </trkpt>
      <trkpt lat="43.3958" lon="2.22621">
        <ele>652.48937988</ele>
        <time>2022-07-10T07:27:33Z</time>
      </trkpt>
      <trkpt lat="43.39582" lon="2.22623">
        <ele>652.55938721</ele>
        <time>2022-07-10T07:27:34Z</time>
      </trkpt>
      <trkpt lat="43.39584" lon="2.22626">
        <ele>652.55938721</ele>
        <time>2022-07-10T07:27:35Z</time>
      </trkpt>
      <trkpt lat="43.39587" lon="2.2263">
        <ele>652.65936279</ele>
        <time>2022-07-10T07:27:36Z</time>
      </trkpt>
      <trkpt lat="43.39589" lon="2.22632">
        <ele>652.67938232</ele>
        <time>2022-07-10T07:27:37Z</time>
      </trkpt>
      <trkpt lat="43.3959" lon="2.22635">
        <ele>652.73937988</ele>
        <time>2022-07-10T07:27:38Z</time>
      </trkpt>
      <trkpt lat="43.39592" lon="2.22638">
        <ele>652.80938721</ele>
        <time>2022-07-10T07:27:39Z</time>
      </trkpt>
      <trkpt lat="43.39595" lon="2.22642">
        <ele>652.80938721</ele>
        <time>2022-07-10T07:27:40Z</time>
      </trkpt>
      <trkpt lat="43.39597" lon="2.22644">
        <ele>652.8894043</ele>
        <time>2022-07-10T07:27:41Z</time>
      </trkpt>
      <trkpt lat="43.396" lon="2.22646">
        <ele>652.8894043</ele>
        <time>2022-07-10T07:27:42Z</time>
      </trkpt>
      <trkpt lat="43.39602" lon="2.22648">
        <ele>652.89941406</ele>
        <time>2022-07-10T07:27:43Z</time>
      </trkpt>
      <trkpt lat="43.39604" lon="2.22649">
        <ele>652.97943115</ele>
        <time>2022-07-10T07:27:44Z</time>
      </trkpt>
      <trkpt lat="43.39608" lon="2.22651">
        <ele>653.07940674</ele>
        <time>2022-07-10T07:27:45Z</time>
      </trkpt>
      <trkpt lat="43.3961" lon="2.22652">
        <ele>653.14941406</ele>
        <time>2022-07-10T07:27:46Z</time>
      </trkpt>
      <trkpt lat="43.39612" lon="2.22652">
        <ele>653.24938965</ele>
        <time>2022-07-10T07:27:47Z</time>
      </trkpt>
      <trkpt lat="43.39614" lon="2.22652">
        <ele>653.30938721</ele>
        <time>2022-07-10T07:27:48Z</time>
      </trkpt>
      <trkpt lat="43.39616" lon="2.22651">
        <ele>653.31939697</ele>
        <time>2022-07-10T07:27:49Z</time>
      </trkpt>
      <trkpt lat="43.39618" lon="2.22649">
        <ele>653.42938232</ele>
        <time>2022-07-10T07:27:50Z</time>
      </trkpt>
      <trkpt lat="43.39619" lon="2.22648">
        <ele>653.54937744</ele>
        <time>2022-07-10T07:27:51Z</time>
      </trkpt>
      <trkpt lat="43.3962" lon="2.22645">
        <ele>653.58935547</ele>
        <time>2022-07-10T07:27:52Z</time>
      </trkpt>
      <trkpt lat="43.39621" lon="2.22644">
        <ele>653.64935303</ele>
        <time>2022-07-10T07:27:53Z</time>
      </trkpt>
      <trkpt lat="43.39623" lon="2.2264">
        <ele>653.66937256</ele>
        <time>2022-07-10T07:27:54Z</time>
      </trkpt>
      <trkpt lat="43.39624" lon="2.22639">
        <ele>653.69940186</ele>
        <time>2022-07-10T07:27:55Z</time>
      </trkpt>
      <trkpt lat="43.39624" lon="2.22637">
        <ele>653.77941895</ele>
        <time>2022-07-10T07:27:56Z</time>
      </trkpt>
      <trkpt lat="43.39626" lon="2.22636">
        <ele>653.80944824</ele>
        <time>2022-07-10T07:27:57Z</time>
      </trkpt>
      <trkpt lat="43.39628" lon="2.22634">
        <ele>654.00946045</ele>
        <time>2022-07-10T07:27:58Z</time>
      </trkpt>
      <trkpt lat="43.3963" lon="2.22633">
        <ele>654.13946533</ele>
        <time>2022-07-10T07:27:59Z</time>
      </trkpt>
      <trkpt lat="43.39631" lon="2.22631">
        <ele>654.38946533</ele>
        <time>2022-07-10T07:28:00Z</time>
      </trkpt>
      <trkpt lat="43.3963" lon="2.22629">
        <ele>654.76947021</ele>
        <time>2022-07-10T07:28:01Z</time>
      </trkpt>
      <trkpt lat="43.3963" lon="2.22626">
        <ele>655.1494751</ele>
        <time>2022-07-10T07:28:02Z</time>
      </trkpt>
      <trkpt lat="43.39633" lon="2.22624">
        <ele>655.6494751</ele>
        <time>2022-07-10T07:28:03Z</time>
      </trkpt>
      <trkpt lat="43.39635" lon="2.22622">
        <ele>656.08947754</ele>
        <time>2022-07-10T07:28:04Z</time>
      </trkpt>
      <trkpt lat="43.39636" lon="2.22621">
        <ele>656.3494873</ele>
        <time>2022-07-10T07:28:05Z</time>
      </trkpt>
      <trkpt lat="43.39636" lon="2.22619">
        <ele>656.5994873</ele>
        <time>2022-07-10T07:28:06Z</time>
      </trkpt>
      <trkpt lat="43.39636" lon="2.22615">
        <ele>656.86950684</ele>
        <time>2022-07-10T07:28:07Z</time>
      </trkpt>
      <trkpt lat="43.39635" lon="2.22614">
        <ele>657.27947998</ele>
        <time>2022-07-10T07:28:08Z</time>
      </trkpt>
      <trkpt lat="43.39635" lon="2.22612">
        <ele>658.92950439</ele>
        <time>2022-07-10T07:28:09Z</time>
      </trkpt>
      <trkpt lat="43.39635" lon="2.22611">
        <ele>659.3494873</ele>
        <time>2022-07-10T07:28:10Z</time>
      </trkpt>
      <trkpt lat="43.39641" lon="2.22595">
        <ele>661.08947754</ele>
        <time>2022-07-10T07:28:38Z</time>
      </trkpt>
      <trkpt lat="43.39642" lon="2.22593">
        <ele>661.08947754</ele>
        <time>2022-07-10T07:28:39Z</time>
      </trkpt>
      <trkpt lat="43.39642" lon="2.22592">
        <ele>661.17950439</ele>
        <time>2022-07-10T07:28:40Z</time>
      </trkpt>
      <trkpt lat="43.39643" lon="2.2259">
        <ele>661.30950928</ele>
        <time>2022-07-10T07:28:41Z</time>
      </trkpt>
      <trkpt lat="43.39644" lon="2.22587">
        <ele>661.42950439</ele>
        <time>2022-07-10T07:28:42Z</time>
      </trkpt>
      <trkpt lat="43.39645" lon="2.22584">
        <ele>661.60949707</ele>
        <time>2022-07-10T07:28:43Z</time>
      </trkpt>
      <trkpt lat="43.39646" lon="2.22582">
        <ele>661.71948242</ele>
        <time>2022-07-10T07:28:44Z</time>
      </trkpt>
      <trkpt lat="43.39646" lon="2.22581">
        <ele>661.99951172</ele>
        <time>2022-07-10T07:28:45Z</time>
      </trkpt>
      <trkpt lat="43.39648" lon="2.22579">
        <ele>662.39953613</ele>
        <time>2022-07-10T07:28:46Z</time>
      </trkpt>
      <trkpt lat="43.39649" lon="2.22577">
        <ele>662.75952148</ele>
        <time>2022-07-10T07:28:47Z</time>
      </trkpt>
      <trkpt lat="43.3965" lon="2.22573">
        <ele>662.98950195</ele>
        <time>2022-07-10T07:28:48Z</time>
      </trkpt>
      <trkpt lat="43.39651" lon="2.2257">
        <ele>663.02947998</ele>
        <time>2022-07-10T07:28:49Z</time>
      </trkpt>
      <trkpt lat="43.39653" lon="2.22569">
        <ele>663.02947998</ele>
        <time>2022-07-10T07:28:50Z</time>
      </trkpt>
      <trkpt lat="43.39654" lon="2.22567">
        <ele>662.92950439</ele>
        <time>2022-07-10T07:28:51Z</time>
      </trkpt>
      <trkpt lat="43.39655" lon="2.22564">
        <ele>662.96948242</ele>
        <time>2022-07-10T07:28:52Z</time>
      </trkpt>
      <trkpt lat="43.39657" lon="2.22561">
        <ele>663.07946777</ele>
        <time>2022-07-10T07:28:53Z</time>
      </trkpt>
      <trkpt lat="43.39657" lon="2.22559">
        <ele>663.18945312</ele>
        <time>2022-07-10T07:28:54Z</time>
      </trkpt>
      <trkpt lat="43.39659" lon="2.22557">
        <ele>663.33947754</ele>
        <time>2022-07-10T07:28:55Z</time>
      </trkpt>
      <trkpt lat="43.39661" lon="2.22555">
        <ele>663.3994751</ele>
        <time>2022-07-10T07:28:56Z</time>
      </trkpt>
      <trkpt lat="43.39663" lon="2.22553">
        <ele>663.44946289</ele>
        <time>2022-07-10T07:28:57Z</time>
      </trkpt>
      <trkpt lat="43.39666" lon="2.22551">
        <ele>663.55944824</ele>
        <time>2022-07-10T07:28:58Z</time>
      </trkpt>
      <trkpt lat="43.39668" lon="2.22549">
        <ele>663.62945557</ele>
        <time>2022-07-10T07:28:59Z</time>
      </trkpt>
      <trkpt lat="43.39669" lon="2.22546">
        <ele>663.80944824</ele>
        <time>2022-07-10T07:29:00Z</time>
      </trkpt>
      <trkpt lat="43.39672" lon="2.22544">
        <ele>663.87945557</ele>
        <time>2022-07-10T07:29:01Z</time>
      </trkpt>
      <trkpt lat="43.39674" lon="2.22542">
        <ele>663.94946289</ele>
        <time>2022-07-10T07:29:02Z</time>
      </trkpt>
      <trkpt lat="43.39675" lon="2.22541">
        <ele>664.00946045</ele>
        <time>2022-07-10T07:29:03Z</time>
      </trkpt>
      <trkpt lat="43.39676" lon="2.22539">
        <ele>663.99945068</ele>
        <time>2022-07-10T07:29:04Z</time>
      </trkpt>
      <trkpt lat="43.39678" lon="2.22537">
        <ele>664.04943848</ele>
        <time>2022-07-10T07:29:05Z</time>
      </trkpt>
      <trkpt lat="43.39681" lon="2.22534">
        <ele>664.05944824</ele>
        <time>2022-07-10T07:29:06Z</time>
      </trkpt>
      <trkpt lat="43.39684" lon="2.22531">
        <ele>664.1194458</ele>
        <time>2022-07-10T07:29:07Z</time>
      </trkpt>
      <trkpt lat="43.39686" lon="2.22528">
        <ele>664.18945312</ele>
        <time>2022-07-10T07:29:08Z</time>
      </trkpt>
      <trkpt lat="43.39687" lon="2.22525">
        <ele>664.25946045</ele>
        <time>2022-07-10T07:29:09Z</time>
      </trkpt>
      <trkpt lat="43.3969" lon="2.22522">
        <ele>664.38946533</ele>
        <time>2022-07-10T07:29:10Z</time>
      </trkpt>
      <trkpt lat="43.39691" lon="2.2252">
        <ele>664.54943848</ele>
        <time>2022-07-10T07:29:11Z</time>
      </trkpt>
      <trkpt lat="43.39693" lon="2.22517">
        <ele>664.65942383</ele>
        <time>2022-07-10T07:29:12Z</time>
      </trkpt>
      <trkpt lat="43.39695" lon="2.22516">
        <ele>664.78942871</ele>
        <time>2022-07-10T07:29:13Z</time>
      </trkpt>
      <trkpt lat="43.39697" lon="2.22514">
        <ele>664.91943359</ele>
        <time>2022-07-10T07:29:14Z</time>
      </trkpt>
      <trkpt lat="43.39699" lon="2.2251">
        <ele>665.01940918</ele>
        <time>2022-07-10T07:29:15Z</time>
      </trkpt>
      <trkpt lat="43.397" lon="2.22508">
        <ele>665.22943115</ele>
        <time>2022-07-10T07:29:16Z</time>
      </trkpt>
      <trkpt lat="43.39702" lon="2.22506">
        <ele>665.44940186</ele>
        <time>2022-07-10T07:29:17Z</time>
      </trkpt>
      <trkpt lat="43.39703" lon="2.22504">
        <ele>665.6394043</ele>
        <time>2022-07-10T07:29:18Z</time>
      </trkpt>
      <trkpt lat="43.39705" lon="2.22501">
        <ele>665.76940918</ele>
        <time>2022-07-10T07:29:19Z</time>
      </trkpt>
      <trkpt lat="43.39707" lon="2.22496">
        <ele>665.87939453</ele>
        <time>2022-07-10T07:29:20Z</time>
      </trkpt>
      <trkpt lat="43.39708" lon="2.22494">
        <ele>665.93939209</ele>
        <time>2022-07-10T07:29:21Z</time>
      </trkpt>
      <trkpt lat="43.3971" lon="2.22491">
        <ele>665.89941406</ele>
        <time>2022-07-10T07:29:22Z</time>
      </trkpt>
      <trkpt lat="43.39714" lon="2.22486">
        <ele>665.89941406</ele>
        <time>2022-07-10T07:29:23Z</time>
      </trkpt>
      <trkpt lat="43.39717" lon="2.22483">
        <ele>665.84942627</ele>
        <time>2022-07-10T07:29:24Z</time>
      </trkpt>
      <trkpt lat="43.39719" lon="2.2248">
        <ele>665.82940674</ele>
        <time>2022-07-10T07:29:25Z</time>
      </trkpt>
      <trkpt lat="43.39721" lon="2.22477">
        <ele>665.84942627</ele>
        <time>2022-07-10T07:29:26Z</time>
      </trkpt>
      <trkpt lat="43.39723" lon="2.22473">
        <ele>665.8894043</ele>
        <time>2022-07-10T07:29:27Z</time>
      </trkpt>
      <trkpt lat="43.39727" lon="2.2247">
        <ele>665.92938232</ele>
        <time>2022-07-10T07:29:28Z</time>
      </trkpt>
      <trkpt lat="43.39729" lon="2.22468">
        <ele>665.93939209</ele>
        <time>2022-07-10T07:29:29Z</time>
      </trkpt>
      <trkpt lat="43.39732" lon="2.22465">
        <ele>665.97937012</ele>
        <time>2022-07-10T07:29:30Z</time>
      </trkpt>
      <trkpt lat="43.39735" lon="2.22463">
        <ele>666.00939941</ele>
        <time>2022-07-10T07:29:31Z</time>
      </trkpt>
      <trkpt lat="43.39737" lon="2.22461">
        <ele>666.07940674</ele>
        <time>2022-07-10T07:29:32Z</time>
      </trkpt>
      <trkpt lat="43.39739" lon="2.22458">
        <ele>666.14941406</ele>
        <time>2022-07-10T07:29:33Z</time>
      </trkpt>
      <trkpt lat="43.39742" lon="2.22457">
        <ele>666.18939209</ele>
        <time>2022-07-10T07:29:34Z</time>
      </trkpt>
      <trkpt lat="43.39745" lon="2.22455">
        <ele>666.26940918</ele>
        <time>2022-07-10T07:29:35Z</time>
      </trkpt>
      <trkpt lat="43.39747" lon="2.22453">
        <ele>666.3894043</ele>
        <time>2022-07-10T07:29:36Z</time>
      </trkpt>
      <trkpt lat="43.39751" lon="2.22449">
        <ele>666.50939941</ele>
        <time>2022-07-10T07:29:37Z</time>
      </trkpt>
      <trkpt lat="43.39754" lon="2.22447">
        <ele>666.61938477</ele>
        <time>2022-07-10T07:29:38Z</time>
      </trkpt>
      <trkpt lat="43.39756" lon="2.22444">
        <ele>666.70941162</ele>
        <time>2022-07-10T07:29:39Z</time>
      </trkpt>
      <trkpt lat="43.39757" lon="2.22441">
        <ele>666.78942871</ele>
        <time>2022-07-10T07:29:40Z</time>
      </trkpt>
      <trkpt lat="43.39761" lon="2.22437">
        <ele>666.93945312</ele>
        <time>2022-07-10T07:29:41Z</time>
      </trkpt>
      <trkpt lat="43.39763" lon="2.22436">
        <ele>667.1494751</ele>
        <time>2022-07-10T07:29:42Z</time>
      </trkpt>
      <trkpt lat="43.39765" lon="2.22434">
        <ele>667.3994751</ele>
        <time>2022-07-10T07:29:43Z</time>
      </trkpt>
      <trkpt lat="43.39767" lon="2.22432">
        <ele>667.68945312</ele>
        <time>2022-07-10T07:29:44Z</time>
      </trkpt>
      <trkpt lat="43.39768" lon="2.2243">
        <ele>667.97943115</ele>
        <time>2022-07-10T07:29:45Z</time>
      </trkpt>
      <trkpt lat="43.3977" lon="2.22426">
        <ele>668.27941895</ele>
        <time>2022-07-10T07:29:46Z</time>
      </trkpt>
      <trkpt lat="43.39771" lon="2.22424">
        <ele>668.56939697</ele>
        <time>2022-07-10T07:29:47Z</time>
      </trkpt>
      <trkpt lat="43.39773" lon="2.22421">
        <ele>668.81939697</ele>
        <time>2022-07-10T07:29:48Z</time>
      </trkpt>
      <trkpt lat="43.39773" lon="2.22419">
        <ele>669.1394043</ele>
        <time>2022-07-10T07:29:49Z</time>
      </trkpt>
      <trkpt lat="43.39773" lon="2.22417">
        <ele>669.44940186</ele>
        <time>2022-07-10T07:29:50Z</time>
      </trkpt>
      <trkpt lat="43.39774" lon="2.22414">
        <ele>669.81939697</ele>
        <time>2022-07-10T07:29:51Z</time>
      </trkpt>
      <trkpt lat="43.39775" lon="2.22413">
        <ele>670.29937744</ele>
        <time>2022-07-10T07:29:52Z</time>
      </trkpt>
      <trkpt lat="43.39776" lon="2.22411">
        <ele>670.69940186</ele>
        <time>2022-07-10T07:29:53Z</time>
      </trkpt>
      <trkpt lat="43.39777" lon="2.22411">
        <ele>671.1394043</ele>
        <time>2022-07-10T07:29:54Z</time>
      </trkpt>
      <trkpt lat="43.39779" lon="2.22409">
        <ele>671.45941162</ele>
        <time>2022-07-10T07:29:55Z</time>
      </trkpt>
      <trkpt lat="43.39782" lon="2.22407">
        <ele>671.65942383</ele>
        <time>2022-07-10T07:29:56Z</time>
      </trkpt>
      <trkpt lat="43.39783" lon="2.22405">
        <ele>671.85943604</ele>
        <time>2022-07-10T07:29:57Z</time>
      </trkpt>
      <trkpt lat="43.39785" lon="2.22403">
        <ele>672.14941406</ele>
        <time>2022-07-10T07:29:58Z</time>
      </trkpt>
      <trkpt lat="43.39786" lon="2.22401">
        <ele>672.47943115</ele>
        <time>2022-07-10T07:29:59Z</time>
      </trkpt>
      <trkpt lat="43.39787" lon="2.22397">
        <ele>672.77941895</ele>
        <time>2022-07-10T07:30:00Z</time>
      </trkpt>
      <trkpt lat="43.39788" lon="2.22395">
        <ele>673.17944336</ele>
        <time>2022-07-10T07:30:01Z</time>
      </trkpt>
      <trkpt lat="43.39789" lon="2.22393">
        <ele>673.5894165</ele>
        <time>2022-07-10T07:30:02Z</time>
      </trkpt>
      <trkpt lat="43.39789" lon="2.22391">
        <ele>674.24938965</ele>
        <time>2022-07-10T07:30:03Z</time>
      </trkpt>
      <trkpt lat="43.3979" lon="2.22389">
        <ele>675.0894165</ele>
        <time>2022-07-10T07:30:04Z</time>
      </trkpt>
      <trkpt lat="43.3979" lon="2.22387">
        <ele>675.89941406</ele>
        <time>2022-07-10T07:30:05Z</time>
      </trkpt>
      <trkpt lat="43.39792" lon="2.22386">
        <ele>676.5894165</ele>
        <time>2022-07-10T07:30:06Z</time>
      </trkpt>
      <trkpt lat="43.39792" lon="2.22385">
        <ele>677.00939941</ele>
        <time>2022-07-10T07:30:07Z</time>
      </trkpt>
      <trkpt lat="43.39792" lon="2.22384">
        <ele>677.24938965</ele>
        <time>2022-07-10T07:30:08Z</time>
      </trkpt>
      <trkpt lat="43.39795" lon="2.22384">
        <ele>677.31939697</ele>
        <time>2022-07-10T07:30:09Z</time>
      </trkpt>
      <trkpt lat="43.39797" lon="2.22383">
        <ele>677.31939697</ele>
        <time>2022-07-10T07:30:10Z</time>
      </trkpt>
      <trkpt lat="43.39799" lon="2.22381">
        <ele>677.34942627</ele>
        <time>2022-07-10T07:30:11Z</time>
      </trkpt>
      <trkpt lat="43.398" lon="2.2238">
        <ele>677.37945557</ele>
        <time>2022-07-10T07:30:12Z</time>
      </trkpt>
      <trkpt lat="43.39803" lon="2.22378">
        <ele>677.50946045</ele>
        <time>2022-07-10T07:30:13Z</time>
      </trkpt>
      <trkpt lat="43.39804" lon="2.22377">
        <ele>677.6194458</ele>
        <time>2022-07-10T07:30:14Z</time>
      </trkpt>
      <trkpt lat="43.39807" lon="2.22376">
        <ele>677.62945557</ele>
        <time>2022-07-10T07:30:15Z</time>
      </trkpt>
      <trkpt lat="43.39811" lon="2.22376">
        <ele>677.59942627</ele>
        <time>2022-07-10T07:30:16Z</time>
      </trkpt>
      <trkpt lat="43.39815" lon="2.22376">
        <ele>677.48944092</ele>
        <time>2022-07-10T07:30:17Z</time>
      </trkpt>
      <trkpt lat="43.39817" lon="2.22376">
        <ele>677.43945312</ele>
        <time>2022-07-10T07:30:18Z</time>
      </trkpt>
      <trkpt lat="43.39819" lon="2.22373">
        <ele>677.44946289</ele>
        <time>2022-07-10T07:30:19Z</time>
      </trkpt>
      <trkpt lat="43.39822" lon="2.22372">
        <ele>677.49945068</ele>
        <time>2022-07-10T07:30:20Z</time>
      </trkpt>
      <trkpt lat="43.39824" lon="2.2237">
        <ele>677.60943604</ele>
        <time>2022-07-10T07:30:21Z</time>
      </trkpt>
      <trkpt lat="43.39827" lon="2.22368">
        <ele>677.63946533</ele>
        <time>2022-07-10T07:30:22Z</time>
      </trkpt>
      <trkpt lat="43.39829" lon="2.22367">
        <ele>677.70947266</ele>
        <time>2022-07-10T07:30:23Z</time>
      </trkpt>
      <trkpt lat="43.39832" lon="2.22366">
        <ele>677.76947021</ele>
        <time>2022-07-10T07:30:24Z</time>
      </trkpt>
      <trkpt lat="43.39834" lon="2.22365">
        <ele>677.8494873</ele>
        <time>2022-07-10T07:30:25Z</time>
      </trkpt>
      <trkpt lat="43.39836" lon="2.22363">
        <ele>678.07946777</ele>
        <time>2022-07-10T07:30:26Z</time>
      </trkpt>
      <trkpt lat="43.39839" lon="2.22361">
        <ele>678.20947266</ele>
        <time>2022-07-10T07:30:27Z</time>
      </trkpt>
      <trkpt lat="43.39841" lon="2.2236">
        <ele>678.48950195</ele>
        <time>2022-07-10T07:30:28Z</time>
      </trkpt>
      <trkpt lat="43.39843" lon="2.22358">
        <ele>678.74951172</ele>
        <time>2022-07-10T07:30:29Z</time>
      </trkpt>
      <trkpt lat="43.39845" lon="2.22355">
        <ele>678.91949463</ele>
        <time>2022-07-10T07:30:30Z</time>
      </trkpt>
      <trkpt lat="43.39847" lon="2.22353">
        <ele>679.20947266</ele>
        <time>2022-07-10T07:30:31Z</time>
      </trkpt>
      <trkpt lat="43.3985" lon="2.2235">
        <ele>679.32946777</ele>
        <time>2022-07-10T07:30:32Z</time>
      </trkpt>
      <trkpt lat="43.3985" lon="2.22347">
        <ele>679.44946289</ele>
        <time>2022-07-10T07:30:33Z</time>
      </trkpt>
      <trkpt lat="43.39852" lon="2.22345">
        <ele>679.65948486</ele>
        <time>2022-07-10T07:30:34Z</time>
      </trkpt>
      <trkpt lat="43.39853" lon="2.22342">
        <ele>679.8494873</ele>
        <time>2022-07-10T07:30:35Z</time>
      </trkpt>
      <trkpt lat="43.39855" lon="2.22338">
        <ele>680.05950928</ele>
        <time>2022-07-10T07:30:36Z</time>
      </trkpt>
      <trkpt lat="43.39857" lon="2.22336">
        <ele>680.26953125</ele>
        <time>2022-07-10T07:30:37Z</time>
      </trkpt>
      <trkpt lat="43.39858" lon="2.22334">
        <ele>680.38952637</ele>
        <time>2022-07-10T07:30:38Z</time>
      </trkpt>
      <trkpt lat="43.39859" lon="2.22332">
        <ele>680.48950195</ele>
        <time>2022-07-10T07:30:39Z</time>
      </trkpt>
      <trkpt lat="43.39861" lon="2.2233">
        <ele>680.65948486</ele>
        <time>2022-07-10T07:30:40Z</time>
      </trkpt>
      <trkpt lat="43.39864" lon="2.22325">
        <ele>680.88946533</ele>
        <time>2022-07-10T07:30:41Z</time>
      </trkpt>
      <trkpt lat="43.39865" lon="2.22324">
        <ele>681.24945068</ele>
        <time>2022-07-10T07:30:42Z</time>
      </trkpt>
      <trkpt lat="43.39866" lon="2.22322">
        <ele>681.6194458</ele>
        <time>2022-07-10T07:30:43Z</time>
      </trkpt>
      <trkpt lat="43.39867" lon="2.22321">
        <ele>681.87945557</ele>
        <time>2022-07-10T07:30:44Z</time>
      </trkpt>
      <trkpt lat="43.3987" lon="2.22318">
        <ele>682.08947754</ele>
        <time>2022-07-10T07:30:45Z</time>
      </trkpt>
      <trkpt lat="43.39872" lon="2.22316">
        <ele>682.27947998</ele>
        <time>2022-07-10T07:30:46Z</time>
      </trkpt>
      <trkpt lat="43.39872" lon="2.22314">
        <ele>682.45947266</ele>
        <time>2022-07-10T07:30:47Z</time>
      </trkpt>
      <trkpt lat="43.39873" lon="2.22312">
        <ele>682.70947266</ele>
        <time>2022-07-10T07:30:48Z</time>
      </trkpt>
      <trkpt lat="43.39874" lon="2.2231">
        <ele>682.93945312</ele>
        <time>2022-07-10T07:30:49Z</time>
      </trkpt>
      <trkpt lat="43.39876" lon="2.22307">
        <ele>683.08947754</ele>
        <time>2022-07-10T07:30:50Z</time>
      </trkpt>
      <trkpt lat="43.39877" lon="2.22305">
        <ele>683.3494873</ele>
        <time>2022-07-10T07:30:51Z</time>
      </trkpt>
      <trkpt lat="43.39878" lon="2.22302">
        <ele>683.54949951</ele>
        <time>2022-07-10T07:30:52Z</time>
      </trkpt>
      <trkpt lat="43.39878" lon="2.22299">
        <ele>683.77947998</ele>
        <time>2022-07-10T07:30:53Z</time>
      </trkpt>
      <trkpt lat="43.3988" lon="2.22294">
        <ele>684.03948975</ele>
        <time>2022-07-10T07:30:54Z</time>
      </trkpt>
      <trkpt lat="43.39881" lon="2.22292">
        <ele>684.22949219</ele>
        <time>2022-07-10T07:30:55Z</time>
      </trkpt>
      <trkpt lat="43.39882" lon="2.22289">
        <ele>684.46948242</ele>
        <time>2022-07-10T07:30:56Z</time>
      </trkpt>
      <trkpt lat="43.39883" lon="2.22286">
        <ele>684.68945312</ele>
        <time>2022-07-10T07:30:57Z</time>
      </trkpt>
      <trkpt lat="43.39885" lon="2.22283">
        <ele>684.96948242</ele>
        <time>2022-07-10T07:30:58Z</time>
      </trkpt>
      <trkpt lat="43.39886" lon="2.22281">
        <ele>685.26947021</ele>
        <time>2022-07-10T07:30:59Z</time>
      </trkpt>
      <trkpt lat="43.39888" lon="2.22278">
        <ele>685.6194458</ele>
        <time>2022-07-10T07:31:00Z</time>
      </trkpt>
      <trkpt lat="43.39889" lon="2.22276">
        <ele>685.99945068</ele>
        <time>2022-07-10T07:31:01Z</time>
      </trkpt>
      <trkpt lat="43.39889" lon="2.22274">
        <ele>686.35943604</ele>
        <time>2022-07-10T07:31:02Z</time>
      </trkpt>
      <trkpt lat="43.3989" lon="2.2227">
        <ele>686.72943115</ele>
        <time>2022-07-10T07:31:03Z</time>
      </trkpt>
      <trkpt lat="43.39891" lon="2.22268">
        <ele>687.12945557</ele>
        <time>2022-07-10T07:31:04Z</time>
      </trkpt>
      <trkpt lat="43.39892" lon="2.22266">
        <ele>687.55944824</ele>
        <time>2022-07-10T07:31:05Z</time>
      </trkpt>
      <trkpt lat="43.39892" lon="2.22264">
        <ele>688.01947021</ele>
        <time>2022-07-10T07:31:06Z</time>
      </trkpt>
      <trkpt lat="43.39894" lon="2.2226">
        <ele>688.44946289</ele>
        <time>2022-07-10T07:31:07Z</time>
      </trkpt>
      <trkpt lat="43.39895" lon="2.22258">
        <ele>688.92944336</ele>
        <time>2022-07-10T07:31:08Z</time>
      </trkpt>
      <trkpt lat="43.39896" lon="2.22255">
        <ele>691.00946045</ele>
        <time>2022-07-10T07:31:09Z</time>
      </trkpt>
      <trkpt lat="43.39897" lon="2.22253">
        <ele>691.68945312</ele>
        <time>2022-07-10T07:31:10Z</time>
      </trkpt>
      <trkpt lat="43.39898" lon="2.22251">
        <ele>692.30944824</ele>
        <time>2022-07-10T07:31:11Z</time>
      </trkpt>
      <trkpt lat="43.399" lon="2.22248">
        <ele>692.93945312</ele>
        <time>2022-07-10T07:31:12Z</time>
      </trkpt>
      <trkpt lat="43.39901" lon="2.22246">
        <ele>693.52947998</ele>
        <time>2022-07-10T07:31:13Z</time>
      </trkpt>
      <trkpt lat="43.39902" lon="2.22244">
        <ele>693.97949219</ele>
        <time>2022-07-10T07:31:14Z</time>
      </trkpt>
      <trkpt lat="43.39904" lon="2.22243">
        <ele>694.35949707</ele>
        <time>2022-07-10T07:31:15Z</time>
      </trkpt>
      <trkpt lat="43.39906" lon="2.22241">
        <ele>694.74951172</ele>
        <time>2022-07-10T07:31:16Z</time>
      </trkpt>
      <trkpt lat="43.39907" lon="2.22238">
        <ele>695.17950439</ele>
        <time>2022-07-10T07:31:17Z</time>
      </trkpt>
      <trkpt lat="43.39909" lon="2.22237">
        <ele>695.6494751</ele>
        <time>2022-07-10T07:31:18Z</time>
      </trkpt>
      <trkpt lat="43.39911" lon="2.22235">
        <ele>696.16949463</ele>
        <time>2022-07-10T07:31:19Z</time>
      </trkpt>
      <trkpt lat="43.39913" lon="2.22232">
        <ele>696.6295166</ele>
        <time>2022-07-10T07:31:20Z</time>
      </trkpt>
      <trkpt lat="43.39914" lon="2.2223">
        <ele>696.97949219</ele>
        <time>2022-07-10T07:31:21Z</time>
      </trkpt>
      <trkpt lat="43.39914" lon="2.22229">
        <ele>697.29949951</ele>
        <time>2022-07-10T07:31:22Z</time>
      </trkpt>
      <trkpt lat="43.39914" lon="2.22227">
        <ele>697.61950684</ele>
        <time>2022-07-10T07:31:23Z</time>
      </trkpt>
      <trkpt lat="43.39914" lon="2.22225">
        <ele>697.80950928</ele>
        <time>2022-07-10T07:31:24Z</time>
      </trkpt>
      <trkpt lat="43.39914" lon="2.22222">
        <ele>697.88952637</ele>
        <time>2022-07-10T07:31:25Z</time>
      </trkpt>
      <trkpt lat="43.39914" lon="2.22219">
        <ele>697.83953857</ele>
        <time>2022-07-10T07:31:26Z</time>
      </trkpt>
      <trkpt lat="43.39913" lon="2.22215">
        <ele>697.69952393</ele>
        <time>2022-07-10T07:31:27Z</time>
      </trkpt>
      <trkpt lat="43.39913" lon="2.22212">
        <ele>697.55950928</ele>
        <time>2022-07-10T07:31:28Z</time>
      </trkpt>
      <trkpt lat="43.39913" lon="2.22208">
        <ele>697.41949463</ele>
        <time>2022-07-10T07:31:29Z</time>
      </trkpt>
      <trkpt lat="43.39912" lon="2.22204">
        <ele>697.22949219</ele>
        <time>2022-07-10T07:31:30Z</time>
      </trkpt>
      <trkpt lat="43.39913" lon="2.222">
        <ele>697.11950684</ele>
        <time>2022-07-10T07:31:31Z</time>
      </trkpt>
      <trkpt lat="43.39913" lon="2.22197">
        <ele>696.95953369</ele>
        <time>2022-07-10T07:31:32Z</time>
      </trkpt>
      <trkpt lat="43.39912" lon="2.22194">
        <ele>696.82952881</ele>
        <time>2022-07-10T07:31:33Z</time>
      </trkpt>
      <trkpt lat="43.39913" lon="2.2219">
        <ele>696.75952148</ele>
        <time>2022-07-10T07:31:34Z</time>
      </trkpt>
      <trkpt lat="43.39913" lon="2.22186">
        <ele>696.64953613</ele>
        <time>2022-07-10T07:31:35Z</time>
      </trkpt>
      <trkpt lat="43.39912" lon="2.22183">
        <ele>696.58953857</ele>
        <time>2022-07-10T07:31:36Z</time>
      </trkpt>
      <trkpt lat="43.39913" lon="2.2218">
        <ele>696.49951172</ele>
        <time>2022-07-10T07:31:37Z</time>
      </trkpt>
      <trkpt lat="43.39912" lon="2.22173">
        <ele>696.43951416</ele>
        <time>2022-07-10T07:31:38Z</time>
      </trkpt>
      <trkpt lat="43.39911" lon="2.22169">
        <ele>696.38952637</ele>
        <time>2022-07-10T07:31:39Z</time>
      </trkpt>
      <trkpt lat="43.39911" lon="2.22165">
        <ele>696.34954834</ele>
        <time>2022-07-10T07:31:40Z</time>
      </trkpt>
      <trkpt lat="43.39911" lon="2.22161">
        <ele>696.32952881</ele>
        <time>2022-07-10T07:31:41Z</time>
      </trkpt>
      <trkpt lat="43.39911" lon="2.22155">
        <ele>696.28955078</ele>
        <time>2022-07-10T07:31:42Z</time>
      </trkpt>
      <trkpt lat="43.39911" lon="2.22148">
        <ele>696.26953125</ele>
        <time>2022-07-10T07:31:43Z</time>
      </trkpt>
      <trkpt lat="43.39911" lon="2.22144">
        <ele>696.23950195</ele>
        <time>2022-07-10T07:31:44Z</time>
      </trkpt>
      <trkpt lat="43.39912" lon="2.22139">
        <ele>696.21948242</ele>
        <time>2022-07-10T07:31:45Z</time>
      </trkpt>
      <trkpt lat="43.39913" lon="2.22136">
        <ele>696.25946045</ele>
        <time>2022-07-10T07:31:46Z</time>
      </trkpt>
      <trkpt lat="43.39913" lon="2.22133">
        <ele>696.25946045</ele>
        <time>2022-07-10T07:31:47Z</time>
      </trkpt>
      <trkpt lat="43.39914" lon="2.22126">
        <ele>696.33947754</ele>
        <time>2022-07-10T07:31:48Z</time>
      </trkpt>
      <trkpt lat="43.39914" lon="2.22122">
        <ele>696.40948486</ele>
        <time>2022-07-10T07:31:49Z</time>
      </trkpt>
      <trkpt lat="43.39914" lon="2.22117">
        <ele>696.46948242</ele>
        <time>2022-07-10T07:31:50Z</time>
      </trkpt>
      <trkpt lat="43.39914" lon="2.22112">
        <ele>696.61950684</ele>
        <time>2022-07-10T07:31:51Z</time>
      </trkpt>
      <trkpt lat="43.39916" lon="2.22106">
        <ele>696.73950195</ele>
        <time>2022-07-10T07:31:52Z</time>
      </trkpt>
      <trkpt lat="43.39918" lon="2.22102">
        <ele>696.8994751</ele>
        <time>2022-07-10T07:31:53Z</time>
      </trkpt>
      <trkpt lat="43.3992" lon="2.22099">
        <ele>697.1494751</ele>
        <time>2022-07-10T07:31:54Z</time>
      </trkpt>
      <trkpt lat="43.39921" lon="2.22095">
        <ele>697.42950439</ele>
        <time>2022-07-10T07:31:55Z</time>
      </trkpt>
      <trkpt lat="43.39923" lon="2.22091">
        <ele>697.68951416</ele>
        <time>2022-07-10T07:31:56Z</time>
      </trkpt>
      <trkpt lat="43.39924" lon="2.22086">
        <ele>697.97949219</ele>
        <time>2022-07-10T07:31:57Z</time>
      </trkpt>
      <trkpt lat="43.39926" lon="2.22083">
        <ele>698.0994873</ele>
        <time>2022-07-10T07:31:58Z</time>
      </trkpt>
      <trkpt lat="43.39927" lon="2.22079">
        <ele>698.18951416</ele>
        <time>2022-07-10T07:31:59Z</time>
      </trkpt>
      <trkpt lat="43.39929" lon="2.22076">
        <ele>698.33953857</ele>
        <time>2022-07-10T07:32:00Z</time>
      </trkpt>
      <trkpt lat="43.3993" lon="2.22073">
        <ele>698.44952393</ele>
        <time>2022-07-10T07:32:01Z</time>
      </trkpt>
      <trkpt lat="43.39932" lon="2.22068">
        <ele>698.63952637</ele>
        <time>2022-07-10T07:32:02Z</time>
      </trkpt>
      <trkpt lat="43.39933" lon="2.22064">
        <ele>698.85949707</ele>
        <time>2022-07-10T07:32:03Z</time>
      </trkpt>
      <trkpt lat="43.39934" lon="2.22061">
        <ele>699.02947998</ele>
        <time>2022-07-10T07:32:04Z</time>
      </trkpt>
      <trkpt lat="43.39935" lon="2.22055">
        <ele>699.19946289</ele>
        <time>2022-07-10T07:32:05Z</time>
      </trkpt>
      <trkpt lat="43.39936" lon="2.22052">
        <ele>699.3994751</ele>
        <time>2022-07-10T07:32:06Z</time>
      </trkpt>
      <trkpt lat="43.39937" lon="2.22049">
        <ele>699.58947754</ele>
        <time>2022-07-10T07:32:07Z</time>
      </trkpt>
      <trkpt lat="43.39938" lon="2.22046">
        <ele>699.75946045</ele>
        <time>2022-07-10T07:32:08Z</time>
      </trkpt>
      <trkpt lat="43.39938" lon="2.22043">
        <ele>701.15948486</ele>
        <time>2022-07-10T07:32:09Z</time>
      </trkpt>
      <trkpt lat="43.3994" lon="2.22039">
        <ele>701.40948486</ele>
        <time>2022-07-10T07:32:10Z</time>
      </trkpt>
      <trkpt lat="43.3994" lon="2.22038">
        <ele>701.65948486</ele>
        <time>2022-07-10T07:32:11Z</time>
      </trkpt>
      <trkpt lat="43.3994" lon="2.22037">
        <ele>701.93951416</ele>
        <time>2022-07-10T07:32:12Z</time>
      </trkpt>
      <trkpt lat="43.39939" lon="2.22036">
        <ele>702.15948486</ele>
        <time>2022-07-10T07:32:13Z</time>
      </trkpt>
      <trkpt lat="43.39938" lon="2.22035">
        <ele>702.29949951</ele>
        <time>2022-07-10T07:32:14Z</time>
      </trkpt>
      <trkpt lat="43.39936" lon="2.22036">
        <ele>702.35949707</ele>
        <time>2022-07-10T07:32:15Z</time>
      </trkpt>
      <trkpt lat="43.39935" lon="2.22039">
        <ele>702.30950928</ele>
        <time>2022-07-10T07:32:16Z</time>
      </trkpt>
      <trkpt lat="43.39935" lon="2.22041">
        <ele>702.18951416</ele>
        <time>2022-07-10T07:32:17Z</time>
      </trkpt>
      <trkpt lat="43.39934" lon="2.22044">
        <ele>701.99951172</ele>
        <time>2022-07-10T07:32:18Z</time>
      </trkpt>
      <trkpt lat="43.39933" lon="2.22048">
        <ele>701.76953125</ele>
        <time>2022-07-10T07:32:19Z</time>
      </trkpt>
      <trkpt lat="43.39931" lon="2.22054">
        <ele>701.53955078</ele>
        <time>2022-07-10T07:32:20Z</time>
      </trkpt>
      <trkpt lat="43.39929" lon="2.22059">
        <ele>701.24957275</ele>
        <time>2022-07-10T07:32:21Z</time>
      </trkpt>
      <trkpt lat="43.39928" lon="2.22064">
        <ele>700.95959473</ele>
        <time>2022-07-10T07:32:22Z</time>
      </trkpt>
      <trkpt lat="43.39926" lon="2.22069">
        <ele>700.61956787</ele>
        <time>2022-07-10T07:32:23Z</time>
      </trkpt>
      <trkpt lat="43.39923" lon="2.22077">
        <ele>700.22955322</ele>
        <time>2022-07-10T07:32:24Z</time>
      </trkpt>
      <trkpt lat="43.3992" lon="2.22082">
        <ele>699.87957764</ele>
        <time>2022-07-10T07:32:25Z</time>
      </trkpt>
      <trkpt lat="43.39918" lon="2.22087">
        <ele>699.52960205</ele>
        <time>2022-07-10T07:32:26Z</time>
      </trkpt>
      <trkpt lat="43.39916" lon="2.22092">
        <ele>699.1395874</ele>
        <time>2022-07-10T07:32:27Z</time>
      </trkpt>
      <trkpt lat="43.39913" lon="2.22096">
        <ele>698.85955811</ele>
        <time>2022-07-10T07:32:28Z</time>
      </trkpt>
      <trkpt lat="43.39911" lon="2.22096">
        <ele>698.64953613</ele>
        <time>2022-07-10T07:32:29Z</time>
      </trkpt>
      <trkpt lat="43.39909" lon="2.22095">
        <ele>698.52954102</ele>
        <time>2022-07-10T07:32:30Z</time>
      </trkpt>
      <trkpt lat="43.39908" lon="2.22093">
        <ele>698.52954102</ele>
        <time>2022-07-10T07:32:31Z</time>
      </trkpt>
      <trkpt lat="43.39908" lon="2.22091">
        <ele>698.59954834</ele>
        <time>2022-07-10T07:32:32Z</time>
      </trkpt>
      <trkpt lat="43.39909" lon="2.22088">
        <ele>698.70953369</ele>
        <time>2022-07-10T07:32:33Z</time>
      </trkpt>
      <trkpt lat="43.39909" lon="2.22085">
        <ele>698.80950928</ele>
        <time>2022-07-10T07:32:34Z</time>
      </trkpt>
      <trkpt lat="43.3991" lon="2.22082">
        <ele>698.95953369</ele>
        <time>2022-07-10T07:32:35Z</time>
      </trkpt>
      <trkpt lat="43.39911" lon="2.22079">
        <ele>699.11950684</ele>
        <time>2022-07-10T07:32:36Z</time>
      </trkpt>
      <trkpt lat="43.39913" lon="2.22075">
        <ele>699.16949463</ele>
        <time>2022-07-10T07:32:37Z</time>
      </trkpt>
      <trkpt lat="43.39914" lon="2.22073">
        <ele>699.17950439</ele>
        <time>2022-07-10T07:32:38Z</time>
      </trkpt>
      <trkpt lat="43.39915" lon="2.2207">
        <ele>699.26953125</ele>
        <time>2022-07-10T07:32:39Z</time>
      </trkpt>
      <trkpt lat="43.39917" lon="2.22068">
        <ele>699.3795166</ele>
        <time>2022-07-10T07:32:40Z</time>
      </trkpt>
      <trkpt lat="43.39918" lon="2.22065">
        <ele>699.58953857</ele>
        <time>2022-07-10T07:32:41Z</time>
      </trkpt>
      <trkpt lat="43.3992" lon="2.2206">
        <ele>699.83953857</ele>
        <time>2022-07-10T07:32:42Z</time>
      </trkpt>
      <trkpt lat="43.39922" lon="2.22057">
        <ele>700.00952148</ele>
        <time>2022-07-10T07:32:43Z</time>
      </trkpt>
      <trkpt lat="43.39923" lon="2.22055">
        <ele>700.22949219</ele>
        <time>2022-07-10T07:32:44Z</time>
      </trkpt>
      <trkpt lat="43.39924" lon="2.22052">
        <ele>700.49951172</ele>
        <time>2022-07-10T07:32:45Z</time>
      </trkpt>
      <trkpt lat="43.39926" lon="2.2205">
        <ele>700.89953613</ele>
        <time>2022-07-10T07:32:46Z</time>
      </trkpt>
      <trkpt lat="43.39928" lon="2.22047">
        <ele>701.34954834</ele>
        <time>2022-07-10T07:32:47Z</time>
      </trkpt>
      <trkpt lat="43.39929" lon="2.22045">
        <ele>701.70953369</ele>
        <time>2022-07-10T07:32:48Z</time>
      </trkpt>
      <trkpt lat="43.3993" lon="2.22042">
        <ele>702.1295166</ele>
        <time>2022-07-10T07:32:49Z</time>
      </trkpt>
      <trkpt lat="43.3993" lon="2.22039">
        <ele>702.35949707</ele>
        <time>2022-07-10T07:32:50Z</time>
      </trkpt>
      <trkpt lat="43.39931" lon="2.22035">
        <ele>702.58947754</ele>
        <time>2022-07-10T07:32:51Z</time>
      </trkpt>
      <trkpt lat="43.39932" lon="2.22032">
        <ele>702.77947998</ele>
        <time>2022-07-10T07:32:52Z</time>
      </trkpt>
      <trkpt lat="43.39933" lon="2.22029">
        <ele>702.83947754</ele>
        <time>2022-07-10T07:32:53Z</time>
      </trkpt>
      <trkpt lat="43.39933" lon="2.22026">
        <ele>703.00946045</ele>
        <time>2022-07-10T07:32:54Z</time>
      </trkpt>
      <trkpt lat="43.39933" lon="2.22023">
        <ele>703.16943359</ele>
        <time>2022-07-10T07:32:55Z</time>
      </trkpt>
      <trkpt lat="43.39934" lon="2.22019">
        <ele>703.31945801</ele>
        <time>2022-07-10T07:32:56Z</time>
      </trkpt>
      <trkpt lat="43.39934" lon="2.22016">
        <ele>703.44946289</ele>
        <time>2022-07-10T07:32:57Z</time>
      </trkpt>
      <trkpt lat="43.39935" lon="2.22013">
        <ele>703.55944824</ele>
        <time>2022-07-10T07:32:58Z</time>
      </trkpt>
      <trkpt lat="43.39935" lon="2.2201">
        <ele>703.63946533</ele>
        <time>2022-07-10T07:32:59Z</time>
      </trkpt>
      <trkpt lat="43.39935" lon="2.22007">
        <ele>703.77947998</ele>
        <time>2022-07-10T07:33:00Z</time>
      </trkpt>
      <trkpt lat="43.39935" lon="2.22004">
        <ele>703.98950195</ele>
        <time>2022-07-10T07:33:01Z</time>
      </trkpt>
      <trkpt lat="43.39935" lon="2.22001">
        <ele>704.18951416</ele>
        <time>2022-07-10T07:33:02Z</time>
      </trkpt>
      <trkpt lat="43.39934" lon="2.21998">
        <ele>704.45953369</ele>
        <time>2022-07-10T07:33:03Z</time>
      </trkpt>
      <trkpt lat="43.39932" lon="2.21994">
        <ele>704.67950439</ele>
        <time>2022-07-10T07:33:04Z</time>
      </trkpt>
      <trkpt lat="43.39931" lon="2.21991">
        <ele>704.8994751</ele>
        <time>2022-07-10T07:33:05Z</time>
      </trkpt>
      <trkpt lat="43.39929" lon="2.2199">
        <ele>705.17950439</ele>
        <time>2022-07-10T07:33:06Z</time>
      </trkpt>
      <trkpt lat="43.39927" lon="2.21988">
        <ele>705.3994751</ele>
        <time>2022-07-10T07:33:07Z</time>
      </trkpt>
      <trkpt lat="43.39925" lon="2.21988">
        <ele>705.74945068</ele>
        <time>2022-07-10T07:33:08Z</time>
      </trkpt>
      <trkpt lat="43.39922" lon="2.21986">
        <ele>706.04943848</ele>
        <time>2022-07-10T07:33:09Z</time>
      </trkpt>
      <trkpt lat="43.39921" lon="2.21985">
        <ele>706.28942871</ele>
        <time>2022-07-10T07:33:10Z</time>
      </trkpt>
      <trkpt lat="43.39919" lon="2.21984">
        <ele>706.56945801</ele>
        <time>2022-07-10T07:33:11Z</time>
      </trkpt>
      <trkpt lat="43.39918" lon="2.21981">
        <ele>706.81945801</ele>
        <time>2022-07-10T07:33:12Z</time>
      </trkpt>
      <trkpt lat="43.39916" lon="2.21979">
        <ele>707.05944824</ele>
        <time>2022-07-10T07:33:13Z</time>
      </trkpt>
      <trkpt lat="43.39916" lon="2.21978">
        <ele>707.32946777</ele>
        <time>2022-07-10T07:33:14Z</time>
      </trkpt>
      <trkpt lat="43.39915" lon="2.21977">
        <ele>707.6194458</ele>
        <time>2022-07-10T07:33:15Z</time>
      </trkpt>
      <trkpt lat="43.39914" lon="2.21975">
        <ele>707.82946777</ele>
        <time>2022-07-10T07:33:16Z</time>
      </trkpt>
      <trkpt lat="43.39912" lon="2.21973">
        <ele>708.0994873</ele>
        <time>2022-07-10T07:33:17Z</time>
      </trkpt>
      <trkpt lat="43.39911" lon="2.2197">
        <ele>708.3795166</ele>
        <time>2022-07-10T07:33:18Z</time>
      </trkpt>
      <trkpt lat="43.39909" lon="2.21969">
        <ele>708.6295166</ele>
        <time>2022-07-10T07:33:19Z</time>
      </trkpt>
      <trkpt lat="43.39909" lon="2.21967">
        <ele>708.95953369</ele>
        <time>2022-07-10T07:33:20Z</time>
      </trkpt>
      <trkpt lat="43.39908" lon="2.21965">
        <ele>709.29956055</ele>
        <time>2022-07-10T07:33:21Z</time>
      </trkpt>
      <trkpt lat="43.39907" lon="2.21963">
        <ele>709.58953857</ele>
        <time>2022-07-10T07:33:22Z</time>
      </trkpt>
      <trkpt lat="43.39904" lon="2.2196">
        <ele>709.80950928</ele>
        <time>2022-07-10T07:33:23Z</time>
      </trkpt>
      <trkpt lat="43.39903" lon="2.21959">
        <ele>710.06951904</ele>
        <time>2022-07-10T07:33:24Z</time>
      </trkpt>
      <trkpt lat="43.39902" lon="2.21958">
        <ele>710.26953125</ele>
        <time>2022-07-10T07:33:25Z</time>
      </trkpt>
      <trkpt lat="43.399" lon="2.21957">
        <ele>710.50952148</ele>
        <time>2022-07-10T07:33:26Z</time>
      </trkpt>
      <trkpt lat="43.39898" lon="2.21955">
        <ele>710.77954102</ele>
        <time>2022-07-10T07:33:27Z</time>
      </trkpt>
      <trkpt lat="43.39897" lon="2.21954">
        <ele>710.93951416</ele>
        <time>2022-07-10T07:33:28Z</time>
      </trkpt>
      <trkpt lat="43.39895" lon="2.21953">
        <ele>711.15948486</ele>
        <time>2022-07-10T07:33:29Z</time>
      </trkpt>
      <trkpt lat="43.39894" lon="2.21951">
        <ele>711.33947754</ele>
        <time>2022-07-10T07:33:30Z</time>
      </trkpt>
      <trkpt lat="43.39892" lon="2.21948">
        <ele>711.58947754</ele>
        <time>2022-07-10T07:33:31Z</time>
      </trkpt>
      <trkpt lat="43.39891" lon="2.21947">
        <ele>711.80944824</ele>
        <time>2022-07-10T07:33:32Z</time>
      </trkpt>
      <trkpt lat="43.39889" lon="2.21945">
        <ele>712.06945801</ele>
        <time>2022-07-10T07:33:33Z</time>
      </trkpt>
      <trkpt lat="43.39888" lon="2.21943">
        <ele>712.32946777</ele>
        <time>2022-07-10T07:33:34Z</time>
      </trkpt>
      <trkpt lat="43.39886" lon="2.21941">
        <ele>712.54943848</ele>
        <time>2022-07-10T07:33:35Z</time>
      </trkpt>
      <trkpt lat="43.39885" lon="2.2194">
        <ele>712.80944824</ele>
        <time>2022-07-10T07:33:36Z</time>
      </trkpt>
      <trkpt lat="43.39884" lon="2.21938">
        <ele>713.02941895</ele>
        <time>2022-07-10T07:33:37Z</time>
      </trkpt>
      <trkpt lat="43.39883" lon="2.21937">
        <ele>713.26940918</ele>
        <time>2022-07-10T07:33:38Z</time>
      </trkpt>
      <trkpt lat="43.39882" lon="2.21935">
        <ele>713.51940918</ele>
        <time>2022-07-10T07:33:39Z</time>
      </trkpt>
      <trkpt lat="43.39881" lon="2.21933">
        <ele>713.80938721</ele>
        <time>2022-07-10T07:33:40Z</time>
      </trkpt>
      <trkpt lat="43.3988" lon="2.21932">
        <ele>714.05938721</ele>
        <time>2022-07-10T07:33:41Z</time>
      </trkpt>
      <trkpt lat="43.39879" lon="2.21931">
        <ele>714.28936768</ele>
        <time>2022-07-10T07:33:42Z</time>
      </trkpt>
      <trkpt lat="43.39878" lon="2.21929">
        <ele>714.47937012</ele>
        <time>2022-07-10T07:33:43Z</time>
      </trkpt>
      <trkpt lat="43.39876" lon="2.21928">
        <ele>714.609375</ele>
        <time>2022-07-10T07:33:44Z</time>
      </trkpt>
      <trkpt lat="43.39874" lon="2.21925">
        <ele>714.79937744</ele>
        <time>2022-07-10T07:33:45Z</time>
      </trkpt>
      <trkpt lat="43.39873" lon="2.21923">
        <ele>715.00939941</ele>
        <time>2022-07-10T07:33:46Z</time>
      </trkpt>
      <trkpt lat="43.39872" lon="2.21922">
        <ele>715.22937012</ele>
        <time>2022-07-10T07:33:47Z</time>
      </trkpt>
      <trkpt lat="43.39871" lon="2.2192">
        <ele>715.46936035</ele>
        <time>2022-07-10T07:33:48Z</time>
      </trkpt>
      <trkpt lat="43.3987" lon="2.21918">
        <ele>715.68933105</ele>
        <time>2022-07-10T07:33:49Z</time>
      </trkpt>
      <trkpt lat="43.39869" lon="2.21916">
        <ele>715.89935303</ele>
        <time>2022-07-10T07:33:50Z</time>
      </trkpt>
      <trkpt lat="43.39869" lon="2.21914">
        <ele>716.1293335</ele>
        <time>2022-07-10T07:33:51Z</time>
      </trkpt>
      <trkpt lat="43.39868" lon="2.21911">
        <ele>716.35931396</ele>
        <time>2022-07-10T07:33:52Z</time>
      </trkpt>
      <trkpt lat="43.39866" lon="2.21908">
        <ele>716.5993042</ele>
        <time>2022-07-10T07:33:53Z</time>
      </trkpt>
      <trkpt lat="43.39864" lon="2.21906">
        <ele>716.83929443</ele>
        <time>2022-07-10T07:33:54Z</time>
      </trkpt>
      <trkpt lat="43.39863" lon="2.21904">
        <ele>717.01928711</ele>
        <time>2022-07-10T07:33:55Z</time>
      </trkpt>
      <trkpt lat="43.39862" lon="2.21902">
        <ele>717.21929932</ele>
        <time>2022-07-10T07:33:56Z</time>
      </trkpt>
      <trkpt lat="43.39861" lon="2.219">
        <ele>717.42932129</ele>
        <time>2022-07-10T07:33:57Z</time>
      </trkpt>
      <trkpt lat="43.3986" lon="2.21897">
        <ele>717.64929199</ele>
        <time>2022-07-10T07:33:58Z</time>
      </trkpt>
      <trkpt lat="43.39859" lon="2.21896">
        <ele>717.88928223</ele>
        <time>2022-07-10T07:33:59Z</time>
      </trkpt>
      <trkpt lat="43.39857" lon="2.21894">
        <ele>718.05926514</ele>
        <time>2022-07-10T07:34:00Z</time>
      </trkpt>
      <trkpt lat="43.39856" lon="2.21892">
        <ele>718.18927002</ele>
        <time>2022-07-10T07:34:01Z</time>
      </trkpt>
      <trkpt lat="43.39855" lon="2.2189">
        <ele>718.28924561</ele>
        <time>2022-07-10T07:34:02Z</time>
      </trkpt>
      <trkpt lat="43.39853" lon="2.21887">
        <ele>718.37927246</ele>
        <time>2022-07-10T07:34:03Z</time>
      </trkpt>
      <trkpt lat="43.39852" lon="2.21885">
        <ele>718.54925537</ele>
        <time>2022-07-10T07:34:04Z</time>
      </trkpt>
      <trkpt lat="43.39851" lon="2.21882">
        <ele>718.68927002</ele>
        <time>2022-07-10T07:34:05Z</time>
      </trkpt>
      <trkpt lat="43.39851" lon="2.2188">
        <ele>718.82928467</ele>
        <time>2022-07-10T07:34:06Z</time>
      </trkpt>
      <trkpt lat="43.3985" lon="2.21878">
        <ele>719.01928711</ele>
        <time>2022-07-10T07:34:07Z</time>
      </trkpt>
      <trkpt lat="43.3985" lon="2.21875">
        <ele>719.17926025</ele>
        <time>2022-07-10T07:34:08Z</time>
      </trkpt>
      <trkpt lat="43.39849" lon="2.21873">
        <ele>720.23925781</ele>
        <time>2022-07-10T07:34:09Z</time>
      </trkpt>
      <trkpt lat="43.39849" lon="2.21871">
        <ele>720.41925049</ele>
        <time>2022-07-10T07:34:10Z</time>
      </trkpt>
      <trkpt lat="43.39849" lon="2.21868">
        <ele>720.53924561</ele>
        <time>2022-07-10T07:34:11Z</time>
      </trkpt>
      <trkpt lat="43.39848" lon="2.21864">
        <ele>720.71923828</ele>
        <time>2022-07-10T07:34:12Z</time>
      </trkpt>
      <trkpt lat="43.39848" lon="2.21863">
        <ele>720.82922363</ele>
        <time>2022-07-10T07:34:13Z</time>
      </trkpt>
      <trkpt lat="43.39847" lon="2.2186">
        <ele>721.00921631</ele>
        <time>2022-07-10T07:34:14Z</time>
      </trkpt>
      <trkpt lat="43.39846" lon="2.21858">
        <ele>721.25921631</ele>
        <time>2022-07-10T07:34:15Z</time>
      </trkpt>
      <trkpt lat="43.39846" lon="2.21856">
        <ele>721.42919922</ele>
        <time>2022-07-10T07:34:16Z</time>
      </trkpt>
      <trkpt lat="43.39845" lon="2.21853">
        <ele>721.66918945</ele>
        <time>2022-07-10T07:34:17Z</time>
      </trkpt>
      <trkpt lat="43.39844" lon="2.2185">
        <ele>721.84918213</ele>
        <time>2022-07-10T07:34:18Z</time>
      </trkpt>
      <trkpt lat="43.39844" lon="2.21848">
        <ele>721.99920654</ele>
        <time>2022-07-10T07:34:19Z</time>
      </trkpt>
      <trkpt lat="43.39843" lon="2.21845">
        <ele>722.11920166</ele>
        <time>2022-07-10T07:34:20Z</time>
      </trkpt>
      <trkpt lat="43.39841" lon="2.21842">
        <ele>722.25921631</ele>
        <time>2022-07-10T07:34:21Z</time>
      </trkpt>
      <trkpt lat="43.3984" lon="2.21839">
        <ele>722.41918945</ele>
        <time>2022-07-10T07:34:22Z</time>
      </trkpt>
      <trkpt lat="43.39838" lon="2.21838">
        <ele>722.58917236</ele>
        <time>2022-07-10T07:34:23Z</time>
      </trkpt>
      <trkpt lat="43.39837" lon="2.21836">
        <ele>722.7791748</ele>
        <time>2022-07-10T07:34:24Z</time>
      </trkpt>
      <trkpt lat="43.39836" lon="2.21834">
        <ele>722.94915771</ele>
        <time>2022-07-10T07:34:25Z</time>
      </trkpt>
      <trkpt lat="43.39835" lon="2.21831">
        <ele>723.08917236</ele>
        <time>2022-07-10T07:34:26Z</time>
      </trkpt>
      <trkpt lat="43.39834" lon="2.21828">
        <ele>723.26916504</ele>
        <time>2022-07-10T07:34:27Z</time>
      </trkpt>
      <trkpt lat="43.39833" lon="2.21826">
        <ele>723.43914795</ele>
        <time>2022-07-10T07:34:28Z</time>
      </trkpt>
      <trkpt lat="43.39832" lon="2.21824">
        <ele>723.53912354</ele>
        <time>2022-07-10T07:34:29Z</time>
      </trkpt>
      <trkpt lat="43.3983" lon="2.2182">
        <ele>723.64910889</ele>
        <time>2022-07-10T07:34:30Z</time>
      </trkpt>
      <trkpt lat="43.39829" lon="2.21818">
        <ele>723.769104</ele>
        <time>2022-07-10T07:34:31Z</time>
      </trkpt>
      <trkpt lat="43.39829" lon="2.21815">
        <ele>723.7991333</ele>
        <time>2022-07-10T07:34:32Z</time>
      </trkpt>
      <trkpt lat="43.39828" lon="2.21812">
        <ele>723.89910889</ele>
        <time>2022-07-10T07:34:33Z</time>
      </trkpt>
      <trkpt lat="43.39827" lon="2.2181">
        <ele>723.97912598</ele>
        <time>2022-07-10T07:34:34Z</time>
      </trkpt>
      <trkpt lat="43.39825" lon="2.21807">
        <ele>724.03912354</ele>
        <time>2022-07-10T07:34:35Z</time>
      </trkpt>
      <trkpt lat="43.39824" lon="2.21804">
        <ele>724.12915039</ele>
        <time>2022-07-10T07:34:36Z</time>
      </trkpt>
      <trkpt lat="43.39823" lon="2.21801">
        <ele>724.20916748</ele>
        <time>2022-07-10T07:34:37Z</time>
      </trkpt>
      <trkpt lat="43.39823" lon="2.21797">
        <ele>724.20916748</ele>
        <time>2022-07-10T07:34:38Z</time>
      </trkpt>
      <trkpt lat="43.39823" lon="2.21793">
        <ele>724.2791748</ele>
        <time>2022-07-10T07:34:39Z</time>
      </trkpt>
      <trkpt lat="43.39823" lon="2.2179">
        <ele>724.3291626</ele>
        <time>2022-07-10T07:34:40Z</time>
      </trkpt>
      <trkpt lat="43.39823" lon="2.21787">
        <ele>724.5491333</ele>
        <time>2022-07-10T07:34:41Z</time>
      </trkpt>
      <trkpt lat="43.39823" lon="2.21783">
        <ele>724.73913574</ele>
        <time>2022-07-10T07:34:42Z</time>
      </trkpt>
      <trkpt lat="43.39823" lon="2.21778">
        <ele>724.84912109</ele>
        <time>2022-07-10T07:34:43Z</time>
      </trkpt>
      <trkpt lat="43.39823" lon="2.21775">
        <ele>724.97912598</ele>
        <time>2022-07-10T07:34:44Z</time>
      </trkpt>
      <trkpt lat="43.39822" lon="2.21773">
        <ele>724.92913818</ele>
        <time>2022-07-10T07:34:45Z</time>
      </trkpt>
      <trkpt lat="43.39821" lon="2.21769">
        <ele>724.99914551</ele>
        <time>2022-07-10T07:34:46Z</time>
      </trkpt>
      <trkpt lat="43.3982" lon="2.21765">
        <ele>725.0291748</ele>
        <time>2022-07-10T07:34:47Z</time>
      </trkpt>
      <trkpt lat="43.3982" lon="2.21762">
        <ele>725.0592041</ele>
        <time>2022-07-10T07:34:48Z</time>
      </trkpt>
      <trkpt lat="43.3982" lon="2.21758">
        <ele>725.20922852</ele>
        <time>2022-07-10T07:34:49Z</time>
      </trkpt>
      <trkpt lat="43.39821" lon="2.21755">
        <ele>725.29925537</ele>
        <time>2022-07-10T07:34:50Z</time>
      </trkpt>
      <trkpt lat="43.39821" lon="2.21751">
        <ele>725.41925049</ele>
        <time>2022-07-10T07:34:51Z</time>
      </trkpt>
      <trkpt lat="43.39821" lon="2.21746">
        <ele>725.51922607</ele>
        <time>2022-07-10T07:34:52Z</time>
      </trkpt>
      <trkpt lat="43.3982" lon="2.21742">
        <ele>725.5892334</ele>
        <time>2022-07-10T07:34:53Z</time>
      </trkpt>
      <trkpt lat="43.39819" lon="2.21739">
        <ele>725.75921631</ele>
        <time>2022-07-10T07:34:54Z</time>
      </trkpt>
      <trkpt lat="43.39818" lon="2.21736">
        <ele>725.82922363</ele>
        <time>2022-07-10T07:34:55Z</time>
      </trkpt>
      <trkpt lat="43.39816" lon="2.21733">
        <ele>725.93920898</ele>
        <time>2022-07-10T07:34:56Z</time>
      </trkpt>
      <trkpt lat="43.39813" lon="2.21727">
        <ele>725.90917969</ele>
        <time>2022-07-10T07:34:57Z</time>
      </trkpt>
      <trkpt lat="43.39811" lon="2.21724">
        <ele>725.76916504</ele>
        <time>2022-07-10T07:34:58Z</time>
      </trkpt>
      <trkpt lat="43.3981" lon="2.21721">
        <ele>725.61914062</ele>
        <time>2022-07-10T07:34:59Z</time>
      </trkpt>
      <trkpt lat="43.3981" lon="2.21718">
        <ele>725.37915039</ele>
        <time>2022-07-10T07:35:00Z</time>
      </trkpt>
      <trkpt lat="43.39809" lon="2.21714">
        <ele>725.0791626</ele>
        <time>2022-07-10T07:35:01Z</time>
      </trkpt>
      <trkpt lat="43.39806" lon="2.21708">
        <ele>724.59918213</ele>
        <time>2022-07-10T07:35:02Z</time>
      </trkpt>
      <trkpt lat="43.39806" lon="2.21703">
        <ele>724.20916748</ele>
        <time>2022-07-10T07:35:03Z</time>
      </trkpt>
      <trkpt lat="43.39805" lon="2.21698">
        <ele>723.87915039</ele>
        <time>2022-07-10T07:35:04Z</time>
      </trkpt>
      <trkpt lat="43.39804" lon="2.21693">
        <ele>723.63916016</ele>
        <time>2022-07-10T07:35:05Z</time>
      </trkpt>
      <trkpt lat="43.39804" lon="2.21687">
        <ele>723.59918213</ele>
        <time>2022-07-10T07:35:06Z</time>
      </trkpt>
      <trkpt lat="43.39803" lon="2.21682">
        <ele>723.46917725</ele>
        <time>2022-07-10T07:35:07Z</time>
      </trkpt>
      <trkpt lat="43.39801" lon="2.21677">
        <ele>723.23919678</ele>
        <time>2022-07-10T07:35:08Z</time>
      </trkpt>
      <trkpt lat="43.39799" lon="2.21674">
        <ele>723.23919678</ele>
        <time>2022-07-10T07:35:09Z</time>
      </trkpt>
      <trkpt lat="43.39797" lon="2.21672">
        <ele>723.47918701</ele>
        <time>2022-07-10T07:35:10Z</time>
      </trkpt>
      <trkpt lat="43.39795" lon="2.21671">
        <ele>723.69915771</ele>
        <time>2022-07-10T07:35:11Z</time>
      </trkpt>
      <trkpt lat="43.39792" lon="2.21671">
        <ele>724.10913086</ele>
        <time>2022-07-10T07:35:12Z</time>
      </trkpt>
      <trkpt lat="43.39789" lon="2.2167">
        <ele>724.38916016</ele>
        <time>2022-07-10T07:35:13Z</time>
      </trkpt>
      <trkpt lat="43.39787" lon="2.21669">
        <ele>724.5291748</ele>
        <time>2022-07-10T07:35:14Z</time>
      </trkpt>
      <trkpt lat="43.39784" lon="2.21667">
        <ele>724.76916504</ele>
        <time>2022-07-10T07:35:15Z</time>
      </trkpt>
      <trkpt lat="43.39781" lon="2.21665">
        <ele>725.04919434</ele>
        <time>2022-07-10T07:35:16Z</time>
      </trkpt>
      <trkpt lat="43.3978" lon="2.21665">
        <ele>725.35919189</ele>
        <time>2022-07-10T07:35:17Z</time>
      </trkpt>
      <trkpt lat="43.39778" lon="2.21664">
        <ele>725.60919189</ele>
        <time>2022-07-10T07:35:18Z</time>
      </trkpt>
      <trkpt lat="43.39775" lon="2.21662">
        <ele>725.99920654</ele>
        <time>2022-07-10T07:35:19Z</time>
      </trkpt>
      <trkpt lat="43.39774" lon="2.21661">
        <ele>726.42919922</ele>
        <time>2022-07-10T07:35:20Z</time>
      </trkpt>
      <trkpt lat="43.39772" lon="2.2166">
        <ele>726.7791748</ele>
        <time>2022-07-10T07:35:21Z</time>
      </trkpt>
      <trkpt lat="43.3977" lon="2.21658">
        <ele>727.14916992</ele>
        <time>2022-07-10T07:35:22Z</time>
      </trkpt>
      <trkpt lat="43.39768" lon="2.21656">
        <ele>727.5291748</ele>
        <time>2022-07-10T07:35:23Z</time>
      </trkpt>
      <trkpt lat="43.39764" lon="2.21652">
        <ele>727.90917969</ele>
        <time>2022-07-10T07:35:24Z</time>
      </trkpt>
      <trkpt lat="43.39762" lon="2.21648">
        <ele>728.39916992</ele>
        <time>2022-07-10T07:35:25Z</time>
      </trkpt>
      <trkpt lat="43.39761" lon="2.21646">
        <ele>728.90917969</ele>
        <time>2022-07-10T07:35:26Z</time>
      </trkpt>
      <trkpt lat="43.39759" lon="2.21645">
        <ele>729.36920166</ele>
        <time>2022-07-10T07:35:27Z</time>
      </trkpt>
      <trkpt lat="43.39757" lon="2.21643">
        <ele>729.75921631</ele>
        <time>2022-07-10T07:35:28Z</time>
      </trkpt>
      <trkpt lat="43.39754" lon="2.21641">
        <ele>730.03924561</ele>
        <time>2022-07-10T07:35:29Z</time>
      </trkpt>
      <trkpt lat="43.39751" lon="2.2164">
        <ele>730.24926758</ele>
        <time>2022-07-10T07:35:30Z</time>
      </trkpt>
      <trkpt lat="43.39748" lon="2.21638">
        <ele>730.30926514</ele>
        <time>2022-07-10T07:35:31Z</time>
      </trkpt>
      <trkpt lat="43.39746" lon="2.21637">
        <ele>730.40924072</ele>
        <time>2022-07-10T07:35:32Z</time>
      </trkpt>
      <trkpt lat="43.39742" lon="2.21637">
        <ele>730.50921631</ele>
        <time>2022-07-10T07:35:33Z</time>
      </trkpt>
      <trkpt lat="43.3974" lon="2.21636">
        <ele>730.57922363</ele>
        <time>2022-07-10T07:35:34Z</time>
      </trkpt>
      <trkpt lat="43.39737" lon="2.21635">
        <ele>730.74920654</ele>
        <time>2022-07-10T07:35:35Z</time>
      </trkpt>
      <trkpt lat="43.39734" lon="2.21635">
        <ele>730.73919678</ele>
        <time>2022-07-10T07:35:36Z</time>
      </trkpt>
      <trkpt lat="43.3973" lon="2.21634">
        <ele>730.60919189</ele>
        <time>2022-07-10T07:35:37Z</time>
      </trkpt>
      <trkpt lat="43.39726" lon="2.21633">
        <ele>730.35919189</ele>
        <time>2022-07-10T07:35:38Z</time>
      </trkpt>
      <trkpt lat="43.39724" lon="2.21633">
        <ele>729.96917725</ele>
        <time>2022-07-10T07:35:39Z</time>
      </trkpt>
      <trkpt lat="43.3972" lon="2.21632">
        <ele>729.47918701</ele>
        <time>2022-07-10T07:35:40Z</time>
      </trkpt>
      <trkpt lat="43.39718" lon="2.2163">
        <ele>729.20916748</ele>
        <time>2022-07-10T07:35:41Z</time>
      </trkpt>
      <trkpt lat="43.39714" lon="2.21628">
        <ele>729.18914795</ele>
        <time>2022-07-10T07:35:42Z</time>
      </trkpt>
      <trkpt lat="43.39712" lon="2.21629">
        <ele>729.15911865</ele>
        <time>2022-07-10T07:35:43Z</time>
      </trkpt>
      <trkpt lat="43.39709" lon="2.21628">
        <ele>729.38909912</ele>
        <time>2022-07-10T07:35:44Z</time>
      </trkpt>
      <trkpt lat="43.39707" lon="2.21629">
        <ele>729.54907227</ele>
        <time>2022-07-10T07:35:45Z</time>
      </trkpt>
      <trkpt lat="43.39705" lon="2.21629">
        <ele>729.63909912</ele>
        <time>2022-07-10T07:35:46Z</time>
      </trkpt>
      <trkpt lat="43.39701" lon="2.2163">
        <ele>729.90911865</ele>
        <time>2022-07-10T07:35:47Z</time>
      </trkpt>
      <trkpt lat="43.39698" lon="2.21631">
        <ele>730.15911865</ele>
        <time>2022-07-10T07:35:48Z</time>
      </trkpt>
      <trkpt lat="43.39697" lon="2.21633">
        <ele>730.32910156</ele>
        <time>2022-07-10T07:35:49Z</time>
      </trkpt>
      <trkpt lat="43.39694" lon="2.21634">
        <ele>730.70910645</ele>
        <time>2022-07-10T07:35:50Z</time>
      </trkpt>
      <trkpt lat="43.39691" lon="2.21634">
        <ele>730.92907715</ele>
        <time>2022-07-10T07:35:51Z</time>
      </trkpt>
      <trkpt lat="43.39688" lon="2.21636">
        <ele>731.21905518</ele>
        <time>2022-07-10T07:35:52Z</time>
      </trkpt>
      <trkpt lat="43.39685" lon="2.21637">
        <ele>731.56903076</ele>
        <time>2022-07-10T07:35:53Z</time>
      </trkpt>
      <trkpt lat="43.39684" lon="2.21638">
        <ele>731.74902344</ele>
        <time>2022-07-10T07:35:54Z</time>
      </trkpt>
      <trkpt lat="43.3968" lon="2.21641">
        <ele>732.02905273</ele>
        <time>2022-07-10T07:35:55Z</time>
      </trkpt>
      <trkpt lat="43.39678" lon="2.21641">
        <ele>732.27905273</ele>
        <time>2022-07-10T07:35:56Z</time>
      </trkpt>
      <trkpt lat="43.39675" lon="2.21643">
        <ele>732.45904541</ele>
        <time>2022-07-10T07:35:57Z</time>
      </trkpt>
      <trkpt lat="43.39673" lon="2.21644">
        <ele>732.66906738</ele>
        <time>2022-07-10T07:35:58Z</time>
      </trkpt>
      <trkpt lat="43.39671" lon="2.21646">
        <ele>732.89904785</ele>
        <time>2022-07-10T07:35:59Z</time>
      </trkpt>
      <trkpt lat="43.39668" lon="2.21648">
        <ele>733.04907227</ele>
        <time>2022-07-10T07:36:00Z</time>
      </trkpt>
      <trkpt lat="43.39665" lon="2.2165">
        <ele>733.24908447</ele>
        <time>2022-07-10T07:36:01Z</time>
      </trkpt>
      <trkpt lat="43.39663" lon="2.21652">
        <ele>733.47906494</ele>
        <time>2022-07-10T07:36:02Z</time>
      </trkpt>
      <trkpt lat="43.3966" lon="2.21653">
        <ele>733.5690918</ele>
        <time>2022-07-10T07:36:03Z</time>
      </trkpt>
      <trkpt lat="43.39657" lon="2.21654">
        <ele>733.73907471</ele>
        <time>2022-07-10T07:36:04Z</time>
      </trkpt>
      <trkpt lat="43.39653" lon="2.21656">
        <ele>733.85906982</ele>
        <time>2022-07-10T07:36:05Z</time>
      </trkpt>
      <trkpt lat="43.39651" lon="2.21657">
        <ele>733.91906738</ele>
        <time>2022-07-10T07:36:06Z</time>
      </trkpt>
      <trkpt lat="43.39649" lon="2.21658">
        <ele>733.99908447</ele>
        <time>2022-07-10T07:36:07Z</time>
      </trkpt>
      <trkpt lat="43.39647" lon="2.21659">
        <ele>734.10906982</ele>
        <time>2022-07-10T07:36:08Z</time>
      </trkpt>
      <trkpt lat="43.39644" lon="2.21661">
        <ele>734.27905273</ele>
        <time>2022-07-10T07:36:09Z</time>
      </trkpt>
      <trkpt lat="43.39641" lon="2.21662">
        <ele>734.42907715</ele>
        <time>2022-07-10T07:36:10Z</time>
      </trkpt>
      <trkpt lat="43.39639" lon="2.21663">
        <ele>734.62908936</ele>
        <time>2022-07-10T07:36:11Z</time>
      </trkpt>
      <trkpt lat="43.39637" lon="2.21663">
        <ele>734.7890625</ele>
        <time>2022-07-10T07:36:12Z</time>
      </trkpt>
      <trkpt lat="43.39634" lon="2.21663">
        <ele>734.94903564</ele>
        <time>2022-07-10T07:36:13Z</time>
      </trkpt>
      <trkpt lat="43.39631" lon="2.21665">
        <ele>735.14904785</ele>
        <time>2022-07-10T07:36:14Z</time>
      </trkpt>
      <trkpt lat="43.39628" lon="2.21667">
        <ele>735.32904053</ele>
        <time>2022-07-10T07:36:15Z</time>
      </trkpt>
      <trkpt lat="43.39625" lon="2.21669">
        <ele>735.46905518</ele>
        <time>2022-07-10T07:36:16Z</time>
      </trkpt>
      <trkpt lat="43.39622" lon="2.2167">
        <ele>735.59906006</ele>
        <time>2022-07-10T07:36:17Z</time>
      </trkpt>
      <trkpt lat="43.39618" lon="2.21671">
        <ele>735.67907715</ele>
        <time>2022-07-10T07:36:18Z</time>
      </trkpt>
      <trkpt lat="43.39617" lon="2.21672">
        <ele>735.80908203</ele>
        <time>2022-07-10T07:36:19Z</time>
      </trkpt>
      <trkpt lat="43.39615" lon="2.21672">
        <ele>735.95910645</ele>
        <time>2022-07-10T07:36:20Z</time>
      </trkpt>
      <trkpt lat="43.39613" lon="2.21673">
        <ele>736.15911865</ele>
        <time>2022-07-10T07:36:21Z</time>
      </trkpt>
      <trkpt lat="43.39608" lon="2.21674">
        <ele>736.269104</ele>
        <time>2022-07-10T07:36:22Z</time>
      </trkpt>
      <trkpt lat="43.39605" lon="2.21673">
        <ele>736.40911865</ele>
        <time>2022-07-10T07:36:23Z</time>
      </trkpt>
      <trkpt lat="43.39601" lon="2.21672">
        <ele>736.50909424</ele>
        <time>2022-07-10T07:36:24Z</time>
      </trkpt>
      <trkpt lat="43.39598" lon="2.21672">
        <ele>736.59912109</ele>
        <time>2022-07-10T07:36:25Z</time>
      </trkpt>
      <trkpt lat="43.39595" lon="2.21672">
        <ele>736.769104</ele>
        <time>2022-07-10T07:36:26Z</time>
      </trkpt>
      <trkpt lat="43.3959" lon="2.21671">
        <ele>736.90911865</ele>
        <time>2022-07-10T07:36:27Z</time>
      </trkpt>
      <trkpt lat="43.39588" lon="2.21671">
        <ele>737.10913086</ele>
        <time>2022-07-10T07:36:28Z</time>
      </trkpt>
      <trkpt lat="43.39586" lon="2.2167">
        <ele>737.20910645</ele>
        <time>2022-07-10T07:36:29Z</time>
      </trkpt>
      <trkpt lat="43.39583" lon="2.21669">
        <ele>737.34912109</ele>
        <time>2022-07-10T07:36:30Z</time>
      </trkpt>
      <trkpt lat="43.39579" lon="2.21667">
        <ele>737.49914551</ele>
        <time>2022-07-10T07:36:31Z</time>
      </trkpt>
      <trkpt lat="43.39576" lon="2.21665">
        <ele>737.63916016</ele>
        <time>2022-07-10T07:36:32Z</time>
      </trkpt>
      <trkpt lat="43.39575" lon="2.21663">
        <ele>737.7991333</ele>
        <time>2022-07-10T07:36:33Z</time>
      </trkpt>
      <trkpt lat="43.39573" lon="2.21662">
        <ele>737.96911621</ele>
        <time>2022-07-10T07:36:34Z</time>
      </trkpt>
      <trkpt lat="43.39571" lon="2.21661">
        <ele>738.10913086</ele>
        <time>2022-07-10T07:36:35Z</time>
      </trkpt>
      <trkpt lat="43.39568" lon="2.2166">
        <ele>738.21911621</ele>
        <time>2022-07-10T07:36:36Z</time>
      </trkpt>
      <trkpt lat="43.39566" lon="2.2166">
        <ele>738.35913086</ele>
        <time>2022-07-10T07:36:37Z</time>
      </trkpt>
      <trkpt lat="43.39564" lon="2.21659">
        <ele>738.50915527</ele>
        <time>2022-07-10T07:36:38Z</time>
      </trkpt>
      <trkpt lat="43.39562" lon="2.21657">
        <ele>738.68914795</ele>
        <time>2022-07-10T07:36:39Z</time>
      </trkpt>
      <trkpt lat="43.39559" lon="2.21653">
        <ele>738.83917236</ele>
        <time>2022-07-10T07:36:40Z</time>
      </trkpt>
      <trkpt lat="43.39557" lon="2.2165">
        <ele>738.99914551</ele>
        <time>2022-07-10T07:36:41Z</time>
      </trkpt>
      <trkpt lat="43.39555" lon="2.21647">
        <ele>739.05914307</ele>
        <time>2022-07-10T07:36:42Z</time>
      </trkpt>
      <trkpt lat="43.39552" lon="2.21644">
        <ele>739.21911621</ele>
        <time>2022-07-10T07:36:43Z</time>
      </trkpt>
      <trkpt lat="43.3955" lon="2.21641">
        <ele>739.38909912</ele>
        <time>2022-07-10T07:36:44Z</time>
      </trkpt>
      <trkpt lat="43.39545" lon="2.21637">
        <ele>739.54907227</ele>
        <time>2022-07-10T07:36:45Z</time>
      </trkpt>
      <trkpt lat="43.39543" lon="2.21635">
        <ele>739.70904541</ele>
        <time>2022-07-10T07:36:46Z</time>
      </trkpt>
      <trkpt lat="43.39541" lon="2.21633">
        <ele>739.73907471</ele>
        <time>2022-07-10T07:36:47Z</time>
      </trkpt>
      <trkpt lat="43.39538" lon="2.2163">
        <ele>739.77905273</ele>
        <time>2022-07-10T07:36:48Z</time>
      </trkpt>
      <trkpt lat="43.39534" lon="2.21626">
        <ele>739.86907959</ele>
        <time>2022-07-10T07:36:49Z</time>
      </trkpt>
      <trkpt lat="43.39532" lon="2.21623">
        <ele>739.91906738</ele>
        <time>2022-07-10T07:36:50Z</time>
      </trkpt>
      <trkpt lat="43.3953" lon="2.21622">
        <ele>740.07904053</ele>
        <time>2022-07-10T07:36:51Z</time>
      </trkpt>
      <trkpt lat="43.39526" lon="2.21622">
        <ele>740.17901611</ele>
        <time>2022-07-10T07:36:52Z</time>
      </trkpt>
      <trkpt lat="43.39524" lon="2.21621">
        <ele>740.31903076</ele>
        <time>2022-07-10T07:36:53Z</time>
      </trkpt>
      <trkpt lat="43.3952" lon="2.21619">
        <ele>740.46905518</ele>
        <time>2022-07-10T07:36:54Z</time>
      </trkpt>
      <trkpt lat="43.39518" lon="2.21618">
        <ele>740.46905518</ele>
        <time>2022-07-10T07:36:55Z</time>
      </trkpt>
      <trkpt lat="43.39514" lon="2.21618">
        <ele>740.5390625</ele>
        <time>2022-07-10T07:36:56Z</time>
      </trkpt>
      <trkpt lat="43.39511" lon="2.21618">
        <ele>740.62908936</ele>
        <time>2022-07-10T07:36:57Z</time>
      </trkpt>
      <trkpt lat="43.39507" lon="2.21617">
        <ele>740.65911865</ele>
        <time>2022-07-10T07:36:58Z</time>
      </trkpt>
      <trkpt lat="43.39502" lon="2.21617">
        <ele>740.70910645</ele>
        <time>2022-07-10T07:36:59Z</time>
      </trkpt>
      <trkpt lat="43.39499" lon="2.21616">
        <ele>740.74908447</ele>
        <time>2022-07-10T07:37:00Z</time>
      </trkpt>
      <trkpt lat="43.39496" lon="2.21615">
        <ele>740.68908691</ele>
        <time>2022-07-10T07:37:01Z</time>
      </trkpt>
      <trkpt lat="43.39493" lon="2.21614">
        <ele>740.67907715</ele>
        <time>2022-07-10T07:37:02Z</time>
      </trkpt>
      <trkpt lat="43.39488" lon="2.21613">
        <ele>740.72906494</ele>
        <time>2022-07-10T07:37:03Z</time>
      </trkpt>
      <trkpt lat="43.39486" lon="2.21613">
        <ele>740.86907959</ele>
        <time>2022-07-10T07:37:04Z</time>
      </trkpt>
      <trkpt lat="43.39483" lon="2.21612">
        <ele>741.05908203</ele>
        <time>2022-07-10T07:37:05Z</time>
      </trkpt>
      <trkpt lat="43.3948" lon="2.21611">
        <ele>741.3190918</ele>
        <time>2022-07-10T07:37:06Z</time>
      </trkpt>
      <trkpt lat="43.39476" lon="2.2161">
        <ele>741.48907471</ele>
        <time>2022-07-10T07:37:07Z</time>
      </trkpt>
      <trkpt lat="43.39473" lon="2.21609">
        <ele>741.58905029</ele>
        <time>2022-07-10T07:37:08Z</time>
      </trkpt>
      <trkpt lat="43.3947" lon="2.21608">
        <ele>741.72906494</ele>
        <time>2022-07-10T07:37:09Z</time>
      </trkpt>
      <trkpt lat="43.39467" lon="2.21606">
        <ele>741.77905273</ele>
        <time>2022-07-10T07:37:10Z</time>
      </trkpt>
      <trkpt lat="43.39465" lon="2.21604">
        <ele>741.83905029</ele>
        <time>2022-07-10T07:37:11Z</time>
      </trkpt>
      <trkpt lat="43.39461" lon="2.21602">
        <ele>741.92907715</ele>
        <time>2022-07-10T07:37:12Z</time>
      </trkpt>
      <trkpt lat="43.39458" lon="2.216">
        <ele>742.00909424</ele>
        <time>2022-07-10T07:37:13Z</time>
      </trkpt>
      <trkpt lat="43.39456" lon="2.21598">
        <ele>742.16906738</ele>
        <time>2022-07-10T07:37:14Z</time>
      </trkpt>
      <trkpt lat="43.39454" lon="2.21598">
        <ele>742.39904785</ele>
        <time>2022-07-10T07:37:15Z</time>
      </trkpt>
      <trkpt lat="43.39451" lon="2.21597">
        <ele>742.67907715</ele>
        <time>2022-07-10T07:37:16Z</time>
      </trkpt>
      <trkpt lat="43.39448" lon="2.21595">
        <ele>742.95910645</ele>
        <time>2022-07-10T07:37:17Z</time>
      </trkpt>
      <trkpt lat="43.39446" lon="2.21593">
        <ele>743.23913574</ele>
        <time>2022-07-10T07:37:18Z</time>
      </trkpt>
      <trkpt lat="43.39444" lon="2.21592">
        <ele>743.48913574</ele>
        <time>2022-07-10T07:37:19Z</time>
      </trkpt>
      <trkpt lat="43.39441" lon="2.21591">
        <ele>743.61914062</ele>
        <time>2022-07-10T07:37:20Z</time>
      </trkpt>
      <trkpt lat="43.39436" lon="2.21589">
        <ele>743.8291626</ele>
        <time>2022-07-10T07:37:21Z</time>
      </trkpt>
      <trkpt lat="43.39434" lon="2.21588">
        <ele>744.0791626</ele>
        <time>2022-07-10T07:37:22Z</time>
      </trkpt>
      <trkpt lat="43.39432" lon="2.21588">
        <ele>744.44915771</ele>
        <time>2022-07-10T07:37:23Z</time>
      </trkpt>
      <trkpt lat="43.3943" lon="2.21587">
        <ele>744.8291626</ele>
        <time>2022-07-10T07:37:24Z</time>
      </trkpt>
      <trkpt lat="43.39425" lon="2.21586">
        <ele>745.09918213</ele>
        <time>2022-07-10T07:37:25Z</time>
      </trkpt>
      <trkpt lat="43.39423" lon="2.21585">
        <ele>745.3092041</ele>
        <time>2022-07-10T07:37:26Z</time>
      </trkpt>
      <trkpt lat="43.39421" lon="2.21583">
        <ele>745.43920898</ele>
        <time>2022-07-10T07:37:27Z</time>
      </trkpt>
      <trkpt lat="43.39419" lon="2.21583">
        <ele>745.61920166</ele>
        <time>2022-07-10T07:37:28Z</time>
      </trkpt>
      <trkpt lat="43.39417" lon="2.21581">
        <ele>745.79919434</ele>
        <time>2022-07-10T07:37:29Z</time>
      </trkpt>
      <trkpt lat="43.39414" lon="2.21579">
        <ele>746.00921631</ele>
        <time>2022-07-10T07:37:30Z</time>
      </trkpt>
      <trkpt lat="43.39412" lon="2.21578">
        <ele>746.21923828</ele>
        <time>2022-07-10T07:37:31Z</time>
      </trkpt>
      <trkpt lat="43.3941" lon="2.21575">
        <ele>746.38922119</ele>
        <time>2022-07-10T07:37:32Z</time>
      </trkpt>
      <trkpt lat="43.39409" lon="2.21573">
        <ele>746.49920654</ele>
        <time>2022-07-10T07:37:33Z</time>
      </trkpt>
      <trkpt lat="43.39407" lon="2.21569">
        <ele>746.53918457</ele>
        <time>2022-07-10T07:37:34Z</time>
      </trkpt>
      <trkpt lat="43.39405" lon="2.21565">
        <ele>746.5791626</ele>
        <time>2022-07-10T07:37:35Z</time>
      </trkpt>
      <trkpt lat="43.39403" lon="2.21561">
        <ele>746.5791626</ele>
        <time>2022-07-10T07:37:36Z</time>
      </trkpt>
      <trkpt lat="43.39402" lon="2.21557">
        <ele>746.67913818</ele>
        <time>2022-07-10T07:37:37Z</time>
      </trkpt>
      <trkpt lat="43.394" lon="2.21551">
        <ele>746.76916504</ele>
        <time>2022-07-10T07:37:38Z</time>
      </trkpt>
      <trkpt lat="43.39398" lon="2.21547">
        <ele>746.81915283</ele>
        <time>2022-07-10T07:37:39Z</time>
      </trkpt>
      <trkpt lat="43.39397" lon="2.21543">
        <ele>746.96917725</ele>
        <time>2022-07-10T07:37:40Z</time>
      </trkpt>
      <trkpt lat="43.39396" lon="2.21541">
        <ele>747.08917236</ele>
        <time>2022-07-10T07:37:41Z</time>
      </trkpt>
      <trkpt lat="43.39394" lon="2.21538">
        <ele>747.14916992</ele>
        <time>2022-07-10T07:37:42Z</time>
      </trkpt>
      <trkpt lat="43.39393" lon="2.21535">
        <ele>747.18914795</ele>
        <time>2022-07-10T07:37:43Z</time>
      </trkpt>
      <trkpt lat="43.39391" lon="2.21532">
        <ele>747.13916016</ele>
        <time>2022-07-10T07:37:44Z</time>
      </trkpt>
      <trkpt lat="43.39391" lon="2.21529">
        <ele>747.10913086</ele>
        <time>2022-07-10T07:37:45Z</time>
      </trkpt>
      <trkpt lat="43.39389" lon="2.21527">
        <ele>747.07910156</ele>
        <time>2022-07-10T07:37:46Z</time>
      </trkpt>
      <trkpt lat="43.39388" lon="2.21523">
        <ele>747.019104</ele>
        <time>2022-07-10T07:37:47Z</time>
      </trkpt>
      <trkpt lat="43.39386" lon="2.21517">
        <ele>747.019104</ele>
        <time>2022-07-10T07:37:48Z</time>
      </trkpt>
      <trkpt lat="43.39384" lon="2.21514">
        <ele>747.02911377</ele>
        <time>2022-07-10T07:37:49Z</time>
      </trkpt>
      <trkpt lat="43.39382" lon="2.21511">
        <ele>747.13909912</ele>
        <time>2022-07-10T07:37:50Z</time>
      </trkpt>
      <trkpt lat="43.3938" lon="2.21508">
        <ele>747.27911377</ele>
        <time>2022-07-10T07:37:51Z</time>
      </trkpt>
      <trkpt lat="43.39376" lon="2.21504">
        <ele>747.47912598</ele>
        <time>2022-07-10T07:37:52Z</time>
      </trkpt>
      <trkpt lat="43.39374" lon="2.215">
        <ele>747.66912842</ele>
        <time>2022-07-10T07:37:53Z</time>
      </trkpt>
      <trkpt lat="43.39372" lon="2.21497">
        <ele>747.83911133</ele>
        <time>2022-07-10T07:37:54Z</time>
      </trkpt>
      <trkpt lat="43.39369" lon="2.21494">
        <ele>747.97912598</ele>
        <time>2022-07-10T07:37:55Z</time>
      </trkpt>
      <trkpt lat="43.39368" lon="2.2149">
        <ele>748.16912842</ele>
        <time>2022-07-10T07:37:56Z</time>
      </trkpt>
      <trkpt lat="43.39366" lon="2.21484">
        <ele>748.22912598</ele>
        <time>2022-07-10T07:37:57Z</time>
      </trkpt>
      <trkpt lat="43.39365" lon="2.21482">
        <ele>748.39910889</ele>
        <time>2022-07-10T07:37:58Z</time>
      </trkpt>
      <trkpt lat="43.39364" lon="2.21479">
        <ele>748.63909912</ele>
        <time>2022-07-10T07:37:59Z</time>
      </trkpt>
      <trkpt lat="43.39363" lon="2.21478">
        <ele>748.72912598</ele>
        <time>2022-07-10T07:38:00Z</time>
      </trkpt>
      <trkpt lat="43.39362" lon="2.21475">
        <ele>748.91912842</ele>
        <time>2022-07-10T07:38:01Z</time>
      </trkpt>
      <trkpt lat="43.39359" lon="2.2147">
        <ele>749.00915527</ele>
        <time>2022-07-10T07:38:02Z</time>
      </trkpt>
      <trkpt lat="43.39357" lon="2.21466">
        <ele>749.05914307</ele>
        <time>2022-07-10T07:38:03Z</time>
      </trkpt>
      <trkpt lat="43.39355" lon="2.21463">
        <ele>749.03912354</ele>
        <time>2022-07-10T07:38:04Z</time>
      </trkpt>
      <trkpt lat="43.39352" lon="2.2146">
        <ele>748.97912598</ele>
        <time>2022-07-10T07:38:05Z</time>
      </trkpt>
      <trkpt lat="43.39349" lon="2.21455">
        <ele>748.96911621</ele>
        <time>2022-07-10T07:38:06Z</time>
      </trkpt>
      <trkpt lat="43.39346" lon="2.21452">
        <ele>748.84912109</ele>
        <time>2022-07-10T07:38:07Z</time>
      </trkpt>
      <trkpt lat="43.39344" lon="2.21449">
        <ele>748.78912354</ele>
        <time>2022-07-10T07:38:08Z</time>
      </trkpt>
      <trkpt lat="43.39342" lon="2.21444">
        <ele>750.25909424</ele>
        <time>2022-07-10T07:38:09Z</time>
      </trkpt>
      <trkpt lat="43.39338" lon="2.21438">
        <ele>750.12908936</ele>
        <time>2022-07-10T07:38:10Z</time>
      </trkpt>
      <trkpt lat="43.39336" lon="2.21434">
        <ele>750.07910156</ele>
        <time>2022-07-10T07:38:11Z</time>
      </trkpt>
      <trkpt lat="43.39334" lon="2.2143">
        <ele>750.0690918</ele>
        <time>2022-07-10T07:38:12Z</time>
      </trkpt>
      <trkpt lat="43.39332" lon="2.21426">
        <ele>750.0690918</ele>
        <time>2022-07-10T07:38:13Z</time>
      </trkpt>
      <trkpt lat="43.3933" lon="2.21421">
        <ele>750.11907959</ele>
        <time>2022-07-10T07:38:14Z</time>
      </trkpt>
      <trkpt lat="43.39326" lon="2.21415">
        <ele>750.23907471</ele>
        <time>2022-07-10T07:38:15Z</time>
      </trkpt>
      <trkpt lat="43.39324" lon="2.21411">
        <ele>750.23907471</ele>
        <time>2022-07-10T07:38:16Z</time>
      </trkpt>
      <trkpt lat="43.39322" lon="2.21407">
        <ele>750.14904785</ele>
        <time>2022-07-10T07:38:17Z</time>
      </trkpt>
      <trkpt lat="43.3932" lon="2.21404">
        <ele>750.14904785</ele>
        <time>2022-07-10T07:38:18Z</time>
      </trkpt>
      <trkpt lat="43.39317" lon="2.21398">
        <ele>750.0090332</ele>
        <time>2022-07-10T07:38:19Z</time>
      </trkpt>
      <trkpt lat="43.39316" lon="2.21394">
        <ele>750.01904297</ele>
        <time>2022-07-10T07:38:20Z</time>
      </trkpt>
      <trkpt lat="43.39314" lon="2.2139">
        <ele>750.06903076</ele>
        <time>2022-07-10T07:38:21Z</time>
      </trkpt>
      <trkpt lat="43.39312" lon="2.21385">
        <ele>750.02905273</ele>
        <time>2022-07-10T07:38:22Z</time>
      </trkpt>
      <trkpt lat="43.3931" lon="2.21381">
        <ele>750.09906006</ele>
        <time>2022-07-10T07:38:23Z</time>
      </trkpt>
      <trkpt lat="43.39308" lon="2.21377">
        <ele>750.0090332</ele>
        <time>2022-07-10T07:38:24Z</time>
      </trkpt>
      <trkpt lat="43.39305" lon="2.21373">
        <ele>750.02905273</ele>
        <time>2022-07-10T07:38:25Z</time>
      </trkpt>
      <trkpt lat="43.39302" lon="2.21369">
        <ele>750.06903076</ele>
        <time>2022-07-10T07:38:26Z</time>
      </trkpt>
      <trkpt lat="43.39299" lon="2.21366">
        <ele>749.97900391</ele>
        <time>2022-07-10T07:38:27Z</time>
      </trkpt>
      <trkpt lat="43.39296" lon="2.21363">
        <ele>750.10900879</ele>
        <time>2022-07-10T07:38:28Z</time>
      </trkpt>
      <trkpt lat="43.39292" lon="2.21358">
        <ele>750.01898193</ele>
        <time>2022-07-10T07:38:29Z</time>
      </trkpt>
      <trkpt lat="43.39289" lon="2.21355">
        <ele>750.0289917</ele>
        <time>2022-07-10T07:38:30Z</time>
      </trkpt>
      <trkpt lat="43.39287" lon="2.21352">
        <ele>750.13897705</ele>
        <time>2022-07-10T07:38:31Z</time>
      </trkpt>
      <trkpt lat="43.39285" lon="2.21349">
        <ele>750.13897705</ele>
        <time>2022-07-10T07:38:32Z</time>
      </trkpt>
      <trkpt lat="43.3928" lon="2.21342">
        <ele>750.2789917</ele>
        <time>2022-07-10T07:38:33Z</time>
      </trkpt>
      <trkpt lat="43.39277" lon="2.21337">
        <ele>750.20898438</ele>
        <time>2022-07-10T07:38:34Z</time>
      </trkpt>
      <trkpt lat="43.39274" lon="2.21333">
        <ele>750.10900879</ele>
        <time>2022-07-10T07:38:35Z</time>
      </trkpt>
      <trkpt lat="43.39271" lon="2.2133">
        <ele>749.97900391</ele>
        <time>2022-07-10T07:38:36Z</time>
      </trkpt>
      <trkpt lat="43.39268" lon="2.21328">
        <ele>749.81903076</ele>
        <time>2022-07-10T07:38:37Z</time>
      </trkpt>
      <trkpt lat="43.39264" lon="2.21323">
        <ele>749.81903076</ele>
        <time>2022-07-10T07:38:38Z</time>
      </trkpt>
      <trkpt lat="43.3926" lon="2.21319">
        <ele>749.86901855</ele>
        <time>2022-07-10T07:38:39Z</time>
      </trkpt>
      <trkpt lat="43.39257" lon="2.21316">
        <ele>749.72900391</ele>
        <time>2022-07-10T07:38:40Z</time>
      </trkpt>
      <trkpt lat="43.39254" lon="2.21313">
        <ele>749.67901611</ele>
        <time>2022-07-10T07:38:41Z</time>
      </trkpt>
      <trkpt lat="43.39249" lon="2.21306">
        <ele>749.47900391</ele>
        <time>2022-07-10T07:38:42Z</time>
      </trkpt>
      <trkpt lat="43.39246" lon="2.21301">
        <ele>749.06903076</ele>
        <time>2022-07-10T07:38:43Z</time>
      </trkpt>
      <trkpt lat="43.39243" lon="2.21297">
        <ele>749.0090332</ele>
        <time>2022-07-10T07:38:44Z</time>
      </trkpt>
      <trkpt lat="43.39241" lon="2.21294">
        <ele>748.89904785</ele>
        <time>2022-07-10T07:38:45Z</time>
      </trkpt>
      <trkpt lat="43.39238" lon="2.2129">
        <ele>748.61901855</ele>
        <time>2022-07-10T07:38:46Z</time>
      </trkpt>
      <trkpt lat="43.39233" lon="2.21285">
        <ele>748.47900391</ele>
        <time>2022-07-10T07:38:47Z</time>
      </trkpt>
      <trkpt lat="43.39229" lon="2.21281">
        <ele>748.28900146</ele>
        <time>2022-07-10T07:38:48Z</time>
      </trkpt>
      <trkpt lat="43.39226" lon="2.21278">
        <ele>747.92901611</ele>
        <time>2022-07-10T07:38:49Z</time>
      </trkpt>
      <trkpt lat="43.3923" lon="2.21279">
        <ele>748.19897461</ele>
        <time>2022-07-10T07:39:01Z</time>
      </trkpt>
      <trkpt lat="43.39231" lon="2.21279">
        <ele>748.2489624</ele>
        <time>2022-07-10T07:39:02Z</time>
      </trkpt>
      <trkpt lat="43.39232" lon="2.21278">
        <ele>748.2989502</ele>
        <time>2022-07-10T07:39:03Z</time>
      </trkpt>
      <trkpt lat="43.39232" lon="2.21276">
        <ele>748.31896973</ele>
        <time>2022-07-10T07:39:04Z</time>
      </trkpt>
      <trkpt lat="43.39232" lon="2.21273">
        <ele>748.32897949</ele>
        <time>2022-07-10T07:39:05Z</time>
      </trkpt>
      <trkpt lat="43.39232" lon="2.2127">
        <ele>748.28900146</ele>
        <time>2022-07-10T07:39:06Z</time>
      </trkpt>
      <trkpt lat="43.39233" lon="2.21266">
        <ele>748.17901611</ele>
        <time>2022-07-10T07:39:07Z</time>
      </trkpt>
      <trkpt lat="43.39233" lon="2.21263">
        <ele>748.09899902</ele>
        <time>2022-07-10T07:39:08Z</time>
      </trkpt>
      <trkpt lat="43.39234" lon="2.2126">
        <ele>748.08898926</ele>
        <time>2022-07-10T07:39:09Z</time>
      </trkpt>
      <trkpt lat="43.39234" lon="2.21259">
        <ele>748.16900635</ele>
        <time>2022-07-10T07:39:10Z</time>
      </trkpt>
      <trkpt lat="43.39235" lon="2.21257">
        <ele>748.28900146</ele>
        <time>2022-07-10T07:39:11Z</time>
      </trkpt>
      <trkpt lat="43.39241" lon="2.21249">
        <ele>748.08898926</ele>
        <time>2022-07-10T07:39:35Z</time>
      </trkpt>
      <trkpt lat="43.39248" lon="2.21239">
        <ele>749.92901611</ele>
        <time>2022-07-10T07:40:16Z</time>
      </trkpt>
      <trkpt lat="43.39249" lon="2.21238">
        <ele>749.92901611</ele>
        <time>2022-07-10T07:40:17Z</time>
      </trkpt>
      <trkpt lat="43.3925" lon="2.21237">
        <ele>749.92901611</ele>
        <time>2022-07-10T07:40:18Z</time>
      </trkpt>
      <trkpt lat="43.3925" lon="2.21236">
        <ele>749.93902588</ele>
        <time>2022-07-10T07:40:19Z</time>
      </trkpt>
      <trkpt lat="43.3925" lon="2.21235">
        <ele>749.96905518</ele>
        <time>2022-07-10T07:40:20Z</time>
      </trkpt>
      <trkpt lat="43.39249" lon="2.21233">
        <ele>750.0390625</ele>
        <time>2022-07-10T07:40:21Z</time>
      </trkpt>
      <trkpt lat="43.39249" lon="2.21232">
        <ele>750.09906006</ele>
        <time>2022-07-10T07:40:22Z</time>
      </trkpt>
      <trkpt lat="43.39258" lon="2.21236">
        <ele>750.76904297</ele>
        <time>2022-07-10T07:40:57Z</time>
      </trkpt>
      <trkpt lat="43.39258" lon="2.21234">
        <ele>750.79907227</ele>
        <time>2022-07-10T07:40:58Z</time>
      </trkpt>
      <trkpt lat="43.39258" lon="2.21233">
        <ele>750.82910156</ele>
        <time>2022-07-10T07:40:59Z</time>
      </trkpt>
      <trkpt lat="43.39258" lon="2.21232">
        <ele>750.79907227</ele>
        <time>2022-07-10T07:41:00Z</time>
      </trkpt>
      <trkpt lat="43.39258" lon="2.21231">
        <ele>750.85906982</ele>
        <time>2022-07-10T07:41:01Z</time>
      </trkpt>
      <trkpt lat="43.39257" lon="2.21228">
        <ele>750.86907959</ele>
        <time>2022-07-10T07:41:02Z</time>
      </trkpt>
      <trkpt lat="43.39256" lon="2.21227">
        <ele>750.86907959</ele>
        <time>2022-07-10T07:41:03Z</time>
      </trkpt>
      <trkpt lat="43.39255" lon="2.21227">
        <ele>750.86907959</ele>
        <time>2022-07-10T07:41:04Z</time>
      </trkpt>
      <trkpt lat="43.39254" lon="2.21227">
        <ele>750.88909912</ele>
        <time>2022-07-10T07:41:05Z</time>
      </trkpt>
      <trkpt lat="43.39253" lon="2.21227">
        <ele>750.88909912</ele>
        <time>2022-07-10T07:41:06Z</time>
      </trkpt>
      <trkpt lat="43.39252" lon="2.21227">
        <ele>750.84912109</ele>
        <time>2022-07-10T07:41:07Z</time>
      </trkpt>
      <trkpt lat="43.39251" lon="2.21227">
        <ele>750.70910645</ele>
        <time>2022-07-10T07:41:08Z</time>
      </trkpt>
      <trkpt lat="43.3925" lon="2.21227">
        <ele>751.84912109</ele>
        <time>2022-07-10T07:41:09Z</time>
      </trkpt>
      <trkpt lat="43.39248" lon="2.21227">
        <ele>751.64910889</ele>
        <time>2022-07-10T07:41:10Z</time>
      </trkpt>
      <trkpt lat="43.39247" lon="2.21227">
        <ele>751.43908691</ele>
        <time>2022-07-10T07:41:11Z</time>
      </trkpt>
      <trkpt lat="43.39246" lon="2.21228">
        <ele>751.3190918</ele>
        <time>2022-07-10T07:41:12Z</time>
      </trkpt>
      <trkpt lat="43.39245" lon="2.21228">
        <ele>751.22906494</ele>
        <time>2022-07-10T07:41:13Z</time>
      </trkpt>
      <trkpt lat="43.39243" lon="2.21228">
        <ele>751.11907959</ele>
        <time>2022-07-10T07:41:14Z</time>
      </trkpt>
      <trkpt lat="43.39242" lon="2.21226">
        <ele>750.98907471</ele>
        <time>2022-07-10T07:41:15Z</time>
      </trkpt>
      <trkpt lat="43.3924" lon="2.21225">
        <ele>750.87908936</ele>
        <time>2022-07-10T07:41:16Z</time>
      </trkpt>
      <trkpt lat="43.39239" lon="2.21224">
        <ele>750.73907471</ele>
        <time>2022-07-10T07:41:17Z</time>
      </trkpt>
      <trkpt lat="43.3924" lon="2.21224">
        <ele>750.519104</ele>
        <time>2022-07-10T07:41:20Z</time>
      </trkpt>
      <trkpt lat="43.39238" lon="2.21222">
        <ele>750.41912842</ele>
        <time>2022-07-10T07:41:23Z</time>
      </trkpt>
      <trkpt lat="43.39237" lon="2.21218">
        <ele>750.30914307</ele>
        <time>2022-07-10T07:41:24Z</time>
      </trkpt>
      <trkpt lat="43.39236" lon="2.21216">
        <ele>750.06915283</ele>
        <time>2022-07-10T07:41:25Z</time>
      </trkpt>
      <trkpt lat="43.39235" lon="2.21212">
        <ele>749.80914307</ele>
        <time>2022-07-10T07:41:26Z</time>
      </trkpt>
      <trkpt lat="43.39234" lon="2.21208">
        <ele>749.5491333</ele>
        <time>2022-07-10T07:41:27Z</time>
      </trkpt>
      <trkpt lat="43.39232" lon="2.21199">
        <ele>749.27911377</ele>
        <time>2022-07-10T07:41:28Z</time>
      </trkpt>
      <trkpt lat="43.39231" lon="2.21194">
        <ele>749.0491333</ele>
        <time>2022-07-10T07:41:29Z</time>
      </trkpt>
      <trkpt lat="43.3923" lon="2.21188">
        <ele>748.92913818</ele>
        <time>2022-07-10T07:41:30Z</time>
      </trkpt>
      <trkpt lat="43.39229" lon="2.21183">
        <ele>748.52911377</ele>
        <time>2022-07-10T07:41:31Z</time>
      </trkpt>
      <trkpt lat="43.39228" lon="2.2118">
        <ele>748.08911133</ele>
        <time>2022-07-10T07:41:32Z</time>
      </trkpt>
      <trkpt lat="43.39227" lon="2.21172">
        <ele>747.66912842</ele>
        <time>2022-07-10T07:41:33Z</time>
      </trkpt>
      <trkpt lat="43.39226" lon="2.21166">
        <ele>747.18914795</ele>
        <time>2022-07-10T07:41:34Z</time>
      </trkpt>
      <trkpt lat="43.39225" lon="2.21159">
        <ele>746.85913086</ele>
        <time>2022-07-10T07:41:35Z</time>
      </trkpt>
      <trkpt lat="43.39225" lon="2.21153">
        <ele>746.62915039</ele>
        <time>2022-07-10T07:41:36Z</time>
      </trkpt>
      <trkpt lat="43.39225" lon="2.21148">
        <ele>746.28912354</ele>
        <time>2022-07-10T07:41:37Z</time>
      </trkpt>
      <trkpt lat="43.39224" lon="2.21139">
        <ele>745.92913818</ele>
        <time>2022-07-10T07:41:38Z</time>
      </trkpt>
      <trkpt lat="43.39224" lon="2.21132">
        <ele>745.51916504</ele>
        <time>2022-07-10T07:41:39Z</time>
      </trkpt>
      <trkpt lat="43.39224" lon="2.21125">
        <ele>745.25915527</ele>
        <time>2022-07-10T07:41:40Z</time>
      </trkpt>
      <trkpt lat="43.39224" lon="2.21119">
        <ele>745.01916504</ele>
        <time>2022-07-10T07:41:41Z</time>
      </trkpt>
      <trkpt lat="43.39224" lon="2.21108">
        <ele>744.5791626</ele>
        <time>2022-07-10T07:41:42Z</time>
      </trkpt>
      <trkpt lat="43.39223" lon="2.21101">
        <ele>744.19915771</ele>
        <time>2022-07-10T07:41:43Z</time>
      </trkpt>
      <trkpt lat="43.39222" lon="2.21095">
        <ele>743.84918213</ele>
        <time>2022-07-10T07:41:44Z</time>
      </trkpt>
      <trkpt lat="43.39221" lon="2.21088">
        <ele>743.45916748</ele>
        <time>2022-07-10T07:41:45Z</time>
      </trkpt>
      <trkpt lat="43.39221" lon="2.21082">
        <ele>743.38916016</ele>
        <time>2022-07-10T07:41:46Z</time>
      </trkpt>
      <trkpt lat="43.39224" lon="2.21075">
        <ele>743.33917236</ele>
        <time>2022-07-10T07:41:47Z</time>
      </trkpt>
      <trkpt lat="43.39225" lon="2.2107">
        <ele>743.12915039</ele>
        <time>2022-07-10T07:41:48Z</time>
      </trkpt>
      <trkpt lat="43.39227" lon="2.21064">
        <ele>743.25915527</ele>
        <time>2022-07-10T07:41:49Z</time>
      </trkpt>
      <trkpt lat="43.39229" lon="2.2106">
        <ele>743.21917725</ele>
        <time>2022-07-10T07:41:50Z</time>
      </trkpt>
      <trkpt lat="43.39233" lon="2.21055">
        <ele>743.29919434</ele>
        <time>2022-07-10T07:41:51Z</time>
      </trkpt>
      <trkpt lat="43.39235" lon="2.21052">
        <ele>743.5291748</ele>
        <time>2022-07-10T07:41:52Z</time>
      </trkpt>
      <trkpt lat="43.39237" lon="2.2105">
        <ele>743.5291748</ele>
        <time>2022-07-10T07:41:53Z</time>
      </trkpt>
      <trkpt lat="43.39237" lon="2.21039">
        <ele>744.28918457</ele>
        <time>2022-07-10T07:42:42Z</time>
      </trkpt>
      <trkpt lat="43.39234" lon="2.21039">
        <ele>743.99920654</ele>
        <time>2022-07-10T07:42:43Z</time>
      </trkpt>
      <trkpt lat="43.39232" lon="2.21038">
        <ele>743.82922363</ele>
        <time>2022-07-10T07:42:44Z</time>
      </trkpt>
      <trkpt lat="43.39231" lon="2.21035">
        <ele>743.57922363</ele>
        <time>2022-07-10T07:42:45Z</time>
      </trkpt>
      <trkpt lat="43.39231" lon="2.21031">
        <ele>743.3392334</ele>
        <time>2022-07-10T07:42:46Z</time>
      </trkpt>
      <trkpt lat="43.39232" lon="2.21028">
        <ele>743.21923828</ele>
        <time>2022-07-10T07:42:47Z</time>
      </trkpt>
      <trkpt lat="43.39231" lon="2.21025">
        <ele>743.19921875</ele>
        <time>2022-07-10T07:42:48Z</time>
      </trkpt>
      <trkpt lat="43.39231" lon="2.21022">
        <ele>743.06921387</ele>
        <time>2022-07-10T07:42:49Z</time>
      </trkpt>
      <trkpt lat="43.39232" lon="2.21017">
        <ele>742.84924316</ele>
        <time>2022-07-10T07:42:50Z</time>
      </trkpt>
      <trkpt lat="43.39232" lon="2.21014">
        <ele>742.5892334</ele>
        <time>2022-07-10T07:42:51Z</time>
      </trkpt>
      <trkpt lat="43.39232" lon="2.2101">
        <ele>742.19921875</ele>
        <time>2022-07-10T07:42:52Z</time>
      </trkpt>
      <trkpt lat="43.39232" lon="2.21006">
        <ele>741.93920898</ele>
        <time>2022-07-10T07:42:53Z</time>
      </trkpt>
      <trkpt lat="43.39231" lon="2.21">
        <ele>741.77923584</ele>
        <time>2022-07-10T07:42:54Z</time>
      </trkpt>
      <trkpt lat="43.39231" lon="2.20997">
        <ele>741.62921143</ele>
        <time>2022-07-10T07:42:55Z</time>
      </trkpt>
      <trkpt lat="43.3923" lon="2.20991">
        <ele>741.46923828</ele>
        <time>2022-07-10T07:42:56Z</time>
      </trkpt>
      <trkpt lat="43.39229" lon="2.20986">
        <ele>741.30926514</ele>
        <time>2022-07-10T07:42:57Z</time>
      </trkpt>
      <trkpt lat="43.39228" lon="2.20978">
        <ele>741.20928955</ele>
        <time>2022-07-10T07:42:58Z</time>
      </trkpt>
      <trkpt lat="43.39228" lon="2.20973">
        <ele>741.07928467</ele>
        <time>2022-07-10T07:42:59Z</time>
      </trkpt>
      <trkpt lat="43.39227" lon="2.20968">
        <ele>741.00927734</ele>
        <time>2022-07-10T07:43:00Z</time>
      </trkpt>
      <trkpt lat="43.39227" lon="2.20962">
        <ele>740.92926025</ele>
        <time>2022-07-10T07:43:01Z</time>
      </trkpt>
      <trkpt lat="43.39226" lon="2.20957">
        <ele>740.8392334</ele>
        <time>2022-07-10T07:43:02Z</time>
      </trkpt>
      <trkpt lat="43.39226" lon="2.2095">
        <ele>740.82922363</ele>
        <time>2022-07-10T07:43:03Z</time>
      </trkpt>
      <trkpt lat="43.39226" lon="2.20945">
        <ele>740.70922852</ele>
        <time>2022-07-10T07:43:04Z</time>
      </trkpt>
      <trkpt lat="43.39225" lon="2.20941">
        <ele>740.67919922</ele>
        <time>2022-07-10T07:43:05Z</time>
      </trkpt>
      <trkpt lat="43.39225" lon="2.20937">
        <ele>740.58917236</ele>
        <time>2022-07-10T07:43:06Z</time>
      </trkpt>
      <trkpt lat="43.39224" lon="2.20931">
        <ele>740.47918701</ele>
        <time>2022-07-10T07:43:07Z</time>
      </trkpt>
      <trkpt lat="43.39223" lon="2.20925">
        <ele>740.54919434</ele>
        <time>2022-07-10T07:43:08Z</time>
      </trkpt>
      <trkpt lat="43.39223" lon="2.2092">
        <ele>741.7791748</ele>
        <time>2022-07-10T07:43:09Z</time>
      </trkpt>
      <trkpt lat="43.39222" lon="2.20915">
        <ele>741.78918457</ele>
        <time>2022-07-10T07:43:10Z</time>
      </trkpt>
      <trkpt lat="43.39221" lon="2.20909">
        <ele>741.75915527</ele>
        <time>2022-07-10T07:43:11Z</time>
      </trkpt>
      <trkpt lat="43.3922" lon="2.20904">
        <ele>741.56915283</ele>
        <time>2022-07-10T07:43:12Z</time>
      </trkpt>
      <trkpt lat="43.3922" lon="2.20901">
        <ele>741.34918213</ele>
        <time>2022-07-10T07:43:13Z</time>
      </trkpt>
      <trkpt lat="43.39219" lon="2.20897">
        <ele>741.23919678</ele>
        <time>2022-07-10T07:43:14Z</time>
      </trkpt>
      <trkpt lat="43.39219" lon="2.20892">
        <ele>741.26922607</ele>
        <time>2022-07-10T07:43:15Z</time>
      </trkpt>
      <trkpt lat="43.39219" lon="2.20888">
        <ele>741.44921875</ele>
        <time>2022-07-10T07:43:16Z</time>
      </trkpt>
      <trkpt lat="43.39219" lon="2.20884">
        <ele>741.49920654</ele>
        <time>2022-07-10T07:43:17Z</time>
      </trkpt>
      <trkpt lat="43.39219" lon="2.2088">
        <ele>741.61920166</ele>
        <time>2022-07-10T07:43:18Z</time>
      </trkpt>
      <trkpt lat="43.39219" lon="2.20877">
        <ele>741.70922852</ele>
        <time>2022-07-10T07:43:19Z</time>
      </trkpt>
      <trkpt lat="43.39218" lon="2.20874">
        <ele>741.68920898</ele>
        <time>2022-07-10T07:43:20Z</time>
      </trkpt>
      <trkpt lat="43.39217" lon="2.20866">
        <ele>741.8092041</ele>
        <time>2022-07-10T07:43:21Z</time>
      </trkpt>
      <trkpt lat="43.39215" lon="2.20861">
        <ele>741.82922363</ele>
        <time>2022-07-10T07:43:22Z</time>
      </trkpt>
      <trkpt lat="43.39214" lon="2.20857">
        <ele>741.86920166</ele>
        <time>2022-07-10T07:43:23Z</time>
      </trkpt>
      <trkpt lat="43.39215" lon="2.20854">
        <ele>741.91918945</ele>
        <time>2022-07-10T07:43:24Z</time>
      </trkpt>
      <trkpt lat="43.39215" lon="2.20848">
        <ele>741.92919922</ele>
        <time>2022-07-10T07:43:25Z</time>
      </trkpt>
      <trkpt lat="43.39215" lon="2.20844">
        <ele>741.99920654</ele>
        <time>2022-07-10T07:43:26Z</time>
      </trkpt>
      <trkpt lat="43.39214" lon="2.20841">
        <ele>742.06921387</ele>
        <time>2022-07-10T07:43:27Z</time>
      </trkpt>
      <trkpt lat="43.39214" lon="2.20838">
        <ele>742.12921143</ele>
        <time>2022-07-10T07:43:28Z</time>
      </trkpt>
      <trkpt lat="43.39213" lon="2.20832">
        <ele>742.17919922</ele>
        <time>2022-07-10T07:43:29Z</time>
      </trkpt>
      <trkpt lat="43.39213" lon="2.20825">
        <ele>742.22918701</ele>
        <time>2022-07-10T07:43:30Z</time>
      </trkpt>
      <trkpt lat="43.39213" lon="2.20821">
        <ele>742.22918701</ele>
        <time>2022-07-10T07:43:31Z</time>
      </trkpt>
      <trkpt lat="43.39214" lon="2.20819">
        <ele>742.21917725</ele>
        <time>2022-07-10T07:43:32Z</time>
      </trkpt>
      <trkpt lat="43.39214" lon="2.20815">
        <ele>742.10919189</ele>
        <time>2022-07-10T07:43:33Z</time>
      </trkpt>
      <trkpt lat="43.39214" lon="2.20808">
        <ele>741.91918945</ele>
        <time>2022-07-10T07:43:34Z</time>
      </trkpt>
      <trkpt lat="43.39214" lon="2.20804">
        <ele>741.90917969</ele>
        <time>2022-07-10T07:43:35Z</time>
      </trkpt>
      <trkpt lat="43.39215" lon="2.208">
        <ele>741.89916992</ele>
        <time>2022-07-10T07:43:36Z</time>
      </trkpt>
      <trkpt lat="43.39215" lon="2.20795">
        <ele>741.93914795</ele>
        <time>2022-07-10T07:43:37Z</time>
      </trkpt>
      <trkpt lat="43.39215" lon="2.2079">
        <ele>742.0491333</ele>
        <time>2022-07-10T07:43:38Z</time>
      </trkpt>
      <trkpt lat="43.39215" lon="2.20783">
        <ele>741.92913818</ele>
        <time>2022-07-10T07:43:39Z</time>
      </trkpt>
      <trkpt lat="43.39215" lon="2.20779">
        <ele>741.91912842</ele>
        <time>2022-07-10T07:43:40Z</time>
      </trkpt>
      <trkpt lat="43.39213" lon="2.20775">
        <ele>741.84912109</ele>
        <time>2022-07-10T07:43:41Z</time>
      </trkpt>
      <trkpt lat="43.39214" lon="2.2077">
        <ele>741.82910156</ele>
        <time>2022-07-10T07:43:42Z</time>
      </trkpt>
      <trkpt lat="43.39214" lon="2.20766">
        <ele>741.95910645</ele>
        <time>2022-07-10T07:43:43Z</time>
      </trkpt>
      <trkpt lat="43.39213" lon="2.2076">
        <ele>741.95910645</ele>
        <time>2022-07-10T07:43:44Z</time>
      </trkpt>
      <trkpt lat="43.39213" lon="2.20755">
        <ele>742.05908203</ele>
        <time>2022-07-10T07:43:45Z</time>
      </trkpt>
      <trkpt lat="43.39212" lon="2.2075">
        <ele>742.14910889</ele>
        <time>2022-07-10T07:43:46Z</time>
      </trkpt>
      <trkpt lat="43.39212" lon="2.20745">
        <ele>742.10913086</ele>
        <time>2022-07-10T07:43:47Z</time>
      </trkpt>
      <trkpt lat="43.39211" lon="2.20738">
        <ele>742.16912842</ele>
        <time>2022-07-10T07:43:48Z</time>
      </trkpt>
      <trkpt lat="43.39212" lon="2.20734">
        <ele>742.09912109</ele>
        <time>2022-07-10T07:43:49Z</time>
      </trkpt>
      <trkpt lat="43.39213" lon="2.20731">
        <ele>742.00909424</ele>
        <time>2022-07-10T07:43:50Z</time>
      </trkpt>
      <trkpt lat="43.39214" lon="2.20727">
        <ele>741.86907959</ele>
        <time>2022-07-10T07:43:51Z</time>
      </trkpt>
      <trkpt lat="43.39215" lon="2.20722">
        <ele>741.73907471</ele>
        <time>2022-07-10T07:43:52Z</time>
      </trkpt>
      <trkpt lat="43.39216" lon="2.20716">
        <ele>741.62908936</ele>
        <time>2022-07-10T07:43:53Z</time>
      </trkpt>
      <trkpt lat="43.39216" lon="2.20712">
        <ele>741.59906006</ele>
        <time>2022-07-10T07:43:54Z</time>
      </trkpt>
      <trkpt lat="43.39215" lon="2.20706">
        <ele>741.69903564</ele>
        <time>2022-07-10T07:43:55Z</time>
      </trkpt>
      <trkpt lat="43.39216" lon="2.20702">
        <ele>741.76904297</ele>
        <time>2022-07-10T07:43:56Z</time>
      </trkpt>
      <trkpt lat="43.39217" lon="2.20698">
        <ele>741.97906494</ele>
        <time>2022-07-10T07:43:57Z</time>
      </trkpt>
      <trkpt lat="43.39216" lon="2.20692">
        <ele>742.0390625</ele>
        <time>2022-07-10T07:43:58Z</time>
      </trkpt>
      <trkpt lat="43.39216" lon="2.20686">
        <ele>742.14904785</ele>
        <time>2022-07-10T07:43:59Z</time>
      </trkpt>
      <trkpt lat="43.39216" lon="2.2068">
        <ele>742.15905762</ele>
        <time>2022-07-10T07:44:00Z</time>
      </trkpt>
      <trkpt lat="43.39216" lon="2.20676">
        <ele>742.09906006</ele>
        <time>2022-07-10T07:44:01Z</time>
      </trkpt>
      <trkpt lat="43.39216" lon="2.2067">
        <ele>742.07904053</ele>
        <time>2022-07-10T07:44:02Z</time>
      </trkpt>
      <trkpt lat="43.39216" lon="2.20665">
        <ele>741.93902588</ele>
        <time>2022-07-10T07:44:03Z</time>
      </trkpt>
      <trkpt lat="43.39217" lon="2.2066">
        <ele>741.83905029</ele>
        <time>2022-07-10T07:44:04Z</time>
      </trkpt>
      <trkpt lat="43.39218" lon="2.20656">
        <ele>741.67907715</ele>
        <time>2022-07-10T07:44:05Z</time>
      </trkpt>
      <trkpt lat="43.39219" lon="2.20649">
        <ele>741.5390625</ele>
        <time>2022-07-10T07:44:06Z</time>
      </trkpt>
      <trkpt lat="43.39218" lon="2.20645">
        <ele>741.35906982</ele>
        <time>2022-07-10T07:44:07Z</time>
      </trkpt>
      <trkpt lat="43.39218" lon="2.2064">
        <ele>741.16906738</ele>
        <time>2022-07-10T07:44:08Z</time>
      </trkpt>
      <trkpt lat="43.39218" lon="2.20635">
        <ele>741.79907227</ele>
        <time>2022-07-10T07:44:09Z</time>
      </trkpt>
      <trkpt lat="43.39216" lon="2.20626">
        <ele>741.79907227</ele>
        <time>2022-07-10T07:44:10Z</time>
      </trkpt>
      <trkpt lat="43.39216" lon="2.20619">
        <ele>741.65905762</ele>
        <time>2022-07-10T07:44:11Z</time>
      </trkpt>
      <trkpt lat="43.39215" lon="2.20614">
        <ele>741.44903564</ele>
        <time>2022-07-10T07:44:12Z</time>
      </trkpt>
      <trkpt lat="43.39215" lon="2.20609">
        <ele>741.18902588</ele>
        <time>2022-07-10T07:44:13Z</time>
      </trkpt>
      <trkpt lat="43.39215" lon="2.20604">
        <ele>740.93902588</ele>
        <time>2022-07-10T07:44:14Z</time>
      </trkpt>
      <trkpt lat="43.39215" lon="2.20596">
        <ele>740.83905029</ele>
        <time>2022-07-10T07:44:15Z</time>
      </trkpt>
      <trkpt lat="43.39214" lon="2.20591">
        <ele>740.82904053</ele>
        <time>2022-07-10T07:44:16Z</time>
      </trkpt>
      <trkpt lat="43.39214" lon="2.20587">
        <ele>740.61901855</ele>
        <time>2022-07-10T07:44:17Z</time>
      </trkpt>
      <trkpt lat="43.39214" lon="2.20582">
        <ele>740.309021</ele>
        <time>2022-07-10T07:44:18Z</time>
      </trkpt>
      <trkpt lat="43.39212" lon="2.20576">
        <ele>740.17901611</ele>
        <time>2022-07-10T07:44:19Z</time>
      </trkpt>
      <trkpt lat="43.39212" lon="2.20572">
        <ele>740.0289917</ele>
        <time>2022-07-10T07:44:20Z</time>
      </trkpt>
      <trkpt lat="43.39211" lon="2.20566">
        <ele>739.67901611</ele>
        <time>2022-07-10T07:44:21Z</time>
      </trkpt>
      <trkpt lat="43.39211" lon="2.20562">
        <ele>739.39898682</ele>
        <time>2022-07-10T07:44:22Z</time>
      </trkpt>
      <trkpt lat="43.39212" lon="2.20558">
        <ele>738.75897217</ele>
        <time>2022-07-10T07:44:23Z</time>
      </trkpt>
      <trkpt lat="43.39214" lon="2.20549">
        <ele>738.12896729</ele>
        <time>2022-07-10T07:44:24Z</time>
      </trkpt>
      <trkpt lat="43.39215" lon="2.20543">
        <ele>737.86895752</ele>
        <time>2022-07-10T07:44:25Z</time>
      </trkpt>
      <trkpt lat="43.39217" lon="2.20536">
        <ele>737.58892822</ele>
        <time>2022-07-10T07:44:26Z</time>
      </trkpt>
      <trkpt lat="43.39219" lon="2.20531">
        <ele>737.63891602</ele>
        <time>2022-07-10T07:44:27Z</time>
      </trkpt>
      <trkpt lat="43.39221" lon="2.20523">
        <ele>737.64892578</ele>
        <time>2022-07-10T07:44:28Z</time>
      </trkpt>
      <trkpt lat="43.39224" lon="2.20517">
        <ele>737.62890625</ele>
        <time>2022-07-10T07:44:29Z</time>
      </trkpt>
      <trkpt lat="43.39226" lon="2.20512">
        <ele>737.57891846</ele>
        <time>2022-07-10T07:44:30Z</time>
      </trkpt>
      <trkpt lat="43.39228" lon="2.20506">
        <ele>737.31890869</ele>
        <time>2022-07-10T07:44:31Z</time>
      </trkpt>
      <trkpt lat="43.39228" lon="2.20498">
        <ele>737.18890381</ele>
        <time>2022-07-10T07:44:32Z</time>
      </trkpt>
      <trkpt lat="43.3923" lon="2.2049">
        <ele>737.05889893</ele>
        <time>2022-07-10T07:44:33Z</time>
      </trkpt>
      <trkpt lat="43.39231" lon="2.20486">
        <ele>736.93890381</ele>
        <time>2022-07-10T07:44:34Z</time>
      </trkpt>
      <trkpt lat="43.39232" lon="2.20481">
        <ele>736.95892334</ele>
        <time>2022-07-10T07:44:35Z</time>
      </trkpt>
      <trkpt lat="43.39234" lon="2.20476">
        <ele>736.7689209</ele>
        <time>2022-07-10T07:44:36Z</time>
      </trkpt>
      <trkpt lat="43.39236" lon="2.20466">
        <ele>736.57891846</ele>
        <time>2022-07-10T07:44:37Z</time>
      </trkpt>
      <trkpt lat="43.39236" lon="2.20459">
        <ele>736.42889404</ele>
        <time>2022-07-10T07:44:38Z</time>
      </trkpt>
      <trkpt lat="43.39237" lon="2.20454">
        <ele>736.31890869</ele>
        <time>2022-07-10T07:44:39Z</time>
      </trkpt>
      <trkpt lat="43.39238" lon="2.20447">
        <ele>736.31890869</ele>
        <time>2022-07-10T07:44:40Z</time>
      </trkpt>
      <trkpt lat="43.39238" lon="2.20442">
        <ele>736.34893799</ele>
        <time>2022-07-10T07:44:41Z</time>
      </trkpt>
      <trkpt lat="43.39239" lon="2.20436">
        <ele>736.27893066</ele>
        <time>2022-07-10T07:44:42Z</time>
      </trkpt>
      <trkpt lat="43.39241" lon="2.20432">
        <ele>736.13891602</ele>
        <time>2022-07-10T07:44:43Z</time>
      </trkpt>
      <trkpt lat="43.39242" lon="2.20426">
        <ele>736.03894043</ele>
        <time>2022-07-10T07:44:44Z</time>
      </trkpt>
      <trkpt lat="43.39242" lon="2.2042">
        <ele>735.87896729</ele>
        <time>2022-07-10T07:44:45Z</time>
      </trkpt>
      <trkpt lat="43.39244" lon="2.20409">
        <ele>735.80895996</ele>
        <time>2022-07-10T07:44:46Z</time>
      </trkpt>
      <trkpt lat="43.39244" lon="2.20402">
        <ele>735.71893311</ele>
        <time>2022-07-10T07:44:47Z</time>
      </trkpt>
      <trkpt lat="43.39245" lon="2.20395">
        <ele>735.63891602</ele>
        <time>2022-07-10T07:44:48Z</time>
      </trkpt>
      <trkpt lat="43.39247" lon="2.20387">
        <ele>735.47894287</ele>
        <time>2022-07-10T07:44:49Z</time>
      </trkpt>
      <trkpt lat="43.39248" lon="2.20379">
        <ele>735.43896484</ele>
        <time>2022-07-10T07:44:50Z</time>
      </trkpt>
      <trkpt lat="43.39249" lon="2.2037">
        <ele>735.39898682</ele>
        <time>2022-07-10T07:44:51Z</time>
      </trkpt>
      <trkpt lat="43.3925" lon="2.20363">
        <ele>735.31896973</ele>
        <time>2022-07-10T07:44:52Z</time>
      </trkpt>
      <trkpt lat="43.3925" lon="2.20357">
        <ele>735.31896973</ele>
        <time>2022-07-10T07:44:53Z</time>
      </trkpt>
      <trkpt lat="43.39252" lon="2.20352">
        <ele>735.31896973</ele>
        <time>2022-07-10T07:44:54Z</time>
      </trkpt>
      <trkpt lat="43.39254" lon="2.20344">
        <ele>735.37896729</ele>
        <time>2022-07-10T07:44:55Z</time>
      </trkpt>
      <trkpt lat="43.39255" lon="2.20338">
        <ele>735.47894287</ele>
        <time>2022-07-10T07:44:56Z</time>
      </trkpt>
      <trkpt lat="43.39256" lon="2.20334">
        <ele>735.63891602</ele>
        <time>2022-07-10T07:44:57Z</time>
      </trkpt>
      <trkpt lat="43.39258" lon="2.20329">
        <ele>735.64892578</ele>
        <time>2022-07-10T07:44:58Z</time>
      </trkpt>
      <trkpt lat="43.3926" lon="2.20326">
        <ele>735.59893799</ele>
        <time>2022-07-10T07:44:59Z</time>
      </trkpt>
      <trkpt lat="43.39262" lon="2.20318">
        <ele>735.52893066</ele>
        <time>2022-07-10T07:45:00Z</time>
      </trkpt>
      <trkpt lat="43.39264" lon="2.20313">
        <ele>735.60894775</ele>
        <time>2022-07-10T07:45:01Z</time>
      </trkpt>
      <trkpt lat="43.39266" lon="2.20309">
        <ele>735.67895508</ele>
        <time>2022-07-10T07:45:02Z</time>
      </trkpt>
      <trkpt lat="43.39267" lon="2.20305">
        <ele>735.75897217</ele>
        <time>2022-07-10T07:45:03Z</time>
      </trkpt>
      <trkpt lat="43.39269" lon="2.20299">
        <ele>735.93896484</ele>
        <time>2022-07-10T07:45:04Z</time>
      </trkpt>
      <trkpt lat="43.39271" lon="2.20294">
        <ele>735.86895752</ele>
        <time>2022-07-10T07:45:05Z</time>
      </trkpt>
      <trkpt lat="43.39272" lon="2.20288">
        <ele>735.97894287</ele>
        <time>2022-07-10T07:45:06Z</time>
      </trkpt>
      <trkpt lat="43.39273" lon="2.20282">
        <ele>735.98895264</ele>
        <time>2022-07-10T07:45:07Z</time>
      </trkpt>
      <trkpt lat="43.39274" lon="2.20277">
        <ele>736.01898193</ele>
        <time>2022-07-10T07:45:08Z</time>
      </trkpt>
      <trkpt lat="43.39274" lon="2.20269">
        <ele>736.06896973</ele>
        <time>2022-07-10T07:45:09Z</time>
      </trkpt>
      <trkpt lat="43.39275" lon="2.20263">
        <ele>736.00897217</ele>
        <time>2022-07-10T07:45:10Z</time>
      </trkpt>
      <trkpt lat="43.39275" lon="2.20257">
        <ele>735.92895508</ele>
        <time>2022-07-10T07:45:11Z</time>
      </trkpt>
      <trkpt lat="43.39275" lon="2.20252">
        <ele>735.86895752</ele>
        <time>2022-07-10T07:45:12Z</time>
      </trkpt>
      <trkpt lat="43.39275" lon="2.20246">
        <ele>735.7489624</ele>
        <time>2022-07-10T07:45:13Z</time>
      </trkpt>
      <trkpt lat="43.39276" lon="2.20237">
        <ele>735.59893799</ele>
        <time>2022-07-10T07:45:14Z</time>
      </trkpt>
      <trkpt lat="43.39276" lon="2.20231">
        <ele>735.58892822</ele>
        <time>2022-07-10T07:45:15Z</time>
      </trkpt>
      <trkpt lat="43.39276" lon="2.20226">
        <ele>735.32891846</ele>
        <time>2022-07-10T07:45:16Z</time>
      </trkpt>
      <trkpt lat="43.39276" lon="2.20221">
        <ele>735.08892822</ele>
        <time>2022-07-10T07:45:17Z</time>
      </trkpt>
      <trkpt lat="43.39275" lon="2.20213">
        <ele>734.89892578</ele>
        <time>2022-07-10T07:45:18Z</time>
      </trkpt>
      <trkpt lat="43.39274" lon="2.20206">
        <ele>734.53894043</ele>
        <time>2022-07-10T07:45:19Z</time>
      </trkpt>
      <trkpt lat="43.39274" lon="2.20198">
        <ele>734.16894531</ele>
        <time>2022-07-10T07:45:20Z</time>
      </trkpt>
      <trkpt lat="43.39274" lon="2.2019">
        <ele>733.64892578</ele>
        <time>2022-07-10T07:45:21Z</time>
      </trkpt>
      <trkpt lat="43.39275" lon="2.20179">
        <ele>733.12890625</ele>
        <time>2022-07-10T07:45:22Z</time>
      </trkpt>
      <trkpt lat="43.39275" lon="2.20171">
        <ele>732.57891846</ele>
        <time>2022-07-10T07:45:23Z</time>
      </trkpt>
      <trkpt lat="43.39275" lon="2.20164">
        <ele>732.00891113</ele>
        <time>2022-07-10T07:45:24Z</time>
      </trkpt>
      <trkpt lat="43.39276" lon="2.20158">
        <ele>731.54888916</ele>
        <time>2022-07-10T07:45:25Z</time>
      </trkpt>
      <trkpt lat="43.39276" lon="2.2015">
        <ele>731.06890869</ele>
        <time>2022-07-10T07:45:26Z</time>
      </trkpt>
      <trkpt lat="43.39274" lon="2.20136">
        <ele>730.71893311</ele>
        <time>2022-07-10T07:45:27Z</time>
      </trkpt>
      <trkpt lat="43.39274" lon="2.20129">
        <ele>730.34893799</ele>
        <time>2022-07-10T07:45:28Z</time>
      </trkpt>
      <trkpt lat="43.39274" lon="2.20122">
        <ele>730.23895264</ele>
        <time>2022-07-10T07:45:29Z</time>
      </trkpt>
      <trkpt lat="43.39274" lon="2.20115">
        <ele>730.08892822</ele>
        <time>2022-07-10T07:45:30Z</time>
      </trkpt>
      <trkpt lat="43.39277" lon="2.20105">
        <ele>729.87890625</ele>
        <time>2022-07-10T07:45:31Z</time>
      </trkpt>
      <trkpt lat="43.39279" lon="2.20097">
        <ele>729.75891113</ele>
        <time>2022-07-10T07:45:32Z</time>
      </trkpt>
      <trkpt lat="43.3928" lon="2.20089">
        <ele>729.46893311</ele>
        <time>2022-07-10T07:45:33Z</time>
      </trkpt>
      <trkpt lat="43.39281" lon="2.20081">
        <ele>729.25891113</ele>
        <time>2022-07-10T07:45:34Z</time>
      </trkpt>
      <trkpt lat="43.39283" lon="2.20074">
        <ele>729.04888916</ele>
        <time>2022-07-10T07:45:35Z</time>
      </trkpt>
      <trkpt lat="43.39288" lon="2.20064">
        <ele>729.07891846</ele>
        <time>2022-07-10T07:45:36Z</time>
      </trkpt>
      <trkpt lat="43.39289" lon="2.20056">
        <ele>729.16894531</ele>
        <time>2022-07-10T07:45:37Z</time>
      </trkpt>
      <trkpt lat="43.3929" lon="2.20047">
        <ele>729.22894287</ele>
        <time>2022-07-10T07:45:38Z</time>
      </trkpt>
      <trkpt lat="43.39292" lon="2.20038">
        <ele>729.27893066</ele>
        <time>2022-07-10T07:45:39Z</time>
      </trkpt>
      <trkpt lat="43.39295" lon="2.20033">
        <ele>729.03894043</ele>
        <time>2022-07-10T07:45:40Z</time>
      </trkpt>
      <trkpt lat="43.39301" lon="2.20025">
        <ele>728.73895264</ele>
        <time>2022-07-10T07:45:41Z</time>
      </trkpt>
      <trkpt lat="43.39304" lon="2.20021">
        <ele>728.38897705</ele>
        <time>2022-07-10T07:45:42Z</time>
      </trkpt>
      <trkpt lat="43.39306" lon="2.20014">
        <ele>728.14898682</ele>
        <time>2022-07-10T07:45:43Z</time>
      </trkpt>
      <trkpt lat="43.3931" lon="2.20003">
        <ele>727.91900635</ele>
        <time>2022-07-10T07:45:44Z</time>
      </trkpt>
      <trkpt lat="43.39311" lon="2.19996">
        <ele>727.61901855</ele>
        <time>2022-07-10T07:45:45Z</time>
      </trkpt>
      <trkpt lat="43.39313" lon="2.19989">
        <ele>727.54901123</ele>
        <time>2022-07-10T07:45:46Z</time>
      </trkpt>
      <trkpt lat="43.39315" lon="2.1998">
        <ele>727.2590332</ele>
        <time>2022-07-10T07:45:47Z</time>
      </trkpt>
      <trkpt lat="43.39317" lon="2.19974">
        <ele>727.04901123</ele>
        <time>2022-07-10T07:45:48Z</time>
      </trkpt>
      <trkpt lat="43.3932" lon="2.19965">
        <ele>726.74902344</ele>
        <time>2022-07-10T07:45:49Z</time>
      </trkpt>
      <trkpt lat="43.39323" lon="2.19959">
        <ele>726.51904297</ele>
        <time>2022-07-10T07:45:50Z</time>
      </trkpt>
      <trkpt lat="43.39325" lon="2.19952">
        <ele>726.2590332</ele>
        <time>2022-07-10T07:45:51Z</time>
      </trkpt>
      <trkpt lat="43.39327" lon="2.19945">
        <ele>726.04901123</ele>
        <time>2022-07-10T07:45:52Z</time>
      </trkpt>
      <trkpt lat="43.39328" lon="2.19937">
        <ele>725.7590332</ele>
        <time>2022-07-10T07:45:53Z</time>
      </trkpt>
      <trkpt lat="43.39331" lon="2.19926">
        <ele>725.18902588</ele>
        <time>2022-07-10T07:45:54Z</time>
      </trkpt>
      <trkpt lat="43.39333" lon="2.19918">
        <ele>724.86901855</ele>
        <time>2022-07-10T07:45:55Z</time>
      </trkpt>
      <trkpt lat="43.39336" lon="2.1991">
        <ele>724.34899902</ele>
        <time>2022-07-10T07:45:56Z</time>
      </trkpt>
      <trkpt lat="43.39339" lon="2.19904">
        <ele>723.99902344</ele>
        <time>2022-07-10T07:45:57Z</time>
      </trkpt>
      <trkpt lat="43.39343" lon="2.19895">
        <ele>723.54901123</ele>
        <time>2022-07-10T07:45:58Z</time>
      </trkpt>
      <trkpt lat="43.39347" lon="2.19888">
        <ele>722.93902588</ele>
        <time>2022-07-10T07:45:59Z</time>
      </trkpt>
      <trkpt lat="43.3935" lon="2.1988">
        <ele>722.77905273</ele>
        <time>2022-07-10T07:46:00Z</time>
      </trkpt>
      <trkpt lat="43.39351" lon="2.19873">
        <ele>722.38903809</ele>
        <time>2022-07-10T07:46:01Z</time>
      </trkpt>
      <trkpt lat="43.39353" lon="2.19866">
        <ele>722.07904053</ele>
        <time>2022-07-10T07:46:02Z</time>
      </trkpt>
      <trkpt lat="43.39358" lon="2.19855">
        <ele>721.63903809</ele>
        <time>2022-07-10T07:46:03Z</time>
      </trkpt>
      <trkpt lat="43.39361" lon="2.19848">
        <ele>720.76904297</ele>
        <time>2022-07-10T07:46:04Z</time>
      </trkpt>
      <trkpt lat="43.39365" lon="2.19839">
        <ele>719.96905518</ele>
        <time>2022-07-10T07:46:05Z</time>
      </trkpt>
      <trkpt lat="43.39369" lon="2.19831">
        <ele>719.05908203</ele>
        <time>2022-07-10T07:46:06Z</time>
      </trkpt>
      <trkpt lat="43.39373" lon="2.19823">
        <ele>718.39910889</ele>
        <time>2022-07-10T07:46:07Z</time>
      </trkpt>
      <trkpt lat="43.39379" lon="2.19812">
        <ele>717.71911621</ele>
        <time>2022-07-10T07:46:08Z</time>
      </trkpt>
      <trkpt lat="43.39384" lon="2.19805">
        <ele>717.25909424</ele>
        <time>2022-07-10T07:46:09Z</time>
      </trkpt>
      <trkpt lat="43.39389" lon="2.19797">
        <ele>716.73907471</ele>
        <time>2022-07-10T07:46:10Z</time>
      </trkpt>
      <trkpt lat="43.39395" lon="2.19791">
        <ele>715.90905762</ele>
        <time>2022-07-10T07:46:11Z</time>
      </trkpt>
      <trkpt lat="43.39403" lon="2.19783">
        <ele>715.2890625</ele>
        <time>2022-07-10T07:46:12Z</time>
      </trkpt>
      <trkpt lat="43.39409" lon="2.19777">
        <ele>714.62908936</ele>
        <time>2022-07-10T07:46:13Z</time>
      </trkpt>
      <trkpt lat="43.39415" lon="2.19772">
        <ele>714.05908203</ele>
        <time>2022-07-10T07:46:14Z</time>
      </trkpt>
      <trkpt lat="43.3942" lon="2.19767">
        <ele>713.82910156</ele>
        <time>2022-07-10T07:46:15Z</time>
      </trkpt>
      <trkpt lat="43.39427" lon="2.19759">
        <ele>713.49908447</ele>
        <time>2022-07-10T07:46:16Z</time>
      </trkpt>
      <trkpt lat="43.39431" lon="2.19753">
        <ele>713.16906738</ele>
        <time>2022-07-10T07:46:17Z</time>
      </trkpt>
      <trkpt lat="43.39435" lon="2.19747">
        <ele>712.90905762</ele>
        <time>2022-07-10T07:46:18Z</time>
      </trkpt>
      <trkpt lat="43.3944" lon="2.19743">
        <ele>712.68908691</ele>
        <time>2022-07-10T07:46:19Z</time>
      </trkpt>
      <trkpt lat="43.39445" lon="2.19738">
        <ele>712.57910156</ele>
        <time>2022-07-10T07:46:20Z</time>
      </trkpt>
      <trkpt lat="43.39451" lon="2.19728">
        <ele>712.44909668</ele>
        <time>2022-07-10T07:46:21Z</time>
      </trkpt>
      <trkpt lat="43.39455" lon="2.19721">
        <ele>712.25909424</ele>
        <time>2022-07-10T07:46:22Z</time>
      </trkpt>
      <trkpt lat="43.39459" lon="2.19715">
        <ele>712.25909424</ele>
        <time>2022-07-10T07:46:23Z</time>
      </trkpt>
      <trkpt lat="43.39462" lon="2.19708">
        <ele>712.019104</ele>
        <time>2022-07-10T07:46:24Z</time>
      </trkpt>
      <trkpt lat="43.39467" lon="2.19698">
        <ele>712.02911377</ele>
        <time>2022-07-10T07:46:25Z</time>
      </trkpt>
      <trkpt lat="43.3947" lon="2.19691">
        <ele>712.07910156</ele>
        <time>2022-07-10T07:46:26Z</time>
      </trkpt>
      <trkpt lat="43.39473" lon="2.19685">
        <ele>711.77911377</ele>
        <time>2022-07-10T07:46:27Z</time>
      </trkpt>
      <trkpt lat="43.39476" lon="2.19679">
        <ele>711.67913818</ele>
        <time>2022-07-10T07:46:28Z</time>
      </trkpt>
      <trkpt lat="43.3948" lon="2.19674">
        <ele>711.53912354</ele>
        <time>2022-07-10T07:46:29Z</time>
      </trkpt>
      <trkpt lat="43.39484" lon="2.19668">
        <ele>711.53912354</ele>
        <time>2022-07-10T07:46:30Z</time>
      </trkpt>
      <trkpt lat="43.39486" lon="2.19664">
        <ele>711.49914551</ele>
        <time>2022-07-10T07:46:31Z</time>
      </trkpt>
      <trkpt lat="43.3949" lon="2.19661">
        <ele>711.63916016</ele>
        <time>2022-07-10T07:46:32Z</time>
      </trkpt>
      <trkpt lat="43.39494" lon="2.19659">
        <ele>711.49914551</ele>
        <time>2022-07-10T07:46:33Z</time>
      </trkpt>
      <trkpt lat="43.395" lon="2.19654">
        <ele>711.37915039</ele>
        <time>2022-07-10T07:46:34Z</time>
      </trkpt>
      <trkpt lat="43.39504" lon="2.19651">
        <ele>711.24914551</ele>
        <time>2022-07-10T07:46:35Z</time>
      </trkpt>
      <trkpt lat="43.39508" lon="2.19647">
        <ele>710.7791748</ele>
        <time>2022-07-10T07:46:36Z</time>
      </trkpt>
      <trkpt lat="43.39512" lon="2.19643">
        <ele>710.44915771</ele>
        <time>2022-07-10T07:46:37Z</time>
      </trkpt>
      <trkpt lat="43.39515" lon="2.19639">
        <ele>709.89916992</ele>
        <time>2022-07-10T07:46:38Z</time>
      </trkpt>
      <trkpt lat="43.39519" lon="2.19631">
        <ele>709.54919434</ele>
        <time>2022-07-10T07:46:39Z</time>
      </trkpt>
      <trkpt lat="43.39522" lon="2.19627">
        <ele>709.16918945</ele>
        <time>2022-07-10T07:46:40Z</time>
      </trkpt>
      <trkpt lat="43.39523" lon="2.19621">
        <ele>708.78918457</ele>
        <time>2022-07-10T07:46:41Z</time>
      </trkpt>
      <trkpt lat="43.39524" lon="2.19615">
        <ele>708.3092041</ele>
        <time>2022-07-10T07:46:42Z</time>
      </trkpt>
      <trkpt lat="43.39526" lon="2.19606">
        <ele>707.72918701</ele>
        <time>2022-07-10T07:46:43Z</time>
      </trkpt>
      <trkpt lat="43.39526" lon="2.19597">
        <ele>707.12921143</ele>
        <time>2022-07-10T07:46:44Z</time>
      </trkpt>
      <trkpt lat="43.39526" lon="2.19588">
        <ele>706.36920166</ele>
        <time>2022-07-10T07:46:45Z</time>
      </trkpt>
      <trkpt lat="43.39526" lon="2.1958">
        <ele>705.74920654</ele>
        <time>2022-07-10T07:46:46Z</time>
      </trkpt>
      <trkpt lat="43.39525" lon="2.19571">
        <ele>704.99920654</ele>
        <time>2022-07-10T07:46:47Z</time>
      </trkpt>
      <trkpt lat="43.39522" lon="2.19558">
        <ele>704.32922363</ele>
        <time>2022-07-10T07:46:48Z</time>
      </trkpt>
      <trkpt lat="43.39521" lon="2.19549">
        <ele>703.79919434</ele>
        <time>2022-07-10T07:46:49Z</time>
      </trkpt>
      <trkpt lat="43.39519" lon="2.19541">
        <ele>703.24920654</ele>
        <time>2022-07-10T07:46:50Z</time>
      </trkpt>
      <trkpt lat="43.39518" lon="2.19532">
        <ele>702.68920898</ele>
        <time>2022-07-10T07:46:51Z</time>
      </trkpt>
      <trkpt lat="43.39516" lon="2.1952">
        <ele>702.0892334</ele>
        <time>2022-07-10T07:46:52Z</time>
      </trkpt>
      <trkpt lat="43.39514" lon="2.19512">
        <ele>701.32922363</ele>
        <time>2022-07-10T07:46:53Z</time>
      </trkpt>
      <trkpt lat="43.39511" lon="2.19504">
        <ele>700.39923096</ele>
        <time>2022-07-10T07:46:54Z</time>
      </trkpt>
      <trkpt lat="43.39508" lon="2.19497">
        <ele>699.64923096</ele>
        <time>2022-07-10T07:46:55Z</time>
      </trkpt>
      <trkpt lat="43.39505" lon="2.19489">
        <ele>698.87921143</ele>
        <time>2022-07-10T07:46:56Z</time>
      </trkpt>
      <trkpt lat="43.39498" lon="2.1948">
        <ele>698.0592041</ele>
        <time>2022-07-10T07:46:57Z</time>
      </trkpt>
      <trkpt lat="43.39494" lon="2.19474">
        <ele>697.48919678</ele>
        <time>2022-07-10T07:46:58Z</time>
      </trkpt>
      <trkpt lat="43.3949" lon="2.19469">
        <ele>696.87921143</ele>
        <time>2022-07-10T07:46:59Z</time>
      </trkpt>
      <trkpt lat="43.39486" lon="2.19463">
        <ele>696.28918457</ele>
        <time>2022-07-10T07:47:00Z</time>
      </trkpt>
      <trkpt lat="43.39482" lon="2.19458">
        <ele>695.78918457</ele>
        <time>2022-07-10T07:47:01Z</time>
      </trkpt>
      <trkpt lat="43.39474" lon="2.19451">
        <ele>695.25915527</ele>
        <time>2022-07-10T07:47:02Z</time>
      </trkpt>
      <trkpt lat="43.39468" lon="2.19447">
        <ele>694.56915283</ele>
        <time>2022-07-10T07:47:03Z</time>
      </trkpt>
      <trkpt lat="43.39463" lon="2.19444">
        <ele>694.03912354</ele>
        <time>2022-07-10T07:47:04Z</time>
      </trkpt>
      <trkpt lat="43.39457" lon="2.19441">
        <ele>693.53912354</ele>
        <time>2022-07-10T07:47:05Z</time>
      </trkpt>
      <trkpt lat="43.3945" lon="2.1944">
        <ele>693.05914307</ele>
        <time>2022-07-10T07:47:06Z</time>
      </trkpt>
      <trkpt lat="43.39446" lon="2.19439">
        <ele>692.67913818</ele>
        <time>2022-07-10T07:47:07Z</time>
      </trkpt>
      <trkpt lat="43.39442" lon="2.19439">
        <ele>692.25915527</ele>
        <time>2022-07-10T07:47:08Z</time>
      </trkpt>
      <trkpt lat="43.39438" lon="2.19438">
        <ele>691.80914307</ele>
        <time>2022-07-10T07:47:09Z</time>
      </trkpt>
      <trkpt lat="43.39435" lon="2.19439">
        <ele>691.27911377</ele>
        <time>2022-07-10T07:47:10Z</time>
      </trkpt>
      <trkpt lat="43.3943" lon="2.1944">
        <ele>690.90911865</ele>
        <time>2022-07-10T07:47:11Z</time>
      </trkpt>
      <trkpt lat="43.39428" lon="2.19438">
        <ele>690.46911621</ele>
        <time>2022-07-10T07:47:12Z</time>
      </trkpt>
      <trkpt lat="43.39426" lon="2.19436">
        <ele>690.11914062</ele>
        <time>2022-07-10T07:47:13Z</time>
      </trkpt>
      <trkpt lat="43.39425" lon="2.19434">
        <ele>689.78912354</ele>
        <time>2022-07-10T07:47:14Z</time>
      </trkpt>
      <trkpt lat="43.39425" lon="2.19429">
        <ele>689.42913818</ele>
        <time>2022-07-10T07:47:15Z</time>
      </trkpt>
      <trkpt lat="43.39426" lon="2.19427">
        <ele>689.17913818</ele>
        <time>2022-07-10T07:47:16Z</time>
      </trkpt>
      <trkpt lat="43.39427" lon="2.19425">
        <ele>688.96911621</ele>
        <time>2022-07-10T07:47:17Z</time>
      </trkpt>
      <trkpt lat="43.39428" lon="2.19422">
        <ele>688.86914062</ele>
        <time>2022-07-10T07:47:18Z</time>
      </trkpt>
      <trkpt lat="43.39431" lon="2.19419">
        <ele>688.75915527</ele>
        <time>2022-07-10T07:47:19Z</time>
      </trkpt>
      <trkpt lat="43.39434" lon="2.19417">
        <ele>688.59918213</ele>
        <time>2022-07-10T07:47:20Z</time>
      </trkpt>
      <trkpt lat="43.39436" lon="2.19416">
        <ele>688.48919678</ele>
        <time>2022-07-10T07:47:21Z</time>
      </trkpt>
      <trkpt lat="43.39438" lon="2.19414">
        <ele>688.29919434</ele>
        <time>2022-07-10T07:47:22Z</time>
      </trkpt>
      <trkpt lat="43.3944" lon="2.19413">
        <ele>688.17919922</ele>
        <time>2022-07-10T07:47:23Z</time>
      </trkpt>
      <trkpt lat="43.39442" lon="2.19413">
        <ele>688.12921143</ele>
        <time>2022-07-10T07:47:24Z</time>
      </trkpt>
      <trkpt lat="43.39443" lon="2.19411">
        <ele>688.04919434</ele>
        <time>2022-07-10T07:47:25Z</time>
      </trkpt>
      <trkpt lat="43.39442" lon="2.19409">
        <ele>688.04919434</ele>
        <time>2022-07-10T07:47:26Z</time>
      </trkpt>
      <trkpt lat="43.39442" lon="2.19407">
        <ele>688.06921387</ele>
        <time>2022-07-10T07:47:27Z</time>
        <extensions>
          <visugpx:TrkExtension xmlns:visugpx="https://www.visugpx.com/editgpx/">
            <visugpx:node>1</visugpx:node>
            </visugpx:TrkExtension>
        </extensions>
      </trkpt>
      <trkpt lat="43.39446" lon="2.19404">
        <ele>674.8</ele>
      </trkpt>
      <trkpt lat="43.39454" lon="2.19402">
        <ele>674.1</ele>
      </trkpt>
      <trkpt lat="43.39462" lon="2.19405">
        <ele>674.7</ele>
      </trkpt>
      <trkpt lat="43.39505" lon="2.19433">
        <ele>678.2</ele>
      </trkpt>
      <trkpt lat="43.39507" lon="2.19433">
        <ele>678.4</ele>
        <extensions>
          <visugpx:TrkExtension xmlns:visugpx="https://www.visugpx.com/editgpx/">
            <visugpx:node>2</visugpx:node>
            </visugpx:TrkExtension>
        </extensions>
      </trkpt>
      <trkpt lat="43.39514" lon="2.19434">
        <ele>678.9</ele>
      </trkpt>
      <trkpt lat="43.39521" lon="2.19428">
        <ele>678.8</ele>
      </trkpt>
      <trkpt lat="43.39527" lon="2.1941">
        <ele>678.9</ele>
      </trkpt>
      <trkpt lat="43.39525" lon="2.19396">
        <ele>678.5</ele>
      </trkpt>
      <trkpt lat="43.39497" lon="2.19347">
        <ele>673.2</ele>
      </trkpt>
      <trkpt lat="43.39492" lon="2.19332">
        <ele>672.4</ele>
      </trkpt>
      <trkpt lat="43.39491" lon="2.19316">
        <ele>672.5</ele>
      </trkpt>
      <trkpt lat="43.39494" lon="2.19289">
        <ele>673.7</ele>
      </trkpt>
      <trkpt lat="43.39493" lon="2.19274">
        <ele>674.1</ele>
      </trkpt>
      <trkpt lat="43.39489" lon="2.19262">
        <ele>674.6</ele>
      </trkpt>
      <trkpt lat="43.3948" lon="2.19255">
        <ele>674.2</ele>
      </trkpt>
      <trkpt lat="43.39429" lon="2.19244">
        <ele>670.1</ele>
      </trkpt>
      <trkpt lat="43.3942" lon="2.19237">
        <ele>669.1</ele>
      </trkpt>
      <trkpt lat="43.39416" lon="2.19224">
        <ele>669.5</ele>
      </trkpt>
      <trkpt lat="43.39406" lon="2.19113">
        <ele>673.2</ele>
      </trkpt>
      <trkpt lat="43.39396" lon="2.19046">
        <ele>672.5</ele>
      </trkpt>
      <trkpt lat="43.39398" lon="2.19028">
        <ele>673</ele>
      </trkpt>
      <trkpt lat="43.39403" lon="2.19006">
        <ele>672.6</ele>
      </trkpt>
      <trkpt lat="43.39404" lon="2.19004">
        <ele>672.8</ele>
        <extensions>
          <visugpx:TrkExtension xmlns:visugpx="https://www.visugpx.com/editgpx/">
            <visugpx:node>3</visugpx:node>
            </visugpx:TrkExtension>
        </extensions>
      </trkpt>
      <trkpt lat="43.39403" lon="2.19006">
        <ele>672.6</ele>
      </trkpt>
      <trkpt lat="43.39403" lon="2.18999">
        <ele>671.9</ele>
      </trkpt>
      <trkpt lat="43.39402" lon="2.18994">
        <ele>670.7</ele>
      </trkpt>
      <trkpt lat="43.39397" lon="2.18986">
        <ele>667.5</ele>
      </trkpt>
      <trkpt lat="43.3939" lon="2.18985">
        <ele>664.7</ele>
      </trkpt>
      <trkpt lat="43.39385" lon="2.18992">
        <ele>663.5</ele>
      </trkpt>
      <trkpt lat="43.39367" lon="2.19029">
        <ele>658.1</ele>
      </trkpt>
      <trkpt lat="43.39339" lon="2.19076">
        <ele>644.5</ele>
      </trkpt>
      <trkpt lat="43.39338" lon="2.19077">
        <ele>644.1</ele>
        <extensions>
          <visugpx:TrkExtension xmlns:visugpx="https://www.visugpx.com/editgpx/">
            <visugpx:node>4</visugpx:node>
            </visugpx:TrkExtension>
        </extensions>
      </trkpt>
      <trkpt lat="43.39339" lon="2.19076">
        <ele>644.5</ele>
      </trkpt>
      <trkpt lat="43.39342" lon="2.19046">
        <ele>646.5</ele>
      </trkpt>
      <trkpt lat="43.39339" lon="2.19022">
        <ele>645.3</ele>
      </trkpt>
      <trkpt lat="43.39326" lon="2.19019">
        <ele>641.4</ele>
      </trkpt>
      <trkpt lat="43.39318" lon="2.19012">
        <ele>639.7</ele>
      </trkpt>
      <trkpt lat="43.39318" lon="2.19005">
        <ele>639.7</ele>
      </trkpt>
      <trkpt lat="43.39327" lon="2.18983">
        <ele>641.2</ele>
      </trkpt>
      <trkpt lat="43.39336" lon="2.18948">
        <ele>641.6</ele>
        <extensions>
          <visugpx:TrkExtension xmlns:visugpx="https://www.visugpx.com/editgpx/">
            <visugpx:node>5</visugpx:node>
            </visugpx:TrkExtension>
        </extensions>
      </trkpt>
      <trkpt lat="43.39343" lon="2.18921">
        <ele>640.8</ele>
      </trkpt>
      <trkpt lat="43.39348" lon="2.18915">
        <ele>640.9</ele>
        <extensions>
          <visugpx:TrkExtension xmlns:visugpx="https://www.visugpx.com/editgpx/">
            <visugpx:node>11</visugpx:node>
            </visugpx:TrkExtension>
        </extensions>
      </trkpt>
      <trkpt lat="43.3935" lon="2.18911">
        <ele>640.8</ele>
      </trkpt>
      <trkpt lat="43.39352" lon="2.18913">
        <ele>641.3</ele>
        <extensions>
          <visugpx:TrkExtension xmlns:visugpx="https://www.visugpx.com/editgpx/">
            <visugpx:node>8</visugpx:node>
            </visugpx:TrkExtension>
        </extensions>
      </trkpt>
      <trkpt lat="43.39353" lon="2.18912">
        <ele>662.08972168</ele>
        <time>2022-07-10T07:57:56Z</time>
      </trkpt>
      <trkpt lat="43.39355" lon="2.18911">
        <ele>662.07971191</ele>
        <time>2022-07-10T07:57:57Z</time>
      </trkpt>
      <trkpt lat="43.39357" lon="2.1891">
        <ele>662.11968994</ele>
        <time>2022-07-10T07:57:58Z</time>
      </trkpt>
      <trkpt lat="43.39359" lon="2.1891">
        <ele>662.32971191</ele>
        <time>2022-07-10T07:57:59Z</time>
      </trkpt>
      <trkpt lat="43.3936" lon="2.18908">
        <ele>662.64971924</ele>
        <time>2022-07-10T07:58:00Z</time>
      </trkpt>
      <trkpt lat="43.39361" lon="2.18906">
        <ele>663.00970459</ele>
        <time>2022-07-10T07:58:01Z</time>
      </trkpt>
      <trkpt lat="43.39362" lon="2.18902">
        <ele>663.29968262</ele>
        <time>2022-07-10T07:58:02Z</time>
      </trkpt>
      <trkpt lat="43.39364" lon="2.18899">
        <ele>663.47967529</ele>
        <time>2022-07-10T07:58:03Z</time>
      </trkpt>
      <trkpt lat="43.39364" lon="2.18897">
        <ele>663.57965088</ele>
        <time>2022-07-10T07:58:04Z</time>
      </trkpt>
      <trkpt lat="43.39366" lon="2.18896">
        <ele>663.63964844</ele>
        <time>2022-07-10T07:58:05Z</time>
      </trkpt>
      <trkpt lat="43.39367" lon="2.18895">
        <ele>663.66967773</ele>
        <time>2022-07-10T07:58:06Z</time>
      </trkpt>
      <trkpt lat="43.3937" lon="2.18895">
        <ele>663.65966797</ele>
        <time>2022-07-10T07:58:07Z</time>
      </trkpt>
      <trkpt lat="43.39371" lon="2.18893">
        <ele>663.60968018</ele>
        <time>2022-07-10T07:58:08Z</time>
      </trkpt>
      <trkpt lat="43.39372" lon="2.18893">
        <ele>663.49969482</ele>
        <time>2022-07-10T07:58:09Z</time>
      </trkpt>
      <trkpt lat="43.39374" lon="2.18892">
        <ele>663.30969238</ele>
        <time>2022-07-10T07:58:10Z</time>
      </trkpt>
      <trkpt lat="43.39376" lon="2.18889">
        <ele>663.04968262</ele>
        <time>2022-07-10T07:58:11Z</time>
      </trkpt>
      <trkpt lat="43.39378" lon="2.18888">
        <ele>662.71966553</ele>
        <time>2022-07-10T07:58:12Z</time>
      </trkpt>
      <trkpt lat="43.39379" lon="2.18888">
        <ele>662.30969238</ele>
        <time>2022-07-10T07:58:13Z</time>
      </trkpt>
      <trkpt lat="43.39381" lon="2.18887">
        <ele>661.85968018</ele>
        <time>2022-07-10T07:58:14Z</time>
      </trkpt>
      <trkpt lat="43.39381" lon="2.18886">
        <ele>661.35968018</ele>
        <time>2022-07-10T07:58:15Z</time>
      </trkpt>
      <trkpt lat="43.39381" lon="2.18885">
        <ele>660.72967529</ele>
        <time>2022-07-10T07:58:16Z</time>
      </trkpt>
      <trkpt lat="43.3938" lon="2.18883">
        <ele>659.98968506</ele>
        <time>2022-07-10T07:58:17Z</time>
      </trkpt>
      <trkpt lat="43.39379" lon="2.1888">
        <ele>659.41967773</ele>
        <time>2022-07-10T07:58:18Z</time>
      </trkpt>
      <trkpt lat="43.39379" lon="2.18877">
        <ele>658.93969727</ele>
        <time>2022-07-10T07:58:19Z</time>
      </trkpt>
      <trkpt lat="43.39378" lon="2.18875">
        <ele>658.60968018</ele>
        <time>2022-07-10T07:58:20Z</time>
      </trkpt>
      <trkpt lat="43.3938" lon="2.18871">
        <ele>658.3996582</ele>
        <time>2022-07-10T07:58:21Z</time>
      </trkpt>
      <trkpt lat="43.3938" lon="2.18869">
        <ele>657.98968506</ele>
        <time>2022-07-10T07:58:22Z</time>
      </trkpt>
      <trkpt lat="43.39381" lon="2.18867">
        <ele>657.52966309</ele>
        <time>2022-07-10T07:58:23Z</time>
      </trkpt>
      <trkpt lat="43.39381" lon="2.18866">
        <ele>657.13964844</ele>
        <time>2022-07-10T07:58:24Z</time>
      </trkpt>
      <trkpt lat="43.39382" lon="2.18866">
        <ele>656.75964355</ele>
        <time>2022-07-10T07:58:25Z</time>
      </trkpt>
      <trkpt lat="43.39384" lon="2.18864">
        <ele>656.51965332</ele>
        <time>2022-07-10T07:58:26Z</time>
      </trkpt>
      <trkpt lat="43.39385" lon="2.18864">
        <ele>656.47967529</ele>
        <time>2022-07-10T07:58:27Z</time>
      </trkpt>
      <trkpt lat="43.39387" lon="2.18864">
        <ele>656.56970215</ele>
        <time>2022-07-10T07:58:28Z</time>
      </trkpt>
      <trkpt lat="43.3939" lon="2.18863">
        <ele>656.88970947</ele>
        <time>2022-07-10T07:58:29Z</time>
      </trkpt>
      <trkpt lat="43.39391" lon="2.18863">
        <ele>657.4597168</ele>
        <time>2022-07-10T07:58:30Z</time>
      </trkpt>
      <trkpt lat="43.39392" lon="2.18862">
        <ele>658.02972412</ele>
        <time>2022-07-10T07:58:31Z</time>
      </trkpt>
      <trkpt lat="43.39394" lon="2.18861">
        <ele>658.58972168</ele>
        <time>2022-07-10T07:58:32Z</time>
      </trkpt>
      <trkpt lat="43.39394" lon="2.18859">
        <ele>659.07971191</ele>
        <time>2022-07-10T07:58:33Z</time>
      </trkpt>
      <trkpt lat="43.39395" lon="2.18857">
        <ele>659.409729</ele>
        <time>2022-07-10T07:58:34Z</time>
      </trkpt>
      <trkpt lat="43.39395" lon="2.18854">
        <ele>659.63970947</ele>
        <time>2022-07-10T07:58:35Z</time>
      </trkpt>
      <trkpt lat="43.39395" lon="2.18851">
        <ele>659.83972168</ele>
        <time>2022-07-10T07:58:36Z</time>
      </trkpt>
      <trkpt lat="43.39395" lon="2.18847">
        <ele>660.01971436</ele>
        <time>2022-07-10T07:58:37Z</time>
      </trkpt>
      <trkpt lat="43.39394" lon="2.18845">
        <ele>660.159729</ele>
        <time>2022-07-10T07:58:38Z</time>
      </trkpt>
      <trkpt lat="43.39394" lon="2.18841">
        <ele>660.36975098</ele>
        <time>2022-07-10T07:58:39Z</time>
      </trkpt>
      <trkpt lat="43.39394" lon="2.18838">
        <ele>660.52972412</ele>
        <time>2022-07-10T07:58:40Z</time>
      </trkpt>
      <trkpt lat="43.39393" lon="2.18835">
        <ele>660.659729</ele>
        <time>2022-07-10T07:58:41Z</time>
      </trkpt>
      <trkpt lat="43.39393" lon="2.18833">
        <ele>660.77972412</ele>
        <time>2022-07-10T07:58:42Z</time>
      </trkpt>
      <trkpt lat="43.39396" lon="2.18829">
        <ele>660.87969971</ele>
        <time>2022-07-10T07:58:43Z</time>
      </trkpt>
      <trkpt lat="43.39397" lon="2.18826">
        <ele>660.97967529</ele>
        <time>2022-07-10T07:58:44Z</time>
      </trkpt>
      <trkpt lat="43.39398" lon="2.18824">
        <ele>661.12969971</ele>
        <time>2022-07-10T07:58:45Z</time>
      </trkpt>
      <trkpt lat="43.39399" lon="2.18821">
        <ele>661.33972168</ele>
        <time>2022-07-10T07:58:46Z</time>
      </trkpt>
      <trkpt lat="43.394" lon="2.18818">
        <ele>661.55969238</ele>
        <time>2022-07-10T07:58:47Z</time>
      </trkpt>
      <trkpt lat="43.39403" lon="2.18813">
        <ele>661.74969482</ele>
        <time>2022-07-10T07:58:48Z</time>
      </trkpt>
      <trkpt lat="43.39405" lon="2.18811">
        <ele>661.86968994</ele>
        <time>2022-07-10T07:58:49Z</time>
      </trkpt>
      <trkpt lat="43.39407" lon="2.1881">
        <ele>662.04968262</ele>
        <time>2022-07-10T07:58:50Z</time>
      </trkpt>
      <trkpt lat="43.39409" lon="2.18808">
        <ele>662.13970947</ele>
        <time>2022-07-10T07:58:51Z</time>
      </trkpt>
      <trkpt lat="43.3941" lon="2.18805">
        <ele>662.24969482</ele>
        <time>2022-07-10T07:58:52Z</time>
      </trkpt>
      <trkpt lat="43.39411" lon="2.18802">
        <ele>662.49969482</ele>
        <time>2022-07-10T07:58:53Z</time>
      </trkpt>
      <trkpt lat="43.39411" lon="2.18798">
        <ele>662.68969727</ele>
        <time>2022-07-10T07:58:54Z</time>
      </trkpt>
      <trkpt lat="43.39412" lon="2.18796">
        <ele>662.83972168</ele>
        <time>2022-07-10T07:58:55Z</time>
      </trkpt>
      <trkpt lat="43.39413" lon="2.18794">
        <ele>663.07971191</ele>
        <time>2022-07-10T07:58:56Z</time>
      </trkpt>
      <trkpt lat="43.39413" lon="2.18793">
        <ele>663.10974121</ele>
        <time>2022-07-10T07:58:57Z</time>
      </trkpt>
      <trkpt lat="43.39413" lon="2.18792">
        <ele>663.00976562</ele>
        <time>2022-07-10T07:58:58Z</time>
      </trkpt>
      <trkpt lat="43.39412" lon="2.1879">
        <ele>662.90979004</ele>
        <time>2022-07-10T07:58:59Z</time>
      </trkpt>
      <trkpt lat="43.39411" lon="2.18787">
        <ele>662.73980713</ele>
        <time>2022-07-10T07:59:00Z</time>
      </trkpt>
      <trkpt lat="43.39408" lon="2.18783">
        <ele>662.47979736</ele>
        <time>2022-07-10T07:59:01Z</time>
      </trkpt>
      <trkpt lat="43.39407" lon="2.18781">
        <ele>662.2197876</ele>
        <time>2022-07-10T07:59:02Z</time>
      </trkpt>
      <trkpt lat="43.39406" lon="2.18779">
        <ele>661.98980713</ele>
        <time>2022-07-10T07:59:03Z</time>
      </trkpt>
      <trkpt lat="43.39404" lon="2.18777">
        <ele>661.72979736</ele>
        <time>2022-07-10T07:59:04Z</time>
      </trkpt>
      <trkpt lat="43.39404" lon="2.18775">
        <ele>661.49981689</ele>
        <time>2022-07-10T07:59:05Z</time>
      </trkpt>
      <trkpt lat="43.39404" lon="2.18771">
        <ele>661.37982178</ele>
        <time>2022-07-10T07:59:06Z</time>
      </trkpt>
      <trkpt lat="43.39404" lon="2.18769">
        <ele>661.25982666</ele>
        <time>2022-07-10T07:59:07Z</time>
      </trkpt>
      <trkpt lat="43.39405" lon="2.18766">
        <ele>661.09985352</ele>
        <time>2022-07-10T07:59:08Z</time>
      </trkpt>
      <trkpt lat="43.39406" lon="2.18765">
        <ele>661.07983398</ele>
        <time>2022-07-10T07:59:09Z</time>
      </trkpt>
      <trkpt lat="43.39407" lon="2.18762">
        <ele>661.08984375</ele>
        <time>2022-07-10T07:59:10Z</time>
      </trkpt>
      <trkpt lat="43.39409" lon="2.1876">
        <ele>661.11987305</ele>
        <time>2022-07-10T07:59:11Z</time>
      </trkpt>
      <trkpt lat="43.3941" lon="2.18758">
        <ele>661.2598877</ele>
        <time>2022-07-10T07:59:12Z</time>
      </trkpt>
      <trkpt lat="43.39412" lon="2.18756">
        <ele>661.43988037</ele>
        <time>2022-07-10T07:59:13Z</time>
      </trkpt>
      <trkpt lat="43.39412" lon="2.18755">
        <ele>661.56988525</ele>
        <time>2022-07-10T07:59:14Z</time>
      </trkpt>
      <trkpt lat="43.39414" lon="2.18752">
        <ele>661.7598877</ele>
        <time>2022-07-10T07:59:15Z</time>
      </trkpt>
      <trkpt lat="43.39415" lon="2.1875">
        <ele>661.99987793</ele>
        <time>2022-07-10T07:59:16Z</time>
      </trkpt>
      <trkpt lat="43.39416" lon="2.18748">
        <ele>662.18988037</ele>
        <time>2022-07-10T07:59:17Z</time>
      </trkpt>
      <trkpt lat="43.39417" lon="2.18747">
        <ele>662.36987305</ele>
        <time>2022-07-10T07:59:18Z</time>
      </trkpt>
      <trkpt lat="43.39418" lon="2.18745">
        <ele>662.52984619</ele>
        <time>2022-07-10T07:59:19Z</time>
      </trkpt>
      <trkpt lat="43.39419" lon="2.18742">
        <ele>662.61987305</ele>
        <time>2022-07-10T07:59:20Z</time>
      </trkpt>
      <trkpt lat="43.39419" lon="2.18739">
        <ele>662.7298584</ele>
        <time>2022-07-10T07:59:21Z</time>
      </trkpt>
      <trkpt lat="43.39419" lon="2.18737">
        <ele>662.83984375</ele>
        <time>2022-07-10T07:59:22Z</time>
      </trkpt>
      <trkpt lat="43.3942" lon="2.18734">
        <ele>662.98986816</ele>
        <time>2022-07-10T07:59:23Z</time>
      </trkpt>
      <trkpt lat="43.39422" lon="2.18731">
        <ele>663.15985107</ele>
        <time>2022-07-10T07:59:24Z</time>
      </trkpt>
      <trkpt lat="43.39423" lon="2.18728">
        <ele>663.28985596</ele>
        <time>2022-07-10T07:59:25Z</time>
      </trkpt>
      <trkpt lat="43.39423" lon="2.18726">
        <ele>663.41986084</ele>
        <time>2022-07-10T07:59:26Z</time>
      </trkpt>
      <trkpt lat="43.39424" lon="2.18723">
        <ele>663.41986084</ele>
        <time>2022-07-10T07:59:27Z</time>
      </trkpt>
      <trkpt lat="43.39425" lon="2.18721">
        <ele>663.40985107</ele>
        <time>2022-07-10T07:59:28Z</time>
      </trkpt>
      <trkpt lat="43.39427" lon="2.18718">
        <ele>663.41986084</ele>
        <time>2022-07-10T07:59:29Z</time>
      </trkpt>
      <trkpt lat="43.39428" lon="2.18715">
        <ele>663.45983887</ele>
        <time>2022-07-10T07:59:30Z</time>
      </trkpt>
      <trkpt lat="43.39429" lon="2.18713">
        <ele>663.55981445</ele>
        <time>2022-07-10T07:59:31Z</time>
      </trkpt>
      <trkpt lat="43.3943" lon="2.18712">
        <ele>663.6697998</ele>
        <time>2022-07-10T07:59:32Z</time>
      </trkpt>
      <trkpt lat="43.39432" lon="2.1871">
        <ele>663.76977539</ele>
        <time>2022-07-10T07:59:33Z</time>
      </trkpt>
      <trkpt lat="43.39434" lon="2.18708">
        <ele>663.80975342</ele>
        <time>2022-07-10T07:59:34Z</time>
      </trkpt>
      <trkpt lat="43.39435" lon="2.18707">
        <ele>663.83978271</ele>
        <time>2022-07-10T07:59:35Z</time>
      </trkpt>
      <trkpt lat="43.39436" lon="2.18705">
        <ele>663.90979004</ele>
        <time>2022-07-10T07:59:36Z</time>
      </trkpt>
      <trkpt lat="43.39438" lon="2.18704">
        <ele>663.94976807</ele>
        <time>2022-07-10T07:59:37Z</time>
      </trkpt>
      <trkpt lat="43.3944" lon="2.18701">
        <ele>664.01977539</ele>
        <time>2022-07-10T07:59:38Z</time>
      </trkpt>
      <trkpt lat="43.39442" lon="2.187">
        <ele>664.04980469</ele>
        <time>2022-07-10T07:59:39Z</time>
      </trkpt>
      <trkpt lat="43.39443" lon="2.18698">
        <ele>664.00982666</ele>
        <time>2022-07-10T07:59:40Z</time>
      </trkpt>
      <trkpt lat="43.39444" lon="2.18697">
        <ele>664.01983643</ele>
        <time>2022-07-10T07:59:41Z</time>
      </trkpt>
      <trkpt lat="43.39444" lon="2.18696">
        <ele>664.01983643</ele>
        <time>2022-07-10T07:59:42Z</time>
      </trkpt>
      <trkpt lat="43.39447" lon="2.18691">
        <ele>664.63983154</ele>
        <time>2022-07-10T07:59:48Z</time>
      </trkpt>
      <trkpt lat="43.39448" lon="2.18688">
        <ele>664.17980957</ele>
        <time>2022-07-10T07:59:49Z</time>
      </trkpt>
      <trkpt lat="43.3945" lon="2.18686">
        <ele>664.03979492</ele>
        <time>2022-07-10T07:59:50Z</time>
      </trkpt>
      <trkpt lat="43.39452" lon="2.18682">
        <ele>663.97979736</ele>
        <time>2022-07-10T07:59:51Z</time>
      </trkpt>
      <trkpt lat="43.39454" lon="2.1868">
        <ele>663.97979736</ele>
        <time>2022-07-10T07:59:52Z</time>
      </trkpt>
      <trkpt lat="43.39455" lon="2.18679">
        <ele>663.98980713</ele>
        <time>2022-07-10T07:59:53Z</time>
      </trkpt>
      <trkpt lat="43.39457" lon="2.18678">
        <ele>663.99981689</ele>
        <time>2022-07-10T07:59:54Z</time>
      </trkpt>
      <trkpt lat="43.39459" lon="2.18679">
        <ele>664.09979248</ele>
        <time>2022-07-10T07:59:55Z</time>
      </trkpt>
      <trkpt lat="43.39462" lon="2.1868">
        <ele>664.23980713</ele>
        <time>2022-07-10T07:59:56Z</time>
      </trkpt>
      <trkpt lat="43.39464" lon="2.18681">
        <ele>664.4197998</ele>
        <time>2022-07-10T07:59:57Z</time>
      </trkpt>
      <trkpt lat="43.39466" lon="2.18681">
        <ele>664.68981934</ele>
        <time>2022-07-10T07:59:58Z</time>
      </trkpt>
      <trkpt lat="43.39468" lon="2.18681">
        <ele>665.02984619</ele>
        <time>2022-07-10T07:59:59Z</time>
      </trkpt>
      <trkpt lat="43.3947" lon="2.18681">
        <ele>665.41986084</ele>
        <time>2022-07-10T08:00:00Z</time>
      </trkpt>
      <trkpt lat="43.39472" lon="2.18681">
        <ele>665.84985352</ele>
        <time>2022-07-10T08:00:01Z</time>
      </trkpt>
      <trkpt lat="43.39474" lon="2.1868">
        <ele>666.29986572</ele>
        <time>2022-07-10T08:00:02Z</time>
      </trkpt>
      <trkpt lat="43.39476" lon="2.18679">
        <ele>666.81988525</ele>
        <time>2022-07-10T08:00:03Z</time>
      </trkpt>
      <trkpt lat="43.39479" lon="2.18679">
        <ele>667.31988525</ele>
        <time>2022-07-10T08:00:04Z</time>
      </trkpt>
      <trkpt lat="43.39481" lon="2.18678">
        <ele>667.80987549</ele>
        <time>2022-07-10T08:00:05Z</time>
      </trkpt>
      <trkpt lat="43.39482" lon="2.18678">
        <ele>668.32989502</ele>
        <time>2022-07-10T08:00:06Z</time>
      </trkpt>
      <trkpt lat="43.39483" lon="2.18678">
        <ele>668.74987793</ele>
        <time>2022-07-10T08:00:07Z</time>
      </trkpt>
      <trkpt lat="43.39484" lon="2.18677">
        <ele>669.09985352</ele>
        <time>2022-07-10T08:00:08Z</time>
      </trkpt>
      <trkpt lat="43.39486" lon="2.18674">
        <ele>669.40985107</ele>
        <time>2022-07-10T08:00:09Z</time>
      </trkpt>
      <trkpt lat="43.39487" lon="2.18672">
        <ele>669.54986572</ele>
        <time>2022-07-10T08:00:10Z</time>
      </trkpt>
      <trkpt lat="43.39488" lon="2.1867">
        <ele>669.55987549</ele>
        <time>2022-07-10T08:00:11Z</time>
      </trkpt>
      <trkpt lat="43.3949" lon="2.18669">
        <ele>669.53985596</ele>
        <time>2022-07-10T08:00:12Z</time>
      </trkpt>
      <trkpt lat="43.39492" lon="2.18667">
        <ele>669.50982666</ele>
        <time>2022-07-10T08:00:13Z</time>
      </trkpt>
      <trkpt lat="43.39493" lon="2.18666">
        <ele>669.56982422</ele>
        <time>2022-07-10T08:00:14Z</time>
      </trkpt>
      <trkpt lat="43.39495" lon="2.18665">
        <ele>669.73980713</ele>
        <time>2022-07-10T08:00:15Z</time>
      </trkpt>
      <trkpt lat="43.39496" lon="2.18665">
        <ele>669.93981934</ele>
        <time>2022-07-10T08:00:16Z</time>
      </trkpt>
      <trkpt lat="43.39497" lon="2.18664">
        <ele>670.17980957</ele>
        <time>2022-07-10T08:00:17Z</time>
      </trkpt>
      <trkpt lat="43.39498" lon="2.1866">
        <ele>670.38983154</ele>
        <time>2022-07-10T08:00:18Z</time>
      </trkpt>
      <trkpt lat="43.39499" lon="2.18659">
        <ele>670.62982178</ele>
        <time>2022-07-10T08:00:19Z</time>
      </trkpt>
      <trkpt lat="43.39501" lon="2.18657">
        <ele>670.77984619</ele>
        <time>2022-07-10T08:00:20Z</time>
      </trkpt>
      <trkpt lat="43.39502" lon="2.18655">
        <ele>670.88983154</ele>
        <time>2022-07-10T08:00:21Z</time>
      </trkpt>
      <trkpt lat="43.39504" lon="2.18654">
        <ele>671.04980469</ele>
        <time>2022-07-10T08:00:22Z</time>
      </trkpt>
      <trkpt lat="43.39507" lon="2.18652">
        <ele>671.18981934</ele>
        <time>2022-07-10T08:00:23Z</time>
      </trkpt>
      <trkpt lat="43.39509" lon="2.18651">
        <ele>671.37982178</ele>
        <time>2022-07-10T08:00:24Z</time>
      </trkpt>
      <trkpt lat="43.39508" lon="2.18651">
        <ele>671.59979248</ele>
        <time>2022-07-10T08:00:25Z</time>
      </trkpt>
      <trkpt lat="43.39509" lon="2.18652">
        <ele>671.76977539</ele>
        <time>2022-07-10T08:00:26Z</time>
      </trkpt>
      <trkpt lat="43.39511" lon="2.18654">
        <ele>671.9397583</ele>
        <time>2022-07-10T08:00:27Z</time>
      </trkpt>
      <trkpt lat="43.39514" lon="2.18655">
        <ele>672.13977051</ele>
        <time>2022-07-10T08:00:28Z</time>
      </trkpt>
      <trkpt lat="43.39516" lon="2.18656">
        <ele>672.30975342</ele>
        <time>2022-07-10T08:00:29Z</time>
      </trkpt>
      <trkpt lat="43.39517" lon="2.18657">
        <ele>672.49975586</ele>
        <time>2022-07-10T08:00:30Z</time>
      </trkpt>
      <trkpt lat="43.39517" lon="2.1866">
        <ele>672.72973633</ele>
        <time>2022-07-10T08:00:31Z</time>
      </trkpt>
      <trkpt lat="43.39518" lon="2.18664">
        <ele>672.97973633</ele>
        <time>2022-07-10T08:00:32Z</time>
      </trkpt>
      <trkpt lat="43.39519" lon="2.18666">
        <ele>673.24975586</ele>
        <time>2022-07-10T08:00:33Z</time>
      </trkpt>
      <trkpt lat="43.3952" lon="2.18667">
        <ele>673.52978516</ele>
        <time>2022-07-10T08:00:34Z</time>
      </trkpt>
      <trkpt lat="43.3952" lon="2.18668">
        <ele>673.87976074</ele>
        <time>2022-07-10T08:00:35Z</time>
      </trkpt>
      <trkpt lat="43.39523" lon="2.18669">
        <ele>674.1897583</ele>
        <time>2022-07-10T08:00:36Z</time>
      </trkpt>
      <trkpt lat="43.39524" lon="2.18669">
        <ele>674.59973145</ele>
        <time>2022-07-10T08:00:37Z</time>
      </trkpt>
      <trkpt lat="43.39527" lon="2.18669">
        <ele>675.04974365</ele>
        <time>2022-07-10T08:00:38Z</time>
      </trkpt>
      <trkpt lat="43.39528" lon="2.18669">
        <ele>675.409729</ele>
        <time>2022-07-10T08:00:39Z</time>
      </trkpt>
      <trkpt lat="43.3953" lon="2.18669">
        <ele>675.77972412</ele>
        <time>2022-07-10T08:00:40Z</time>
      </trkpt>
      <trkpt lat="43.39531" lon="2.1867">
        <ele>676.08972168</ele>
        <time>2022-07-10T08:00:41Z</time>
      </trkpt>
      <trkpt lat="43.39532" lon="2.18669">
        <ele>676.44970703</ele>
        <time>2022-07-10T08:00:42Z</time>
      </trkpt>
      <trkpt lat="43.39534" lon="2.18669">
        <ele>676.81970215</ele>
        <time>2022-07-10T08:00:43Z</time>
      </trkpt>
      <trkpt lat="43.39536" lon="2.18668">
        <ele>677.16967773</ele>
        <time>2022-07-10T08:00:44Z</time>
      </trkpt>
      <trkpt lat="43.39539" lon="2.18668">
        <ele>677.50970459</ele>
        <time>2022-07-10T08:00:45Z</time>
      </trkpt>
      <trkpt lat="43.39541" lon="2.18668">
        <ele>677.76971436</ele>
        <time>2022-07-10T08:00:46Z</time>
      </trkpt>
      <trkpt lat="43.39542" lon="2.18668">
        <ele>677.93969727</ele>
        <time>2022-07-10T08:00:47Z</time>
      </trkpt>
      <trkpt lat="43.39544" lon="2.18669">
        <ele>678.12969971</ele>
        <time>2022-07-10T08:00:48Z</time>
      </trkpt>
      <trkpt lat="43.39547" lon="2.18671">
        <ele>678.28967285</ele>
        <time>2022-07-10T08:00:49Z</time>
      </trkpt>
      <trkpt lat="43.39548" lon="2.18672">
        <ele>678.37969971</ele>
        <time>2022-07-10T08:00:50Z</time>
      </trkpt>
      <trkpt lat="43.39549" lon="2.18673">
        <ele>678.51971436</ele>
        <time>2022-07-10T08:00:51Z</time>
      </trkpt>
      <trkpt lat="43.3955" lon="2.18676">
        <ele>678.71972656</ele>
        <time>2022-07-10T08:00:52Z</time>
      </trkpt>
      <trkpt lat="43.39551" lon="2.18679">
        <ele>678.93969727</ele>
        <time>2022-07-10T08:00:53Z</time>
      </trkpt>
      <trkpt lat="43.39551" lon="2.18681">
        <ele>679.16967773</ele>
        <time>2022-07-10T08:00:54Z</time>
      </trkpt>
      <trkpt lat="43.39552" lon="2.18682">
        <ele>679.40966797</ele>
        <time>2022-07-10T08:00:55Z</time>
      </trkpt>
      <trkpt lat="43.39552" lon="2.18683">
        <ele>679.6796875</ele>
        <time>2022-07-10T08:00:56Z</time>
      </trkpt>
      <trkpt lat="43.39554" lon="2.18686">
        <ele>679.93969727</ele>
        <time>2022-07-10T08:00:57Z</time>
      </trkpt>
      <trkpt lat="43.39555" lon="2.18688">
        <ele>680.21972656</ele>
        <time>2022-07-10T08:00:58Z</time>
      </trkpt>
      <trkpt lat="43.39557" lon="2.18692">
        <ele>680.49975586</ele>
        <time>2022-07-10T08:00:59Z</time>
      </trkpt>
      <trkpt lat="43.39558" lon="2.18693">
        <ele>680.6897583</ele>
        <time>2022-07-10T08:01:00Z</time>
      </trkpt>
      <trkpt lat="43.39559" lon="2.18695">
        <ele>680.88977051</ele>
        <time>2022-07-10T08:01:01Z</time>
      </trkpt>
      <trkpt lat="43.3956" lon="2.18697">
        <ele>681.10974121</ele>
        <time>2022-07-10T08:01:02Z</time>
      </trkpt>
      <trkpt lat="43.39561" lon="2.18699">
        <ele>681.34973145</ele>
        <time>2022-07-10T08:01:03Z</time>
      </trkpt>
      <trkpt lat="43.39561" lon="2.187">
        <ele>681.55975342</ele>
        <time>2022-07-10T08:01:04Z</time>
      </trkpt>
      <trkpt lat="43.39563" lon="2.18701">
        <ele>681.83978271</ele>
        <time>2022-07-10T08:01:05Z</time>
      </trkpt>
      <trkpt lat="43.39564" lon="2.18704">
        <ele>682.07977295</ele>
        <time>2022-07-10T08:01:06Z</time>
      </trkpt>
      <trkpt lat="43.39566" lon="2.18706">
        <ele>682.27978516</ele>
        <time>2022-07-10T08:01:07Z</time>
      </trkpt>
      <trkpt lat="43.39567" lon="2.18707">
        <ele>682.55981445</ele>
        <time>2022-07-10T08:01:08Z</time>
      </trkpt>
      <trkpt lat="43.39568" lon="2.18709">
        <ele>682.75982666</ele>
        <time>2022-07-10T08:01:09Z</time>
      </trkpt>
      <trkpt lat="43.39568" lon="2.1871">
        <ele>682.99981689</ele>
        <time>2022-07-10T08:01:10Z</time>
      </trkpt>
      <trkpt lat="43.3957" lon="2.1871">
        <ele>683.1697998</ele>
        <time>2022-07-10T08:01:11Z</time>
      </trkpt>
      <trkpt lat="43.39572" lon="2.18711">
        <ele>683.24981689</ele>
        <time>2022-07-10T08:01:12Z</time>
      </trkpt>
      <trkpt lat="43.39574" lon="2.18711">
        <ele>683.27984619</ele>
        <time>2022-07-10T08:01:13Z</time>
      </trkpt>
      <trkpt lat="43.39576" lon="2.1871">
        <ele>683.23986816</ele>
        <time>2022-07-10T08:01:14Z</time>
      </trkpt>
      <trkpt lat="43.39577" lon="2.18709">
        <ele>683.23986816</ele>
        <time>2022-07-10T08:01:15Z</time>
      </trkpt>
      <trkpt lat="43.39579" lon="2.18708">
        <ele>683.18988037</ele>
        <time>2022-07-10T08:01:16Z</time>
      </trkpt>
      <trkpt lat="43.39582" lon="2.18706">
        <ele>683.09985352</ele>
        <time>2022-07-10T08:01:17Z</time>
      </trkpt>
      <trkpt lat="43.39584" lon="2.18704">
        <ele>682.90985107</ele>
        <time>2022-07-10T08:01:18Z</time>
      </trkpt>
      <trkpt lat="43.39586" lon="2.18701">
        <ele>682.58984375</ele>
        <time>2022-07-10T08:01:19Z</time>
      </trkpt>
      <trkpt lat="43.39588" lon="2.18699">
        <ele>682.31982422</ele>
        <time>2022-07-10T08:01:20Z</time>
      </trkpt>
      <trkpt lat="43.39591" lon="2.18697">
        <ele>682.02984619</ele>
        <time>2022-07-10T08:01:21Z</time>
      </trkpt>
      <trkpt lat="43.39592" lon="2.18695">
        <ele>681.81982422</ele>
        <time>2022-07-10T08:01:22Z</time>
      </trkpt>
      <trkpt lat="43.39593" lon="2.18693">
        <ele>681.79980469</ele>
        <time>2022-07-10T08:01:23Z</time>
      </trkpt>
      <trkpt lat="43.39594" lon="2.1869">
        <ele>681.68981934</ele>
        <time>2022-07-10T08:01:24Z</time>
      </trkpt>
      <trkpt lat="43.39596" lon="2.18687">
        <ele>681.68981934</ele>
        <time>2022-07-10T08:01:25Z</time>
      </trkpt>
      <trkpt lat="43.39599" lon="2.18683">
        <ele>681.71984863</ele>
        <time>2022-07-10T08:01:26Z</time>
      </trkpt>
      <trkpt lat="43.396" lon="2.1868">
        <ele>681.52984619</ele>
        <time>2022-07-10T08:01:27Z</time>
      </trkpt>
      <trkpt lat="43.39601" lon="2.18679">
        <ele>681.50982666</ele>
        <time>2022-07-10T08:01:28Z</time>
      </trkpt>
      <trkpt lat="43.39602" lon="2.18678">
        <ele>681.28985596</ele>
        <time>2022-07-10T08:01:29Z</time>
      </trkpt>
      <trkpt lat="43.39604" lon="2.18674">
        <ele>680.99987793</ele>
        <time>2022-07-10T08:01:30Z</time>
      </trkpt>
      <trkpt lat="43.39605" lon="2.18672">
        <ele>680.87988281</ele>
        <time>2022-07-10T08:01:31Z</time>
      </trkpt>
      <trkpt lat="43.39606" lon="2.18671">
        <ele>680.64990234</ele>
        <time>2022-07-10T08:01:32Z</time>
      </trkpt>
      <trkpt lat="43.39608" lon="2.18669">
        <ele>680.57989502</ele>
        <time>2022-07-10T08:01:33Z</time>
      </trkpt>
      <trkpt lat="43.39611" lon="2.18666">
        <ele>680.56988525</ele>
        <time>2022-07-10T08:01:34Z</time>
      </trkpt>
      <trkpt lat="43.39612" lon="2.18665">
        <ele>680.53985596</ele>
        <time>2022-07-10T08:01:35Z</time>
      </trkpt>
      <trkpt lat="43.39613" lon="2.18665">
        <ele>680.48986816</ele>
        <time>2022-07-10T08:01:36Z</time>
      </trkpt>
      <trkpt lat="43.39615" lon="2.18665">
        <ele>680.42987061</ele>
        <time>2022-07-10T08:01:37Z</time>
      </trkpt>
      <trkpt lat="43.39616" lon="2.18663">
        <ele>680.40985107</ele>
        <time>2022-07-10T08:01:38Z</time>
      </trkpt>
      <trkpt lat="43.39618" lon="2.18663">
        <ele>680.37982178</ele>
        <time>2022-07-10T08:01:39Z</time>
      </trkpt>
      <trkpt lat="43.39617" lon="2.18661">
        <ele>680.43981934</ele>
        <time>2022-07-10T08:01:40Z</time>
      </trkpt>
      <trkpt lat="43.39618" lon="2.1866">
        <ele>680.35980225</ele>
        <time>2022-07-10T08:01:41Z</time>
      </trkpt>
      <trkpt lat="43.39619" lon="2.1866">
        <ele>680.25982666</ele>
        <time>2022-07-10T08:01:42Z</time>
      </trkpt>
      <trkpt lat="43.39621" lon="2.18658">
        <ele>680.23980713</ele>
        <time>2022-07-10T08:01:43Z</time>
      </trkpt>
      <trkpt lat="43.39625" lon="2.18654">
        <ele>680.08978271</ele>
        <time>2022-07-10T08:01:44Z</time>
      </trkpt>
      <trkpt lat="43.39627" lon="2.18652">
        <ele>680.15979004</ele>
        <time>2022-07-10T08:01:45Z</time>
      </trkpt>
      <trkpt lat="43.39629" lon="2.18649">
        <ele>680.13977051</ele>
        <time>2022-07-10T08:01:46Z</time>
      </trkpt>
      <trkpt lat="43.39631" lon="2.18647">
        <ele>680.13977051</ele>
        <time>2022-07-10T08:01:47Z</time>
      </trkpt>
      <trkpt lat="43.39634" lon="2.18645">
        <ele>680.15979004</ele>
        <time>2022-07-10T08:01:48Z</time>
      </trkpt>
      <trkpt lat="43.39636" lon="2.18644">
        <ele>680.10980225</ele>
        <time>2022-07-10T08:01:49Z</time>
      </trkpt>
      <trkpt lat="43.39637" lon="2.18641">
        <ele>680.04980469</ele>
        <time>2022-07-10T08:01:50Z</time>
      </trkpt>
      <trkpt lat="43.39638" lon="2.18639">
        <ele>679.92980957</ele>
        <time>2022-07-10T08:01:51Z</time>
      </trkpt>
      <trkpt lat="43.39639" lon="2.18635">
        <ele>679.6697998</ele>
        <time>2022-07-10T08:01:52Z</time>
      </trkpt>
      <trkpt lat="43.3964" lon="2.18634">
        <ele>679.47979736</ele>
        <time>2022-07-10T08:01:53Z</time>
      </trkpt>
      <trkpt lat="43.3964" lon="2.18632">
        <ele>679.43981934</ele>
        <time>2022-07-10T08:01:54Z</time>
      </trkpt>
      <trkpt lat="43.3964" lon="2.1863">
        <ele>679.34979248</ele>
        <time>2022-07-10T08:01:55Z</time>
      </trkpt>
      <trkpt lat="43.39641" lon="2.18628">
        <ele>679.4197998</ele>
        <time>2022-07-10T08:01:56Z</time>
      </trkpt>
      <trkpt lat="43.39642" lon="2.18626">
        <ele>679.38977051</ele>
        <time>2022-07-10T08:01:57Z</time>
      </trkpt>
      <trkpt lat="43.39642" lon="2.18624">
        <ele>679.10974121</ele>
        <time>2022-07-10T08:01:58Z</time>
      </trkpt>
      <trkpt lat="43.39642" lon="2.18621">
        <ele>678.92974854</ele>
        <time>2022-07-10T08:01:59Z</time>
      </trkpt>
      <trkpt lat="43.39642" lon="2.18618">
        <ele>678.72973633</ele>
        <time>2022-07-10T08:02:00Z</time>
      </trkpt>
      <trkpt lat="43.39642" lon="2.18616">
        <ele>678.60974121</ele>
        <time>2022-07-10T08:02:01Z</time>
      </trkpt>
      <trkpt lat="43.39643" lon="2.18612">
        <ele>678.63977051</ele>
        <time>2022-07-10T08:02:02Z</time>
      </trkpt>
      <trkpt lat="43.39644" lon="2.18607">
        <ele>678.57977295</ele>
        <time>2022-07-10T08:02:03Z</time>
      </trkpt>
      <trkpt lat="43.39645" lon="2.18603">
        <ele>678.38977051</ele>
        <time>2022-07-10T08:02:04Z</time>
      </trkpt>
      <trkpt lat="43.39646" lon="2.18601">
        <ele>678.14978027</ele>
        <time>2022-07-10T08:02:05Z</time>
      </trkpt>
      <trkpt lat="43.39648" lon="2.18599">
        <ele>677.9697876</ele>
        <time>2022-07-10T08:02:06Z</time>
      </trkpt>
      <trkpt lat="43.39649" lon="2.18598">
        <ele>677.87976074</ele>
        <time>2022-07-10T08:02:07Z</time>
      </trkpt>
      <trkpt lat="43.39651" lon="2.18597">
        <ele>678.07977295</ele>
        <time>2022-07-10T08:02:08Z</time>
      </trkpt>
      <trkpt lat="43.39652" lon="2.18596">
        <ele>677.55975342</ele>
        <time>2022-07-10T08:02:09Z</time>
      </trkpt>
      <trkpt lat="43.39655" lon="2.18593">
        <ele>677.85974121</ele>
        <time>2022-07-10T08:02:10Z</time>
      </trkpt>
      <trkpt lat="43.39655" lon="2.18591">
        <ele>678.17974854</ele>
        <time>2022-07-10T08:02:11Z</time>
      </trkpt>
      <trkpt lat="43.39656" lon="2.18589">
        <ele>678.41973877</ele>
        <time>2022-07-10T08:02:12Z</time>
      </trkpt>
      <trkpt lat="43.39656" lon="2.18586">
        <ele>678.659729</ele>
        <time>2022-07-10T08:02:13Z</time>
      </trkpt>
      <trkpt lat="43.39658" lon="2.18582">
        <ele>678.91973877</ele>
        <time>2022-07-10T08:02:14Z</time>
      </trkpt>
      <trkpt lat="43.3966" lon="2.18578">
        <ele>679.21972656</ele>
        <time>2022-07-10T08:02:15Z</time>
      </trkpt>
      <trkpt lat="43.39661" lon="2.18575">
        <ele>679.56970215</ele>
        <time>2022-07-10T08:02:16Z</time>
      </trkpt>
      <trkpt lat="43.39661" lon="2.18573">
        <ele>679.83972168</ele>
        <time>2022-07-10T08:02:17Z</time>
      </trkpt>
      <trkpt lat="43.39662" lon="2.18571">
        <ele>680.17974854</ele>
        <time>2022-07-10T08:02:18Z</time>
      </trkpt>
      <trkpt lat="43.39663" lon="2.18569">
        <ele>680.47973633</ele>
        <time>2022-07-10T08:02:19Z</time>
      </trkpt>
      <trkpt lat="43.39665" lon="2.18568">
        <ele>680.74975586</ele>
        <time>2022-07-10T08:02:20Z</time>
      </trkpt>
      <trkpt lat="43.39666" lon="2.18568">
        <ele>681.09973145</ele>
        <time>2022-07-10T08:02:21Z</time>
      </trkpt>
      <trkpt lat="43.39668" lon="2.18568">
        <ele>681.33972168</ele>
        <time>2022-07-10T08:02:22Z</time>
      </trkpt>
      <trkpt lat="43.39669" lon="2.18567">
        <ele>681.58972168</ele>
        <time>2022-07-10T08:02:23Z</time>
      </trkpt>
      <trkpt lat="43.3967" lon="2.18564">
        <ele>681.84973145</ele>
        <time>2022-07-10T08:02:24Z</time>
      </trkpt>
      <trkpt lat="43.39672" lon="2.18563">
        <ele>682.01971436</ele>
        <time>2022-07-10T08:02:25Z</time>
      </trkpt>
      <trkpt lat="43.39674" lon="2.18562">
        <ele>682.1796875</ele>
        <time>2022-07-10T08:02:26Z</time>
      </trkpt>
      <trkpt lat="43.39675" lon="2.18561">
        <ele>682.35968018</ele>
        <time>2022-07-10T08:02:27Z</time>
      </trkpt>
      <trkpt lat="43.39676" lon="2.1856">
        <ele>682.44970703</ele>
        <time>2022-07-10T08:02:28Z</time>
      </trkpt>
      <trkpt lat="43.39679" lon="2.18559">
        <ele>682.60968018</ele>
        <time>2022-07-10T08:02:29Z</time>
      </trkpt>
      <trkpt lat="43.3968" lon="2.18558">
        <ele>682.80969238</ele>
        <time>2022-07-10T08:02:30Z</time>
      </trkpt>
      <trkpt lat="43.39681" lon="2.18556">
        <ele>682.91967773</ele>
        <time>2022-07-10T08:02:31Z</time>
      </trkpt>
      <trkpt lat="43.39683" lon="2.18553">
        <ele>683.06970215</ele>
        <time>2022-07-10T08:02:32Z</time>
      </trkpt>
      <trkpt lat="43.39685" lon="2.1855">
        <ele>683.22967529</ele>
        <time>2022-07-10T08:02:33Z</time>
      </trkpt>
      <trkpt lat="43.39686" lon="2.18549">
        <ele>683.34967041</ele>
        <time>2022-07-10T08:02:34Z</time>
      </trkpt>
      <trkpt lat="43.39689" lon="2.18548">
        <ele>683.54968262</ele>
        <time>2022-07-10T08:02:35Z</time>
      </trkpt>
      <trkpt lat="43.39691" lon="2.18547">
        <ele>683.79968262</ele>
        <time>2022-07-10T08:02:36Z</time>
      </trkpt>
      <trkpt lat="43.39694" lon="2.18546">
        <ele>684.04968262</ele>
        <time>2022-07-10T08:02:37Z</time>
      </trkpt>
      <trkpt lat="43.39696" lon="2.18545">
        <ele>684.28967285</ele>
        <time>2022-07-10T08:02:38Z</time>
      </trkpt>
      <trkpt lat="43.39699" lon="2.18545">
        <ele>684.52966309</ele>
        <time>2022-07-10T08:02:39Z</time>
      </trkpt>
      <trkpt lat="43.39701" lon="2.18545">
        <ele>684.76965332</ele>
        <time>2022-07-10T08:02:40Z</time>
      </trkpt>
      <trkpt lat="43.39703" lon="2.18545">
        <ele>685.04968262</ele>
        <time>2022-07-10T08:02:41Z</time>
      </trkpt>
      <trkpt lat="43.39706" lon="2.18545">
        <ele>685.34967041</ele>
        <time>2022-07-10T08:02:42Z</time>
      </trkpt>
      <trkpt lat="43.39708" lon="2.18544">
        <ele>685.62969971</ele>
        <time>2022-07-10T08:02:43Z</time>
      </trkpt>
      <trkpt lat="43.3971" lon="2.18544">
        <ele>685.89971924</ele>
        <time>2022-07-10T08:02:44Z</time>
      </trkpt>
      <trkpt lat="43.39712" lon="2.18543">
        <ele>686.09973145</ele>
        <time>2022-07-10T08:02:45Z</time>
      </trkpt>
      <trkpt lat="43.39714" lon="2.18542">
        <ele>686.33972168</ele>
        <time>2022-07-10T08:02:46Z</time>
      </trkpt>
      <trkpt lat="43.39716" lon="2.1854">
        <ele>686.54974365</ele>
        <time>2022-07-10T08:02:47Z</time>
      </trkpt>
      <trkpt lat="43.39719" lon="2.18539">
        <ele>686.75976562</ele>
        <time>2022-07-10T08:02:48Z</time>
      </trkpt>
      <trkpt lat="43.39721" lon="2.18538">
        <ele>687.01977539</ele>
        <time>2022-07-10T08:02:49Z</time>
      </trkpt>
      <trkpt lat="43.39723" lon="2.18535">
        <ele>687.20977783</ele>
        <time>2022-07-10T08:02:50Z</time>
      </trkpt>
      <trkpt lat="43.39725" lon="2.18534">
        <ele>687.44976807</ele>
        <time>2022-07-10T08:02:51Z</time>
      </trkpt>
      <trkpt lat="43.39726" lon="2.18533">
        <ele>687.69976807</ele>
        <time>2022-07-10T08:02:52Z</time>
      </trkpt>
      <trkpt lat="43.39727" lon="2.18531">
        <ele>687.88977051</ele>
        <time>2022-07-10T08:02:53Z</time>
      </trkpt>
      <trkpt lat="43.39729" lon="2.1853">
        <ele>688.17974854</ele>
        <time>2022-07-10T08:02:54Z</time>
      </trkpt>
      <trkpt lat="43.3973" lon="2.18528">
        <ele>688.42974854</ele>
        <time>2022-07-10T08:02:55Z</time>
      </trkpt>
      <trkpt lat="43.39731" lon="2.18525">
        <ele>688.60974121</ele>
        <time>2022-07-10T08:02:56Z</time>
      </trkpt>
      <trkpt lat="43.39733" lon="2.18524">
        <ele>688.82971191</ele>
        <time>2022-07-10T08:02:57Z</time>
      </trkpt>
      <trkpt lat="43.39735" lon="2.18522">
        <ele>688.99969482</ele>
        <time>2022-07-10T08:02:58Z</time>
      </trkpt>
      <trkpt lat="43.39737" lon="2.18521">
        <ele>689.22967529</ele>
        <time>2022-07-10T08:02:59Z</time>
      </trkpt>
      <trkpt lat="43.3974" lon="2.18515">
        <ele>689.49969482</ele>
        <time>2022-07-10T08:03:00Z</time>
      </trkpt>
      <trkpt lat="43.39742" lon="2.18512">
        <ele>689.69970703</ele>
        <time>2022-07-10T08:03:01Z</time>
      </trkpt>
      <trkpt lat="43.39744" lon="2.18509">
        <ele>689.96972656</ele>
        <time>2022-07-10T08:03:02Z</time>
      </trkpt>
      <trkpt lat="43.39745" lon="2.18508">
        <ele>690.27972412</ele>
        <time>2022-07-10T08:03:03Z</time>
      </trkpt>
      <trkpt lat="43.39746" lon="2.18505">
        <ele>690.55975342</ele>
        <time>2022-07-10T08:03:04Z</time>
      </trkpt>
      <trkpt lat="43.39748" lon="2.18502">
        <ele>690.86975098</ele>
        <time>2022-07-10T08:03:05Z</time>
      </trkpt>
      <trkpt lat="43.3975" lon="2.185">
        <ele>691.10974121</ele>
        <time>2022-07-10T08:03:06Z</time>
      </trkpt>
      <trkpt lat="43.39751" lon="2.18498">
        <ele>691.19976807</ele>
        <time>2022-07-10T08:03:07Z</time>
      </trkpt>
      <trkpt lat="43.39753" lon="2.18496">
        <ele>691.27978516</ele>
        <time>2022-07-10T08:03:08Z</time>
      </trkpt>
      <trkpt lat="43.39755" lon="2.18493">
        <ele>690.89978027</ele>
        <time>2022-07-10T08:03:09Z</time>
      </trkpt>
      <trkpt lat="43.39756" lon="2.1849">
        <ele>690.92980957</ele>
        <time>2022-07-10T08:03:10Z</time>
      </trkpt>
      <trkpt lat="43.39759" lon="2.18486">
        <ele>690.92980957</ele>
        <time>2022-07-10T08:03:11Z</time>
      </trkpt>
      <trkpt lat="43.39761" lon="2.18483">
        <ele>691.07983398</ele>
        <time>2022-07-10T08:03:12Z</time>
      </trkpt>
      <trkpt lat="43.39762" lon="2.1848">
        <ele>691.14984131</ele>
        <time>2022-07-10T08:03:13Z</time>
      </trkpt>
      <trkpt lat="43.39763" lon="2.18478">
        <ele>691.25982666</ele>
        <time>2022-07-10T08:03:14Z</time>
      </trkpt>
      <trkpt lat="43.39765" lon="2.18477">
        <ele>691.47979736</ele>
        <time>2022-07-10T08:03:15Z</time>
      </trkpt>
      <trkpt lat="43.39767" lon="2.18475">
        <ele>691.48980713</ele>
        <time>2022-07-10T08:03:16Z</time>
      </trkpt>
      <trkpt lat="43.39769" lon="2.18472">
        <ele>691.56982422</ele>
        <time>2022-07-10T08:03:17Z</time>
      </trkpt>
      <trkpt lat="43.39772" lon="2.18468">
        <ele>691.71984863</ele>
        <time>2022-07-10T08:03:18Z</time>
      </trkpt>
      <trkpt lat="43.39774" lon="2.18465">
        <ele>691.7298584</ele>
        <time>2022-07-10T08:03:19Z</time>
      </trkpt>
      <trkpt lat="43.39775" lon="2.18462">
        <ele>691.86987305</ele>
        <time>2022-07-10T08:03:20Z</time>
      </trkpt>
      <trkpt lat="43.39778" lon="2.1846">
        <ele>691.87988281</ele>
        <time>2022-07-10T08:03:21Z</time>
      </trkpt>
      <trkpt lat="43.39781" lon="2.18457">
        <ele>691.87988281</ele>
        <time>2022-07-10T08:03:22Z</time>
      </trkpt>
      <trkpt lat="43.39783" lon="2.18457">
        <ele>692.14990234</ele>
        <time>2022-07-10T08:03:23Z</time>
      </trkpt>
      <trkpt lat="43.39784" lon="2.18456">
        <ele>692.34991455</ele>
        <time>2022-07-10T08:03:24Z</time>
      </trkpt>
      <trkpt lat="43.39786" lon="2.18454">
        <ele>692.69989014</ele>
        <time>2022-07-10T08:03:25Z</time>
      </trkpt>
      <trkpt lat="43.39787" lon="2.18452">
        <ele>693.04986572</ele>
        <time>2022-07-10T08:03:26Z</time>
      </trkpt>
      <trkpt lat="43.39788" lon="2.18451">
        <ele>693.17987061</ele>
        <time>2022-07-10T08:03:27Z</time>
      </trkpt>
      <trkpt lat="43.39788" lon="2.1845">
        <ele>693.24987793</ele>
        <time>2022-07-10T08:03:28Z</time>
      </trkpt>
      <trkpt lat="43.39789" lon="2.18448">
        <ele>693.2298584</ele>
        <time>2022-07-10T08:03:29Z</time>
      </trkpt>
      <trkpt lat="43.3979" lon="2.18446">
        <ele>693.09985352</ele>
        <time>2022-07-10T08:03:30Z</time>
      </trkpt>
      <trkpt lat="43.39791" lon="2.18443">
        <ele>693.05987549</ele>
        <time>2022-07-10T08:03:31Z</time>
      </trkpt>
      <trkpt lat="43.39794" lon="2.18441">
        <ele>693.04986572</ele>
        <time>2022-07-10T08:03:32Z</time>
      </trkpt>
      <trkpt lat="43.39794" lon="2.1844">
        <ele>693.10986328</ele>
        <time>2022-07-10T08:03:33Z</time>
      </trkpt>
      <trkpt lat="43.39795" lon="2.18438">
        <ele>693.18988037</ele>
        <time>2022-07-10T08:03:34Z</time>
      </trkpt>
      <trkpt lat="43.39796" lon="2.18438">
        <ele>693.24987793</ele>
        <time>2022-07-10T08:03:35Z</time>
      </trkpt>
      <trkpt lat="43.39797" lon="2.18435">
        <ele>693.26989746</ele>
        <time>2022-07-10T08:03:36Z</time>
      </trkpt>
      <trkpt lat="43.39799" lon="2.18431">
        <ele>693.21990967</ele>
        <time>2022-07-10T08:03:37Z</time>
      </trkpt>
      <trkpt lat="43.398" lon="2.18428">
        <ele>693.21990967</ele>
        <time>2022-07-10T08:03:38Z</time>
      </trkpt>
      <trkpt lat="43.39803" lon="2.18424">
        <ele>693.14990234</ele>
        <time>2022-07-10T08:03:39Z</time>
      </trkpt>
      <trkpt lat="43.39804" lon="2.18418">
        <ele>693.2598877</ele>
        <time>2022-07-10T08:03:40Z</time>
      </trkpt>
      <trkpt lat="43.39806" lon="2.18414">
        <ele>693.36987305</ele>
        <time>2022-07-10T08:03:41Z</time>
      </trkpt>
      <trkpt lat="43.39808" lon="2.18411">
        <ele>693.43988037</ele>
        <time>2022-07-10T08:03:42Z</time>
      </trkpt>
      <trkpt lat="43.39809" lon="2.18408">
        <ele>693.60986328</ele>
        <time>2022-07-10T08:03:43Z</time>
      </trkpt>
      <trkpt lat="43.3981" lon="2.18404">
        <ele>693.64984131</ele>
        <time>2022-07-10T08:03:44Z</time>
      </trkpt>
      <trkpt lat="43.39811" lon="2.18398">
        <ele>693.68981934</ele>
        <time>2022-07-10T08:03:45Z</time>
      </trkpt>
      <trkpt lat="43.39812" lon="2.18395">
        <ele>693.73980713</ele>
        <time>2022-07-10T08:03:46Z</time>
      </trkpt>
      <trkpt lat="43.39814" lon="2.18391">
        <ele>693.75982666</ele>
        <time>2022-07-10T08:03:47Z</time>
      </trkpt>
      <trkpt lat="43.39814" lon="2.18387">
        <ele>693.81982422</ele>
        <time>2022-07-10T08:03:48Z</time>
      </trkpt>
      <trkpt lat="43.39815" lon="2.1838">
        <ele>693.82983398</ele>
        <time>2022-07-10T08:03:49Z</time>
      </trkpt>
      <trkpt lat="43.39815" lon="2.18376">
        <ele>693.82983398</ele>
        <time>2022-07-10T08:03:50Z</time>
      </trkpt>
      <trkpt lat="43.39815" lon="2.18372">
        <ele>693.79980469</ele>
        <time>2022-07-10T08:03:51Z</time>
      </trkpt>
      <trkpt lat="43.39816" lon="2.18369">
        <ele>693.72979736</ele>
        <time>2022-07-10T08:03:52Z</time>
      </trkpt>
      <trkpt lat="43.39816" lon="2.18365">
        <ele>693.74981689</ele>
        <time>2022-07-10T08:03:53Z</time>
      </trkpt>
      <trkpt lat="43.39816" lon="2.18359">
        <ele>693.7197876</ele>
        <time>2022-07-10T08:03:54Z</time>
      </trkpt>
      <trkpt lat="43.39815" lon="2.18355">
        <ele>693.67980957</ele>
        <time>2022-07-10T08:03:55Z</time>
      </trkpt>
      <trkpt lat="43.39814" lon="2.18352">
        <ele>693.63983154</ele>
        <time>2022-07-10T08:03:56Z</time>
      </trkpt>
      <trkpt lat="43.39813" lon="2.1835">
        <ele>693.51983643</ele>
        <time>2022-07-10T08:03:57Z</time>
      </trkpt>
      <trkpt lat="43.39812" lon="2.18347">
        <ele>693.43981934</ele>
        <time>2022-07-10T08:03:58Z</time>
      </trkpt>
      <trkpt lat="43.39812" lon="2.18343">
        <ele>693.37982178</ele>
        <time>2022-07-10T08:03:59Z</time>
      </trkpt>
      <trkpt lat="43.39812" lon="2.18341">
        <ele>693.26983643</ele>
        <time>2022-07-10T08:04:00Z</time>
      </trkpt>
      <trkpt lat="43.39811" lon="2.18339">
        <ele>693.17980957</ele>
        <time>2022-07-10T08:04:01Z</time>
      </trkpt>
      <trkpt lat="43.39811" lon="2.18337">
        <ele>693.14978027</ele>
        <time>2022-07-10T08:04:02Z</time>
      </trkpt>
      <trkpt lat="43.39812" lon="2.18334">
        <ele>693.10980225</ele>
        <time>2022-07-10T08:04:03Z</time>
      </trkpt>
      <trkpt lat="43.39814" lon="2.18332">
        <ele>693.07977295</ele>
        <time>2022-07-10T08:04:04Z</time>
      </trkpt>
      <trkpt lat="43.39815" lon="2.18329">
        <ele>693.07977295</ele>
        <time>2022-07-10T08:04:05Z</time>
      </trkpt>
      <trkpt lat="43.39816" lon="2.18327">
        <ele>693.01977539</ele>
        <time>2022-07-10T08:04:06Z</time>
      </trkpt>
      <trkpt lat="43.39817" lon="2.18323">
        <ele>692.9697876</ele>
        <time>2022-07-10T08:04:07Z</time>
      </trkpt>
      <trkpt lat="43.39818" lon="2.18322">
        <ele>692.95977783</ele>
        <time>2022-07-10T08:04:08Z</time>
      </trkpt>
      <trkpt lat="43.39818" lon="2.18321">
        <ele>692.83978271</ele>
        <time>2022-07-10T08:04:09Z</time>
      </trkpt>
      <trkpt lat="43.3982" lon="2.1832">
        <ele>692.88977051</ele>
        <time>2022-07-10T08:04:10Z</time>
      </trkpt>
      <trkpt lat="43.3982" lon="2.18319">
        <ele>692.92974854</ele>
        <time>2022-07-10T08:04:11Z</time>
      </trkpt>
      <trkpt lat="43.39822" lon="2.18318">
        <ele>692.98974609</ele>
        <time>2022-07-10T08:04:12Z</time>
      </trkpt>
      <trkpt lat="43.39824" lon="2.18315">
        <ele>693.04974365</ele>
        <time>2022-07-10T08:04:13Z</time>
      </trkpt>
      <trkpt lat="43.39826" lon="2.18313">
        <ele>692.98974609</ele>
        <time>2022-07-10T08:04:14Z</time>
      </trkpt>
      <trkpt lat="43.39828" lon="2.18312">
        <ele>692.98974609</ele>
        <time>2022-07-10T08:04:15Z</time>
      </trkpt>
      <trkpt lat="43.39829" lon="2.18311">
        <ele>692.909729</ele>
        <time>2022-07-10T08:04:16Z</time>
      </trkpt>
      <trkpt lat="43.39833" lon="2.18308">
        <ele>693.22973633</ele>
        <time>2022-07-10T08:04:31Z</time>
      </trkpt>
      <trkpt lat="43.39833" lon="2.18309">
        <ele>693.28973389</ele>
        <time>2022-07-10T08:04:32Z</time>
      </trkpt>
      <trkpt lat="43.39834" lon="2.1831">
        <ele>693.34973145</ele>
        <time>2022-07-10T08:04:33Z</time>
      </trkpt>
      <trkpt lat="43.39835" lon="2.18309">
        <ele>693.4397583</ele>
        <time>2022-07-10T08:04:34Z</time>
      </trkpt>
      <trkpt lat="43.39836" lon="2.18309">
        <ele>693.45977783</ele>
        <time>2022-07-10T08:04:35Z</time>
      </trkpt>
      <trkpt lat="43.39837" lon="2.18308">
        <ele>693.42974854</ele>
        <time>2022-07-10T08:04:36Z</time>
      </trkpt>
      <trkpt lat="43.39838" lon="2.18308">
        <ele>693.4397583</ele>
        <time>2022-07-10T08:04:38Z</time>
      </trkpt>
      <trkpt lat="43.39838" lon="2.18307">
        <ele>693.4397583</ele>
        <time>2022-07-10T08:04:39Z</time>
      </trkpt>
      <trkpt lat="43.39838" lon="2.18306">
        <ele>693.23974609</ele>
        <time>2022-07-10T08:04:47Z</time>
      </trkpt>
      <trkpt lat="43.39839" lon="2.18306">
        <ele>693.23974609</ele>
        <time>2022-07-10T08:04:48Z</time>
      </trkpt>
      <trkpt lat="43.39839" lon="2.18305">
        <ele>693.22973633</ele>
        <time>2022-07-10T08:04:49Z</time>
      </trkpt>
      <trkpt lat="43.3984" lon="2.183">
        <ele>693.2097168</ele>
        <time>2022-07-10T08:04:54Z</time>
      </trkpt>
      <trkpt lat="43.39842" lon="2.18298">
        <ele>693.12969971</ele>
        <time>2022-07-10T08:04:55Z</time>
      </trkpt>
      <trkpt lat="43.39844" lon="2.18296">
        <ele>692.93969727</ele>
        <time>2022-07-10T08:04:56Z</time>
      </trkpt>
      <trkpt lat="43.39848" lon="2.18295">
        <ele>692.72967529</ele>
        <time>2022-07-10T08:04:57Z</time>
      </trkpt>
      <trkpt lat="43.3985" lon="2.18293">
        <ele>692.55969238</ele>
        <time>2022-07-10T08:04:58Z</time>
      </trkpt>
      <trkpt lat="43.39852" lon="2.18291">
        <ele>692.38970947</ele>
        <time>2022-07-10T08:04:59Z</time>
      </trkpt>
      <trkpt lat="43.39853" lon="2.18288">
        <ele>692.30969238</ele>
        <time>2022-07-10T08:05:00Z</time>
      </trkpt>
      <trkpt lat="43.39854" lon="2.18286">
        <ele>692.22967529</ele>
        <time>2022-07-10T08:05:01Z</time>
      </trkpt>
      <trkpt lat="43.39856" lon="2.1828">
        <ele>692.09967041</ele>
        <time>2022-07-10T08:05:02Z</time>
      </trkpt>
      <trkpt lat="43.39858" lon="2.18278">
        <ele>692.01965332</ele>
        <time>2022-07-10T08:05:03Z</time>
      </trkpt>
      <trkpt lat="43.3986" lon="2.18275">
        <ele>691.86962891</ele>
        <time>2022-07-10T08:05:04Z</time>
      </trkpt>
      <trkpt lat="43.39861" lon="2.18273">
        <ele>691.68963623</ele>
        <time>2022-07-10T08:05:05Z</time>
      </trkpt>
      <trkpt lat="43.39863" lon="2.1827">
        <ele>691.50964355</ele>
        <time>2022-07-10T08:05:06Z</time>
      </trkpt>
      <trkpt lat="43.39865" lon="2.18268">
        <ele>691.36962891</ele>
        <time>2022-07-10T08:05:07Z</time>
      </trkpt>
      <trkpt lat="43.39867" lon="2.18265">
        <ele>691.28961182</ele>
        <time>2022-07-10T08:05:08Z</time>
      </trkpt>
      <trkpt lat="43.39869" lon="2.18261">
        <ele>690.40960693</ele>
        <time>2022-07-10T08:05:09Z</time>
      </trkpt>
      <trkpt lat="43.39872" lon="2.18257">
        <ele>690.4196167</ele>
        <time>2022-07-10T08:05:10Z</time>
      </trkpt>
      <trkpt lat="43.39873" lon="2.18254">
        <ele>690.35961914</ele>
        <time>2022-07-10T08:05:11Z</time>
      </trkpt>
      <trkpt lat="43.39875" lon="2.18253">
        <ele>690.23962402</ele>
        <time>2022-07-10T08:05:12Z</time>
      </trkpt>
      <trkpt lat="43.39877" lon="2.18251">
        <ele>690.14959717</ele>
        <time>2022-07-10T08:05:13Z</time>
      </trkpt>
      <trkpt lat="43.39879" lon="2.18248">
        <ele>690.00958252</ele>
        <time>2022-07-10T08:05:14Z</time>
      </trkpt>
      <trkpt lat="43.39882" lon="2.18244">
        <ele>690.00958252</ele>
        <time>2022-07-10T08:05:15Z</time>
      </trkpt>
      <trkpt lat="43.39884" lon="2.18241">
        <ele>689.98956299</ele>
        <time>2022-07-10T08:05:16Z</time>
      </trkpt>
      <trkpt lat="43.39886" lon="2.1824">
        <ele>689.86956787</ele>
        <time>2022-07-10T08:05:17Z</time>
      </trkpt>
      <trkpt lat="43.39886" lon="2.18237">
        <ele>689.76959229</ele>
        <time>2022-07-10T08:05:18Z</time>
      </trkpt>
      <trkpt lat="43.3989" lon="2.18233">
        <ele>689.58959961</ele>
        <time>2022-07-10T08:05:19Z</time>
      </trkpt>
      <trkpt lat="43.39893" lon="2.1823">
        <ele>689.44958496</ele>
        <time>2022-07-10T08:05:20Z</time>
      </trkpt>
      <trkpt lat="43.39895" lon="2.18227">
        <ele>689.28961182</ele>
        <time>2022-07-10T08:05:21Z</time>
      </trkpt>
      <trkpt lat="43.39897" lon="2.18224">
        <ele>689.1696167</ele>
        <time>2022-07-10T08:05:22Z</time>
      </trkpt>
      <trkpt lat="43.399" lon="2.18222">
        <ele>689.00964355</ele>
        <time>2022-07-10T08:05:23Z</time>
      </trkpt>
      <trkpt lat="43.39903" lon="2.18218">
        <ele>689.02966309</ele>
        <time>2022-07-10T08:05:24Z</time>
      </trkpt>
      <trkpt lat="43.39906" lon="2.18216">
        <ele>689.03967285</ele>
        <time>2022-07-10T08:05:25Z</time>
      </trkpt>
      <trkpt lat="43.39908" lon="2.18214">
        <ele>688.8996582</ele>
        <time>2022-07-10T08:05:26Z</time>
      </trkpt>
      <trkpt lat="43.39911" lon="2.18212">
        <ele>688.90966797</ele>
        <time>2022-07-10T08:05:27Z</time>
      </trkpt>
      <trkpt lat="43.39915" lon="2.18207">
        <ele>688.75964355</ele>
        <time>2022-07-10T08:05:28Z</time>
      </trkpt>
      <trkpt lat="43.39918" lon="2.18204">
        <ele>688.6696167</ele>
        <time>2022-07-10T08:05:29Z</time>
      </trkpt>
      <trkpt lat="43.39921" lon="2.182">
        <ele>688.55963135</ele>
        <time>2022-07-10T08:05:30Z</time>
      </trkpt>
      <trkpt lat="43.39922" lon="2.18198">
        <ele>688.22961426</ele>
        <time>2022-07-10T08:05:31Z</time>
      </trkpt>
      <trkpt lat="43.39924" lon="2.18195">
        <ele>687.87963867</ele>
        <time>2022-07-10T08:05:32Z</time>
      </trkpt>
      <trkpt lat="43.39928" lon="2.18191">
        <ele>687.54962158</ele>
        <time>2022-07-10T08:05:33Z</time>
      </trkpt>
      <trkpt lat="43.39931" lon="2.18188">
        <ele>687.33959961</ele>
        <time>2022-07-10T08:05:34Z</time>
      </trkpt>
      <trkpt lat="43.39933" lon="2.18185">
        <ele>687.1395874</ele>
        <time>2022-07-10T08:05:35Z</time>
      </trkpt>
      <trkpt lat="43.39935" lon="2.18183">
        <ele>687.11956787</ele>
        <time>2022-07-10T08:05:36Z</time>
      </trkpt>
      <trkpt lat="43.39937" lon="2.18179">
        <ele>687.06958008</ele>
        <time>2022-07-10T08:05:37Z</time>
      </trkpt>
      <trkpt lat="43.3994" lon="2.18177">
        <ele>686.91955566</ele>
        <time>2022-07-10T08:05:38Z</time>
      </trkpt>
      <trkpt lat="43.39943" lon="2.18176">
        <ele>686.94958496</ele>
        <time>2022-07-10T08:05:39Z</time>
      </trkpt>
      <trkpt lat="43.39946" lon="2.18172">
        <ele>686.75958252</ele>
        <time>2022-07-10T08:05:40Z</time>
      </trkpt>
      <trkpt lat="43.3995" lon="2.18168">
        <ele>686.46960449</ele>
        <time>2022-07-10T08:05:41Z</time>
      </trkpt>
      <trkpt lat="43.39956" lon="2.18163">
        <ele>686.37957764</ele>
        <time>2022-07-10T08:05:42Z</time>
      </trkpt>
      <trkpt lat="43.3996" lon="2.1816">
        <ele>686.05957031</ele>
        <time>2022-07-10T08:05:43Z</time>
      </trkpt>
      <trkpt lat="43.39963" lon="2.18158">
        <ele>685.85955811</ele>
        <time>2022-07-10T08:05:44Z</time>
      </trkpt>
      <trkpt lat="43.39966" lon="2.18154">
        <ele>685.76953125</ele>
        <time>2022-07-10T08:05:45Z</time>
      </trkpt>
      <trkpt lat="43.39968" lon="2.1815">
        <ele>685.58953857</ele>
        <time>2022-07-10T08:05:46Z</time>
      </trkpt>
      <trkpt lat="43.3997" lon="2.18147">
        <ele>685.6595459</ele>
        <time>2022-07-10T08:05:47Z</time>
      </trkpt>
      <trkpt lat="43.39971" lon="2.18144">
        <ele>685.89953613</ele>
        <time>2022-07-10T08:05:48Z</time>
      </trkpt>
      <trkpt lat="43.39972" lon="2.18142">
        <ele>685.98956299</ele>
        <time>2022-07-10T08:05:49Z</time>
      </trkpt>
      <trkpt lat="43.39973" lon="2.1814">
        <ele>686.1395874</ele>
        <time>2022-07-10T08:05:50Z</time>
      </trkpt>
      <trkpt lat="43.39975" lon="2.18136">
        <ele>686.09960938</ele>
        <time>2022-07-10T08:05:51Z</time>
      </trkpt>
      <trkpt lat="43.39976" lon="2.18132">
        <ele>685.79962158</ele>
        <time>2022-07-10T08:05:52Z</time>
      </trkpt>
      <trkpt lat="43.39978" lon="2.18129">
        <ele>685.72961426</ele>
        <time>2022-07-10T08:05:53Z</time>
      </trkpt>
      <trkpt lat="43.39979" lon="2.18127">
        <ele>685.67962646</ele>
        <time>2022-07-10T08:05:54Z</time>
      </trkpt>
      <trkpt lat="43.39982" lon="2.18125">
        <ele>685.67962646</ele>
        <time>2022-07-10T08:05:55Z</time>
      </trkpt>
      <trkpt lat="43.39984" lon="2.18122">
        <ele>685.63964844</ele>
        <time>2022-07-10T08:05:56Z</time>
      </trkpt>
      <trkpt lat="43.39987" lon="2.18118">
        <ele>685.48962402</ele>
        <time>2022-07-10T08:05:57Z</time>
      </trkpt>
      <trkpt lat="43.39989" lon="2.18117">
        <ele>685.23962402</ele>
        <time>2022-07-10T08:05:58Z</time>
      </trkpt>
      <trkpt lat="43.39991" lon="2.18115">
        <ele>684.85961914</ele>
        <time>2022-07-10T08:05:59Z</time>
      </trkpt>
      <trkpt lat="43.39995" lon="2.18112">
        <ele>684.54962158</ele>
        <time>2022-07-10T08:06:00Z</time>
      </trkpt>
      <trkpt lat="43.39998" lon="2.1811">
        <ele>684.29962158</ele>
        <time>2022-07-10T08:06:01Z</time>
      </trkpt>
      <trkpt lat="43.40001" lon="2.18108">
        <ele>683.92962646</ele>
        <time>2022-07-10T08:06:02Z</time>
      </trkpt>
      <trkpt lat="43.40002" lon="2.18104">
        <ele>683.71960449</ele>
        <time>2022-07-10T08:06:03Z</time>
      </trkpt>
      <trkpt lat="43.40004" lon="2.18099">
        <ele>683.40960693</ele>
        <time>2022-07-10T08:06:04Z</time>
      </trkpt>
      <trkpt lat="43.40006" lon="2.18097">
        <ele>683.08959961</ele>
        <time>2022-07-10T08:06:05Z</time>
      </trkpt>
      <trkpt lat="43.40008" lon="2.18094">
        <ele>682.80957031</ele>
        <time>2022-07-10T08:06:06Z</time>
      </trkpt>
      <trkpt lat="43.4001" lon="2.1809">
        <ele>682.31958008</ele>
        <time>2022-07-10T08:06:07Z</time>
      </trkpt>
      <trkpt lat="43.40012" lon="2.18088">
        <ele>681.83959961</ele>
        <time>2022-07-10T08:06:08Z</time>
      </trkpt>
      <trkpt lat="43.40014" lon="2.18084">
        <ele>680.75958252</ele>
        <time>2022-07-10T08:06:09Z</time>
      </trkpt>
      <trkpt lat="43.40015" lon="2.18083">
        <ele>680.40960693</ele>
        <time>2022-07-10T08:06:10Z</time>
      </trkpt>
      <trkpt lat="43.40016" lon="2.18081">
        <ele>680.30963135</ele>
        <time>2022-07-10T08:06:11Z</time>
      </trkpt>
      <trkpt lat="43.40018" lon="2.18078">
        <ele>680.25964355</ele>
        <time>2022-07-10T08:06:12Z</time>
      </trkpt>
      <trkpt lat="43.40021" lon="2.18074">
        <ele>680.15966797</ele>
        <time>2022-07-10T08:06:13Z</time>
      </trkpt>
      <trkpt lat="43.40023" lon="2.1807">
        <ele>679.88964844</ele>
        <time>2022-07-10T08:06:14Z</time>
      </trkpt>
      <trkpt lat="43.40026" lon="2.18068">
        <ele>679.62963867</ele>
        <time>2022-07-10T08:06:15Z</time>
      </trkpt>
      <trkpt lat="43.40028" lon="2.18065">
        <ele>679.27966309</ele>
        <time>2022-07-10T08:06:16Z</time>
      </trkpt>
      <trkpt lat="43.4003" lon="2.18063">
        <ele>679.03967285</ele>
        <time>2022-07-10T08:06:17Z</time>
      </trkpt>
      <trkpt lat="43.40034" lon="2.18058">
        <ele>678.949646</ele>
        <time>2022-07-10T08:06:18Z</time>
      </trkpt>
      <trkpt lat="43.40036" lon="2.18055">
        <ele>678.56964111</ele>
        <time>2022-07-10T08:06:19Z</time>
      </trkpt>
      <trkpt lat="43.40038" lon="2.18052">
        <ele>678.33966064</ele>
        <time>2022-07-10T08:06:20Z</time>
      </trkpt>
      <trkpt lat="43.40041" lon="2.18049">
        <ele>678.02966309</ele>
        <time>2022-07-10T08:06:21Z</time>
      </trkpt>
      <trkpt lat="43.40043" lon="2.18047">
        <ele>677.72967529</ele>
        <time>2022-07-10T08:06:22Z</time>
      </trkpt>
      <trkpt lat="43.40044" lon="2.18046">
        <ele>677.6796875</ele>
        <time>2022-07-10T08:06:23Z</time>
      </trkpt>
      <trkpt lat="43.40045" lon="2.18045">
        <ele>677.54968262</ele>
        <time>2022-07-10T08:06:24Z</time>
      </trkpt>
      <trkpt lat="43.40047" lon="2.18045">
        <ele>677.38970947</ele>
        <time>2022-07-10T08:06:25Z</time>
      </trkpt>
      <trkpt lat="43.4005" lon="2.18044">
        <ele>677.19970703</ele>
        <time>2022-07-10T08:06:26Z</time>
      </trkpt>
      <trkpt lat="43.40052" lon="2.18044">
        <ele>676.86968994</ele>
        <time>2022-07-10T08:06:27Z</time>
      </trkpt>
      <trkpt lat="43.40053" lon="2.18044">
        <ele>676.62969971</ele>
        <time>2022-07-10T08:06:28Z</time>
      </trkpt>
      <trkpt lat="43.40055" lon="2.18044">
        <ele>676.41967773</ele>
        <time>2022-07-10T08:06:29Z</time>
      </trkpt>
      <trkpt lat="43.40056" lon="2.18044">
        <ele>676.18969727</ele>
        <time>2022-07-10T08:06:30Z</time>
      </trkpt>
      <trkpt lat="43.40058" lon="2.18045">
        <ele>676.06970215</ele>
        <time>2022-07-10T08:06:31Z</time>
      </trkpt>
      <trkpt lat="43.40062" lon="2.18045">
        <ele>675.88970947</ele>
        <time>2022-07-10T08:06:32Z</time>
      </trkpt>
      <trkpt lat="43.40064" lon="2.18045">
        <ele>675.62969971</ele>
        <time>2022-07-10T08:06:33Z</time>
      </trkpt>
      <trkpt lat="43.40066" lon="2.18044">
        <ele>675.50970459</ele>
        <time>2022-07-10T08:06:34Z</time>
      </trkpt>
      <trkpt lat="43.40069" lon="2.18043">
        <ele>675.19970703</ele>
        <time>2022-07-10T08:06:35Z</time>
      </trkpt>
      <trkpt lat="43.40072" lon="2.1804">
        <ele>674.97973633</ele>
        <time>2022-07-10T08:06:36Z</time>
      </trkpt>
      <trkpt lat="43.40074" lon="2.18039">
        <ele>674.79974365</ele>
        <time>2022-07-10T08:06:37Z</time>
      </trkpt>
      <trkpt lat="43.40077" lon="2.18039">
        <ele>674.4397583</ele>
        <time>2022-07-10T08:06:38Z</time>
      </trkpt>
      <trkpt lat="43.40079" lon="2.18039">
        <ele>674.29974365</ele>
        <time>2022-07-10T08:06:39Z</time>
      </trkpt>
      <trkpt lat="43.40081" lon="2.18038">
        <ele>674.08972168</ele>
        <time>2022-07-10T08:06:40Z</time>
      </trkpt>
      <trkpt lat="43.40086" lon="2.18035">
        <ele>674.01971436</ele>
        <time>2022-07-10T08:06:41Z</time>
      </trkpt>
      <trkpt lat="43.4009" lon="2.18033">
        <ele>673.88970947</ele>
        <time>2022-07-10T08:06:42Z</time>
      </trkpt>
      <trkpt lat="43.40093" lon="2.18031">
        <ele>673.77972412</ele>
        <time>2022-07-10T08:06:43Z</time>
      </trkpt>
      <trkpt lat="43.40097" lon="2.1803">
        <ele>673.62969971</ele>
        <time>2022-07-10T08:06:44Z</time>
      </trkpt>
      <trkpt lat="43.40101" lon="2.1803">
        <ele>673.55969238</ele>
        <time>2022-07-10T08:06:45Z</time>
      </trkpt>
      <trkpt lat="43.40103" lon="2.18029">
        <ele>673.57971191</ele>
        <time>2022-07-10T08:06:46Z</time>
      </trkpt>
      <trkpt lat="43.40104" lon="2.18029">
        <ele>673.50970459</ele>
        <time>2022-07-10T08:06:47Z</time>
      </trkpt>
      <trkpt lat="43.40106" lon="2.18028">
        <ele>673.49969482</ele>
        <time>2022-07-10T08:06:48Z</time>
      </trkpt>
      <trkpt lat="43.40109" lon="2.18026">
        <ele>673.39971924</ele>
        <time>2022-07-10T08:06:49Z</time>
      </trkpt>
      <trkpt lat="43.40112" lon="2.18025">
        <ele>673.38970947</ele>
        <time>2022-07-10T08:06:50Z</time>
      </trkpt>
      <trkpt lat="43.40114" lon="2.18024">
        <ele>673.41973877</ele>
        <time>2022-07-10T08:06:51Z</time>
      </trkpt>
      <trkpt lat="43.40117" lon="2.18023">
        <ele>673.47973633</ele>
        <time>2022-07-10T08:06:52Z</time>
      </trkpt>
      <trkpt lat="43.4012" lon="2.18021">
        <ele>673.46972656</ele>
        <time>2022-07-10T08:06:53Z</time>
      </trkpt>
      <trkpt lat="43.40124" lon="2.18019">
        <ele>673.41973877</ele>
        <time>2022-07-10T08:06:54Z</time>
      </trkpt>
      <trkpt lat="43.40126" lon="2.18018">
        <ele>673.29974365</ele>
        <time>2022-07-10T08:06:55Z</time>
      </trkpt>
      <trkpt lat="43.40127" lon="2.18018">
        <ele>673.19976807</ele>
        <time>2022-07-10T08:06:56Z</time>
      </trkpt>
      <trkpt lat="43.40129" lon="2.18017">
        <ele>673.08978271</ele>
        <time>2022-07-10T08:06:57Z</time>
      </trkpt>
      <trkpt lat="43.40133" lon="2.18015">
        <ele>672.98980713</ele>
        <time>2022-07-10T08:06:58Z</time>
      </trkpt>
      <trkpt lat="43.40134" lon="2.18015">
        <ele>672.9697876</ele>
        <time>2022-07-10T08:06:59Z</time>
      </trkpt>
      <trkpt lat="43.40135" lon="2.18015">
        <ele>672.95977783</ele>
        <time>2022-07-10T08:07:00Z</time>
      </trkpt>
      <trkpt lat="43.40137" lon="2.18014">
        <ele>672.92974854</ele>
        <time>2022-07-10T08:07:01Z</time>
      </trkpt>
      <trkpt lat="43.40139" lon="2.18012">
        <ele>672.909729</ele>
        <time>2022-07-10T08:07:02Z</time>
      </trkpt>
      <trkpt lat="43.40143" lon="2.18009">
        <ele>672.80975342</ele>
        <time>2022-07-10T08:07:03Z</time>
      </trkpt>
      <trkpt lat="43.40145" lon="2.18009">
        <ele>672.70977783</ele>
        <time>2022-07-10T08:07:04Z</time>
      </trkpt>
      <trkpt lat="43.40147" lon="2.18008">
        <ele>672.7197876</ele>
        <time>2022-07-10T08:07:05Z</time>
      </trkpt>
      <trkpt lat="43.40147" lon="2.18006">
        <ele>672.70977783</ele>
        <time>2022-07-10T08:07:06Z</time>
      </trkpt>
      <trkpt lat="43.40149" lon="2.18003">
        <ele>672.78979492</ele>
        <time>2022-07-10T08:07:07Z</time>
      </trkpt>
      <trkpt lat="43.4015" lon="2.18001">
        <ele>672.78979492</ele>
        <time>2022-07-10T08:07:08Z</time>
      </trkpt>
      <trkpt lat="43.4015" lon="2.17999">
        <ele>672.20977783</ele>
        <time>2022-07-10T08:07:09Z</time>
      </trkpt>
      <trkpt lat="43.40149" lon="2.17999">
        <ele>672.13977051</ele>
        <time>2022-07-10T08:07:10Z</time>
      </trkpt>
      <trkpt lat="43.40149" lon="2.17998">
        <ele>672.01977539</ele>
        <time>2022-07-10T08:07:11Z</time>
      </trkpt>
      <trkpt lat="43.40147" lon="2.17997">
        <ele>671.94976807</ele>
        <time>2022-07-10T08:07:12Z</time>
      </trkpt>
      <trkpt lat="43.40146" lon="2.17995">
        <ele>671.9397583</ele>
        <time>2022-07-10T08:07:13Z</time>
      </trkpt>
      <trkpt lat="43.40144" lon="2.17995">
        <ele>671.86975098</ele>
        <time>2022-07-10T08:07:14Z</time>
      </trkpt>
      <trkpt lat="43.40143" lon="2.17995">
        <ele>671.86975098</ele>
        <time>2022-07-10T08:07:15Z</time>
      </trkpt>
      <trkpt lat="43.40141" lon="2.17994">
        <ele>671.85974121</ele>
        <time>2022-07-10T08:07:16Z</time>
      </trkpt>
      <trkpt lat="43.40139" lon="2.17992">
        <ele>671.81976318</ele>
        <time>2022-07-10T08:07:17Z</time>
      </trkpt>
      <trkpt lat="43.40138" lon="2.17989">
        <ele>671.95977783</ele>
        <time>2022-07-10T08:07:18Z</time>
      </trkpt>
      <trkpt lat="43.40139" lon="2.17987">
        <ele>671.94976807</ele>
        <time>2022-07-10T08:07:19Z</time>
      </trkpt>
      <trkpt lat="43.4014" lon="2.17985">
        <ele>671.94976807</ele>
        <time>2022-07-10T08:07:20Z</time>
      </trkpt>
      <trkpt lat="43.40142" lon="2.17983">
        <ele>671.99975586</ele>
        <time>2022-07-10T08:07:21Z</time>
      </trkpt>
      <trkpt lat="43.40143" lon="2.17982">
        <ele>671.83978271</ele>
        <time>2022-07-10T08:07:22Z</time>
      </trkpt>
      <trkpt lat="43.40144" lon="2.17982">
        <ele>671.65979004</ele>
        <time>2022-07-10T08:07:23Z</time>
      </trkpt>
      <trkpt lat="43.40146" lon="2.1798">
        <ele>671.47979736</ele>
        <time>2022-07-10T08:07:24Z</time>
      </trkpt>
      <trkpt lat="43.40149" lon="2.17978">
        <ele>671.2197876</ele>
        <time>2022-07-10T08:07:25Z</time>
      </trkpt>
      <trkpt lat="43.40151" lon="2.17976">
        <ele>671.13977051</ele>
        <time>2022-07-10T08:07:26Z</time>
      </trkpt>
      <trkpt lat="43.40154" lon="2.17973">
        <ele>671.1697998</ele>
        <time>2022-07-10T08:07:27Z</time>
      </trkpt>
      <trkpt lat="43.40156" lon="2.17972">
        <ele>671.1697998</ele>
        <time>2022-07-10T08:07:28Z</time>
      </trkpt>
      <trkpt lat="43.40158" lon="2.1797">
        <ele>671.15979004</ele>
        <time>2022-07-10T08:07:29Z</time>
      </trkpt>
      <trkpt lat="43.40161" lon="2.17968">
        <ele>671.04980469</ele>
        <time>2022-07-10T08:07:30Z</time>
      </trkpt>
      <trkpt lat="43.40163" lon="2.17965">
        <ele>670.93981934</ele>
        <time>2022-07-10T08:07:31Z</time>
      </trkpt>
      <trkpt lat="43.40165" lon="2.17964">
        <ele>670.87982178</ele>
        <time>2022-07-10T08:07:32Z</time>
      </trkpt>
      <trkpt lat="43.40168" lon="2.17963">
        <ele>670.90985107</ele>
        <time>2022-07-10T08:07:33Z</time>
      </trkpt>
      <trkpt lat="43.4017" lon="2.17961">
        <ele>670.93988037</ele>
        <time>2022-07-10T08:07:34Z</time>
      </trkpt>
      <trkpt lat="43.40171" lon="2.17959">
        <ele>670.91986084</ele>
        <time>2022-07-10T08:07:35Z</time>
      </trkpt>
      <trkpt lat="43.40173" lon="2.17956">
        <ele>670.95983887</ele>
        <time>2022-07-10T08:07:36Z</time>
      </trkpt>
      <trkpt lat="43.40175" lon="2.17955">
        <ele>670.86981201</ele>
        <time>2022-07-10T08:07:37Z</time>
      </trkpt>
      <trkpt lat="43.40177" lon="2.17953">
        <ele>670.76983643</ele>
        <time>2022-07-10T08:07:38Z</time>
      </trkpt>
      <trkpt lat="43.40179" lon="2.1795">
        <ele>670.68981934</ele>
        <time>2022-07-10T08:07:39Z</time>
      </trkpt>
      <trkpt lat="43.4018" lon="2.17949">
        <ele>670.52984619</ele>
        <time>2022-07-10T08:07:40Z</time>
      </trkpt>
      <trkpt lat="43.40182" lon="2.17947">
        <ele>670.4798584</ele>
        <time>2022-07-10T08:07:41Z</time>
      </trkpt>
      <trkpt lat="43.40184" lon="2.17945">
        <ele>670.5098877</ele>
        <time>2022-07-10T08:07:42Z</time>
      </trkpt>
      <trkpt lat="43.40187" lon="2.17943">
        <ele>670.53991699</ele>
        <time>2022-07-10T08:07:43Z</time>
      </trkpt>
      <trkpt lat="43.40189" lon="2.17941">
        <ele>670.57989502</ele>
        <time>2022-07-10T08:07:44Z</time>
      </trkpt>
      <trkpt lat="43.40191" lon="2.1794">
        <ele>670.58990479</ele>
        <time>2022-07-10T08:07:45Z</time>
      </trkpt>
      <trkpt lat="43.40193" lon="2.17938">
        <ele>670.58990479</ele>
        <time>2022-07-10T08:07:46Z</time>
      </trkpt>
      <trkpt lat="43.40195" lon="2.17935">
        <ele>670.58990479</ele>
        <time>2022-07-10T08:07:47Z</time>
      </trkpt>
      <trkpt lat="43.40199" lon="2.17932">
        <ele>670.60992432</ele>
        <time>2022-07-10T08:07:48Z</time>
      </trkpt>
      <trkpt lat="43.40202" lon="2.1793">
        <ele>670.63995361</ele>
        <time>2022-07-10T08:07:49Z</time>
      </trkpt>
      <trkpt lat="43.40206" lon="2.17928">
        <ele>670.72998047</ele>
        <time>2022-07-10T08:07:50Z</time>
      </trkpt>
      <trkpt lat="43.40209" lon="2.17927">
        <ele>670.82995605</ele>
        <time>2022-07-10T08:07:51Z</time>
      </trkpt>
      <trkpt lat="43.40214" lon="2.17923">
        <ele>671.02996826</ele>
        <time>2022-07-10T08:07:52Z</time>
      </trkpt>
      <trkpt lat="43.40217" lon="2.1792">
        <ele>671.14996338</ele>
        <time>2022-07-10T08:07:53Z</time>
      </trkpt>
      <trkpt lat="43.40219" lon="2.17917">
        <ele>671.33996582</ele>
        <time>2022-07-10T08:07:54Z</time>
      </trkpt>
      <trkpt lat="43.40222" lon="2.17915">
        <ele>671.42999268</ele>
        <time>2022-07-10T08:07:55Z</time>
      </trkpt>
      <trkpt lat="43.40227" lon="2.1791">
        <ele>671.48999023</ele>
        <time>2022-07-10T08:07:56Z</time>
      </trkpt>
      <trkpt lat="43.4023" lon="2.17906">
        <ele>671.58996582</ele>
        <time>2022-07-10T08:07:57Z</time>
      </trkpt>
      <trkpt lat="43.40233" lon="2.17905">
        <ele>671.58996582</ele>
        <time>2022-07-10T08:07:58Z</time>
      </trkpt>
      <trkpt lat="43.40237" lon="2.17902">
        <ele>671.87994385</ele>
        <time>2022-07-10T08:07:59Z</time>
      </trkpt>
      <trkpt lat="43.4024" lon="2.17899">
        <ele>672.02996826</ele>
        <time>2022-07-10T08:08:00Z</time>
      </trkpt>
      <trkpt lat="43.40242" lon="2.17897">
        <ele>672.31994629</ele>
        <time>2022-07-10T08:08:01Z</time>
      </trkpt>
      <trkpt lat="43.40247" lon="2.17895">
        <ele>672.5199585</ele>
        <time>2022-07-10T08:08:02Z</time>
      </trkpt>
      <trkpt lat="43.4025" lon="2.17894">
        <ele>672.54998779</ele>
        <time>2022-07-10T08:08:03Z</time>
      </trkpt>
      <trkpt lat="43.40252" lon="2.17893">
        <ele>672.7199707</ele>
        <time>2022-07-10T08:08:04Z</time>
      </trkpt>
      <trkpt lat="43.40255" lon="2.17891">
        <ele>672.7699585</ele>
        <time>2022-07-10T08:08:05Z</time>
      </trkpt>
      <trkpt lat="43.4026" lon="2.17888">
        <ele>672.66998291</ele>
        <time>2022-07-10T08:08:06Z</time>
      </trkpt>
      <trkpt lat="43.40263" lon="2.17885">
        <ele>672.90997314</ele>
        <time>2022-07-10T08:08:07Z</time>
      </trkpt>
      <trkpt lat="43.40265" lon="2.17883">
        <ele>673.04998779</ele>
        <time>2022-07-10T08:08:08Z</time>
      </trkpt>
      <trkpt lat="43.40268" lon="2.1788">
        <ele>673.2699585</ele>
        <time>2022-07-10T08:08:09Z</time>
      </trkpt>
      <trkpt lat="43.40271" lon="2.17874">
        <ele>673.69995117</ele>
        <time>2022-07-10T08:08:10Z</time>
      </trkpt>
      <trkpt lat="43.40274" lon="2.17872">
        <ele>673.74993896</ele>
        <time>2022-07-10T08:08:11Z</time>
      </trkpt>
      <trkpt lat="43.40278" lon="2.1787">
        <ele>673.79992676</ele>
        <time>2022-07-10T08:08:12Z</time>
      </trkpt>
      <trkpt lat="43.40281" lon="2.17867">
        <ele>673.9598999</ele>
        <time>2022-07-10T08:08:13Z</time>
      </trkpt>
      <trkpt lat="43.40284" lon="2.17864">
        <ele>674.05987549</ele>
        <time>2022-07-10T08:08:14Z</time>
      </trkpt>
      <trkpt lat="43.40287" lon="2.17859">
        <ele>674.21984863</ele>
        <time>2022-07-10T08:08:15Z</time>
      </trkpt>
      <trkpt lat="43.40289" lon="2.17855">
        <ele>674.39984131</ele>
        <time>2022-07-10T08:08:16Z</time>
      </trkpt>
      <trkpt lat="43.40291" lon="2.17851">
        <ele>674.45983887</ele>
        <time>2022-07-10T08:08:17Z</time>
      </trkpt>
      <trkpt lat="43.40292" lon="2.17846">
        <ele>674.50982666</ele>
        <time>2022-07-10T08:08:18Z</time>
      </trkpt>
      <trkpt lat="43.40294" lon="2.17839">
        <ele>674.55981445</ele>
        <time>2022-07-10T08:08:19Z</time>
      </trkpt>
      <trkpt lat="43.40295" lon="2.17835">
        <ele>674.57983398</ele>
        <time>2022-07-10T08:08:20Z</time>
      </trkpt>
      <trkpt lat="43.40297" lon="2.17832">
        <ele>674.52984619</ele>
        <time>2022-07-10T08:08:21Z</time>
      </trkpt>
      <trkpt lat="43.40299" lon="2.17828">
        <ele>674.52984619</ele>
        <time>2022-07-10T08:08:22Z</time>
      </trkpt>
      <trkpt lat="43.40301" lon="2.17824">
        <ele>674.48986816</ele>
        <time>2022-07-10T08:08:23Z</time>
      </trkpt>
      <trkpt lat="43.40304" lon="2.17817">
        <ele>674.37988281</ele>
        <time>2022-07-10T08:08:24Z</time>
      </trkpt>
      <trkpt lat="43.40306" lon="2.17812">
        <ele>674.2598877</ele>
        <time>2022-07-10T08:08:25Z</time>
      </trkpt>
      <trkpt lat="43.40308" lon="2.17808">
        <ele>674.13989258</ele>
        <time>2022-07-10T08:08:26Z</time>
      </trkpt>
      <trkpt lat="43.4031" lon="2.17803">
        <ele>674.06988525</ele>
        <time>2022-07-10T08:08:27Z</time>
      </trkpt>
      <trkpt lat="43.40313" lon="2.17796">
        <ele>674.01989746</ele>
        <time>2022-07-10T08:08:28Z</time>
      </trkpt>
      <trkpt lat="43.40315" lon="2.17791">
        <ele>674.01989746</ele>
        <time>2022-07-10T08:08:29Z</time>
      </trkpt>
      <trkpt lat="43.40318" lon="2.17787">
        <ele>673.79992676</ele>
        <time>2022-07-10T08:08:30Z</time>
      </trkpt>
      <trkpt lat="43.4032" lon="2.17781">
        <ele>673.56994629</ele>
        <time>2022-07-10T08:08:31Z</time>
      </trkpt>
      <trkpt lat="43.40323" lon="2.17776">
        <ele>673.32995605</ele>
        <time>2022-07-10T08:08:32Z</time>
      </trkpt>
      <trkpt lat="43.40327" lon="2.17768">
        <ele>673.09997559</ele>
        <time>2022-07-10T08:08:33Z</time>
      </trkpt>
      <trkpt lat="43.40329" lon="2.17764">
        <ele>673.06994629</ele>
        <time>2022-07-10T08:08:34Z</time>
      </trkpt>
      <trkpt lat="43.40332" lon="2.1776">
        <ele>672.86993408</ele>
        <time>2022-07-10T08:08:35Z</time>
      </trkpt>
      <trkpt lat="43.40335" lon="2.17757">
        <ele>672.64996338</ele>
        <time>2022-07-10T08:08:36Z</time>
      </trkpt>
      <trkpt lat="43.4034" lon="2.17751">
        <ele>672.40997314</ele>
        <time>2022-07-10T08:08:37Z</time>
      </trkpt>
      <trkpt lat="43.40344" lon="2.17747">
        <ele>672.19000244</ele>
        <time>2022-07-10T08:08:38Z</time>
      </trkpt>
      <trkpt lat="43.40347" lon="2.17743">
        <ele>672.07000732</ele>
        <time>2022-07-10T08:08:39Z</time>
      </trkpt>
      <trkpt lat="43.40351" lon="2.17738">
        <ele>671.86999512</ele>
        <time>2022-07-10T08:08:40Z</time>
      </trkpt>
      <trkpt lat="43.40354" lon="2.17734">
        <ele>671.64001465</ele>
        <time>2022-07-10T08:08:41Z</time>
      </trkpt>
      <trkpt lat="43.40359" lon="2.17728">
        <ele>671.2800293</ele>
        <time>2022-07-10T08:08:42Z</time>
      </trkpt>
      <trkpt lat="43.40363" lon="2.17725">
        <ele>670.95001221</ele>
        <time>2022-07-10T08:08:43Z</time>
      </trkpt>
      <trkpt lat="43.40367" lon="2.17721">
        <ele>670.80999756</ele>
        <time>2022-07-10T08:08:44Z</time>
      </trkpt>
      <trkpt lat="43.4037" lon="2.17716">
        <ele>670.64001465</ele>
        <time>2022-07-10T08:08:45Z</time>
      </trkpt>
      <trkpt lat="43.40373" lon="2.17711">
        <ele>670.55999756</ele>
        <time>2022-07-10T08:08:46Z</time>
      </trkpt>
      <trkpt lat="43.40377" lon="2.17704">
        <ele>670.09997559</ele>
        <time>2022-07-10T08:08:47Z</time>
      </trkpt>
      <trkpt lat="43.40381" lon="2.17699">
        <ele>669.67999268</ele>
        <time>2022-07-10T08:08:48Z</time>
      </trkpt>
      <trkpt lat="43.40384" lon="2.17693">
        <ele>669.22998047</ele>
        <time>2022-07-10T08:08:49Z</time>
      </trkpt>
      <trkpt lat="43.40388" lon="2.17688">
        <ele>668.73999023</ele>
        <time>2022-07-10T08:08:50Z</time>
      </trkpt>
      <trkpt lat="43.40393" lon="2.1768">
        <ele>668.51000977</ele>
        <time>2022-07-10T08:08:51Z</time>
      </trkpt>
      <trkpt lat="43.40395" lon="2.17674">
        <ele>668.19000244</ele>
        <time>2022-07-10T08:08:52Z</time>
      </trkpt>
      <trkpt lat="43.40405" lon="2.17662">
        <ele>655.5</ele>
      </trkpt>
      <trkpt lat="43.40406" lon="2.17638">
        <ele>654.4</ele>
      </trkpt>
      <trkpt lat="43.40379" lon="2.17608">
        <ele>655.2</ele>
      </trkpt>
      <trkpt lat="43.40328" lon="2.17581">
        <ele>658.3</ele>
      </trkpt>
      <trkpt lat="43.40288" lon="2.17553">
        <ele>656.3</ele>
      </trkpt>
      <trkpt lat="43.40234" lon="2.17541">
        <ele>653.6</ele>
      </trkpt>
      <trkpt lat="43.40189" lon="2.17512">
        <ele>650.8</ele>
      </trkpt>
      <trkpt lat="43.40142" lon="2.17511">
        <ele>649.1</ele>
      </trkpt>
      <trkpt lat="43.40107" lon="2.17511">
        <ele>647.9</ele>
      </trkpt>
      <trkpt lat="43.40083" lon="2.17506">
        <ele>647.2</ele>
      </trkpt>
      <trkpt lat="43.40083" lon="2.17463">
        <ele>647.7</ele>
      </trkpt>
      <trkpt lat="43.40073" lon="2.17437">
        <ele>647.3</ele>
      </trkpt>
      <trkpt lat="43.40043" lon="2.17422">
        <ele>647.3</ele>
      </trkpt>
      <trkpt lat="43.40005" lon="2.17448">
        <ele>648.3</ele>
      </trkpt>
      <trkpt lat="43.39962" lon="2.17466">
        <ele>647.7</ele>
      </trkpt>
      <trkpt lat="43.39914" lon="2.17485">
        <ele>646.5</ele>
      </trkpt>
      <trkpt lat="43.39888" lon="2.17526">
        <ele>647</ele>
      </trkpt>
      <trkpt lat="43.39883" lon="2.17614">
        <ele>647.1</ele>
      </trkpt>
      <trkpt lat="43.39868" lon="2.17668">
        <ele>648.5</ele>
      </trkpt>
      <trkpt lat="43.39839" lon="2.17696">
        <ele>648.2</ele>
      </trkpt>
      <trkpt lat="43.39819" lon="2.17682">
        <ele>649</ele>
      </trkpt>
      <trkpt lat="43.39818" lon="2.17611">
        <ele>651.3</ele>
      </trkpt>
      <trkpt lat="43.39819" lon="2.17587">
        <ele>653.8</ele>
      </trkpt>
      <trkpt lat="43.3981" lon="2.1754">
        <ele>654.1</ele>
      </trkpt>
      <trkpt lat="43.39797" lon="2.17501">
        <ele>653</ele>
      </trkpt>
      <trkpt lat="43.39771" lon="2.17459">
        <ele>653.5</ele>
      </trkpt>
      <trkpt lat="43.39749" lon="2.17428">
        <ele>653.6</ele>
      </trkpt>
      <trkpt lat="43.3973" lon="2.17395">
        <ele>648.1</ele>
      </trkpt>
      <trkpt lat="43.39733" lon="2.17332">
        <ele>639.9</ele>
      </trkpt>
      <trkpt lat="43.39735" lon="2.17249">
        <ele>646.6</ele>
      </trkpt>
      <trkpt lat="43.39739" lon="2.17207">
        <ele>649.4</ele>
      </trkpt>
      <trkpt lat="43.39748" lon="2.17174">
        <ele>650.8</ele>
      </trkpt>
      <trkpt lat="43.39744" lon="2.17157">
        <ele>650.9</ele>
      </trkpt>
      <trkpt lat="43.39794" lon="2.17135">
        <ele>648.3</ele>
      </trkpt>
      <trkpt lat="43.39864" lon="2.171">
        <ele>649.2</ele>
      </trkpt>
      <trkpt lat="43.3994" lon="2.17067">
        <ele>646.7</ele>
      </trkpt>
      <trkpt lat="43.40011" lon="2.17023">
        <ele>648.6</ele>
      </trkpt>
      <trkpt lat="43.40102" lon="2.17098">
        <ele>659.6</ele>
      </trkpt>
      <trkpt lat="43.40156" lon="2.17124">
        <ele>659.6</ele>
      </trkpt>
      <trkpt lat="43.40206" lon="2.17135">
        <ele>658.9</ele>
      </trkpt>
      <trkpt lat="43.40261" lon="2.17131">
        <ele>657.7</ele>
      </trkpt>
      <trkpt lat="43.40325" lon="2.17174">
        <ele>656</ele>
      </trkpt>
      <trkpt lat="43.40365" lon="2.17156">
        <ele>658.7</ele>
      </trkpt>
      <trkpt lat="43.40419" lon="2.17132">
        <ele>654.5</ele>
      </trkpt>
      <trkpt lat="43.40457" lon="2.17162">
        <ele>657.9</ele>
      </trkpt>
      <trkpt lat="43.40467" lon="2.17224">
        <ele>659.7</ele>
      </trkpt>
      <trkpt lat="43.40449" lon="2.17282">
        <ele>655.6</ele>
      </trkpt>
      <trkpt lat="43.40465" lon="2.17311">
        <ele>653.9</ele>
      </trkpt>
      <trkpt lat="43.40488" lon="2.17304">
        <ele>655.2</ele>
      </trkpt>
      <trkpt lat="43.40514" lon="2.1729">
        <ele>656.6</ele>
      </trkpt>
      <trkpt lat="43.40535" lon="2.17305">
        <ele>652.4</ele>
      </trkpt>
      <trkpt lat="43.40551" lon="2.17333">
        <ele>649.1</ele>
      </trkpt>
      <trkpt lat="43.40571" lon="2.1735">
        <ele>650.7</ele>
      </trkpt>
      <trkpt lat="43.40555" lon="2.17385">
        <ele>649.8</ele>
      </trkpt>
      <trkpt lat="43.4056" lon="2.17432">
        <ele>651.7</ele>
      </trkpt>
      <trkpt lat="43.40578" lon="2.17457">
        <ele>653.9</ele>
      </trkpt>
      <trkpt lat="43.40596" lon="2.1749">
        <ele>653</ele>
      </trkpt>
      <trkpt lat="43.40614" lon="2.17513">
        <ele>651.2</ele>
      </trkpt>
      <trkpt lat="43.4063" lon="2.17529">
        <ele>650.3</ele>
      </trkpt>
      <trkpt lat="43.40658" lon="2.17593">
        <ele>649.5</ele>
      </trkpt>
      <trkpt lat="43.40628" lon="2.17644">
        <ele>649.7</ele>
      </trkpt>
      <trkpt lat="43.40558" lon="2.1771">
        <ele>647.8</ele>
      </trkpt>
      <trkpt lat="43.40541" lon="2.17714">
        <ele>647.9</ele>
      </trkpt>
      <trkpt lat="43.40538" lon="2.17737">
        <ele>661.41033936</ele>
        <time>2022-07-10T08:09:53Z</time>
      </trkpt>
      <trkpt lat="43.40539" lon="2.17738">
        <ele>661.49035645</ele>
        <time>2022-07-10T08:09:54Z</time>
      </trkpt>
      <trkpt lat="43.40539" lon="2.1774">
        <ele>661.57037354</ele>
        <time>2022-07-10T08:09:55Z</time>
      </trkpt>
      <trkpt lat="43.40539" lon="2.17742">
        <ele>661.65039062</ele>
        <time>2022-07-10T08:09:56Z</time>
      </trkpt>
      <trkpt lat="43.4054" lon="2.17743">
        <ele>661.75036621</ele>
        <time>2022-07-10T08:09:57Z</time>
      </trkpt>
      <trkpt lat="43.4054" lon="2.17744">
        <ele>661.82037354</ele>
        <time>2022-07-10T08:09:58Z</time>
      </trkpt>
      <trkpt lat="43.40541" lon="2.17745">
        <ele>661.88037109</ele>
        <time>2022-07-10T08:09:59Z</time>
      </trkpt>
      <trkpt lat="43.40541" lon="2.17747">
        <ele>661.93035889</ele>
        <time>2022-07-10T08:10:00Z</time>
      </trkpt>
      <trkpt lat="43.40542" lon="2.17749">
        <ele>661.95037842</ele>
        <time>2022-07-10T08:10:01Z</time>
      </trkpt>
      <trkpt lat="43.40542" lon="2.17751">
        <ele>661.96038818</ele>
        <time>2022-07-10T08:10:02Z</time>
      </trkpt>
      <trkpt lat="43.40543" lon="2.17756">
        <ele>661.98040771</ele>
        <time>2022-07-10T08:10:03Z</time>
      </trkpt>
      <trkpt lat="43.40544" lon="2.17759">
        <ele>661.97039795</ele>
        <time>2022-07-10T08:10:04Z</time>
      </trkpt>
      <trkpt lat="43.40545" lon="2.17763">
        <ele>661.99041748</ele>
        <time>2022-07-10T08:10:05Z</time>
      </trkpt>
      <trkpt lat="43.40547" lon="2.17765">
        <ele>662.05041504</ele>
        <time>2022-07-10T08:10:06Z</time>
      </trkpt>
      <trkpt lat="43.4055" lon="2.1777">
        <ele>662.13043213</ele>
        <time>2022-07-10T08:10:07Z</time>
      </trkpt>
      <trkpt lat="43.40551" lon="2.17772">
        <ele>662.26043701</ele>
        <time>2022-07-10T08:10:08Z</time>
      </trkpt>
      <trkpt lat="43.40553" lon="2.17774">
        <ele>662.38043213</ele>
        <time>2022-07-10T08:10:09Z</time>
      </trkpt>
      <trkpt lat="43.40554" lon="2.17777">
        <ele>662.5904541</ele>
        <time>2022-07-10T08:10:10Z</time>
      </trkpt>
      <trkpt lat="43.40555" lon="2.17779">
        <ele>662.77044678</ele>
        <time>2022-07-10T08:10:11Z</time>
      </trkpt>
      <trkpt lat="43.40557" lon="2.17781">
        <ele>662.93041992</ele>
        <time>2022-07-10T08:10:12Z</time>
      </trkpt>
      <trkpt lat="43.40559" lon="2.17782">
        <ele>663.10040283</ele>
        <time>2022-07-10T08:10:13Z</time>
      </trkpt>
      <trkpt lat="43.4056" lon="2.17783">
        <ele>663.17041016</ele>
        <time>2022-07-10T08:10:14Z</time>
      </trkpt>
      <trkpt lat="43.40562" lon="2.17784">
        <ele>663.32043457</ele>
        <time>2022-07-10T08:10:15Z</time>
      </trkpt>
      <trkpt lat="43.40563" lon="2.17784">
        <ele>663.83044434</ele>
        <time>2022-07-10T08:10:16Z</time>
      </trkpt>
      <trkpt lat="43.40564" lon="2.17784">
        <ele>664.18041992</ele>
        <time>2022-07-10T08:10:17Z</time>
      </trkpt>
      <trkpt lat="43.40564" lon="2.17785">
        <ele>664.57043457</ele>
        <time>2022-07-10T08:10:18Z</time>
      </trkpt>
      <trkpt lat="43.40565" lon="2.17785">
        <ele>665.10046387</ele>
        <time>2022-07-10T08:10:21Z</time>
      </trkpt>
      <trkpt lat="43.40565" lon="2.17786">
        <ele>665.22045898</ele>
        <time>2022-07-10T08:10:22Z</time>
      </trkpt>
      <trkpt lat="43.40567" lon="2.17787">
        <ele>665.41046143</ele>
        <time>2022-07-10T08:10:23Z</time>
      </trkpt>
      <trkpt lat="43.40572" lon="2.17782">
        <ele>665.80047607</ele>
        <time>2022-07-10T08:10:35Z</time>
      </trkpt>
      <trkpt lat="43.40573" lon="2.17781">
        <ele>665.88049316</ele>
        <time>2022-07-10T08:10:36Z</time>
      </trkpt>
      <trkpt lat="43.40574" lon="2.1778">
        <ele>665.92047119</ele>
        <time>2022-07-10T08:10:37Z</time>
      </trkpt>
      <trkpt lat="43.40576" lon="2.17779">
        <ele>666.16046143</ele>
        <time>2022-07-10T08:10:38Z</time>
      </trkpt>
      <trkpt lat="43.40578" lon="2.17777">
        <ele>666.40045166</ele>
        <time>2022-07-10T08:10:39Z</time>
      </trkpt>
      <trkpt lat="43.40579" lon="2.17778">
        <ele>666.60046387</ele>
        <time>2022-07-10T08:10:40Z</time>
      </trkpt>
      <trkpt lat="43.40581" lon="2.17778">
        <ele>666.95043945</ele>
        <time>2022-07-10T08:10:41Z</time>
      </trkpt>
      <trkpt lat="43.40583" lon="2.17777">
        <ele>667.15045166</ele>
        <time>2022-07-10T08:10:42Z</time>
      </trkpt>
      <trkpt lat="43.40586" lon="2.17775">
        <ele>667.36047363</ele>
        <time>2022-07-10T08:10:43Z</time>
      </trkpt>
      <trkpt lat="43.40587" lon="2.17774">
        <ele>667.73046875</ele>
        <time>2022-07-10T08:10:44Z</time>
      </trkpt>
      <trkpt lat="43.40588" lon="2.17774">
        <ele>668.05047607</ele>
        <time>2022-07-10T08:10:45Z</time>
      </trkpt>
      <trkpt lat="43.40589" lon="2.17774">
        <ele>668.46044922</ele>
        <time>2022-07-10T08:10:46Z</time>
      </trkpt>
      <trkpt lat="43.40591" lon="2.17775">
        <ele>668.83044434</ele>
        <time>2022-07-10T08:10:47Z</time>
      </trkpt>
      <trkpt lat="43.40592" lon="2.17777">
        <ele>669.21044922</ele>
        <time>2022-07-10T08:10:48Z</time>
      </trkpt>
      <trkpt lat="43.40594" lon="2.17779">
        <ele>669.66046143</ele>
        <time>2022-07-10T08:10:49Z</time>
      </trkpt>
      <trkpt lat="43.40596" lon="2.17781">
        <ele>670.06048584</ele>
        <time>2022-07-10T08:10:50Z</time>
      </trkpt>
      <trkpt lat="43.40598" lon="2.17782">
        <ele>670.46051025</ele>
        <time>2022-07-10T08:10:51Z</time>
      </trkpt>
      <trkpt lat="43.40599" lon="2.17782">
        <ele>670.93048096</ele>
        <time>2022-07-10T08:10:52Z</time>
      </trkpt>
      <trkpt lat="43.40603" lon="2.17781">
        <ele>671.40045166</ele>
        <time>2022-07-10T08:10:53Z</time>
      </trkpt>
      <trkpt lat="43.40604" lon="2.17781">
        <ele>672.01043701</ele>
        <time>2022-07-10T08:10:54Z</time>
      </trkpt>
      <trkpt lat="43.40606" lon="2.17781">
        <ele>672.65045166</ele>
        <time>2022-07-10T08:10:55Z</time>
      </trkpt>
      <trkpt lat="43.40608" lon="2.17781">
        <ele>673.16046143</ele>
        <time>2022-07-10T08:10:56Z</time>
      </trkpt>
      <trkpt lat="43.4061" lon="2.17781">
        <ele>673.5904541</ele>
        <time>2022-07-10T08:10:57Z</time>
      </trkpt>
      <trkpt lat="43.40612" lon="2.17782">
        <ele>673.96044922</ele>
        <time>2022-07-10T08:10:58Z</time>
      </trkpt>
      <trkpt lat="43.40614" lon="2.17783">
        <ele>674.28045654</ele>
        <time>2022-07-10T08:10:59Z</time>
      </trkpt>
      <trkpt lat="43.40616" lon="2.17783">
        <ele>674.60046387</ele>
        <time>2022-07-10T08:11:00Z</time>
      </trkpt>
      <trkpt lat="43.40618" lon="2.17783">
        <ele>675.03045654</ele>
        <time>2022-07-10T08:11:01Z</time>
      </trkpt>
      <trkpt lat="43.40621" lon="2.17784">
        <ele>675.39044189</ele>
        <time>2022-07-10T08:11:02Z</time>
      </trkpt>
      <trkpt lat="43.40624" lon="2.17784">
        <ele>675.8604126</ele>
        <time>2022-07-10T08:11:03Z</time>
      </trkpt>
      <trkpt lat="43.40626" lon="2.17783">
        <ele>676.32043457</ele>
        <time>2022-07-10T08:11:04Z</time>
      </trkpt>
      <trkpt lat="43.40629" lon="2.17783">
        <ele>676.74041748</ele>
        <time>2022-07-10T08:11:05Z</time>
      </trkpt>
      <trkpt lat="43.40632" lon="2.17782">
        <ele>677.17041016</ele>
        <time>2022-07-10T08:11:06Z</time>
      </trkpt>
      <trkpt lat="43.40633" lon="2.17782">
        <ele>677.51043701</ele>
        <time>2022-07-10T08:11:07Z</time>
      </trkpt>
      <trkpt lat="43.40635" lon="2.17782">
        <ele>677.92041016</ele>
        <time>2022-07-10T08:11:08Z</time>
      </trkpt>
      <trkpt lat="43.40637" lon="2.17782">
        <ele>678.3303833</ele>
        <time>2022-07-10T08:11:09Z</time>
      </trkpt>
      <trkpt lat="43.4064" lon="2.17783">
        <ele>678.73040771</ele>
        <time>2022-07-10T08:11:10Z</time>
      </trkpt>
      <trkpt lat="43.40642" lon="2.17784">
        <ele>679.15039062</ele>
        <time>2022-07-10T08:11:11Z</time>
      </trkpt>
      <trkpt lat="43.40644" lon="2.17784">
        <ele>679.43041992</ele>
        <time>2022-07-10T08:11:12Z</time>
      </trkpt>
      <trkpt lat="43.40646" lon="2.17785">
        <ele>679.77044678</ele>
        <time>2022-07-10T08:11:13Z</time>
      </trkpt>
      <trkpt lat="43.40648" lon="2.17785">
        <ele>680.08044434</ele>
        <time>2022-07-10T08:11:14Z</time>
      </trkpt>
      <trkpt lat="43.40651" lon="2.17785">
        <ele>680.32043457</ele>
        <time>2022-07-10T08:11:15Z</time>
      </trkpt>
      <trkpt lat="43.40653" lon="2.17784">
        <ele>680.65045166</ele>
        <time>2022-07-10T08:11:16Z</time>
      </trkpt>
      <trkpt lat="43.40655" lon="2.17783">
        <ele>680.87042236</ele>
        <time>2022-07-10T08:11:17Z</time>
      </trkpt>
      <trkpt lat="43.40657" lon="2.17782">
        <ele>681.08044434</ele>
        <time>2022-07-10T08:11:18Z</time>
      </trkpt>
      <trkpt lat="43.4066" lon="2.17781">
        <ele>681.43041992</ele>
        <time>2022-07-10T08:11:19Z</time>
      </trkpt>
      <trkpt lat="43.40663" lon="2.1778">
        <ele>681.74041748</ele>
        <time>2022-07-10T08:11:20Z</time>
      </trkpt>
      <trkpt lat="43.40665" lon="2.17779">
        <ele>681.99041748</ele>
        <time>2022-07-10T08:11:21Z</time>
      </trkpt>
      <trkpt lat="43.40667" lon="2.17779">
        <ele>682.28039551</ele>
        <time>2022-07-10T08:11:22Z</time>
      </trkpt>
      <trkpt lat="43.4067" lon="2.17778">
        <ele>682.44036865</ele>
        <time>2022-07-10T08:11:23Z</time>
      </trkpt>
      <trkpt lat="43.40673" lon="2.17776">
        <ele>682.61035156</ele>
        <time>2022-07-10T08:11:24Z</time>
      </trkpt>
      <trkpt lat="43.40676" lon="2.17776">
        <ele>682.79034424</ele>
        <time>2022-07-10T08:11:25Z</time>
      </trkpt>
      <trkpt lat="43.40679" lon="2.17775">
        <ele>682.98034668</ele>
        <time>2022-07-10T08:11:26Z</time>
      </trkpt>
      <trkpt lat="43.40681" lon="2.17775">
        <ele>683.15032959</ele>
        <time>2022-07-10T08:11:27Z</time>
      </trkpt>
      <trkpt lat="43.40683" lon="2.17775">
        <ele>683.29034424</ele>
        <time>2022-07-10T08:11:28Z</time>
      </trkpt>
      <trkpt lat="43.40687" lon="2.17775">
        <ele>683.48034668</ele>
        <time>2022-07-10T08:11:29Z</time>
      </trkpt>
      <trkpt lat="43.4069" lon="2.17775">
        <ele>683.64031982</ele>
        <time>2022-07-10T08:11:30Z</time>
      </trkpt>
      <trkpt lat="43.40692" lon="2.17775">
        <ele>683.84033203</ele>
        <time>2022-07-10T08:11:31Z</time>
      </trkpt>
      <trkpt lat="43.40695" lon="2.17774">
        <ele>684.01031494</ele>
        <time>2022-07-10T08:11:32Z</time>
      </trkpt>
      <trkpt lat="43.40698" lon="2.17772">
        <ele>684.16033936</ele>
        <time>2022-07-10T08:11:33Z</time>
      </trkpt>
      <trkpt lat="43.407" lon="2.1777">
        <ele>684.26031494</ele>
        <time>2022-07-10T08:11:34Z</time>
      </trkpt>
      <trkpt lat="43.40703" lon="2.17769">
        <ele>684.29034424</ele>
        <time>2022-07-10T08:11:35Z</time>
      </trkpt>
      <trkpt lat="43.40706" lon="2.17768">
        <ele>684.37036133</ele>
        <time>2022-07-10T08:11:36Z</time>
      </trkpt>
      <trkpt lat="43.40708" lon="2.17766">
        <ele>684.45037842</ele>
        <time>2022-07-10T08:11:37Z</time>
      </trkpt>
      <trkpt lat="43.40713" lon="2.17764">
        <ele>684.56036377</ele>
        <time>2022-07-10T08:11:38Z</time>
      </trkpt>
      <trkpt lat="43.40715" lon="2.17764">
        <ele>684.65039062</ele>
        <time>2022-07-10T08:11:39Z</time>
      </trkpt>
      <trkpt lat="43.40718" lon="2.17763">
        <ele>684.75036621</ele>
        <time>2022-07-10T08:11:40Z</time>
      </trkpt>
      <trkpt lat="43.4072" lon="2.17763">
        <ele>684.800354</ele>
        <time>2022-07-10T08:11:41Z</time>
      </trkpt>
      <trkpt lat="43.40722" lon="2.17762">
        <ele>684.86035156</ele>
        <time>2022-07-10T08:11:42Z</time>
      </trkpt>
      <trkpt lat="43.40726" lon="2.17761">
        <ele>684.97033691</ele>
        <time>2022-07-10T08:11:43Z</time>
      </trkpt>
      <trkpt lat="43.40729" lon="2.17759">
        <ele>684.99035645</ele>
        <time>2022-07-10T08:11:44Z</time>
      </trkpt>
      <trkpt lat="43.40732" lon="2.17757">
        <ele>685.07037354</ele>
        <time>2022-07-10T08:11:45Z</time>
      </trkpt>
      <trkpt lat="43.40735" lon="2.17756">
        <ele>685.09039307</ele>
        <time>2022-07-10T08:11:46Z</time>
      </trkpt>
      <trkpt lat="43.40739" lon="2.17754">
        <ele>685.09039307</ele>
        <time>2022-07-10T08:11:47Z</time>
      </trkpt>
      <trkpt lat="43.40742" lon="2.17753">
        <ele>685.17041016</ele>
        <time>2022-07-10T08:11:48Z</time>
      </trkpt>
      <trkpt lat="43.40744" lon="2.17752">
        <ele>685.27038574</ele>
        <time>2022-07-10T08:11:49Z</time>
      </trkpt>
      <trkpt lat="43.40747" lon="2.17752">
        <ele>685.39038086</ele>
        <time>2022-07-10T08:11:50Z</time>
      </trkpt>
      <trkpt lat="43.40752" lon="2.17749">
        <ele>685.52038574</ele>
        <time>2022-07-10T08:11:51Z</time>
      </trkpt>
      <trkpt lat="43.40755" lon="2.17749">
        <ele>685.64038086</ele>
        <time>2022-07-10T08:11:52Z</time>
      </trkpt>
      <trkpt lat="43.40757" lon="2.17748">
        <ele>685.69036865</ele>
        <time>2022-07-10T08:11:53Z</time>
      </trkpt>
      <trkpt lat="43.4076" lon="2.17747">
        <ele>685.8503418</ele>
        <time>2022-07-10T08:11:54Z</time>
      </trkpt>
      <trkpt lat="43.40764" lon="2.17746">
        <ele>686.00036621</ele>
        <time>2022-07-10T08:11:55Z</time>
      </trkpt>
      <trkpt lat="43.40767" lon="2.17744">
        <ele>686.14038086</ele>
        <time>2022-07-10T08:11:56Z</time>
      </trkpt>
      <trkpt lat="43.4077" lon="2.17743">
        <ele>686.46038818</ele>
        <time>2022-07-10T08:11:57Z</time>
      </trkpt>
      <trkpt lat="43.40773" lon="2.17741">
        <ele>686.57037354</ele>
        <time>2022-07-10T08:11:58Z</time>
      </trkpt>
      <trkpt lat="43.40776" lon="2.17739">
        <ele>686.76037598</ele>
        <time>2022-07-10T08:11:59Z</time>
      </trkpt>
      <trkpt lat="43.4078" lon="2.17735">
        <ele>686.95037842</ele>
        <time>2022-07-10T08:12:00Z</time>
      </trkpt>
      <trkpt lat="43.40782" lon="2.17732">
        <ele>686.99035645</ele>
        <time>2022-07-10T08:12:01Z</time>
      </trkpt>
      <trkpt lat="43.40784" lon="2.1773">
        <ele>687.16033936</ele>
        <time>2022-07-10T08:12:02Z</time>
      </trkpt>
      <trkpt lat="43.40785" lon="2.17727">
        <ele>687.42034912</ele>
        <time>2022-07-10T08:12:03Z</time>
      </trkpt>
      <trkpt lat="43.40788" lon="2.17723">
        <ele>687.67034912</ele>
        <time>2022-07-10T08:12:04Z</time>
      </trkpt>
      <trkpt lat="43.4079" lon="2.1772">
        <ele>687.89031982</ele>
        <time>2022-07-10T08:12:05Z</time>
      </trkpt>
      <trkpt lat="43.40793" lon="2.17718">
        <ele>688.16033936</ele>
        <time>2022-07-10T08:12:06Z</time>
      </trkpt>
      <trkpt lat="43.40795" lon="2.17716">
        <ele>688.33032227</ele>
        <time>2022-07-10T08:12:07Z</time>
      </trkpt>
      <trkpt lat="43.40798" lon="2.17714">
        <ele>688.63031006</ele>
        <time>2022-07-10T08:12:08Z</time>
      </trkpt>
      <trkpt lat="43.40801" lon="2.1771">
        <ele>688.98028564</ele>
        <time>2022-07-10T08:12:09Z</time>
      </trkpt>
      <trkpt lat="43.40802" lon="2.17708">
        <ele>689.31030273</ele>
        <time>2022-07-10T08:12:10Z</time>
      </trkpt>
      <trkpt lat="43.40804" lon="2.17705">
        <ele>689.60028076</ele>
        <time>2022-07-10T08:12:11Z</time>
      </trkpt>
      <trkpt lat="43.40806" lon="2.17702">
        <ele>689.94030762</ele>
        <time>2022-07-10T08:12:12Z</time>
      </trkpt>
      <trkpt lat="43.40809" lon="2.17698">
        <ele>690.20031738</ele>
        <time>2022-07-10T08:12:13Z</time>
      </trkpt>
      <trkpt lat="43.4081" lon="2.17695">
        <ele>690.49029541</ele>
        <time>2022-07-10T08:12:14Z</time>
      </trkpt>
      <trkpt lat="43.40812" lon="2.17691">
        <ele>690.76031494</ele>
        <time>2022-07-10T08:12:15Z</time>
      </trkpt>
      <trkpt lat="43.40814" lon="2.17687">
        <ele>690.87030029</ele>
        <time>2022-07-10T08:12:16Z</time>
      </trkpt>
      <trkpt lat="43.40816" lon="2.17684">
        <ele>691.0703125</ele>
        <time>2022-07-10T08:12:17Z</time>
      </trkpt>
      <trkpt lat="43.40818" lon="2.1768">
        <ele>691.24029541</ele>
        <time>2022-07-10T08:12:18Z</time>
      </trkpt>
      <trkpt lat="43.4082" lon="2.17676">
        <ele>691.40026855</ele>
        <time>2022-07-10T08:12:19Z</time>
      </trkpt>
      <trkpt lat="43.40823" lon="2.17675">
        <ele>691.63024902</ele>
        <time>2022-07-10T08:12:20Z</time>
      </trkpt>
      <trkpt lat="43.40825" lon="2.17673">
        <ele>691.85021973</ele>
        <time>2022-07-10T08:12:21Z</time>
      </trkpt>
      <trkpt lat="43.40828" lon="2.17672">
        <ele>692.04022217</ele>
        <time>2022-07-10T08:12:22Z</time>
      </trkpt>
      <trkpt lat="43.40831" lon="2.17671">
        <ele>692.3302002</ele>
        <time>2022-07-10T08:12:23Z</time>
      </trkpt>
      <trkpt lat="43.40833" lon="2.17669">
        <ele>692.61022949</ele>
        <time>2022-07-10T08:12:24Z</time>
      </trkpt>
      <trkpt lat="43.40834" lon="2.17667">
        <ele>692.93023682</ele>
        <time>2022-07-10T08:12:25Z</time>
      </trkpt>
      <trkpt lat="43.40836" lon="2.17665">
        <ele>693.25024414</ele>
        <time>2022-07-10T08:12:26Z</time>
      </trkpt>
      <trkpt lat="43.4084" lon="2.17664">
        <ele>693.50024414</ele>
        <time>2022-07-10T08:12:27Z</time>
      </trkpt>
      <trkpt lat="43.40842" lon="2.17663">
        <ele>693.69024658</ele>
        <time>2022-07-10T08:12:28Z</time>
      </trkpt>
      <trkpt lat="43.40844" lon="2.17662">
        <ele>693.93023682</ele>
        <time>2022-07-10T08:12:29Z</time>
      </trkpt>
      <trkpt lat="43.40847" lon="2.17661">
        <ele>694.11022949</ele>
        <time>2022-07-10T08:12:30Z</time>
      </trkpt>
      <trkpt lat="43.40849" lon="2.1766">
        <ele>694.32025146</ele>
        <time>2022-07-10T08:12:31Z</time>
      </trkpt>
      <trkpt lat="43.40853" lon="2.17659">
        <ele>694.63024902</ele>
        <time>2022-07-10T08:12:32Z</time>
      </trkpt>
      <trkpt lat="43.40856" lon="2.17658">
        <ele>694.85021973</ele>
        <time>2022-07-10T08:12:33Z</time>
      </trkpt>
      <trkpt lat="43.40858" lon="2.17657">
        <ele>695.14019775</ele>
        <time>2022-07-10T08:12:34Z</time>
      </trkpt>
      <trkpt lat="43.40861" lon="2.17658">
        <ele>695.41021729</ele>
        <time>2022-07-10T08:12:35Z</time>
      </trkpt>
      <trkpt lat="43.40865" lon="2.17659">
        <ele>695.60021973</ele>
        <time>2022-07-10T08:12:36Z</time>
      </trkpt>
      <trkpt lat="43.40867" lon="2.17659">
        <ele>695.84020996</ele>
        <time>2022-07-10T08:12:37Z</time>
      </trkpt>
      <trkpt lat="43.40869" lon="2.17658">
        <ele>696.0302124</ele>
        <time>2022-07-10T08:12:38Z</time>
      </trkpt>
      <trkpt lat="43.40872" lon="2.17659">
        <ele>696.24023438</ele>
        <time>2022-07-10T08:12:39Z</time>
      </trkpt>
      <trkpt lat="43.40876" lon="2.17659">
        <ele>696.37023926</ele>
        <time>2022-07-10T08:12:40Z</time>
      </trkpt>
      <trkpt lat="43.40879" lon="2.1766">
        <ele>696.48022461</ele>
        <time>2022-07-10T08:12:41Z</time>
      </trkpt>
      <trkpt lat="43.40881" lon="2.17661">
        <ele>696.65020752</ele>
        <time>2022-07-10T08:12:42Z</time>
      </trkpt>
      <trkpt lat="43.40884" lon="2.17662">
        <ele>696.7802124</ele>
        <time>2022-07-10T08:12:43Z</time>
      </trkpt>
      <trkpt lat="43.40887" lon="2.17663">
        <ele>696.92022705</ele>
        <time>2022-07-10T08:12:44Z</time>
      </trkpt>
      <trkpt lat="43.40891" lon="2.17663">
        <ele>697.02020264</ele>
        <time>2022-07-10T08:12:45Z</time>
      </trkpt>
      <trkpt lat="43.40894" lon="2.17662">
        <ele>697.0802002</ele>
        <time>2022-07-10T08:12:46Z</time>
      </trkpt>
      <trkpt lat="43.40897" lon="2.17661">
        <ele>697.07019043</ele>
        <time>2022-07-10T08:12:47Z</time>
      </trkpt>
      <trkpt lat="43.409" lon="2.17659">
        <ele>697.07019043</ele>
        <time>2022-07-10T08:12:48Z</time>
      </trkpt>
      <trkpt lat="43.40903" lon="2.17657">
        <ele>697.02020264</ele>
        <time>2022-07-10T08:12:49Z</time>
      </trkpt>
      <trkpt lat="43.40909" lon="2.17653">
        <ele>697.01019287</ele>
        <time>2022-07-10T08:12:50Z</time>
      </trkpt>
      <trkpt lat="43.40911" lon="2.17651">
        <ele>697.01019287</ele>
        <time>2022-07-10T08:12:51Z</time>
      </trkpt>
      <trkpt lat="43.40914" lon="2.17649">
        <ele>697.01019287</ele>
        <time>2022-07-10T08:12:52Z</time>
      </trkpt>
      <trkpt lat="43.40917" lon="2.17646">
        <ele>697.06018066</ele>
        <time>2022-07-10T08:12:53Z</time>
      </trkpt>
      <trkpt lat="43.40922" lon="2.17642">
        <ele>697.03015137</ele>
        <time>2022-07-10T08:12:54Z</time>
      </trkpt>
      <trkpt lat="43.40925" lon="2.17639">
        <ele>696.97015381</ele>
        <time>2022-07-10T08:12:55Z</time>
      </trkpt>
      <trkpt lat="43.40928" lon="2.17636">
        <ele>696.87017822</ele>
        <time>2022-07-10T08:12:56Z</time>
      </trkpt>
      <trkpt lat="43.40931" lon="2.17634">
        <ele>696.81018066</ele>
        <time>2022-07-10T08:12:57Z</time>
      </trkpt>
      <trkpt lat="43.40934" lon="2.17631">
        <ele>696.79016113</ele>
        <time>2022-07-10T08:12:58Z</time>
      </trkpt>
      <trkpt lat="43.40938" lon="2.17626">
        <ele>696.79016113</ele>
        <time>2022-07-10T08:12:59Z</time>
      </trkpt>
      <trkpt lat="43.40941" lon="2.17622">
        <ele>696.73016357</ele>
        <time>2022-07-10T08:13:00Z</time>
      </trkpt>
      <trkpt lat="43.40943" lon="2.17618">
        <ele>696.66015625</ele>
        <time>2022-07-10T08:13:01Z</time>
      </trkpt>
      <trkpt lat="43.40946" lon="2.17615">
        <ele>696.61016846</ele>
        <time>2022-07-10T08:13:02Z</time>
      </trkpt>
      <trkpt lat="43.40949" lon="2.17608">
        <ele>696.56018066</ele>
        <time>2022-07-10T08:13:03Z</time>
      </trkpt>
      <trkpt lat="43.40953" lon="2.17604">
        <ele>696.59020996</ele>
        <time>2022-07-10T08:13:04Z</time>
      </trkpt>
      <trkpt lat="43.40955" lon="2.176">
        <ele>696.62023926</ele>
        <time>2022-07-10T08:13:05Z</time>
      </trkpt>
      <trkpt lat="43.40958" lon="2.17597">
        <ele>696.45025635</ele>
        <time>2022-07-10T08:13:06Z</time>
      </trkpt>
      <trkpt lat="43.40961" lon="2.17595">
        <ele>696.2902832</ele>
        <time>2022-07-10T08:13:07Z</time>
      </trkpt>
      <trkpt lat="43.40967" lon="2.1759">
        <ele>696.02026367</ele>
        <time>2022-07-10T08:13:08Z</time>
      </trkpt>
      <trkpt lat="43.4097" lon="2.17587">
        <ele>695.67028809</ele>
        <time>2022-07-10T08:13:09Z</time>
      </trkpt>
      <trkpt lat="43.40974" lon="2.17585">
        <ele>695.58026123</ele>
        <time>2022-07-10T08:13:10Z</time>
      </trkpt>
      <trkpt lat="43.40978" lon="2.17582">
        <ele>695.40026855</ele>
        <time>2022-07-10T08:13:11Z</time>
      </trkpt>
      <trkpt lat="43.40981" lon="2.1758">
        <ele>695.37023926</ele>
        <time>2022-07-10T08:13:12Z</time>
      </trkpt>
      <trkpt lat="43.40987" lon="2.17576">
        <ele>695.42022705</ele>
        <time>2022-07-10T08:13:13Z</time>
      </trkpt>
      <trkpt lat="43.4099" lon="2.17574">
        <ele>695.34020996</ele>
        <time>2022-07-10T08:13:14Z</time>
      </trkpt>
      <trkpt lat="43.40994" lon="2.17571">
        <ele>695.38018799</ele>
        <time>2022-07-10T08:13:15Z</time>
      </trkpt>
      <trkpt lat="43.40998" lon="2.17568">
        <ele>695.40020752</ele>
        <time>2022-07-10T08:13:16Z</time>
      </trkpt>
      <trkpt lat="43.41004" lon="2.17565">
        <ele>695.24023438</ele>
        <time>2022-07-10T08:13:17Z</time>
      </trkpt>
      <trkpt lat="43.41007" lon="2.17563">
        <ele>695.25024414</ele>
        <time>2022-07-10T08:13:18Z</time>
      </trkpt>
      <trkpt lat="43.41011" lon="2.17561">
        <ele>695.25024414</ele>
        <time>2022-07-10T08:13:19Z</time>
      </trkpt>
      <trkpt lat="43.41014" lon="2.17559">
        <ele>695.25024414</ele>
        <time>2022-07-10T08:13:20Z</time>
      </trkpt>
      <trkpt lat="43.4102" lon="2.17555">
        <ele>695.47021484</ele>
        <time>2022-07-10T08:13:21Z</time>
      </trkpt>
      <trkpt lat="43.41024" lon="2.17552">
        <ele>695.60021973</ele>
        <time>2022-07-10T08:13:22Z</time>
      </trkpt>
      <trkpt lat="43.41027" lon="2.1755">
        <ele>695.73022461</ele>
        <time>2022-07-10T08:13:23Z</time>
      </trkpt>
      <trkpt lat="43.41031" lon="2.17549">
        <ele>695.87023926</ele>
        <time>2022-07-10T08:13:24Z</time>
      </trkpt>
      <trkpt lat="43.41036" lon="2.17546">
        <ele>696.07025146</ele>
        <time>2022-07-10T08:13:25Z</time>
      </trkpt>
      <trkpt lat="43.41039" lon="2.17544">
        <ele>696.18023682</ele>
        <time>2022-07-10T08:13:26Z</time>
      </trkpt>
      <trkpt lat="43.41042" lon="2.17541">
        <ele>696.35021973</ele>
        <time>2022-07-10T08:13:27Z</time>
      </trkpt>
      <trkpt lat="43.41044" lon="2.17538">
        <ele>696.61022949</ele>
        <time>2022-07-10T08:13:28Z</time>
      </trkpt>
      <trkpt lat="43.41047" lon="2.17536">
        <ele>696.7802124</ele>
        <time>2022-07-10T08:13:29Z</time>
      </trkpt>
      <trkpt lat="43.41051" lon="2.17534">
        <ele>697.07019043</ele>
        <time>2022-07-10T08:13:30Z</time>
      </trkpt>
      <trkpt lat="43.41054" lon="2.17532">
        <ele>697.39019775</ele>
        <time>2022-07-10T08:13:31Z</time>
      </trkpt>
      <trkpt lat="43.41057" lon="2.1753">
        <ele>697.70019531</ele>
        <time>2022-07-10T08:13:32Z</time>
      </trkpt>
      <trkpt lat="43.4106" lon="2.17529">
        <ele>698.0302124</ele>
        <time>2022-07-10T08:13:33Z</time>
      </trkpt>
      <trkpt lat="43.41063" lon="2.17526">
        <ele>698.37023926</ele>
        <time>2022-07-10T08:13:34Z</time>
      </trkpt>
      <trkpt lat="43.41067" lon="2.17523">
        <ele>698.75024414</ele>
        <time>2022-07-10T08:13:35Z</time>
      </trkpt>
      <trkpt lat="43.41069" lon="2.17522">
        <ele>699.17022705</ele>
        <time>2022-07-10T08:13:36Z</time>
      </trkpt>
      <trkpt lat="43.41071" lon="2.1752">
        <ele>699.64019775</ele>
        <time>2022-07-10T08:13:37Z</time>
      </trkpt>
      <trkpt lat="43.41073" lon="2.17518">
        <ele>700.16021729</ele>
        <time>2022-07-10T08:13:38Z</time>
      </trkpt>
      <trkpt lat="43.41076" lon="2.17516">
        <ele>700.64019775</ele>
        <time>2022-07-10T08:13:39Z</time>
      </trkpt>
      <trkpt lat="43.41079" lon="2.17515">
        <ele>701.15020752</ele>
        <time>2022-07-10T08:13:40Z</time>
      </trkpt>
      <trkpt lat="43.41082" lon="2.17513">
        <ele>701.56018066</ele>
        <time>2022-07-10T08:13:41Z</time>
      </trkpt>
      <trkpt lat="43.41084" lon="2.17512">
        <ele>701.96020508</ele>
        <time>2022-07-10T08:13:42Z</time>
      </trkpt>
      <trkpt lat="43.41088" lon="2.17509">
        <ele>702.34020996</ele>
        <time>2022-07-10T08:13:43Z</time>
      </trkpt>
      <trkpt lat="43.4109" lon="2.17508">
        <ele>702.67022705</ele>
        <time>2022-07-10T08:13:44Z</time>
      </trkpt>
      <trkpt lat="43.41093" lon="2.17507">
        <ele>702.98022461</ele>
        <time>2022-07-10T08:13:45Z</time>
      </trkpt>
      <trkpt lat="43.41095" lon="2.17506">
        <ele>703.17022705</ele>
        <time>2022-07-10T08:13:46Z</time>
      </trkpt>
      <trkpt lat="43.41098" lon="2.17504">
        <ele>703.41021729</ele>
        <time>2022-07-10T08:13:47Z</time>
      </trkpt>
      <trkpt lat="43.41102" lon="2.17502">
        <ele>703.61022949</ele>
        <time>2022-07-10T08:13:48Z</time>
      </trkpt>
      <trkpt lat="43.41104" lon="2.17501">
        <ele>703.84020996</ele>
        <time>2022-07-10T08:13:49Z</time>
      </trkpt>
      <trkpt lat="43.41107" lon="2.17499">
        <ele>704.11022949</ele>
        <time>2022-07-10T08:13:50Z</time>
      </trkpt>
      <trkpt lat="43.4111" lon="2.17497">
        <ele>704.3102417</ele>
        <time>2022-07-10T08:13:51Z</time>
      </trkpt>
      <trkpt lat="43.41112" lon="2.17496">
        <ele>704.42022705</ele>
        <time>2022-07-10T08:13:52Z</time>
      </trkpt>
      <trkpt lat="43.41116" lon="2.17493">
        <ele>704.59020996</ele>
        <time>2022-07-10T08:13:53Z</time>
      </trkpt>
      <trkpt lat="43.41119" lon="2.17491">
        <ele>704.77020264</ele>
        <time>2022-07-10T08:13:54Z</time>
      </trkpt>
      <trkpt lat="43.41122" lon="2.17489">
        <ele>704.94018555</ele>
        <time>2022-07-10T08:13:55Z</time>
      </trkpt>
      <trkpt lat="43.41125" lon="2.17487">
        <ele>705.13018799</ele>
        <time>2022-07-10T08:13:56Z</time>
      </trkpt>
      <trkpt lat="43.41128" lon="2.17486">
        <ele>705.25018311</ele>
        <time>2022-07-10T08:13:57Z</time>
      </trkpt>
      <trkpt lat="43.4113" lon="2.17485">
        <ele>705.38018799</ele>
        <time>2022-07-10T08:13:58Z</time>
      </trkpt>
      <trkpt lat="43.41133" lon="2.17484">
        <ele>705.49017334</ele>
        <time>2022-07-10T08:13:59Z</time>
      </trkpt>
      <trkpt lat="43.41134" lon="2.17483">
        <ele>705.65014648</ele>
        <time>2022-07-10T08:14:00Z</time>
      </trkpt>
      <trkpt lat="43.41137" lon="2.17481">
        <ele>705.88012695</ele>
        <time>2022-07-10T08:14:01Z</time>
      </trkpt>
      <trkpt lat="43.4114" lon="2.17479">
        <ele>706.01013184</ele>
        <time>2022-07-10T08:14:02Z</time>
      </trkpt>
      <trkpt lat="43.41142" lon="2.17477">
        <ele>706.2701416</ele>
        <time>2022-07-10T08:14:03Z</time>
      </trkpt>
      <trkpt lat="43.41145" lon="2.17476">
        <ele>706.50012207</ele>
        <time>2022-07-10T08:14:04Z</time>
      </trkpt>
      <trkpt lat="43.41147" lon="2.17474">
        <ele>706.67010498</ele>
        <time>2022-07-10T08:14:05Z</time>
      </trkpt>
      <trkpt lat="43.41151" lon="2.1747">
        <ele>706.92010498</ele>
        <time>2022-07-10T08:14:06Z</time>
      </trkpt>
      <trkpt lat="43.41153" lon="2.17468">
        <ele>707.01013184</ele>
        <time>2022-07-10T08:14:07Z</time>
      </trkpt>
      <trkpt lat="43.41155" lon="2.17466">
        <ele>707.14013672</ele>
        <time>2022-07-10T08:14:08Z</time>
      </trkpt>
      <trkpt lat="43.41158" lon="2.17465">
        <ele>707.12011719</ele>
        <time>2022-07-10T08:14:09Z</time>
      </trkpt>
      <trkpt lat="43.4116" lon="2.17464">
        <ele>707.2701416</ele>
        <time>2022-07-10T08:14:10Z</time>
      </trkpt>
      <trkpt lat="43.41164" lon="2.17462">
        <ele>707.43011475</ele>
        <time>2022-07-10T08:14:11Z</time>
      </trkpt>
      <trkpt lat="43.41167" lon="2.17461">
        <ele>707.63012695</ele>
        <time>2022-07-10T08:14:12Z</time>
      </trkpt>
      <trkpt lat="43.4117" lon="2.17459">
        <ele>707.93011475</ele>
        <time>2022-07-10T08:14:13Z</time>
      </trkpt>
      <trkpt lat="43.41173" lon="2.17458">
        <ele>708.17010498</ele>
        <time>2022-07-10T08:14:14Z</time>
      </trkpt>
      <trkpt lat="43.41178" lon="2.17455">
        <ele>708.42010498</ele>
        <time>2022-07-10T08:14:15Z</time>
      </trkpt>
      <trkpt lat="43.4118" lon="2.17453">
        <ele>708.57012939</ele>
        <time>2022-07-10T08:14:16Z</time>
      </trkpt>
      <trkpt lat="43.41183" lon="2.17452">
        <ele>708.58013916</ele>
        <time>2022-07-10T08:14:17Z</time>
      </trkpt>
      <trkpt lat="43.41185" lon="2.1745">
        <ele>708.58013916</ele>
        <time>2022-07-10T08:14:18Z</time>
      </trkpt>
      <trkpt lat="43.41187" lon="2.17449">
        <ele>708.53015137</ele>
        <time>2022-07-10T08:14:19Z</time>
      </trkpt>
      <trkpt lat="43.41191" lon="2.17446">
        <ele>708.60015869</ele>
        <time>2022-07-10T08:14:20Z</time>
      </trkpt>
      <trkpt lat="43.41194" lon="2.17443">
        <ele>708.70013428</ele>
        <time>2022-07-10T08:14:21Z</time>
      </trkpt>
      <trkpt lat="43.41197" lon="2.17441">
        <ele>708.82012939</ele>
        <time>2022-07-10T08:14:22Z</time>
      </trkpt>
      <trkpt lat="43.412" lon="2.17438">
        <ele>708.9901123</ele>
        <time>2022-07-10T08:14:23Z</time>
      </trkpt>
      <trkpt lat="43.41204" lon="2.17434">
        <ele>709.0201416</ele>
        <time>2022-07-10T08:14:24Z</time>
      </trkpt>
      <trkpt lat="43.41206" lon="2.17431">
        <ele>709.09014893</ele>
        <time>2022-07-10T08:14:25Z</time>
      </trkpt>
      <trkpt lat="43.41208" lon="2.17427">
        <ele>709.13012695</ele>
        <time>2022-07-10T08:14:26Z</time>
      </trkpt>
      <trkpt lat="43.41211" lon="2.17425">
        <ele>709.17010498</ele>
        <time>2022-07-10T08:14:27Z</time>
      </trkpt>
      <trkpt lat="43.41213" lon="2.17422">
        <ele>709.17010498</ele>
        <time>2022-07-10T08:14:28Z</time>
      </trkpt>
      <trkpt lat="43.41218" lon="2.17419">
        <ele>709.15008545</ele>
        <time>2022-07-10T08:14:29Z</time>
      </trkpt>
      <trkpt lat="43.41222" lon="2.17417">
        <ele>709.05010986</ele>
        <time>2022-07-10T08:14:30Z</time>
      </trkpt>
      <trkpt lat="43.41225" lon="2.17414">
        <ele>709.03009033</ele>
        <time>2022-07-10T08:14:31Z</time>
      </trkpt>
      <trkpt lat="43.41229" lon="2.17413">
        <ele>709.0100708</ele>
        <time>2022-07-10T08:14:32Z</time>
      </trkpt>
      <trkpt lat="43.41233" lon="2.17409">
        <ele>709.00006104</ele>
        <time>2022-07-10T08:14:33Z</time>
      </trkpt>
      <trkpt lat="43.41235" lon="2.17407">
        <ele>709.0100708</ele>
        <time>2022-07-10T08:14:34Z</time>
      </trkpt>
      <trkpt lat="43.41238" lon="2.17406">
        <ele>709.11004639</ele>
        <time>2022-07-10T08:14:35Z</time>
      </trkpt>
      <trkpt lat="43.4124" lon="2.17404">
        <ele>709.21002197</ele>
        <time>2022-07-10T08:14:36Z</time>
      </trkpt>
      <trkpt lat="43.41242" lon="2.17401">
        <ele>709.34002686</ele>
        <time>2022-07-10T08:14:37Z</time>
      </trkpt>
      <trkpt lat="43.41246" lon="2.17399">
        <ele>709.62005615</ele>
        <time>2022-07-10T08:14:38Z</time>
      </trkpt>
      <trkpt lat="43.41249" lon="2.17399">
        <ele>709.80004883</ele>
        <time>2022-07-10T08:14:39Z</time>
      </trkpt>
      <trkpt lat="43.41251" lon="2.17398">
        <ele>710.05004883</ele>
        <time>2022-07-10T08:14:40Z</time>
      </trkpt>
      <trkpt lat="43.41254" lon="2.17397">
        <ele>710.25006104</ele>
        <time>2022-07-10T08:14:41Z</time>
      </trkpt>
      <trkpt lat="43.4126" lon="2.17396">
        <ele>710.38006592</ele>
        <time>2022-07-10T08:14:42Z</time>
      </trkpt>
      <trkpt lat="43.41263" lon="2.17396">
        <ele>710.56005859</ele>
        <time>2022-07-10T08:14:43Z</time>
      </trkpt>
      <trkpt lat="43.41265" lon="2.17397">
        <ele>710.80004883</ele>
        <time>2022-07-10T08:14:44Z</time>
      </trkpt>
      <trkpt lat="43.41267" lon="2.17399">
        <ele>711.06005859</ele>
        <time>2022-07-10T08:14:45Z</time>
      </trkpt>
      <trkpt lat="43.4127" lon="2.17401">
        <ele>711.37005615</ele>
        <time>2022-07-10T08:14:46Z</time>
      </trkpt>
      <trkpt lat="43.41271" lon="2.17405">
        <ele>711.56005859</ele>
        <time>2022-07-10T08:14:47Z</time>
      </trkpt>
      <trkpt lat="43.41273" lon="2.17409">
        <ele>711.79003906</ele>
        <time>2022-07-10T08:14:48Z</time>
      </trkpt>
      <trkpt lat="43.41274" lon="2.17412">
        <ele>712.10003662</ele>
        <time>2022-07-10T08:14:49Z</time>
      </trkpt>
      <trkpt lat="43.41275" lon="2.17415">
        <ele>712.27001953</ele>
        <time>2022-07-10T08:14:50Z</time>
      </trkpt>
      <trkpt lat="43.41277" lon="2.17418">
        <ele>712.52001953</ele>
        <time>2022-07-10T08:14:51Z</time>
      </trkpt>
      <trkpt lat="43.41279" lon="2.17421">
        <ele>712.69000244</ele>
        <time>2022-07-10T08:14:52Z</time>
      </trkpt>
      <trkpt lat="43.41281" lon="2.17423">
        <ele>712.82000732</ele>
        <time>2022-07-10T08:14:53Z</time>
      </trkpt>
      <trkpt lat="43.41284" lon="2.17424">
        <ele>713</ele>
        <time>2022-07-10T08:14:54Z</time>
      </trkpt>
      <trkpt lat="43.41286" lon="2.17425">
        <ele>713.17999268</ele>
        <time>2022-07-10T08:14:55Z</time>
      </trkpt>
      <trkpt lat="43.4129" lon="2.17425">
        <ele>713.34997559</ele>
        <time>2022-07-10T08:14:56Z</time>
      </trkpt>
      <trkpt lat="43.41293" lon="2.17425">
        <ele>713.54998779</ele>
        <time>2022-07-10T08:14:57Z</time>
      </trkpt>
      <trkpt lat="43.41296" lon="2.17424">
        <ele>713.75</ele>
        <time>2022-07-10T08:14:58Z</time>
      </trkpt>
      <trkpt lat="43.41298" lon="2.17425">
        <ele>713.96002197</ele>
        <time>2022-07-10T08:14:59Z</time>
      </trkpt>
      <trkpt lat="43.41301" lon="2.17425">
        <ele>714.02001953</ele>
        <time>2022-07-10T08:15:00Z</time>
      </trkpt>
      <trkpt lat="43.41303" lon="2.17425">
        <ele>714.11999512</ele>
        <time>2022-07-10T08:15:01Z</time>
      </trkpt>
      <trkpt lat="43.41306" lon="2.17425">
        <ele>714.19000244</ele>
        <time>2022-07-10T08:15:02Z</time>
      </trkpt>
      <trkpt lat="43.41308" lon="2.17425">
        <ele>714.19000244</ele>
        <time>2022-07-10T08:15:03Z</time>
      </trkpt>
      <trkpt lat="43.41311" lon="2.17425">
        <ele>714.33001709</ele>
        <time>2022-07-10T08:15:04Z</time>
      </trkpt>
      <trkpt lat="43.41314" lon="2.17426">
        <ele>714.39001465</ele>
        <time>2022-07-10T08:15:05Z</time>
      </trkpt>
      <trkpt lat="43.41316" lon="2.17427">
        <ele>714.44000244</ele>
        <time>2022-07-10T08:15:06Z</time>
      </trkpt>
      <trkpt lat="43.41318" lon="2.17428">
        <ele>714.5</ele>
        <time>2022-07-10T08:15:07Z</time>
      </trkpt>
      <trkpt lat="43.41321" lon="2.17428">
        <ele>714.53997803</ele>
        <time>2022-07-10T08:15:08Z</time>
      </trkpt>
      <trkpt lat="43.41324" lon="2.17429">
        <ele>714.48999023</ele>
        <time>2022-07-10T08:15:09Z</time>
      </trkpt>
      <trkpt lat="43.41327" lon="2.17428">
        <ele>714.52001953</ele>
        <time>2022-07-10T08:15:10Z</time>
      </trkpt>
      <trkpt lat="43.41331" lon="2.17428">
        <ele>714.55999756</ele>
        <time>2022-07-10T08:15:11Z</time>
      </trkpt>
      <trkpt lat="43.41334" lon="2.17425">
        <ele>714.59997559</ele>
        <time>2022-07-10T08:15:12Z</time>
      </trkpt>
      <trkpt lat="43.41337" lon="2.17424">
        <ele>714.63995361</ele>
        <time>2022-07-10T08:15:13Z</time>
      </trkpt>
      <trkpt lat="43.41341" lon="2.17422">
        <ele>714.7199707</ele>
        <time>2022-07-10T08:15:14Z</time>
      </trkpt>
      <trkpt lat="43.41344" lon="2.1742">
        <ele>714.82995605</ele>
        <time>2022-07-10T08:15:15Z</time>
      </trkpt>
      <trkpt lat="43.41347" lon="2.17417">
        <ele>714.94995117</ele>
        <time>2022-07-10T08:15:16Z</time>
      </trkpt>
      <trkpt lat="43.41349" lon="2.17415">
        <ele>715.14996338</ele>
        <time>2022-07-10T08:15:17Z</time>
      </trkpt>
      <trkpt lat="43.41354" lon="2.17413">
        <ele>715.28997803</ele>
        <time>2022-07-10T08:15:18Z</time>
      </trkpt>
      <trkpt lat="43.41356" lon="2.1741">
        <ele>715.42999268</ele>
        <time>2022-07-10T08:15:19Z</time>
      </trkpt>
      <trkpt lat="43.41359" lon="2.17409">
        <ele>715.58996582</ele>
        <time>2022-07-10T08:15:20Z</time>
      </trkpt>
      <trkpt lat="43.41361" lon="2.17408">
        <ele>715.69995117</ele>
        <time>2022-07-10T08:15:21Z</time>
      </trkpt>
      <trkpt lat="43.41364" lon="2.17407">
        <ele>715.90997314</ele>
        <time>2022-07-10T08:15:22Z</time>
      </trkpt>
      <trkpt lat="43.41367" lon="2.17407">
        <ele>716.04998779</ele>
        <time>2022-07-10T08:15:23Z</time>
      </trkpt>
      <trkpt lat="43.4137" lon="2.17405">
        <ele>716.20001221</ele>
        <time>2022-07-10T08:15:24Z</time>
      </trkpt>
      <trkpt lat="43.41372" lon="2.17405">
        <ele>716.32000732</ele>
        <time>2022-07-10T08:15:25Z</time>
      </trkpt>
      <trkpt lat="43.41375" lon="2.17404">
        <ele>716.39001465</ele>
        <time>2022-07-10T08:15:26Z</time>
      </trkpt>
      <trkpt lat="43.41379" lon="2.17402">
        <ele>716.5</ele>
        <time>2022-07-10T08:15:27Z</time>
      </trkpt>
      <trkpt lat="43.41381" lon="2.17401">
        <ele>716.54998779</ele>
        <time>2022-07-10T08:15:28Z</time>
      </trkpt>
      <trkpt lat="43.41384" lon="2.174">
        <ele>716.58001709</ele>
        <time>2022-07-10T08:15:29Z</time>
      </trkpt>
      <trkpt lat="43.41386" lon="2.174">
        <ele>716.66003418</ele>
        <time>2022-07-10T08:15:30Z</time>
      </trkpt>
      <trkpt lat="43.41389" lon="2.17399">
        <ele>716.70001221</ele>
        <time>2022-07-10T08:15:31Z</time>
      </trkpt>
      <trkpt lat="43.41394" lon="2.17398">
        <ele>716.73999023</ele>
        <time>2022-07-10T08:15:32Z</time>
      </trkpt>
      <trkpt lat="43.41396" lon="2.17396">
        <ele>716.86999512</ele>
        <time>2022-07-10T08:15:33Z</time>
      </trkpt>
      <trkpt lat="43.41399" lon="2.17395">
        <ele>716.9699707</ele>
        <time>2022-07-10T08:15:34Z</time>
      </trkpt>
      <trkpt lat="43.41401" lon="2.17394">
        <ele>717.05999756</ele>
        <time>2022-07-10T08:15:35Z</time>
      </trkpt>
      <trkpt lat="43.41404" lon="2.17394">
        <ele>717.26000977</ele>
        <time>2022-07-10T08:15:36Z</time>
      </trkpt>
      <trkpt lat="43.41409" lon="2.17395">
        <ele>717.39001465</ele>
        <time>2022-07-10T08:15:37Z</time>
      </trkpt>
      <trkpt lat="43.41411" lon="2.17397">
        <ele>717.51000977</ele>
        <time>2022-07-10T08:15:38Z</time>
      </trkpt>
      <trkpt lat="43.41414" lon="2.17399">
        <ele>717.67999268</ele>
        <time>2022-07-10T08:15:39Z</time>
      </trkpt>
      <trkpt lat="43.41417" lon="2.17401">
        <ele>717.7199707</ele>
        <time>2022-07-10T08:15:40Z</time>
      </trkpt>
      <trkpt lat="43.41421" lon="2.17405">
        <ele>717.94995117</ele>
        <time>2022-07-10T08:15:41Z</time>
      </trkpt>
      <trkpt lat="43.41423" lon="2.17407">
        <ele>718.17993164</ele>
        <time>2022-07-10T08:15:42Z</time>
      </trkpt>
      <trkpt lat="43.41425" lon="2.17409">
        <ele>718.33990479</ele>
        <time>2022-07-10T08:15:43Z</time>
      </trkpt>
      <trkpt lat="43.41427" lon="2.17412">
        <ele>718.67993164</ele>
        <time>2022-07-10T08:15:44Z</time>
      </trkpt>
      <trkpt lat="43.41429" lon="2.17415">
        <ele>718.88995361</ele>
        <time>2022-07-10T08:15:45Z</time>
      </trkpt>
      <trkpt lat="43.41431" lon="2.17417">
        <ele>719.13995361</ele>
        <time>2022-07-10T08:15:46Z</time>
      </trkpt>
      <trkpt lat="43.41433" lon="2.1742">
        <ele>719.42993164</ele>
        <time>2022-07-10T08:15:47Z</time>
      </trkpt>
      <trkpt lat="43.41435" lon="2.17422">
        <ele>719.59991455</ele>
        <time>2022-07-10T08:15:48Z</time>
      </trkpt>
      <trkpt lat="43.41436" lon="2.17424">
        <ele>719.7598877</ele>
        <time>2022-07-10T08:15:49Z</time>
      </trkpt>
      <trkpt lat="43.41439" lon="2.17427">
        <ele>719.82989502</ele>
        <time>2022-07-10T08:15:50Z</time>
      </trkpt>
      <trkpt lat="43.41441" lon="2.1743">
        <ele>719.94989014</ele>
        <time>2022-07-10T08:15:51Z</time>
      </trkpt>
      <trkpt lat="43.41443" lon="2.17433">
        <ele>720.11987305</ele>
        <time>2022-07-10T08:15:52Z</time>
      </trkpt>
      <trkpt lat="43.41444" lon="2.17435">
        <ele>720.27984619</ele>
        <time>2022-07-10T08:15:53Z</time>
      </trkpt>
      <trkpt lat="43.41447" lon="2.17439">
        <ele>720.54986572</ele>
        <time>2022-07-10T08:15:54Z</time>
      </trkpt>
      <trkpt lat="43.41448" lon="2.17442">
        <ele>720.85986328</ele>
        <time>2022-07-10T08:15:55Z</time>
      </trkpt>
      <trkpt lat="43.41449" lon="2.17445">
        <ele>720.99987793</ele>
        <time>2022-07-10T08:15:56Z</time>
      </trkpt>
      <trkpt lat="43.4145" lon="2.17449">
        <ele>721.04986572</ele>
        <time>2022-07-10T08:15:57Z</time>
      </trkpt>
      <trkpt lat="43.41451" lon="2.17453">
        <ele>720.9798584</ele>
        <time>2022-07-10T08:15:58Z</time>
      </trkpt>
      <trkpt lat="43.41453" lon="2.17459">
        <ele>720.77984619</ele>
        <time>2022-07-10T08:15:59Z</time>
      </trkpt>
      <trkpt lat="43.41454" lon="2.17464">
        <ele>720.55987549</ele>
        <time>2022-07-10T08:16:00Z</time>
      </trkpt>
      <trkpt lat="43.41455" lon="2.17468">
        <ele>720.4598999</ele>
        <time>2022-07-10T08:16:01Z</time>
      </trkpt>
      <trkpt lat="43.41457" lon="2.17472">
        <ele>720.41992188</ele>
        <time>2022-07-10T08:16:02Z</time>
      </trkpt>
      <trkpt lat="43.4146" lon="2.17477">
        <ele>720.34991455</ele>
        <time>2022-07-10T08:16:03Z</time>
      </trkpt>
      <trkpt lat="43.41463" lon="2.17479">
        <ele>720.44989014</ele>
        <time>2022-07-10T08:16:04Z</time>
      </trkpt>
      <trkpt lat="43.41465" lon="2.17482">
        <ele>720.42987061</ele>
        <time>2022-07-10T08:16:05Z</time>
      </trkpt>
      <trkpt lat="43.41468" lon="2.17483">
        <ele>720.30987549</ele>
        <time>2022-07-10T08:16:06Z</time>
      </trkpt>
      <trkpt lat="43.41471" lon="2.17485">
        <ele>720.27984619</ele>
        <time>2022-07-10T08:16:07Z</time>
      </trkpt>
      <trkpt lat="43.41476" lon="2.17488">
        <ele>720.13983154</ele>
        <time>2022-07-10T08:16:08Z</time>
      </trkpt>
      <trkpt lat="43.4148" lon="2.1749">
        <ele>720.00982666</ele>
        <time>2022-07-10T08:16:09Z</time>
      </trkpt>
      <trkpt lat="43.41483" lon="2.17491">
        <ele>720.00982666</ele>
        <time>2022-07-10T08:16:10Z</time>
      </trkpt>
      <trkpt lat="43.41486" lon="2.1749">
        <ele>719.97979736</ele>
        <time>2022-07-10T08:16:11Z</time>
      </trkpt>
      <trkpt lat="43.4149" lon="2.17491">
        <ele>719.97979736</ele>
        <time>2022-07-10T08:16:12Z</time>
      </trkpt>
      <trkpt lat="43.41492" lon="2.17492">
        <ele>719.9697876</ele>
        <time>2022-07-10T08:16:13Z</time>
      </trkpt>
      <trkpt lat="43.41495" lon="2.17493">
        <ele>719.88977051</ele>
        <time>2022-07-10T08:16:14Z</time>
      </trkpt>
      <trkpt lat="43.41499" lon="2.17495">
        <ele>719.72979736</ele>
        <time>2022-07-10T08:16:15Z</time>
      </trkpt>
      <trkpt lat="43.41503" lon="2.17497">
        <ele>719.52978516</ele>
        <time>2022-07-10T08:16:16Z</time>
      </trkpt>
      <trkpt lat="43.41508" lon="2.175">
        <ele>719.14978027</ele>
        <time>2022-07-10T08:16:17Z</time>
      </trkpt>
      <trkpt lat="43.41512" lon="2.17502">
        <ele>718.87976074</ele>
        <time>2022-07-10T08:16:18Z</time>
      </trkpt>
      <trkpt lat="43.41516" lon="2.17504">
        <ele>718.63977051</ele>
        <time>2022-07-10T08:16:19Z</time>
      </trkpt>
      <trkpt lat="43.41521" lon="2.17507">
        <ele>718.34979248</ele>
        <time>2022-07-10T08:16:20Z</time>
      </trkpt>
      <trkpt lat="43.41528" lon="2.17512">
        <ele>718.03979492</ele>
        <time>2022-07-10T08:16:21Z</time>
      </trkpt>
      <trkpt lat="43.41533" lon="2.17515">
        <ele>717.56982422</ele>
        <time>2022-07-10T08:16:22Z</time>
      </trkpt>
      <trkpt lat="43.41538" lon="2.17518">
        <ele>717.14984131</ele>
        <time>2022-07-10T08:16:23Z</time>
      </trkpt>
      <trkpt lat="43.41542" lon="2.17522">
        <ele>716.81982422</ele>
        <time>2022-07-10T08:16:24Z</time>
      </trkpt>
      <trkpt lat="43.41546" lon="2.17526">
        <ele>716.64984131</ele>
        <time>2022-07-10T08:16:25Z</time>
      </trkpt>
      <trkpt lat="43.41553" lon="2.17532">
        <ele>716.53985596</ele>
        <time>2022-07-10T08:16:26Z</time>
      </trkpt>
      <trkpt lat="43.41558" lon="2.17536">
        <ele>716.17987061</ele>
        <time>2022-07-10T08:16:27Z</time>
      </trkpt>
      <trkpt lat="43.41562" lon="2.17542">
        <ele>715.92987061</ele>
        <time>2022-07-10T08:16:28Z</time>
      </trkpt>
      <trkpt lat="43.41566" lon="2.17547">
        <ele>715.46984863</ele>
        <time>2022-07-10T08:16:29Z</time>
      </trkpt>
      <trkpt lat="43.41572" lon="2.17555">
        <ele>714.9798584</ele>
        <time>2022-07-10T08:16:30Z</time>
      </trkpt>
      <trkpt lat="43.41576" lon="2.17561">
        <ele>714.74987793</ele>
        <time>2022-07-10T08:16:31Z</time>
      </trkpt>
      <trkpt lat="43.41579" lon="2.17565">
        <ele>714.60986328</ele>
        <time>2022-07-10T08:16:32Z</time>
      </trkpt>
      <trkpt lat="43.41583" lon="2.1757">
        <ele>714.62988281</ele>
        <time>2022-07-10T08:16:33Z</time>
      </trkpt>
      <trkpt lat="43.41586" lon="2.17575">
        <ele>714.62988281</ele>
        <time>2022-07-10T08:16:34Z</time>
      </trkpt>
      <trkpt lat="43.41592" lon="2.17582">
        <ele>714.61987305</ele>
        <time>2022-07-10T08:16:35Z</time>
      </trkpt>
      <trkpt lat="43.41596" lon="2.17587">
        <ele>714.26989746</ele>
        <time>2022-07-10T08:16:36Z</time>
      </trkpt>
      <trkpt lat="43.416" lon="2.17591">
        <ele>714.01989746</ele>
        <time>2022-07-10T08:16:37Z</time>
      </trkpt>
      <trkpt lat="43.41604" lon="2.17593">
        <ele>713.77990723</ele>
        <time>2022-07-10T08:16:38Z</time>
      </trkpt>
      <trkpt lat="43.4161" lon="2.17593">
        <ele>713.49987793</ele>
        <time>2022-07-10T08:16:39Z</time>
      </trkpt>
      <trkpt lat="43.41614" lon="2.17592">
        <ele>713.36987305</ele>
        <time>2022-07-10T08:16:40Z</time>
      </trkpt>
      <trkpt lat="43.41617" lon="2.17591">
        <ele>713.23986816</ele>
        <time>2022-07-10T08:16:41Z</time>
      </trkpt>
      <trkpt lat="43.41621" lon="2.17589">
        <ele>713.18988037</ele>
        <time>2022-07-10T08:16:42Z</time>
      </trkpt>
      <trkpt lat="43.41624" lon="2.17587">
        <ele>713.16986084</ele>
        <time>2022-07-10T08:16:43Z</time>
      </trkpt>
      <trkpt lat="43.41629" lon="2.17584">
        <ele>713.2598877</ele>
        <time>2022-07-10T08:16:44Z</time>
      </trkpt>
      <trkpt lat="43.41632" lon="2.17581">
        <ele>713.24987793</ele>
        <time>2022-07-10T08:16:45Z</time>
      </trkpt>
      <trkpt lat="43.41634" lon="2.1758">
        <ele>713.33990479</ele>
        <time>2022-07-10T08:16:46Z</time>
      </trkpt>
      <trkpt lat="43.41636" lon="2.17578">
        <ele>713.51989746</ele>
        <time>2022-07-10T08:16:47Z</time>
      </trkpt>
      <trkpt lat="43.41641" lon="2.17574">
        <ele>713.64990234</ele>
        <time>2022-07-10T08:16:48Z</time>
      </trkpt>
      <trkpt lat="43.41643" lon="2.17572">
        <ele>714.05987549</ele>
        <time>2022-07-10T08:16:49Z</time>
      </trkpt>
      <trkpt lat="43.41645" lon="2.17571">
        <ele>714.41986084</ele>
        <time>2022-07-10T08:16:50Z</time>
      </trkpt>
      <trkpt lat="43.41648" lon="2.17569">
        <ele>714.74987793</ele>
        <time>2022-07-10T08:16:51Z</time>
      </trkpt>
      <trkpt lat="43.41651" lon="2.17569">
        <ele>715.10986328</ele>
        <time>2022-07-10T08:16:52Z</time>
      </trkpt>
      <trkpt lat="43.41656" lon="2.17567">
        <ele>715.29986572</ele>
        <time>2022-07-10T08:16:53Z</time>
      </trkpt>
      <trkpt lat="43.41659" lon="2.17567">
        <ele>715.63989258</ele>
        <time>2022-07-10T08:16:54Z</time>
      </trkpt>
      <trkpt lat="43.41663" lon="2.17564">
        <ele>716.08990479</ele>
        <time>2022-07-10T08:16:55Z</time>
      </trkpt>
      <trkpt lat="43.41666" lon="2.17562">
        <ele>716.53991699</ele>
        <time>2022-07-10T08:16:56Z</time>
      </trkpt>
      <trkpt lat="43.41669" lon="2.1756">
        <ele>717.15991211</ele>
        <time>2022-07-10T08:16:57Z</time>
      </trkpt>
      <trkpt lat="43.41671" lon="2.17559">
        <ele>717.56988525</ele>
        <time>2022-07-10T08:16:58Z</time>
      </trkpt>
      <trkpt lat="43.41673" lon="2.17557">
        <ele>717.90991211</ele>
        <time>2022-07-10T08:16:59Z</time>
      </trkpt>
      <trkpt lat="43.41676" lon="2.17554">
        <ele>718.26989746</ele>
        <time>2022-07-10T08:17:00Z</time>
      </trkpt>
      <trkpt lat="43.41679" lon="2.17552">
        <ele>718.68988037</ele>
        <time>2022-07-10T08:17:01Z</time>
      </trkpt>
      <trkpt lat="43.41683" lon="2.17548">
        <ele>719.12988281</ele>
        <time>2022-07-10T08:17:02Z</time>
      </trkpt>
      <trkpt lat="43.41685" lon="2.17546">
        <ele>719.60986328</ele>
        <time>2022-07-10T08:17:03Z</time>
      </trkpt>
      <trkpt lat="43.41687" lon="2.17544">
        <ele>720.03985596</ele>
        <time>2022-07-10T08:17:04Z</time>
      </trkpt>
      <trkpt lat="43.41689" lon="2.17541">
        <ele>720.39984131</ele>
        <time>2022-07-10T08:17:05Z</time>
      </trkpt>
      <trkpt lat="43.41693" lon="2.1754">
        <ele>720.76983643</ele>
        <time>2022-07-10T08:17:06Z</time>
      </trkpt>
      <trkpt lat="43.41695" lon="2.17538">
        <ele>721.16986084</ele>
        <time>2022-07-10T08:17:07Z</time>
      </trkpt>
      <trkpt lat="43.41697" lon="2.17536">
        <ele>721.54986572</ele>
        <time>2022-07-10T08:17:08Z</time>
      </trkpt>
      <trkpt lat="43.41699" lon="2.17534">
        <ele>721.83984375</ele>
        <time>2022-07-10T08:17:09Z</time>
      </trkpt>
      <trkpt lat="43.41701" lon="2.17532">
        <ele>722.14984131</ele>
        <time>2022-07-10T08:17:10Z</time>
      </trkpt>
      <trkpt lat="43.41704" lon="2.17529">
        <ele>722.36981201</ele>
        <time>2022-07-10T08:17:11Z</time>
      </trkpt>
      <trkpt lat="43.41707" lon="2.17528">
        <ele>722.60980225</ele>
        <time>2022-07-10T08:17:12Z</time>
      </trkpt>
      <trkpt lat="43.41709" lon="2.17526">
        <ele>722.87982178</ele>
        <time>2022-07-10T08:17:13Z</time>
      </trkpt>
      <trkpt lat="43.41711" lon="2.17524">
        <ele>723.10980225</ele>
        <time>2022-07-10T08:17:14Z</time>
      </trkpt>
      <trkpt lat="43.41714" lon="2.17521">
        <ele>723.31982422</ele>
        <time>2022-07-10T08:17:15Z</time>
      </trkpt>
      <trkpt lat="43.41717" lon="2.17519">
        <ele>723.48980713</ele>
        <time>2022-07-10T08:17:16Z</time>
      </trkpt>
      <trkpt lat="43.41719" lon="2.17518">
        <ele>723.59979248</ele>
        <time>2022-07-10T08:17:17Z</time>
      </trkpt>
      <trkpt lat="43.41721" lon="2.17516">
        <ele>723.73980713</ele>
        <time>2022-07-10T08:17:18Z</time>
      </trkpt>
      <trkpt lat="43.41723" lon="2.17514">
        <ele>723.9197998</ele>
        <time>2022-07-10T08:17:19Z</time>
      </trkpt>
      <trkpt lat="43.41727" lon="2.17511">
        <ele>724.05981445</ele>
        <time>2022-07-10T08:17:20Z</time>
      </trkpt>
      <trkpt lat="43.41729" lon="2.1751">
        <ele>724.29980469</ele>
        <time>2022-07-10T08:17:21Z</time>
      </trkpt>
      <trkpt lat="43.41731" lon="2.17508">
        <ele>724.40979004</ele>
        <time>2022-07-10T08:17:22Z</time>
      </trkpt>
      <trkpt lat="43.41733" lon="2.17507">
        <ele>724.62976074</ele>
        <time>2022-07-10T08:17:23Z</time>
      </trkpt>
      <trkpt lat="43.41735" lon="2.17504">
        <ele>724.78973389</ele>
        <time>2022-07-10T08:17:24Z</time>
      </trkpt>
      <trkpt lat="43.41737" lon="2.17503">
        <ele>724.87976074</ele>
        <time>2022-07-10T08:17:25Z</time>
      </trkpt>
      <trkpt lat="43.41738" lon="2.175">
        <ele>725.12976074</ele>
        <time>2022-07-10T08:17:26Z</time>
      </trkpt>
      <trkpt lat="43.4174" lon="2.17498">
        <ele>725.16973877</ele>
        <time>2022-07-10T08:17:27Z</time>
      </trkpt>
      <trkpt lat="43.41741" lon="2.17496">
        <ele>725.42974854</ele>
        <time>2022-07-10T08:17:28Z</time>
      </trkpt>
      <trkpt lat="43.41745" lon="2.17493">
        <ele>725.55975342</ele>
        <time>2022-07-10T08:17:29Z</time>
      </trkpt>
      <trkpt lat="43.41747" lon="2.17492">
        <ele>725.70977783</ele>
        <time>2022-07-10T08:17:30Z</time>
      </trkpt>
      <trkpt lat="43.41749" lon="2.17491">
        <ele>725.85980225</ele>
        <time>2022-07-10T08:17:31Z</time>
      </trkpt>
      <trkpt lat="43.41751" lon="2.17489">
        <ele>725.98980713</ele>
        <time>2022-07-10T08:17:32Z</time>
      </trkpt>
      <trkpt lat="43.41754" lon="2.17487">
        <ele>726.2197876</ele>
        <time>2022-07-10T08:17:33Z</time>
      </trkpt>
      <trkpt lat="43.41755" lon="2.17484">
        <ele>726.44976807</ele>
        <time>2022-07-10T08:17:34Z</time>
      </trkpt>
      <trkpt lat="43.41756" lon="2.17481">
        <ele>726.69976807</ele>
        <time>2022-07-10T08:17:35Z</time>
      </trkpt>
      <trkpt lat="43.41757" lon="2.17479">
        <ele>726.87976074</ele>
        <time>2022-07-10T08:17:36Z</time>
      </trkpt>
      <trkpt lat="43.41758" lon="2.17477">
        <ele>727.06976318</ele>
        <time>2022-07-10T08:17:37Z</time>
      </trkpt>
      <trkpt lat="43.4176" lon="2.17473">
        <ele>727.15979004</ele>
        <time>2022-07-10T08:17:38Z</time>
      </trkpt>
      <trkpt lat="43.41761" lon="2.1747">
        <ele>727.19976807</ele>
        <time>2022-07-10T08:17:39Z</time>
      </trkpt>
      <trkpt lat="43.41763" lon="2.17466">
        <ele>727.24975586</ele>
        <time>2022-07-10T08:17:40Z</time>
      </trkpt>
      <trkpt lat="43.41764" lon="2.17463">
        <ele>727.24975586</ele>
        <time>2022-07-10T08:17:41Z</time>
      </trkpt>
      <trkpt lat="43.41766" lon="2.17458">
        <ele>727.24975586</ele>
        <time>2022-07-10T08:17:42Z</time>
      </trkpt>
      <trkpt lat="43.41768" lon="2.17455">
        <ele>727.29974365</ele>
        <time>2022-07-10T08:17:43Z</time>
      </trkpt>
      <trkpt lat="43.4177" lon="2.17451">
        <ele>727.37976074</ele>
        <time>2022-07-10T08:17:44Z</time>
      </trkpt>
      <trkpt lat="43.41773" lon="2.17448">
        <ele>727.45977783</ele>
        <time>2022-07-10T08:17:45Z</time>
      </trkpt>
      <trkpt lat="43.41775" lon="2.17445">
        <ele>727.59979248</ele>
        <time>2022-07-10T08:17:46Z</time>
      </trkpt>
      <trkpt lat="43.41778" lon="2.1744">
        <ele>727.6697998</ele>
        <time>2022-07-10T08:17:47Z</time>
      </trkpt>
      <trkpt lat="43.4178" lon="2.17436">
        <ele>727.68981934</ele>
        <time>2022-07-10T08:17:48Z</time>
      </trkpt>
      <trkpt lat="43.41781" lon="2.17433">
        <ele>727.70983887</ele>
        <time>2022-07-10T08:17:49Z</time>
      </trkpt>
      <trkpt lat="43.41783" lon="2.17429">
        <ele>727.70983887</ele>
        <time>2022-07-10T08:17:50Z</time>
      </trkpt>
      <trkpt lat="43.41785" lon="2.17424">
        <ele>727.82983398</ele>
        <time>2022-07-10T08:17:51Z</time>
      </trkpt>
      <trkpt lat="43.41787" lon="2.17419">
        <ele>727.9498291</ele>
        <time>2022-07-10T08:17:52Z</time>
      </trkpt>
      <trkpt lat="43.41788" lon="2.17416">
        <ele>728.07983398</ele>
        <time>2022-07-10T08:17:53Z</time>
      </trkpt>
      <trkpt lat="43.41789" lon="2.17411">
        <ele>728.1998291</ele>
        <time>2022-07-10T08:17:54Z</time>
      </trkpt>
      <trkpt lat="43.41791" lon="2.17406">
        <ele>728.28985596</ele>
        <time>2022-07-10T08:17:55Z</time>
      </trkpt>
      <trkpt lat="43.41793" lon="2.17403">
        <ele>728.39984131</ele>
        <time>2022-07-10T08:17:56Z</time>
      </trkpt>
      <trkpt lat="43.41795" lon="2.17399">
        <ele>728.4498291</ele>
        <time>2022-07-10T08:17:57Z</time>
      </trkpt>
      <trkpt lat="43.41797" lon="2.17396">
        <ele>728.58984375</ele>
        <time>2022-07-10T08:17:58Z</time>
      </trkpt>
      <trkpt lat="43.418" lon="2.17393">
        <ele>728.68981934</ele>
        <time>2022-07-10T08:17:59Z</time>
      </trkpt>
      <trkpt lat="43.41803" lon="2.17388">
        <ele>728.65979004</ele>
        <time>2022-07-10T08:18:00Z</time>
      </trkpt>
      <trkpt lat="43.41804" lon="2.17384">
        <ele>728.76977539</ele>
        <time>2022-07-10T08:18:01Z</time>
      </trkpt>
      <trkpt lat="43.41805" lon="2.1738">
        <ele>728.78979492</ele>
        <time>2022-07-10T08:18:02Z</time>
      </trkpt>
      <trkpt lat="43.41807" lon="2.17376">
        <ele>728.79980469</ele>
        <time>2022-07-10T08:18:03Z</time>
      </trkpt>
      <trkpt lat="43.41809" lon="2.17372">
        <ele>728.89978027</ele>
        <time>2022-07-10T08:18:04Z</time>
      </trkpt>
      <trkpt lat="43.4181" lon="2.17365">
        <ele>728.99975586</ele>
        <time>2022-07-10T08:18:05Z</time>
      </trkpt>
      <trkpt lat="43.4181" lon="2.17361">
        <ele>729.14978027</ele>
        <time>2022-07-10T08:18:06Z</time>
      </trkpt>
      <trkpt lat="43.41811" lon="2.17357">
        <ele>729.31976318</ele>
        <time>2022-07-10T08:18:07Z</time>
      </trkpt>
      <trkpt lat="43.41813" lon="2.17354">
        <ele>729.50976562</ele>
        <time>2022-07-10T08:18:08Z</time>
      </trkpt>
      <trkpt lat="43.41814" lon="2.17351">
        <ele>730.11975098</ele>
        <time>2022-07-10T08:18:09Z</time>
      </trkpt>
      <trkpt lat="43.41816" lon="2.17347">
        <ele>730.1897583</ele>
        <time>2022-07-10T08:18:10Z</time>
      </trkpt>
      <trkpt lat="43.41818" lon="2.17344">
        <ele>730.32977295</ele>
        <time>2022-07-10T08:18:11Z</time>
      </trkpt>
      <trkpt lat="43.4182" lon="2.17341">
        <ele>730.47979736</ele>
        <time>2022-07-10T08:18:12Z</time>
      </trkpt>
      <trkpt lat="43.41821" lon="2.17337">
        <ele>730.63977051</ele>
        <time>2022-07-10T08:18:13Z</time>
      </trkpt>
      <trkpt lat="43.41823" lon="2.1733">
        <ele>730.80975342</ele>
        <time>2022-07-10T08:18:14Z</time>
      </trkpt>
      <trkpt lat="43.41824" lon="2.17325">
        <ele>730.96972656</ele>
        <time>2022-07-10T08:18:15Z</time>
      </trkpt>
      <trkpt lat="43.41824" lon="2.1732">
        <ele>731.18969727</ele>
        <time>2022-07-10T08:18:16Z</time>
      </trkpt>
      <trkpt lat="43.41827" lon="2.1732">
        <ele>731.35968018</ele>
        <time>2022-07-10T08:18:17Z</time>
      </trkpt>
      <trkpt lat="43.4183" lon="2.17317">
        <ele>731.61968994</ele>
        <time>2022-07-10T08:18:18Z</time>
      </trkpt>
      <trkpt lat="43.41832" lon="2.17315">
        <ele>731.86968994</ele>
        <time>2022-07-10T08:18:19Z</time>
      </trkpt>
      <trkpt lat="43.41833" lon="2.17313">
        <ele>732.01971436</ele>
        <time>2022-07-10T08:18:20Z</time>
      </trkpt>
      <trkpt lat="43.41834" lon="2.17312">
        <ele>732.29974365</ele>
        <time>2022-07-10T08:18:21Z</time>
      </trkpt>
      <trkpt lat="43.41837" lon="2.1731">
        <ele>732.37976074</ele>
        <time>2022-07-10T08:18:22Z</time>
      </trkpt>
      <trkpt lat="43.41838" lon="2.17309">
        <ele>732.47973633</ele>
        <time>2022-07-10T08:18:23Z</time>
      </trkpt>
      <trkpt lat="43.4184" lon="2.17306">
        <ele>732.56976318</ele>
        <time>2022-07-10T08:18:24Z</time>
      </trkpt>
      <trkpt lat="43.41841" lon="2.17303">
        <ele>732.64978027</ele>
        <time>2022-07-10T08:18:25Z</time>
      </trkpt>
      <trkpt lat="43.41842" lon="2.17302">
        <ele>732.9397583</ele>
        <time>2022-07-10T08:18:26Z</time>
      </trkpt>
      <trkpt lat="43.41845" lon="2.173">
        <ele>733.14978027</ele>
        <time>2022-07-10T08:18:27Z</time>
      </trkpt>
      <trkpt lat="43.41845" lon="2.17298">
        <ele>733.39978027</ele>
        <time>2022-07-10T08:18:28Z</time>
      </trkpt>
      <trkpt lat="43.41846" lon="2.17295">
        <ele>733.72979736</ele>
        <time>2022-07-10T08:18:29Z</time>
      </trkpt>
      <trkpt lat="43.41847" lon="2.17292">
        <ele>733.93981934</ele>
        <time>2022-07-10T08:18:30Z</time>
      </trkpt>
      <trkpt lat="43.41849" lon="2.1729">
        <ele>734.32983398</ele>
        <time>2022-07-10T08:18:31Z</time>
      </trkpt>
      <trkpt lat="43.41853" lon="2.17288">
        <ele>734.6998291</ele>
        <time>2022-07-10T08:18:32Z</time>
      </trkpt>
      <trkpt lat="43.41855" lon="2.17286">
        <ele>735.00982666</ele>
        <time>2022-07-10T08:18:33Z</time>
      </trkpt>
      <trkpt lat="43.41856" lon="2.17284">
        <ele>735.42980957</ele>
        <time>2022-07-10T08:18:34Z</time>
      </trkpt>
      <trkpt lat="43.41857" lon="2.17283">
        <ele>735.81982422</ele>
        <time>2022-07-10T08:18:35Z</time>
      </trkpt>
      <trkpt lat="43.41859" lon="2.1728">
        <ele>736.25982666</ele>
        <time>2022-07-10T08:18:36Z</time>
      </trkpt>
      <trkpt lat="43.4186" lon="2.17277">
        <ele>736.58984375</ele>
        <time>2022-07-10T08:18:37Z</time>
      </trkpt>
      <trkpt lat="43.41861" lon="2.17276">
        <ele>736.88983154</ele>
        <time>2022-07-10T08:18:38Z</time>
      </trkpt>
      <trkpt lat="43.41863" lon="2.17275">
        <ele>737.28985596</ele>
        <time>2022-07-10T08:18:39Z</time>
      </trkpt>
      <trkpt lat="43.41865" lon="2.17275">
        <ele>737.78985596</ele>
        <time>2022-07-10T08:18:40Z</time>
      </trkpt>
      <trkpt lat="43.41868" lon="2.17273">
        <ele>738.2298584</ele>
        <time>2022-07-10T08:18:41Z</time>
      </trkpt>
      <trkpt lat="43.4187" lon="2.17271">
        <ele>738.5098877</ele>
        <time>2022-07-10T08:18:42Z</time>
      </trkpt>
      <trkpt lat="43.41873" lon="2.1727">
        <ele>739.03991699</ele>
        <time>2022-07-10T08:18:43Z</time>
      </trkpt>
      <trkpt lat="43.41873" lon="2.17265">
        <ele>739.35992432</ele>
        <time>2022-07-10T08:18:44Z</time>
      </trkpt>
      <trkpt lat="43.41874" lon="2.17259">
        <ele>739.85992432</ele>
        <time>2022-07-10T08:18:45Z</time>
      </trkpt>
      <trkpt lat="43.41876" lon="2.17256">
        <ele>740.59991455</ele>
        <time>2022-07-10T08:18:46Z</time>
      </trkpt>
      <trkpt lat="43.41878" lon="2.17256">
        <ele>741.0098877</ele>
        <time>2022-07-10T08:18:47Z</time>
      </trkpt>
      <trkpt lat="43.41877" lon="2.1725">
        <ele>741.59991455</ele>
        <time>2022-07-10T08:18:48Z</time>
      </trkpt>
      <trkpt lat="43.41877" lon="2.17246">
        <ele>742.03991699</ele>
        <time>2022-07-10T08:18:49Z</time>
      </trkpt>
      <trkpt lat="43.41878" lon="2.17245">
        <ele>742.42993164</ele>
        <time>2022-07-10T08:18:50Z</time>
      </trkpt>
      <trkpt lat="43.41879" lon="2.17242">
        <ele>742.84991455</ele>
        <time>2022-07-10T08:18:51Z</time>
      </trkpt>
      <trkpt lat="43.4188" lon="2.17238">
        <ele>743.24993896</ele>
        <time>2022-07-10T08:18:52Z</time>
      </trkpt>
      <trkpt lat="43.41881" lon="2.17234">
        <ele>743.83996582</ele>
        <time>2022-07-10T08:18:53Z</time>
      </trkpt>
      <trkpt lat="43.41883" lon="2.17228">
        <ele>744.29998779</ele>
        <time>2022-07-10T08:18:54Z</time>
      </trkpt>
      <trkpt lat="43.41885" lon="2.17226">
        <ele>744.64001465</ele>
        <time>2022-07-10T08:18:55Z</time>
      </trkpt>
      <trkpt lat="43.41887" lon="2.17224">
        <ele>744.95001221</ele>
        <time>2022-07-10T08:18:56Z</time>
      </trkpt>
      <trkpt lat="43.41889" lon="2.17224">
        <ele>745.09002686</ele>
        <time>2022-07-10T08:18:57Z</time>
      </trkpt>
      <trkpt lat="43.41892" lon="2.17222">
        <ele>745.46002197</ele>
        <time>2022-07-10T08:18:58Z</time>
      </trkpt>
      <trkpt lat="43.41895" lon="2.1722">
        <ele>745.88000488</ele>
        <time>2022-07-10T08:18:59Z</time>
      </trkpt>
      <trkpt lat="43.41897" lon="2.17217">
        <ele>746.19000244</ele>
        <time>2022-07-10T08:19:00Z</time>
      </trkpt>
      <trkpt lat="43.41899" lon="2.17214">
        <ele>746.67999268</ele>
        <time>2022-07-10T08:19:01Z</time>
      </trkpt>
      <trkpt lat="43.419" lon="2.1721">
        <ele>746.98999023</ele>
        <time>2022-07-10T08:19:02Z</time>
      </trkpt>
      <trkpt lat="43.41902" lon="2.17206">
        <ele>747.30999756</ele>
        <time>2022-07-10T08:19:03Z</time>
      </trkpt>
      <trkpt lat="43.41903" lon="2.17205">
        <ele>747.86999512</ele>
        <time>2022-07-10T08:19:04Z</time>
      </trkpt>
      <trkpt lat="43.41904" lon="2.17203">
        <ele>748.23999023</ele>
        <time>2022-07-10T08:19:05Z</time>
      </trkpt>
      <trkpt lat="43.41904" lon="2.172">
        <ele>748.60998535</ele>
        <time>2022-07-10T08:19:06Z</time>
      </trkpt>
      <trkpt lat="43.41906" lon="2.17197">
        <ele>748.89001465</ele>
        <time>2022-07-10T08:19:07Z</time>
      </trkpt>
      <trkpt lat="43.41908" lon="2.17196">
        <ele>749.08001709</ele>
        <time>2022-07-10T08:19:08Z</time>
      </trkpt>
      <trkpt lat="43.4191" lon="2.17197">
        <ele>749.29003906</ele>
        <time>2022-07-10T08:19:09Z</time>
      </trkpt>
      <trkpt lat="43.41911" lon="2.17198">
        <ele>749.4800415</ele>
        <time>2022-07-10T08:19:10Z</time>
      </trkpt>
      <trkpt lat="43.41913" lon="2.17198">
        <ele>749.65002441</ele>
        <time>2022-07-10T08:19:11Z</time>
      </trkpt>
      <trkpt lat="43.41915" lon="2.17198">
        <ele>749.79003906</ele>
        <time>2022-07-10T08:19:12Z</time>
      </trkpt>
      <trkpt lat="43.41917" lon="2.17198">
        <ele>749.92004395</ele>
        <time>2022-07-10T08:19:13Z</time>
      </trkpt>
      <trkpt lat="43.41918" lon="2.17199">
        <ele>750.05004883</ele>
        <time>2022-07-10T08:19:14Z</time>
      </trkpt>
      <trkpt lat="43.4192" lon="2.172">
        <ele>750.17004395</ele>
        <time>2022-07-10T08:19:15Z</time>
      </trkpt>
      <trkpt lat="43.41922" lon="2.17202">
        <ele>750.33001709</ele>
        <time>2022-07-10T08:19:16Z</time>
      </trkpt>
      <trkpt lat="43.41925" lon="2.17202">
        <ele>750.51000977</ele>
        <time>2022-07-10T08:19:17Z</time>
      </trkpt>
      <trkpt lat="43.41926" lon="2.17203">
        <ele>750.73999023</ele>
        <time>2022-07-10T08:19:18Z</time>
      </trkpt>
      <trkpt lat="43.41927" lon="2.17204">
        <ele>751</ele>
        <time>2022-07-10T08:19:19Z</time>
      </trkpt>
      <trkpt lat="43.41928" lon="2.17204">
        <ele>751.13000488</ele>
        <time>2022-07-10T08:19:20Z</time>
      </trkpt>
      <trkpt lat="43.41931" lon="2.17206">
        <ele>751.22998047</ele>
        <time>2022-07-10T08:19:21Z</time>
      </trkpt>
      <trkpt lat="43.41933" lon="2.17207">
        <ele>751.25</ele>
        <time>2022-07-10T08:19:22Z</time>
      </trkpt>
      <trkpt lat="43.41935" lon="2.17207">
        <ele>751.19000244</ele>
        <time>2022-07-10T08:19:23Z</time>
      </trkpt>
      <trkpt lat="43.41938" lon="2.17208">
        <ele>751.14001465</ele>
        <time>2022-07-10T08:19:24Z</time>
      </trkpt>
      <trkpt lat="43.41942" lon="2.17208">
        <ele>750.94000244</ele>
        <time>2022-07-10T08:19:25Z</time>
      </trkpt>
      <trkpt lat="43.41945" lon="2.17207">
        <ele>750.60998535</ele>
        <time>2022-07-10T08:19:26Z</time>
      </trkpt>
      <trkpt lat="43.41948" lon="2.17209">
        <ele>750.34997559</ele>
        <time>2022-07-10T08:19:27Z</time>
      </trkpt>
      <trkpt lat="43.41952" lon="2.17209">
        <ele>749.90997314</ele>
        <time>2022-07-10T08:19:28Z</time>
      </trkpt>
      <trkpt lat="43.41956" lon="2.17208">
        <ele>749.4699707</ele>
        <time>2022-07-10T08:19:29Z</time>
      </trkpt>
      <trkpt lat="43.41963" lon="2.17207">
        <ele>749.16998291</ele>
        <time>2022-07-10T08:19:30Z</time>
      </trkpt>
      <trkpt lat="43.41968" lon="2.17207">
        <ele>748.77996826</ele>
        <time>2022-07-10T08:19:31Z</time>
      </trkpt>
      <trkpt lat="43.41974" lon="2.17206">
        <ele>748.49993896</ele>
        <time>2022-07-10T08:19:32Z</time>
      </trkpt>
      <trkpt lat="43.41979" lon="2.17205">
        <ele>748.34991455</ele>
        <time>2022-07-10T08:19:33Z</time>
      </trkpt>
      <trkpt lat="43.41984" lon="2.17205">
        <ele>748.08990479</ele>
        <time>2022-07-10T08:19:34Z</time>
      </trkpt>
      <trkpt lat="43.41992" lon="2.17206">
        <ele>747.9598999</ele>
        <time>2022-07-10T08:19:35Z</time>
      </trkpt>
      <trkpt lat="43.41997" lon="2.17208">
        <ele>747.77990723</ele>
        <time>2022-07-10T08:19:36Z</time>
      </trkpt>
      <trkpt lat="43.42001" lon="2.17211">
        <ele>747.78991699</ele>
        <time>2022-07-10T08:19:37Z</time>
      </trkpt>
      <trkpt lat="43.42005" lon="2.17215">
        <ele>747.77990723</ele>
        <time>2022-07-10T08:19:38Z</time>
      </trkpt>
      <trkpt lat="43.42011" lon="2.1722">
        <ele>747.51989746</ele>
        <time>2022-07-10T08:19:39Z</time>
      </trkpt>
      <trkpt lat="43.42014" lon="2.17223">
        <ele>747.46990967</ele>
        <time>2022-07-10T08:19:40Z</time>
      </trkpt>
      <trkpt lat="43.42018" lon="2.17227">
        <ele>747.17993164</ele>
        <time>2022-07-10T08:19:41Z</time>
      </trkpt>
      <trkpt lat="43.42021" lon="2.17231">
        <ele>746.97991943</ele>
        <time>2022-07-10T08:19:42Z</time>
      </trkpt>
      <trkpt lat="43.42024" lon="2.17236">
        <ele>746.94989014</ele>
        <time>2022-07-10T08:19:43Z</time>
      </trkpt>
      <trkpt lat="43.42029" lon="2.17243">
        <ele>746.83990479</ele>
        <time>2022-07-10T08:19:44Z</time>
      </trkpt>
      <trkpt lat="43.42031" lon="2.17249">
        <ele>746.7098999</ele>
        <time>2022-07-10T08:19:45Z</time>
      </trkpt>
      <trkpt lat="43.42033" lon="2.17254">
        <ele>746.60992432</ele>
        <time>2022-07-10T08:19:46Z</time>
      </trkpt>
      <trkpt lat="43.42036" lon="2.17259">
        <ele>746.19995117</ele>
        <time>2022-07-10T08:19:47Z</time>
      </trkpt>
      <trkpt lat="43.42039" lon="2.17267">
        <ele>745.93994141</ele>
        <time>2022-07-10T08:19:48Z</time>
      </trkpt>
      <trkpt lat="43.42041" lon="2.17271">
        <ele>745.70996094</ele>
        <time>2022-07-10T08:19:49Z</time>
      </trkpt>
      <trkpt lat="43.42043" lon="2.17275">
        <ele>745.61993408</ele>
        <time>2022-07-10T08:19:50Z</time>
      </trkpt>
      <trkpt lat="43.42045" lon="2.17278">
        <ele>745.86993408</ele>
        <time>2022-07-10T08:19:51Z</time>
      </trkpt>
      <trkpt lat="43.42047" lon="2.17283">
        <ele>745.97991943</ele>
        <time>2022-07-10T08:19:52Z</time>
      </trkpt>
      <trkpt lat="43.42048" lon="2.17285">
        <ele>746.14990234</ele>
        <time>2022-07-10T08:19:53Z</time>
      </trkpt>
      <trkpt lat="43.4205" lon="2.17287">
        <ele>746.18988037</ele>
        <time>2022-07-10T08:19:54Z</time>
      </trkpt>
      <trkpt lat="43.4205" lon="2.17288">
        <ele>746.21990967</ele>
        <time>2022-07-10T08:19:55Z</time>
      </trkpt>
      <trkpt lat="43.4205" lon="2.17289">
        <ele>746.2098999</ele>
        <time>2022-07-10T08:19:56Z</time>
      </trkpt>
      <trkpt lat="43.42051" lon="2.17292">
        <ele>746.19989014</ele>
        <time>2022-07-10T08:19:57Z</time>
      </trkpt>
      <trkpt lat="43.42051" lon="2.17294">
        <ele>746.17987061</ele>
        <time>2022-07-10T08:19:58Z</time>
      </trkpt>
      <trkpt lat="43.42053" lon="2.17303">
        <ele>745.96984863</ele>
        <time>2022-07-10T08:20:11Z</time>
      </trkpt>
      <trkpt lat="43.42054" lon="2.17305">
        <ele>745.6998291</ele>
        <time>2022-07-10T08:20:12Z</time>
      </trkpt>
      <trkpt lat="43.42056" lon="2.17307">
        <ele>745.4798584</ele>
        <time>2022-07-10T08:20:13Z</time>
      </trkpt>
      <trkpt lat="43.42057" lon="2.1731">
        <ele>745.27984619</ele>
        <time>2022-07-10T08:20:14Z</time>
      </trkpt>
      <trkpt lat="43.42058" lon="2.17315">
        <ele>745.16986084</ele>
        <time>2022-07-10T08:20:15Z</time>
      </trkpt>
      <trkpt lat="43.42059" lon="2.17319">
        <ele>745.03985596</ele>
        <time>2022-07-10T08:20:16Z</time>
      </trkpt>
      <trkpt lat="43.4206" lon="2.17323">
        <ele>744.85986328</ele>
        <time>2022-07-10T08:20:17Z</time>
      </trkpt>
      <trkpt lat="43.42061" lon="2.17327">
        <ele>744.76983643</ele>
        <time>2022-07-10T08:20:18Z</time>
      </trkpt>
      <trkpt lat="43.42062" lon="2.17331">
        <ele>744.66986084</ele>
        <time>2022-07-10T08:20:19Z</time>
      </trkpt>
      <trkpt lat="43.42064" lon="2.17337">
        <ele>744.48986816</ele>
        <time>2022-07-10T08:20:20Z</time>
      </trkpt>
      <trkpt lat="43.42065" lon="2.1734">
        <ele>744.31988525</ele>
        <time>2022-07-10T08:20:21Z</time>
      </trkpt>
      <trkpt lat="43.42066" lon="2.17344">
        <ele>744.2098999</ele>
        <time>2022-07-10T08:20:22Z</time>
      </trkpt>
      <trkpt lat="43.42066" lon="2.17347">
        <ele>744.05987549</ele>
        <time>2022-07-10T08:20:23Z</time>
      </trkpt>
      <trkpt lat="43.42067" lon="2.17354">
        <ele>743.92987061</ele>
        <time>2022-07-10T08:20:24Z</time>
      </trkpt>
      <trkpt lat="43.42068" lon="2.17358">
        <ele>743.90985107</ele>
        <time>2022-07-10T08:20:25Z</time>
      </trkpt>
      <trkpt lat="43.42069" lon="2.17362">
        <ele>743.75982666</ele>
        <time>2022-07-10T08:20:26Z</time>
      </trkpt>
      <trkpt lat="43.4207" lon="2.17366">
        <ele>743.65985107</ele>
        <time>2022-07-10T08:20:27Z</time>
      </trkpt>
      <trkpt lat="43.42072" lon="2.17372">
        <ele>743.60986328</ele>
        <time>2022-07-10T08:20:28Z</time>
      </trkpt>
      <trkpt lat="43.42073" lon="2.17375">
        <ele>743.45983887</ele>
        <time>2022-07-10T08:20:29Z</time>
      </trkpt>
      <trkpt lat="43.42074" lon="2.17378">
        <ele>743.4498291</ele>
        <time>2022-07-10T08:20:30Z</time>
      </trkpt>
      <trkpt lat="43.42075" lon="2.1738">
        <ele>743.40985107</ele>
        <time>2022-07-10T08:20:31Z</time>
      </trkpt>
      <trkpt lat="43.42077" lon="2.17382">
        <ele>743.34985352</ele>
        <time>2022-07-10T08:20:32Z</time>
      </trkpt>
      <trkpt lat="43.42079" lon="2.17384">
        <ele>743.27984619</ele>
        <time>2022-07-10T08:20:33Z</time>
      </trkpt>
      <trkpt lat="43.4208" lon="2.17386">
        <ele>743.17987061</ele>
        <time>2022-07-10T08:20:34Z</time>
      </trkpt>
      <trkpt lat="43.42082" lon="2.17385">
        <ele>743.06988525</ele>
        <time>2022-07-10T08:20:35Z</time>
      </trkpt>
      <trkpt lat="43.42084" lon="2.17385">
        <ele>742.87988281</ele>
        <time>2022-07-10T08:20:36Z</time>
      </trkpt>
      <trkpt lat="43.42087" lon="2.17385">
        <ele>742.68988037</ele>
        <time>2022-07-10T08:20:37Z</time>
      </trkpt>
      <trkpt lat="43.42089" lon="2.17386">
        <ele>742.2598877</ele>
        <time>2022-07-10T08:20:38Z</time>
      </trkpt>
      <trkpt lat="43.42091" lon="2.17386">
        <ele>741.64990234</ele>
        <time>2022-07-10T08:20:39Z</time>
      </trkpt>
      <trkpt lat="43.42093" lon="2.17385">
        <ele>740.99987793</ele>
        <time>2022-07-10T08:20:40Z</time>
      </trkpt>
      <trkpt lat="43.42095" lon="2.17385">
        <ele>740.26989746</ele>
        <time>2022-07-10T08:20:41Z</time>
      </trkpt>
      <trkpt lat="43.421" lon="2.17384">
        <ele>739.58990479</ele>
        <time>2022-07-10T08:20:42Z</time>
      </trkpt>
      <trkpt lat="43.42104" lon="2.17385">
        <ele>739.03991699</ele>
        <time>2022-07-10T08:20:43Z</time>
      </trkpt>
      <trkpt lat="43.42106" lon="2.17385">
        <ele>738.5098877</ele>
        <time>2022-07-10T08:20:44Z</time>
      </trkpt>
      <trkpt lat="43.42109" lon="2.17385">
        <ele>737.90991211</ele>
        <time>2022-07-10T08:20:45Z</time>
      </trkpt>
      <trkpt lat="43.42112" lon="2.17385">
        <ele>737.4899292</ele>
        <time>2022-07-10T08:20:46Z</time>
      </trkpt>
      <trkpt lat="43.42116" lon="2.17385">
        <ele>736.88995361</ele>
        <time>2022-07-10T08:20:47Z</time>
      </trkpt>
      <trkpt lat="43.4212" lon="2.17386">
        <ele>736.31994629</ele>
        <time>2022-07-10T08:20:48Z</time>
      </trkpt>
      <trkpt lat="43.42123" lon="2.17385">
        <ele>735.66992188</ele>
        <time>2022-07-10T08:20:49Z</time>
      </trkpt>
      <trkpt lat="43.42126" lon="2.17383">
        <ele>735.03991699</ele>
        <time>2022-07-10T08:20:50Z</time>
      </trkpt>
      <trkpt lat="43.42128" lon="2.17379">
        <ele>734.66992188</ele>
        <time>2022-07-10T08:20:51Z</time>
      </trkpt>
      <trkpt lat="43.4213" lon="2.17375">
        <ele>734.16992188</ele>
        <time>2022-07-10T08:20:52Z</time>
      </trkpt>
      <trkpt lat="43.42132" lon="2.17372">
        <ele>733.88989258</ele>
        <time>2022-07-10T08:20:53Z</time>
      </trkpt>
      <trkpt lat="43.42135" lon="2.17369">
        <ele>733.2598877</ele>
        <time>2022-07-10T08:20:54Z</time>
      </trkpt>
      <trkpt lat="43.42139" lon="2.17367">
        <ele>732.5098877</ele>
        <time>2022-07-10T08:20:55Z</time>
      </trkpt>
      <trkpt lat="43.42142" lon="2.17366">
        <ele>731.71990967</ele>
        <time>2022-07-10T08:20:56Z</time>
      </trkpt>
      <trkpt lat="43.42145" lon="2.17364">
        <ele>730.83990479</ele>
        <time>2022-07-10T08:20:57Z</time>
      </trkpt>
      <trkpt lat="43.42145" lon="2.17363">
        <ele>730.26989746</ele>
        <time>2022-07-10T08:20:58Z</time>
      </trkpt>
      <trkpt lat="43.42146" lon="2.1736">
        <ele>729.66992188</ele>
        <time>2022-07-10T08:20:59Z</time>
      </trkpt>
      <trkpt lat="43.4215" lon="2.17355">
        <ele>729.18994141</ele>
        <time>2022-07-10T08:21:00Z</time>
      </trkpt>
      <trkpt lat="43.42153" lon="2.17352">
        <ele>728.7199707</ele>
        <time>2022-07-10T08:21:01Z</time>
      </trkpt>
      <trkpt lat="43.42156" lon="2.1735">
        <ele>727.94995117</ele>
        <time>2022-07-10T08:21:02Z</time>
      </trkpt>
      <trkpt lat="43.42158" lon="2.17348">
        <ele>727.19995117</ele>
        <time>2022-07-10T08:21:03Z</time>
      </trkpt>
      <trkpt lat="43.4216" lon="2.17346">
        <ele>726.65997314</ele>
        <time>2022-07-10T08:21:04Z</time>
      </trkpt>
      <trkpt lat="43.42164" lon="2.17342">
        <ele>726.32995605</ele>
        <time>2022-07-10T08:21:05Z</time>
      </trkpt>
      <trkpt lat="43.42166" lon="2.1734">
        <ele>726.08996582</ele>
        <time>2022-07-10T08:21:06Z</time>
      </trkpt>
      <trkpt lat="43.42166" lon="2.17336">
        <ele>725.82995605</ele>
        <time>2022-07-10T08:21:07Z</time>
      </trkpt>
      <trkpt lat="43.42168" lon="2.17334">
        <ele>725.36993408</ele>
        <time>2022-07-10T08:21:08Z</time>
      </trkpt>
      <trkpt lat="43.42172" lon="2.17331">
        <ele>724.74993896</ele>
        <time>2022-07-10T08:21:09Z</time>
      </trkpt>
      <trkpt lat="43.42174" lon="2.17329">
        <ele>724.21990967</ele>
        <time>2022-07-10T08:21:10Z</time>
      </trkpt>
      <trkpt lat="43.42177" lon="2.17326">
        <ele>723.59991455</ele>
        <time>2022-07-10T08:21:11Z</time>
      </trkpt>
      <trkpt lat="43.4218" lon="2.17325">
        <ele>723.0098877</ele>
        <time>2022-07-10T08:21:12Z</time>
      </trkpt>
      <trkpt lat="43.42182" lon="2.17323">
        <ele>722.40991211</ele>
        <time>2022-07-10T08:21:13Z</time>
      </trkpt>
      <trkpt lat="43.42186" lon="2.1732">
        <ele>721.84991455</ele>
        <time>2022-07-10T08:21:14Z</time>
      </trkpt>
      <trkpt lat="43.42189" lon="2.17317">
        <ele>721.35992432</ele>
        <time>2022-07-10T08:21:15Z</time>
      </trkpt>
      <trkpt lat="43.42191" lon="2.17314">
        <ele>720.75994873</ele>
        <time>2022-07-10T08:21:16Z</time>
      </trkpt>
      <trkpt lat="43.42194" lon="2.17312">
        <ele>720.32995605</ele>
        <time>2022-07-10T08:21:17Z</time>
      </trkpt>
      <trkpt lat="43.42199" lon="2.17307">
        <ele>719.9899292</ele>
        <time>2022-07-10T08:21:18Z</time>
      </trkpt>
      <trkpt lat="43.42203" lon="2.17304">
        <ele>719.65991211</ele>
        <time>2022-07-10T08:21:19Z</time>
      </trkpt>
      <trkpt lat="43.42205" lon="2.17301">
        <ele>719.44989014</ele>
        <time>2022-07-10T08:21:20Z</time>
      </trkpt>
      <trkpt lat="43.42208" lon="2.17298">
        <ele>719.26989746</ele>
        <time>2022-07-10T08:21:21Z</time>
      </trkpt>
      <trkpt lat="43.42213" lon="2.17294">
        <ele>718.94989014</ele>
        <time>2022-07-10T08:21:22Z</time>
      </trkpt>
      <trkpt lat="43.42216" lon="2.17293">
        <ele>718.64990234</ele>
        <time>2022-07-10T08:21:23Z</time>
      </trkpt>
      <trkpt lat="43.42219" lon="2.17291">
        <ele>718.40991211</ele>
        <time>2022-07-10T08:21:24Z</time>
      </trkpt>
      <trkpt lat="43.42222" lon="2.1729">
        <ele>717.74993896</ele>
        <time>2022-07-10T08:21:25Z</time>
      </trkpt>
      <trkpt lat="43.42225" lon="2.17288">
        <ele>717.32995605</ele>
        <time>2022-07-10T08:21:26Z</time>
      </trkpt>
      <trkpt lat="43.42228" lon="2.17285">
        <ele>716.94995117</ele>
        <time>2022-07-10T08:21:27Z</time>
      </trkpt>
      <trkpt lat="43.42231" lon="2.17283">
        <ele>716.50994873</ele>
        <time>2022-07-10T08:21:28Z</time>
      </trkpt>
      <trkpt lat="43.42234" lon="2.17281">
        <ele>716.33996582</ele>
        <time>2022-07-10T08:21:29Z</time>
      </trkpt>
      <trkpt lat="43.42238" lon="2.17279">
        <ele>715.97998047</ele>
        <time>2022-07-10T08:21:30Z</time>
      </trkpt>
      <trkpt lat="43.42241" lon="2.17277">
        <ele>715.63995361</ele>
        <time>2022-07-10T08:21:31Z</time>
      </trkpt>
      <trkpt lat="43.42244" lon="2.17274">
        <ele>715.30993652</ele>
        <time>2022-07-10T08:21:32Z</time>
      </trkpt>
      <trkpt lat="43.42247" lon="2.17273">
        <ele>714.89996338</ele>
        <time>2022-07-10T08:21:33Z</time>
      </trkpt>
      <trkpt lat="43.42249" lon="2.17271">
        <ele>714.48999023</ele>
        <time>2022-07-10T08:21:34Z</time>
      </trkpt>
      <trkpt lat="43.42253" lon="2.17269">
        <ele>714.11999512</ele>
        <time>2022-07-10T08:21:35Z</time>
      </trkpt>
      <trkpt lat="43.42259" lon="2.17264">
        <ele>713.69000244</ele>
        <time>2022-07-10T08:21:36Z</time>
      </trkpt>
      <trkpt lat="43.42262" lon="2.17262">
        <ele>713.34997559</ele>
        <time>2022-07-10T08:21:37Z</time>
      </trkpt>
      <trkpt lat="43.42266" lon="2.17259">
        <ele>712.82995605</ele>
        <time>2022-07-10T08:21:38Z</time>
      </trkpt>
      <trkpt lat="43.42269" lon="2.17256">
        <ele>712.33996582</ele>
        <time>2022-07-10T08:21:39Z</time>
      </trkpt>
      <trkpt lat="43.42274" lon="2.17254">
        <ele>711.77996826</ele>
        <time>2022-07-10T08:21:40Z</time>
      </trkpt>
      <trkpt lat="43.42277" lon="2.17253">
        <ele>711.20996094</ele>
        <time>2022-07-10T08:21:41Z</time>
      </trkpt>
      <trkpt lat="43.42282" lon="2.17252">
        <ele>710.80993652</ele>
        <time>2022-07-10T08:21:42Z</time>
      </trkpt>
      <trkpt lat="43.42285" lon="2.17249">
        <ele>710.38995361</ele>
        <time>2022-07-10T08:21:43Z</time>
      </trkpt>
      <trkpt lat="43.42288" lon="2.17246">
        <ele>710.00994873</ele>
        <time>2022-07-10T08:21:44Z</time>
      </trkpt>
      <trkpt lat="43.42291" lon="2.17244">
        <ele>709.72991943</ele>
        <time>2022-07-10T08:21:45Z</time>
      </trkpt>
      <trkpt lat="43.42294" lon="2.17242">
        <ele>709.54992676</ele>
        <time>2022-07-10T08:21:46Z</time>
      </trkpt>
      <trkpt lat="43.42296" lon="2.1724">
        <ele>709.30993652</ele>
        <time>2022-07-10T08:21:47Z</time>
      </trkpt>
      <trkpt lat="43.42298" lon="2.17238">
        <ele>709.15991211</ele>
        <time>2022-07-10T08:21:48Z</time>
      </trkpt>
      <trkpt lat="43.42299" lon="2.17236">
        <ele>708.94989014</ele>
        <time>2022-07-10T08:21:49Z</time>
      </trkpt>
      <trkpt lat="43.42303" lon="2.17235">
        <ele>708.78991699</ele>
        <time>2022-07-10T08:21:50Z</time>
      </trkpt>
      <trkpt lat="43.42305" lon="2.17236">
        <ele>708.60992432</ele>
        <time>2022-07-10T08:21:51Z</time>
      </trkpt>
      <trkpt lat="43.42308" lon="2.17235">
        <ele>708.18994141</ele>
        <time>2022-07-10T08:21:52Z</time>
      </trkpt>
      <trkpt lat="43.4231" lon="2.17233">
        <ele>707.88995361</ele>
        <time>2022-07-10T08:21:53Z</time>
      </trkpt>
      <trkpt lat="43.42316" lon="2.17232">
        <ele>707.33996582</ele>
        <time>2022-07-10T08:21:54Z</time>
      </trkpt>
      <trkpt lat="43.42319" lon="2.1723">
        <ele>706.69995117</ele>
        <time>2022-07-10T08:21:55Z</time>
      </trkpt>
      <trkpt lat="43.42321" lon="2.17231">
        <ele>706.37994385</ele>
        <time>2022-07-10T08:21:56Z</time>
      </trkpt>
      <trkpt lat="43.42325" lon="2.1723">
        <ele>705.68994141</ele>
        <time>2022-07-10T08:21:57Z</time>
      </trkpt>
      <trkpt lat="43.42329" lon="2.1723">
        <ele>705.2199707</ele>
        <time>2022-07-10T08:21:58Z</time>
      </trkpt>
      <trkpt lat="43.42333" lon="2.1723">
        <ele>704.92999268</ele>
        <time>2022-07-10T08:21:59Z</time>
      </trkpt>
      <trkpt lat="43.42336" lon="2.1723">
        <ele>704.58001709</ele>
        <time>2022-07-10T08:22:00Z</time>
      </trkpt>
      <trkpt lat="43.42339" lon="2.17229">
        <ele>704.21002197</ele>
        <time>2022-07-10T08:22:01Z</time>
      </trkpt>
      <trkpt lat="43.42343" lon="2.17226">
        <ele>703.74005127</ele>
        <time>2022-07-10T08:22:02Z</time>
      </trkpt>
      <trkpt lat="43.42348" lon="2.17225">
        <ele>703.16003418</ele>
        <time>2022-07-10T08:22:03Z</time>
      </trkpt>
      <trkpt lat="43.4235" lon="2.17225">
        <ele>702.50006104</ele>
        <time>2022-07-10T08:22:04Z</time>
      </trkpt>
      <trkpt lat="43.42353" lon="2.17224">
        <ele>702.14007568</ele>
        <time>2022-07-10T08:22:05Z</time>
      </trkpt>
      <trkpt lat="43.42355" lon="2.17225">
        <ele>701.53009033</ele>
        <time>2022-07-10T08:22:06Z</time>
      </trkpt>
      <trkpt lat="43.42359" lon="2.17224">
        <ele>701.10009766</ele>
        <time>2022-07-10T08:22:07Z</time>
      </trkpt>
      <trkpt lat="43.42362" lon="2.17223">
        <ele>700.52008057</ele>
        <time>2022-07-10T08:22:08Z</time>
      </trkpt>
      <trkpt lat="43.42364" lon="2.17223">
        <ele>699.63006592</ele>
        <time>2022-07-10T08:22:09Z</time>
      </trkpt>
      <trkpt lat="43.42366" lon="2.17223">
        <ele>699.02008057</ele>
        <time>2022-07-10T08:22:10Z</time>
      </trkpt>
      <trkpt lat="43.4237" lon="2.17221">
        <ele>698.65008545</ele>
        <time>2022-07-10T08:22:11Z</time>
      </trkpt>
      <trkpt lat="43.42374" lon="2.17223">
        <ele>698.23010254</ele>
        <time>2022-07-10T08:22:12Z</time>
      </trkpt>
      <trkpt lat="43.42377" lon="2.17224">
        <ele>698.10009766</ele>
        <time>2022-07-10T08:22:13Z</time>
      </trkpt>
      <trkpt lat="43.42381" lon="2.17223">
        <ele>697.93011475</ele>
        <time>2022-07-10T08:22:14Z</time>
      </trkpt>
      <trkpt lat="43.42383" lon="2.17224">
        <ele>697.46014404</ele>
        <time>2022-07-10T08:22:15Z</time>
      </trkpt>
      <trkpt lat="43.42388" lon="2.17225">
        <ele>697.00012207</ele>
        <time>2022-07-10T08:22:16Z</time>
      </trkpt>
      <trkpt lat="43.4239" lon="2.17228">
        <ele>696.42010498</ele>
        <time>2022-07-10T08:22:17Z</time>
      </trkpt>
      <trkpt lat="43.42392" lon="2.17229">
        <ele>695.73010254</ele>
        <time>2022-07-10T08:22:18Z</time>
      </trkpt>
      <trkpt lat="43.42396" lon="2.17232">
        <ele>695.00012207</ele>
        <time>2022-07-10T08:22:19Z</time>
      </trkpt>
      <trkpt lat="43.42399" lon="2.17233">
        <ele>694.44012451</ele>
        <time>2022-07-10T08:22:20Z</time>
      </trkpt>
      <trkpt lat="43.42404" lon="2.17236">
        <ele>693.95013428</ele>
        <time>2022-07-10T08:22:21Z</time>
      </trkpt>
      <trkpt lat="43.42408" lon="2.17238">
        <ele>693.51013184</ele>
        <time>2022-07-10T08:22:22Z</time>
      </trkpt>
      <trkpt lat="43.4241" lon="2.17238">
        <ele>693.06011963</ele>
        <time>2022-07-10T08:22:23Z</time>
      </trkpt>
      <trkpt lat="43.42413" lon="2.17238">
        <ele>692.68011475</ele>
        <time>2022-07-10T08:22:24Z</time>
      </trkpt>
      <trkpt lat="43.42415" lon="2.17239">
        <ele>692.05010986</ele>
        <time>2022-07-10T08:22:25Z</time>
      </trkpt>
      <trkpt lat="43.42418" lon="2.17239">
        <ele>691.59008789</ele>
        <time>2022-07-10T08:22:26Z</time>
      </trkpt>
      <trkpt lat="43.42421" lon="2.17239">
        <ele>691.0401001</ele>
        <time>2022-07-10T08:22:27Z</time>
      </trkpt>
      <trkpt lat="43.42424" lon="2.17238">
        <ele>690.47009277</ele>
        <time>2022-07-10T08:22:28Z</time>
      </trkpt>
      <trkpt lat="43.42427" lon="2.17238">
        <ele>690.02008057</ele>
        <time>2022-07-10T08:22:29Z</time>
      </trkpt>
      <trkpt lat="43.42431" lon="2.17238">
        <ele>689.5401001</ele>
        <time>2022-07-10T08:22:30Z</time>
      </trkpt>
      <trkpt lat="43.42434" lon="2.17237">
        <ele>689.02008057</ele>
        <time>2022-07-10T08:22:31Z</time>
      </trkpt>
      <trkpt lat="43.42438" lon="2.17237">
        <ele>688.43005371</ele>
        <time>2022-07-10T08:22:32Z</time>
      </trkpt>
      <trkpt lat="43.42442" lon="2.17236">
        <ele>687.90002441</ele>
        <time>2022-07-10T08:22:33Z</time>
      </trkpt>
      <trkpt lat="43.42445" lon="2.17234">
        <ele>687.34002686</ele>
        <time>2022-07-10T08:22:34Z</time>
      </trkpt>
      <trkpt lat="43.42449" lon="2.17233">
        <ele>686.77001953</ele>
        <time>2022-07-10T08:22:35Z</time>
      </trkpt>
      <trkpt lat="43.42452" lon="2.17232">
        <ele>686.07000732</ele>
        <time>2022-07-10T08:22:36Z</time>
      </trkpt>
      <trkpt lat="43.42455" lon="2.17232">
        <ele>685.30999756</ele>
        <time>2022-07-10T08:22:37Z</time>
      </trkpt>
      <trkpt lat="43.42458" lon="2.17231">
        <ele>684.41998291</ele>
        <time>2022-07-10T08:22:38Z</time>
      </trkpt>
      <trkpt lat="43.42462" lon="2.17232">
        <ele>683.72998047</ele>
        <time>2022-07-10T08:22:39Z</time>
      </trkpt>
      <trkpt lat="43.42463" lon="2.17233">
        <ele>683</ele>
        <time>2022-07-10T08:22:40Z</time>
      </trkpt>
      <trkpt lat="43.42467" lon="2.17233">
        <ele>682.59997559</ele>
        <time>2022-07-10T08:22:41Z</time>
      </trkpt>
      <trkpt lat="43.4247" lon="2.17233">
        <ele>682.00994873</ele>
        <time>2022-07-10T08:22:42Z</time>
      </trkpt>
      <trkpt lat="43.42473" lon="2.17233">
        <ele>681.55993652</ele>
        <time>2022-07-10T08:22:43Z</time>
      </trkpt>
      <trkpt lat="43.42475" lon="2.17233">
        <ele>681.12994385</ele>
        <time>2022-07-10T08:22:44Z</time>
      </trkpt>
      <trkpt lat="43.42478" lon="2.17234">
        <ele>680.55993652</ele>
        <time>2022-07-10T08:22:45Z</time>
      </trkpt>
      <trkpt lat="43.42481" lon="2.17234">
        <ele>680.2399292</ele>
        <time>2022-07-10T08:22:46Z</time>
      </trkpt>
      <trkpt lat="43.42484" lon="2.17235">
        <ele>679.65991211</ele>
        <time>2022-07-10T08:22:47Z</time>
      </trkpt>
      <trkpt lat="43.42489" lon="2.17237">
        <ele>679.19989014</ele>
        <time>2022-07-10T08:22:48Z</time>
      </trkpt>
      <trkpt lat="43.42493" lon="2.17237">
        <ele>678.59991455</ele>
        <time>2022-07-10T08:22:49Z</time>
      </trkpt>
      <trkpt lat="43.42496" lon="2.17238">
        <ele>678.05993652</ele>
        <time>2022-07-10T08:22:50Z</time>
      </trkpt>
      <trkpt lat="43.42498" lon="2.17239">
        <ele>677.39996338</ele>
        <time>2022-07-10T08:22:51Z</time>
      </trkpt>
      <trkpt lat="43.42501" lon="2.17241">
        <ele>676.61993408</ele>
        <time>2022-07-10T08:22:52Z</time>
      </trkpt>
      <trkpt lat="43.42505" lon="2.17243">
        <ele>675.79992676</ele>
        <time>2022-07-10T08:22:53Z</time>
      </trkpt>
      <trkpt lat="43.42507" lon="2.17245">
        <ele>675.26989746</ele>
        <time>2022-07-10T08:22:54Z</time>
      </trkpt>
      <trkpt lat="43.4251" lon="2.17246">
        <ele>674.54992676</ele>
        <time>2022-07-10T08:22:55Z</time>
      </trkpt>
      <trkpt lat="43.42512" lon="2.17247">
        <ele>673.97991943</ele>
        <time>2022-07-10T08:22:56Z</time>
      </trkpt>
      <trkpt lat="43.42515" lon="2.17248">
        <ele>673.39990234</ele>
        <time>2022-07-10T08:22:57Z</time>
      </trkpt>
      <trkpt lat="43.42518" lon="2.17247">
        <ele>672.52990723</ele>
        <time>2022-07-10T08:22:58Z</time>
      </trkpt>
      <trkpt lat="43.42519" lon="2.17244">
        <ele>672.02990723</ele>
        <time>2022-07-10T08:22:59Z</time>
      </trkpt>
      <trkpt lat="43.4252" lon="2.17241">
        <ele>671.47991943</ele>
        <time>2022-07-10T08:23:00Z</time>
      </trkpt>
      <trkpt lat="43.42521" lon="2.17237">
        <ele>670.94989014</ele>
        <time>2022-07-10T08:23:01Z</time>
      </trkpt>
      <trkpt lat="43.42521" lon="2.1723">
        <ele>670.42987061</ele>
        <time>2022-07-10T08:23:02Z</time>
      </trkpt>
      <trkpt lat="43.4252" lon="2.17227">
        <ele>669.7298584</ele>
        <time>2022-07-10T08:23:03Z</time>
      </trkpt>
      <trkpt lat="43.4252" lon="2.17224">
        <ele>669.05987549</ele>
        <time>2022-07-10T08:23:04Z</time>
      </trkpt>
      <trkpt lat="43.4252" lon="2.1722">
        <ele>668.38989258</ele>
        <time>2022-07-10T08:23:05Z</time>
      </trkpt>
      <trkpt lat="43.42519" lon="2.17216">
        <ele>667.7598877</ele>
        <time>2022-07-10T08:23:06Z</time>
      </trkpt>
      <trkpt lat="43.4252" lon="2.17212">
        <ele>667.29986572</ele>
        <time>2022-07-10T08:23:07Z</time>
      </trkpt>
      <trkpt lat="43.4252" lon="2.17209">
        <ele>666.7298584</ele>
        <time>2022-07-10T08:23:08Z</time>
      </trkpt>
      <trkpt lat="43.42519" lon="2.17206">
        <ele>665.83984375</ele>
        <time>2022-07-10T08:23:09Z</time>
      </trkpt>
      <trkpt lat="43.42518" lon="2.17203">
        <ele>665.30981445</ele>
        <time>2022-07-10T08:23:10Z</time>
      </trkpt>
      <trkpt lat="43.42516" lon="2.17201">
        <ele>664.7197876</ele>
        <time>2022-07-10T08:23:11Z</time>
      </trkpt>
      <trkpt lat="43.42515" lon="2.17199">
        <ele>664.33978271</ele>
        <time>2022-07-10T08:23:12Z</time>
      </trkpt>
      <trkpt lat="43.42514" lon="2.17196">
        <ele>663.99975586</ele>
        <time>2022-07-10T08:23:13Z</time>
      </trkpt>
      <trkpt lat="43.42513" lon="2.17193">
        <ele>663.38977051</ele>
        <time>2022-07-10T08:23:14Z</time>
      </trkpt>
      <trkpt lat="43.42513" lon="2.17188">
        <ele>662.95977783</ele>
        <time>2022-07-10T08:23:15Z</time>
      </trkpt>
      <trkpt lat="43.42514" lon="2.17186">
        <ele>662.4197998</ele>
        <time>2022-07-10T08:23:16Z</time>
      </trkpt>
      <trkpt lat="43.42514" lon="2.17184">
        <ele>661.64978027</ele>
        <time>2022-07-10T08:23:17Z</time>
      </trkpt>
      <trkpt lat="43.42515" lon="2.17181">
        <ele>660.97979736</ele>
        <time>2022-07-10T08:23:18Z</time>
      </trkpt>
      <trkpt lat="43.42517" lon="2.17179">
        <ele>660.30981445</ele>
        <time>2022-07-10T08:23:19Z</time>
      </trkpt>
      <trkpt lat="43.42519" lon="2.17177">
        <ele>659.99981689</ele>
        <time>2022-07-10T08:23:20Z</time>
      </trkpt>
      <trkpt lat="43.42522" lon="2.17175">
        <ele>659.56982422</ele>
        <time>2022-07-10T08:23:21Z</time>
      </trkpt>
      <trkpt lat="43.42524" lon="2.17173">
        <ele>659.29980469</ele>
        <time>2022-07-10T08:23:22Z</time>
      </trkpt>
      <trkpt lat="43.42527" lon="2.17173">
        <ele>658.6697998</ele>
        <time>2022-07-10T08:23:23Z</time>
      </trkpt>
      <trkpt lat="43.42532" lon="2.17172">
        <ele>657.9498291</ele>
        <time>2022-07-10T08:23:24Z</time>
      </trkpt>
      <trkpt lat="43.42535" lon="2.17172">
        <ele>657.64984131</ele>
        <time>2022-07-10T08:23:25Z</time>
      </trkpt>
      <trkpt lat="43.42537" lon="2.1717">
        <ele>657.18981934</ele>
        <time>2022-07-10T08:23:26Z</time>
      </trkpt>
      <trkpt lat="43.42539" lon="2.17167">
        <ele>657.03979492</ele>
        <time>2022-07-10T08:23:27Z</time>
      </trkpt>
      <trkpt lat="43.42541" lon="2.17164">
        <ele>656.69976807</ele>
        <time>2022-07-10T08:23:28Z</time>
      </trkpt>
      <trkpt lat="43.42542" lon="2.17158">
        <ele>656.41973877</ele>
        <time>2022-07-10T08:23:29Z</time>
      </trkpt>
      <trkpt lat="43.42543" lon="2.17155">
        <ele>656.22973633</ele>
        <time>2022-07-10T08:23:30Z</time>
      </trkpt>
      <trkpt lat="43.42545" lon="2.17151">
        <ele>656.03973389</ele>
        <time>2022-07-10T08:23:31Z</time>
      </trkpt>
      <trkpt lat="43.42545" lon="2.17148">
        <ele>655.92974854</ele>
        <time>2022-07-10T08:23:32Z</time>
      </trkpt>
      <trkpt lat="43.42546" lon="2.17141">
        <ele>655.72973633</ele>
        <time>2022-07-10T08:23:33Z</time>
      </trkpt>
      <trkpt lat="43.42545" lon="2.17137">
        <ele>655.44970703</ele>
        <time>2022-07-10T08:23:34Z</time>
      </trkpt>
      <trkpt lat="43.42544" lon="2.17133">
        <ele>654.93969727</ele>
        <time>2022-07-10T08:23:35Z</time>
      </trkpt>
      <trkpt lat="43.42543" lon="2.17129">
        <ele>654.30969238</ele>
        <time>2022-07-10T08:23:36Z</time>
      </trkpt>
      <trkpt lat="43.42542" lon="2.17125">
        <ele>653.6796875</ele>
        <time>2022-07-10T08:23:37Z</time>
      </trkpt>
      <trkpt lat="43.42542" lon="2.17119">
        <ele>653.1796875</ele>
        <time>2022-07-10T08:23:38Z</time>
      </trkpt>
      <trkpt lat="43.42542" lon="2.17115">
        <ele>652.88970947</ele>
        <time>2022-07-10T08:23:39Z</time>
      </trkpt>
      <trkpt lat="43.42543" lon="2.17111">
        <ele>652.75970459</ele>
        <time>2022-07-10T08:23:40Z</time>
      </trkpt>
      <trkpt lat="43.42544" lon="2.17108">
        <ele>652.61968994</ele>
        <time>2022-07-10T08:23:41Z</time>
      </trkpt>
      <trkpt lat="43.42547" lon="2.17105">
        <ele>652.43969727</ele>
        <time>2022-07-10T08:23:42Z</time>
      </trkpt>
      <trkpt lat="43.4255" lon="2.17105">
        <ele>652.29968262</ele>
        <time>2022-07-10T08:23:43Z</time>
      </trkpt>
      <trkpt lat="43.42553" lon="2.17106">
        <ele>652.04968262</ele>
        <time>2022-07-10T08:23:44Z</time>
      </trkpt>
      <trkpt lat="43.42556" lon="2.17107">
        <ele>651.81970215</ele>
        <time>2022-07-10T08:23:45Z</time>
      </trkpt>
      <trkpt lat="43.42559" lon="2.17106">
        <ele>651.6796875</ele>
        <time>2022-07-10T08:23:46Z</time>
      </trkpt>
      <trkpt lat="43.42563" lon="2.17105">
        <ele>651.57971191</ele>
        <time>2022-07-10T08:23:47Z</time>
      </trkpt>
      <trkpt lat="43.42565" lon="2.17104">
        <ele>651.53973389</ele>
        <time>2022-07-10T08:23:48Z</time>
      </trkpt>
      <trkpt lat="43.42567" lon="2.17104">
        <ele>651.55975342</ele>
        <time>2022-07-10T08:23:49Z</time>
      </trkpt>
      <trkpt lat="43.4257" lon="2.17104">
        <ele>651.56976318</ele>
        <time>2022-07-10T08:23:50Z</time>
      </trkpt>
      <trkpt lat="43.42575" lon="2.17104">
        <ele>651.50976562</ele>
        <time>2022-07-10T08:23:51Z</time>
      </trkpt>
      <trkpt lat="43.42577" lon="2.17103">
        <ele>651.4697876</ele>
        <time>2022-07-10T08:23:52Z</time>
      </trkpt>
      <trkpt lat="43.4258" lon="2.17102">
        <ele>651.39978027</ele>
        <time>2022-07-10T08:23:53Z</time>
      </trkpt>
      <trkpt lat="43.42583" lon="2.171">
        <ele>651.32977295</ele>
        <time>2022-07-10T08:23:54Z</time>
      </trkpt>
      <trkpt lat="43.42587" lon="2.17098">
        <ele>651.35980225</ele>
        <time>2022-07-10T08:23:55Z</time>
      </trkpt>
      <trkpt lat="43.4259" lon="2.17097">
        <ele>651.40979004</ele>
        <time>2022-07-10T08:23:56Z</time>
      </trkpt>
      <trkpt lat="43.42594" lon="2.17096">
        <ele>651.54980469</ele>
        <time>2022-07-10T08:23:57Z</time>
      </trkpt>
      <trkpt lat="43.42597" lon="2.17096">
        <ele>651.7197876</ele>
        <time>2022-07-10T08:23:58Z</time>
      </trkpt>
      <trkpt lat="43.426" lon="2.17095">
        <ele>651.92980957</ele>
        <time>2022-07-10T08:23:59Z</time>
      </trkpt>
      <trkpt lat="43.42605" lon="2.17093">
        <ele>652.17980957</ele>
        <time>2022-07-10T08:24:00Z</time>
      </trkpt>
      <trkpt lat="43.42608" lon="2.17092">
        <ele>652.37982178</ele>
        <time>2022-07-10T08:24:01Z</time>
      </trkpt>
      <trkpt lat="43.42611" lon="2.1709">
        <ele>652.56982422</ele>
        <time>2022-07-10T08:24:02Z</time>
      </trkpt>
      <trkpt lat="43.42614" lon="2.17088">
        <ele>652.76983643</ele>
        <time>2022-07-10T08:24:03Z</time>
      </trkpt>
      <trkpt lat="43.42618" lon="2.17086">
        <ele>652.95983887</ele>
        <time>2022-07-10T08:24:04Z</time>
      </trkpt>
      <trkpt lat="43.42621" lon="2.17085">
        <ele>653.12982178</ele>
        <time>2022-07-10T08:24:05Z</time>
      </trkpt>
      <trkpt lat="43.42623" lon="2.17085">
        <ele>653.34979248</ele>
        <time>2022-07-10T08:24:06Z</time>
      </trkpt>
      <trkpt lat="43.42625" lon="2.17086">
        <ele>653.51977539</ele>
        <time>2022-07-10T08:24:07Z</time>
      </trkpt>
      <trkpt lat="43.42627" lon="2.17085">
        <ele>653.70977783</ele>
        <time>2022-07-10T08:24:08Z</time>
      </trkpt>
      <trkpt lat="43.42631" lon="2.17084">
        <ele>653.9397583</ele>
        <time>2022-07-10T08:24:09Z</time>
      </trkpt>
      <trkpt lat="43.42634" lon="2.17083">
        <ele>654.17974854</ele>
        <time>2022-07-10T08:24:10Z</time>
      </trkpt>
      <trkpt lat="43.42637" lon="2.17083">
        <ele>654.39971924</ele>
        <time>2022-07-10T08:24:11Z</time>
      </trkpt>
      <trkpt lat="43.4264" lon="2.17083">
        <ele>654.59973145</ele>
        <time>2022-07-10T08:24:12Z</time>
      </trkpt>
      <trkpt lat="43.42645" lon="2.17083">
        <ele>654.83972168</ele>
        <time>2022-07-10T08:24:13Z</time>
      </trkpt>
      <trkpt lat="43.42648" lon="2.17083">
        <ele>655.07971191</ele>
        <time>2022-07-10T08:24:14Z</time>
      </trkpt>
      <trkpt lat="43.42652" lon="2.17083">
        <ele>655.33972168</ele>
        <time>2022-07-10T08:24:15Z</time>
      </trkpt>
      <trkpt lat="43.42656" lon="2.17083">
        <ele>655.58972168</ele>
        <time>2022-07-10T08:24:16Z</time>
      </trkpt>
      <trkpt lat="43.4266" lon="2.17083">
        <ele>655.78973389</ele>
        <time>2022-07-10T08:24:17Z</time>
      </trkpt>
      <trkpt lat="43.42665" lon="2.17083">
        <ele>655.97973633</ele>
        <time>2022-07-10T08:24:18Z</time>
      </trkpt>
      <trkpt lat="43.42669" lon="2.17082">
        <ele>656.22973633</ele>
        <time>2022-07-10T08:24:19Z</time>
      </trkpt>
      <trkpt lat="43.42672" lon="2.17081">
        <ele>656.409729</ele>
        <time>2022-07-10T08:24:20Z</time>
      </trkpt>
      <trkpt lat="43.42675" lon="2.1708">
        <ele>656.62969971</ele>
        <time>2022-07-10T08:24:21Z</time>
      </trkpt>
      <trkpt lat="43.42678" lon="2.17079">
        <ele>656.79968262</ele>
        <time>2022-07-10T08:24:22Z</time>
      </trkpt>
      <trkpt lat="43.42682" lon="2.17077">
        <ele>656.91967773</ele>
        <time>2022-07-10T08:24:23Z</time>
      </trkpt>
      <trkpt lat="43.42685" lon="2.17075">
        <ele>657.08966064</ele>
        <time>2022-07-10T08:24:24Z</time>
      </trkpt>
      <trkpt lat="43.42687" lon="2.17073">
        <ele>657.18963623</ele>
        <time>2022-07-10T08:24:25Z</time>
      </trkpt>
      <trkpt lat="43.4269" lon="2.1707">
        <ele>657.24963379</ele>
        <time>2022-07-10T08:24:26Z</time>
      </trkpt>
      <trkpt lat="43.42694" lon="2.17066">
        <ele>657.34960938</ele>
        <time>2022-07-10T08:24:27Z</time>
      </trkpt>
      <trkpt lat="43.42696" lon="2.17063">
        <ele>657.43963623</ele>
        <time>2022-07-10T08:24:28Z</time>
      </trkpt>
      <trkpt lat="43.42699" lon="2.17061">
        <ele>657.61962891</ele>
        <time>2022-07-10T08:24:29Z</time>
      </trkpt>
      <trkpt lat="43.42701" lon="2.17059">
        <ele>657.83959961</ele>
        <time>2022-07-10T08:24:30Z</time>
      </trkpt>
      <trkpt lat="43.42703" lon="2.17057">
        <ele>658.04962158</ele>
        <time>2022-07-10T08:24:31Z</time>
      </trkpt>
      <trkpt lat="43.42706" lon="2.17052">
        <ele>658.24963379</ele>
        <time>2022-07-10T08:24:32Z</time>
      </trkpt>
      <trkpt lat="43.42709" lon="2.17049">
        <ele>658.38964844</ele>
        <time>2022-07-10T08:24:33Z</time>
      </trkpt>
      <trkpt lat="43.42711" lon="2.17046">
        <ele>658.62963867</ele>
        <time>2022-07-10T08:24:34Z</time>
      </trkpt>
      <trkpt lat="43.42713" lon="2.17044">
        <ele>658.62963867</ele>
        <time>2022-07-10T08:24:35Z</time>
      </trkpt>
      <trkpt lat="43.42718" lon="2.17037">
        <ele>658.90960693</ele>
        <time>2022-07-10T08:24:37Z</time>
      </trkpt>
      <trkpt lat="43.42723" lon="2.17032">
        <ele>659.32958984</ele>
        <time>2022-07-10T08:24:39Z</time>
      </trkpt>
      <trkpt lat="43.42729" lon="2.17027">
        <ele>659.83959961</ele>
        <time>2022-07-10T08:24:41Z</time>
      </trkpt>
      <trkpt lat="43.42734" lon="2.17024">
        <ele>660.17956543</ele>
        <time>2022-07-10T08:24:43Z</time>
      </trkpt>
      <trkpt lat="43.4278" lon="2.16976">
        <ele>652.7</ele>
      </trkpt>
      <trkpt lat="43.42851" lon="2.16886">
        <ele>657.1</ele>
      </trkpt>
      <trkpt lat="43.42908" lon="2.16748">
        <ele>661</ele>
      </trkpt>
      <trkpt lat="43.42935" lon="2.16656">
        <ele>660.4</ele>
      </trkpt>
      <trkpt lat="43.42999" lon="2.16611">
        <ele>660.9</ele>
      </trkpt>
      <trkpt lat="43.43039" lon="2.16577">
        <ele>661.2</ele>
      </trkpt>
      <trkpt lat="43.43122" lon="2.16529">
        <ele>654</ele>
      </trkpt>
      <trkpt lat="43.43226" lon="2.16553">
        <ele>647.3</ele>
      </trkpt>
      <trkpt lat="43.43334" lon="2.16538">
        <ele>653.1</ele>
      </trkpt>
      <trkpt lat="43.43393" lon="2.16542">
        <ele>654.1</ele>
      </trkpt>
      <trkpt lat="43.43447" lon="2.16613">
        <ele>662.1</ele>
      </trkpt>
      <trkpt lat="43.43563" lon="2.16594">
        <ele>654.7</ele>
      </trkpt>
      <trkpt lat="43.43669" lon="2.16547">
        <ele>657.5</ele>
      </trkpt>
      <trkpt lat="43.43743" lon="2.16525">
        <ele>656.2</ele>
      </trkpt>
      <trkpt lat="43.4377" lon="2.16508">
        <ele>656.7</ele>
      </trkpt>
      <trkpt lat="43.43848" lon="2.16512">
        <ele>660.7</ele>
      </trkpt>
      <trkpt lat="43.4388" lon="2.16507">
        <ele>661</ele>
      </trkpt>
      <trkpt lat="43.43915" lon="2.16491">
        <ele>661</ele>
      </trkpt>
      <trkpt lat="43.43962" lon="2.16493">
        <ele>664.4</ele>
      </trkpt>
      <trkpt lat="43.44" lon="2.16498">
        <ele>668</ele>
      </trkpt>
      <trkpt lat="43.44033" lon="2.16525">
        <ele>670.6</ele>
      </trkpt>
      <trkpt lat="43.44053" lon="2.16582">
        <ele>670.9</ele>
      </trkpt>
      <trkpt lat="43.44068" lon="2.16627">
        <ele>671.2</ele>
      </trkpt>
      <trkpt lat="43.44081" lon="2.16667">
        <ele>671.7</ele>
      </trkpt>
      <trkpt lat="43.44113" lon="2.16698">
        <ele>673.2</ele>
      </trkpt>
      <trkpt lat="43.4414" lon="2.16732">
        <ele>674.4</ele>
      </trkpt>
      <trkpt lat="43.44156" lon="2.16758">
        <ele>674.7</ele>
      </trkpt>
      <trkpt lat="43.4417" lon="2.16806">
        <ele>674.1</ele>
      </trkpt>
      <trkpt lat="43.44216" lon="2.16835">
        <ele>675.5</ele>
      </trkpt>
      <trkpt lat="43.44237" lon="2.16842">
        <ele>676.7</ele>
      </trkpt>
      <trkpt lat="43.44266" lon="2.16859">
        <ele>678.8</ele>
      </trkpt>
      <trkpt lat="43.44292" lon="2.16878">
        <ele>679.8</ele>
      </trkpt>
      <trkpt lat="43.44311" lon="2.1689">
        <ele>680.1</ele>
      </trkpt>
      <trkpt lat="43.44321" lon="2.16892">
        <ele>680.4</ele>
      </trkpt>
      <trkpt lat="43.44334" lon="2.16885">
        <ele>681.2</ele>
      </trkpt>
      <trkpt lat="43.44342" lon="2.16873">
        <ele>681.9</ele>
      </trkpt>
      <trkpt lat="43.44355" lon="2.16873">
        <ele>682.4</ele>
      </trkpt>
      <trkpt lat="43.4436" lon="2.16887">
        <ele>682</ele>
      </trkpt>
      <trkpt lat="43.44358" lon="2.16906">
        <ele>681.3</ele>
      </trkpt>
      <trkpt lat="43.44354" lon="2.16934">
        <ele>680.6</ele>
      </trkpt>
      <trkpt lat="43.44356" lon="2.16946">
        <ele>680.6</ele>
      </trkpt>
      <trkpt lat="43.44373" lon="2.16949">
        <ele>681.5</ele>
      </trkpt>
      <trkpt lat="43.44406" lon="2.16962">
        <ele>682.6</ele>
      </trkpt>
      <trkpt lat="43.44426" lon="2.16977">
        <ele>682.9</ele>
      </trkpt>
      <trkpt lat="43.44457" lon="2.17004">
        <ele>684.4</ele>
      </trkpt>
      <trkpt lat="43.44498" lon="2.17023">
        <ele>685.7</ele>
      </trkpt>
      <trkpt lat="43.44531" lon="2.1702">
        <ele>689.4</ele>
      </trkpt>
      <trkpt lat="43.44567" lon="2.17021">
        <ele>691.2</ele>
      </trkpt>
      <trkpt lat="43.44592" lon="2.1702">
        <ele>692.5</ele>
      </trkpt>
      <trkpt lat="43.44624" lon="2.17048">
        <ele>691.8</ele>
      </trkpt>
      <trkpt lat="43.44653" lon="2.17077">
        <ele>691.5</ele>
      </trkpt>
      <trkpt lat="43.44682" lon="2.17098">
        <ele>691.5</ele>
      </trkpt>
      <trkpt lat="43.44691" lon="2.17123">
        <ele>690.1</ele>
      </trkpt>
      <trkpt lat="43.44731" lon="2.17096">
        <ele>694.7</ele>
      </trkpt>
      <trkpt lat="43.44754" lon="2.17062">
        <ele>699.2</ele>
      </trkpt>
      <trkpt lat="43.44786" lon="2.17044">
        <ele>703.4</ele>
      </trkpt>
      <trkpt lat="43.44823" lon="2.16998">
        <ele>704.7</ele>
      </trkpt>
      <trkpt lat="43.4485" lon="2.16985">
        <ele>705.3</ele>
      </trkpt>
      <trkpt lat="43.44888" lon="2.17007">
        <ele>706.2</ele>
      </trkpt>
      <trkpt lat="43.44911" lon="2.17015">
        <ele>707.8</ele>
      </trkpt>
      <trkpt lat="43.44917" lon="2.17052">
        <ele>711.7</ele>
      </trkpt>
      <trkpt lat="43.44911" lon="2.17103">
        <ele>713.5</ele>
      </trkpt>
      <trkpt lat="43.44944" lon="2.17123">
        <ele>714.7</ele>
      </trkpt>
      <trkpt lat="43.44982" lon="2.1714">
        <ele>714.2</ele>
      </trkpt>
      <trkpt lat="43.45008" lon="2.1714">
        <ele>714.9</ele>
      </trkpt>
      <trkpt lat="43.45031" lon="2.17121">
        <ele>716.9</ele>
      </trkpt>
      <trkpt lat="43.45058" lon="2.17003">
        <ele>722.6</ele>
      </trkpt>
      <trkpt lat="43.45068" lon="2.16969">
        <ele>723</ele>
      </trkpt>
      <trkpt lat="43.45075" lon="2.16933">
        <ele>725.7</ele>
      </trkpt>
      <trkpt lat="43.45122" lon="2.1691">
        <ele>725.6</ele>
      </trkpt>
      <trkpt lat="43.45181" lon="2.16867">
        <ele>732.2</ele>
      </trkpt>
      <trkpt lat="43.45104" lon="2.1687">
        <ele>731.7</ele>
      </trkpt>
      <trkpt lat="43.45062" lon="2.16848">
        <ele>732.3</ele>
      </trkpt>
      <trkpt lat="43.45033" lon="2.16848">
        <ele>729.9</ele>
      </trkpt>
      <trkpt lat="43.45023" lon="2.16839">
        <ele>729.2</ele>
      </trkpt>
      <trkpt lat="43.45007" lon="2.16837">
        <ele>726.9</ele>
      </trkpt>
      <trkpt lat="43.44995" lon="2.16782">
        <ele>724.4</ele>
      </trkpt>
      <trkpt lat="43.44994" lon="2.16752">
        <ele>722.5</ele>
      </trkpt>
      <trkpt lat="43.45016" lon="2.1671">
        <ele>724.3</ele>
      </trkpt>
      <trkpt lat="43.45021" lon="2.16656">
        <ele>727.4</ele>
      </trkpt>
      <trkpt lat="43.44979" lon="2.16624">
        <ele>728.5</ele>
      </trkpt>
      <trkpt lat="43.44725" lon="2.16525">
        <ele>737</ele>
      </trkpt>
      <trkpt lat="43.44628" lon="2.16514">
        <ele>733.9</ele>
      </trkpt>
      <trkpt lat="43.44569" lon="2.16491">
        <ele>722.8</ele>
      </trkpt>
      <trkpt lat="43.44515" lon="2.16517">
        <ele>713.9</ele>
      </trkpt>
      <trkpt lat="43.44468" lon="2.16553">
        <ele>708.7</ele>
      </trkpt>
      <trkpt lat="43.44406" lon="2.16536">
        <ele>706</ele>
      </trkpt>
      <trkpt lat="43.44346" lon="2.16514">
        <ele>705.5</ele>
      </trkpt>
      <trkpt lat="43.44276" lon="2.16549">
        <ele>702.1</ele>
      </trkpt>
      <trkpt lat="43.44223" lon="2.16555">
        <ele>697.1</ele>
      </trkpt>
      <trkpt lat="43.44181" lon="2.16566">
        <ele>691.4</ele>
      </trkpt>
      <trkpt lat="43.44152" lon="2.16542">
        <ele>687.3</ele>
      </trkpt>
      <trkpt lat="43.44113" lon="2.16542">
        <ele>680.3</ele>
      </trkpt>
      <trkpt lat="43.44055" lon="2.16583">
        <ele>671</ele>
      </trkpt>
      <trkpt lat="43.44035" lon="2.16547">
        <ele>670.1</ele>
      </trkpt>
      <trkpt lat="43.44005" lon="2.16497">
        <ele>668.4</ele>
      </trkpt>
      <trkpt lat="43.43913" lon="2.16504">
        <ele>661.1</ele>
      </trkpt>
      <trkpt lat="43.43829" lon="2.16514">
        <ele>660.2</ele>
      </trkpt>
      <trkpt lat="43.43773" lon="2.16508">
        <ele>656.8</ele>
      </trkpt>
      <trkpt lat="43.43705" lon="2.16542">
        <ele>658.4</ele>
      </trkpt>
      <trkpt lat="43.43647" lon="2.16552">
        <ele>656.4</ele>
      </trkpt>
      <trkpt lat="43.43564" lon="2.16599">
        <ele>655.4</ele>
      </trkpt>
      <trkpt lat="43.43479" lon="2.16609">
        <ele>657.9</ele>
      </trkpt>
      <trkpt lat="43.4343" lon="2.16595">
        <ele>660.4</ele>
      </trkpt>
      <trkpt lat="43.43397" lon="2.16562">
        <ele>657</ele>
      </trkpt>
      <trkpt lat="43.43352" lon="2.16536">
        <ele>653.1</ele>
      </trkpt>
      <trkpt lat="43.43296" lon="2.16544">
        <ele>652.3</ele>
      </trkpt>
      <trkpt lat="43.43282" lon="2.16569">
        <ele>653.4</ele>
      </trkpt>
      <trkpt lat="43.43294" lon="2.16636">
        <ele>657.2</ele>
      </trkpt>
      <trkpt lat="43.43295" lon="2.16748">
        <ele>655.5</ele>
      </trkpt>
      <trkpt lat="43.43274" lon="2.16816">
        <ele>654.1</ele>
      </trkpt>
      <trkpt lat="43.43214" lon="2.1692">
        <ele>656</ele>
      </trkpt>
      <trkpt lat="43.43086" lon="2.17206">
        <ele>661.7</ele>
      </trkpt>
      <trkpt lat="43.43123" lon="2.17258">
        <ele>664.6</ele>
      </trkpt>
      <trkpt lat="43.43145" lon="2.17301">
        <ele>667.2</ele>
      </trkpt>
      <trkpt lat="43.43164" lon="2.17334">
        <ele>669.8</ele>
      </trkpt>
      <trkpt lat="43.43172" lon="2.17352">
        <ele>670.9</ele>
      </trkpt>
      <trkpt lat="43.43195" lon="2.17403">
        <ele>674.5</ele>
      </trkpt>
      <trkpt lat="43.43227" lon="2.17466">
        <ele>677.1</ele>
      </trkpt>
      <trkpt lat="43.4328" lon="2.17597">
        <ele>679.6</ele>
      </trkpt>
      <trkpt lat="43.43341" lon="2.17717">
        <ele>677.1</ele>
      </trkpt>
      <trkpt lat="43.43394" lon="2.17823">
        <ele>675</ele>
      </trkpt>
      <trkpt lat="43.43443" lon="2.1791">
        <ele>669.8</ele>
      </trkpt>
      <trkpt lat="43.43475" lon="2.1796">
        <ele>663</ele>
      </trkpt>
      <trkpt lat="43.43526" lon="2.17983">
        <ele>661.8</ele>
      </trkpt>
      <trkpt lat="43.43549" lon="2.17997">
        <ele>661.8</ele>
      </trkpt>
      <trkpt lat="43.43561" lon="2.18077">
        <ele>661.9</ele>
      </trkpt>
      <trkpt lat="43.43603" lon="2.18207">
        <ele>673.2</ele>
      </trkpt>
      <trkpt lat="43.43637" lon="2.18343">
        <ele>677.7</ele>
      </trkpt>
      <trkpt lat="43.43687" lon="2.18437">
        <ele>675.2</ele>
      </trkpt>
      <trkpt lat="43.43725" lon="2.18534">
        <ele>674.5</ele>
      </trkpt>
      <trkpt lat="43.43776" lon="2.1858">
        <ele>671.6</ele>
      </trkpt>
      <trkpt lat="43.4382" lon="2.18612">
        <ele>670</ele>
      </trkpt>
      <trkpt lat="43.43845" lon="2.18625">
        <ele>670.3</ele>
      </trkpt>
      <trkpt lat="43.43859" lon="2.18662">
        <ele>671.8</ele>
      </trkpt>
      <trkpt lat="43.43881" lon="2.18717">
        <ele>675.3</ele>
      </trkpt>
      <trkpt lat="43.43898" lon="2.18766">
        <ele>677.2</ele>
      </trkpt>
      <trkpt lat="43.43901" lon="2.1882">
        <ele>678.5</ele>
      </trkpt>
      <trkpt lat="43.43895" lon="2.1888">
        <ele>680.5</ele>
      </trkpt>
      <trkpt lat="43.43923" lon="2.18937">
        <ele>684.6</ele>
      </trkpt>
      <trkpt lat="43.43957" lon="2.18984">
        <ele>688.7</ele>
      </trkpt>
      <trkpt lat="43.43983" lon="2.19055">
        <ele>695.2</ele>
      </trkpt>
      <trkpt lat="43.43992" lon="2.19123">
        <ele>701.2</ele>
      </trkpt>
      <trkpt lat="43.44" lon="2.19217">
        <ele>708.6</ele>
      </trkpt>
      <trkpt lat="43.44008" lon="2.19288">
        <ele>714.4</ele>
      </trkpt>
      <trkpt lat="43.44014" lon="2.19408">
        <ele>718.5</ele>
      </trkpt>
      <trkpt lat="43.43969" lon="2.19412">
        <ele>720.7</ele>
      </trkpt>
      <trkpt lat="43.43909" lon="2.19439">
        <ele>723.9</ele>
      </trkpt>
      <trkpt lat="43.43819" lon="2.19455">
        <ele>732.8</ele>
      </trkpt>
      <trkpt lat="43.43764" lon="2.19434">
        <ele>733.7</ele>
      </trkpt>
      <trkpt lat="43.43691" lon="2.19402">
        <ele>739.2</ele>
      </trkpt>
      <trkpt lat="43.43609" lon="2.19406">
        <ele>745.6</ele>
      </trkpt>
      <trkpt lat="43.43536" lon="2.19471">
        <ele>754.4</ele>
      </trkpt>
      <trkpt lat="43.43499" lon="2.19511">
        <ele>758.8</ele>
      </trkpt>
      <trkpt lat="43.43487" lon="2.19528">
        <ele>760.7</ele>
      </trkpt>
      <trkpt lat="43.43453" lon="2.19554">
        <ele>764.7</ele>
      </trkpt>
      <trkpt lat="43.43414" lon="2.19547">
        <ele>765.6</ele>
      </trkpt>
      <trkpt lat="43.4338" lon="2.19555">
        <ele>767.6</ele>
      </trkpt>
      <trkpt lat="43.43352" lon="2.19582">
        <ele>770.4</ele>
      </trkpt>
      <trkpt lat="43.43342" lon="2.19598">
        <ele>770.8</ele>
      </trkpt>
      <trkpt lat="43.43341" lon="2.19632">
        <ele>774.3</ele>
      </trkpt>
      <trkpt lat="43.43338" lon="2.19718">
        <ele>782</ele>
      </trkpt>
      <trkpt lat="43.43322" lon="2.19809">
        <ele>788.9</ele>
      </trkpt>
      <trkpt lat="43.43317" lon="2.19849">
        <ele>791.4</ele>
      </trkpt>
      <trkpt lat="43.43304" lon="2.19893">
        <ele>793.2</ele>
      </trkpt>
      <trkpt lat="43.43288" lon="2.19918">
        <ele>793.7</ele>
      </trkpt>
      <trkpt lat="43.43257" lon="2.19938">
        <ele>793.8</ele>
      </trkpt>
      <trkpt lat="43.43212" lon="2.19962">
        <ele>796.4</ele>
      </trkpt>
      <trkpt lat="43.43188" lon="2.19972">
        <ele>798.5</ele>
      </trkpt>
      <trkpt lat="43.43156" lon="2.19992">
        <ele>797.69897461</ele>
        <time>2022-07-10T08:50:30Z</time>
      </trkpt>
      <trkpt lat="43.43146" lon="2.19994">
        <ele>797.66894531</ele>
        <time>2022-07-10T08:54:21Z</time>
      </trkpt>
      <trkpt lat="43.43144" lon="2.19997">
        <ele>797.61895752</ele>
        <time>2022-07-10T08:54:23Z</time>
      </trkpt>
      <trkpt lat="43.43143" lon="2.19998">
        <ele>797.61895752</ele>
        <time>2022-07-10T08:54:24Z</time>
      </trkpt>
      <trkpt lat="43.43141" lon="2.20002">
        <ele>798.12896729</ele>
        <time>2022-07-10T08:54:35Z</time>
      </trkpt>
      <trkpt lat="43.43138" lon="2.20004">
        <ele>798.12896729</ele>
        <time>2022-07-10T08:54:36Z</time>
      </trkpt>
      <trkpt lat="43.43137" lon="2.20005">
        <ele>798.2489624</ele>
        <time>2022-07-10T08:54:37Z</time>
      </trkpt>
      <trkpt lat="43.43135" lon="2.20006">
        <ele>798.38897705</ele>
        <time>2022-07-10T08:54:38Z</time>
      </trkpt>
      <trkpt lat="43.43134" lon="2.20007">
        <ele>798.48895264</ele>
        <time>2022-07-10T08:54:39Z</time>
      </trkpt>
      <trkpt lat="43.43133" lon="2.20009">
        <ele>798.61895752</ele>
        <time>2022-07-10T08:54:40Z</time>
      </trkpt>
      <trkpt lat="43.4313" lon="2.2001">
        <ele>798.70898438</ele>
        <time>2022-07-10T08:54:41Z</time>
      </trkpt>
      <trkpt lat="43.43129" lon="2.20011">
        <ele>798.76898193</ele>
        <time>2022-07-10T08:54:42Z</time>
      </trkpt>
      <trkpt lat="43.43127" lon="2.20012">
        <ele>798.84899902</ele>
        <time>2022-07-10T08:54:43Z</time>
      </trkpt>
      <trkpt lat="43.43126" lon="2.20013">
        <ele>798.93902588</ele>
        <time>2022-07-10T08:54:44Z</time>
      </trkpt>
      <trkpt lat="43.43123" lon="2.20015">
        <ele>799.03900146</ele>
        <time>2022-07-10T08:54:45Z</time>
      </trkpt>
      <trkpt lat="43.43122" lon="2.20017">
        <ele>799.13897705</ele>
        <time>2022-07-10T08:54:46Z</time>
      </trkpt>
      <trkpt lat="43.43121" lon="2.20019">
        <ele>799.2989502</ele>
        <time>2022-07-10T08:54:47Z</time>
      </trkpt>
      <trkpt lat="43.43119" lon="2.20021">
        <ele>799.44897461</ele>
        <time>2022-07-10T08:54:48Z</time>
      </trkpt>
      <trkpt lat="43.43117" lon="2.20021">
        <ele>799.58898926</ele>
        <time>2022-07-10T08:54:49Z</time>
      </trkpt>
      <trkpt lat="43.43115" lon="2.20022">
        <ele>799.76898193</ele>
        <time>2022-07-10T08:54:50Z</time>
      </trkpt>
      <trkpt lat="43.43114" lon="2.20023">
        <ele>799.88897705</ele>
        <time>2022-07-10T08:54:51Z</time>
      </trkpt>
      <trkpt lat="43.43113" lon="2.20025">
        <ele>800.06896973</ele>
        <time>2022-07-10T08:54:52Z</time>
      </trkpt>
      <trkpt lat="43.43112" lon="2.20026">
        <ele>800.22894287</ele>
        <time>2022-07-10T08:54:53Z</time>
      </trkpt>
      <trkpt lat="43.43109" lon="2.20028">
        <ele>800.39892578</ele>
        <time>2022-07-10T08:54:54Z</time>
      </trkpt>
      <trkpt lat="43.43108" lon="2.20029">
        <ele>800.5189209</ele>
        <time>2022-07-10T08:54:55Z</time>
      </trkpt>
      <trkpt lat="43.43106" lon="2.2003">
        <ele>800.70892334</ele>
        <time>2022-07-10T08:54:56Z</time>
      </trkpt>
      <trkpt lat="43.43105" lon="2.20031">
        <ele>800.82891846</ele>
        <time>2022-07-10T08:54:57Z</time>
      </trkpt>
      <trkpt lat="43.43103" lon="2.20033">
        <ele>800.9888916</ele>
        <time>2022-07-10T08:54:58Z</time>
      </trkpt>
      <trkpt lat="43.43102" lon="2.20034">
        <ele>801.17889404</ele>
        <time>2022-07-10T08:54:59Z</time>
      </trkpt>
      <trkpt lat="43.43101" lon="2.20035">
        <ele>801.31890869</ele>
        <time>2022-07-10T08:55:00Z</time>
      </trkpt>
      <trkpt lat="43.43099" lon="2.20037">
        <ele>801.5189209</ele>
        <time>2022-07-10T08:55:01Z</time>
      </trkpt>
      <trkpt lat="43.43098" lon="2.20039">
        <ele>801.77893066</ele>
        <time>2022-07-10T08:55:02Z</time>
      </trkpt>
      <trkpt lat="43.43098" lon="2.20041">
        <ele>802.03894043</ele>
        <time>2022-07-10T08:55:03Z</time>
      </trkpt>
      <trkpt lat="43.43096" lon="2.20044">
        <ele>802.21893311</ele>
        <time>2022-07-10T08:55:04Z</time>
      </trkpt>
      <trkpt lat="43.43094" lon="2.20047">
        <ele>802.42895508</ele>
        <time>2022-07-10T08:55:05Z</time>
      </trkpt>
      <trkpt lat="43.43093" lon="2.20048">
        <ele>802.4989624</ele>
        <time>2022-07-10T08:55:06Z</time>
      </trkpt>
      <trkpt lat="43.43091" lon="2.2005">
        <ele>802.70898438</ele>
        <time>2022-07-10T08:55:07Z</time>
      </trkpt>
      <trkpt lat="43.43089" lon="2.2005">
        <ele>802.96899414</ele>
        <time>2022-07-10T08:55:08Z</time>
      </trkpt>
      <trkpt lat="43.43088" lon="2.20052">
        <ele>803.15899658</ele>
        <time>2022-07-10T08:55:09Z</time>
      </trkpt>
      <trkpt lat="43.43087" lon="2.20052">
        <ele>803.45898438</ele>
        <time>2022-07-10T08:55:10Z</time>
      </trkpt>
      <trkpt lat="43.43086" lon="2.20054">
        <ele>803.62896729</ele>
        <time>2022-07-10T08:55:11Z</time>
      </trkpt>
      <trkpt lat="43.43085" lon="2.20057">
        <ele>803.82897949</ele>
        <time>2022-07-10T08:55:12Z</time>
      </trkpt>
      <trkpt lat="43.43084" lon="2.20059">
        <ele>804.05895996</ele>
        <time>2022-07-10T08:55:13Z</time>
      </trkpt>
      <trkpt lat="43.43083" lon="2.20061">
        <ele>804.25897217</ele>
        <time>2022-07-10T08:55:14Z</time>
      </trkpt>
      <trkpt lat="43.43082" lon="2.20062">
        <ele>804.50897217</ele>
        <time>2022-07-10T08:55:15Z</time>
      </trkpt>
      <trkpt lat="43.43081" lon="2.20064">
        <ele>804.70898438</ele>
        <time>2022-07-10T08:55:16Z</time>
      </trkpt>
      <trkpt lat="43.4308" lon="2.20066">
        <ele>804.91900635</ele>
        <time>2022-07-10T08:55:17Z</time>
      </trkpt>
      <trkpt lat="43.43079" lon="2.20069">
        <ele>805.18902588</ele>
        <time>2022-07-10T08:55:18Z</time>
      </trkpt>
      <trkpt lat="43.43078" lon="2.20073">
        <ele>805.39904785</ele>
        <time>2022-07-10T08:55:19Z</time>
      </trkpt>
      <trkpt lat="43.43078" lon="2.20076">
        <ele>805.5090332</ele>
        <time>2022-07-10T08:55:20Z</time>
      </trkpt>
      <trkpt lat="43.43075" lon="2.20079">
        <ele>805.68902588</ele>
        <time>2022-07-10T08:55:21Z</time>
      </trkpt>
      <trkpt lat="43.43073" lon="2.20082">
        <ele>805.68902588</ele>
        <time>2022-07-10T08:55:22Z</time>
      </trkpt>
      <trkpt lat="43.43072" lon="2.20085">
        <ele>805.94903564</ele>
        <time>2022-07-10T08:55:23Z</time>
      </trkpt>
      <trkpt lat="43.4307" lon="2.20087">
        <ele>806.94903564</ele>
        <time>2022-07-10T08:55:24Z</time>
      </trkpt>
      <trkpt lat="43.43069" lon="2.20089">
        <ele>807.91900635</ele>
        <time>2022-07-10T08:55:25Z</time>
      </trkpt>
      <trkpt lat="43.43066" lon="2.20093">
        <ele>808.7789917</ele>
        <time>2022-07-10T08:55:26Z</time>
      </trkpt>
      <trkpt lat="43.43065" lon="2.20095">
        <ele>809.0289917</ele>
        <time>2022-07-10T08:55:27Z</time>
      </trkpt>
      <trkpt lat="43.43064" lon="2.20097">
        <ele>808.39898682</ele>
        <time>2022-07-10T08:55:28Z</time>
      </trkpt>
      <trkpt lat="43.43062" lon="2.20098">
        <ele>807.67901611</ele>
        <time>2022-07-10T08:55:29Z</time>
      </trkpt>
      <trkpt lat="43.4306" lon="2.20101">
        <ele>807.14898682</ele>
        <time>2022-07-10T08:55:30Z</time>
      </trkpt>
      <trkpt lat="43.43059" lon="2.20103">
        <ele>806.94897461</ele>
        <time>2022-07-10T08:55:31Z</time>
      </trkpt>
      <trkpt lat="43.43058" lon="2.20106">
        <ele>807.07897949</ele>
        <time>2022-07-10T08:55:32Z</time>
      </trkpt>
      <trkpt lat="43.43057" lon="2.20109">
        <ele>807.16900635</ele>
        <time>2022-07-10T08:55:33Z</time>
      </trkpt>
      <trkpt lat="43.43056" lon="2.20111">
        <ele>807.309021</ele>
        <time>2022-07-10T08:55:34Z</time>
      </trkpt>
      <trkpt lat="43.43054" lon="2.20117">
        <ele>807.45904541</ele>
        <time>2022-07-10T08:55:35Z</time>
      </trkpt>
      <trkpt lat="43.43053" lon="2.20121">
        <ele>807.46905518</ele>
        <time>2022-07-10T08:55:36Z</time>
      </trkpt>
      <trkpt lat="43.43052" lon="2.20124">
        <ele>807.54907227</ele>
        <time>2022-07-10T08:55:37Z</time>
      </trkpt>
      <trkpt lat="43.43051" lon="2.20126">
        <ele>807.54907227</ele>
        <time>2022-07-10T08:55:38Z</time>
      </trkpt>
      <trkpt lat="43.4305" lon="2.2013">
        <ele>807.54907227</ele>
        <time>2022-07-10T08:55:39Z</time>
      </trkpt>
      <trkpt lat="43.43049" lon="2.20131">
        <ele>807.57910156</ele>
        <time>2022-07-10T08:55:40Z</time>
      </trkpt>
      <trkpt lat="43.43049" lon="2.20133">
        <ele>807.64910889</ele>
        <time>2022-07-10T08:55:41Z</time>
      </trkpt>
      <trkpt lat="43.43049" lon="2.20135">
        <ele>807.72912598</ele>
        <time>2022-07-10T08:55:42Z</time>
      </trkpt>
      <trkpt lat="43.43049" lon="2.20136">
        <ele>807.86914062</ele>
        <time>2022-07-10T08:55:44Z</time>
      </trkpt>
      <trkpt lat="43.43048" lon="2.20142">
        <ele>807.71911621</ele>
        <time>2022-07-10T08:56:01Z</time>
      </trkpt>
      <trkpt lat="43.43045" lon="2.20144">
        <ele>807.68908691</ele>
        <time>2022-07-10T08:56:02Z</time>
      </trkpt>
      <trkpt lat="43.43043" lon="2.20146">
        <ele>807.60906982</ele>
        <time>2022-07-10T08:56:03Z</time>
      </trkpt>
      <trkpt lat="43.43041" lon="2.20147">
        <ele>807.58905029</ele>
        <time>2022-07-10T08:56:04Z</time>
      </trkpt>
      <trkpt lat="43.43039" lon="2.20148">
        <ele>807.56903076</ele>
        <time>2022-07-10T08:56:05Z</time>
      </trkpt>
      <trkpt lat="43.43035" lon="2.2015">
        <ele>807.559021</ele>
        <time>2022-07-10T08:56:06Z</time>
      </trkpt>
      <trkpt lat="43.43032" lon="2.20152">
        <ele>807.57904053</ele>
        <time>2022-07-10T08:56:07Z</time>
      </trkpt>
      <trkpt lat="43.43029" lon="2.20152">
        <ele>807.5390625</ele>
        <time>2022-07-10T08:56:08Z</time>
      </trkpt>
      <trkpt lat="43.43027" lon="2.20153">
        <ele>807.0690918</ele>
        <time>2022-07-10T08:56:09Z</time>
      </trkpt>
      <trkpt lat="43.43023" lon="2.20153">
        <ele>807.0690918</ele>
        <time>2022-07-10T08:56:10Z</time>
      </trkpt>
      <trkpt lat="43.43021" lon="2.20154">
        <ele>807.11907959</ele>
        <time>2022-07-10T08:56:11Z</time>
      </trkpt>
      <trkpt lat="43.43018" lon="2.20154">
        <ele>807.24908447</ele>
        <time>2022-07-10T08:56:12Z</time>
      </trkpt>
      <trkpt lat="43.43014" lon="2.20154">
        <ele>807.2890625</ele>
        <time>2022-07-10T08:56:13Z</time>
      </trkpt>
      <trkpt lat="43.43011" lon="2.20154">
        <ele>807.36907959</ele>
        <time>2022-07-10T08:56:14Z</time>
      </trkpt>
      <trkpt lat="43.43006" lon="2.20155">
        <ele>807.36907959</ele>
        <time>2022-07-10T08:56:15Z</time>
      </trkpt>
      <trkpt lat="43.43002" lon="2.20157">
        <ele>807.30908203</ele>
        <time>2022-07-10T08:56:16Z</time>
      </trkpt>
      <trkpt lat="43.42999" lon="2.20158">
        <ele>807.21905518</ele>
        <time>2022-07-10T08:56:17Z</time>
      </trkpt>
      <trkpt lat="43.42996" lon="2.20158">
        <ele>808.42907715</ele>
        <time>2022-07-10T08:56:18Z</time>
      </trkpt>
      <trkpt lat="43.42993" lon="2.20158">
        <ele>809.97906494</ele>
        <time>2022-07-10T08:56:19Z</time>
      </trkpt>
      <trkpt lat="43.42989" lon="2.20158">
        <ele>810.45904541</ele>
        <time>2022-07-10T08:56:20Z</time>
      </trkpt>
      <trkpt lat="43.42986" lon="2.20159">
        <ele>810.58905029</ele>
        <time>2022-07-10T08:56:21Z</time>
      </trkpt>
      <trkpt lat="43.42984" lon="2.2016">
        <ele>809.39904785</ele>
        <time>2022-07-10T08:56:22Z</time>
      </trkpt>
      <trkpt lat="43.4298" lon="2.2016">
        <ele>807.91906738</ele>
        <time>2022-07-10T08:56:23Z</time>
      </trkpt>
      <trkpt lat="43.42976" lon="2.20162">
        <ele>807.49908447</ele>
        <time>2022-07-10T08:56:24Z</time>
      </trkpt>
      <trkpt lat="43.42972" lon="2.20162">
        <ele>807.52911377</ele>
        <time>2022-07-10T08:56:25Z</time>
      </trkpt>
      <trkpt lat="43.42969" lon="2.20162">
        <ele>807.52911377</ele>
        <time>2022-07-10T08:56:26Z</time>
      </trkpt>
      <trkpt lat="43.42966" lon="2.20163">
        <ele>807.52911377</ele>
        <time>2022-07-10T08:56:27Z</time>
      </trkpt>
      <trkpt lat="43.42961" lon="2.20163">
        <ele>807.60913086</ele>
        <time>2022-07-10T08:56:28Z</time>
      </trkpt>
      <trkpt lat="43.42958" lon="2.20163">
        <ele>807.70910645</ele>
        <time>2022-07-10T08:56:29Z</time>
      </trkpt>
      <trkpt lat="43.42955" lon="2.20163">
        <ele>807.769104</ele>
        <time>2022-07-10T08:56:30Z</time>
      </trkpt>
      <trkpt lat="43.42952" lon="2.20163">
        <ele>807.78912354</ele>
        <time>2022-07-10T08:56:31Z</time>
      </trkpt>
      <trkpt lat="43.42949" lon="2.20163">
        <ele>807.84912109</ele>
        <time>2022-07-10T08:56:32Z</time>
      </trkpt>
      <trkpt lat="43.42945" lon="2.20162">
        <ele>808.00909424</ele>
        <time>2022-07-10T08:56:33Z</time>
      </trkpt>
      <trkpt lat="43.42942" lon="2.20162">
        <ele>808.24908447</ele>
        <time>2022-07-10T08:56:34Z</time>
      </trkpt>
      <trkpt lat="43.42938" lon="2.20162">
        <ele>808.519104</ele>
        <time>2022-07-10T08:56:35Z</time>
      </trkpt>
      <trkpt lat="43.42935" lon="2.20162">
        <ele>808.70910645</ele>
        <time>2022-07-10T08:56:36Z</time>
      </trkpt>
      <trkpt lat="43.42932" lon="2.20161">
        <ele>808.70910645</ele>
        <time>2022-07-10T08:56:37Z</time>
      </trkpt>
      <trkpt lat="43.42928" lon="2.20161">
        <ele>808.78912354</ele>
        <time>2022-07-10T08:56:38Z</time>
      </trkpt>
      <trkpt lat="43.42925" lon="2.20161">
        <ele>808.86914062</ele>
        <time>2022-07-10T08:56:39Z</time>
      </trkpt>
      <trkpt lat="43.42922" lon="2.2016">
        <ele>808.88916016</ele>
        <time>2022-07-10T08:56:40Z</time>
      </trkpt>
      <trkpt lat="43.42919" lon="2.2016">
        <ele>809.06915283</ele>
        <time>2022-07-10T08:56:41Z</time>
      </trkpt>
      <trkpt lat="43.42914" lon="2.2016">
        <ele>809.14916992</ele>
        <time>2022-07-10T08:56:42Z</time>
      </trkpt>
      <trkpt lat="43.42911" lon="2.20159">
        <ele>809.34918213</ele>
        <time>2022-07-10T08:56:43Z</time>
      </trkpt>
      <trkpt lat="43.42908" lon="2.20159">
        <ele>809.48919678</ele>
        <time>2022-07-10T08:56:44Z</time>
      </trkpt>
      <trkpt lat="43.42905" lon="2.20159">
        <ele>809.53918457</ele>
        <time>2022-07-10T08:56:45Z</time>
      </trkpt>
      <trkpt lat="43.42902" lon="2.20159">
        <ele>809.69915771</ele>
        <time>2022-07-10T08:56:46Z</time>
      </trkpt>
      <trkpt lat="43.42897" lon="2.20159">
        <ele>809.78918457</ele>
        <time>2022-07-10T08:56:47Z</time>
      </trkpt>
      <trkpt lat="43.42894" lon="2.20159">
        <ele>809.90917969</ele>
        <time>2022-07-10T08:56:48Z</time>
      </trkpt>
      <trkpt lat="43.42891" lon="2.20159">
        <ele>810.0791626</ele>
        <time>2022-07-10T08:56:49Z</time>
      </trkpt>
      <trkpt lat="43.42888" lon="2.20158">
        <ele>810.12915039</ele>
        <time>2022-07-10T08:56:50Z</time>
      </trkpt>
      <trkpt lat="43.42883" lon="2.20159">
        <ele>810.19915771</ele>
        <time>2022-07-10T08:56:51Z</time>
      </trkpt>
      <trkpt lat="43.4288" lon="2.2016">
        <ele>810.42913818</ele>
        <time>2022-07-10T08:56:52Z</time>
      </trkpt>
      <trkpt lat="43.42878" lon="2.20161">
        <ele>810.55914307</ele>
        <time>2022-07-10T08:56:53Z</time>
      </trkpt>
      <trkpt lat="43.42875" lon="2.20161">
        <ele>810.78912354</ele>
        <time>2022-07-10T08:56:54Z</time>
      </trkpt>
      <trkpt lat="43.42872" lon="2.20162">
        <ele>811.019104</ele>
        <time>2022-07-10T08:56:55Z</time>
      </trkpt>
      <trkpt lat="43.42869" lon="2.20166">
        <ele>811.15911865</ele>
        <time>2022-07-10T08:56:56Z</time>
      </trkpt>
      <trkpt lat="43.42867" lon="2.20168">
        <ele>811.25909424</ele>
        <time>2022-07-10T08:56:57Z</time>
      </trkpt>
      <trkpt lat="43.42865" lon="2.2017">
        <ele>811.35906982</ele>
        <time>2022-07-10T08:56:58Z</time>
      </trkpt>
      <trkpt lat="43.42862" lon="2.20172">
        <ele>811.5690918</ele>
        <time>2022-07-10T08:56:59Z</time>
      </trkpt>
      <trkpt lat="43.42859" lon="2.20176">
        <ele>811.67907715</ele>
        <time>2022-07-10T08:57:00Z</time>
      </trkpt>
      <trkpt lat="43.42857" lon="2.20178">
        <ele>811.82910156</ele>
        <time>2022-07-10T08:57:01Z</time>
      </trkpt>
      <trkpt lat="43.42861" lon="2.20181">
        <ele>816.82000732</ele>
        <time>2022-07-10T08:57:02Z</time>
      </trkpt>
      <trkpt lat="43.42859" lon="2.20183">
        <ele>816.97003174</ele>
        <time>2022-07-10T08:57:03Z</time>
      </trkpt>
      <trkpt lat="43.42855" lon="2.20185">
        <ele>817.29003906</ele>
        <time>2022-07-10T08:57:04Z</time>
      </trkpt>
      <trkpt lat="43.42853" lon="2.20187">
        <ele>819.04003906</ele>
        <time>2022-07-10T08:57:05Z</time>
      </trkpt>
      <trkpt lat="43.42851" lon="2.20188">
        <ele>820.14001465</ele>
        <time>2022-07-10T08:57:06Z</time>
      </trkpt>
      <trkpt lat="43.42849" lon="2.2019">
        <ele>820.79003906</ele>
        <time>2022-07-10T08:57:07Z</time>
      </trkpt>
      <trkpt lat="43.42847" lon="2.20192">
        <ele>821.67004395</ele>
        <time>2022-07-10T08:57:08Z</time>
      </trkpt>
      <trkpt lat="43.42844" lon="2.20193">
        <ele>820.9800415</ele>
        <time>2022-07-10T08:57:09Z</time>
      </trkpt>
      <trkpt lat="43.42842" lon="2.20194">
        <ele>820.54003906</ele>
        <time>2022-07-10T08:57:10Z</time>
      </trkpt>
      <trkpt lat="43.4284" lon="2.20196">
        <ele>820.59002686</ele>
        <time>2022-07-10T08:57:11Z</time>
      </trkpt>
      <trkpt lat="43.42838" lon="2.20198">
        <ele>820.59002686</ele>
        <time>2022-07-10T08:57:12Z</time>
      </trkpt>
      <trkpt lat="43.42836" lon="2.202">
        <ele>820.22003174</ele>
        <time>2022-07-10T08:57:13Z</time>
      </trkpt>
      <trkpt lat="43.42833" lon="2.20202">
        <ele>820.19000244</ele>
        <time>2022-07-10T08:57:14Z</time>
      </trkpt>
      <trkpt lat="43.42832" lon="2.20203">
        <ele>819.77001953</ele>
        <time>2022-07-10T08:57:15Z</time>
      </trkpt>
      <trkpt lat="43.4283" lon="2.20204">
        <ele>819.05004883</ele>
        <time>2022-07-10T08:57:16Z</time>
      </trkpt>
      <trkpt lat="43.42828" lon="2.20206">
        <ele>818.87005615</ele>
        <time>2022-07-10T08:57:17Z</time>
      </trkpt>
      <trkpt lat="43.42824" lon="2.20207">
        <ele>818.5300293</ele>
        <time>2022-07-10T08:57:18Z</time>
      </trkpt>
      <trkpt lat="43.42822" lon="2.20209">
        <ele>818.58001709</ele>
        <time>2022-07-10T08:57:19Z</time>
      </trkpt>
      <trkpt lat="43.4282" lon="2.20212">
        <ele>818.65002441</ele>
        <time>2022-07-10T08:57:20Z</time>
      </trkpt>
      <trkpt lat="43.42818" lon="2.20215">
        <ele>818.7300415</ele>
        <time>2022-07-10T08:57:21Z</time>
      </trkpt>
      <trkpt lat="43.42816" lon="2.20221">
        <ele>818.7300415</ele>
        <time>2022-07-10T08:57:22Z</time>
      </trkpt>
      <trkpt lat="43.42816" lon="2.20225">
        <ele>818.7600708</ele>
        <time>2022-07-10T08:57:23Z</time>
      </trkpt>
      <trkpt lat="43.42817" lon="2.20229">
        <ele>818.80004883</ele>
        <time>2022-07-10T08:57:24Z</time>
      </trkpt>
      <trkpt lat="43.42818" lon="2.20233">
        <ele>818.82006836</ele>
        <time>2022-07-10T08:57:25Z</time>
      </trkpt>
      <trkpt lat="43.42819" lon="2.20237">
        <ele>818.95007324</ele>
        <time>2022-07-10T08:57:26Z</time>
      </trkpt>
      <trkpt lat="43.4282" lon="2.20243">
        <ele>818.98010254</ele>
        <time>2022-07-10T08:57:27Z</time>
      </trkpt>
      <trkpt lat="43.42821" lon="2.20247">
        <ele>819.08007812</ele>
        <time>2022-07-10T08:57:28Z</time>
      </trkpt>
      <trkpt lat="43.42822" lon="2.2025">
        <ele>819.18005371</ele>
        <time>2022-07-10T08:57:29Z</time>
      </trkpt>
      <trkpt lat="43.42823" lon="2.20254">
        <ele>819.27008057</ele>
        <time>2022-07-10T08:57:30Z</time>
      </trkpt>
      <trkpt lat="43.42824" lon="2.20258">
        <ele>819.41009521</ele>
        <time>2022-07-10T08:57:31Z</time>
      </trkpt>
      <trkpt lat="43.42826" lon="2.20263">
        <ele>819.52008057</ele>
        <time>2022-07-10T08:57:32Z</time>
      </trkpt>
      <trkpt lat="43.42827" lon="2.20267">
        <ele>819.68005371</ele>
        <time>2022-07-10T08:57:33Z</time>
      </trkpt>
      <trkpt lat="43.42829" lon="2.20271">
        <ele>819.85003662</ele>
        <time>2022-07-10T08:57:34Z</time>
      </trkpt>
      <trkpt lat="43.4283" lon="2.20275">
        <ele>820.01000977</ele>
        <time>2022-07-10T08:57:35Z</time>
      </trkpt>
      <trkpt lat="43.42832" lon="2.2028">
        <ele>820.14001465</ele>
        <time>2022-07-10T08:57:36Z</time>
      </trkpt>
      <trkpt lat="43.42833" lon="2.20283">
        <ele>820.25</ele>
        <time>2022-07-10T08:57:37Z</time>
      </trkpt>
      <trkpt lat="43.42834" lon="2.20287">
        <ele>820.40002441</ele>
        <time>2022-07-10T08:57:38Z</time>
      </trkpt>
      <trkpt lat="43.42835" lon="2.20291">
        <ele>820.61999512</ele>
        <time>2022-07-10T08:57:39Z</time>
      </trkpt>
      <trkpt lat="43.42836" lon="2.20294">
        <ele>820.88000488</ele>
        <time>2022-07-10T08:57:40Z</time>
      </trkpt>
      <trkpt lat="43.42838" lon="2.20299">
        <ele>821.13000488</ele>
        <time>2022-07-10T08:57:41Z</time>
      </trkpt>
      <trkpt lat="43.4284" lon="2.20302">
        <ele>821.41998291</ele>
        <time>2022-07-10T08:57:42Z</time>
      </trkpt>
      <trkpt lat="43.42841" lon="2.20306">
        <ele>821.55999756</ele>
        <time>2022-07-10T08:57:43Z</time>
      </trkpt>
      <trkpt lat="43.42842" lon="2.20309">
        <ele>821.76000977</ele>
        <time>2022-07-10T08:57:44Z</time>
      </trkpt>
      <trkpt lat="43.42844" lon="2.20314">
        <ele>821.98999023</ele>
        <time>2022-07-10T08:57:45Z</time>
      </trkpt>
      <trkpt lat="43.42845" lon="2.20317">
        <ele>822.09997559</ele>
        <time>2022-07-10T08:57:46Z</time>
      </trkpt>
      <trkpt lat="43.42846" lon="2.2032">
        <ele>822.28997803</ele>
        <time>2022-07-10T08:57:47Z</time>
      </trkpt>
      <trkpt lat="43.42847" lon="2.20323">
        <ele>822.48999023</ele>
        <time>2022-07-10T08:57:48Z</time>
      </trkpt>
      <trkpt lat="43.42849" lon="2.20327">
        <ele>822.61999512</ele>
        <time>2022-07-10T08:57:49Z</time>
      </trkpt>
      <trkpt lat="43.4285" lon="2.2033">
        <ele>822.86999512</ele>
        <time>2022-07-10T08:57:50Z</time>
      </trkpt>
      <trkpt lat="43.42851" lon="2.20332">
        <ele>823.17999268</ele>
        <time>2022-07-10T08:57:51Z</time>
      </trkpt>
      <trkpt lat="43.42852" lon="2.20335">
        <ele>823.44000244</ele>
        <time>2022-07-10T08:57:52Z</time>
      </trkpt>
      <trkpt lat="43.42853" lon="2.20338">
        <ele>823.75</ele>
        <time>2022-07-10T08:57:53Z</time>
      </trkpt>
      <trkpt lat="43.42854" lon="2.20342">
        <ele>823.98999023</ele>
        <time>2022-07-10T08:57:54Z</time>
      </trkpt>
      <trkpt lat="43.42854" lon="2.20344">
        <ele>824.17999268</ele>
        <time>2022-07-10T08:57:55Z</time>
      </trkpt>
      <trkpt lat="43.42855" lon="2.20347">
        <ele>824.38000488</ele>
        <time>2022-07-10T08:57:56Z</time>
      </trkpt>
      <trkpt lat="43.42856" lon="2.20349">
        <ele>824.60998535</ele>
        <time>2022-07-10T08:57:57Z</time>
      </trkpt>
      <trkpt lat="43.42857" lon="2.20352">
        <ele>824.79998779</ele>
        <time>2022-07-10T08:57:58Z</time>
      </trkpt>
      <trkpt lat="43.42858" lon="2.20356">
        <ele>824.97998047</ele>
        <time>2022-07-10T08:57:59Z</time>
      </trkpt>
      <trkpt lat="43.42859" lon="2.20358">
        <ele>825.25</ele>
        <time>2022-07-10T08:58:00Z</time>
      </trkpt>
      <trkpt lat="43.4286" lon="2.20361">
        <ele>825.48999023</ele>
        <time>2022-07-10T08:58:01Z</time>
      </trkpt>
      <trkpt lat="43.4286" lon="2.20364">
        <ele>825.75</ele>
        <time>2022-07-10T08:58:02Z</time>
      </trkpt>
      <trkpt lat="43.42862" lon="2.20368">
        <ele>826.03997803</ele>
        <time>2022-07-10T08:58:03Z</time>
      </trkpt>
      <trkpt lat="43.42862" lon="2.20371">
        <ele>826.27996826</ele>
        <time>2022-07-10T08:58:04Z</time>
      </trkpt>
      <trkpt lat="43.42863" lon="2.20373">
        <ele>826.53997803</ele>
        <time>2022-07-10T08:58:05Z</time>
      </trkpt>
      <trkpt lat="43.42864" lon="2.20375">
        <ele>826.75994873</ele>
        <time>2022-07-10T08:58:06Z</time>
      </trkpt>
      <trkpt lat="43.42865" lon="2.20378">
        <ele>827.0199585</ele>
        <time>2022-07-10T08:58:07Z</time>
      </trkpt>
      <trkpt lat="43.42867" lon="2.20381">
        <ele>827.09997559</ele>
        <time>2022-07-10T08:58:08Z</time>
      </trkpt>
      <trkpt lat="43.42868" lon="2.20383">
        <ele>829.20996094</ele>
        <time>2022-07-10T08:58:09Z</time>
      </trkpt>
      <trkpt lat="43.42869" lon="2.20386">
        <ele>830.73999023</ele>
        <time>2022-07-10T08:58:10Z</time>
      </trkpt>
      <trkpt lat="43.4287" lon="2.20388">
        <ele>831.48999023</ele>
        <time>2022-07-10T08:58:11Z</time>
      </trkpt>
      <trkpt lat="43.42871" lon="2.20392">
        <ele>831.85998535</ele>
        <time>2022-07-10T08:58:12Z</time>
      </trkpt>
      <trkpt lat="43.42872" lon="2.20394">
        <ele>830.55999756</ele>
        <time>2022-07-10T08:58:13Z</time>
      </trkpt>
      <trkpt lat="43.42873" lon="2.20397">
        <ele>829.42999268</ele>
        <time>2022-07-10T08:58:14Z</time>
      </trkpt>
      <trkpt lat="43.42873" lon="2.20399">
        <ele>829.05999756</ele>
        <time>2022-07-10T08:58:15Z</time>
      </trkpt>
      <trkpt lat="43.42874" lon="2.20402">
        <ele>829.22998047</ele>
        <time>2022-07-10T08:58:16Z</time>
      </trkpt>
      <trkpt lat="43.42876" lon="2.20406">
        <ele>829.41998291</ele>
        <time>2022-07-10T08:58:17Z</time>
      </trkpt>
      <trkpt lat="43.42876" lon="2.20408">
        <ele>829.70996094</ele>
        <time>2022-07-10T08:58:18Z</time>
      </trkpt>
      <trkpt lat="43.42877" lon="2.20411">
        <ele>829.94995117</ele>
        <time>2022-07-10T08:58:19Z</time>
      </trkpt>
      <trkpt lat="43.42877" lon="2.20414">
        <ele>830.20996094</ele>
        <time>2022-07-10T08:58:20Z</time>
      </trkpt>
      <trkpt lat="43.42878" lon="2.20417">
        <ele>830.4699707</ele>
        <time>2022-07-10T08:58:21Z</time>
      </trkpt>
      <trkpt lat="43.42879" lon="2.20419">
        <ele>830.68994141</ele>
        <time>2022-07-10T08:58:22Z</time>
      </trkpt>
      <trkpt lat="43.4288" lon="2.20421">
        <ele>830.90991211</ele>
        <time>2022-07-10T08:58:23Z</time>
      </trkpt>
      <trkpt lat="43.42881" lon="2.20424">
        <ele>831.11993408</ele>
        <time>2022-07-10T08:58:24Z</time>
      </trkpt>
      <trkpt lat="43.42882" lon="2.20426">
        <ele>831.44995117</ele>
        <time>2022-07-10T08:58:25Z</time>
      </trkpt>
      <trkpt lat="43.42883" lon="2.20429">
        <ele>831.78997803</ele>
        <time>2022-07-10T08:58:26Z</time>
      </trkpt>
      <trkpt lat="43.42884" lon="2.20432">
        <ele>832.13000488</ele>
        <time>2022-07-10T08:58:27Z</time>
      </trkpt>
      <trkpt lat="43.42884" lon="2.20434">
        <ele>832.36999512</ele>
        <time>2022-07-10T08:58:28Z</time>
      </trkpt>
      <trkpt lat="43.42885" lon="2.20436">
        <ele>832.57000732</ele>
        <time>2022-07-10T08:58:29Z</time>
      </trkpt>
      <trkpt lat="43.42886" lon="2.20439">
        <ele>832.78997803</ele>
        <time>2022-07-10T08:58:30Z</time>
      </trkpt>
      <trkpt lat="43.42887" lon="2.20442">
        <ele>832.94000244</ele>
        <time>2022-07-10T08:58:31Z</time>
      </trkpt>
      <trkpt lat="43.42888" lon="2.20444">
        <ele>833.25</ele>
        <time>2022-07-10T08:58:32Z</time>
      </trkpt>
      <trkpt lat="43.42888" lon="2.20446">
        <ele>833.52001953</ele>
        <time>2022-07-10T08:58:33Z</time>
      </trkpt>
      <trkpt lat="43.42889" lon="2.20448">
        <ele>833.76000977</ele>
        <time>2022-07-10T08:58:34Z</time>
      </trkpt>
      <trkpt lat="43.4289" lon="2.20451">
        <ele>834.05999756</ele>
        <time>2022-07-10T08:58:35Z</time>
      </trkpt>
      <trkpt lat="43.42891" lon="2.20453">
        <ele>834.30999756</ele>
        <time>2022-07-10T08:58:36Z</time>
      </trkpt>
      <trkpt lat="43.42892" lon="2.20455">
        <ele>834.51000977</ele>
        <time>2022-07-10T08:58:37Z</time>
      </trkpt>
      <trkpt lat="43.42893" lon="2.20457">
        <ele>834.69000244</ele>
        <time>2022-07-10T08:58:38Z</time>
      </trkpt>
      <trkpt lat="43.42894" lon="2.2046">
        <ele>834.95001221</ele>
        <time>2022-07-10T08:58:39Z</time>
      </trkpt>
      <trkpt lat="43.42895" lon="2.20462">
        <ele>835.19000244</ele>
        <time>2022-07-10T08:58:40Z</time>
      </trkpt>
      <trkpt lat="43.42896" lon="2.20465">
        <ele>835.47998047</ele>
        <time>2022-07-10T08:58:41Z</time>
      </trkpt>
      <trkpt lat="43.42897" lon="2.20467">
        <ele>835.79998779</ele>
        <time>2022-07-10T08:58:42Z</time>
      </trkpt>
      <trkpt lat="43.42898" lon="2.20471">
        <ele>836.08001709</ele>
        <time>2022-07-10T08:58:43Z</time>
      </trkpt>
      <trkpt lat="43.42899" lon="2.20473">
        <ele>836.39001465</ele>
        <time>2022-07-10T08:58:44Z</time>
      </trkpt>
      <trkpt lat="43.42899" lon="2.20475">
        <ele>836.67004395</ele>
        <time>2022-07-10T08:58:45Z</time>
      </trkpt>
      <trkpt lat="43.429" lon="2.20478">
        <ele>836.96002197</ele>
        <time>2022-07-10T08:58:46Z</time>
      </trkpt>
      <trkpt lat="43.42901" lon="2.2048">
        <ele>837.32000732</ele>
        <time>2022-07-10T08:58:47Z</time>
      </trkpt>
      <trkpt lat="43.42902" lon="2.20484">
        <ele>837.57000732</ele>
        <time>2022-07-10T08:58:48Z</time>
      </trkpt>
      <trkpt lat="43.42903" lon="2.20486">
        <ele>837.92999268</ele>
        <time>2022-07-10T08:58:49Z</time>
      </trkpt>
      <trkpt lat="43.42903" lon="2.20488">
        <ele>838.28997803</ele>
        <time>2022-07-10T08:58:50Z</time>
      </trkpt>
      <trkpt lat="43.42904" lon="2.20491">
        <ele>838.57995605</ele>
        <time>2022-07-10T08:58:51Z</time>
      </trkpt>
      <trkpt lat="43.42905" lon="2.20493">
        <ele>838.87994385</ele>
        <time>2022-07-10T08:58:52Z</time>
      </trkpt>
      <trkpt lat="43.42907" lon="2.20497">
        <ele>839.17993164</ele>
        <time>2022-07-10T08:58:53Z</time>
      </trkpt>
      <trkpt lat="43.42908" lon="2.20499">
        <ele>839.35992432</ele>
        <time>2022-07-10T08:58:54Z</time>
      </trkpt>
      <trkpt lat="43.42909" lon="2.20501">
        <ele>839.63995361</ele>
        <time>2022-07-10T08:58:55Z</time>
      </trkpt>
      <trkpt lat="43.4291" lon="2.20503">
        <ele>839.94995117</ele>
        <time>2022-07-10T08:58:56Z</time>
      </trkpt>
      <trkpt lat="43.42912" lon="2.20506">
        <ele>840.15997314</ele>
        <time>2022-07-10T08:58:57Z</time>
      </trkpt>
      <trkpt lat="43.42912" lon="2.20508">
        <ele>840.4699707</ele>
        <time>2022-07-10T08:58:58Z</time>
      </trkpt>
      <trkpt lat="43.42913" lon="2.2051">
        <ele>840.72998047</ele>
        <time>2022-07-10T08:58:59Z</time>
      </trkpt>
      <trkpt lat="43.42915" lon="2.20512">
        <ele>841.01000977</ele>
        <time>2022-07-10T08:59:00Z</time>
      </trkpt>
      <trkpt lat="43.42915" lon="2.20514">
        <ele>841.29003906</ele>
        <time>2022-07-10T08:59:01Z</time>
      </trkpt>
      <trkpt lat="43.42916" lon="2.20517">
        <ele>841.59002686</ele>
        <time>2022-07-10T08:59:02Z</time>
      </trkpt>
      <trkpt lat="43.42916" lon="2.20519">
        <ele>841.79003906</ele>
        <time>2022-07-10T08:59:03Z</time>
      </trkpt>
      <trkpt lat="43.42917" lon="2.20521">
        <ele>842.00006104</ele>
        <time>2022-07-10T08:59:04Z</time>
      </trkpt>
      <trkpt lat="43.42918" lon="2.20523">
        <ele>842.24005127</ele>
        <time>2022-07-10T08:59:05Z</time>
      </trkpt>
      <trkpt lat="43.42919" lon="2.20526">
        <ele>842.47003174</ele>
        <time>2022-07-10T08:59:06Z</time>
      </trkpt>
      <trkpt lat="43.4292" lon="2.20527">
        <ele>842.75006104</ele>
        <time>2022-07-10T08:59:07Z</time>
      </trkpt>
      <trkpt lat="43.42921" lon="2.20529">
        <ele>843.03009033</ele>
        <time>2022-07-10T08:59:08Z</time>
      </trkpt>
      <trkpt lat="43.42922" lon="2.20531">
        <ele>843.64007568</ele>
        <time>2022-07-10T08:59:09Z</time>
      </trkpt>
      <trkpt lat="43.42922" lon="2.20532">
        <ele>843.84008789</ele>
        <time>2022-07-10T08:59:10Z</time>
      </trkpt>
      <trkpt lat="43.42923" lon="2.20535">
        <ele>844.09008789</ele>
        <time>2022-07-10T08:59:11Z</time>
      </trkpt>
      <trkpt lat="43.42924" lon="2.20537">
        <ele>844.31005859</ele>
        <time>2022-07-10T08:59:12Z</time>
      </trkpt>
      <trkpt lat="43.42924" lon="2.20539">
        <ele>844.55004883</ele>
        <time>2022-07-10T08:59:13Z</time>
      </trkpt>
      <trkpt lat="43.42924" lon="2.2054">
        <ele>844.7600708</ele>
        <time>2022-07-10T08:59:14Z</time>
      </trkpt>
      <trkpt lat="43.42925" lon="2.20542">
        <ele>844.99005127</ele>
        <time>2022-07-10T08:59:15Z</time>
      </trkpt>
      <trkpt lat="43.42926" lon="2.20544">
        <ele>845.29003906</ele>
        <time>2022-07-10T08:59:16Z</time>
      </trkpt>
      <trkpt lat="43.42927" lon="2.20546">
        <ele>845.52001953</ele>
        <time>2022-07-10T08:59:17Z</time>
      </trkpt>
      <trkpt lat="43.42927" lon="2.20548">
        <ele>845.80004883</ele>
        <time>2022-07-10T08:59:18Z</time>
      </trkpt>
      <trkpt lat="43.42928" lon="2.20551">
        <ele>845.97003174</ele>
        <time>2022-07-10T08:59:19Z</time>
      </trkpt>
      <trkpt lat="43.42928" lon="2.20552">
        <ele>846.15002441</ele>
        <time>2022-07-10T08:59:20Z</time>
      </trkpt>
      <trkpt lat="43.42929" lon="2.20554">
        <ele>846.41003418</ele>
        <time>2022-07-10T08:59:21Z</time>
      </trkpt>
      <trkpt lat="43.4293" lon="2.20556">
        <ele>846.67004395</ele>
        <time>2022-07-10T08:59:22Z</time>
      </trkpt>
      <trkpt lat="43.42931" lon="2.20559">
        <ele>846.9800415</ele>
        <time>2022-07-10T08:59:23Z</time>
      </trkpt>
      <trkpt lat="43.42932" lon="2.20562">
        <ele>847.2800293</ele>
        <time>2022-07-10T08:59:24Z</time>
      </trkpt>
      <trkpt lat="43.42933" lon="2.20563">
        <ele>847.57000732</ele>
        <time>2022-07-10T08:59:25Z</time>
      </trkpt>
      <trkpt lat="43.42933" lon="2.20565">
        <ele>847.86999512</ele>
        <time>2022-07-10T08:59:26Z</time>
      </trkpt>
      <trkpt lat="43.42934" lon="2.20567">
        <ele>848.10998535</ele>
        <time>2022-07-10T08:59:27Z</time>
      </trkpt>
      <trkpt lat="43.42935" lon="2.20569">
        <ele>848.38000488</ele>
        <time>2022-07-10T08:59:28Z</time>
      </trkpt>
      <trkpt lat="43.42935" lon="2.20571">
        <ele>848.61999512</ele>
        <time>2022-07-10T08:59:29Z</time>
      </trkpt>
      <trkpt lat="43.42936" lon="2.20573">
        <ele>848.91998291</ele>
        <time>2022-07-10T08:59:30Z</time>
      </trkpt>
      <trkpt lat="43.42936" lon="2.20575">
        <ele>849.25</ele>
        <time>2022-07-10T08:59:31Z</time>
      </trkpt>
      <trkpt lat="43.42937" lon="2.20577">
        <ele>849.54998779</ele>
        <time>2022-07-10T08:59:32Z</time>
      </trkpt>
      <trkpt lat="43.42937" lon="2.20578">
        <ele>849.88000488</ele>
        <time>2022-07-10T08:59:33Z</time>
      </trkpt>
      <trkpt lat="43.42938" lon="2.2058">
        <ele>850.17999268</ele>
        <time>2022-07-10T08:59:34Z</time>
      </trkpt>
      <trkpt lat="43.42939" lon="2.20582">
        <ele>850.47998047</ele>
        <time>2022-07-10T08:59:35Z</time>
      </trkpt>
      <trkpt lat="43.4294" lon="2.20584">
        <ele>850.77996826</ele>
        <time>2022-07-10T08:59:36Z</time>
      </trkpt>
      <trkpt lat="43.42941" lon="2.20586">
        <ele>851.08996582</ele>
        <time>2022-07-10T08:59:37Z</time>
      </trkpt>
      <trkpt lat="43.42942" lon="2.20589">
        <ele>851.31994629</ele>
        <time>2022-07-10T08:59:38Z</time>
      </trkpt>
      <trkpt lat="43.42943" lon="2.2059">
        <ele>851.65997314</ele>
        <time>2022-07-10T08:59:39Z</time>
      </trkpt>
      <trkpt lat="43.42944" lon="2.20591">
        <ele>851.95996094</ele>
        <time>2022-07-10T08:59:40Z</time>
      </trkpt>
      <trkpt lat="43.42944" lon="2.20592">
        <ele>852.19995117</ele>
        <time>2022-07-10T08:59:41Z</time>
      </trkpt>
      <trkpt lat="43.42944" lon="2.20594">
        <ele>852.50994873</ele>
        <time>2022-07-10T08:59:42Z</time>
      </trkpt>
      <trkpt lat="43.42945" lon="2.20596">
        <ele>852.82995605</ele>
        <time>2022-07-10T08:59:43Z</time>
      </trkpt>
      <trkpt lat="43.42946" lon="2.20597">
        <ele>853.11993408</ele>
        <time>2022-07-10T08:59:44Z</time>
      </trkpt>
      <trkpt lat="43.42947" lon="2.20598">
        <ele>853.43994141</ele>
        <time>2022-07-10T08:59:45Z</time>
      </trkpt>
      <trkpt lat="43.42948" lon="2.206">
        <ele>853.72991943</ele>
        <time>2022-07-10T08:59:46Z</time>
      </trkpt>
      <trkpt lat="43.42949" lon="2.20603">
        <ele>853.93994141</ele>
        <time>2022-07-10T08:59:47Z</time>
      </trkpt>
      <trkpt lat="43.4295" lon="2.20605">
        <ele>854.2399292</ele>
        <time>2022-07-10T08:59:48Z</time>
      </trkpt>
      <trkpt lat="43.42951" lon="2.20607">
        <ele>854.53991699</ele>
        <time>2022-07-10T08:59:49Z</time>
      </trkpt>
      <trkpt lat="43.42951" lon="2.2061">
        <ele>854.83990479</ele>
        <time>2022-07-10T08:59:50Z</time>
      </trkpt>
      <trkpt lat="43.42952" lon="2.20614">
        <ele>855.12988281</ele>
        <time>2022-07-10T08:59:51Z</time>
      </trkpt>
      <trkpt lat="43.42953" lon="2.20616">
        <ele>855.39990234</ele>
        <time>2022-07-10T08:59:52Z</time>
      </trkpt>
      <trkpt lat="43.42953" lon="2.20618">
        <ele>855.69989014</ele>
        <time>2022-07-10T08:59:53Z</time>
      </trkpt>
      <trkpt lat="43.42954" lon="2.2062">
        <ele>856.04986572</ele>
        <time>2022-07-10T08:59:54Z</time>
      </trkpt>
      <trkpt lat="43.42955" lon="2.20622">
        <ele>856.40985107</ele>
        <time>2022-07-10T08:59:55Z</time>
      </trkpt>
      <trkpt lat="43.42955" lon="2.20626">
        <ele>856.83984375</ele>
        <time>2022-07-10T08:59:56Z</time>
      </trkpt>
      <trkpt lat="43.42955" lon="2.20628">
        <ele>857.1998291</ele>
        <time>2022-07-10T08:59:57Z</time>
      </trkpt>
      <trkpt lat="43.42956" lon="2.2063">
        <ele>857.53985596</ele>
        <time>2022-07-10T08:59:58Z</time>
      </trkpt>
      <trkpt lat="43.42957" lon="2.20632">
        <ele>857.81988525</ele>
        <time>2022-07-10T08:59:59Z</time>
      </trkpt>
      <trkpt lat="43.42958" lon="2.20636">
        <ele>858.04986572</ele>
        <time>2022-07-10T09:00:00Z</time>
      </trkpt>
      <trkpt lat="43.42959" lon="2.20639">
        <ele>858.30987549</ele>
        <time>2022-07-10T09:00:01Z</time>
      </trkpt>
      <trkpt lat="43.42959" lon="2.20642">
        <ele>858.54986572</ele>
        <time>2022-07-10T09:00:02Z</time>
      </trkpt>
      <trkpt lat="43.42961" lon="2.20644">
        <ele>858.82989502</ele>
        <time>2022-07-10T09:00:03Z</time>
      </trkpt>
      <trkpt lat="43.42962" lon="2.20647">
        <ele>859.02990723</ele>
        <time>2022-07-10T09:00:04Z</time>
      </trkpt>
      <trkpt lat="43.42963" lon="2.2065">
        <ele>859.2399292</ele>
        <time>2022-07-10T09:00:05Z</time>
      </trkpt>
      <trkpt lat="43.42964" lon="2.20652">
        <ele>859.4598999</ele>
        <time>2022-07-10T09:00:06Z</time>
      </trkpt>
      <trkpt lat="43.42965" lon="2.20655">
        <ele>859.7098999</ele>
        <time>2022-07-10T09:00:07Z</time>
      </trkpt>
      <trkpt lat="43.42966" lon="2.20657">
        <ele>859.91992188</ele>
        <time>2022-07-10T09:00:08Z</time>
      </trkpt>
      <trkpt lat="43.42967" lon="2.20661">
        <ele>860.97991943</ele>
        <time>2022-07-10T09:00:09Z</time>
      </trkpt>
      <trkpt lat="43.42967" lon="2.20663">
        <ele>861.19989014</ele>
        <time>2022-07-10T09:00:10Z</time>
      </trkpt>
      <trkpt lat="43.42968" lon="2.20665">
        <ele>861.31988525</ele>
        <time>2022-07-10T09:00:11Z</time>
      </trkpt>
      <trkpt lat="43.42969" lon="2.20667">
        <ele>861.48986816</ele>
        <time>2022-07-10T09:00:12Z</time>
      </trkpt>
      <trkpt lat="43.4297" lon="2.20669">
        <ele>861.62988281</ele>
        <time>2022-07-10T09:00:13Z</time>
      </trkpt>
      <trkpt lat="43.42971" lon="2.20673">
        <ele>861.79986572</ele>
        <time>2022-07-10T09:00:14Z</time>
      </trkpt>
      <trkpt lat="43.42972" lon="2.20675">
        <ele>861.98986816</ele>
        <time>2022-07-10T09:00:15Z</time>
      </trkpt>
      <trkpt lat="43.42972" lon="2.20677">
        <ele>862.14984131</ele>
        <time>2022-07-10T09:00:16Z</time>
      </trkpt>
      <trkpt lat="43.42973" lon="2.2068">
        <ele>862.31982422</ele>
        <time>2022-07-10T09:00:17Z</time>
      </trkpt>
      <trkpt lat="43.42974" lon="2.20683">
        <ele>862.4197998</ele>
        <time>2022-07-10T09:00:18Z</time>
      </trkpt>
      <trkpt lat="43.42975" lon="2.20685">
        <ele>862.58978271</ele>
        <time>2022-07-10T09:00:19Z</time>
      </trkpt>
      <trkpt lat="43.42975" lon="2.20687">
        <ele>862.77978516</ele>
        <time>2022-07-10T09:00:20Z</time>
      </trkpt>
      <trkpt lat="43.42976" lon="2.2069">
        <ele>862.9397583</ele>
        <time>2022-07-10T09:00:21Z</time>
      </trkpt>
      <trkpt lat="43.42977" lon="2.20692">
        <ele>863.13977051</ele>
        <time>2022-07-10T09:00:22Z</time>
      </trkpt>
      <trkpt lat="43.42978" lon="2.20695">
        <ele>863.26977539</ele>
        <time>2022-07-10T09:00:23Z</time>
      </trkpt>
      <trkpt lat="43.42979" lon="2.20697">
        <ele>863.39978027</ele>
        <time>2022-07-10T09:00:24Z</time>
      </trkpt>
      <trkpt lat="43.4298" lon="2.20699">
        <ele>863.55975342</ele>
        <time>2022-07-10T09:00:25Z</time>
      </trkpt>
      <trkpt lat="43.42981" lon="2.20701">
        <ele>863.69976807</ele>
        <time>2022-07-10T09:00:26Z</time>
      </trkpt>
      <trkpt lat="43.42982" lon="2.20704">
        <ele>863.89978027</ele>
        <time>2022-07-10T09:00:27Z</time>
      </trkpt>
      <trkpt lat="43.42983" lon="2.20706">
        <ele>864.07977295</ele>
        <time>2022-07-10T09:00:28Z</time>
      </trkpt>
      <trkpt lat="43.42983" lon="2.20708">
        <ele>864.22979736</ele>
        <time>2022-07-10T09:00:29Z</time>
      </trkpt>
      <trkpt lat="43.42984" lon="2.20711">
        <ele>864.38977051</ele>
        <time>2022-07-10T09:00:30Z</time>
      </trkpt>
      <trkpt lat="43.42985" lon="2.20713">
        <ele>864.54974365</ele>
        <time>2022-07-10T09:00:31Z</time>
      </trkpt>
      <trkpt lat="43.42986" lon="2.20716">
        <ele>864.7097168</ele>
        <time>2022-07-10T09:00:32Z</time>
      </trkpt>
      <trkpt lat="43.42987" lon="2.20718">
        <ele>864.84973145</ele>
        <time>2022-07-10T09:00:33Z</time>
      </trkpt>
      <trkpt lat="43.42988" lon="2.2072">
        <ele>864.97973633</ele>
        <time>2022-07-10T09:00:34Z</time>
      </trkpt>
      <trkpt lat="43.42988" lon="2.20722">
        <ele>865.10974121</ele>
        <time>2022-07-10T09:00:35Z</time>
      </trkpt>
      <trkpt lat="43.4299" lon="2.20725">
        <ele>865.23974609</ele>
        <time>2022-07-10T09:00:36Z</time>
      </trkpt>
      <trkpt lat="43.4299" lon="2.20727">
        <ele>865.37976074</ele>
        <time>2022-07-10T09:00:37Z</time>
      </trkpt>
      <trkpt lat="43.42991" lon="2.2073">
        <ele>865.50976562</ele>
        <time>2022-07-10T09:00:38Z</time>
      </trkpt>
      <trkpt lat="43.42992" lon="2.20732">
        <ele>865.60974121</ele>
        <time>2022-07-10T09:00:39Z</time>
      </trkpt>
      <trkpt lat="43.42992" lon="2.20734">
        <ele>865.73974609</ele>
        <time>2022-07-10T09:00:40Z</time>
      </trkpt>
      <trkpt lat="43.42993" lon="2.20737">
        <ele>865.909729</ele>
        <time>2022-07-10T09:00:41Z</time>
      </trkpt>
      <trkpt lat="43.42994" lon="2.20739">
        <ele>866.01971436</ele>
        <time>2022-07-10T09:00:42Z</time>
      </trkpt>
      <trkpt lat="43.42995" lon="2.20741">
        <ele>866.13970947</ele>
        <time>2022-07-10T09:00:43Z</time>
      </trkpt>
      <trkpt lat="43.42996" lon="2.20744">
        <ele>866.22973633</ele>
        <time>2022-07-10T09:00:44Z</time>
      </trkpt>
      <trkpt lat="43.42997" lon="2.20747">
        <ele>866.29974365</ele>
        <time>2022-07-10T09:00:45Z</time>
      </trkpt>
      <trkpt lat="43.42998" lon="2.20749">
        <ele>866.41973877</ele>
        <time>2022-07-10T09:00:46Z</time>
      </trkpt>
      <trkpt lat="43.42998" lon="2.20752">
        <ele>866.49975586</ele>
        <time>2022-07-10T09:00:47Z</time>
      </trkpt>
      <trkpt lat="43.42999" lon="2.20754">
        <ele>866.58978271</ele>
        <time>2022-07-10T09:00:48Z</time>
      </trkpt>
      <trkpt lat="43.42999" lon="2.20756">
        <ele>866.6697998</ele>
        <time>2022-07-10T09:00:49Z</time>
      </trkpt>
      <trkpt lat="43.43" lon="2.20759">
        <ele>866.75982666</ele>
        <time>2022-07-10T09:00:50Z</time>
      </trkpt>
      <trkpt lat="43.43001" lon="2.20762">
        <ele>866.85980225</ele>
        <time>2022-07-10T09:00:51Z</time>
      </trkpt>
      <trkpt lat="43.43002" lon="2.20764">
        <ele>866.97979736</ele>
        <time>2022-07-10T09:00:52Z</time>
      </trkpt>
      <trkpt lat="43.43003" lon="2.20766">
        <ele>867.1697998</ele>
        <time>2022-07-10T09:00:53Z</time>
      </trkpt>
      <trkpt lat="43.43004" lon="2.20768">
        <ele>867.28979492</ele>
        <time>2022-07-10T09:00:54Z</time>
      </trkpt>
      <trkpt lat="43.43007" lon="2.20768">
        <ele>867.39978027</ele>
        <time>2022-07-10T09:00:55Z</time>
      </trkpt>
      <trkpt lat="43.43009" lon="2.20769">
        <ele>867.49975586</ele>
        <time>2022-07-10T09:00:56Z</time>
      </trkpt>
      <trkpt lat="43.43011" lon="2.20769">
        <ele>867.46972656</ele>
        <time>2022-07-10T09:00:57Z</time>
      </trkpt>
      <trkpt lat="43.43013" lon="2.20769">
        <ele>867.44970703</ele>
        <time>2022-07-10T09:00:58Z</time>
      </trkpt>
      <trkpt lat="43.43016" lon="2.20768">
        <ele>867.49969482</ele>
        <time>2022-07-10T09:00:59Z</time>
      </trkpt>
      <trkpt lat="43.43018" lon="2.20768">
        <ele>867.48968506</ele>
        <time>2022-07-10T09:01:00Z</time>
      </trkpt>
      <trkpt lat="43.4302" lon="2.20768">
        <ele>867.48968506</ele>
        <time>2022-07-10T09:01:01Z</time>
      </trkpt>
      <trkpt lat="43.43023" lon="2.20767">
        <ele>867.47967529</ele>
        <time>2022-07-10T09:01:02Z</time>
      </trkpt>
      <trkpt lat="43.43026" lon="2.20766">
        <ele>867.29968262</ele>
        <time>2022-07-10T09:01:03Z</time>
      </trkpt>
      <trkpt lat="43.43028" lon="2.20765">
        <ele>867.1496582</ele>
        <time>2022-07-10T09:01:04Z</time>
      </trkpt>
      <trkpt lat="43.43031" lon="2.20765">
        <ele>867.00964355</ele>
        <time>2022-07-10T09:01:05Z</time>
      </trkpt>
      <trkpt lat="43.43033" lon="2.20764">
        <ele>867.27966309</ele>
        <time>2022-07-10T09:01:06Z</time>
      </trkpt>
      <trkpt lat="43.43036" lon="2.20764">
        <ele>867.95965576</ele>
        <time>2022-07-10T09:01:07Z</time>
      </trkpt>
      <trkpt lat="43.4304" lon="2.20762">
        <ele>867.92962646</ele>
        <time>2022-07-10T09:01:08Z</time>
      </trkpt>
      <trkpt lat="43.43042" lon="2.20761">
        <ele>868.88964844</ele>
        <time>2022-07-10T09:01:09Z</time>
      </trkpt>
      <trkpt lat="43.43045" lon="2.2076">
        <ele>868.37963867</ele>
        <time>2022-07-10T09:01:10Z</time>
      </trkpt>
      <trkpt lat="43.43048" lon="2.20759">
        <ele>867.4196167</ele>
        <time>2022-07-10T09:01:11Z</time>
      </trkpt>
      <trkpt lat="43.43053" lon="2.20757">
        <ele>867.17962646</ele>
        <time>2022-07-10T09:01:12Z</time>
      </trkpt>
      <trkpt lat="43.43056" lon="2.20755">
        <ele>867.10961914</ele>
        <time>2022-07-10T09:01:13Z</time>
      </trkpt>
      <trkpt lat="43.43059" lon="2.20754">
        <ele>866.87963867</ele>
        <time>2022-07-10T09:01:14Z</time>
      </trkpt>
      <trkpt lat="43.43062" lon="2.20752">
        <ele>866.699646</ele>
        <time>2022-07-10T09:01:15Z</time>
      </trkpt>
      <trkpt lat="43.43065" lon="2.2075">
        <ele>866.62963867</ele>
        <time>2022-07-10T09:01:16Z</time>
      </trkpt>
      <trkpt lat="43.43069" lon="2.20746">
        <ele>866.42962646</ele>
        <time>2022-07-10T09:01:17Z</time>
      </trkpt>
      <trkpt lat="43.43072" lon="2.20743">
        <ele>866.24963379</ele>
        <time>2022-07-10T09:01:18Z</time>
      </trkpt>
      <trkpt lat="43.43075" lon="2.2074">
        <ele>866.10961914</ele>
        <time>2022-07-10T09:01:19Z</time>
      </trkpt>
      <trkpt lat="43.43079" lon="2.20736">
        <ele>865.68963623</ele>
        <time>2022-07-10T09:01:20Z</time>
      </trkpt>
      <trkpt lat="43.43083" lon="2.2073">
        <ele>865.43963623</ele>
        <time>2022-07-10T09:01:21Z</time>
      </trkpt>
      <trkpt lat="43.43087" lon="2.20726">
        <ele>865.22961426</ele>
        <time>2022-07-10T09:01:22Z</time>
      </trkpt>
      <trkpt lat="43.4309" lon="2.20722">
        <ele>864.77960205</ele>
        <time>2022-07-10T09:01:23Z</time>
      </trkpt>
      <trkpt lat="43.43094" lon="2.20717">
        <ele>864.50958252</ele>
        <time>2022-07-10T09:01:24Z</time>
      </trkpt>
      <trkpt lat="43.43098" lon="2.20713">
        <ele>864.10955811</ele>
        <time>2022-07-10T09:01:25Z</time>
      </trkpt>
      <trkpt lat="43.43104" lon="2.20707">
        <ele>863.60955811</ele>
        <time>2022-07-10T09:01:26Z</time>
      </trkpt>
      <trkpt lat="43.43109" lon="2.20704">
        <ele>863.23956299</ele>
        <time>2022-07-10T09:01:27Z</time>
      </trkpt>
      <trkpt lat="43.43113" lon="2.207">
        <ele>862.94958496</ele>
        <time>2022-07-10T09:01:28Z</time>
      </trkpt>
      <trkpt lat="43.43118" lon="2.20698">
        <ele>862.64959717</ele>
        <time>2022-07-10T09:01:29Z</time>
      </trkpt>
      <trkpt lat="43.43125" lon="2.20693">
        <ele>862.55957031</ele>
        <time>2022-07-10T09:01:30Z</time>
      </trkpt>
      <trkpt lat="43.4313" lon="2.20689">
        <ele>862.49957275</ele>
        <time>2022-07-10T09:01:31Z</time>
      </trkpt>
      <trkpt lat="43.43134" lon="2.20686">
        <ele>862.32958984</ele>
        <time>2022-07-10T09:01:32Z</time>
      </trkpt>
      <trkpt lat="43.43138" lon="2.20682">
        <ele>862.23956299</ele>
        <time>2022-07-10T09:01:33Z</time>
      </trkpt>
      <trkpt lat="43.43142" lon="2.20678">
        <ele>862.09954834</ele>
        <time>2022-07-10T09:01:34Z</time>
      </trkpt>
      <trkpt lat="43.43149" lon="2.20672">
        <ele>861.82952881</ele>
        <time>2022-07-10T09:01:35Z</time>
      </trkpt>
      <trkpt lat="43.43153" lon="2.20669">
        <ele>861.52954102</ele>
        <time>2022-07-10T09:01:36Z</time>
      </trkpt>
      <trkpt lat="43.43156" lon="2.20666">
        <ele>861.26953125</ele>
        <time>2022-07-10T09:01:37Z</time>
      </trkpt>
      <trkpt lat="43.43158" lon="2.20665">
        <ele>860.95953369</ele>
        <time>2022-07-10T09:01:38Z</time>
      </trkpt>
      <trkpt lat="43.4316" lon="2.20664">
        <ele>860.95953369</ele>
        <time>2022-07-10T09:01:39Z</time>
      </trkpt>
      <trkpt lat="43.43157" lon="2.20662">
        <ele>861.29956055</ele>
        <time>2022-07-10T09:01:52Z</time>
      </trkpt>
      <trkpt lat="43.43156" lon="2.2066">
        <ele>861.29956055</ele>
        <time>2022-07-10T09:01:53Z</time>
      </trkpt>
      <trkpt lat="43.43156" lon="2.20659">
        <ele>861.33953857</ele>
        <time>2022-07-10T09:01:54Z</time>
      </trkpt>
      <trkpt lat="43.43156" lon="2.20658">
        <ele>861.34954834</ele>
        <time>2022-07-10T09:01:55Z</time>
      </trkpt>
      <trkpt lat="43.43157" lon="2.20656">
        <ele>861.39953613</ele>
        <time>2022-07-10T09:02:00Z</time>
      </trkpt>
      <trkpt lat="43.43157" lon="2.20654">
        <ele>861.39953613</ele>
        <time>2022-07-10T09:02:01Z</time>
      </trkpt>
      <trkpt lat="43.43159" lon="2.20652">
        <ele>861.45953369</ele>
        <time>2022-07-10T09:02:02Z</time>
      </trkpt>
      <trkpt lat="43.43161" lon="2.20651">
        <ele>861.55950928</ele>
        <time>2022-07-10T09:02:03Z</time>
      </trkpt>
      <trkpt lat="43.43162" lon="2.20649">
        <ele>861.60949707</ele>
        <time>2022-07-10T09:02:04Z</time>
      </trkpt>
      <trkpt lat="43.43164" lon="2.20648">
        <ele>861.60949707</ele>
        <time>2022-07-10T09:02:05Z</time>
      </trkpt>
      <trkpt lat="43.43166" lon="2.20646">
        <ele>861.6295166</ele>
        <time>2022-07-10T09:02:06Z</time>
      </trkpt>
      <trkpt lat="43.43167" lon="2.20644">
        <ele>861.68951416</ele>
        <time>2022-07-10T09:02:07Z</time>
      </trkpt>
      <trkpt lat="43.43169" lon="2.20643">
        <ele>861.82952881</ele>
        <time>2022-07-10T09:02:08Z</time>
      </trkpt>
      <trkpt lat="43.4317" lon="2.20641">
        <ele>862.70953369</ele>
        <time>2022-07-10T09:02:09Z</time>
      </trkpt>
      <trkpt lat="43.43172" lon="2.20639">
        <ele>862.8795166</ele>
        <time>2022-07-10T09:02:10Z</time>
      </trkpt>
      <trkpt lat="43.43173" lon="2.20638">
        <ele>862.91949463</ele>
        <time>2022-07-10T09:02:11Z</time>
      </trkpt>
      <trkpt lat="43.43175" lon="2.20637">
        <ele>862.95947266</ele>
        <time>2022-07-10T09:02:12Z</time>
      </trkpt>
      <trkpt lat="43.43177" lon="2.20636">
        <ele>863.10949707</ele>
        <time>2022-07-10T09:02:13Z</time>
      </trkpt>
      <trkpt lat="43.43178" lon="2.20635">
        <ele>863.27947998</ele>
        <time>2022-07-10T09:02:14Z</time>
      </trkpt>
      <trkpt lat="43.43181" lon="2.20634">
        <ele>863.60949707</ele>
        <time>2022-07-10T09:02:15Z</time>
      </trkpt>
      <trkpt lat="43.43182" lon="2.20634">
        <ele>863.91949463</ele>
        <time>2022-07-10T09:02:16Z</time>
      </trkpt>
      <trkpt lat="43.43184" lon="2.20634">
        <ele>864.16949463</ele>
        <time>2022-07-10T09:02:17Z</time>
      </trkpt>
      <trkpt lat="43.43186" lon="2.20634">
        <ele>864.41949463</ele>
        <time>2022-07-10T09:02:18Z</time>
      </trkpt>
      <trkpt lat="43.43188" lon="2.20635">
        <ele>864.6494751</ele>
        <time>2022-07-10T09:02:19Z</time>
      </trkpt>
      <trkpt lat="43.43191" lon="2.20635">
        <ele>864.88946533</ele>
        <time>2022-07-10T09:02:20Z</time>
      </trkpt>
      <trkpt lat="43.43193" lon="2.20635">
        <ele>865.03948975</ele>
        <time>2022-07-10T09:02:21Z</time>
      </trkpt>
      <trkpt lat="43.43195" lon="2.20635">
        <ele>865.26947021</ele>
        <time>2022-07-10T09:02:22Z</time>
      </trkpt>
      <trkpt lat="43.43197" lon="2.20634">
        <ele>865.54949951</ele>
        <time>2022-07-10T09:02:23Z</time>
      </trkpt>
      <trkpt lat="43.432" lon="2.20632">
        <ele>865.82952881</ele>
        <time>2022-07-10T09:02:24Z</time>
      </trkpt>
      <trkpt lat="43.43202" lon="2.20631">
        <ele>866.29949951</ele>
        <time>2022-07-10T09:02:25Z</time>
      </trkpt>
      <trkpt lat="43.43203" lon="2.20631">
        <ele>866.65948486</ele>
        <time>2022-07-10T09:02:26Z</time>
      </trkpt>
      <trkpt lat="43.43205" lon="2.2063">
        <ele>867.01947021</ele>
        <time>2022-07-10T09:02:27Z</time>
      </trkpt>
      <trkpt lat="43.43207" lon="2.20631">
        <ele>867.3494873</ele>
        <time>2022-07-10T09:02:28Z</time>
      </trkpt>
      <trkpt lat="43.43209" lon="2.20632">
        <ele>867.6295166</ele>
        <time>2022-07-10T09:02:29Z</time>
      </trkpt>
      <trkpt lat="43.43211" lon="2.20633">
        <ele>867.8795166</ele>
        <time>2022-07-10T09:02:30Z</time>
      </trkpt>
      <trkpt lat="43.43212" lon="2.20633">
        <ele>868.18951416</ele>
        <time>2022-07-10T09:02:31Z</time>
      </trkpt>
      <trkpt lat="43.43212" lon="2.20634">
        <ele>868.41949463</ele>
        <time>2022-07-10T09:02:32Z</time>
      </trkpt>
      <trkpt lat="43.43215" lon="2.20633">
        <ele>868.71948242</ele>
        <time>2022-07-10T09:02:33Z</time>
      </trkpt>
      <trkpt lat="43.43217" lon="2.20631">
        <ele>869.03948975</ele>
        <time>2022-07-10T09:02:34Z</time>
      </trkpt>
      <trkpt lat="43.43219" lon="2.2063">
        <ele>869.28948975</ele>
        <time>2022-07-10T09:02:35Z</time>
      </trkpt>
      <trkpt lat="43.43221" lon="2.20629">
        <ele>869.65948486</ele>
        <time>2022-07-10T09:02:36Z</time>
      </trkpt>
      <trkpt lat="43.43223" lon="2.20628">
        <ele>869.86950684</ele>
        <time>2022-07-10T09:02:37Z</time>
      </trkpt>
      <trkpt lat="43.43226" lon="2.20628">
        <ele>870.13952637</ele>
        <time>2022-07-10T09:02:38Z</time>
      </trkpt>
      <trkpt lat="43.43229" lon="2.20627">
        <ele>870.41955566</ele>
        <time>2022-07-10T09:02:39Z</time>
      </trkpt>
      <trkpt lat="43.4323" lon="2.20629">
        <ele>870.57952881</ele>
        <time>2022-07-10T09:02:40Z</time>
      </trkpt>
      <trkpt lat="43.43232" lon="2.20629">
        <ele>870.76953125</ele>
        <time>2022-07-10T09:02:41Z</time>
      </trkpt>
      <trkpt lat="43.43235" lon="2.20628">
        <ele>870.98950195</ele>
        <time>2022-07-10T09:02:42Z</time>
      </trkpt>
      <trkpt lat="43.43237" lon="2.20628">
        <ele>871.1494751</ele>
        <time>2022-07-10T09:02:43Z</time>
      </trkpt>
      <trkpt lat="43.43238" lon="2.20628">
        <ele>871.37945557</ele>
        <time>2022-07-10T09:02:44Z</time>
      </trkpt>
      <trkpt lat="43.4324" lon="2.20627">
        <ele>871.67944336</ele>
        <time>2022-07-10T09:02:45Z</time>
      </trkpt>
      <trkpt lat="43.43242" lon="2.20628">
        <ele>871.91943359</ele>
        <time>2022-07-10T09:02:46Z</time>
      </trkpt>
      <trkpt lat="43.43244" lon="2.20628">
        <ele>872.12945557</ele>
        <time>2022-07-10T09:02:47Z</time>
      </trkpt>
      <trkpt lat="43.43245" lon="2.20628">
        <ele>872.31945801</ele>
        <time>2022-07-10T09:02:48Z</time>
      </trkpt>
      <trkpt lat="43.43246" lon="2.20628">
        <ele>872.49945068</ele>
        <time>2022-07-10T09:02:49Z</time>
      </trkpt>
      <trkpt lat="43.43248" lon="2.20627">
        <ele>872.65942383</ele>
        <time>2022-07-10T09:02:50Z</time>
      </trkpt>
      <trkpt lat="43.43251" lon="2.20627">
        <ele>872.84942627</ele>
        <time>2022-07-10T09:02:51Z</time>
      </trkpt>
      <trkpt lat="43.43252" lon="2.20627">
        <ele>873.07940674</ele>
        <time>2022-07-10T09:02:52Z</time>
      </trkpt>
      <trkpt lat="43.43253" lon="2.20627">
        <ele>873.26940918</ele>
        <time>2022-07-10T09:02:53Z</time>
      </trkpt>
      <trkpt lat="43.43254" lon="2.20627">
        <ele>873.44940186</ele>
        <time>2022-07-10T09:02:54Z</time>
      </trkpt>
      <trkpt lat="43.43256" lon="2.20626">
        <ele>873.64941406</ele>
        <time>2022-07-10T09:02:55Z</time>
      </trkpt>
      <trkpt lat="43.43259" lon="2.20625">
        <ele>873.8394165</ele>
        <time>2022-07-10T09:02:56Z</time>
      </trkpt>
      <trkpt lat="43.43261" lon="2.20625">
        <ele>874.00939941</ele>
        <time>2022-07-10T09:02:57Z</time>
      </trkpt>
      <trkpt lat="43.43263" lon="2.20625">
        <ele>874.21942139</ele>
        <time>2022-07-10T09:02:58Z</time>
      </trkpt>
      <trkpt lat="43.43265" lon="2.20625">
        <ele>874.40942383</ele>
        <time>2022-07-10T09:02:59Z</time>
      </trkpt>
      <trkpt lat="43.43266" lon="2.20624">
        <ele>874.54943848</ele>
        <time>2022-07-10T09:03:00Z</time>
      </trkpt>
      <trkpt lat="43.43268" lon="2.20624">
        <ele>874.67944336</ele>
        <time>2022-07-10T09:03:01Z</time>
      </trkpt>
      <trkpt lat="43.4327" lon="2.20623">
        <ele>874.80944824</ele>
        <time>2022-07-10T09:03:02Z</time>
      </trkpt>
      <trkpt lat="43.43271" lon="2.20622">
        <ele>874.96942139</ele>
        <time>2022-07-10T09:03:03Z</time>
      </trkpt>
      <trkpt lat="43.43273" lon="2.2062">
        <ele>875.18939209</ele>
        <time>2022-07-10T09:03:04Z</time>
      </trkpt>
      <trkpt lat="43.43275" lon="2.2062">
        <ele>875.29937744</ele>
        <time>2022-07-10T09:03:05Z</time>
      </trkpt>
      <trkpt lat="43.43276" lon="2.2062">
        <ele>875.48937988</ele>
        <time>2022-07-10T09:03:06Z</time>
      </trkpt>
      <trkpt lat="43.43278" lon="2.20619">
        <ele>875.64935303</ele>
        <time>2022-07-10T09:03:07Z</time>
      </trkpt>
      <trkpt lat="43.4328" lon="2.20617">
        <ele>875.72937012</ele>
        <time>2022-07-10T09:03:08Z</time>
      </trkpt>
      <trkpt lat="43.43281" lon="2.20615">
        <ele>876.25939941</ele>
        <time>2022-07-10T09:03:09Z</time>
      </trkpt>
      <trkpt lat="43.43283" lon="2.20612">
        <ele>876.37939453</ele>
        <time>2022-07-10T09:03:10Z</time>
      </trkpt>
      <trkpt lat="43.43284" lon="2.20611">
        <ele>876.45941162</ele>
        <time>2022-07-10T09:03:11Z</time>
      </trkpt>
      <trkpt lat="43.43285" lon="2.2061">
        <ele>876.53942871</ele>
        <time>2022-07-10T09:03:12Z</time>
      </trkpt>
      <trkpt lat="43.43286" lon="2.20607">
        <ele>876.53942871</ele>
        <time>2022-07-10T09:03:13Z</time>
      </trkpt>
      <trkpt lat="43.43288" lon="2.20605">
        <ele>876.53942871</ele>
        <time>2022-07-10T09:03:14Z</time>
      </trkpt>
      <trkpt lat="43.43289" lon="2.20602">
        <ele>876.54943848</ele>
        <time>2022-07-10T09:03:15Z</time>
      </trkpt>
      <trkpt lat="43.43291" lon="2.20601">
        <ele>876.6194458</ele>
        <time>2022-07-10T09:03:16Z</time>
      </trkpt>
      <trkpt lat="43.43293" lon="2.20598">
        <ele>876.66943359</ele>
        <time>2022-07-10T09:03:17Z</time>
      </trkpt>
      <trkpt lat="43.43296" lon="2.20595">
        <ele>876.73944092</ele>
        <time>2022-07-10T09:03:18Z</time>
      </trkpt>
      <trkpt lat="43.43296" lon="2.20594">
        <ele>876.75946045</ele>
        <time>2022-07-10T09:03:19Z</time>
      </trkpt>
      <trkpt lat="43.43297" lon="2.20593">
        <ele>876.78948975</ele>
        <time>2022-07-10T09:03:20Z</time>
      </trkpt>
      <trkpt lat="43.43298" lon="2.20591">
        <ele>876.82946777</ele>
        <time>2022-07-10T09:03:21Z</time>
      </trkpt>
      <trkpt lat="43.43301" lon="2.2059">
        <ele>876.90948486</ele>
        <time>2022-07-10T09:03:22Z</time>
      </trkpt>
      <trkpt lat="43.43302" lon="2.20588">
        <ele>877.02947998</ele>
        <time>2022-07-10T09:03:23Z</time>
      </trkpt>
      <trkpt lat="43.43304" lon="2.20586">
        <ele>877.11950684</ele>
        <time>2022-07-10T09:03:24Z</time>
      </trkpt>
      <trkpt lat="43.43306" lon="2.20585">
        <ele>877.22949219</ele>
        <time>2022-07-10T09:03:25Z</time>
      </trkpt>
      <trkpt lat="43.43307" lon="2.20583">
        <ele>877.32946777</ele>
        <time>2022-07-10T09:03:26Z</time>
      </trkpt>
      <trkpt lat="43.4331" lon="2.20581">
        <ele>877.37945557</ele>
        <time>2022-07-10T09:03:27Z</time>
      </trkpt>
      <trkpt lat="43.43312" lon="2.20581">
        <ele>877.45947266</ele>
        <time>2022-07-10T09:03:28Z</time>
      </trkpt>
      <trkpt lat="43.43313" lon="2.20581">
        <ele>877.6494751</ele>
        <time>2022-07-10T09:03:29Z</time>
      </trkpt>
      <trkpt lat="43.43314" lon="2.20581">
        <ele>877.76947021</ele>
        <time>2022-07-10T09:03:30Z</time>
      </trkpt>
      <trkpt lat="43.43316" lon="2.20579">
        <ele>877.98944092</ele>
        <time>2022-07-10T09:03:31Z</time>
      </trkpt>
      <trkpt lat="43.43318" lon="2.20577">
        <ele>878.14941406</ele>
        <time>2022-07-10T09:03:32Z</time>
      </trkpt>
      <trkpt lat="43.43318" lon="2.20576">
        <ele>878.37939453</ele>
        <time>2022-07-10T09:03:33Z</time>
      </trkpt>
      <trkpt lat="43.43319" lon="2.20575">
        <ele>878.57940674</ele>
        <time>2022-07-10T09:03:34Z</time>
      </trkpt>
      <trkpt lat="43.43321" lon="2.20576">
        <ele>878.79937744</ele>
        <time>2022-07-10T09:03:35Z</time>
      </trkpt>
      <trkpt lat="43.43325" lon="2.20573">
        <ele>879.00939941</ele>
        <time>2022-07-10T09:03:36Z</time>
      </trkpt>
      <trkpt lat="43.43326" lon="2.20571">
        <ele>879.109375</ele>
        <time>2022-07-10T09:03:37Z</time>
      </trkpt>
      <trkpt lat="43.43328" lon="2.20569">
        <ele>879.33935547</ele>
        <time>2022-07-10T09:03:38Z</time>
      </trkpt>
      <trkpt lat="43.43331" lon="2.20569">
        <ele>879.51934814</ele>
        <time>2022-07-10T09:03:39Z</time>
      </trkpt>
      <trkpt lat="43.43334" lon="2.20569">
        <ele>879.75933838</ele>
        <time>2022-07-10T09:03:40Z</time>
      </trkpt>
      <trkpt lat="43.43336" lon="2.20568">
        <ele>879.91931152</ele>
        <time>2022-07-10T09:03:41Z</time>
      </trkpt>
      <trkpt lat="43.43338" lon="2.20568">
        <ele>880.08929443</ele>
        <time>2022-07-10T09:03:42Z</time>
      </trkpt>
      <trkpt lat="43.4334" lon="2.20567">
        <ele>880.32928467</ele>
        <time>2022-07-10T09:03:43Z</time>
      </trkpt>
      <trkpt lat="43.43343" lon="2.20567">
        <ele>880.48925781</ele>
        <time>2022-07-10T09:03:44Z</time>
      </trkpt>
      <trkpt lat="43.43345" lon="2.20564">
        <ele>880.69927979</ele>
        <time>2022-07-10T09:03:45Z</time>
      </trkpt>
      <trkpt lat="43.43347" lon="2.20563">
        <ele>880.87927246</ele>
        <time>2022-07-10T09:03:46Z</time>
      </trkpt>
      <trkpt lat="43.43348" lon="2.20562">
        <ele>881.00927734</ele>
        <time>2022-07-10T09:03:47Z</time>
      </trkpt>
      <trkpt lat="43.4335" lon="2.20562">
        <ele>881.13928223</ele>
        <time>2022-07-10T09:03:48Z</time>
      </trkpt>
      <trkpt lat="43.43351" lon="2.20562">
        <ele>881.32928467</ele>
        <time>2022-07-10T09:03:49Z</time>
      </trkpt>
      <trkpt lat="43.43355" lon="2.20561">
        <ele>881.49926758</ele>
        <time>2022-07-10T09:03:50Z</time>
      </trkpt>
      <trkpt lat="43.43357" lon="2.2056">
        <ele>881.68927002</ele>
        <time>2022-07-10T09:03:51Z</time>
      </trkpt>
      <trkpt lat="43.43359" lon="2.20559">
        <ele>881.88928223</ele>
        <time>2022-07-10T09:03:52Z</time>
      </trkpt>
      <trkpt lat="43.4336" lon="2.20558">
        <ele>882.01928711</ele>
        <time>2022-07-10T09:03:53Z</time>
      </trkpt>
      <trkpt lat="43.43362" lon="2.20557">
        <ele>882.18927002</ele>
        <time>2022-07-10T09:03:54Z</time>
      </trkpt>
      <trkpt lat="43.43365" lon="2.20557">
        <ele>882.32928467</ele>
        <time>2022-07-10T09:03:55Z</time>
      </trkpt>
      <trkpt lat="43.43366" lon="2.20557">
        <ele>882.48925781</ele>
        <time>2022-07-10T09:03:56Z</time>
      </trkpt>
      <trkpt lat="43.43368" lon="2.20558">
        <ele>882.6192627</ele>
        <time>2022-07-10T09:03:57Z</time>
      </trkpt>
      <trkpt lat="43.43371" lon="2.20557">
        <ele>882.74926758</ele>
        <time>2022-07-10T09:03:58Z</time>
      </trkpt>
      <trkpt lat="43.43375" lon="2.20556">
        <ele>882.83929443</ele>
        <time>2022-07-10T09:03:59Z</time>
      </trkpt>
      <trkpt lat="43.43376" lon="2.20554">
        <ele>882.97930908</ele>
        <time>2022-07-10T09:04:00Z</time>
      </trkpt>
      <trkpt lat="43.43379" lon="2.20554">
        <ele>883.11932373</ele>
        <time>2022-07-10T09:04:01Z</time>
      </trkpt>
      <trkpt lat="43.43381" lon="2.20551">
        <ele>883.24932861</ele>
        <time>2022-07-10T09:04:02Z</time>
      </trkpt>
      <trkpt lat="43.43383" lon="2.2055">
        <ele>883.41931152</ele>
        <time>2022-07-10T09:04:03Z</time>
      </trkpt>
      <trkpt lat="43.43385" lon="2.20549">
        <ele>883.54931641</ele>
        <time>2022-07-10T09:04:04Z</time>
      </trkpt>
      <trkpt lat="43.43387" lon="2.20548">
        <ele>883.72930908</ele>
        <time>2022-07-10T09:04:05Z</time>
      </trkpt>
      <trkpt lat="43.43389" lon="2.20547">
        <ele>883.85931396</ele>
        <time>2022-07-10T09:04:06Z</time>
      </trkpt>
      <trkpt lat="43.43392" lon="2.20545">
        <ele>883.99932861</ele>
        <time>2022-07-10T09:04:07Z</time>
      </trkpt>
      <trkpt lat="43.43397" lon="2.20542">
        <ele>884.0993042</ele>
        <time>2022-07-10T09:04:08Z</time>
      </trkpt>
      <trkpt lat="43.43399" lon="2.20541">
        <ele>884.77929688</ele>
        <time>2022-07-10T09:04:09Z</time>
      </trkpt>
      <trkpt lat="43.43402" lon="2.20539">
        <ele>884.87927246</ele>
        <time>2022-07-10T09:04:10Z</time>
      </trkpt>
      <trkpt lat="43.43404" lon="2.20538">
        <ele>885.00927734</ele>
        <time>2022-07-10T09:04:11Z</time>
      </trkpt>
      <trkpt lat="43.43407" lon="2.20537">
        <ele>885.1192627</ele>
        <time>2022-07-10T09:04:12Z</time>
      </trkpt>
      <trkpt lat="43.43409" lon="2.20537">
        <ele>885.26928711</ele>
        <time>2022-07-10T09:04:13Z</time>
      </trkpt>
      <trkpt lat="43.43409" lon="2.20538">
        <ele>885.44927979</ele>
        <time>2022-07-10T09:04:14Z</time>
      </trkpt>
      <trkpt lat="43.43411" lon="2.20537">
        <ele>885.52929688</ele>
        <time>2022-07-10T09:04:15Z</time>
      </trkpt>
      <trkpt lat="43.43412" lon="2.20537">
        <ele>885.68927002</ele>
        <time>2022-07-10T09:04:16Z</time>
      </trkpt>
      <trkpt lat="43.43415" lon="2.20537">
        <ele>885.70928955</ele>
        <time>2022-07-10T09:04:17Z</time>
      </trkpt>
      <trkpt lat="43.43417" lon="2.20538">
        <ele>885.79931641</ele>
        <time>2022-07-10T09:04:18Z</time>
      </trkpt>
      <trkpt lat="43.43419" lon="2.20538">
        <ele>885.90930176</ele>
        <time>2022-07-10T09:04:19Z</time>
      </trkpt>
      <trkpt lat="43.43421" lon="2.20537">
        <ele>885.94927979</ele>
        <time>2022-07-10T09:04:20Z</time>
      </trkpt>
      <trkpt lat="43.43424" lon="2.20536">
        <ele>886.16925049</ele>
        <time>2022-07-10T09:04:21Z</time>
      </trkpt>
      <trkpt lat="43.43427" lon="2.20536">
        <ele>886.27923584</ele>
        <time>2022-07-10T09:04:22Z</time>
      </trkpt>
      <trkpt lat="43.4343" lon="2.20535">
        <ele>886.41925049</ele>
        <time>2022-07-10T09:04:23Z</time>
      </trkpt>
      <trkpt lat="43.43432" lon="2.20536">
        <ele>886.54925537</ele>
        <time>2022-07-10T09:04:24Z</time>
      </trkpt>
      <trkpt lat="43.43434" lon="2.20536">
        <ele>886.55926514</ele>
        <time>2022-07-10T09:04:25Z</time>
      </trkpt>
      <trkpt lat="43.43438" lon="2.20536">
        <ele>886.63928223</ele>
        <time>2022-07-10T09:04:26Z</time>
      </trkpt>
      <trkpt lat="43.4344" lon="2.20535">
        <ele>886.67926025</ele>
        <time>2022-07-10T09:04:27Z</time>
      </trkpt>
      <trkpt lat="43.43443" lon="2.20536">
        <ele>886.79925537</ele>
        <time>2022-07-10T09:04:28Z</time>
      </trkpt>
      <trkpt lat="43.43445" lon="2.20536">
        <ele>886.93927002</ele>
        <time>2022-07-10T09:04:29Z</time>
      </trkpt>
      <trkpt lat="43.4345" lon="2.20536">
        <ele>886.95928955</ele>
        <time>2022-07-10T09:04:30Z</time>
      </trkpt>
      <trkpt lat="43.43453" lon="2.20536">
        <ele>887.1192627</ele>
        <time>2022-07-10T09:04:31Z</time>
      </trkpt>
      <trkpt lat="43.43456" lon="2.20535">
        <ele>887.24926758</ele>
        <time>2022-07-10T09:04:32Z</time>
      </trkpt>
      <trkpt lat="43.43459" lon="2.20534">
        <ele>887.41925049</ele>
        <time>2022-07-10T09:04:33Z</time>
      </trkpt>
      <trkpt lat="43.43461" lon="2.20534">
        <ele>887.6192627</ele>
        <time>2022-07-10T09:04:34Z</time>
      </trkpt>
      <trkpt lat="43.43465" lon="2.20535">
        <ele>887.65924072</ele>
        <time>2022-07-10T09:04:35Z</time>
      </trkpt>
      <trkpt lat="43.43468" lon="2.20534">
        <ele>887.76922607</ele>
        <time>2022-07-10T09:04:36Z</time>
      </trkpt>
      <trkpt lat="43.43472" lon="2.20533">
        <ele>887.77923584</ele>
        <time>2022-07-10T09:04:37Z</time>
      </trkpt>
      <trkpt lat="43.43475" lon="2.20533">
        <ele>887.95922852</ele>
        <time>2022-07-10T09:04:38Z</time>
      </trkpt>
      <trkpt lat="43.4348" lon="2.20534">
        <ele>888.03924561</ele>
        <time>2022-07-10T09:04:39Z</time>
      </trkpt>
      <trkpt lat="43.43483" lon="2.20534">
        <ele>888.10925293</ele>
        <time>2022-07-10T09:04:40Z</time>
      </trkpt>
      <trkpt lat="43.43487" lon="2.20534">
        <ele>888.1192627</ele>
        <time>2022-07-10T09:04:41Z</time>
      </trkpt>
      <trkpt lat="43.4349" lon="2.20534">
        <ele>888.00927734</ele>
        <time>2022-07-10T09:04:42Z</time>
      </trkpt>
      <trkpt lat="43.43492" lon="2.20534">
        <ele>888.08929443</ele>
        <time>2022-07-10T09:04:43Z</time>
      </trkpt>
      <trkpt lat="43.43495" lon="2.20535">
        <ele>888.16931152</ele>
        <time>2022-07-10T09:04:44Z</time>
      </trkpt>
      <trkpt lat="43.43497" lon="2.20536">
        <ele>888.24932861</ele>
        <time>2022-07-10T09:04:45Z</time>
      </trkpt>
      <trkpt lat="43.43499" lon="2.20536">
        <ele>888.3293457</ele>
        <time>2022-07-10T09:04:46Z</time>
      </trkpt>
      <trkpt lat="43.435" lon="2.20536">
        <ele>888.29931641</ele>
        <time>2022-07-10T09:04:47Z</time>
      </trkpt>
      <trkpt lat="43.43503" lon="2.20536">
        <ele>888.25933838</ele>
        <time>2022-07-10T09:04:48Z</time>
      </trkpt>
      <trkpt lat="43.43505" lon="2.20536">
        <ele>888.21936035</ele>
        <time>2022-07-10T09:04:49Z</time>
      </trkpt>
      <trkpt lat="43.43506" lon="2.20536">
        <ele>888.09936523</ele>
        <time>2022-07-10T09:04:50Z</time>
      </trkpt>
      <trkpt lat="43.43509" lon="2.20537">
        <ele>888.00933838</ele>
        <time>2022-07-10T09:04:51Z</time>
      </trkpt>
      <trkpt lat="43.43512" lon="2.20537">
        <ele>887.79931641</ele>
        <time>2022-07-10T09:04:52Z</time>
      </trkpt>
      <trkpt lat="43.43514" lon="2.20537">
        <ele>887.6293335</ele>
        <time>2022-07-10T09:04:53Z</time>
      </trkpt>
      <trkpt lat="43.43515" lon="2.20538">
        <ele>887.52935791</ele>
        <time>2022-07-10T09:04:54Z</time>
      </trkpt>
      <trkpt lat="43.43517" lon="2.20537">
        <ele>887.41937256</ele>
        <time>2022-07-10T09:04:55Z</time>
      </trkpt>
      <trkpt lat="43.43519" lon="2.20538">
        <ele>887.36938477</ele>
        <time>2022-07-10T09:04:56Z</time>
      </trkpt>
      <trkpt lat="43.43523" lon="2.20538">
        <ele>887.359375</ele>
        <time>2022-07-10T09:04:57Z</time>
      </trkpt>
      <trkpt lat="43.43526" lon="2.20539">
        <ele>887.22937012</ele>
        <time>2022-07-10T09:04:58Z</time>
      </trkpt>
      <trkpt lat="43.43528" lon="2.20538">
        <ele>887.03936768</ele>
        <time>2022-07-10T09:04:59Z</time>
      </trkpt>
      <trkpt lat="43.43531" lon="2.20539">
        <ele>886.74938965</ele>
        <time>2022-07-10T09:05:00Z</time>
      </trkpt>
      <trkpt lat="43.43532" lon="2.20539">
        <ele>886.41937256</ele>
        <time>2022-07-10T09:05:01Z</time>
      </trkpt>
      <trkpt lat="43.43535" lon="2.20539">
        <ele>886.109375</ele>
        <time>2022-07-10T09:05:02Z</time>
      </trkpt>
      <trkpt lat="43.43538" lon="2.20539">
        <ele>885.859375</ele>
        <time>2022-07-10T09:05:03Z</time>
      </trkpt>
      <trkpt lat="43.4354" lon="2.2054">
        <ele>885.61938477</ele>
        <time>2022-07-10T09:05:04Z</time>
      </trkpt>
      <trkpt lat="43.43542" lon="2.20539">
        <ele>885.28936768</ele>
        <time>2022-07-10T09:05:05Z</time>
      </trkpt>
      <trkpt lat="43.43544" lon="2.20539">
        <ele>884.99938965</ele>
        <time>2022-07-10T09:05:06Z</time>
      </trkpt>
      <trkpt lat="43.43547" lon="2.20538">
        <ele>884.55938721</ele>
        <time>2022-07-10T09:05:07Z</time>
      </trkpt>
      <trkpt lat="43.4355" lon="2.20539">
        <ele>884.28936768</ele>
        <time>2022-07-10T09:05:08Z</time>
      </trkpt>
      <trkpt lat="43.43552" lon="2.2054">
        <ele>883.90936279</ele>
        <time>2022-07-10T09:05:09Z</time>
      </trkpt>
      <trkpt lat="43.43555" lon="2.20541">
        <ele>883.54937744</ele>
        <time>2022-07-10T09:05:10Z</time>
      </trkpt>
      <trkpt lat="43.43559" lon="2.20541">
        <ele>883.29937744</ele>
        <time>2022-07-10T09:05:11Z</time>
      </trkpt>
      <trkpt lat="43.43562" lon="2.20542">
        <ele>882.93939209</ele>
        <time>2022-07-10T09:05:12Z</time>
      </trkpt>
      <trkpt lat="43.43564" lon="2.20542">
        <ele>882.70941162</ele>
        <time>2022-07-10T09:05:13Z</time>
      </trkpt>
      <trkpt lat="43.43567" lon="2.20544">
        <ele>882.28942871</ele>
        <time>2022-07-10T09:05:14Z</time>
      </trkpt>
      <trkpt lat="43.43572" lon="2.20545">
        <ele>881.8394165</ele>
        <time>2022-07-10T09:05:15Z</time>
      </trkpt>
      <trkpt lat="43.43575" lon="2.20548">
        <ele>881.29943848</ele>
        <time>2022-07-10T09:05:16Z</time>
      </trkpt>
      <trkpt lat="43.43578" lon="2.20549">
        <ele>880.87945557</ele>
        <time>2022-07-10T09:05:17Z</time>
      </trkpt>
      <trkpt lat="43.4358" lon="2.2055">
        <ele>880.52947998</ele>
        <time>2022-07-10T09:05:18Z</time>
      </trkpt>
      <trkpt lat="43.43582" lon="2.20551">
        <ele>880.12945557</ele>
        <time>2022-07-10T09:05:19Z</time>
      </trkpt>
      <trkpt lat="43.43586" lon="2.20552">
        <ele>879.82946777</ele>
        <time>2022-07-10T09:05:20Z</time>
      </trkpt>
      <trkpt lat="43.43588" lon="2.20552">
        <ele>879.43945312</ele>
        <time>2022-07-10T09:05:21Z</time>
      </trkpt>
      <trkpt lat="43.4359" lon="2.20552">
        <ele>879.10943604</ele>
        <time>2022-07-10T09:05:22Z</time>
      </trkpt>
      <trkpt lat="43.43592" lon="2.20552">
        <ele>878.82940674</ele>
        <time>2022-07-10T09:05:23Z</time>
      </trkpt>
      <trkpt lat="43.43596" lon="2.20553">
        <ele>878.46942139</ele>
        <time>2022-07-10T09:05:24Z</time>
      </trkpt>
      <trkpt lat="43.43598" lon="2.20555">
        <ele>878.09942627</ele>
        <time>2022-07-10T09:05:25Z</time>
      </trkpt>
      <trkpt lat="43.436" lon="2.20555">
        <ele>877.79943848</ele>
        <time>2022-07-10T09:05:26Z</time>
      </trkpt>
      <trkpt lat="43.43602" lon="2.20556">
        <ele>877.51940918</ele>
        <time>2022-07-10T09:05:27Z</time>
      </trkpt>
      <trkpt lat="43.43606" lon="2.20556">
        <ele>877.11938477</ele>
        <time>2022-07-10T09:05:28Z</time>
      </trkpt>
      <trkpt lat="43.43608" lon="2.20557">
        <ele>876.73937988</ele>
        <time>2022-07-10T09:05:29Z</time>
      </trkpt>
      <trkpt lat="43.43611" lon="2.20558">
        <ele>876.16937256</ele>
        <time>2022-07-10T09:05:30Z</time>
      </trkpt>
      <trkpt lat="43.43614" lon="2.20558">
        <ele>875.46936035</ele>
        <time>2022-07-10T09:05:31Z</time>
      </trkpt>
      <trkpt lat="43.43618" lon="2.20558">
        <ele>874.97937012</ele>
        <time>2022-07-10T09:05:32Z</time>
      </trkpt>
      <trkpt lat="43.43624" lon="2.20561">
        <ele>874.24938965</ele>
        <time>2022-07-10T09:05:33Z</time>
      </trkpt>
      <trkpt lat="43.43628" lon="2.20561">
        <ele>873.71936035</ele>
        <time>2022-07-10T09:05:34Z</time>
      </trkpt>
      <trkpt lat="43.43631" lon="2.20562">
        <ele>873.06933594</ele>
        <time>2022-07-10T09:05:35Z</time>
      </trkpt>
      <trkpt lat="43.43635" lon="2.20564">
        <ele>872.27935791</ele>
        <time>2022-07-10T09:05:36Z</time>
      </trkpt>
      <trkpt lat="43.43638" lon="2.20564">
        <ele>871.8293457</ele>
        <time>2022-07-10T09:05:37Z</time>
      </trkpt>
      <trkpt lat="43.43642" lon="2.20566">
        <ele>871.20935059</ele>
        <time>2022-07-10T09:05:38Z</time>
      </trkpt>
      <trkpt lat="43.43646" lon="2.20566">
        <ele>870.89935303</ele>
        <time>2022-07-10T09:05:39Z</time>
      </trkpt>
      <trkpt lat="43.43648" lon="2.20567">
        <ele>870.49932861</ele>
        <time>2022-07-10T09:05:40Z</time>
      </trkpt>
      <trkpt lat="43.43651" lon="2.20568">
        <ele>870.15930176</ele>
        <time>2022-07-10T09:05:41Z</time>
      </trkpt>
      <trkpt lat="43.43656" lon="2.20568">
        <ele>869.76928711</ele>
        <time>2022-07-10T09:05:42Z</time>
      </trkpt>
      <trkpt lat="43.43659" lon="2.20568">
        <ele>869.22930908</ele>
        <time>2022-07-10T09:05:43Z</time>
      </trkpt>
      <trkpt lat="43.43663" lon="2.20568">
        <ele>868.85931396</ele>
        <time>2022-07-10T09:05:44Z</time>
      </trkpt>
      <trkpt lat="43.43665" lon="2.20568">
        <ele>868.26928711</ele>
        <time>2022-07-10T09:05:45Z</time>
      </trkpt>
      <trkpt lat="43.43668" lon="2.20569">
        <ele>867.73925781</ele>
        <time>2022-07-10T09:05:46Z</time>
      </trkpt>
      <trkpt lat="43.43672" lon="2.20571">
        <ele>867.44927979</ele>
        <time>2022-07-10T09:05:47Z</time>
      </trkpt>
      <trkpt lat="43.43675" lon="2.20571">
        <ele>866.70928955</ele>
        <time>2022-07-10T09:05:48Z</time>
      </trkpt>
      <trkpt lat="43.43678" lon="2.20572">
        <ele>866.21929932</ele>
        <time>2022-07-10T09:05:49Z</time>
      </trkpt>
      <trkpt lat="43.43681" lon="2.20572">
        <ele>865.79931641</ele>
        <time>2022-07-10T09:05:50Z</time>
      </trkpt>
      <trkpt lat="43.43685" lon="2.20574">
        <ele>865.23931885</ele>
        <time>2022-07-10T09:05:51Z</time>
      </trkpt>
      <trkpt lat="43.43689" lon="2.20574">
        <ele>865.10931396</ele>
        <time>2022-07-10T09:05:52Z</time>
      </trkpt>
      <trkpt lat="43.43692" lon="2.20576">
        <ele>864.61932373</ele>
        <time>2022-07-10T09:05:53Z</time>
      </trkpt>
      <trkpt lat="43.43694" lon="2.20577">
        <ele>864.17932129</ele>
        <time>2022-07-10T09:05:54Z</time>
      </trkpt>
      <trkpt lat="43.43698" lon="2.20579">
        <ele>863.92932129</ele>
        <time>2022-07-10T09:05:55Z</time>
      </trkpt>
      <trkpt lat="43.43702" lon="2.20579">
        <ele>863.67932129</ele>
        <time>2022-07-10T09:05:56Z</time>
      </trkpt>
      <trkpt lat="43.43705" lon="2.2058">
        <ele>863.45935059</ele>
        <time>2022-07-10T09:05:57Z</time>
      </trkpt>
      <trkpt lat="43.43709" lon="2.20582">
        <ele>863.22937012</ele>
        <time>2022-07-10T09:05:58Z</time>
      </trkpt>
      <trkpt lat="43.43712" lon="2.20583">
        <ele>862.84936523</ele>
        <time>2022-07-10T09:05:59Z</time>
      </trkpt>
      <trkpt lat="43.43719" lon="2.20583">
        <ele>862.49938965</ele>
        <time>2022-07-10T09:06:00Z</time>
      </trkpt>
      <trkpt lat="43.43723" lon="2.20582">
        <ele>862.40936279</ele>
        <time>2022-07-10T09:06:01Z</time>
      </trkpt>
      <trkpt lat="43.43727" lon="2.20582">
        <ele>862.39935303</ele>
        <time>2022-07-10T09:06:02Z</time>
      </trkpt>
      <trkpt lat="43.43731" lon="2.20583">
        <ele>862.28936768</ele>
        <time>2022-07-10T09:06:03Z</time>
      </trkpt>
      <trkpt lat="43.43735" lon="2.20583">
        <ele>862.14935303</ele>
        <time>2022-07-10T09:06:04Z</time>
      </trkpt>
      <trkpt lat="43.4374" lon="2.20584">
        <ele>861.88934326</ele>
        <time>2022-07-10T09:06:05Z</time>
      </trkpt>
      <trkpt lat="43.43743" lon="2.20585">
        <ele>861.65936279</ele>
        <time>2022-07-10T09:06:06Z</time>
      </trkpt>
      <trkpt lat="43.43746" lon="2.20585">
        <ele>861.45935059</ele>
        <time>2022-07-10T09:06:07Z</time>
      </trkpt>
      <trkpt lat="43.43748" lon="2.20585">
        <ele>861.38934326</ele>
        <time>2022-07-10T09:06:08Z</time>
      </trkpt>
      <trkpt lat="43.43753" lon="2.20585">
        <ele>861.33935547</ele>
        <time>2022-07-10T09:06:09Z</time>
      </trkpt>
      <trkpt lat="43.43755" lon="2.20586">
        <ele>861.23937988</ele>
        <time>2022-07-10T09:06:10Z</time>
      </trkpt>
      <trkpt lat="43.43758" lon="2.20586">
        <ele>861.24938965</ele>
        <time>2022-07-10T09:06:11Z</time>
      </trkpt>
      <trkpt lat="43.43761" lon="2.20587">
        <ele>861.16937256</ele>
        <time>2022-07-10T09:06:12Z</time>
      </trkpt>
      <trkpt lat="43.43764" lon="2.20586">
        <ele>861.06939697</ele>
        <time>2022-07-10T09:06:13Z</time>
      </trkpt>
      <trkpt lat="43.43767" lon="2.20587">
        <ele>861.00939941</ele>
        <time>2022-07-10T09:06:14Z</time>
      </trkpt>
      <trkpt lat="43.4377" lon="2.20587">
        <ele>860.86938477</ele>
        <time>2022-07-10T09:06:15Z</time>
      </trkpt>
      <trkpt lat="43.43772" lon="2.20587">
        <ele>860.71936035</ele>
        <time>2022-07-10T09:06:16Z</time>
      </trkpt>
      <trkpt lat="43.43775" lon="2.20587">
        <ele>860.54937744</ele>
        <time>2022-07-10T09:06:17Z</time>
      </trkpt>
      <trkpt lat="43.43779" lon="2.20588">
        <ele>860.34936523</ele>
        <time>2022-07-10T09:06:18Z</time>
      </trkpt>
      <trkpt lat="43.43781" lon="2.20588">
        <ele>860.20935059</ele>
        <time>2022-07-10T09:06:19Z</time>
      </trkpt>
      <trkpt lat="43.43784" lon="2.20588">
        <ele>860.09936523</ele>
        <time>2022-07-10T09:06:20Z</time>
      </trkpt>
      <trkpt lat="43.43786" lon="2.20588">
        <ele>860.02935791</ele>
        <time>2022-07-10T09:06:21Z</time>
      </trkpt>
      <trkpt lat="43.43789" lon="2.20588">
        <ele>859.95935059</ele>
        <time>2022-07-10T09:06:22Z</time>
      </trkpt>
      <trkpt lat="43.43792" lon="2.20589">
        <ele>859.93933105</ele>
        <time>2022-07-10T09:06:23Z</time>
      </trkpt>
      <trkpt lat="43.43795" lon="2.20589">
        <ele>859.90930176</ele>
        <time>2022-07-10T09:06:24Z</time>
      </trkpt>
      <trkpt lat="43.43797" lon="2.20589">
        <ele>859.83929443</ele>
        <time>2022-07-10T09:06:25Z</time>
      </trkpt>
      <trkpt lat="43.438" lon="2.2059">
        <ele>859.64929199</ele>
        <time>2022-07-10T09:06:26Z</time>
      </trkpt>
      <trkpt lat="43.43803" lon="2.20592">
        <ele>859.44927979</ele>
        <time>2022-07-10T09:06:27Z</time>
      </trkpt>
      <trkpt lat="43.43806" lon="2.20593">
        <ele>859.00927734</ele>
        <time>2022-07-10T09:06:28Z</time>
      </trkpt>
      <trkpt lat="43.43809" lon="2.20593">
        <ele>858.63928223</ele>
        <time>2022-07-10T09:06:29Z</time>
      </trkpt>
      <trkpt lat="43.43811" lon="2.20594">
        <ele>858.35925293</ele>
        <time>2022-07-10T09:06:30Z</time>
      </trkpt>
      <trkpt lat="43.43814" lon="2.20595">
        <ele>858.1192627</ele>
        <time>2022-07-10T09:06:31Z</time>
      </trkpt>
      <trkpt lat="43.43816" lon="2.20596">
        <ele>858.16925049</ele>
        <time>2022-07-10T09:06:32Z</time>
      </trkpt>
      <trkpt lat="43.43818" lon="2.20597">
        <ele>858.21923828</ele>
        <time>2022-07-10T09:06:33Z</time>
      </trkpt>
      <trkpt lat="43.4382" lon="2.20597">
        <ele>858.28924561</ele>
        <time>2022-07-10T09:06:34Z</time>
      </trkpt>
      <trkpt lat="43.43822" lon="2.20598">
        <ele>858.3192749</ele>
        <time>2022-07-10T09:06:35Z</time>
      </trkpt>
      <trkpt lat="43.43826" lon="2.20598">
        <ele>858.19927979</ele>
        <time>2022-07-10T09:06:36Z</time>
      </trkpt>
      <trkpt lat="43.43828" lon="2.20597">
        <ele>858.05926514</ele>
        <time>2022-07-10T09:06:37Z</time>
      </trkpt>
      <trkpt lat="43.4383" lon="2.20597">
        <ele>857.98925781</ele>
        <time>2022-07-10T09:06:38Z</time>
      </trkpt>
      <trkpt lat="43.43833" lon="2.20597">
        <ele>857.8392334</ele>
        <time>2022-07-10T09:06:39Z</time>
      </trkpt>
      <trkpt lat="43.43835" lon="2.20599">
        <ele>857.79925537</ele>
        <time>2022-07-10T09:06:40Z</time>
      </trkpt>
      <trkpt lat="43.43838" lon="2.206">
        <ele>857.82928467</ele>
        <time>2022-07-10T09:06:41Z</time>
      </trkpt>
      <trkpt lat="43.4384" lon="2.20602">
        <ele>857.75927734</ele>
        <time>2022-07-10T09:06:42Z</time>
      </trkpt>
      <trkpt lat="43.43842" lon="2.20604">
        <ele>857.75927734</ele>
        <time>2022-07-10T09:06:43Z</time>
      </trkpt>
      <trkpt lat="43.43845" lon="2.20605">
        <ele>857.76928711</ele>
        <time>2022-07-10T09:06:44Z</time>
      </trkpt>
      <trkpt lat="43.43849" lon="2.20607">
        <ele>857.57928467</ele>
        <time>2022-07-10T09:06:45Z</time>
      </trkpt>
      <trkpt lat="43.43852" lon="2.20608">
        <ele>857.57928467</ele>
        <time>2022-07-10T09:06:46Z</time>
      </trkpt>
      <trkpt lat="43.43854" lon="2.20608">
        <ele>857.5993042</ele>
        <time>2022-07-10T09:06:47Z</time>
      </trkpt>
      <trkpt lat="43.43857" lon="2.20609">
        <ele>857.60931396</ele>
        <time>2022-07-10T09:06:48Z</time>
      </trkpt>
      <trkpt lat="43.43859" lon="2.2061">
        <ele>857.71929932</ele>
        <time>2022-07-10T09:06:49Z</time>
      </trkpt>
      <trkpt lat="43.43863" lon="2.20611">
        <ele>857.64929199</ele>
        <time>2022-07-10T09:06:50Z</time>
      </trkpt>
      <trkpt lat="43.43864" lon="2.20612">
        <ele>857.54931641</ele>
        <time>2022-07-10T09:06:51Z</time>
      </trkpt>
      <trkpt lat="43.43866" lon="2.20614">
        <ele>857.45928955</ele>
        <time>2022-07-10T09:06:52Z</time>
      </trkpt>
      <trkpt lat="43.43869" lon="2.20616">
        <ele>857.35931396</ele>
        <time>2022-07-10T09:06:53Z</time>
      </trkpt>
      <trkpt lat="43.43874" lon="2.20617">
        <ele>857.3493042</ele>
        <time>2022-07-10T09:06:54Z</time>
      </trkpt>
      <trkpt lat="43.43876" lon="2.20618">
        <ele>857.38928223</ele>
        <time>2022-07-10T09:06:55Z</time>
      </trkpt>
      <trkpt lat="43.43879" lon="2.20619">
        <ele>857.38928223</ele>
        <time>2022-07-10T09:06:56Z</time>
      </trkpt>
      <trkpt lat="43.43882" lon="2.2062">
        <ele>857.44927979</ele>
        <time>2022-07-10T09:06:57Z</time>
      </trkpt>
      <trkpt lat="43.43886" lon="2.20621">
        <ele>857.44927979</ele>
        <time>2022-07-10T09:06:58Z</time>
      </trkpt>
      <trkpt lat="43.43889" lon="2.20622">
        <ele>857.42926025</ele>
        <time>2022-07-10T09:06:59Z</time>
      </trkpt>
      <trkpt lat="43.43891" lon="2.20623">
        <ele>857.41925049</ele>
        <time>2022-07-10T09:07:00Z</time>
      </trkpt>
      <trkpt lat="43.43893" lon="2.20624">
        <ele>857.30926514</ele>
        <time>2022-07-10T09:07:01Z</time>
      </trkpt>
      <trkpt lat="43.43896" lon="2.20625">
        <ele>857.24926758</ele>
        <time>2022-07-10T09:07:02Z</time>
      </trkpt>
      <trkpt lat="43.439" lon="2.20627">
        <ele>857.16925049</ele>
        <time>2022-07-10T09:07:03Z</time>
      </trkpt>
      <trkpt lat="43.43902" lon="2.20627">
        <ele>857.10925293</ele>
        <time>2022-07-10T09:07:04Z</time>
      </trkpt>
      <trkpt lat="43.43904" lon="2.20628">
        <ele>857.13928223</ele>
        <time>2022-07-10T09:07:05Z</time>
      </trkpt>
      <trkpt lat="43.43907" lon="2.20629">
        <ele>857.23925781</ele>
        <time>2022-07-10T09:07:06Z</time>
      </trkpt>
      <trkpt lat="43.4391" lon="2.20631">
        <ele>857.26928711</ele>
        <time>2022-07-10T09:07:07Z</time>
      </trkpt>
      <trkpt lat="43.43913" lon="2.20632">
        <ele>857.32928467</ele>
        <time>2022-07-10T09:07:08Z</time>
      </trkpt>
      <trkpt lat="43.43915" lon="2.20632">
        <ele>857.3192749</ele>
        <time>2022-07-10T09:07:09Z</time>
      </trkpt>
      <trkpt lat="43.43917" lon="2.20634">
        <ele>857.24926758</ele>
        <time>2022-07-10T09:07:10Z</time>
      </trkpt>
      <trkpt lat="43.4392" lon="2.20635">
        <ele>857.24926758</ele>
        <time>2022-07-10T09:07:11Z</time>
      </trkpt>
      <trkpt lat="43.43923" lon="2.20636">
        <ele>857.18927002</ele>
        <time>2022-07-10T09:07:12Z</time>
      </trkpt>
      <trkpt lat="43.43925" lon="2.20636">
        <ele>857.27929688</ele>
        <time>2022-07-10T09:07:13Z</time>
      </trkpt>
      <trkpt lat="43.43928" lon="2.20638">
        <ele>857.38928223</ele>
        <time>2022-07-10T09:07:14Z</time>
      </trkpt>
      <trkpt lat="43.4393" lon="2.2064">
        <ele>857.48925781</ele>
        <time>2022-07-10T09:07:15Z</time>
      </trkpt>
      <trkpt lat="43.43931" lon="2.20642">
        <ele>857.55926514</ele>
        <time>2022-07-10T09:07:16Z</time>
      </trkpt>
      <trkpt lat="43.43933" lon="2.20643">
        <ele>857.72924805</ele>
        <time>2022-07-10T09:07:17Z</time>
      </trkpt>
      <trkpt lat="43.43936" lon="2.20644">
        <ele>857.84924316</ele>
        <time>2022-07-10T09:07:18Z</time>
      </trkpt>
      <trkpt lat="43.43939" lon="2.20645">
        <ele>858.04925537</ele>
        <time>2022-07-10T09:07:19Z</time>
      </trkpt>
      <trkpt lat="43.43943" lon="2.20645">
        <ele>858.32928467</ele>
        <time>2022-07-10T09:07:20Z</time>
      </trkpt>
      <trkpt lat="43.43947" lon="2.20645">
        <ele>858.40930176</ele>
        <time>2022-07-10T09:07:21Z</time>
      </trkpt>
      <trkpt lat="43.4395" lon="2.20647">
        <ele>858.50927734</ele>
        <time>2022-07-10T09:07:22Z</time>
      </trkpt>
      <trkpt lat="43.43954" lon="2.20647">
        <ele>858.58929443</ele>
        <time>2022-07-10T09:07:23Z</time>
      </trkpt>
      <trkpt lat="43.43958" lon="2.20646">
        <ele>858.66931152</ele>
        <time>2022-07-10T09:07:24Z</time>
      </trkpt>
      <trkpt lat="43.43961" lon="2.20647">
        <ele>858.81933594</ele>
        <time>2022-07-10T09:07:25Z</time>
      </trkpt>
      <trkpt lat="43.43964" lon="2.20649">
        <ele>858.94934082</ele>
        <time>2022-07-10T09:07:26Z</time>
      </trkpt>
      <trkpt lat="43.43966" lon="2.2065">
        <ele>858.99932861</ele>
        <time>2022-07-10T09:07:27Z</time>
      </trkpt>
      <trkpt lat="43.43969" lon="2.20649">
        <ele>859.06933594</ele>
        <time>2022-07-10T09:07:28Z</time>
      </trkpt>
      <trkpt lat="43.43971" lon="2.20648">
        <ele>859.06933594</ele>
        <time>2022-07-10T09:07:29Z</time>
      </trkpt>
      <trkpt lat="43.43974" lon="2.20648">
        <ele>859.19934082</ele>
        <time>2022-07-10T09:07:30Z</time>
      </trkpt>
      <trkpt lat="43.43977" lon="2.20649">
        <ele>859.35931396</ele>
        <time>2022-07-10T09:07:31Z</time>
      </trkpt>
      <trkpt lat="43.4398" lon="2.20651">
        <ele>859.48931885</ele>
        <time>2022-07-10T09:07:32Z</time>
      </trkpt>
      <trkpt lat="43.43983" lon="2.20652">
        <ele>859.70928955</ele>
        <time>2022-07-10T09:07:33Z</time>
      </trkpt>
      <trkpt lat="43.43985" lon="2.20653">
        <ele>859.82928467</ele>
        <time>2022-07-10T09:07:34Z</time>
      </trkpt>
      <trkpt lat="43.43989" lon="2.20654">
        <ele>860.10931396</ele>
        <time>2022-07-10T09:07:35Z</time>
      </trkpt>
      <trkpt lat="43.43992" lon="2.20655">
        <ele>860.21929932</ele>
        <time>2022-07-10T09:07:36Z</time>
      </trkpt>
      <trkpt lat="43.43994" lon="2.20656">
        <ele>860.26928711</ele>
        <time>2022-07-10T09:07:37Z</time>
      </trkpt>
      <trkpt lat="43.43997" lon="2.20656">
        <ele>860.29931641</ele>
        <time>2022-07-10T09:07:38Z</time>
      </trkpt>
      <trkpt lat="43.44002" lon="2.20657">
        <ele>860.20928955</ele>
        <time>2022-07-10T09:07:39Z</time>
      </trkpt>
      <trkpt lat="43.44005" lon="2.20658">
        <ele>860.33929443</ele>
        <time>2022-07-10T09:07:40Z</time>
      </trkpt>
      <trkpt lat="43.44008" lon="2.20659">
        <ele>860.39929199</ele>
        <time>2022-07-10T09:07:41Z</time>
      </trkpt>
      <trkpt lat="43.44011" lon="2.20661">
        <ele>860.50927734</ele>
        <time>2022-07-10T09:07:42Z</time>
      </trkpt>
      <trkpt lat="43.44014" lon="2.20661">
        <ele>860.5993042</ele>
        <time>2022-07-10T09:07:43Z</time>
      </trkpt>
      <trkpt lat="43.44018" lon="2.20662">
        <ele>860.63928223</ele>
        <time>2022-07-10T09:07:44Z</time>
      </trkpt>
      <trkpt lat="43.44021" lon="2.20663">
        <ele>860.80926514</ele>
        <time>2022-07-10T09:07:45Z</time>
      </trkpt>
      <trkpt lat="43.44023" lon="2.20663">
        <ele>860.84924316</ele>
        <time>2022-07-10T09:07:46Z</time>
      </trkpt>
      <trkpt lat="43.44025" lon="2.20664">
        <ele>860.99926758</ele>
        <time>2022-07-10T09:07:47Z</time>
      </trkpt>
      <trkpt lat="43.44029" lon="2.20665">
        <ele>861.15924072</ele>
        <time>2022-07-10T09:07:48Z</time>
      </trkpt>
      <trkpt lat="43.44031" lon="2.20666">
        <ele>861.19921875</ele>
        <time>2022-07-10T09:07:49Z</time>
      </trkpt>
      <trkpt lat="43.44034" lon="2.20668">
        <ele>861.41918945</ele>
        <time>2022-07-10T09:07:50Z</time>
      </trkpt>
      <trkpt lat="43.44037" lon="2.20669">
        <ele>861.54919434</ele>
        <time>2022-07-10T09:07:51Z</time>
      </trkpt>
      <trkpt lat="43.44039" lon="2.2067">
        <ele>861.57922363</ele>
        <time>2022-07-10T09:07:52Z</time>
      </trkpt>
      <trkpt lat="43.44042" lon="2.20673">
        <ele>861.79919434</ele>
        <time>2022-07-10T09:07:53Z</time>
      </trkpt>
      <trkpt lat="43.44044" lon="2.20674">
        <ele>861.93920898</ele>
        <time>2022-07-10T09:07:54Z</time>
      </trkpt>
      <trkpt lat="43.44047" lon="2.20676">
        <ele>862.20922852</ele>
        <time>2022-07-10T09:07:55Z</time>
      </trkpt>
      <trkpt lat="43.4405" lon="2.20677">
        <ele>862.54925537</ele>
        <time>2022-07-10T09:07:56Z</time>
      </trkpt>
      <trkpt lat="43.44053" lon="2.2068">
        <ele>862.75927734</ele>
        <time>2022-07-10T09:07:57Z</time>
      </trkpt>
      <trkpt lat="43.44055" lon="2.20681">
        <ele>862.99926758</ele>
        <time>2022-07-10T09:07:58Z</time>
      </trkpt>
      <trkpt lat="43.44057" lon="2.20683">
        <ele>863.02929688</ele>
        <time>2022-07-10T09:07:59Z</time>
      </trkpt>
      <trkpt lat="43.44059" lon="2.20685">
        <ele>863.12927246</ele>
        <time>2022-07-10T09:08:00Z</time>
      </trkpt>
      <trkpt lat="43.44062" lon="2.20686">
        <ele>863.23925781</ele>
        <time>2022-07-10T09:08:01Z</time>
      </trkpt>
      <trkpt lat="43.44066" lon="2.20688">
        <ele>863.37927246</ele>
        <time>2022-07-10T09:08:02Z</time>
      </trkpt>
      <trkpt lat="43.44068" lon="2.20689">
        <ele>863.68927002</ele>
        <time>2022-07-10T09:08:03Z</time>
      </trkpt>
      <trkpt lat="43.44069" lon="2.20691">
        <ele>863.83929443</ele>
        <time>2022-07-10T09:08:04Z</time>
      </trkpt>
      <trkpt lat="43.44072" lon="2.20693">
        <ele>863.89929199</ele>
        <time>2022-07-10T09:08:05Z</time>
      </trkpt>
      <trkpt lat="43.44077" lon="2.20698">
        <ele>864.02929688</ele>
        <time>2022-07-10T09:08:06Z</time>
      </trkpt>
      <trkpt lat="43.44079" lon="2.20699">
        <ele>864.05932617</ele>
        <time>2022-07-10T09:08:07Z</time>
      </trkpt>
      <trkpt lat="43.44081" lon="2.20701">
        <ele>864.23931885</ele>
        <time>2022-07-10T09:08:08Z</time>
      </trkpt>
      <trkpt lat="43.44084" lon="2.20702">
        <ele>864.49932861</ele>
        <time>2022-07-10T09:08:09Z</time>
      </trkpt>
      <trkpt lat="43.44086" lon="2.20704">
        <ele>864.6293335</ele>
        <time>2022-07-10T09:08:10Z</time>
      </trkpt>
      <trkpt lat="43.44087" lon="2.20705">
        <ele>864.80932617</ele>
        <time>2022-07-10T09:08:11Z</time>
      </trkpt>
      <trkpt lat="43.44088" lon="2.20706">
        <ele>864.96929932</ele>
        <time>2022-07-10T09:08:12Z</time>
      </trkpt>
      <trkpt lat="43.44089" lon="2.20708">
        <ele>865.17932129</ele>
        <time>2022-07-10T09:08:13Z</time>
      </trkpt>
      <trkpt lat="43.4409" lon="2.20711">
        <ele>865.28930664</ele>
        <time>2022-07-10T09:08:14Z</time>
      </trkpt>
      <trkpt lat="43.44092" lon="2.20714">
        <ele>865.35931396</ele>
        <time>2022-07-10T09:08:15Z</time>
      </trkpt>
      <trkpt lat="43.44094" lon="2.20715">
        <ele>865.48931885</ele>
        <time>2022-07-10T09:08:16Z</time>
      </trkpt>
      <trkpt lat="43.44095" lon="2.20717">
        <ele>865.67932129</ele>
        <time>2022-07-10T09:08:17Z</time>
      </trkpt>
      <trkpt lat="43.44097" lon="2.20718">
        <ele>865.88934326</ele>
        <time>2022-07-10T09:08:18Z</time>
      </trkpt>
      <trkpt lat="43.44099" lon="2.20719">
        <ele>866.09936523</ele>
        <time>2022-07-10T09:08:19Z</time>
      </trkpt>
      <trkpt lat="43.44101" lon="2.2072">
        <ele>866.30938721</ele>
        <time>2022-07-10T09:08:20Z</time>
      </trkpt>
      <trkpt lat="43.44104" lon="2.20722">
        <ele>866.41937256</ele>
        <time>2022-07-10T09:08:21Z</time>
      </trkpt>
      <trkpt lat="43.44106" lon="2.20723">
        <ele>866.63934326</ele>
        <time>2022-07-10T09:08:22Z</time>
      </trkpt>
      <trkpt lat="43.44108" lon="2.20724">
        <ele>866.80932617</ele>
        <time>2022-07-10T09:08:23Z</time>
      </trkpt>
      <trkpt lat="43.4411" lon="2.20726">
        <ele>867.11932373</ele>
        <time>2022-07-10T09:08:24Z</time>
      </trkpt>
      <trkpt lat="43.44111" lon="2.20727">
        <ele>867.39935303</ele>
        <time>2022-07-10T09:08:25Z</time>
      </trkpt>
      <trkpt lat="43.44112" lon="2.20729">
        <ele>867.609375</ele>
        <time>2022-07-10T09:08:26Z</time>
      </trkpt>
      <trkpt lat="43.44113" lon="2.20731">
        <ele>867.91937256</ele>
        <time>2022-07-10T09:08:27Z</time>
      </trkpt>
      <trkpt lat="43.44116" lon="2.20734">
        <ele>867.91937256</ele>
        <time>2022-07-10T09:08:28Z</time>
      </trkpt>
      <trkpt lat="43.44118" lon="2.20736">
        <ele>867.93939209</ele>
        <time>2022-07-10T09:08:29Z</time>
      </trkpt>
      <trkpt lat="43.44121" lon="2.20737">
        <ele>868.12939453</ele>
        <time>2022-07-10T09:08:30Z</time>
      </trkpt>
      <trkpt lat="43.44123" lon="2.20739">
        <ele>868.20941162</ele>
        <time>2022-07-10T09:08:31Z</time>
      </trkpt>
      <trkpt lat="43.44125" lon="2.20742">
        <ele>868.44940186</ele>
        <time>2022-07-10T09:08:32Z</time>
      </trkpt>
      <trkpt lat="43.44128" lon="2.20745">
        <ele>868.65942383</ele>
        <time>2022-07-10T09:08:33Z</time>
      </trkpt>
      <trkpt lat="43.44129" lon="2.20746">
        <ele>868.82940674</ele>
        <time>2022-07-10T09:08:34Z</time>
      </trkpt>
      <trkpt lat="43.44131" lon="2.20749">
        <ele>868.95941162</ele>
        <time>2022-07-10T09:08:35Z</time>
      </trkpt>
      <trkpt lat="43.44133" lon="2.20751">
        <ele>869.06939697</ele>
        <time>2022-07-10T09:08:36Z</time>
      </trkpt>
      <trkpt lat="43.44135" lon="2.20754">
        <ele>869.29937744</ele>
        <time>2022-07-10T09:08:37Z</time>
      </trkpt>
      <trkpt lat="43.44138" lon="2.20757">
        <ele>869.47937012</ele>
        <time>2022-07-10T09:08:38Z</time>
      </trkpt>
      <trkpt lat="43.4414" lon="2.20759">
        <ele>869.79937744</ele>
        <time>2022-07-10T09:08:39Z</time>
      </trkpt>
      <trkpt lat="43.44142" lon="2.20761">
        <ele>870.12939453</ele>
        <time>2022-07-10T09:08:40Z</time>
      </trkpt>
      <trkpt lat="43.44143" lon="2.20762">
        <ele>870.32940674</ele>
        <time>2022-07-10T09:08:41Z</time>
      </trkpt>
      <trkpt lat="43.44145" lon="2.20764">
        <ele>870.54937744</ele>
        <time>2022-07-10T09:08:42Z</time>
      </trkpt>
      <trkpt lat="43.44147" lon="2.20766">
        <ele>870.71936035</ele>
        <time>2022-07-10T09:08:43Z</time>
      </trkpt>
      <trkpt lat="43.4415" lon="2.20768">
        <ele>870.95935059</ele>
        <time>2022-07-10T09:08:44Z</time>
      </trkpt>
      <trkpt lat="43.44151" lon="2.20771">
        <ele>871.26934814</ele>
        <time>2022-07-10T09:08:45Z</time>
      </trkpt>
      <trkpt lat="43.44153" lon="2.20774">
        <ele>871.43933105</ele>
        <time>2022-07-10T09:08:46Z</time>
      </trkpt>
      <trkpt lat="43.44154" lon="2.20777">
        <ele>871.8493042</ele>
        <time>2022-07-10T09:08:47Z</time>
      </trkpt>
      <trkpt lat="43.44155" lon="2.2078">
        <ele>872.14929199</ele>
        <time>2022-07-10T09:08:48Z</time>
      </trkpt>
      <trkpt lat="43.44157" lon="2.20783">
        <ele>872.52929688</ele>
        <time>2022-07-10T09:08:49Z</time>
      </trkpt>
      <trkpt lat="43.44157" lon="2.20785">
        <ele>873.08929443</ele>
        <time>2022-07-10T09:08:50Z</time>
      </trkpt>
      <trkpt lat="43.44158" lon="2.20789">
        <ele>873.42932129</ele>
        <time>2022-07-10T09:08:51Z</time>
      </trkpt>
      <trkpt lat="43.4416" lon="2.20791">
        <ele>873.79931641</ele>
        <time>2022-07-10T09:08:52Z</time>
      </trkpt>
      <trkpt lat="43.44161" lon="2.20793">
        <ele>874.1293335</ele>
        <time>2022-07-10T09:08:53Z</time>
      </trkpt>
      <trkpt lat="43.44162" lon="2.20795">
        <ele>874.41931152</ele>
        <time>2022-07-10T09:08:54Z</time>
      </trkpt>
      <trkpt lat="43.44163" lon="2.20798">
        <ele>874.77929688</ele>
        <time>2022-07-10T09:08:55Z</time>
      </trkpt>
      <trkpt lat="43.44165" lon="2.20802">
        <ele>875.13928223</ele>
        <time>2022-07-10T09:08:56Z</time>
      </trkpt>
      <trkpt lat="43.44166" lon="2.20804">
        <ele>875.30926514</ele>
        <time>2022-07-10T09:08:57Z</time>
      </trkpt>
      <trkpt lat="43.44167" lon="2.20807">
        <ele>875.65924072</ele>
        <time>2022-07-10T09:08:58Z</time>
      </trkpt>
      <trkpt lat="43.44167" lon="2.20809">
        <ele>875.8692627</ele>
        <time>2022-07-10T09:08:59Z</time>
      </trkpt>
      <trkpt lat="43.44169" lon="2.20813">
        <ele>875.98925781</ele>
        <time>2022-07-10T09:09:00Z</time>
      </trkpt>
      <trkpt lat="43.4417" lon="2.20815">
        <ele>876.32928467</ele>
        <time>2022-07-10T09:09:01Z</time>
      </trkpt>
      <trkpt lat="43.44171" lon="2.20817">
        <ele>876.3692627</ele>
        <time>2022-07-10T09:09:02Z</time>
      </trkpt>
      <trkpt lat="43.44172" lon="2.20818">
        <ele>876.60925293</ele>
        <time>2022-07-10T09:09:03Z</time>
      </trkpt>
      <trkpt lat="43.44174" lon="2.20823">
        <ele>876.85925293</ele>
        <time>2022-07-10T09:09:04Z</time>
      </trkpt>
      <trkpt lat="43.44174" lon="2.20826">
        <ele>877.09924316</ele>
        <time>2022-07-10T09:09:05Z</time>
      </trkpt>
      <trkpt lat="43.44175" lon="2.20829">
        <ele>877.42926025</ele>
        <time>2022-07-10T09:09:06Z</time>
      </trkpt>
      <trkpt lat="43.44177" lon="2.20832">
        <ele>877.6192627</ele>
        <time>2022-07-10T09:09:07Z</time>
      </trkpt>
      <trkpt lat="43.44178" lon="2.20835">
        <ele>877.88928223</ele>
        <time>2022-07-10T09:09:08Z</time>
      </trkpt>
      <trkpt lat="43.44181" lon="2.2084">
        <ele>878.82928467</ele>
        <time>2022-07-10T09:09:09Z</time>
      </trkpt>
      <trkpt lat="43.44182" lon="2.20844">
        <ele>878.95928955</ele>
        <time>2022-07-10T09:09:10Z</time>
      </trkpt>
      <trkpt lat="43.44183" lon="2.20848">
        <ele>879.10931396</ele>
        <time>2022-07-10T09:09:11Z</time>
      </trkpt>
      <trkpt lat="43.44184" lon="2.2085">
        <ele>879.36932373</ele>
        <time>2022-07-10T09:09:12Z</time>
      </trkpt>
      <trkpt lat="43.44185" lon="2.20853">
        <ele>879.48931885</ele>
        <time>2022-07-10T09:09:13Z</time>
      </trkpt>
      <trkpt lat="43.44186" lon="2.20856">
        <ele>879.6293335</ele>
        <time>2022-07-10T09:09:14Z</time>
      </trkpt>
      <trkpt lat="43.44188" lon="2.20858">
        <ele>879.79931641</ele>
        <time>2022-07-10T09:09:15Z</time>
      </trkpt>
      <trkpt lat="43.44188" lon="2.20859">
        <ele>879.83929443</ele>
        <time>2022-07-10T09:09:16Z</time>
      </trkpt>
      <trkpt lat="43.44189" lon="2.20861">
        <ele>880.04931641</ele>
        <time>2022-07-10T09:09:17Z</time>
      </trkpt>
      <trkpt lat="43.4419" lon="2.20863">
        <ele>880.25933838</ele>
        <time>2022-07-10T09:09:18Z</time>
      </trkpt>
      <trkpt lat="43.44191" lon="2.20867">
        <ele>880.46936035</ele>
        <time>2022-07-10T09:09:19Z</time>
      </trkpt>
      <trkpt lat="43.44193" lon="2.2087">
        <ele>880.609375</ele>
        <time>2022-07-10T09:09:20Z</time>
      </trkpt>
      <trkpt lat="43.44194" lon="2.20872">
        <ele>880.68939209</ele>
        <time>2022-07-10T09:09:21Z</time>
      </trkpt>
      <trkpt lat="43.44195" lon="2.20875">
        <ele>880.79937744</ele>
        <time>2022-07-10T09:09:22Z</time>
      </trkpt>
      <trkpt lat="43.44197" lon="2.20879">
        <ele>880.87939453</ele>
        <time>2022-07-10T09:09:23Z</time>
      </trkpt>
      <trkpt lat="43.44198" lon="2.20883">
        <ele>880.94940186</ele>
        <time>2022-07-10T09:09:24Z</time>
      </trkpt>
      <trkpt lat="43.44199" lon="2.20886">
        <ele>881.03942871</ele>
        <time>2022-07-10T09:09:25Z</time>
      </trkpt>
      <trkpt lat="43.442" lon="2.20888">
        <ele>881.1394043</ele>
        <time>2022-07-10T09:09:26Z</time>
      </trkpt>
      <trkpt lat="43.44202" lon="2.2089">
        <ele>881.30938721</ele>
        <time>2022-07-10T09:09:27Z</time>
      </trkpt>
      <trkpt lat="43.44203" lon="2.20893">
        <ele>881.43939209</ele>
        <time>2022-07-10T09:09:28Z</time>
      </trkpt>
      <trkpt lat="43.44203" lon="2.20895">
        <ele>881.50939941</ele>
        <time>2022-07-10T09:09:29Z</time>
      </trkpt>
      <trkpt lat="43.44204" lon="2.20897">
        <ele>881.66937256</ele>
        <time>2022-07-10T09:09:30Z</time>
      </trkpt>
      <trkpt lat="43.44205" lon="2.209">
        <ele>881.76934814</ele>
        <time>2022-07-10T09:09:31Z</time>
      </trkpt>
      <trkpt lat="43.44206" lon="2.20905">
        <ele>882.00933838</ele>
        <time>2022-07-10T09:09:32Z</time>
      </trkpt>
      <trkpt lat="43.44206" lon="2.20908">
        <ele>882.28936768</ele>
        <time>2022-07-10T09:09:33Z</time>
      </trkpt>
      <trkpt lat="43.44207" lon="2.2091">
        <ele>882.52935791</ele>
        <time>2022-07-10T09:09:34Z</time>
      </trkpt>
      <trkpt lat="43.44209" lon="2.20914">
        <ele>882.67938232</ele>
        <time>2022-07-10T09:09:35Z</time>
      </trkpt>
      <trkpt lat="43.4421" lon="2.20917">
        <ele>882.86938477</ele>
        <time>2022-07-10T09:09:36Z</time>
      </trkpt>
      <trkpt lat="43.4421" lon="2.20919">
        <ele>883.04937744</ele>
        <time>2022-07-10T09:09:37Z</time>
      </trkpt>
      <trkpt lat="43.44211" lon="2.20922">
        <ele>883.18939209</ele>
        <time>2022-07-10T09:09:38Z</time>
      </trkpt>
      <trkpt lat="43.44212" lon="2.20924">
        <ele>883.52941895</ele>
        <time>2022-07-10T09:09:39Z</time>
      </trkpt>
      <trkpt lat="43.44213" lon="2.20928">
        <ele>883.68939209</ele>
        <time>2022-07-10T09:09:40Z</time>
      </trkpt>
      <trkpt lat="43.44214" lon="2.2093">
        <ele>883.90936279</ele>
        <time>2022-07-10T09:09:41Z</time>
      </trkpt>
      <trkpt lat="43.44215" lon="2.20933">
        <ele>884.09936523</ele>
        <time>2022-07-10T09:09:42Z</time>
      </trkpt>
      <trkpt lat="43.44216" lon="2.20935">
        <ele>884.19934082</ele>
        <time>2022-07-10T09:09:43Z</time>
      </trkpt>
      <trkpt lat="43.44218" lon="2.20939">
        <ele>884.39935303</ele>
        <time>2022-07-10T09:09:44Z</time>
      </trkpt>
      <trkpt lat="43.4422" lon="2.20943">
        <ele>884.49932861</ele>
        <time>2022-07-10T09:09:45Z</time>
      </trkpt>
      <trkpt lat="43.44221" lon="2.20945">
        <ele>884.66931152</ele>
        <time>2022-07-10T09:09:46Z</time>
      </trkpt>
      <trkpt lat="43.44222" lon="2.20948">
        <ele>884.8493042</ele>
        <time>2022-07-10T09:09:47Z</time>
      </trkpt>
      <trkpt lat="43.44223" lon="2.20951">
        <ele>884.97930908</ele>
        <time>2022-07-10T09:09:48Z</time>
      </trkpt>
      <trkpt lat="43.44224" lon="2.20953">
        <ele>885.13928223</ele>
        <time>2022-07-10T09:09:49Z</time>
      </trkpt>
      <trkpt lat="43.44225" lon="2.20957">
        <ele>885.22930908</ele>
        <time>2022-07-10T09:09:50Z</time>
      </trkpt>
      <trkpt lat="43.44227" lon="2.2096">
        <ele>885.25933838</ele>
        <time>2022-07-10T09:09:51Z</time>
      </trkpt>
      <trkpt lat="43.44229" lon="2.20964">
        <ele>885.36932373</ele>
        <time>2022-07-10T09:09:52Z</time>
      </trkpt>
      <trkpt lat="43.4423" lon="2.20966">
        <ele>885.45935059</ele>
        <time>2022-07-10T09:09:53Z</time>
      </trkpt>
      <trkpt lat="43.44231" lon="2.2097">
        <ele>885.64935303</ele>
        <time>2022-07-10T09:09:54Z</time>
      </trkpt>
      <trkpt lat="43.44232" lon="2.20972">
        <ele>885.90936279</ele>
        <time>2022-07-10T09:09:55Z</time>
      </trkpt>
      <trkpt lat="43.44233" lon="2.20976">
        <ele>886.03936768</ele>
        <time>2022-07-10T09:09:56Z</time>
      </trkpt>
      <trkpt lat="43.44234" lon="2.20979">
        <ele>886.27935791</ele>
        <time>2022-07-10T09:09:57Z</time>
      </trkpt>
      <trkpt lat="43.44235" lon="2.20984">
        <ele>886.51934814</ele>
        <time>2022-07-10T09:09:58Z</time>
      </trkpt>
      <trkpt lat="43.44236" lon="2.20986">
        <ele>886.69934082</ele>
        <time>2022-07-10T09:09:59Z</time>
      </trkpt>
      <trkpt lat="43.44237" lon="2.20988">
        <ele>887.00933838</ele>
        <time>2022-07-10T09:10:00Z</time>
      </trkpt>
      <trkpt lat="43.44238" lon="2.20991">
        <ele>887.21936035</ele>
        <time>2022-07-10T09:10:01Z</time>
      </trkpt>
      <trkpt lat="43.44239" lon="2.20992">
        <ele>887.33935547</ele>
        <time>2022-07-10T09:10:02Z</time>
      </trkpt>
      <trkpt lat="43.44241" lon="2.20995">
        <ele>887.59936523</ele>
        <time>2022-07-10T09:10:03Z</time>
      </trkpt>
      <trkpt lat="43.44241" lon="2.20997">
        <ele>887.75933838</ele>
        <time>2022-07-10T09:10:04Z</time>
      </trkpt>
      <trkpt lat="43.44242" lon="2.20999">
        <ele>887.93933105</ele>
        <time>2022-07-10T09:10:05Z</time>
      </trkpt>
      <trkpt lat="43.44243" lon="2.21002">
        <ele>888.15930176</ele>
        <time>2022-07-10T09:10:06Z</time>
      </trkpt>
      <trkpt lat="43.44244" lon="2.21006">
        <ele>888.38928223</ele>
        <time>2022-07-10T09:10:07Z</time>
      </trkpt>
      <trkpt lat="43.44246" lon="2.21009">
        <ele>888.70928955</ele>
        <time>2022-07-10T09:10:08Z</time>
      </trkpt>
      <trkpt lat="43.44248" lon="2.21012">
        <ele>889.5993042</ele>
        <time>2022-07-10T09:10:09Z</time>
      </trkpt>
      <trkpt lat="43.44249" lon="2.21015">
        <ele>889.93933105</ele>
        <time>2022-07-10T09:10:10Z</time>
      </trkpt>
      <trkpt lat="43.44249" lon="2.21018">
        <ele>890.14935303</ele>
        <time>2022-07-10T09:10:11Z</time>
      </trkpt>
      <trkpt lat="43.4425" lon="2.21022">
        <ele>890.27935791</ele>
        <time>2022-07-10T09:10:12Z</time>
      </trkpt>
      <trkpt lat="43.44251" lon="2.21025">
        <ele>890.47937012</ele>
        <time>2022-07-10T09:10:13Z</time>
      </trkpt>
      <trkpt lat="43.44251" lon="2.21027">
        <ele>890.65936279</ele>
        <time>2022-07-10T09:10:14Z</time>
      </trkpt>
      <trkpt lat="43.44252" lon="2.2103">
        <ele>890.88934326</ele>
        <time>2022-07-10T09:10:15Z</time>
      </trkpt>
      <trkpt lat="43.44253" lon="2.21033">
        <ele>891.13934326</ele>
        <time>2022-07-10T09:10:16Z</time>
      </trkpt>
      <trkpt lat="43.44255" lon="2.21038">
        <ele>891.30932617</ele>
        <time>2022-07-10T09:10:17Z</time>
      </trkpt>
      <trkpt lat="43.44256" lon="2.21041">
        <ele>891.48931885</ele>
        <time>2022-07-10T09:10:18Z</time>
      </trkpt>
      <trkpt lat="43.44256" lon="2.21044">
        <ele>891.58929443</ele>
        <time>2022-07-10T09:10:19Z</time>
      </trkpt>
      <trkpt lat="43.44257" lon="2.21047">
        <ele>891.74926758</ele>
        <time>2022-07-10T09:10:20Z</time>
      </trkpt>
      <trkpt lat="43.44258" lon="2.21052">
        <ele>891.84924316</ele>
        <time>2022-07-10T09:10:21Z</time>
      </trkpt>
      <trkpt lat="43.44259" lon="2.21055">
        <ele>891.94921875</ele>
        <time>2022-07-10T09:10:22Z</time>
      </trkpt>
      <trkpt lat="43.44259" lon="2.21057">
        <ele>892.07922363</ele>
        <time>2022-07-10T09:10:23Z</time>
      </trkpt>
      <trkpt lat="43.4426" lon="2.2106">
        <ele>892.0892334</ele>
        <time>2022-07-10T09:10:24Z</time>
      </trkpt>
      <trkpt lat="43.44262" lon="2.21066">
        <ele>892.0892334</ele>
        <time>2022-07-10T09:10:25Z</time>
      </trkpt>
      <trkpt lat="43.44263" lon="2.21069">
        <ele>892.09924316</ele>
        <time>2022-07-10T09:10:26Z</time>
      </trkpt>
      <trkpt lat="43.44265" lon="2.21071">
        <ele>892.19921875</ele>
        <time>2022-07-10T09:10:27Z</time>
      </trkpt>
      <trkpt lat="43.44265" lon="2.21074">
        <ele>892.39923096</ele>
        <time>2022-07-10T09:10:28Z</time>
      </trkpt>
      <trkpt lat="43.44266" lon="2.21077">
        <ele>892.67926025</ele>
        <time>2022-07-10T09:10:29Z</time>
      </trkpt>
      <trkpt lat="43.44267" lon="2.2108">
        <ele>892.92926025</ele>
        <time>2022-07-10T09:10:30Z</time>
      </trkpt>
      <trkpt lat="43.44268" lon="2.21082">
        <ele>893.0892334</ele>
        <time>2022-07-10T09:10:31Z</time>
      </trkpt>
      <trkpt lat="43.44269" lon="2.21085">
        <ele>893.18920898</ele>
        <time>2022-07-10T09:10:32Z</time>
      </trkpt>
      <trkpt lat="43.44269" lon="2.21086">
        <ele>893.26922607</ele>
        <time>2022-07-10T09:10:33Z</time>
      </trkpt>
      <trkpt lat="43.4427" lon="2.21087">
        <ele>893.26922607</ele>
        <time>2022-07-10T09:10:34Z</time>
      </trkpt>
      <trkpt lat="43.44272" lon="2.2109">
        <ele>893.25921631</ele>
        <time>2022-07-10T09:10:35Z</time>
      </trkpt>
      <trkpt lat="43.44273" lon="2.21092">
        <ele>893.13922119</ele>
        <time>2022-07-10T09:10:36Z</time>
      </trkpt>
      <trkpt lat="43.44276" lon="2.21093">
        <ele>893.01922607</ele>
        <time>2022-07-10T09:10:37Z</time>
      </trkpt>
      <trkpt lat="43.44278" lon="2.21094">
        <ele>892.81921387</ele>
        <time>2022-07-10T09:10:38Z</time>
      </trkpt>
      <trkpt lat="43.4428" lon="2.21096">
        <ele>892.69921875</ele>
        <time>2022-07-10T09:10:39Z</time>
      </trkpt>
      <trkpt lat="43.44283" lon="2.21097">
        <ele>892.62921143</ele>
        <time>2022-07-10T09:10:40Z</time>
      </trkpt>
      <trkpt lat="43.44286" lon="2.21099">
        <ele>892.51922607</ele>
        <time>2022-07-10T09:10:41Z</time>
      </trkpt>
      <trkpt lat="43.44287" lon="2.21103">
        <ele>892.49920654</ele>
        <time>2022-07-10T09:10:42Z</time>
      </trkpt>
      <trkpt lat="43.4429" lon="2.21104">
        <ele>892.36920166</ele>
        <time>2022-07-10T09:10:43Z</time>
      </trkpt>
      <trkpt lat="43.44294" lon="2.21107">
        <ele>892.13922119</ele>
        <time>2022-07-10T09:10:44Z</time>
      </trkpt>
      <trkpt lat="43.44295" lon="2.2111">
        <ele>892.02923584</ele>
        <time>2022-07-10T09:10:45Z</time>
      </trkpt>
      <trkpt lat="43.44297" lon="2.21113">
        <ele>891.89923096</ele>
        <time>2022-07-10T09:10:46Z</time>
      </trkpt>
      <trkpt lat="43.44298" lon="2.21114">
        <ele>891.73925781</ele>
        <time>2022-07-10T09:10:47Z</time>
      </trkpt>
      <trkpt lat="43.443" lon="2.21117">
        <ele>891.66925049</ele>
        <time>2022-07-10T09:10:48Z</time>
      </trkpt>
      <trkpt lat="43.44302" lon="2.2112">
        <ele>891.41925049</ele>
        <time>2022-07-10T09:10:49Z</time>
      </trkpt>
      <trkpt lat="43.44304" lon="2.21123">
        <ele>891.20922852</ele>
        <time>2022-07-10T09:10:50Z</time>
      </trkpt>
      <trkpt lat="43.44305" lon="2.21126">
        <ele>891.18920898</ele>
        <time>2022-07-10T09:10:51Z</time>
      </trkpt>
      <trkpt lat="43.44307" lon="2.21128">
        <ele>890.98919678</ele>
        <time>2022-07-10T09:10:52Z</time>
      </trkpt>
      <trkpt lat="43.44309" lon="2.21133">
        <ele>890.96917725</ele>
        <time>2022-07-10T09:10:53Z</time>
      </trkpt>
      <trkpt lat="43.44311" lon="2.21135">
        <ele>890.67919922</ele>
        <time>2022-07-10T09:10:54Z</time>
      </trkpt>
      <trkpt lat="43.44314" lon="2.21138">
        <ele>890.04919434</ele>
        <time>2022-07-10T09:10:55Z</time>
      </trkpt>
      <trkpt lat="43.44317" lon="2.21141">
        <ele>889.73919678</ele>
        <time>2022-07-10T09:10:56Z</time>
      </trkpt>
      <trkpt lat="43.44321" lon="2.21144">
        <ele>889.28918457</ele>
        <time>2022-07-10T09:10:57Z</time>
      </trkpt>
      <trkpt lat="43.44325" lon="2.21145">
        <ele>889.0791626</ele>
        <time>2022-07-10T09:10:58Z</time>
      </trkpt>
      <trkpt lat="43.44327" lon="2.21147">
        <ele>889.06915283</ele>
        <time>2022-07-10T09:10:59Z</time>
      </trkpt>
      <trkpt lat="43.4433" lon="2.21148">
        <ele>888.95916748</ele>
        <time>2022-07-10T09:11:00Z</time>
      </trkpt>
      <trkpt lat="43.44332" lon="2.2115">
        <ele>888.68914795</ele>
        <time>2022-07-10T09:11:01Z</time>
      </trkpt>
      <trkpt lat="43.44335" lon="2.21153">
        <ele>888.42913818</ele>
        <time>2022-07-10T09:11:02Z</time>
      </trkpt>
      <trkpt lat="43.44337" lon="2.21153">
        <ele>888.12915039</ele>
        <time>2022-07-10T09:11:03Z</time>
      </trkpt>
      <trkpt lat="43.4434" lon="2.21155">
        <ele>887.75915527</ele>
        <time>2022-07-10T09:11:04Z</time>
      </trkpt>
      <trkpt lat="43.44342" lon="2.21155">
        <ele>887.61914062</ele>
        <time>2022-07-10T09:11:05Z</time>
      </trkpt>
      <trkpt lat="43.44347" lon="2.21159">
        <ele>887.26916504</ele>
        <time>2022-07-10T09:11:06Z</time>
      </trkpt>
      <trkpt lat="43.44348" lon="2.21161">
        <ele>886.99914551</ele>
        <time>2022-07-10T09:11:07Z</time>
      </trkpt>
      <trkpt lat="43.4435" lon="2.21164">
        <ele>886.78912354</ele>
        <time>2022-07-10T09:11:08Z</time>
      </trkpt>
      <trkpt lat="43.44353" lon="2.21166">
        <ele>886.50909424</ele>
        <time>2022-07-10T09:11:09Z</time>
      </trkpt>
      <trkpt lat="43.44358" lon="2.21168">
        <ele>886.57910156</ele>
        <time>2022-07-10T09:11:10Z</time>
      </trkpt>
      <trkpt lat="43.44362" lon="2.2117">
        <ele>886.46911621</ele>
        <time>2022-07-10T09:11:11Z</time>
      </trkpt>
      <trkpt lat="43.44366" lon="2.21173">
        <ele>886.25909424</ele>
        <time>2022-07-10T09:11:12Z</time>
      </trkpt>
      <trkpt lat="43.4437" lon="2.21176">
        <ele>886.07910156</ele>
        <time>2022-07-10T09:11:13Z</time>
      </trkpt>
      <trkpt lat="43.44373" lon="2.21177">
        <ele>885.77911377</ele>
        <time>2022-07-10T09:11:14Z</time>
      </trkpt>
      <trkpt lat="43.44378" lon="2.21179">
        <ele>885.60913086</ele>
        <time>2022-07-10T09:11:15Z</time>
      </trkpt>
      <trkpt lat="43.44382" lon="2.21181">
        <ele>885.50915527</ele>
        <time>2022-07-10T09:11:16Z</time>
      </trkpt>
      <trkpt lat="43.44385" lon="2.21183">
        <ele>885.38916016</ele>
        <time>2022-07-10T09:11:17Z</time>
      </trkpt>
      <trkpt lat="43.44389" lon="2.21184">
        <ele>885.08917236</ele>
        <time>2022-07-10T09:11:18Z</time>
      </trkpt>
      <trkpt lat="43.44394" lon="2.21187">
        <ele>884.87915039</ele>
        <time>2022-07-10T09:11:19Z</time>
      </trkpt>
      <trkpt lat="43.44396" lon="2.2119">
        <ele>884.70916748</ele>
        <time>2022-07-10T09:11:20Z</time>
      </trkpt>
      <trkpt lat="43.444" lon="2.21193">
        <ele>884.5291748</ele>
        <time>2022-07-10T09:11:21Z</time>
      </trkpt>
      <trkpt lat="43.44405" lon="2.21195">
        <ele>884.48919678</ele>
        <time>2022-07-10T09:11:22Z</time>
      </trkpt>
      <trkpt lat="43.44408" lon="2.21198">
        <ele>884.45916748</ele>
        <time>2022-07-10T09:11:23Z</time>
      </trkpt>
      <trkpt lat="43.44414" lon="2.21203">
        <ele>884.31915283</ele>
        <time>2022-07-10T09:11:24Z</time>
      </trkpt>
      <trkpt lat="43.44419" lon="2.21205">
        <ele>884.23913574</ele>
        <time>2022-07-10T09:11:25Z</time>
      </trkpt>
      <trkpt lat="43.44422" lon="2.21208">
        <ele>884.17913818</ele>
        <time>2022-07-10T09:11:26Z</time>
      </trkpt>
      <trkpt lat="43.44426" lon="2.21212">
        <ele>884.03912354</ele>
        <time>2022-07-10T09:11:27Z</time>
      </trkpt>
      <trkpt lat="43.44432" lon="2.21217">
        <ele>883.99914551</ele>
        <time>2022-07-10T09:11:28Z</time>
      </trkpt>
      <trkpt lat="43.44436" lon="2.2122">
        <ele>883.98913574</ele>
        <time>2022-07-10T09:11:29Z</time>
      </trkpt>
      <trkpt lat="43.4444" lon="2.21222">
        <ele>883.95910645</ele>
        <time>2022-07-10T09:11:30Z</time>
      </trkpt>
      <trkpt lat="43.44444" lon="2.21224">
        <ele>883.87908936</ele>
        <time>2022-07-10T09:11:31Z</time>
      </trkpt>
      <trkpt lat="43.44446" lon="2.21225">
        <ele>883.82910156</ele>
        <time>2022-07-10T09:11:32Z</time>
      </trkpt>
      <trkpt lat="43.44451" lon="2.21229">
        <ele>883.79907227</ele>
        <time>2022-07-10T09:11:33Z</time>
      </trkpt>
      <trkpt lat="43.44454" lon="2.21232">
        <ele>883.74908447</ele>
        <time>2022-07-10T09:11:34Z</time>
      </trkpt>
      <trkpt lat="43.44458" lon="2.21234">
        <ele>883.769104</ele>
        <time>2022-07-10T09:11:35Z</time>
      </trkpt>
      <trkpt lat="43.44462" lon="2.21236">
        <ele>883.83911133</ele>
        <time>2022-07-10T09:11:36Z</time>
      </trkpt>
      <trkpt lat="43.44465" lon="2.21238">
        <ele>883.89910889</ele>
        <time>2022-07-10T09:11:37Z</time>
      </trkpt>
      <trkpt lat="43.4447" lon="2.21241">
        <ele>884.00909424</ele>
        <time>2022-07-10T09:11:38Z</time>
      </trkpt>
      <trkpt lat="43.44474" lon="2.21242">
        <ele>884.05908203</ele>
        <time>2022-07-10T09:11:39Z</time>
      </trkpt>
      <trkpt lat="43.44476" lon="2.21244">
        <ele>884.08911133</ele>
        <time>2022-07-10T09:11:40Z</time>
      </trkpt>
      <trkpt lat="43.44478" lon="2.21245">
        <ele>884.0491333</ele>
        <time>2022-07-10T09:11:41Z</time>
      </trkpt>
      <trkpt lat="43.44483" lon="2.21247">
        <ele>884.0491333</ele>
        <time>2022-07-10T09:11:42Z</time>
      </trkpt>
      <trkpt lat="43.44485" lon="2.21248">
        <ele>884.19915771</ele>
        <time>2022-07-10T09:11:43Z</time>
      </trkpt>
      <trkpt lat="43.44488" lon="2.2125">
        <ele>884.24914551</ele>
        <time>2022-07-10T09:11:44Z</time>
      </trkpt>
      <trkpt lat="43.44491" lon="2.21251">
        <ele>884.3291626</ele>
        <time>2022-07-10T09:11:45Z</time>
      </trkpt>
      <trkpt lat="43.44494" lon="2.21253">
        <ele>884.30914307</ele>
        <time>2022-07-10T09:11:46Z</time>
      </trkpt>
      <trkpt lat="43.44498" lon="2.21255">
        <ele>884.24914551</ele>
        <time>2022-07-10T09:11:47Z</time>
      </trkpt>
      <trkpt lat="43.445" lon="2.21256">
        <ele>884.19915771</ele>
        <time>2022-07-10T09:11:48Z</time>
      </trkpt>
      <trkpt lat="43.44503" lon="2.21257">
        <ele>884.11914062</ele>
        <time>2022-07-10T09:11:49Z</time>
      </trkpt>
      <trkpt lat="43.44505" lon="2.21258">
        <ele>884.06915283</ele>
        <time>2022-07-10T09:11:50Z</time>
      </trkpt>
      <trkpt lat="43.44508" lon="2.21261">
        <ele>884.0291748</ele>
        <time>2022-07-10T09:11:51Z</time>
      </trkpt>
      <trkpt lat="43.4451" lon="2.21262">
        <ele>884.0291748</ele>
        <time>2022-07-10T09:11:52Z</time>
      </trkpt>
      <trkpt lat="43.44513" lon="2.21264">
        <ele>884.06915283</ele>
        <time>2022-07-10T09:11:53Z</time>
      </trkpt>
      <trkpt lat="43.44515" lon="2.21265">
        <ele>884.10913086</ele>
        <time>2022-07-10T09:11:54Z</time>
      </trkpt>
      <trkpt lat="43.44519" lon="2.21267">
        <ele>884.14910889</ele>
        <time>2022-07-10T09:11:55Z</time>
      </trkpt>
      <trkpt lat="43.44521" lon="2.21269">
        <ele>884.18908691</ele>
        <time>2022-07-10T09:11:56Z</time>
      </trkpt>
      <trkpt lat="43.44523" lon="2.2127">
        <ele>884.25909424</ele>
        <time>2022-07-10T09:11:57Z</time>
      </trkpt>
      <trkpt lat="43.44526" lon="2.21271">
        <ele>884.33911133</ele>
        <time>2022-07-10T09:11:58Z</time>
      </trkpt>
      <trkpt lat="43.44528" lon="2.21273">
        <ele>884.34912109</ele>
        <time>2022-07-10T09:11:59Z</time>
      </trkpt>
      <trkpt lat="43.44531" lon="2.21276">
        <ele>884.34912109</ele>
        <time>2022-07-10T09:12:00Z</time>
      </trkpt>
      <trkpt lat="43.44533" lon="2.21277">
        <ele>884.27911377</ele>
        <time>2022-07-10T09:12:01Z</time>
      </trkpt>
      <trkpt lat="43.44534" lon="2.21279">
        <ele>884.27911377</ele>
        <time>2022-07-10T09:12:02Z</time>
      </trkpt>
      <trkpt lat="43.44537" lon="2.2128">
        <ele>884.24908447</ele>
        <time>2022-07-10T09:12:03Z</time>
      </trkpt>
      <trkpt lat="43.4454" lon="2.21282">
        <ele>884.22906494</ele>
        <time>2022-07-10T09:12:04Z</time>
      </trkpt>
      <trkpt lat="43.44542" lon="2.21283">
        <ele>884.26904297</ele>
        <time>2022-07-10T09:12:05Z</time>
      </trkpt>
      <trkpt lat="43.44545" lon="2.21284">
        <ele>884.29907227</ele>
        <time>2022-07-10T09:12:06Z</time>
      </trkpt>
      <trkpt lat="43.44547" lon="2.21285">
        <ele>884.34906006</ele>
        <time>2022-07-10T09:12:07Z</time>
      </trkpt>
      <trkpt lat="43.44549" lon="2.21287">
        <ele>884.39904785</ele>
        <time>2022-07-10T09:12:08Z</time>
      </trkpt>
      <trkpt lat="43.44552" lon="2.21288">
        <ele>884.97906494</ele>
        <time>2022-07-10T09:12:09Z</time>
      </trkpt>
      <trkpt lat="43.44554" lon="2.2129">
        <ele>884.92907715</ele>
        <time>2022-07-10T09:12:10Z</time>
      </trkpt>
      <trkpt lat="43.44556" lon="2.21291">
        <ele>884.96905518</ele>
        <time>2022-07-10T09:12:11Z</time>
      </trkpt>
      <trkpt lat="43.44558" lon="2.21292">
        <ele>885.04907227</ele>
        <time>2022-07-10T09:12:12Z</time>
      </trkpt>
      <trkpt lat="43.4456" lon="2.21293">
        <ele>885.13909912</ele>
        <time>2022-07-10T09:12:13Z</time>
      </trkpt>
      <trkpt lat="43.4456" lon="2.21294">
        <ele>885.24908447</ele>
        <time>2022-07-10T09:12:14Z</time>
      </trkpt>
      <trkpt lat="43.44567" lon="2.21298">
        <ele>885.23907471</ele>
        <time>2022-07-10T09:12:41Z</time>
      </trkpt>
      <trkpt lat="43.44569" lon="2.213">
        <ele>885.23907471</ele>
        <time>2022-07-10T09:12:42Z</time>
      </trkpt>
      <trkpt lat="43.4457" lon="2.21301">
        <ele>885.19909668</ele>
        <time>2022-07-10T09:12:43Z</time>
      </trkpt>
      <trkpt lat="43.44572" lon="2.21302">
        <ele>885.12908936</ele>
        <time>2022-07-10T09:12:44Z</time>
      </trkpt>
      <trkpt lat="43.44576" lon="2.21304">
        <ele>885.10906982</ele>
        <time>2022-07-10T09:12:45Z</time>
      </trkpt>
      <trkpt lat="43.44578" lon="2.21305">
        <ele>885.0690918</ele>
        <time>2022-07-10T09:12:46Z</time>
      </trkpt>
      <trkpt lat="43.4458" lon="2.21307">
        <ele>885.0390625</ele>
        <time>2022-07-10T09:12:47Z</time>
      </trkpt>
      <trkpt lat="43.44582" lon="2.21307">
        <ele>885.01904297</ele>
        <time>2022-07-10T09:12:48Z</time>
      </trkpt>
      <trkpt lat="43.44584" lon="2.21308">
        <ele>884.98901367</ele>
        <time>2022-07-10T09:12:49Z</time>
      </trkpt>
      <trkpt lat="43.44586" lon="2.2131">
        <ele>884.98901367</ele>
        <time>2022-07-10T09:12:50Z</time>
      </trkpt>
      <trkpt lat="43.44588" lon="2.21311">
        <ele>885.059021</ele>
        <time>2022-07-10T09:12:51Z</time>
      </trkpt>
      <trkpt lat="43.44589" lon="2.21312">
        <ele>885.12902832</ele>
        <time>2022-07-10T09:12:52Z</time>
      </trkpt>
      <trkpt lat="43.4459" lon="2.21314">
        <ele>885.20904541</ele>
        <time>2022-07-10T09:12:53Z</time>
      </trkpt>
      <trkpt lat="43.44591" lon="2.21316">
        <ele>885.2590332</ele>
        <time>2022-07-10T09:12:54Z</time>
      </trkpt>
      <trkpt lat="43.44593" lon="2.21321">
        <ele>885.29901123</ele>
        <time>2022-07-10T09:12:55Z</time>
      </trkpt>
      <trkpt lat="43.44594" lon="2.21323">
        <ele>885.43902588</ele>
        <time>2022-07-10T09:12:56Z</time>
      </trkpt>
      <trkpt lat="43.44595" lon="2.21326">
        <ele>885.46905518</ele>
        <time>2022-07-10T09:12:57Z</time>
      </trkpt>
      <trkpt lat="43.44596" lon="2.21329">
        <ele>885.55908203</ele>
        <time>2022-07-10T09:12:58Z</time>
      </trkpt>
      <trkpt lat="43.44598" lon="2.21333">
        <ele>885.58911133</ele>
        <time>2022-07-10T09:12:59Z</time>
      </trkpt>
      <trkpt lat="43.44599" lon="2.21336">
        <ele>885.69909668</ele>
        <time>2022-07-10T09:13:00Z</time>
      </trkpt>
      <trkpt lat="43.446" lon="2.21339">
        <ele>885.86907959</ele>
        <time>2022-07-10T09:13:01Z</time>
      </trkpt>
      <trkpt lat="43.44602" lon="2.21341">
        <ele>885.99908447</ele>
        <time>2022-07-10T09:13:02Z</time>
      </trkpt>
      <trkpt lat="43.44604" lon="2.21343">
        <ele>886.16906738</ele>
        <time>2022-07-10T09:13:03Z</time>
      </trkpt>
      <trkpt lat="43.44605" lon="2.21345">
        <ele>886.19909668</ele>
        <time>2022-07-10T09:13:04Z</time>
      </trkpt>
      <trkpt lat="43.44606" lon="2.21347">
        <ele>886.16906738</ele>
        <time>2022-07-10T09:13:05Z</time>
      </trkpt>
      <trkpt lat="43.44608" lon="2.21349">
        <ele>886.21905518</ele>
        <time>2022-07-10T09:13:06Z</time>
      </trkpt>
      <trkpt lat="43.44609" lon="2.21351">
        <ele>886.2590332</ele>
        <time>2022-07-10T09:13:07Z</time>
      </trkpt>
      <trkpt lat="43.44611" lon="2.21355">
        <ele>886.2590332</ele>
        <time>2022-07-10T09:13:08Z</time>
      </trkpt>
      <trkpt lat="43.44612" lon="2.21357">
        <ele>886.40905762</ele>
        <time>2022-07-10T09:13:09Z</time>
      </trkpt>
      <trkpt lat="43.44613" lon="2.21361">
        <ele>886.37902832</ele>
        <time>2022-07-10T09:13:10Z</time>
      </trkpt>
      <trkpt lat="43.44615" lon="2.21364">
        <ele>886.32904053</ele>
        <time>2022-07-10T09:13:11Z</time>
      </trkpt>
      <trkpt lat="43.44616" lon="2.21367">
        <ele>886.309021</ele>
        <time>2022-07-10T09:13:12Z</time>
      </trkpt>
      <trkpt lat="43.44618" lon="2.2137">
        <ele>886.15899658</ele>
        <time>2022-07-10T09:13:13Z</time>
      </trkpt>
      <trkpt lat="43.44618" lon="2.21372">
        <ele>886.059021</ele>
        <time>2022-07-10T09:13:14Z</time>
      </trkpt>
      <trkpt lat="43.44619" lon="2.21375">
        <ele>885.98901367</ele>
        <time>2022-07-10T09:13:15Z</time>
      </trkpt>
      <trkpt lat="43.44621" lon="2.21377">
        <ele>885.7789917</ele>
        <time>2022-07-10T09:13:16Z</time>
      </trkpt>
      <trkpt lat="43.44622" lon="2.21381">
        <ele>885.48901367</ele>
        <time>2022-07-10T09:13:17Z</time>
      </trkpt>
      <trkpt lat="43.44623" lon="2.21384">
        <ele>885.21899414</ele>
        <time>2022-07-10T09:13:18Z</time>
      </trkpt>
      <trkpt lat="43.44625" lon="2.21387">
        <ele>884.85900879</ele>
        <time>2022-07-10T09:13:19Z</time>
      </trkpt>
      <trkpt lat="43.44626" lon="2.2139">
        <ele>884.59899902</ele>
        <time>2022-07-10T09:13:20Z</time>
      </trkpt>
      <trkpt lat="43.44629" lon="2.21396">
        <ele>884.44897461</ele>
        <time>2022-07-10T09:13:21Z</time>
      </trkpt>
      <trkpt lat="43.44632" lon="2.21399">
        <ele>884.15899658</ele>
        <time>2022-07-10T09:13:22Z</time>
      </trkpt>
      <trkpt lat="43.44634" lon="2.21402">
        <ele>883.70898438</ele>
        <time>2022-07-10T09:13:23Z</time>
      </trkpt>
      <trkpt lat="43.44636" lon="2.21405">
        <ele>883.42895508</ele>
        <time>2022-07-10T09:13:24Z</time>
      </trkpt>
      <trkpt lat="43.44639" lon="2.21409">
        <ele>883.11895752</ele>
        <time>2022-07-10T09:13:25Z</time>
      </trkpt>
      <trkpt lat="43.44641" lon="2.21412">
        <ele>882.7989502</ele>
        <time>2022-07-10T09:13:26Z</time>
      </trkpt>
      <trkpt lat="43.44643" lon="2.21415">
        <ele>882.60894775</ele>
        <time>2022-07-10T09:13:27Z</time>
      </trkpt>
      <trkpt lat="43.44645" lon="2.21417">
        <ele>882.0189209</ele>
        <time>2022-07-10T09:13:28Z</time>
      </trkpt>
      <trkpt lat="43.44646" lon="2.21421">
        <ele>881.68890381</ele>
        <time>2022-07-10T09:13:29Z</time>
      </trkpt>
      <trkpt lat="43.44648" lon="2.21426">
        <ele>881.37890625</ele>
        <time>2022-07-10T09:13:30Z</time>
      </trkpt>
      <trkpt lat="43.44649" lon="2.21429">
        <ele>881.25891113</ele>
        <time>2022-07-10T09:13:31Z</time>
      </trkpt>
      <trkpt lat="43.4465" lon="2.21432">
        <ele>881.30889893</ele>
        <time>2022-07-10T09:13:32Z</time>
      </trkpt>
      <trkpt lat="43.4465" lon="2.21437">
        <ele>881.09887695</ele>
        <time>2022-07-10T09:13:33Z</time>
      </trkpt>
      <trkpt lat="43.44652" lon="2.21442">
        <ele>880.99890137</ele>
        <time>2022-07-10T09:13:34Z</time>
      </trkpt>
      <trkpt lat="43.44653" lon="2.21447">
        <ele>880.70892334</ele>
        <time>2022-07-10T09:13:35Z</time>
      </trkpt>
      <trkpt lat="43.44653" lon="2.21451">
        <ele>880.5489502</ele>
        <time>2022-07-10T09:13:36Z</time>
      </trkpt>
      <trkpt lat="43.44653" lon="2.21455">
        <ele>880.39892578</ele>
        <time>2022-07-10T09:13:37Z</time>
      </trkpt>
      <trkpt lat="43.44654" lon="2.2146">
        <ele>880.23895264</ele>
        <time>2022-07-10T09:13:38Z</time>
      </trkpt>
      <trkpt lat="43.44655" lon="2.21467">
        <ele>879.85894775</ele>
        <time>2022-07-10T09:13:39Z</time>
      </trkpt>
      <trkpt lat="43.44655" lon="2.21471">
        <ele>879.56896973</ele>
        <time>2022-07-10T09:13:40Z</time>
      </trkpt>
      <trkpt lat="43.44656" lon="2.21474">
        <ele>879.13897705</ele>
        <time>2022-07-10T09:13:41Z</time>
      </trkpt>
      <trkpt lat="43.44656" lon="2.21476">
        <ele>878.38897705</ele>
        <time>2022-07-10T09:13:42Z</time>
      </trkpt>
      <trkpt lat="43.44656" lon="2.21482">
        <ele>877.97900391</ele>
        <time>2022-07-10T09:13:43Z</time>
      </trkpt>
      <trkpt lat="43.44656" lon="2.21486">
        <ele>877.45898438</ele>
        <time>2022-07-10T09:13:44Z</time>
      </trkpt>
      <trkpt lat="43.44655" lon="2.2149">
        <ele>877.10900879</ele>
        <time>2022-07-10T09:13:45Z</time>
      </trkpt>
      <trkpt lat="43.44655" lon="2.21494">
        <ele>877.08898926</ele>
        <time>2022-07-10T09:13:46Z</time>
      </trkpt>
      <trkpt lat="43.44656" lon="2.21498">
        <ele>877.2789917</ele>
        <time>2022-07-10T09:13:47Z</time>
      </trkpt>
      <trkpt lat="43.44657" lon="2.21504">
        <ele>877.39898682</ele>
        <time>2022-07-10T09:13:48Z</time>
      </trkpt>
      <trkpt lat="43.44658" lon="2.21507">
        <ele>877.70898438</ele>
        <time>2022-07-10T09:13:49Z</time>
      </trkpt>
      <trkpt lat="43.44659" lon="2.21511">
        <ele>878.00897217</ele>
        <time>2022-07-10T09:13:50Z</time>
      </trkpt>
      <trkpt lat="43.44659" lon="2.21515">
        <ele>878.15899658</ele>
        <time>2022-07-10T09:13:51Z</time>
      </trkpt>
      <trkpt lat="43.4466" lon="2.21522">
        <ele>878.37896729</ele>
        <time>2022-07-10T09:13:52Z</time>
      </trkpt>
      <trkpt lat="43.44661" lon="2.21525">
        <ele>878.45898438</ele>
        <time>2022-07-10T09:13:53Z</time>
      </trkpt>
      <trkpt lat="43.44661" lon="2.21528">
        <ele>878.68896484</ele>
        <time>2022-07-10T09:13:54Z</time>
      </trkpt>
      <trkpt lat="43.44661" lon="2.21532">
        <ele>878.92895508</ele>
        <time>2022-07-10T09:13:55Z</time>
      </trkpt>
      <trkpt lat="43.4466" lon="2.21536">
        <ele>879.2489624</ele>
        <time>2022-07-10T09:13:56Z</time>
      </trkpt>
      <trkpt lat="43.4466" lon="2.2154">
        <ele>879.55895996</ele>
        <time>2022-07-10T09:13:57Z</time>
      </trkpt>
      <trkpt lat="43.4466" lon="2.21544">
        <ele>879.89898682</ele>
        <time>2022-07-10T09:13:58Z</time>
      </trkpt>
      <trkpt lat="43.4466" lon="2.21548">
        <ele>880.32897949</ele>
        <time>2022-07-10T09:13:59Z</time>
      </trkpt>
      <trkpt lat="43.4466" lon="2.21552">
        <ele>880.81896973</ele>
        <time>2022-07-10T09:14:00Z</time>
      </trkpt>
      <trkpt lat="43.4466" lon="2.21557">
        <ele>881.42895508</ele>
        <time>2022-07-10T09:14:01Z</time>
      </trkpt>
      <trkpt lat="43.4466" lon="2.21562">
        <ele>881.97894287</ele>
        <time>2022-07-10T09:14:02Z</time>
      </trkpt>
      <trkpt lat="43.44661" lon="2.21566">
        <ele>882.48895264</ele>
        <time>2022-07-10T09:14:03Z</time>
      </trkpt>
      <trkpt lat="43.44662" lon="2.2157">
        <ele>882.89892578</ele>
        <time>2022-07-10T09:14:04Z</time>
      </trkpt>
      <trkpt lat="43.44661" lon="2.21575">
        <ele>883.38891602</ele>
        <time>2022-07-10T09:14:05Z</time>
      </trkpt>
      <trkpt lat="43.4466" lon="2.21583">
        <ele>883.86889648</ele>
        <time>2022-07-10T09:14:06Z</time>
      </trkpt>
      <trkpt lat="43.44659" lon="2.21586">
        <ele>884.32891846</ele>
        <time>2022-07-10T09:14:07Z</time>
      </trkpt>
      <trkpt lat="43.4466" lon="2.2159">
        <ele>884.74890137</ele>
        <time>2022-07-10T09:14:08Z</time>
      </trkpt>
      <trkpt lat="43.4466" lon="2.21594">
        <ele>885.56890869</ele>
        <time>2022-07-10T09:14:09Z</time>
      </trkpt>
      <trkpt lat="43.4466" lon="2.21599">
        <ele>885.87890625</ele>
        <time>2022-07-10T09:14:10Z</time>
      </trkpt>
      <trkpt lat="43.44661" lon="2.21603">
        <ele>886.25891113</ele>
        <time>2022-07-10T09:14:11Z</time>
      </trkpt>
      <trkpt lat="43.44661" lon="2.21606">
        <ele>886.68890381</ele>
        <time>2022-07-10T09:14:12Z</time>
      </trkpt>
      <trkpt lat="43.44661" lon="2.2161">
        <ele>887.04888916</ele>
        <time>2022-07-10T09:14:13Z</time>
      </trkpt>
      <trkpt lat="43.44662" lon="2.21614">
        <ele>887.42889404</ele>
        <time>2022-07-10T09:14:14Z</time>
      </trkpt>
      <trkpt lat="43.44662" lon="2.2162">
        <ele>887.77886963</ele>
        <time>2022-07-10T09:14:15Z</time>
      </trkpt>
      <trkpt lat="43.44662" lon="2.21624">
        <ele>888.06884766</ele>
        <time>2022-07-10T09:14:16Z</time>
      </trkpt>
      <trkpt lat="43.44662" lon="2.21627">
        <ele>888.39886475</ele>
        <time>2022-07-10T09:14:17Z</time>
      </trkpt>
      <trkpt lat="43.44663" lon="2.21633">
        <ele>888.7088623</ele>
        <time>2022-07-10T09:14:18Z</time>
      </trkpt>
      <trkpt lat="43.44663" lon="2.21638">
        <ele>889.10888672</ele>
        <time>2022-07-10T09:14:19Z</time>
      </trkpt>
      <trkpt lat="43.44663" lon="2.21641">
        <ele>889.57885742</ele>
        <time>2022-07-10T09:14:20Z</time>
      </trkpt>
      <trkpt lat="43.44664" lon="2.21643">
        <ele>889.9588623</ele>
        <time>2022-07-10T09:14:21Z</time>
      </trkpt>
      <trkpt lat="43.44664" lon="2.21645">
        <ele>890.47888184</ele>
        <time>2022-07-10T09:14:22Z</time>
      </trkpt>
      <trkpt lat="43.44665" lon="2.21647">
        <ele>890.78887939</ele>
        <time>2022-07-10T09:14:23Z</time>
      </trkpt>
      <trkpt lat="43.44665" lon="2.21651">
        <ele>891.07885742</ele>
        <time>2022-07-10T09:14:24Z</time>
      </trkpt>
      <trkpt lat="43.44666" lon="2.21655">
        <ele>891.54882812</ele>
        <time>2022-07-10T09:14:25Z</time>
      </trkpt>
      <trkpt lat="43.44666" lon="2.21657">
        <ele>891.84881592</ele>
        <time>2022-07-10T09:14:26Z</time>
      </trkpt>
      <trkpt lat="43.44666" lon="2.2166">
        <ele>892.17883301</ele>
        <time>2022-07-10T09:14:27Z</time>
      </trkpt>
      <trkpt lat="43.44665" lon="2.21663">
        <ele>892.4788208</ele>
        <time>2022-07-10T09:14:28Z</time>
      </trkpt>
      <trkpt lat="43.44665" lon="2.21666">
        <ele>892.59881592</ele>
        <time>2022-07-10T09:14:29Z</time>
      </trkpt>
      <trkpt lat="43.44665" lon="2.21668">
        <ele>892.89880371</ele>
        <time>2022-07-10T09:14:30Z</time>
      </trkpt>
      <trkpt lat="43.44665" lon="2.21671">
        <ele>893.23883057</ele>
        <time>2022-07-10T09:14:31Z</time>
      </trkpt>
      <trkpt lat="43.44666" lon="2.21676">
        <ele>893.59881592</ele>
        <time>2022-07-10T09:14:32Z</time>
      </trkpt>
      <trkpt lat="43.44666" lon="2.21681">
        <ele>894.03881836</ele>
        <time>2022-07-10T09:14:33Z</time>
      </trkpt>
      <trkpt lat="43.44666" lon="2.21684">
        <ele>894.40881348</ele>
        <time>2022-07-10T09:14:34Z</time>
      </trkpt>
      <trkpt lat="43.44666" lon="2.21686">
        <ele>894.77880859</ele>
        <time>2022-07-10T09:14:35Z</time>
      </trkpt>
      <trkpt lat="43.44666" lon="2.21689">
        <ele>895.18878174</ele>
        <time>2022-07-10T09:14:36Z</time>
      </trkpt>
      <trkpt lat="43.44666" lon="2.21693">
        <ele>895.45880127</ele>
        <time>2022-07-10T09:14:37Z</time>
      </trkpt>
      <trkpt lat="43.44665" lon="2.21696">
        <ele>895.73883057</ele>
        <time>2022-07-10T09:14:38Z</time>
      </trkpt>
      <trkpt lat="43.44664" lon="2.21698">
        <ele>896.0088501</ele>
        <time>2022-07-10T09:14:39Z</time>
      </trkpt>
      <trkpt lat="43.44662" lon="2.217">
        <ele>896.29882812</ele>
        <time>2022-07-10T09:14:40Z</time>
      </trkpt>
      <trkpt lat="43.44661" lon="2.21702">
        <ele>896.66882324</ele>
        <time>2022-07-10T09:14:41Z</time>
      </trkpt>
      <trkpt lat="43.44658" lon="2.21706">
        <ele>896.98883057</ele>
        <time>2022-07-10T09:14:42Z</time>
      </trkpt>
      <trkpt lat="43.44657" lon="2.21709">
        <ele>897.24884033</ele>
        <time>2022-07-10T09:14:43Z</time>
      </trkpt>
      <trkpt lat="43.44656" lon="2.21711">
        <ele>897.46881104</ele>
        <time>2022-07-10T09:14:44Z</time>
      </trkpt>
      <trkpt lat="43.44655" lon="2.21713">
        <ele>897.67883301</ele>
        <time>2022-07-10T09:14:45Z</time>
      </trkpt>
      <trkpt lat="43.44654" lon="2.21715">
        <ele>897.90881348</ele>
        <time>2022-07-10T09:14:46Z</time>
      </trkpt>
      <trkpt lat="43.44653" lon="2.2172">
        <ele>898.17883301</ele>
        <time>2022-07-10T09:14:47Z</time>
      </trkpt>
      <trkpt lat="43.44653" lon="2.21722">
        <ele>898.37884521</ele>
        <time>2022-07-10T09:14:48Z</time>
      </trkpt>
      <trkpt lat="43.44652" lon="2.21725">
        <ele>898.59881592</ele>
        <time>2022-07-10T09:14:49Z</time>
      </trkpt>
      <trkpt lat="43.44652" lon="2.21728">
        <ele>898.73883057</ele>
        <time>2022-07-10T09:14:50Z</time>
      </trkpt>
      <trkpt lat="43.44651" lon="2.21733">
        <ele>898.90881348</ele>
        <time>2022-07-10T09:14:51Z</time>
      </trkpt>
      <trkpt lat="43.4465" lon="2.21736">
        <ele>899.10882568</ele>
        <time>2022-07-10T09:14:52Z</time>
      </trkpt>
      <trkpt lat="43.44649" lon="2.21739">
        <ele>899.28881836</ele>
        <time>2022-07-10T09:14:53Z</time>
      </trkpt>
      <trkpt lat="43.44649" lon="2.21742">
        <ele>899.50878906</ele>
        <time>2022-07-10T09:14:54Z</time>
      </trkpt>
      <trkpt lat="43.44647" lon="2.21747">
        <ele>899.7487793</ele>
        <time>2022-07-10T09:14:55Z</time>
      </trkpt>
      <trkpt lat="43.44645" lon="2.21749">
        <ele>900.00878906</ele>
        <time>2022-07-10T09:14:56Z</time>
      </trkpt>
      <trkpt lat="43.44645" lon="2.21753">
        <ele>900.2487793</ele>
        <time>2022-07-10T09:14:57Z</time>
      </trkpt>
      <trkpt lat="43.44643" lon="2.21756">
        <ele>900.4987793</ele>
        <time>2022-07-10T09:14:58Z</time>
      </trkpt>
      <trkpt lat="43.44642" lon="2.21759">
        <ele>900.67877197</ele>
        <time>2022-07-10T09:14:59Z</time>
      </trkpt>
      <trkpt lat="43.4464" lon="2.21764">
        <ele>900.83874512</ele>
        <time>2022-07-10T09:15:00Z</time>
      </trkpt>
      <trkpt lat="43.44638" lon="2.21766">
        <ele>901.01873779</ele>
        <time>2022-07-10T09:15:01Z</time>
      </trkpt>
      <trkpt lat="43.44638" lon="2.21769">
        <ele>901.14874268</ele>
        <time>2022-07-10T09:15:02Z</time>
      </trkpt>
      <trkpt lat="43.44637" lon="2.2177">
        <ele>901.24871826</ele>
        <time>2022-07-10T09:15:03Z</time>
      </trkpt>
      <trkpt lat="43.44635" lon="2.21773">
        <ele>901.39874268</ele>
        <time>2022-07-10T09:15:04Z</time>
      </trkpt>
      <trkpt lat="43.44634" lon="2.21776">
        <ele>901.57873535</ele>
        <time>2022-07-10T09:15:05Z</time>
      </trkpt>
      <trkpt lat="43.44632" lon="2.21778">
        <ele>901.78875732</ele>
        <time>2022-07-10T09:15:06Z</time>
      </trkpt>
      <trkpt lat="43.44631" lon="2.2178">
        <ele>902.08874512</ele>
        <time>2022-07-10T09:15:07Z</time>
      </trkpt>
      <trkpt lat="43.44629" lon="2.21783">
        <ele>902.32873535</ele>
        <time>2022-07-10T09:15:08Z</time>
      </trkpt>
      <trkpt lat="43.44628" lon="2.21787">
        <ele>902.57873535</ele>
        <time>2022-07-10T09:15:09Z</time>
      </trkpt>
      <trkpt lat="43.44627" lon="2.2179">
        <ele>902.82873535</ele>
        <time>2022-07-10T09:15:10Z</time>
      </trkpt>
      <trkpt lat="43.44626" lon="2.21792">
        <ele>903.02874756</ele>
        <time>2022-07-10T09:15:11Z</time>
      </trkpt>
      <trkpt lat="43.44625" lon="2.21793">
        <ele>903.26873779</ele>
        <time>2022-07-10T09:15:12Z</time>
      </trkpt>
      <trkpt lat="43.44625" lon="2.21796">
        <ele>903.47875977</ele>
        <time>2022-07-10T09:15:13Z</time>
      </trkpt>
      <trkpt lat="43.44624" lon="2.218">
        <ele>903.69873047</ele>
        <time>2022-07-10T09:15:14Z</time>
      </trkpt>
      <trkpt lat="43.44623" lon="2.21803">
        <ele>903.89874268</ele>
        <time>2022-07-10T09:15:15Z</time>
      </trkpt>
      <trkpt lat="43.44622" lon="2.21807">
        <ele>904.10876465</ele>
        <time>2022-07-10T09:15:16Z</time>
      </trkpt>
      <trkpt lat="43.44621" lon="2.2181">
        <ele>904.28875732</ele>
        <time>2022-07-10T09:15:17Z</time>
      </trkpt>
      <trkpt lat="43.4462" lon="2.21815">
        <ele>904.46875</ele>
        <time>2022-07-10T09:15:18Z</time>
      </trkpt>
      <trkpt lat="43.44618" lon="2.21818">
        <ele>904.63873291</ele>
        <time>2022-07-10T09:15:19Z</time>
      </trkpt>
      <trkpt lat="43.44618" lon="2.21821">
        <ele>904.85870361</ele>
        <time>2022-07-10T09:15:20Z</time>
      </trkpt>
      <trkpt lat="43.44617" lon="2.21823">
        <ele>905.00872803</ele>
        <time>2022-07-10T09:15:21Z</time>
      </trkpt>
      <trkpt lat="43.44616" lon="2.21825">
        <ele>905.24871826</ele>
        <time>2022-07-10T09:15:22Z</time>
      </trkpt>
      <trkpt lat="43.44615" lon="2.21828">
        <ele>905.4887085</ele>
        <time>2022-07-10T09:15:23Z</time>
      </trkpt>
      <trkpt lat="43.44614" lon="2.21831">
        <ele>905.66870117</ele>
        <time>2022-07-10T09:15:24Z</time>
      </trkpt>
      <trkpt lat="43.44613" lon="2.21834">
        <ele>905.9387207</ele>
        <time>2022-07-10T09:15:25Z</time>
      </trkpt>
      <trkpt lat="43.44612" lon="2.21836">
        <ele>906.09869385</ele>
        <time>2022-07-10T09:15:26Z</time>
      </trkpt>
      <trkpt lat="43.4461" lon="2.21842">
        <ele>906.28869629</ele>
        <time>2022-07-10T09:15:27Z</time>
      </trkpt>
      <trkpt lat="43.44609" lon="2.21844">
        <ele>906.46868896</ele>
        <time>2022-07-10T09:15:28Z</time>
      </trkpt>
      <trkpt lat="43.44609" lon="2.21846">
        <ele>906.67871094</ele>
        <time>2022-07-10T09:15:29Z</time>
      </trkpt>
      <trkpt lat="43.44608" lon="2.2185">
        <ele>906.88873291</ele>
        <time>2022-07-10T09:15:30Z</time>
      </trkpt>
      <trkpt lat="43.44608" lon="2.21853">
        <ele>907.10870361</ele>
        <time>2022-07-10T09:15:31Z</time>
      </trkpt>
      <trkpt lat="43.44606" lon="2.21858">
        <ele>907.29870605</ele>
        <time>2022-07-10T09:15:32Z</time>
      </trkpt>
      <trkpt lat="43.44605" lon="2.21862">
        <ele>907.50872803</ele>
        <time>2022-07-10T09:15:33Z</time>
      </trkpt>
      <trkpt lat="43.44605" lon="2.21865">
        <ele>907.72869873</ele>
        <time>2022-07-10T09:15:34Z</time>
      </trkpt>
      <trkpt lat="43.44605" lon="2.21867">
        <ele>907.89868164</ele>
        <time>2022-07-10T09:15:35Z</time>
      </trkpt>
      <trkpt lat="43.44603" lon="2.21872">
        <ele>907.99865723</ele>
        <time>2022-07-10T09:15:36Z</time>
      </trkpt>
      <trkpt lat="43.44602" lon="2.21874">
        <ele>908.06866455</ele>
        <time>2022-07-10T09:15:37Z</time>
      </trkpt>
      <trkpt lat="43.44601" lon="2.21877">
        <ele>908.19866943</ele>
        <time>2022-07-10T09:15:38Z</time>
      </trkpt>
      <trkpt lat="43.44599" lon="2.21878">
        <ele>908.34869385</ele>
        <time>2022-07-10T09:15:39Z</time>
      </trkpt>
      <trkpt lat="43.44598" lon="2.21881">
        <ele>908.57867432</ele>
        <time>2022-07-10T09:15:40Z</time>
      </trkpt>
      <trkpt lat="43.44598" lon="2.21884">
        <ele>908.81866455</ele>
        <time>2022-07-10T09:15:41Z</time>
      </trkpt>
      <trkpt lat="43.44597" lon="2.21887">
        <ele>909.03863525</ele>
        <time>2022-07-10T09:15:42Z</time>
      </trkpt>
      <trkpt lat="43.44597" lon="2.2189">
        <ele>909.26861572</ele>
        <time>2022-07-10T09:15:43Z</time>
      </trkpt>
      <trkpt lat="43.44596" lon="2.21892">
        <ele>909.4786377</ele>
        <time>2022-07-10T09:15:44Z</time>
      </trkpt>
      <trkpt lat="43.44594" lon="2.21896">
        <ele>909.65863037</ele>
        <time>2022-07-10T09:15:45Z</time>
      </trkpt>
      <trkpt lat="43.44594" lon="2.21898">
        <ele>909.85864258</ele>
        <time>2022-07-10T09:15:46Z</time>
      </trkpt>
      <trkpt lat="43.44592" lon="2.21901">
        <ele>910.02862549</ele>
        <time>2022-07-10T09:15:47Z</time>
      </trkpt>
      <trkpt lat="43.44591" lon="2.21904">
        <ele>910.23864746</ele>
        <time>2022-07-10T09:15:48Z</time>
      </trkpt>
      <trkpt lat="43.4459" lon="2.21908">
        <ele>910.43865967</ele>
        <time>2022-07-10T09:15:49Z</time>
      </trkpt>
      <trkpt lat="43.44589" lon="2.2191">
        <ele>910.57867432</ele>
        <time>2022-07-10T09:15:50Z</time>
      </trkpt>
      <trkpt lat="43.44588" lon="2.21911">
        <ele>910.69866943</ele>
        <time>2022-07-10T09:15:51Z</time>
      </trkpt>
      <trkpt lat="43.44587" lon="2.21912">
        <ele>910.82867432</ele>
        <time>2022-07-10T09:15:52Z</time>
      </trkpt>
      <trkpt lat="43.44586" lon="2.21915">
        <ele>910.9586792</ele>
        <time>2022-07-10T09:15:53Z</time>
      </trkpt>
      <trkpt lat="43.44585" lon="2.21917">
        <ele>911.05865479</ele>
        <time>2022-07-10T09:15:54Z</time>
      </trkpt>
      <trkpt lat="43.44584" lon="2.21918">
        <ele>911.1786499</ele>
        <time>2022-07-10T09:15:55Z</time>
      </trkpt>
      <trkpt lat="43.44584" lon="2.21921">
        <ele>911.28863525</ele>
        <time>2022-07-10T09:15:56Z</time>
      </trkpt>
      <trkpt lat="43.44582" lon="2.21924">
        <ele>911.43865967</ele>
        <time>2022-07-10T09:15:57Z</time>
      </trkpt>
      <trkpt lat="43.44582" lon="2.21928">
        <ele>911.65863037</ele>
        <time>2022-07-10T09:15:58Z</time>
      </trkpt>
      <trkpt lat="43.44581" lon="2.21932">
        <ele>911.88861084</ele>
        <time>2022-07-10T09:15:59Z</time>
      </trkpt>
      <trkpt lat="43.4458" lon="2.21936">
        <ele>912.09863281</ele>
        <time>2022-07-10T09:16:00Z</time>
      </trkpt>
      <trkpt lat="43.44579" lon="2.21939">
        <ele>912.29864502</ele>
        <time>2022-07-10T09:16:01Z</time>
      </trkpt>
      <trkpt lat="43.44579" lon="2.21941">
        <ele>912.50866699</ele>
        <time>2022-07-10T09:16:02Z</time>
      </trkpt>
      <trkpt lat="43.44577" lon="2.21943">
        <ele>912.69866943</ele>
        <time>2022-07-10T09:16:03Z</time>
      </trkpt>
      <trkpt lat="43.44576" lon="2.21945">
        <ele>912.87866211</ele>
        <time>2022-07-10T09:16:04Z</time>
      </trkpt>
      <trkpt lat="43.44575" lon="2.21947">
        <ele>913.03863525</ele>
        <time>2022-07-10T09:16:05Z</time>
      </trkpt>
      <trkpt lat="43.44574" lon="2.2195">
        <ele>913.21862793</ele>
        <time>2022-07-10T09:16:06Z</time>
      </trkpt>
      <trkpt lat="43.44574" lon="2.21952">
        <ele>913.4486084</ele>
        <time>2022-07-10T09:16:07Z</time>
      </trkpt>
      <trkpt lat="43.44572" lon="2.21957">
        <ele>913.65863037</ele>
        <time>2022-07-10T09:16:08Z</time>
      </trkpt>
      <trkpt lat="43.44571" lon="2.2196">
        <ele>914.01861572</ele>
        <time>2022-07-10T09:16:09Z</time>
      </trkpt>
      <trkpt lat="43.44569" lon="2.21962">
        <ele>914.09863281</ele>
        <time>2022-07-10T09:16:10Z</time>
      </trkpt>
      <trkpt lat="43.44568" lon="2.21965">
        <ele>914.14862061</ele>
        <time>2022-07-10T09:16:11Z</time>
      </trkpt>
      <trkpt lat="43.44568" lon="2.21969">
        <ele>914.23864746</ele>
        <time>2022-07-10T09:16:12Z</time>
      </trkpt>
      <trkpt lat="43.44568" lon="2.21971">
        <ele>914.37866211</ele>
        <time>2022-07-10T09:16:13Z</time>
      </trkpt>
      <trkpt lat="43.44568" lon="2.21974">
        <ele>914.59863281</ele>
        <time>2022-07-10T09:16:14Z</time>
      </trkpt>
      <trkpt lat="43.44568" lon="2.21975">
        <ele>914.78863525</ele>
        <time>2022-07-10T09:16:15Z</time>
      </trkpt>
      <trkpt lat="43.44568" lon="2.21978">
        <ele>914.9286499</ele>
        <time>2022-07-10T09:16:16Z</time>
      </trkpt>
      <trkpt lat="43.44569" lon="2.21978">
        <ele>915.04864502</ele>
        <time>2022-07-10T09:16:17Z</time>
      </trkpt>
      <trkpt lat="43.44572" lon="2.21979">
        <ele>915.06866455</ele>
        <time>2022-07-10T09:16:18Z</time>
      </trkpt>
      <trkpt lat="43.44574" lon="2.21979">
        <ele>915.10864258</ele>
        <time>2022-07-10T09:16:19Z</time>
      </trkpt>
      <trkpt lat="43.44576" lon="2.2198">
        <ele>915.13867188</ele>
        <time>2022-07-10T09:16:20Z</time>
      </trkpt>
      <trkpt lat="43.44578" lon="2.21982">
        <ele>915.09869385</ele>
        <time>2022-07-10T09:16:21Z</time>
      </trkpt>
      <trkpt lat="43.4458" lon="2.21982">
        <ele>915.09869385</ele>
        <time>2022-07-10T09:16:22Z</time>
      </trkpt>
      <trkpt lat="43.44582" lon="2.21982">
        <ele>915.10870361</ele>
        <time>2022-07-10T09:16:23Z</time>
      </trkpt>
      <trkpt lat="43.44583" lon="2.21983">
        <ele>915.07867432</ele>
        <time>2022-07-10T09:16:24Z</time>
      </trkpt>
      <trkpt lat="43.44585" lon="2.21983">
        <ele>915.07867432</ele>
        <time>2022-07-10T09:16:25Z</time>
      </trkpt>
      <trkpt lat="43.44589" lon="2.21984">
        <ele>915.07867432</ele>
        <time>2022-07-10T09:16:26Z</time>
      </trkpt>
      <trkpt lat="43.44591" lon="2.21985">
        <ele>915.11865234</ele>
        <time>2022-07-10T09:16:27Z</time>
      </trkpt>
      <trkpt lat="43.44592" lon="2.21986">
        <ele>915.14868164</ele>
        <time>2022-07-10T09:16:28Z</time>
      </trkpt>
      <trkpt lat="43.44593" lon="2.21987">
        <ele>915.19866943</ele>
        <time>2022-07-10T09:16:29Z</time>
      </trkpt>
      <trkpt lat="43.44595" lon="2.21989">
        <ele>915.22869873</ele>
        <time>2022-07-10T09:16:30Z</time>
      </trkpt>
      <trkpt lat="43.44597" lon="2.21989">
        <ele>915.21868896</ele>
        <time>2022-07-10T09:16:31Z</time>
      </trkpt>
      <trkpt lat="43.44599" lon="2.21989">
        <ele>915.29870605</ele>
        <time>2022-07-10T09:16:32Z</time>
      </trkpt>
      <trkpt lat="43.44602" lon="2.21988">
        <ele>915.35870361</ele>
        <time>2022-07-10T09:16:33Z</time>
      </trkpt>
      <trkpt lat="43.44605" lon="2.21986">
        <ele>915.42871094</ele>
        <time>2022-07-10T09:16:34Z</time>
      </trkpt>
      <trkpt lat="43.44607" lon="2.21985">
        <ele>915.44873047</ele>
        <time>2022-07-10T09:16:35Z</time>
      </trkpt>
      <trkpt lat="43.44609" lon="2.21984">
        <ele>915.38873291</ele>
        <time>2022-07-10T09:16:36Z</time>
      </trkpt>
      <trkpt lat="43.44611" lon="2.21983">
        <ele>915.26873779</ele>
        <time>2022-07-10T09:16:37Z</time>
      </trkpt>
      <trkpt lat="43.44613" lon="2.21983">
        <ele>915.31872559</ele>
        <time>2022-07-10T09:16:38Z</time>
      </trkpt>
      <trkpt lat="43.44616" lon="2.21985">
        <ele>915.37872314</ele>
        <time>2022-07-10T09:16:39Z</time>
      </trkpt>
      <trkpt lat="43.44618" lon="2.21985">
        <ele>915.53869629</ele>
        <time>2022-07-10T09:16:40Z</time>
      </trkpt>
      <trkpt lat="43.4462" lon="2.21987">
        <ele>915.7387085</ele>
        <time>2022-07-10T09:16:41Z</time>
      </trkpt>
      <trkpt lat="43.44623" lon="2.21987">
        <ele>915.76873779</ele>
        <time>2022-07-10T09:16:42Z</time>
      </trkpt>
      <trkpt lat="43.44627" lon="2.21987">
        <ele>915.78875732</ele>
        <time>2022-07-10T09:16:43Z</time>
      </trkpt>
      <trkpt lat="43.44629" lon="2.21987">
        <ele>915.71875</ele>
        <time>2022-07-10T09:16:44Z</time>
      </trkpt>
      <trkpt lat="43.44631" lon="2.21988">
        <ele>915.71875</ele>
        <time>2022-07-10T09:16:45Z</time>
      </trkpt>
      <trkpt lat="43.44633" lon="2.21988">
        <ele>915.72875977</ele>
        <time>2022-07-10T09:16:46Z</time>
      </trkpt>
      <trkpt lat="43.44635" lon="2.21989">
        <ele>915.81878662</ele>
        <time>2022-07-10T09:16:47Z</time>
      </trkpt>
      <trkpt lat="43.44639" lon="2.21989">
        <ele>915.92877197</ele>
        <time>2022-07-10T09:16:48Z</time>
      </trkpt>
      <trkpt lat="43.44642" lon="2.2199">
        <ele>916.06878662</ele>
        <time>2022-07-10T09:16:49Z</time>
      </trkpt>
      <trkpt lat="43.44644" lon="2.21991">
        <ele>916.13879395</ele>
        <time>2022-07-10T09:16:50Z</time>
      </trkpt>
      <trkpt lat="43.44646" lon="2.21992">
        <ele>916.13879395</ele>
        <time>2022-07-10T09:16:51Z</time>
      </trkpt>
      <trkpt lat="43.44649" lon="2.21992">
        <ele>916.17877197</ele>
        <time>2022-07-10T09:16:52Z</time>
      </trkpt>
      <trkpt lat="43.44653" lon="2.21992">
        <ele>916.27874756</ele>
        <time>2022-07-10T09:16:53Z</time>
      </trkpt>
      <trkpt lat="43.44655" lon="2.21991">
        <ele>916.44873047</ele>
        <time>2022-07-10T09:16:54Z</time>
      </trkpt>
      <trkpt lat="43.44658" lon="2.2199">
        <ele>916.61871338</ele>
        <time>2022-07-10T09:16:55Z</time>
      </trkpt>
      <trkpt lat="43.44661" lon="2.21991">
        <ele>916.83868408</ele>
        <time>2022-07-10T09:16:56Z</time>
      </trkpt>
      <trkpt lat="43.44664" lon="2.21991">
        <ele>916.87866211</ele>
        <time>2022-07-10T09:16:57Z</time>
      </trkpt>
      <trkpt lat="43.44667" lon="2.21992">
        <ele>916.87866211</ele>
        <time>2022-07-10T09:16:58Z</time>
      </trkpt>
      <trkpt lat="43.44669" lon="2.21992">
        <ele>916.89868164</ele>
        <time>2022-07-10T09:16:59Z</time>
      </trkpt>
      <trkpt lat="43.44672" lon="2.21992">
        <ele>916.94866943</ele>
        <time>2022-07-10T09:17:00Z</time>
      </trkpt>
      <trkpt lat="43.44675" lon="2.21993">
        <ele>917.13867188</ele>
        <time>2022-07-10T09:17:01Z</time>
      </trkpt>
      <trkpt lat="43.44678" lon="2.21993">
        <ele>917.31866455</ele>
        <time>2022-07-10T09:17:02Z</time>
      </trkpt>
      <trkpt lat="43.4468" lon="2.21994">
        <ele>917.49865723</ele>
        <time>2022-07-10T09:17:03Z</time>
      </trkpt>
      <trkpt lat="43.44682" lon="2.21994">
        <ele>917.60864258</ele>
        <time>2022-07-10T09:17:04Z</time>
      </trkpt>
      <trkpt lat="43.44685" lon="2.21994">
        <ele>917.66864014</ele>
        <time>2022-07-10T09:17:05Z</time>
      </trkpt>
      <trkpt lat="43.44689" lon="2.21994">
        <ele>917.69866943</ele>
        <time>2022-07-10T09:17:06Z</time>
      </trkpt>
      <trkpt lat="43.44691" lon="2.21994">
        <ele>917.78869629</ele>
        <time>2022-07-10T09:17:07Z</time>
      </trkpt>
      <trkpt lat="43.44694" lon="2.21994">
        <ele>917.90869141</ele>
        <time>2022-07-10T09:17:08Z</time>
      </trkpt>
      <trkpt lat="43.44696" lon="2.21994">
        <ele>917.9387207</ele>
        <time>2022-07-10T09:17:09Z</time>
      </trkpt>
      <trkpt lat="43.447" lon="2.21995">
        <ele>918.12872314</ele>
        <time>2022-07-10T09:17:10Z</time>
      </trkpt>
      <trkpt lat="43.44703" lon="2.21995">
        <ele>918.28869629</ele>
        <time>2022-07-10T09:17:11Z</time>
      </trkpt>
      <trkpt lat="43.44705" lon="2.21995">
        <ele>918.37872314</ele>
        <time>2022-07-10T09:17:12Z</time>
      </trkpt>
      <trkpt lat="43.44707" lon="2.21997">
        <ele>918.4387207</ele>
        <time>2022-07-10T09:17:13Z</time>
      </trkpt>
      <trkpt lat="43.44709" lon="2.21998">
        <ele>918.39874268</ele>
        <time>2022-07-10T09:17:14Z</time>
      </trkpt>
      <trkpt lat="43.44713" lon="2.21997">
        <ele>918.34875488</ele>
        <time>2022-07-10T09:17:15Z</time>
      </trkpt>
      <trkpt lat="43.44715" lon="2.21997">
        <ele>918.26873779</ele>
        <time>2022-07-10T09:17:16Z</time>
      </trkpt>
      <trkpt lat="43.44717" lon="2.21997">
        <ele>918.16876221</ele>
        <time>2022-07-10T09:17:17Z</time>
      </trkpt>
      <trkpt lat="43.4472" lon="2.21997">
        <ele>918.16876221</ele>
        <time>2022-07-10T09:17:18Z</time>
      </trkpt>
      <trkpt lat="43.44722" lon="2.21997">
        <ele>918.23876953</ele>
        <time>2022-07-10T09:17:19Z</time>
      </trkpt>
      <trkpt lat="43.44726" lon="2.21998">
        <ele>918.33874512</ele>
        <time>2022-07-10T09:17:20Z</time>
      </trkpt>
      <trkpt lat="43.44728" lon="2.21999">
        <ele>918.46875</ele>
        <time>2022-07-10T09:17:21Z</time>
      </trkpt>
      <trkpt lat="43.4473" lon="2.22">
        <ele>918.58874512</ele>
        <time>2022-07-10T09:17:22Z</time>
      </trkpt>
      <trkpt lat="43.44732" lon="2.22002">
        <ele>918.66876221</ele>
        <time>2022-07-10T09:17:23Z</time>
      </trkpt>
      <trkpt lat="43.44734" lon="2.22005">
        <ele>918.68878174</ele>
        <time>2022-07-10T09:17:24Z</time>
      </trkpt>
      <trkpt lat="43.44735" lon="2.22006">
        <ele>918.66876221</ele>
        <time>2022-07-10T09:17:25Z</time>
      </trkpt>
      <trkpt lat="43.44737" lon="2.22007">
        <ele>918.59875488</ele>
        <time>2022-07-10T09:17:26Z</time>
      </trkpt>
      <trkpt lat="43.44739" lon="2.22009">
        <ele>918.41876221</ele>
        <time>2022-07-10T09:17:27Z</time>
      </trkpt>
      <trkpt lat="43.44741" lon="2.22011">
        <ele>918.21875</ele>
        <time>2022-07-10T09:17:28Z</time>
      </trkpt>
      <trkpt lat="43.44744" lon="2.22012">
        <ele>917.92877197</ele>
        <time>2022-07-10T09:17:29Z</time>
      </trkpt>
      <trkpt lat="43.44747" lon="2.22012">
        <ele>917.51879883</ele>
        <time>2022-07-10T09:17:30Z</time>
      </trkpt>
      <trkpt lat="43.44749" lon="2.22014">
        <ele>917.28881836</ele>
        <time>2022-07-10T09:17:31Z</time>
      </trkpt>
      <trkpt lat="43.44753" lon="2.22015">
        <ele>917.05883789</ele>
        <time>2022-07-10T09:17:32Z</time>
      </trkpt>
      <trkpt lat="43.44757" lon="2.22019">
        <ele>916.84881592</ele>
        <time>2022-07-10T09:17:33Z</time>
      </trkpt>
      <trkpt lat="43.44761" lon="2.22021">
        <ele>916.65881348</ele>
        <time>2022-07-10T09:17:34Z</time>
      </trkpt>
      <trkpt lat="43.44764" lon="2.22024">
        <ele>916.12878418</ele>
        <time>2022-07-10T09:17:35Z</time>
      </trkpt>
      <trkpt lat="43.44766" lon="2.22026">
        <ele>915.72875977</ele>
        <time>2022-07-10T09:17:36Z</time>
      </trkpt>
      <trkpt lat="43.4477" lon="2.22031">
        <ele>915.21875</ele>
        <time>2022-07-10T09:17:37Z</time>
      </trkpt>
      <trkpt lat="43.44772" lon="2.22033">
        <ele>914.66876221</ele>
        <time>2022-07-10T09:17:38Z</time>
      </trkpt>
      <trkpt lat="43.44775" lon="2.22035">
        <ele>914.25878906</ele>
        <time>2022-07-10T09:17:39Z</time>
      </trkpt>
      <trkpt lat="43.44778" lon="2.22037">
        <ele>913.62878418</ele>
        <time>2022-07-10T09:17:40Z</time>
      </trkpt>
      <trkpt lat="43.4478" lon="2.22039">
        <ele>913.13879395</ele>
        <time>2022-07-10T09:17:41Z</time>
      </trkpt>
      <trkpt lat="43.44782" lon="2.22042">
        <ele>912.71881104</ele>
        <time>2022-07-10T09:17:42Z</time>
      </trkpt>
      <trkpt lat="43.44784" lon="2.22044">
        <ele>912.31878662</ele>
        <time>2022-07-10T09:17:43Z</time>
      </trkpt>
      <trkpt lat="43.44787" lon="2.22045">
        <ele>912.02880859</ele>
        <time>2022-07-10T09:17:44Z</time>
      </trkpt>
      <trkpt lat="43.44789" lon="2.22047">
        <ele>911.7288208</ele>
        <time>2022-07-10T09:17:45Z</time>
      </trkpt>
      <trkpt lat="43.44792" lon="2.22048">
        <ele>911.53881836</ele>
        <time>2022-07-10T09:17:46Z</time>
      </trkpt>
      <trkpt lat="43.44793" lon="2.22051">
        <ele>911.18884277</ele>
        <time>2022-07-10T09:17:47Z</time>
      </trkpt>
      <trkpt lat="43.44795" lon="2.22052">
        <ele>910.94885254</ele>
        <time>2022-07-10T09:17:48Z</time>
      </trkpt>
      <trkpt lat="43.44796" lon="2.22053">
        <ele>910.67883301</ele>
        <time>2022-07-10T09:17:49Z</time>
      </trkpt>
      <trkpt lat="43.44798" lon="2.22055">
        <ele>910.2088623</ele>
        <time>2022-07-10T09:17:50Z</time>
      </trkpt>
      <trkpt lat="43.44802" lon="2.22058">
        <ele>909.85888672</ele>
        <time>2022-07-10T09:17:51Z</time>
      </trkpt>
      <trkpt lat="43.44804" lon="2.22059">
        <ele>909.51885986</ele>
        <time>2022-07-10T09:17:52Z</time>
      </trkpt>
      <trkpt lat="43.44806" lon="2.22062">
        <ele>909.13885498</ele>
        <time>2022-07-10T09:17:53Z</time>
      </trkpt>
      <trkpt lat="43.44809" lon="2.22064">
        <ele>908.84887695</ele>
        <time>2022-07-10T09:17:54Z</time>
      </trkpt>
      <trkpt lat="43.44811" lon="2.22065">
        <ele>908.65887451</ele>
        <time>2022-07-10T09:17:55Z</time>
      </trkpt>
      <trkpt lat="43.44815" lon="2.22068">
        <ele>908.32885742</ele>
        <time>2022-07-10T09:17:56Z</time>
      </trkpt>
      <trkpt lat="43.44817" lon="2.2207">
        <ele>908.09887695</ele>
        <time>2022-07-10T09:17:57Z</time>
      </trkpt>
      <trkpt lat="43.44819" lon="2.22072">
        <ele>907.84887695</ele>
        <time>2022-07-10T09:17:58Z</time>
      </trkpt>
      <trkpt lat="43.44821" lon="2.22073">
        <ele>907.4888916</ele>
        <time>2022-07-10T09:17:59Z</time>
      </trkpt>
      <trkpt lat="43.44825" lon="2.22076">
        <ele>907.13891602</ele>
        <time>2022-07-10T09:18:00Z</time>
      </trkpt>
      <trkpt lat="43.44828" lon="2.22079">
        <ele>906.86889648</ele>
        <time>2022-07-10T09:18:01Z</time>
      </trkpt>
      <trkpt lat="43.4483" lon="2.22081">
        <ele>906.58886719</ele>
        <time>2022-07-10T09:18:02Z</time>
      </trkpt>
      <trkpt lat="43.44832" lon="2.22083">
        <ele>906.18884277</ele>
        <time>2022-07-10T09:18:03Z</time>
      </trkpt>
      <trkpt lat="43.44834" lon="2.22085">
        <ele>905.92883301</ele>
        <time>2022-07-10T09:18:04Z</time>
      </trkpt>
      <trkpt lat="43.44837" lon="2.22089">
        <ele>905.48883057</ele>
        <time>2022-07-10T09:18:05Z</time>
      </trkpt>
      <trkpt lat="43.44839" lon="2.22091">
        <ele>905.11883545</ele>
        <time>2022-07-10T09:18:06Z</time>
      </trkpt>
      <trkpt lat="43.44841" lon="2.22093">
        <ele>904.7588501</ele>
        <time>2022-07-10T09:18:07Z</time>
      </trkpt>
      <trkpt lat="43.44844" lon="2.22096">
        <ele>904.40887451</ele>
        <time>2022-07-10T09:18:08Z</time>
      </trkpt>
      <trkpt lat="43.44847" lon="2.22099">
        <ele>904.05889893</ele>
        <time>2022-07-10T09:18:09Z</time>
      </trkpt>
      <trkpt lat="43.44849" lon="2.22102">
        <ele>903.61889648</ele>
        <time>2022-07-10T09:18:10Z</time>
      </trkpt>
      <trkpt lat="43.44852" lon="2.22105">
        <ele>903.30889893</ele>
        <time>2022-07-10T09:18:11Z</time>
      </trkpt>
      <trkpt lat="43.44854" lon="2.22107">
        <ele>902.79888916</ele>
        <time>2022-07-10T09:18:12Z</time>
      </trkpt>
      <trkpt lat="43.44857" lon="2.22109">
        <ele>902.34887695</ele>
        <time>2022-07-10T09:18:13Z</time>
      </trkpt>
      <trkpt lat="43.4486" lon="2.22112">
        <ele>902.04888916</ele>
        <time>2022-07-10T09:18:14Z</time>
      </trkpt>
      <trkpt lat="43.44862" lon="2.22115">
        <ele>901.80889893</ele>
        <time>2022-07-10T09:18:15Z</time>
      </trkpt>
      <trkpt lat="43.44864" lon="2.22117">
        <ele>901.63891602</ele>
        <time>2022-07-10T09:18:16Z</time>
      </trkpt>
      <trkpt lat="43.44866" lon="2.22119">
        <ele>901.5189209</ele>
        <time>2022-07-10T09:18:17Z</time>
      </trkpt>
      <trkpt lat="43.44868" lon="2.22122">
        <ele>901.25891113</ele>
        <time>2022-07-10T09:18:18Z</time>
      </trkpt>
      <trkpt lat="43.44869" lon="2.22123">
        <ele>901.02893066</ele>
        <time>2022-07-10T09:18:19Z</time>
      </trkpt>
      <trkpt lat="43.44868" lon="2.22122">
        <ele>900.47894287</ele>
        <time>2022-07-10T09:18:22Z</time>
      </trkpt>
      <trkpt lat="43.44866" lon="2.22121">
        <ele>900.40893555</ele>
        <time>2022-07-10T09:18:23Z</time>
      </trkpt>
      <trkpt lat="43.44865" lon="2.2212">
        <ele>900.34893799</ele>
        <time>2022-07-10T09:18:24Z</time>
      </trkpt>
      <trkpt lat="43.44864" lon="2.22119">
        <ele>900.89892578</ele>
        <time>2022-07-10T09:18:25Z</time>
      </trkpt>
      <trkpt lat="43.44863" lon="2.22119">
        <ele>900.89892578</ele>
        <time>2022-07-10T09:18:26Z</time>
      </trkpt>
      <trkpt lat="43.4486" lon="2.22119">
        <ele>900.93890381</ele>
        <time>2022-07-10T09:18:27Z</time>
      </trkpt>
      <trkpt lat="43.44858" lon="2.22118">
        <ele>901.15887451</ele>
        <time>2022-07-10T09:18:28Z</time>
      </trkpt>
      <trkpt lat="43.44856" lon="2.22117">
        <ele>900.7588501</ele>
        <time>2022-07-10T09:18:29Z</time>
      </trkpt>
      <trkpt lat="43.44855" lon="2.22115">
        <ele>901.15887451</ele>
        <time>2022-07-10T09:18:30Z</time>
      </trkpt>
      <trkpt lat="43.44853" lon="2.22115">
        <ele>901.27886963</ele>
        <time>2022-07-10T09:18:31Z</time>
      </trkpt>
      <trkpt lat="43.4485" lon="2.22113">
        <ele>901.39886475</ele>
        <time>2022-07-10T09:18:32Z</time>
      </trkpt>
      <trkpt lat="43.44848" lon="2.22112">
        <ele>901.60888672</ele>
        <time>2022-07-10T09:18:33Z</time>
      </trkpt>
      <trkpt lat="43.44847" lon="2.22112">
        <ele>901.61889648</ele>
        <time>2022-07-10T09:18:34Z</time>
      </trkpt>
      <trkpt lat="43.44845" lon="2.22112">
        <ele>901.91888428</ele>
        <time>2022-07-10T09:18:35Z</time>
      </trkpt>
      <trkpt lat="43.44843" lon="2.22112">
        <ele>902.10888672</ele>
        <time>2022-07-10T09:18:36Z</time>
      </trkpt>
      <trkpt lat="43.4484" lon="2.22112">
        <ele>902.24890137</ele>
        <time>2022-07-10T09:18:37Z</time>
      </trkpt>
      <trkpt lat="43.44839" lon="2.22111">
        <ele>902.34887695</ele>
        <time>2022-07-10T09:18:38Z</time>
      </trkpt>
      <trkpt lat="43.44837" lon="2.22111">
        <ele>902.46887207</ele>
        <time>2022-07-10T09:18:39Z</time>
      </trkpt>
      <trkpt lat="43.44834" lon="2.22111">
        <ele>902.55889893</ele>
        <time>2022-07-10T09:18:40Z</time>
      </trkpt>
      <trkpt lat="43.44831" lon="2.22113">
        <ele>902.60888672</ele>
        <time>2022-07-10T09:18:41Z</time>
      </trkpt>
      <trkpt lat="43.44829" lon="2.22113">
        <ele>902.66888428</ele>
        <time>2022-07-10T09:18:42Z</time>
      </trkpt>
      <trkpt lat="43.44827" lon="2.22113">
        <ele>902.77886963</ele>
        <time>2022-07-10T09:18:43Z</time>
      </trkpt>
      <trkpt lat="43.44824" lon="2.22114">
        <ele>902.93884277</ele>
        <time>2022-07-10T09:18:44Z</time>
      </trkpt>
      <trkpt lat="43.44821" lon="2.22115">
        <ele>903.08886719</ele>
        <time>2022-07-10T09:18:45Z</time>
      </trkpt>
      <trkpt lat="43.44819" lon="2.22115">
        <ele>903.28887939</ele>
        <time>2022-07-10T09:18:46Z</time>
      </trkpt>
      <trkpt lat="43.44816" lon="2.22116">
        <ele>903.35888672</ele>
        <time>2022-07-10T09:18:47Z</time>
      </trkpt>
      <trkpt lat="43.44813" lon="2.22116">
        <ele>903.43890381</ele>
        <time>2022-07-10T09:18:48Z</time>
      </trkpt>
      <trkpt lat="43.44811" lon="2.22117">
        <ele>903.59887695</ele>
        <time>2022-07-10T09:18:49Z</time>
      </trkpt>
      <trkpt lat="43.44807" lon="2.22117">
        <ele>903.65887451</ele>
        <time>2022-07-10T09:18:50Z</time>
      </trkpt>
      <trkpt lat="43.44804" lon="2.22117">
        <ele>903.80889893</ele>
        <time>2022-07-10T09:18:51Z</time>
      </trkpt>
      <trkpt lat="43.44802" lon="2.22117">
        <ele>903.88891602</ele>
        <time>2022-07-10T09:18:52Z</time>
      </trkpt>
      <trkpt lat="43.44799" lon="2.22117">
        <ele>903.96893311</ele>
        <time>2022-07-10T09:18:53Z</time>
      </trkpt>
      <trkpt lat="43.44796" lon="2.22116">
        <ele>904.07891846</ele>
        <time>2022-07-10T09:18:54Z</time>
      </trkpt>
      <trkpt lat="43.44794" lon="2.22116">
        <ele>904.09893799</ele>
        <time>2022-07-10T09:18:55Z</time>
      </trkpt>
      <trkpt lat="43.44791" lon="2.22115">
        <ele>904.19891357</ele>
        <time>2022-07-10T09:18:56Z</time>
      </trkpt>
      <trkpt lat="43.44789" lon="2.22115">
        <ele>904.35888672</ele>
        <time>2022-07-10T09:18:57Z</time>
      </trkpt>
      <trkpt lat="43.44786" lon="2.22115">
        <ele>904.51885986</ele>
        <time>2022-07-10T09:18:58Z</time>
      </trkpt>
      <trkpt lat="43.44784" lon="2.22115">
        <ele>904.73883057</ele>
        <time>2022-07-10T09:18:59Z</time>
      </trkpt>
      <trkpt lat="43.44782" lon="2.22115">
        <ele>904.96881104</ele>
        <time>2022-07-10T09:19:00Z</time>
      </trkpt>
      <trkpt lat="43.4478" lon="2.22114">
        <ele>905.14880371</ele>
        <time>2022-07-10T09:19:01Z</time>
      </trkpt>
      <trkpt lat="43.44778" lon="2.22114">
        <ele>905.33880615</ele>
        <time>2022-07-10T09:19:02Z</time>
      </trkpt>
      <trkpt lat="43.44774" lon="2.22114">
        <ele>905.57879639</ele>
        <time>2022-07-10T09:19:03Z</time>
      </trkpt>
      <trkpt lat="43.44772" lon="2.22113">
        <ele>905.77880859</ele>
        <time>2022-07-10T09:19:04Z</time>
      </trkpt>
      <trkpt lat="43.44769" lon="2.22111">
        <ele>905.91882324</ele>
        <time>2022-07-10T09:19:05Z</time>
      </trkpt>
      <trkpt lat="43.44766" lon="2.2211">
        <ele>906.01879883</ele>
        <time>2022-07-10T09:19:06Z</time>
      </trkpt>
      <trkpt lat="43.44764" lon="2.22109">
        <ele>906.11877441</ele>
        <time>2022-07-10T09:19:07Z</time>
      </trkpt>
      <trkpt lat="43.4476" lon="2.22108">
        <ele>906.2487793</ele>
        <time>2022-07-10T09:19:08Z</time>
      </trkpt>
      <trkpt lat="43.44758" lon="2.22106">
        <ele>906.47875977</ele>
        <time>2022-07-10T09:19:09Z</time>
      </trkpt>
      <trkpt lat="43.44756" lon="2.22105">
        <ele>906.69873047</ele>
        <time>2022-07-10T09:19:10Z</time>
      </trkpt>
      <trkpt lat="43.44754" lon="2.22105">
        <ele>906.96875</ele>
        <time>2022-07-10T09:19:11Z</time>
      </trkpt>
      <trkpt lat="43.44751" lon="2.22102">
        <ele>907.07873535</ele>
        <time>2022-07-10T09:19:12Z</time>
      </trkpt>
      <trkpt lat="43.44749" lon="2.22101">
        <ele>907.28875732</ele>
        <time>2022-07-10T09:19:13Z</time>
      </trkpt>
      <trkpt lat="43.44747" lon="2.221">
        <ele>907.54876709</ele>
        <time>2022-07-10T09:19:14Z</time>
      </trkpt>
      <trkpt lat="43.44745" lon="2.221">
        <ele>907.62878418</ele>
        <time>2022-07-10T09:19:15Z</time>
      </trkpt>
      <trkpt lat="43.44743" lon="2.221">
        <ele>907.81878662</ele>
        <time>2022-07-10T09:19:16Z</time>
      </trkpt>
      <trkpt lat="43.4474" lon="2.22098">
        <ele>908.09881592</ele>
        <time>2022-07-10T09:19:17Z</time>
      </trkpt>
      <trkpt lat="43.44737" lon="2.22097">
        <ele>908.18884277</ele>
        <time>2022-07-10T09:19:18Z</time>
      </trkpt>
      <trkpt lat="43.44735" lon="2.22096">
        <ele>908.32885742</ele>
        <time>2022-07-10T09:19:19Z</time>
      </trkpt>
      <trkpt lat="43.44733" lon="2.22095">
        <ele>908.63885498</ele>
        <time>2022-07-10T09:19:20Z</time>
      </trkpt>
      <trkpt lat="43.44729" lon="2.22093">
        <ele>908.57885742</ele>
        <time>2022-07-10T09:19:21Z</time>
      </trkpt>
      <trkpt lat="43.44728" lon="2.22092">
        <ele>908.7088623</ele>
        <time>2022-07-10T09:19:22Z</time>
      </trkpt>
      <trkpt lat="43.44727" lon="2.22091">
        <ele>908.83886719</ele>
        <time>2022-07-10T09:19:23Z</time>
      </trkpt>
      <trkpt lat="43.44725" lon="2.22089">
        <ele>908.88885498</ele>
        <time>2022-07-10T09:19:24Z</time>
      </trkpt>
      <trkpt lat="43.44722" lon="2.22088">
        <ele>909.03887939</ele>
        <time>2022-07-10T09:19:25Z</time>
      </trkpt>
      <trkpt lat="43.44719" lon="2.22085">
        <ele>909.21887207</ele>
        <time>2022-07-10T09:19:26Z</time>
      </trkpt>
      <trkpt lat="43.44717" lon="2.22083">
        <ele>909.33886719</ele>
        <time>2022-07-10T09:19:27Z</time>
      </trkpt>
      <trkpt lat="43.44715" lon="2.22082">
        <ele>909.32885742</ele>
        <time>2022-07-10T09:19:28Z</time>
      </trkpt>
      <trkpt lat="43.44713" lon="2.2208">
        <ele>909.36883545</ele>
        <time>2022-07-10T09:19:29Z</time>
      </trkpt>
      <trkpt lat="43.4471" lon="2.22077">
        <ele>909.30883789</ele>
        <time>2022-07-10T09:19:30Z</time>
      </trkpt>
      <trkpt lat="43.44708" lon="2.22075">
        <ele>909.26885986</ele>
        <time>2022-07-10T09:19:31Z</time>
      </trkpt>
      <trkpt lat="43.44706" lon="2.22073">
        <ele>909.24884033</ele>
        <time>2022-07-10T09:19:32Z</time>
      </trkpt>
      <trkpt lat="43.44704" lon="2.22071">
        <ele>909.16882324</ele>
        <time>2022-07-10T09:19:33Z</time>
      </trkpt>
      <trkpt lat="43.44702" lon="2.2207">
        <ele>909.08880615</ele>
        <time>2022-07-10T09:19:34Z</time>
      </trkpt>
      <trkpt lat="43.44699" lon="2.22067">
        <ele>908.9987793</ele>
        <time>2022-07-10T09:19:35Z</time>
      </trkpt>
      <trkpt lat="43.44696" lon="2.22064">
        <ele>908.86877441</ele>
        <time>2022-07-10T09:19:36Z</time>
      </trkpt>
      <trkpt lat="43.44694" lon="2.22062">
        <ele>908.72875977</ele>
        <time>2022-07-10T09:19:37Z</time>
      </trkpt>
      <trkpt lat="43.44691" lon="2.2206">
        <ele>908.45874023</ele>
        <time>2022-07-10T09:19:38Z</time>
      </trkpt>
      <trkpt lat="43.44685" lon="2.22058">
        <ele>908.14874268</ele>
        <time>2022-07-10T09:19:39Z</time>
      </trkpt>
      <trkpt lat="43.44683" lon="2.22056">
        <ele>907.9387207</ele>
        <time>2022-07-10T09:19:40Z</time>
      </trkpt>
      <trkpt lat="43.44679" lon="2.22055">
        <ele>907.65869141</ele>
        <time>2022-07-10T09:19:41Z</time>
      </trkpt>
      <trkpt lat="43.44675" lon="2.22054">
        <ele>907.44866943</ele>
        <time>2022-07-10T09:19:42Z</time>
      </trkpt>
      <trkpt lat="43.44668" lon="2.22055">
        <ele>907.02868652</ele>
        <time>2022-07-10T09:19:43Z</time>
      </trkpt>
      <trkpt lat="43.44664" lon="2.22056">
        <ele>906.52868652</ele>
        <time>2022-07-10T09:19:44Z</time>
      </trkpt>
      <trkpt lat="43.44659" lon="2.22057">
        <ele>906.03869629</ele>
        <time>2022-07-10T09:19:45Z</time>
      </trkpt>
      <trkpt lat="43.44654" lon="2.2206">
        <ele>905.32867432</ele>
        <time>2022-07-10T09:19:46Z</time>
      </trkpt>
      <trkpt lat="43.4465" lon="2.22062">
        <ele>905.00866699</ele>
        <time>2022-07-10T09:19:47Z</time>
      </trkpt>
      <trkpt lat="43.44644" lon="2.22065">
        <ele>904.40869141</ele>
        <time>2022-07-10T09:19:48Z</time>
      </trkpt>
      <trkpt lat="43.44639" lon="2.22069">
        <ele>903.77868652</ele>
        <time>2022-07-10T09:19:49Z</time>
      </trkpt>
      <trkpt lat="43.44635" lon="2.22072">
        <ele>903.37866211</ele>
        <time>2022-07-10T09:19:50Z</time>
      </trkpt>
      <trkpt lat="43.44631" lon="2.22078">
        <ele>902.68865967</ele>
        <time>2022-07-10T09:19:51Z</time>
      </trkpt>
      <trkpt lat="43.44623" lon="2.22084">
        <ele>902.29864502</ele>
        <time>2022-07-10T09:19:52Z</time>
      </trkpt>
      <trkpt lat="43.44618" lon="2.22088">
        <ele>901.68865967</ele>
        <time>2022-07-10T09:19:53Z</time>
      </trkpt>
      <trkpt lat="43.44614" lon="2.22093">
        <ele>901.12866211</ele>
        <time>2022-07-10T09:19:54Z</time>
      </trkpt>
      <trkpt lat="43.44609" lon="2.22098">
        <ele>900.49865723</ele>
        <time>2022-07-10T09:19:55Z</time>
      </trkpt>
      <trkpt lat="43.44604" lon="2.22102">
        <ele>899.85864258</ele>
        <time>2022-07-10T09:19:56Z</time>
      </trkpt>
      <trkpt lat="43.44598" lon="2.22109">
        <ele>899.38867188</ele>
        <time>2022-07-10T09:19:57Z</time>
      </trkpt>
      <trkpt lat="43.44594" lon="2.22113">
        <ele>898.9286499</ele>
        <time>2022-07-10T09:19:58Z</time>
      </trkpt>
      <trkpt lat="43.44589" lon="2.22119">
        <ele>898.31866455</ele>
        <time>2022-07-10T09:19:59Z</time>
      </trkpt>
      <trkpt lat="43.44583" lon="2.22124">
        <ele>897.54864502</ele>
        <time>2022-07-10T09:20:00Z</time>
      </trkpt>
      <trkpt lat="43.44575" lon="2.2213">
        <ele>896.54864502</ele>
        <time>2022-07-10T09:20:01Z</time>
      </trkpt>
      <trkpt lat="43.44569" lon="2.22133">
        <ele>895.39862061</ele>
        <time>2022-07-10T09:20:02Z</time>
      </trkpt>
      <trkpt lat="43.44563" lon="2.22137">
        <ele>894.46862793</ele>
        <time>2022-07-10T09:20:03Z</time>
      </trkpt>
      <trkpt lat="43.44557" lon="2.22141">
        <ele>893.53863525</ele>
        <time>2022-07-10T09:20:04Z</time>
      </trkpt>
      <trkpt lat="43.44551" lon="2.22145">
        <ele>892.87866211</ele>
        <time>2022-07-10T09:20:05Z</time>
      </trkpt>
      <trkpt lat="43.44542" lon="2.22152">
        <ele>892.32867432</ele>
        <time>2022-07-10T09:20:06Z</time>
      </trkpt>
      <trkpt lat="43.44536" lon="2.22157">
        <ele>891.73864746</ele>
        <time>2022-07-10T09:20:07Z</time>
      </trkpt>
      <trkpt lat="43.4453" lon="2.22161">
        <ele>891.26867676</ele>
        <time>2022-07-10T09:20:08Z</time>
      </trkpt>
      <trkpt lat="43.44525" lon="2.22168">
        <ele>890.78869629</ele>
        <time>2022-07-10T09:20:09Z</time>
      </trkpt>
      <trkpt lat="43.44518" lon="2.22177">
        <ele>890.30871582</ele>
        <time>2022-07-10T09:20:10Z</time>
      </trkpt>
      <trkpt lat="43.44513" lon="2.22182">
        <ele>889.89874268</ele>
        <time>2022-07-10T09:20:11Z</time>
      </trkpt>
      <trkpt lat="43.44509" lon="2.22188">
        <ele>889.54876709</ele>
        <time>2022-07-10T09:20:12Z</time>
      </trkpt>
      <trkpt lat="43.44505" lon="2.22193">
        <ele>889.2487793</ele>
        <time>2022-07-10T09:20:13Z</time>
      </trkpt>
      <trkpt lat="43.445" lon="2.222">
        <ele>888.82879639</ele>
        <time>2022-07-10T09:20:14Z</time>
      </trkpt>
      <trkpt lat="43.44495" lon="2.22209">
        <ele>888.45880127</ele>
        <time>2022-07-10T09:20:15Z</time>
      </trkpt>
      <trkpt lat="43.44492" lon="2.22215">
        <ele>888.33880615</ele>
        <time>2022-07-10T09:20:16Z</time>
      </trkpt>
      <trkpt lat="43.44489" lon="2.22223">
        <ele>888.06878662</ele>
        <time>2022-07-10T09:20:17Z</time>
      </trkpt>
      <trkpt lat="43.44486" lon="2.2223">
        <ele>887.89880371</ele>
        <time>2022-07-10T09:20:18Z</time>
      </trkpt>
      <trkpt lat="43.44481" lon="2.2224">
        <ele>887.64880371</ele>
        <time>2022-07-10T09:20:19Z</time>
      </trkpt>
      <trkpt lat="43.44477" lon="2.22247">
        <ele>886.90881348</ele>
        <time>2022-07-10T09:20:20Z</time>
      </trkpt>
      <trkpt lat="43.44474" lon="2.22253">
        <ele>886.52880859</ele>
        <time>2022-07-10T09:20:21Z</time>
      </trkpt>
      <trkpt lat="43.4447" lon="2.22259">
        <ele>885.88879395</ele>
        <time>2022-07-10T09:20:22Z</time>
      </trkpt>
      <trkpt lat="43.44466" lon="2.22265">
        <ele>885.62878418</ele>
        <time>2022-07-10T09:20:23Z</time>
      </trkpt>
      <trkpt lat="43.4446" lon="2.22274">
        <ele>885.4487915</ele>
        <time>2022-07-10T09:20:24Z</time>
      </trkpt>
      <trkpt lat="43.44456" lon="2.22281">
        <ele>885.13879395</ele>
        <time>2022-07-10T09:20:25Z</time>
      </trkpt>
      <trkpt lat="43.44452" lon="2.22287">
        <ele>885.06878662</ele>
        <time>2022-07-10T09:20:26Z</time>
      </trkpt>
      <trkpt lat="43.44448" lon="2.22293">
        <ele>884.86877441</ele>
        <time>2022-07-10T09:20:27Z</time>
      </trkpt>
      <trkpt lat="43.44445" lon="2.223">
        <ele>884.4987793</ele>
        <time>2022-07-10T09:20:28Z</time>
      </trkpt>
      <trkpt lat="43.44439" lon="2.22308">
        <ele>884.16876221</ele>
        <time>2022-07-10T09:20:29Z</time>
      </trkpt>
      <trkpt lat="43.44435" lon="2.22315">
        <ele>883.80877686</ele>
        <time>2022-07-10T09:20:30Z</time>
      </trkpt>
      <trkpt lat="43.44432" lon="2.22322">
        <ele>883.15875244</ele>
        <time>2022-07-10T09:20:31Z</time>
      </trkpt>
      <trkpt lat="43.44429" lon="2.22329">
        <ele>882.71875</ele>
        <time>2022-07-10T09:20:32Z</time>
      </trkpt>
      <trkpt lat="43.44423" lon="2.22337">
        <ele>882.15875244</ele>
        <time>2022-07-10T09:20:33Z</time>
      </trkpt>
      <trkpt lat="43.44419" lon="2.22342">
        <ele>881.76873779</ele>
        <time>2022-07-10T09:20:34Z</time>
      </trkpt>
      <trkpt lat="43.44415" lon="2.22347">
        <ele>881.54876709</ele>
        <time>2022-07-10T09:20:35Z</time>
      </trkpt>
      <trkpt lat="43.44412" lon="2.22352">
        <ele>881.46875</ele>
        <time>2022-07-10T09:20:36Z</time>
      </trkpt>
      <trkpt lat="43.44409" lon="2.22357">
        <ele>881.41876221</ele>
        <time>2022-07-10T09:20:37Z</time>
      </trkpt>
      <trkpt lat="43.44408" lon="2.22362">
        <ele>881.38873291</ele>
        <time>2022-07-10T09:20:38Z</time>
      </trkpt>
      <trkpt lat="43.44408" lon="2.22364">
        <ele>881.41876221</ele>
        <time>2022-07-10T09:20:39Z</time>
      </trkpt>
      <trkpt lat="43.44408" lon="2.22367">
        <ele>881.38873291</ele>
        <time>2022-07-10T09:20:40Z</time>
      </trkpt>
      <trkpt lat="43.44409" lon="2.22367">
        <ele>881.28875732</ele>
        <time>2022-07-10T09:20:41Z</time>
      </trkpt>
      <trkpt lat="43.44412" lon="2.22368">
        <ele>881.19873047</ele>
        <time>2022-07-10T09:20:42Z</time>
      </trkpt>
      <trkpt lat="43.44414" lon="2.22368">
        <ele>881.07873535</ele>
        <time>2022-07-10T09:20:43Z</time>
      </trkpt>
      <trkpt lat="43.44417" lon="2.22368">
        <ele>880.99871826</ele>
        <time>2022-07-10T09:20:44Z</time>
      </trkpt>
      <trkpt lat="43.44419" lon="2.22369">
        <ele>881.02874756</ele>
        <time>2022-07-10T09:20:45Z</time>
      </trkpt>
      <trkpt lat="43.44421" lon="2.22369">
        <ele>880.94873047</ele>
        <time>2022-07-10T09:20:46Z</time>
      </trkpt>
      <trkpt lat="43.44425" lon="2.22368">
        <ele>880.94873047</ele>
        <time>2022-07-10T09:20:47Z</time>
      </trkpt>
      <trkpt lat="43.44428" lon="2.22368">
        <ele>880.88873291</ele>
        <time>2022-07-10T09:20:48Z</time>
      </trkpt>
      <trkpt lat="43.44431" lon="2.22367">
        <ele>880.78875732</ele>
        <time>2022-07-10T09:20:49Z</time>
      </trkpt>
      <trkpt lat="43.44434" lon="2.22366">
        <ele>880.64874268</ele>
        <time>2022-07-10T09:20:50Z</time>
      </trkpt>
      <trkpt lat="43.44439" lon="2.22364">
        <ele>880.44873047</ele>
        <time>2022-07-10T09:20:51Z</time>
      </trkpt>
      <trkpt lat="43.44442" lon="2.22363">
        <ele>880.21875</ele>
        <time>2022-07-10T09:20:52Z</time>
      </trkpt>
      <trkpt lat="43.44445" lon="2.22362">
        <ele>879.92877197</ele>
        <time>2022-07-10T09:20:53Z</time>
      </trkpt>
      <trkpt lat="43.44447" lon="2.2236">
        <ele>879.73876953</ele>
        <time>2022-07-10T09:20:54Z</time>
      </trkpt>
      <trkpt lat="43.44451" lon="2.22356">
        <ele>879.53875732</ele>
        <time>2022-07-10T09:20:55Z</time>
      </trkpt>
      <trkpt lat="43.44453" lon="2.22354">
        <ele>879.41876221</ele>
        <time>2022-07-10T09:20:56Z</time>
      </trkpt>
      <trkpt lat="43.44455" lon="2.22352">
        <ele>879.33874512</ele>
        <time>2022-07-10T09:20:57Z</time>
      </trkpt>
      <trkpt lat="43.44458" lon="2.22349">
        <ele>879.20874023</ele>
        <time>2022-07-10T09:20:58Z</time>
      </trkpt>
      <trkpt lat="43.44461" lon="2.22346">
        <ele>879.09875488</ele>
        <time>2022-07-10T09:20:59Z</time>
      </trkpt>
      <trkpt lat="43.44465" lon="2.22344">
        <ele>878.90875244</ele>
        <time>2022-07-10T09:21:00Z</time>
      </trkpt>
      <trkpt lat="43.44468" lon="2.22342">
        <ele>878.76873779</ele>
        <time>2022-07-10T09:21:01Z</time>
      </trkpt>
      <trkpt lat="43.44471" lon="2.2234">
        <ele>878.53875732</ele>
        <time>2022-07-10T09:21:02Z</time>
      </trkpt>
      <trkpt lat="43.44475" lon="2.22339">
        <ele>878.21875</ele>
        <time>2022-07-10T09:21:03Z</time>
      </trkpt>
      <trkpt lat="43.4448" lon="2.22336">
        <ele>877.98876953</ele>
        <time>2022-07-10T09:21:04Z</time>
      </trkpt>
      <trkpt lat="43.44484" lon="2.22334">
        <ele>877.58874512</ele>
        <time>2022-07-10T09:21:05Z</time>
      </trkpt>
      <trkpt lat="43.44488" lon="2.22332">
        <ele>877.34875488</ele>
        <time>2022-07-10T09:21:06Z</time>
      </trkpt>
      <trkpt lat="43.44491" lon="2.22329">
        <ele>877.06872559</ele>
        <time>2022-07-10T09:21:07Z</time>
      </trkpt>
      <trkpt lat="43.44494" lon="2.22328">
        <ele>876.80871582</ele>
        <time>2022-07-10T09:21:08Z</time>
      </trkpt>
      <trkpt lat="43.445" lon="2.22326">
        <ele>876.7387085</ele>
        <time>2022-07-10T09:21:09Z</time>
      </trkpt>
      <trkpt lat="43.44504" lon="2.22324">
        <ele>876.57873535</ele>
        <time>2022-07-10T09:21:10Z</time>
      </trkpt>
      <trkpt lat="43.44508" lon="2.22322">
        <ele>876.40875244</ele>
        <time>2022-07-10T09:21:11Z</time>
      </trkpt>
      <trkpt lat="43.44511" lon="2.2232">
        <ele>876.01873779</ele>
        <time>2022-07-10T09:21:12Z</time>
      </trkpt>
      <trkpt lat="43.44517" lon="2.22316">
        <ele>875.45874023</ele>
        <time>2022-07-10T09:21:13Z</time>
      </trkpt>
      <trkpt lat="43.44521" lon="2.22313">
        <ele>875.00872803</ele>
        <time>2022-07-10T09:21:14Z</time>
      </trkpt>
      <trkpt lat="43.44526" lon="2.2231">
        <ele>874.7387085</ele>
        <time>2022-07-10T09:21:15Z</time>
      </trkpt>
      <trkpt lat="43.4453" lon="2.22307">
        <ele>874.58868408</ele>
        <time>2022-07-10T09:21:16Z</time>
      </trkpt>
      <trkpt lat="43.44534" lon="2.22304">
        <ele>874.61871338</ele>
        <time>2022-07-10T09:21:17Z</time>
      </trkpt>
      <trkpt lat="43.4454" lon="2.22298">
        <ele>874.53869629</ele>
        <time>2022-07-10T09:21:18Z</time>
      </trkpt>
      <trkpt lat="43.44544" lon="2.22295">
        <ele>874.32867432</ele>
        <time>2022-07-10T09:21:19Z</time>
      </trkpt>
      <trkpt lat="43.44548" lon="2.22291">
        <ele>874.21868896</ele>
        <time>2022-07-10T09:21:20Z</time>
      </trkpt>
      <trkpt lat="43.44552" lon="2.22289">
        <ele>874.03869629</ele>
        <time>2022-07-10T09:21:21Z</time>
      </trkpt>
      <trkpt lat="43.44556" lon="2.22287">
        <ele>873.83868408</ele>
        <time>2022-07-10T09:21:22Z</time>
      </trkpt>
      <trkpt lat="43.44562" lon="2.22282">
        <ele>873.74865723</ele>
        <time>2022-07-10T09:21:23Z</time>
      </trkpt>
      <trkpt lat="43.44565" lon="2.22278">
        <ele>873.54864502</ele>
        <time>2022-07-10T09:21:24Z</time>
      </trkpt>
      <trkpt lat="43.44568" lon="2.22274">
        <ele>873.38867188</ele>
        <time>2022-07-10T09:21:25Z</time>
      </trkpt>
      <trkpt lat="43.4457" lon="2.22269">
        <ele>873.28869629</ele>
        <time>2022-07-10T09:21:26Z</time>
      </trkpt>
      <trkpt lat="43.44576" lon="2.22262">
        <ele>873.10870361</ele>
        <time>2022-07-10T09:21:27Z</time>
      </trkpt>
      <trkpt lat="43.4458" lon="2.22257">
        <ele>873.12872314</ele>
        <time>2022-07-10T09:21:28Z</time>
      </trkpt>
      <trkpt lat="43.44584" lon="2.22252">
        <ele>872.9887085</ele>
        <time>2022-07-10T09:21:29Z</time>
      </trkpt>
      <trkpt lat="43.44587" lon="2.22248">
        <ele>872.96868896</ele>
        <time>2022-07-10T09:21:30Z</time>
      </trkpt>
      <trkpt lat="43.44593" lon="2.22241">
        <ele>872.97869873</ele>
        <time>2022-07-10T09:21:31Z</time>
      </trkpt>
      <trkpt lat="43.44597" lon="2.22237">
        <ele>872.85870361</ele>
        <time>2022-07-10T09:21:32Z</time>
      </trkpt>
      <trkpt lat="43.44602" lon="2.22234">
        <ele>872.82867432</ele>
        <time>2022-07-10T09:21:33Z</time>
      </trkpt>
      <trkpt lat="43.44606" lon="2.22232">
        <ele>872.6786499</ele>
        <time>2022-07-10T09:21:34Z</time>
      </trkpt>
      <trkpt lat="43.4461" lon="2.2223">
        <ele>872.52862549</ele>
        <time>2022-07-10T09:21:35Z</time>
      </trkpt>
      <trkpt lat="43.44617" lon="2.22228">
        <ele>872.39862061</ele>
        <time>2022-07-10T09:21:36Z</time>
      </trkpt>
      <trkpt lat="43.44622" lon="2.22226">
        <ele>872.30859375</ele>
        <time>2022-07-10T09:21:37Z</time>
      </trkpt>
      <trkpt lat="43.44626" lon="2.22224">
        <ele>872.11859131</ele>
        <time>2022-07-10T09:21:38Z</time>
      </trkpt>
      <trkpt lat="43.44631" lon="2.22222">
        <ele>871.89862061</ele>
        <time>2022-07-10T09:21:39Z</time>
      </trkpt>
      <trkpt lat="43.44636" lon="2.22221">
        <ele>871.71862793</ele>
        <time>2022-07-10T09:21:40Z</time>
      </trkpt>
      <trkpt lat="43.44643" lon="2.2222">
        <ele>871.53863525</ele>
        <time>2022-07-10T09:21:41Z</time>
      </trkpt>
      <trkpt lat="43.44648" lon="2.22219">
        <ele>871.39862061</ele>
        <time>2022-07-10T09:21:42Z</time>
      </trkpt>
      <trkpt lat="43.44652" lon="2.2222">
        <ele>871.29864502</ele>
        <time>2022-07-10T09:21:43Z</time>
      </trkpt>
      <trkpt lat="43.44657" lon="2.2222">
        <ele>871.10864258</ele>
        <time>2022-07-10T09:21:44Z</time>
      </trkpt>
      <trkpt lat="43.44663" lon="2.22221">
        <ele>870.91864014</ele>
        <time>2022-07-10T09:21:45Z</time>
      </trkpt>
      <trkpt lat="43.44668" lon="2.22224">
        <ele>870.6786499</ele>
        <time>2022-07-10T09:21:46Z</time>
      </trkpt>
      <trkpt lat="43.44672" lon="2.22226">
        <ele>870.29864502</ele>
        <time>2022-07-10T09:21:47Z</time>
      </trkpt>
      <trkpt lat="43.44676" lon="2.2223">
        <ele>870.09863281</ele>
        <time>2022-07-10T09:21:48Z</time>
      </trkpt>
      <trkpt lat="43.4468" lon="2.22234">
        <ele>869.64862061</ele>
        <time>2022-07-10T09:21:49Z</time>
      </trkpt>
      <trkpt lat="43.44686" lon="2.22238">
        <ele>869.28863525</ele>
        <time>2022-07-10T09:21:50Z</time>
      </trkpt>
      <trkpt lat="43.4469" lon="2.22242">
        <ele>868.95861816</ele>
        <time>2022-07-10T09:21:51Z</time>
      </trkpt>
      <trkpt lat="43.44694" lon="2.22246">
        <ele>868.25860596</ele>
        <time>2022-07-10T09:21:52Z</time>
      </trkpt>
      <trkpt lat="43.44699" lon="2.2225">
        <ele>867.84863281</ele>
        <time>2022-07-10T09:21:53Z</time>
      </trkpt>
      <trkpt lat="43.44702" lon="2.22253">
        <ele>867.40863037</ele>
        <time>2022-07-10T09:21:54Z</time>
      </trkpt>
      <trkpt lat="43.44705" lon="2.22255">
        <ele>867.00860596</ele>
        <time>2022-07-10T09:21:55Z</time>
      </trkpt>
      <trkpt lat="43.44708" lon="2.22258">
        <ele>866.92858887</ele>
        <time>2022-07-10T09:21:56Z</time>
      </trkpt>
      <trkpt lat="43.4471" lon="2.2226">
        <ele>866.70861816</ele>
        <time>2022-07-10T09:21:57Z</time>
      </trkpt>
      <trkpt lat="43.44715" lon="2.22263">
        <ele>866.4786377</ele>
        <time>2022-07-10T09:21:58Z</time>
      </trkpt>
      <trkpt lat="43.44718" lon="2.22266">
        <ele>866.32861328</ele>
        <time>2022-07-10T09:21:59Z</time>
      </trkpt>
      <trkpt lat="43.44721" lon="2.22268">
        <ele>865.89862061</ele>
        <time>2022-07-10T09:22:00Z</time>
      </trkpt>
      <trkpt lat="43.44724" lon="2.22271">
        <ele>865.52862549</ele>
        <time>2022-07-10T09:22:01Z</time>
      </trkpt>
      <trkpt lat="43.44729" lon="2.22275">
        <ele>865.18859863</ele>
        <time>2022-07-10T09:22:02Z</time>
      </trkpt>
      <trkpt lat="43.44733" lon="2.22277">
        <ele>864.78857422</ele>
        <time>2022-07-10T09:22:03Z</time>
      </trkpt>
      <trkpt lat="43.44737" lon="2.22279">
        <ele>864.6685791</ele>
        <time>2022-07-10T09:22:04Z</time>
      </trkpt>
      <trkpt lat="43.4474" lon="2.22281">
        <ele>864.56860352</ele>
        <time>2022-07-10T09:22:05Z</time>
      </trkpt>
      <trkpt lat="43.44743" lon="2.22283">
        <ele>864.46862793</ele>
        <time>2022-07-10T09:22:06Z</time>
      </trkpt>
      <trkpt lat="43.44746" lon="2.22285">
        <ele>864.39862061</ele>
        <time>2022-07-10T09:22:07Z</time>
      </trkpt>
      <trkpt lat="43.44749" lon="2.22287">
        <ele>864.25860596</ele>
        <time>2022-07-10T09:22:08Z</time>
      </trkpt>
      <trkpt lat="43.44751" lon="2.2229">
        <ele>864.02862549</ele>
        <time>2022-07-10T09:22:09Z</time>
      </trkpt>
      <trkpt lat="43.44751" lon="2.22293">
        <ele>863.81860352</ele>
        <time>2022-07-10T09:22:10Z</time>
      </trkpt>
      <trkpt lat="43.44751" lon="2.22296">
        <ele>863.59863281</ele>
        <time>2022-07-10T09:22:11Z</time>
      </trkpt>
      <trkpt lat="43.44749" lon="2.22298">
        <ele>863.32861328</ele>
        <time>2022-07-10T09:22:12Z</time>
      </trkpt>
      <trkpt lat="43.44748" lon="2.22299">
        <ele>863.2286377</ele>
        <time>2022-07-10T09:22:13Z</time>
      </trkpt>
      <trkpt lat="43.44747" lon="2.22298">
        <ele>863.09863281</ele>
        <time>2022-07-10T09:22:14Z</time>
      </trkpt>
      <trkpt lat="43.44745" lon="2.22298">
        <ele>863.03863525</ele>
        <time>2022-07-10T09:22:15Z</time>
      </trkpt>
      <trkpt lat="43.44744" lon="2.22297">
        <ele>862.98864746</ele>
        <time>2022-07-10T09:22:16Z</time>
      </trkpt>
      <trkpt lat="43.4474" lon="2.22294">
        <ele>862.87866211</ele>
        <time>2022-07-10T09:22:17Z</time>
      </trkpt>
      <trkpt lat="43.44738" lon="2.22293">
        <ele>862.86865234</ele>
        <time>2022-07-10T09:22:18Z</time>
      </trkpt>
      <trkpt lat="43.44735" lon="2.22292">
        <ele>862.77862549</ele>
        <time>2022-07-10T09:22:19Z</time>
      </trkpt>
      <trkpt lat="43.44733" lon="2.22291">
        <ele>862.84863281</ele>
        <time>2022-07-10T09:22:20Z</time>
      </trkpt>
      <trkpt lat="43.44728" lon="2.22288">
        <ele>862.82861328</ele>
        <time>2022-07-10T09:22:21Z</time>
      </trkpt>
      <trkpt lat="43.44725" lon="2.22287">
        <ele>862.76861572</ele>
        <time>2022-07-10T09:22:22Z</time>
      </trkpt>
      <trkpt lat="43.44721" lon="2.22285">
        <ele>862.80859375</ele>
        <time>2022-07-10T09:22:23Z</time>
      </trkpt>
      <trkpt lat="43.44718" lon="2.22284">
        <ele>862.82861328</ele>
        <time>2022-07-10T09:22:24Z</time>
      </trkpt>
      <trkpt lat="43.44715" lon="2.22283">
        <ele>862.89862061</ele>
        <time>2022-07-10T09:22:25Z</time>
      </trkpt>
      <trkpt lat="43.4471" lon="2.22281">
        <ele>862.95861816</ele>
        <time>2022-07-10T09:22:26Z</time>
      </trkpt>
      <trkpt lat="43.44706" lon="2.2228">
        <ele>862.9486084</ele>
        <time>2022-07-10T09:22:27Z</time>
      </trkpt>
      <trkpt lat="43.44703" lon="2.22279">
        <ele>862.88861084</ele>
        <time>2022-07-10T09:22:28Z</time>
      </trkpt>
      <trkpt lat="43.44699" lon="2.2228">
        <ele>862.81860352</ele>
        <time>2022-07-10T09:22:29Z</time>
      </trkpt>
      <trkpt lat="43.44695" lon="2.22281">
        <ele>862.70861816</ele>
        <time>2022-07-10T09:22:30Z</time>
      </trkpt>
      <trkpt lat="43.44692" lon="2.22283">
        <ele>862.65863037</ele>
        <time>2022-07-10T09:22:31Z</time>
      </trkpt>
      <trkpt lat="43.44688" lon="2.22284">
        <ele>862.51861572</ele>
        <time>2022-07-10T09:22:32Z</time>
      </trkpt>
      <trkpt lat="43.44685" lon="2.22286">
        <ele>862.38861084</ele>
        <time>2022-07-10T09:22:33Z</time>
      </trkpt>
      <trkpt lat="43.44681" lon="2.22288">
        <ele>862.20861816</ele>
        <time>2022-07-10T09:22:34Z</time>
      </trkpt>
      <trkpt lat="43.44677" lon="2.22291">
        <ele>862.04864502</ele>
        <time>2022-07-10T09:22:35Z</time>
      </trkpt>
      <trkpt lat="43.44673" lon="2.22294">
        <ele>861.86865234</ele>
        <time>2022-07-10T09:22:36Z</time>
      </trkpt>
      <trkpt lat="43.4467" lon="2.22298">
        <ele>861.61865234</ele>
        <time>2022-07-10T09:22:37Z</time>
      </trkpt>
      <trkpt lat="43.44667" lon="2.22303">
        <ele>861.52862549</ele>
        <time>2022-07-10T09:22:38Z</time>
      </trkpt>
      <trkpt lat="43.44662" lon="2.22309">
        <ele>861.1986084</ele>
        <time>2022-07-10T09:22:39Z</time>
      </trkpt>
      <trkpt lat="43.4466" lon="2.22315">
        <ele>860.75860596</ele>
        <time>2022-07-10T09:22:40Z</time>
      </trkpt>
      <trkpt lat="43.44658" lon="2.22322">
        <ele>860.21862793</ele>
        <time>2022-07-10T09:22:41Z</time>
      </trkpt>
      <trkpt lat="43.44656" lon="2.22328">
        <ele>859.51861572</ele>
        <time>2022-07-10T09:22:42Z</time>
      </trkpt>
      <trkpt lat="43.44652" lon="2.22338">
        <ele>859.00860596</ele>
        <time>2022-07-10T09:22:43Z</time>
      </trkpt>
      <trkpt lat="43.44651" lon="2.22345">
        <ele>858.25860596</ele>
        <time>2022-07-10T09:22:44Z</time>
      </trkpt>
      <trkpt lat="43.44649" lon="2.22353">
        <ele>857.55859375</ele>
        <time>2022-07-10T09:22:45Z</time>
      </trkpt>
      <trkpt lat="43.44648" lon="2.22361">
        <ele>856.88861084</ele>
        <time>2022-07-10T09:22:46Z</time>
      </trkpt>
      <trkpt lat="43.44647" lon="2.22368">
        <ele>856.17858887</ele>
        <time>2022-07-10T09:22:47Z</time>
      </trkpt>
      <trkpt lat="43.44645" lon="2.22378">
        <ele>855.76861572</ele>
        <time>2022-07-10T09:22:48Z</time>
      </trkpt>
      <trkpt lat="43.44644" lon="2.22385">
        <ele>855.34863281</ele>
        <time>2022-07-10T09:22:49Z</time>
      </trkpt>
      <trkpt lat="43.44641" lon="2.2239">
        <ele>854.81860352</ele>
        <time>2022-07-10T09:22:50Z</time>
      </trkpt>
      <trkpt lat="43.4464" lon="2.22395">
        <ele>854.1685791</ele>
        <time>2022-07-10T09:22:51Z</time>
      </trkpt>
      <trkpt lat="43.4464" lon="2.22401">
        <ele>853.4486084</ele>
        <time>2022-07-10T09:22:52Z</time>
      </trkpt>
      <trkpt lat="43.44637" lon="2.22413">
        <ele>852.71862793</ele>
        <time>2022-07-10T09:22:53Z</time>
      </trkpt>
      <trkpt lat="43.44635" lon="2.22424">
        <ele>852.01861572</ele>
        <time>2022-07-10T09:22:54Z</time>
      </trkpt>
      <trkpt lat="43.44632" lon="2.22435">
        <ele>851.2286377</ele>
        <time>2022-07-10T09:22:55Z</time>
      </trkpt>
      <trkpt lat="43.4463" lon="2.22444">
        <ele>850.43865967</ele>
        <time>2022-07-10T09:22:56Z</time>
      </trkpt>
      <trkpt lat="43.44628" lon="2.22458">
        <ele>849.48864746</ele>
        <time>2022-07-10T09:22:57Z</time>
      </trkpt>
      <trkpt lat="43.44628" lon="2.22464">
        <ele>848.82867432</ele>
        <time>2022-07-10T09:22:58Z</time>
      </trkpt>
      <trkpt lat="43.44628" lon="2.2247">
        <ele>848.33868408</ele>
        <time>2022-07-10T09:22:59Z</time>
      </trkpt>
      <trkpt lat="43.44627" lon="2.22477">
        <ele>847.97869873</ele>
        <time>2022-07-10T09:23:00Z</time>
      </trkpt>
      <trkpt lat="43.44627" lon="2.22487">
        <ele>847.69866943</ele>
        <time>2022-07-10T09:23:01Z</time>
      </trkpt>
      <trkpt lat="43.44625" lon="2.22493">
        <ele>847.31866455</ele>
        <time>2022-07-10T09:23:02Z</time>
      </trkpt>
      <trkpt lat="43.44624" lon="2.225">
        <ele>846.9786377</ele>
        <time>2022-07-10T09:23:03Z</time>
      </trkpt>
      <trkpt lat="43.44623" lon="2.22507">
        <ele>846.51861572</ele>
        <time>2022-07-10T09:23:04Z</time>
      </trkpt>
      <trkpt lat="43.4462" lon="2.22514">
        <ele>846.21862793</ele>
        <time>2022-07-10T09:23:05Z</time>
      </trkpt>
      <trkpt lat="43.44618" lon="2.22524">
        <ele>845.83862305</ele>
        <time>2022-07-10T09:23:06Z</time>
      </trkpt>
      <trkpt lat="43.44616" lon="2.2253">
        <ele>845.36865234</ele>
        <time>2022-07-10T09:23:07Z</time>
      </trkpt>
      <trkpt lat="43.44613" lon="2.22533">
        <ele>844.87866211</ele>
        <time>2022-07-10T09:23:08Z</time>
      </trkpt>
      <trkpt lat="43.44611" lon="2.22537">
        <ele>844.58868408</ele>
        <time>2022-07-10T09:23:09Z</time>
      </trkpt>
      <trkpt lat="43.44608" lon="2.22546">
        <ele>844.11871338</ele>
        <time>2022-07-10T09:23:10Z</time>
      </trkpt>
      <trkpt lat="43.44605" lon="2.22553">
        <ele>843.67871094</ele>
        <time>2022-07-10T09:23:11Z</time>
      </trkpt>
      <trkpt lat="43.44602" lon="2.22561">
        <ele>843.47869873</ele>
        <time>2022-07-10T09:23:12Z</time>
      </trkpt>
      <trkpt lat="43.44599" lon="2.22569">
        <ele>842.81872559</ele>
        <time>2022-07-10T09:23:13Z</time>
      </trkpt>
      <trkpt lat="43.44595" lon="2.22576">
        <ele>842.2387085</ele>
        <time>2022-07-10T09:23:14Z</time>
      </trkpt>
      <trkpt lat="43.4459" lon="2.22586">
        <ele>841.61871338</ele>
        <time>2022-07-10T09:23:15Z</time>
      </trkpt>
      <trkpt lat="43.44586" lon="2.22592">
        <ele>840.88873291</ele>
        <time>2022-07-10T09:23:16Z</time>
      </trkpt>
      <trkpt lat="43.44582" lon="2.22597">
        <ele>840.21875</ele>
        <time>2022-07-10T09:23:17Z</time>
      </trkpt>
      <trkpt lat="43.44578" lon="2.22601">
        <ele>839.65875244</ele>
        <time>2022-07-10T09:23:18Z</time>
      </trkpt>
      <trkpt lat="43.44573" lon="2.22607">
        <ele>839.16876221</ele>
        <time>2022-07-10T09:23:19Z</time>
      </trkpt>
      <trkpt lat="43.44569" lon="2.22611">
        <ele>838.52874756</ele>
        <time>2022-07-10T09:23:20Z</time>
      </trkpt>
      <trkpt lat="43.44565" lon="2.22613">
        <ele>838.28875732</ele>
        <time>2022-07-10T09:23:21Z</time>
      </trkpt>
      <trkpt lat="43.4456" lon="2.22615">
        <ele>837.73876953</ele>
        <time>2022-07-10T09:23:22Z</time>
      </trkpt>
      <trkpt lat="43.44556" lon="2.22618">
        <ele>837.17877197</ele>
        <time>2022-07-10T09:23:23Z</time>
      </trkpt>
      <trkpt lat="43.44549" lon="2.2262">
        <ele>836.81878662</ele>
        <time>2022-07-10T09:23:24Z</time>
      </trkpt>
      <trkpt lat="43.44544" lon="2.2262">
        <ele>836.11877441</ele>
        <time>2022-07-10T09:23:25Z</time>
      </trkpt>
      <trkpt lat="43.44539" lon="2.2262">
        <ele>835.67877197</ele>
        <time>2022-07-10T09:23:26Z</time>
      </trkpt>
      <trkpt lat="43.44534" lon="2.2262">
        <ele>835.21875</ele>
        <time>2022-07-10T09:23:27Z</time>
      </trkpt>
      <trkpt lat="43.4453" lon="2.22619">
        <ele>834.65875244</ele>
        <time>2022-07-10T09:23:28Z</time>
      </trkpt>
      <trkpt lat="43.44522" lon="2.22618">
        <ele>834.16876221</ele>
        <time>2022-07-10T09:23:29Z</time>
      </trkpt>
      <trkpt lat="43.44517" lon="2.22618">
        <ele>833.59875488</ele>
        <time>2022-07-10T09:23:30Z</time>
      </trkpt>
      <trkpt lat="43.44512" lon="2.22617">
        <ele>833.00872803</ele>
        <time>2022-07-10T09:23:31Z</time>
      </trkpt>
      <trkpt lat="43.44506" lon="2.22617">
        <ele>832.36871338</ele>
        <time>2022-07-10T09:23:32Z</time>
      </trkpt>
      <trkpt lat="43.44498" lon="2.22616">
        <ele>831.97869873</ele>
        <time>2022-07-10T09:23:33Z</time>
      </trkpt>
      <trkpt lat="43.44493" lon="2.22617">
        <ele>831.71868896</ele>
        <time>2022-07-10T09:23:34Z</time>
      </trkpt>
      <trkpt lat="43.44487" lon="2.22618">
        <ele>831.34869385</ele>
        <time>2022-07-10T09:23:35Z</time>
      </trkpt>
      <trkpt lat="43.44481" lon="2.22619">
        <ele>830.87872314</ele>
        <time>2022-07-10T09:23:36Z</time>
      </trkpt>
      <trkpt lat="43.44472" lon="2.2262">
        <ele>830.30871582</ele>
        <time>2022-07-10T09:23:37Z</time>
      </trkpt>
      <trkpt lat="43.44467" lon="2.22621">
        <ele>829.58874512</ele>
        <time>2022-07-10T09:23:38Z</time>
      </trkpt>
      <trkpt lat="43.44461" lon="2.22623">
        <ele>829.12872314</ele>
        <time>2022-07-10T09:23:39Z</time>
      </trkpt>
      <trkpt lat="43.44456" lon="2.22625">
        <ele>828.84869385</ele>
        <time>2022-07-10T09:23:40Z</time>
      </trkpt>
      <trkpt lat="43.44451" lon="2.22627">
        <ele>828.36871338</ele>
        <time>2022-07-10T09:23:41Z</time>
      </trkpt>
      <trkpt lat="43.44444" lon="2.2263">
        <ele>827.72869873</ele>
        <time>2022-07-10T09:23:42Z</time>
      </trkpt>
      <trkpt lat="43.44439" lon="2.22634">
        <ele>827.02868652</ele>
        <time>2022-07-10T09:23:43Z</time>
      </trkpt>
      <trkpt lat="43.44433" lon="2.22637">
        <ele>826.40869141</ele>
        <time>2022-07-10T09:23:44Z</time>
      </trkpt>
      <trkpt lat="43.44427" lon="2.22643">
        <ele>825.62866211</ele>
        <time>2022-07-10T09:23:45Z</time>
      </trkpt>
      <trkpt lat="43.44419" lon="2.2265">
        <ele>825.01867676</ele>
        <time>2022-07-10T09:23:46Z</time>
      </trkpt>
      <trkpt lat="43.44413" lon="2.22655">
        <ele>824.32867432</ele>
        <time>2022-07-10T09:23:47Z</time>
      </trkpt>
      <trkpt lat="43.44407" lon="2.2266">
        <ele>823.6786499</ele>
        <time>2022-07-10T09:23:48Z</time>
      </trkpt>
      <trkpt lat="43.44401" lon="2.22664">
        <ele>823.14862061</ele>
        <time>2022-07-10T09:23:49Z</time>
      </trkpt>
      <trkpt lat="43.44396" lon="2.22669">
        <ele>822.73864746</ele>
        <time>2022-07-10T09:23:50Z</time>
      </trkpt>
      <trkpt lat="43.44389" lon="2.22677">
        <ele>822.66864014</ele>
        <time>2022-07-10T09:23:51Z</time>
      </trkpt>
      <trkpt lat="43.44385" lon="2.22682">
        <ele>822.33862305</ele>
        <time>2022-07-10T09:23:52Z</time>
      </trkpt>
      <trkpt lat="43.44381" lon="2.22689">
        <ele>822.33862305</ele>
        <time>2022-07-10T09:23:53Z</time>
      </trkpt>
      <trkpt lat="43.44378" lon="2.22695">
        <ele>822.34863281</ele>
        <time>2022-07-10T09:23:54Z</time>
      </trkpt>
      <trkpt lat="43.44375" lon="2.22706">
        <ele>822.12866211</ele>
        <time>2022-07-10T09:23:55Z</time>
      </trkpt>
      <trkpt lat="43.44373" lon="2.22711">
        <ele>822.10864258</ele>
        <time>2022-07-10T09:23:56Z</time>
      </trkpt>
      <trkpt lat="43.4437" lon="2.22717">
        <ele>821.95861816</ele>
        <time>2022-07-10T09:23:57Z</time>
      </trkpt>
      <trkpt lat="43.44367" lon="2.22723">
        <ele>821.56860352</ele>
        <time>2022-07-10T09:23:58Z</time>
      </trkpt>
      <trkpt lat="43.44364" lon="2.2273">
        <ele>821.03857422</ele>
        <time>2022-07-10T09:23:59Z</time>
      </trkpt>
      <trkpt lat="43.44359" lon="2.2274">
        <ele>820.50854492</ele>
        <time>2022-07-10T09:24:00Z</time>
      </trkpt>
      <trkpt lat="43.44355" lon="2.22745">
        <ele>819.94854736</ele>
        <time>2022-07-10T09:24:01Z</time>
      </trkpt>
      <trkpt lat="43.44351" lon="2.22749">
        <ele>819.44854736</ele>
        <time>2022-07-10T09:24:02Z</time>
      </trkpt>
      <trkpt lat="43.44346" lon="2.22751">
        <ele>819.02856445</ele>
        <time>2022-07-10T09:24:03Z</time>
      </trkpt>
      <trkpt lat="43.44339" lon="2.22751">
        <ele>818.45855713</ele>
        <time>2022-07-10T09:24:04Z</time>
      </trkpt>
      <trkpt lat="43.44334" lon="2.22749">
        <ele>817.92852783</ele>
        <time>2022-07-10T09:24:05Z</time>
      </trkpt>
      <trkpt lat="43.4433" lon="2.22747">
        <ele>817.71850586</ele>
        <time>2022-07-10T09:24:06Z</time>
      </trkpt>
      <trkpt lat="43.44326" lon="2.22746">
        <ele>817.35852051</ele>
        <time>2022-07-10T09:24:07Z</time>
      </trkpt>
      <trkpt lat="43.44321" lon="2.22747">
        <ele>817.00854492</ele>
        <time>2022-07-10T09:24:08Z</time>
      </trkpt>
      <trkpt lat="43.44316" lon="2.2275">
        <ele>816.53857422</ele>
        <time>2022-07-10T09:24:09Z</time>
      </trkpt>
      <trkpt lat="43.44312" lon="2.22753">
        <ele>815.9185791</ele>
        <time>2022-07-10T09:24:10Z</time>
      </trkpt>
      <trkpt lat="43.44307" lon="2.22757">
        <ele>815.33856201</ele>
        <time>2022-07-10T09:24:11Z</time>
      </trkpt>
      <trkpt lat="43.44303" lon="2.22762">
        <ele>814.73858643</ele>
        <time>2022-07-10T09:24:12Z</time>
      </trkpt>
      <trkpt lat="43.44295" lon="2.22771">
        <ele>814.13861084</ele>
        <time>2022-07-10T09:24:13Z</time>
      </trkpt>
      <trkpt lat="43.44291" lon="2.22776">
        <ele>813.58862305</ele>
        <time>2022-07-10T09:24:14Z</time>
      </trkpt>
      <trkpt lat="43.44286" lon="2.22781">
        <ele>813.13861084</ele>
        <time>2022-07-10T09:24:15Z</time>
      </trkpt>
      <trkpt lat="43.44282" lon="2.22785">
        <ele>812.80859375</ele>
        <time>2022-07-10T09:24:16Z</time>
      </trkpt>
      <trkpt lat="43.44278" lon="2.22789">
        <ele>812.52856445</ele>
        <time>2022-07-10T09:24:17Z</time>
      </trkpt>
      <trkpt lat="43.44271" lon="2.22792">
        <ele>812.1385498</ele>
        <time>2022-07-10T09:24:18Z</time>
      </trkpt>
      <trkpt lat="43.44267" lon="2.22792">
        <ele>811.73852539</ele>
        <time>2022-07-10T09:24:19Z</time>
      </trkpt>
      <trkpt lat="43.44263" lon="2.2279">
        <ele>811.50854492</ele>
        <time>2022-07-10T09:24:20Z</time>
      </trkpt>
      <trkpt lat="43.44259" lon="2.22788">
        <ele>811.21856689</ele>
        <time>2022-07-10T09:24:21Z</time>
      </trkpt>
      <trkpt lat="43.44256" lon="2.22785">
        <ele>811.07855225</ele>
        <time>2022-07-10T09:24:22Z</time>
      </trkpt>
      <trkpt lat="43.44253" lon="2.22781">
        <ele>810.74853516</ele>
        <time>2022-07-10T09:24:23Z</time>
      </trkpt>
      <trkpt lat="43.44251" lon="2.22778">
        <ele>810.28851318</ele>
        <time>2022-07-10T09:24:24Z</time>
      </trkpt>
      <trkpt lat="43.44248" lon="2.22774">
        <ele>809.92852783</ele>
        <time>2022-07-10T09:24:25Z</time>
      </trkpt>
      <trkpt lat="43.44245" lon="2.2277">
        <ele>809.28851318</ele>
        <time>2022-07-10T09:24:26Z</time>
      </trkpt>
      <trkpt lat="43.44239" lon="2.22765">
        <ele>808.94848633</ele>
        <time>2022-07-10T09:24:27Z</time>
      </trkpt>
      <trkpt lat="43.44236" lon="2.22762">
        <ele>808.52850342</ele>
        <time>2022-07-10T09:24:28Z</time>
      </trkpt>
      <trkpt lat="43.44233" lon="2.22759">
        <ele>808.01849365</ele>
        <time>2022-07-10T09:24:29Z</time>
      </trkpt>
      <trkpt lat="43.4423" lon="2.22755">
        <ele>807.61846924</ele>
        <time>2022-07-10T09:24:30Z</time>
      </trkpt>
      <trkpt lat="43.44222" lon="2.22751">
        <ele>806.95849609</ele>
        <time>2022-07-10T09:24:31Z</time>
      </trkpt>
      <trkpt lat="43.44216" lon="2.22749">
        <ele>806.4284668</ele>
        <time>2022-07-10T09:24:32Z</time>
      </trkpt>
      <trkpt lat="43.44211" lon="2.22746">
        <ele>805.72845459</ele>
        <time>2022-07-10T09:24:33Z</time>
      </trkpt>
      <trkpt lat="43.44205" lon="2.22743">
        <ele>805.09844971</ele>
        <time>2022-07-10T09:24:34Z</time>
      </trkpt>
      <trkpt lat="43.44199" lon="2.22741">
        <ele>804.47845459</ele>
        <time>2022-07-10T09:24:35Z</time>
      </trkpt>
      <trkpt lat="43.4419" lon="2.22739">
        <ele>803.61846924</ele>
        <time>2022-07-10T09:24:36Z</time>
      </trkpt>
      <trkpt lat="43.44184" lon="2.22737">
        <ele>803.06848145</ele>
        <time>2022-07-10T09:24:37Z</time>
      </trkpt>
      <trkpt lat="43.44177" lon="2.22735">
        <ele>802.16845703</ele>
        <time>2022-07-10T09:24:38Z</time>
      </trkpt>
      <trkpt lat="43.44171" lon="2.22733">
        <ele>801.47845459</ele>
        <time>2022-07-10T09:24:39Z</time>
      </trkpt>
      <trkpt lat="43.44164" lon="2.22732">
        <ele>800.59844971</ele>
        <time>2022-07-10T09:24:40Z</time>
      </trkpt>
      <trkpt lat="43.44154" lon="2.22732">
        <ele>799.84844971</ele>
        <time>2022-07-10T09:24:41Z</time>
      </trkpt>
      <trkpt lat="43.44147" lon="2.22731">
        <ele>799.15844727</ele>
        <time>2022-07-10T09:24:42Z</time>
      </trkpt>
      <trkpt lat="43.44141" lon="2.2273">
        <ele>798.57843018</ele>
        <time>2022-07-10T09:24:43Z</time>
      </trkpt>
      <trkpt lat="43.44135" lon="2.2273">
        <ele>798.29840088</ele>
        <time>2022-07-10T09:24:44Z</time>
      </trkpt>
      <trkpt lat="43.44127" lon="2.22728">
        <ele>797.87841797</ele>
        <time>2022-07-10T09:24:45Z</time>
      </trkpt>
      <trkpt lat="43.44123" lon="2.22727">
        <ele>797.65844727</ele>
        <time>2022-07-10T09:24:46Z</time>
      </trkpt>
      <trkpt lat="43.44119" lon="2.22727">
        <ele>797.29846191</ele>
        <time>2022-07-10T09:24:47Z</time>
      </trkpt>
      <trkpt lat="43.44115" lon="2.22726">
        <ele>797.03845215</ele>
        <time>2022-07-10T09:24:48Z</time>
      </trkpt>
      <trkpt lat="43.44113" lon="2.22724">
        <ele>796.878479</ele>
        <time>2022-07-10T09:24:49Z</time>
      </trkpt>
      <trkpt lat="43.44109" lon="2.2272">
        <ele>796.86846924</ele>
        <time>2022-07-10T09:24:50Z</time>
      </trkpt>
      <trkpt lat="43.44105" lon="2.22715">
        <ele>796.878479</ele>
        <time>2022-07-10T09:24:51Z</time>
      </trkpt>
      <trkpt lat="43.44102" lon="2.22711">
        <ele>796.88848877</ele>
        <time>2022-07-10T09:24:52Z</time>
      </trkpt>
      <trkpt lat="43.44098" lon="2.22708">
        <ele>796.878479</ele>
        <time>2022-07-10T09:24:53Z</time>
      </trkpt>
      <trkpt lat="43.44094" lon="2.22703">
        <ele>796.80847168</ele>
        <time>2022-07-10T09:24:54Z</time>
      </trkpt>
      <trkpt lat="43.44092" lon="2.22699">
        <ele>796.77844238</ele>
        <time>2022-07-10T09:24:55Z</time>
      </trkpt>
      <trkpt lat="43.44089" lon="2.22696">
        <ele>796.65844727</ele>
        <time>2022-07-10T09:24:56Z</time>
      </trkpt>
      <trkpt lat="43.44087" lon="2.22692">
        <ele>796.51843262</ele>
        <time>2022-07-10T09:24:57Z</time>
      </trkpt>
      <trkpt lat="43.44081" lon="2.22689">
        <ele>796.15844727</ele>
        <time>2022-07-10T09:24:58Z</time>
      </trkpt>
      <trkpt lat="43.44077" lon="2.22686">
        <ele>795.66845703</ele>
        <time>2022-07-10T09:24:59Z</time>
      </trkpt>
      <trkpt lat="43.44072" lon="2.22686">
        <ele>795.36846924</ele>
        <time>2022-07-10T09:25:00Z</time>
      </trkpt>
      <trkpt lat="43.44067" lon="2.22686">
        <ele>794.79846191</ele>
        <time>2022-07-10T09:25:01Z</time>
      </trkpt>
      <trkpt lat="43.44063" lon="2.22686">
        <ele>794.44848633</ele>
        <time>2022-07-10T09:25:02Z</time>
      </trkpt>
      <trkpt lat="43.44057" lon="2.22688">
        <ele>794.00848389</ele>
        <time>2022-07-10T09:25:03Z</time>
      </trkpt>
      <trkpt lat="43.44053" lon="2.22691">
        <ele>793.49847412</ele>
        <time>2022-07-10T09:25:04Z</time>
      </trkpt>
      <trkpt lat="43.4405" lon="2.22695">
        <ele>793.11846924</ele>
        <time>2022-07-10T09:25:05Z</time>
      </trkpt>
      <trkpt lat="43.44047" lon="2.22699">
        <ele>792.93847656</ele>
        <time>2022-07-10T09:25:06Z</time>
      </trkpt>
      <trkpt lat="43.44045" lon="2.22704">
        <ele>792.82849121</ele>
        <time>2022-07-10T09:25:07Z</time>
      </trkpt>
      <trkpt lat="43.44041" lon="2.2271">
        <ele>792.78851318</ele>
        <time>2022-07-10T09:25:08Z</time>
      </trkpt>
      <trkpt lat="43.44039" lon="2.22714">
        <ele>792.91851807</ele>
        <time>2022-07-10T09:25:09Z</time>
      </trkpt>
      <trkpt lat="43.44036" lon="2.22716">
        <ele>792.95849609</ele>
        <time>2022-07-10T09:25:10Z</time>
      </trkpt>
      <trkpt lat="43.44032" lon="2.22718">
        <ele>793.09851074</ele>
        <time>2022-07-10T09:25:11Z</time>
      </trkpt>
      <trkpt lat="43.44027" lon="2.22719">
        <ele>793.24853516</ele>
        <time>2022-07-10T09:25:12Z</time>
      </trkpt>
      <trkpt lat="43.44023" lon="2.2272">
        <ele>793.41851807</ele>
        <time>2022-07-10T09:25:13Z</time>
      </trkpt>
      <trkpt lat="43.44018" lon="2.2272">
        <ele>793.47851562</ele>
        <time>2022-07-10T09:25:14Z</time>
      </trkpt>
      <trkpt lat="43.44014" lon="2.2272">
        <ele>793.64849854</ele>
        <time>2022-07-10T09:25:15Z</time>
      </trkpt>
      <trkpt lat="43.4401" lon="2.2272">
        <ele>793.72851562</ele>
        <time>2022-07-10T09:25:16Z</time>
      </trkpt>
      <trkpt lat="43.44004" lon="2.22717">
        <ele>793.74853516</ele>
        <time>2022-07-10T09:25:17Z</time>
      </trkpt>
      <trkpt lat="43.44" lon="2.22716">
        <ele>793.76855469</ele>
        <time>2022-07-10T09:25:18Z</time>
      </trkpt>
      <trkpt lat="43.43997" lon="2.22714">
        <ele>793.77856445</ele>
        <time>2022-07-10T09:25:19Z</time>
      </trkpt>
      <trkpt lat="43.43993" lon="2.22713">
        <ele>793.82855225</ele>
        <time>2022-07-10T09:25:20Z</time>
      </trkpt>
      <trkpt lat="43.43987" lon="2.22711">
        <ele>793.90856934</ele>
        <time>2022-07-10T09:25:21Z</time>
      </trkpt>
      <trkpt lat="43.43983" lon="2.22709">
        <ele>793.93859863</ele>
        <time>2022-07-10T09:25:22Z</time>
      </trkpt>
      <trkpt lat="43.4398" lon="2.22706">
        <ele>793.83862305</ele>
        <time>2022-07-10T09:25:23Z</time>
      </trkpt>
      <trkpt lat="43.43976" lon="2.22702">
        <ele>793.83862305</ele>
        <time>2022-07-10T09:25:24Z</time>
      </trkpt>
      <trkpt lat="43.43972" lon="2.22697">
        <ele>793.62860107</ele>
        <time>2022-07-10T09:25:25Z</time>
      </trkpt>
      <trkpt lat="43.43969" lon="2.22693">
        <ele>793.57861328</ele>
        <time>2022-07-10T09:25:26Z</time>
      </trkpt>
      <trkpt lat="43.43967" lon="2.22689">
        <ele>793.4486084</ele>
        <time>2022-07-10T09:25:27Z</time>
      </trkpt>
      <trkpt lat="43.43964" lon="2.22685">
        <ele>793.21862793</ele>
        <time>2022-07-10T09:25:28Z</time>
      </trkpt>
      <trkpt lat="43.43961" lon="2.22681">
        <ele>793.02862549</ele>
        <time>2022-07-10T09:25:29Z</time>
      </trkpt>
      <trkpt lat="43.43956" lon="2.22676">
        <ele>792.6986084</ele>
        <time>2022-07-10T09:25:30Z</time>
      </trkpt>
      <trkpt lat="43.43953" lon="2.22673">
        <ele>792.4486084</ele>
        <time>2022-07-10T09:25:31Z</time>
      </trkpt>
      <trkpt lat="43.43949" lon="2.22669">
        <ele>792.20861816</ele>
        <time>2022-07-10T09:25:32Z</time>
      </trkpt>
      <trkpt lat="43.43945" lon="2.22665">
        <ele>792.12860107</ele>
        <time>2022-07-10T09:25:33Z</time>
      </trkpt>
      <trkpt lat="43.43941" lon="2.2266">
        <ele>792.06860352</ele>
        <time>2022-07-10T09:25:34Z</time>
      </trkpt>
      <trkpt lat="43.43937" lon="2.22656">
        <ele>791.99859619</ele>
        <time>2022-07-10T09:25:35Z</time>
      </trkpt>
      <trkpt lat="43.43934" lon="2.22653">
        <ele>791.92858887</ele>
        <time>2022-07-10T09:25:36Z</time>
      </trkpt>
      <trkpt lat="43.4393" lon="2.2265">
        <ele>791.78857422</ele>
        <time>2022-07-10T09:25:37Z</time>
      </trkpt>
      <trkpt lat="43.43926" lon="2.22645">
        <ele>791.56860352</ele>
        <time>2022-07-10T09:25:38Z</time>
      </trkpt>
      <trkpt lat="43.43922" lon="2.22638">
        <ele>791.28857422</ele>
        <time>2022-07-10T09:25:39Z</time>
      </trkpt>
      <trkpt lat="43.43919" lon="2.22632">
        <ele>790.98858643</ele>
        <time>2022-07-10T09:25:40Z</time>
      </trkpt>
      <trkpt lat="43.43916" lon="2.22627">
        <ele>790.38861084</ele>
        <time>2022-07-10T09:25:41Z</time>
      </trkpt>
      <trkpt lat="43.43914" lon="2.22623">
        <ele>789.80859375</ele>
        <time>2022-07-10T09:25:42Z</time>
      </trkpt>
      <trkpt lat="43.43911" lon="2.22615">
        <ele>789.22857666</ele>
        <time>2022-07-10T09:25:43Z</time>
      </trkpt>
      <trkpt lat="43.4391" lon="2.22609">
        <ele>788.51855469</ele>
        <time>2022-07-10T09:25:44Z</time>
      </trkpt>
      <trkpt lat="43.43906" lon="2.22604">
        <ele>787.94854736</ele>
        <time>2022-07-10T09:25:45Z</time>
      </trkpt>
      <trkpt lat="43.43901" lon="2.22599">
        <ele>787.34857178</ele>
        <time>2022-07-10T09:25:46Z</time>
      </trkpt>
      <trkpt lat="43.43894" lon="2.22595">
        <ele>786.55859375</ele>
        <time>2022-07-10T09:25:47Z</time>
      </trkpt>
      <trkpt lat="43.43885" lon="2.22588">
        <ele>785.89862061</ele>
        <time>2022-07-10T09:25:48Z</time>
      </trkpt>
      <trkpt lat="43.43879" lon="2.22584">
        <ele>785.37860107</ele>
        <time>2022-07-10T09:25:49Z</time>
      </trkpt>
      <trkpt lat="43.43873" lon="2.22579">
        <ele>785.01861572</ele>
        <time>2022-07-10T09:25:50Z</time>
      </trkpt>
      <trkpt lat="43.43868" lon="2.22576">
        <ele>784.95861816</ele>
        <time>2022-07-10T09:25:51Z</time>
      </trkpt>
      <trkpt lat="43.43862" lon="2.22572">
        <ele>784.63861084</ele>
        <time>2022-07-10T09:25:52Z</time>
      </trkpt>
      <trkpt lat="43.43854" lon="2.22568">
        <ele>784.53863525</ele>
        <time>2022-07-10T09:25:53Z</time>
      </trkpt>
      <trkpt lat="43.43849" lon="2.22566">
        <ele>784.34863281</ele>
        <time>2022-07-10T09:25:54Z</time>
      </trkpt>
      <trkpt lat="43.43843" lon="2.22565">
        <ele>784.01861572</ele>
        <time>2022-07-10T09:25:55Z</time>
      </trkpt>
      <trkpt lat="43.43838" lon="2.22564">
        <ele>783.9486084</ele>
        <time>2022-07-10T09:25:56Z</time>
      </trkpt>
      <trkpt lat="43.4383" lon="2.22563">
        <ele>783.55859375</ele>
        <time>2022-07-10T09:25:57Z</time>
      </trkpt>
      <trkpt lat="43.43824" lon="2.22564">
        <ele>783.17858887</ele>
        <time>2022-07-10T09:25:58Z</time>
      </trkpt>
      <trkpt lat="43.43819" lon="2.22564">
        <ele>783.03857422</ele>
        <time>2022-07-10T09:25:59Z</time>
      </trkpt>
      <trkpt lat="43.43813" lon="2.22565">
        <ele>782.84857178</ele>
        <time>2022-07-10T09:26:00Z</time>
      </trkpt>
      <trkpt lat="43.43806" lon="2.22566">
        <ele>782.83856201</ele>
        <time>2022-07-10T09:26:01Z</time>
      </trkpt>
      <trkpt lat="43.43798" lon="2.22565">
        <ele>782.83856201</ele>
        <time>2022-07-10T09:26:02Z</time>
      </trkpt>
      <trkpt lat="43.43793" lon="2.22566">
        <ele>782.67858887</ele>
        <time>2022-07-10T09:26:03Z</time>
      </trkpt>
      <trkpt lat="43.43788" lon="2.22568">
        <ele>782.50860596</ele>
        <time>2022-07-10T09:26:04Z</time>
      </trkpt>
      <trkpt lat="43.4378" lon="2.22568">
        <ele>782.27862549</ele>
        <time>2022-07-10T09:26:05Z</time>
      </trkpt>
      <trkpt lat="43.43776" lon="2.22568">
        <ele>782.02862549</ele>
        <time>2022-07-10T09:26:06Z</time>
      </trkpt>
      <trkpt lat="43.43771" lon="2.22569">
        <ele>781.91864014</ele>
        <time>2022-07-10T09:26:07Z</time>
      </trkpt>
      <trkpt lat="43.43765" lon="2.22567">
        <ele>781.66864014</ele>
        <time>2022-07-10T09:26:08Z</time>
      </trkpt>
      <trkpt lat="43.43761" lon="2.22567">
        <ele>781.75866699</ele>
        <time>2022-07-10T09:26:09Z</time>
      </trkpt>
      <trkpt lat="43.43753" lon="2.22568">
        <ele>781.49865723</ele>
        <time>2022-07-10T09:26:10Z</time>
      </trkpt>
      <trkpt lat="43.43749" lon="2.22569">
        <ele>781.44866943</ele>
        <time>2022-07-10T09:26:11Z</time>
      </trkpt>
      <trkpt lat="43.43745" lon="2.22569">
        <ele>781.54864502</ele>
        <time>2022-07-10T09:26:12Z</time>
      </trkpt>
      <trkpt lat="43.43742" lon="2.22569">
        <ele>781.7286377</ele>
        <time>2022-07-10T09:26:13Z</time>
      </trkpt>
      <trkpt lat="43.43738" lon="2.22569">
        <ele>782.02862549</ele>
        <time>2022-07-10T09:26:14Z</time>
      </trkpt>
      <trkpt lat="43.43735" lon="2.22569">
        <ele>781.96862793</ele>
        <time>2022-07-10T09:26:15Z</time>
      </trkpt>
      <trkpt lat="43.43732" lon="2.22569">
        <ele>781.86865234</ele>
        <time>2022-07-10T09:26:16Z</time>
      </trkpt>
      <trkpt lat="43.4373" lon="2.22569">
        <ele>781.74865723</ele>
        <time>2022-07-10T09:26:17Z</time>
      </trkpt>
      <trkpt lat="43.43726" lon="2.2257">
        <ele>781.48864746</ele>
        <time>2022-07-10T09:26:18Z</time>
      </trkpt>
      <trkpt lat="43.43721" lon="2.2257">
        <ele>781.19866943</ele>
        <time>2022-07-10T09:26:19Z</time>
      </trkpt>
      <trkpt lat="43.43715" lon="2.22571">
        <ele>780.98864746</ele>
        <time>2022-07-10T09:26:20Z</time>
      </trkpt>
      <trkpt lat="43.4371" lon="2.22571">
        <ele>780.88867188</ele>
        <time>2022-07-10T09:26:21Z</time>
      </trkpt>
      <trkpt lat="43.43706" lon="2.22572">
        <ele>780.9286499</ele>
        <time>2022-07-10T09:26:22Z</time>
      </trkpt>
      <trkpt lat="43.43702" lon="2.22572">
        <ele>781.12866211</ele>
        <time>2022-07-10T09:26:23Z</time>
      </trkpt>
      <trkpt lat="43.43696" lon="2.22573">
        <ele>781.21868896</ele>
        <time>2022-07-10T09:26:24Z</time>
      </trkpt>
      <trkpt lat="43.43692" lon="2.22573">
        <ele>781.16870117</ele>
        <time>2022-07-10T09:26:25Z</time>
      </trkpt>
      <trkpt lat="43.43687" lon="2.22573">
        <ele>780.9387207</ele>
        <time>2022-07-10T09:26:26Z</time>
      </trkpt>
      <trkpt lat="43.43683" lon="2.22575">
        <ele>780.64874268</ele>
        <time>2022-07-10T09:26:27Z</time>
      </trkpt>
      <trkpt lat="43.43677" lon="2.22577">
        <ele>780.42877197</ele>
        <time>2022-07-10T09:26:28Z</time>
      </trkpt>
      <trkpt lat="43.43673" lon="2.22579">
        <ele>780.37878418</ele>
        <time>2022-07-10T09:26:29Z</time>
      </trkpt>
      <trkpt lat="43.43669" lon="2.22582">
        <ele>780.30877686</ele>
        <time>2022-07-10T09:26:30Z</time>
      </trkpt>
      <trkpt lat="43.43665" lon="2.22585">
        <ele>780.21875</ele>
        <time>2022-07-10T09:26:31Z</time>
      </trkpt>
      <trkpt lat="43.43658" lon="2.22587">
        <ele>780.14874268</ele>
        <time>2022-07-10T09:26:32Z</time>
      </trkpt>
      <trkpt lat="43.43655" lon="2.22591">
        <ele>779.91876221</ele>
        <time>2022-07-10T09:26:33Z</time>
      </trkpt>
      <trkpt lat="43.43651" lon="2.22594">
        <ele>779.75878906</ele>
        <time>2022-07-10T09:26:34Z</time>
      </trkpt>
      <trkpt lat="43.43649" lon="2.22596">
        <ele>779.58880615</ele>
        <time>2022-07-10T09:26:35Z</time>
      </trkpt>
      <trkpt lat="43.43645" lon="2.22597">
        <ele>779.46881104</ele>
        <time>2022-07-10T09:26:36Z</time>
      </trkpt>
      <trkpt lat="43.4364" lon="2.22598">
        <ele>779.24884033</ele>
        <time>2022-07-10T09:26:37Z</time>
      </trkpt>
      <trkpt lat="43.43632" lon="2.226">
        <ele>779.09881592</ele>
        <time>2022-07-10T09:26:38Z</time>
      </trkpt>
      <trkpt lat="43.43627" lon="2.22599">
        <ele>778.85882568</ele>
        <time>2022-07-10T09:26:39Z</time>
      </trkpt>
      <trkpt lat="43.43622" lon="2.22599">
        <ele>778.44885254</ele>
        <time>2022-07-10T09:26:40Z</time>
      </trkpt>
      <trkpt lat="43.43616" lon="2.22599">
        <ele>778.28887939</ele>
        <time>2022-07-10T09:26:41Z</time>
      </trkpt>
      <trkpt lat="43.43609" lon="2.22598">
        <ele>778.02886963</ele>
        <time>2022-07-10T09:26:42Z</time>
      </trkpt>
      <trkpt lat="43.43604" lon="2.22599">
        <ele>777.9588623</ele>
        <time>2022-07-10T09:26:43Z</time>
      </trkpt>
      <trkpt lat="43.43599" lon="2.226">
        <ele>778.0088501</ele>
        <time>2022-07-10T09:26:44Z</time>
      </trkpt>
      <trkpt lat="43.43593" lon="2.226">
        <ele>777.80883789</ele>
        <time>2022-07-10T09:26:45Z</time>
      </trkpt>
      <trkpt lat="43.43588" lon="2.22601">
        <ele>777.60882568</ele>
        <time>2022-07-10T09:26:46Z</time>
      </trkpt>
      <trkpt lat="43.43581" lon="2.22602">
        <ele>777.07879639</ele>
        <time>2022-07-10T09:26:47Z</time>
      </trkpt>
      <trkpt lat="43.43575" lon="2.22604">
        <ele>776.39880371</ele>
        <time>2022-07-10T09:26:48Z</time>
      </trkpt>
      <trkpt lat="43.4357" lon="2.22605">
        <ele>775.90881348</ele>
        <time>2022-07-10T09:26:49Z</time>
      </trkpt>
      <trkpt lat="43.43565" lon="2.22606">
        <ele>775.46881104</ele>
        <time>2022-07-10T09:26:50Z</time>
      </trkpt>
      <trkpt lat="43.43557" lon="2.22611">
        <ele>775.36883545</ele>
        <time>2022-07-10T09:26:51Z</time>
      </trkpt>
      <trkpt lat="43.43552" lon="2.22613">
        <ele>775.2288208</ele>
        <time>2022-07-10T09:26:52Z</time>
      </trkpt>
      <trkpt lat="43.43546" lon="2.22616">
        <ele>774.85882568</ele>
        <time>2022-07-10T09:26:53Z</time>
      </trkpt>
      <trkpt lat="43.43541" lon="2.22618">
        <ele>774.57879639</ele>
        <time>2022-07-10T09:26:54Z</time>
      </trkpt>
      <trkpt lat="43.43534" lon="2.22622">
        <ele>774.21881104</ele>
        <time>2022-07-10T09:26:55Z</time>
      </trkpt>
      <trkpt lat="43.43529" lon="2.22624">
        <ele>773.81878662</ele>
        <time>2022-07-10T09:26:56Z</time>
      </trkpt>
      <trkpt lat="43.43525" lon="2.22627">
        <ele>773.59881592</ele>
        <time>2022-07-10T09:26:57Z</time>
      </trkpt>
      <trkpt lat="43.4352" lon="2.2263">
        <ele>773.35882568</ele>
        <time>2022-07-10T09:26:58Z</time>
      </trkpt>
      <trkpt lat="43.43515" lon="2.22635">
        <ele>773.02880859</ele>
        <time>2022-07-10T09:26:59Z</time>
      </trkpt>
      <trkpt lat="43.43509" lon="2.22642">
        <ele>772.89880371</ele>
        <time>2022-07-10T09:27:00Z</time>
      </trkpt>
      <trkpt lat="43.43506" lon="2.22647">
        <ele>772.81878662</ele>
        <time>2022-07-10T09:27:01Z</time>
      </trkpt>
      <trkpt lat="43.43502" lon="2.22653">
        <ele>772.84881592</ele>
        <time>2022-07-10T09:27:02Z</time>
      </trkpt>
      <trkpt lat="43.43499" lon="2.22657">
        <ele>772.82879639</ele>
        <time>2022-07-10T09:27:03Z</time>
      </trkpt>
      <trkpt lat="43.43496" lon="2.22661">
        <ele>772.76879883</ele>
        <time>2022-07-10T09:27:04Z</time>
      </trkpt>
      <trkpt lat="43.4349" lon="2.22666">
        <ele>772.55877686</ele>
        <time>2022-07-10T09:27:05Z</time>
      </trkpt>
      <trkpt lat="43.43486" lon="2.22667">
        <ele>772.25878906</ele>
        <time>2022-07-10T09:27:06Z</time>
      </trkpt>
      <trkpt lat="43.43482" lon="2.22667">
        <ele>772.18878174</ele>
        <time>2022-07-10T09:27:07Z</time>
      </trkpt>
      <trkpt lat="43.43478" lon="2.22667">
        <ele>772.13879395</ele>
        <time>2022-07-10T09:27:08Z</time>
      </trkpt>
      <trkpt lat="43.43471" lon="2.22666">
        <ele>772.14880371</ele>
        <time>2022-07-10T09:27:09Z</time>
      </trkpt>
      <trkpt lat="43.43467" lon="2.22663">
        <ele>772.10882568</ele>
        <time>2022-07-10T09:27:10Z</time>
      </trkpt>
      <trkpt lat="43.43463" lon="2.22661">
        <ele>771.93884277</ele>
        <time>2022-07-10T09:27:11Z</time>
      </trkpt>
      <trkpt lat="43.43458" lon="2.2266">
        <ele>771.89886475</ele>
        <time>2022-07-10T09:27:12Z</time>
      </trkpt>
      <trkpt lat="43.43452" lon="2.22658">
        <ele>771.7588501</ele>
        <time>2022-07-10T09:27:13Z</time>
      </trkpt>
      <trkpt lat="43.43447" lon="2.22656">
        <ele>771.64886475</ele>
        <time>2022-07-10T09:27:14Z</time>
      </trkpt>
      <trkpt lat="43.43442" lon="2.22655">
        <ele>771.43884277</ele>
        <time>2022-07-10T09:27:15Z</time>
      </trkpt>
      <trkpt lat="43.43438" lon="2.22653">
        <ele>771.18884277</ele>
        <time>2022-07-10T09:27:16Z</time>
      </trkpt>
      <trkpt lat="43.43433" lon="2.22652">
        <ele>771.04882812</ele>
        <time>2022-07-10T09:27:17Z</time>
      </trkpt>
      <trkpt lat="43.43426" lon="2.22649">
        <ele>770.91882324</ele>
        <time>2022-07-10T09:27:18Z</time>
      </trkpt>
      <trkpt lat="43.43421" lon="2.22648">
        <ele>770.89880371</ele>
        <time>2022-07-10T09:27:19Z</time>
      </trkpt>
      <trkpt lat="43.43417" lon="2.22646">
        <ele>770.75878906</ele>
        <time>2022-07-10T09:27:20Z</time>
      </trkpt>
      <trkpt lat="43.43413" lon="2.22642">
        <ele>770.59881592</ele>
        <time>2022-07-10T09:27:21Z</time>
      </trkpt>
      <trkpt lat="43.43409" lon="2.22638">
        <ele>770.41882324</ele>
        <time>2022-07-10T09:27:22Z</time>
      </trkpt>
      <trkpt lat="43.43403" lon="2.22633">
        <ele>770.35882568</ele>
        <time>2022-07-10T09:27:23Z</time>
      </trkpt>
      <trkpt lat="43.434" lon="2.22629">
        <ele>770.40881348</ele>
        <time>2022-07-10T09:27:24Z</time>
      </trkpt>
      <trkpt lat="43.43395" lon="2.22627">
        <ele>770.52880859</ele>
        <time>2022-07-10T09:27:25Z</time>
      </trkpt>
      <trkpt lat="43.43391" lon="2.22624">
        <ele>770.67883301</ele>
        <time>2022-07-10T09:27:26Z</time>
      </trkpt>
      <trkpt lat="43.43385" lon="2.22622">
        <ele>770.7288208</ele>
        <time>2022-07-10T09:27:27Z</time>
      </trkpt>
      <trkpt lat="43.43381" lon="2.22621">
        <ele>770.78881836</ele>
        <time>2022-07-10T09:27:28Z</time>
      </trkpt>
      <trkpt lat="43.43378" lon="2.22621">
        <ele>770.82879639</ele>
        <time>2022-07-10T09:27:29Z</time>
      </trkpt>
      <trkpt lat="43.43374" lon="2.2262">
        <ele>770.79876709</ele>
        <time>2022-07-10T09:27:30Z</time>
      </trkpt>
      <trkpt lat="43.43371" lon="2.22621">
        <ele>770.7487793</ele>
        <time>2022-07-10T09:27:31Z</time>
      </trkpt>
      <trkpt lat="43.43364" lon="2.2262">
        <ele>770.67877197</ele>
        <time>2022-07-10T09:27:32Z</time>
      </trkpt>
      <trkpt lat="43.43359" lon="2.22619">
        <ele>770.61877441</ele>
        <time>2022-07-10T09:27:33Z</time>
      </trkpt>
      <trkpt lat="43.43355" lon="2.22617">
        <ele>770.46875</ele>
        <time>2022-07-10T09:27:34Z</time>
      </trkpt>
      <trkpt lat="43.43351" lon="2.22615">
        <ele>770.48876953</ele>
        <time>2022-07-10T09:27:35Z</time>
      </trkpt>
      <trkpt lat="43.43345" lon="2.22613">
        <ele>770.46875</ele>
        <time>2022-07-10T09:27:36Z</time>
      </trkpt>
      <trkpt lat="43.43342" lon="2.2261">
        <ele>770.50872803</ele>
        <time>2022-07-10T09:27:37Z</time>
      </trkpt>
      <trkpt lat="43.43339" lon="2.22606">
        <ele>770.64874268</ele>
        <time>2022-07-10T09:27:38Z</time>
      </trkpt>
      <trkpt lat="43.43336" lon="2.22603">
        <ele>770.61871338</ele>
        <time>2022-07-10T09:27:39Z</time>
      </trkpt>
      <trkpt lat="43.43332" lon="2.226">
        <ele>770.63873291</ele>
        <time>2022-07-10T09:27:40Z</time>
      </trkpt>
      <trkpt lat="43.43326" lon="2.22597">
        <ele>770.49871826</ele>
        <time>2022-07-10T09:27:41Z</time>
      </trkpt>
      <trkpt lat="43.43322" lon="2.22595">
        <ele>770.4387207</ele>
        <time>2022-07-10T09:27:42Z</time>
      </trkpt>
      <trkpt lat="43.43319" lon="2.22593">
        <ele>770.38873291</ele>
        <time>2022-07-10T09:27:43Z</time>
      </trkpt>
      <trkpt lat="43.43315" lon="2.22589">
        <ele>770.16876221</ele>
        <time>2022-07-10T09:27:44Z</time>
      </trkpt>
      <trkpt lat="43.43311" lon="2.22585">
        <ele>770.00878906</ele>
        <time>2022-07-10T09:27:45Z</time>
      </trkpt>
      <trkpt lat="43.43308" lon="2.22583">
        <ele>769.70880127</ele>
        <time>2022-07-10T09:27:46Z</time>
      </trkpt>
      <trkpt lat="43.43305" lon="2.22582">
        <ele>769.36877441</ele>
        <time>2022-07-10T09:27:47Z</time>
      </trkpt>
      <trkpt lat="43.43302" lon="2.2258">
        <ele>769.12878418</ele>
        <time>2022-07-10T09:27:48Z</time>
      </trkpt>
      <trkpt lat="43.43299" lon="2.22579">
        <ele>768.93878174</ele>
        <time>2022-07-10T09:27:49Z</time>
      </trkpt>
      <trkpt lat="43.43296" lon="2.2258">
        <ele>768.82879639</ele>
        <time>2022-07-10T09:27:50Z</time>
      </trkpt>
      <trkpt lat="43.43293" lon="2.22581">
        <ele>768.76879883</ele>
        <time>2022-07-10T09:27:51Z</time>
      </trkpt>
      <trkpt lat="43.43289" lon="2.22581">
        <ele>768.70880127</ele>
        <time>2022-07-10T09:27:52Z</time>
      </trkpt>
      <trkpt lat="43.43286" lon="2.22581">
        <ele>768.60882568</ele>
        <time>2022-07-10T09:27:53Z</time>
      </trkpt>
      <trkpt lat="43.43281" lon="2.2258">
        <ele>768.5088501</ele>
        <time>2022-07-10T09:27:54Z</time>
      </trkpt>
      <trkpt lat="43.43279" lon="2.2258">
        <ele>768.39886475</ele>
        <time>2022-07-10T09:27:55Z</time>
      </trkpt>
      <trkpt lat="43.43276" lon="2.22579">
        <ele>768.29888916</ele>
        <time>2022-07-10T09:27:56Z</time>
      </trkpt>
      <trkpt lat="43.43273" lon="2.22577">
        <ele>768.13891602</ele>
        <time>2022-07-10T09:27:57Z</time>
      </trkpt>
      <trkpt lat="43.43267" lon="2.22575">
        <ele>767.78894043</ele>
        <time>2022-07-10T09:27:58Z</time>
      </trkpt>
      <trkpt lat="43.43263" lon="2.22573">
        <ele>767.30895996</ele>
        <time>2022-07-10T09:27:59Z</time>
      </trkpt>
      <trkpt lat="43.43259" lon="2.22571">
        <ele>766.7489624</ele>
        <time>2022-07-10T09:28:00Z</time>
      </trkpt>
      <trkpt lat="43.43255" lon="2.2257">
        <ele>766.12896729</ele>
        <time>2022-07-10T09:28:01Z</time>
      </trkpt>
      <trkpt lat="43.43251" lon="2.22569">
        <ele>765.4989624</ele>
        <time>2022-07-10T09:28:02Z</time>
      </trkpt>
      <trkpt lat="43.43244" lon="2.22567">
        <ele>765.22894287</ele>
        <time>2022-07-10T09:28:03Z</time>
      </trkpt>
      <trkpt lat="43.4324" lon="2.22565">
        <ele>764.95892334</ele>
        <time>2022-07-10T09:28:04Z</time>
      </trkpt>
      <trkpt lat="43.43235" lon="2.22565">
        <ele>764.74890137</ele>
        <time>2022-07-10T09:28:05Z</time>
      </trkpt>
      <trkpt lat="43.43231" lon="2.22565">
        <ele>764.7689209</ele>
        <time>2022-07-10T09:28:06Z</time>
      </trkpt>
      <trkpt lat="43.43224" lon="2.22567">
        <ele>764.38891602</ele>
        <time>2022-07-10T09:28:07Z</time>
      </trkpt>
      <trkpt lat="43.43219" lon="2.22567">
        <ele>764.11889648</ele>
        <time>2022-07-10T09:28:08Z</time>
      </trkpt>
      <trkpt lat="43.43214" lon="2.22569">
        <ele>763.75891113</ele>
        <time>2022-07-10T09:28:09Z</time>
      </trkpt>
      <trkpt lat="43.4321" lon="2.22571">
        <ele>763.29888916</ele>
        <time>2022-07-10T09:28:10Z</time>
      </trkpt>
      <trkpt lat="43.43206" lon="2.22573">
        <ele>763.02886963</ele>
        <time>2022-07-10T09:28:11Z</time>
      </trkpt>
      <trkpt lat="43.43201" lon="2.22579">
        <ele>762.60888672</ele>
        <time>2022-07-10T09:28:12Z</time>
      </trkpt>
      <trkpt lat="43.43198" lon="2.22582">
        <ele>762.2088623</ele>
        <time>2022-07-10T09:28:13Z</time>
      </trkpt>
      <trkpt lat="43.43194" lon="2.22585">
        <ele>761.58886719</ele>
        <time>2022-07-10T09:28:14Z</time>
      </trkpt>
      <trkpt lat="43.43191" lon="2.22588">
        <ele>761.21887207</ele>
        <time>2022-07-10T09:28:15Z</time>
      </trkpt>
      <trkpt lat="43.43186" lon="2.22588">
        <ele>760.71887207</ele>
        <time>2022-07-10T09:28:16Z</time>
      </trkpt>
      <trkpt lat="43.43181" lon="2.22587">
        <ele>760.11889648</ele>
        <time>2022-07-10T09:28:17Z</time>
      </trkpt>
      <trkpt lat="43.43179" lon="2.22586">
        <ele>759.78887939</ele>
        <time>2022-07-10T09:28:18Z</time>
      </trkpt>
      <trkpt lat="43.43176" lon="2.22585">
        <ele>759.06890869</ele>
        <time>2022-07-10T09:28:19Z</time>
      </trkpt>
      <trkpt lat="43.43172" lon="2.22583">
        <ele>758.68890381</ele>
        <time>2022-07-10T09:28:20Z</time>
      </trkpt>
      <trkpt lat="43.43166" lon="2.22581">
        <ele>758.40887451</ele>
        <time>2022-07-10T09:28:21Z</time>
      </trkpt>
      <trkpt lat="43.43162" lon="2.22583">
        <ele>758.08886719</ele>
        <time>2022-07-10T09:28:22Z</time>
      </trkpt>
      <trkpt lat="43.43158" lon="2.22586">
        <ele>758.02886963</ele>
        <time>2022-07-10T09:28:23Z</time>
      </trkpt>
      <trkpt lat="43.43155" lon="2.22589">
        <ele>757.89886475</ele>
        <time>2022-07-10T09:28:24Z</time>
      </trkpt>
      <trkpt lat="43.43153" lon="2.22593">
        <ele>757.91888428</ele>
        <time>2022-07-10T09:28:25Z</time>
      </trkpt>
      <trkpt lat="43.43151" lon="2.22601">
        <ele>758.10888672</ele>
        <time>2022-07-10T09:28:26Z</time>
      </trkpt>
      <trkpt lat="43.43149" lon="2.22606">
        <ele>758.22888184</ele>
        <time>2022-07-10T09:28:27Z</time>
      </trkpt>
      <trkpt lat="43.43146" lon="2.22611">
        <ele>758.34887695</ele>
        <time>2022-07-10T09:28:28Z</time>
      </trkpt>
      <trkpt lat="43.43143" lon="2.22615">
        <ele>758.44885254</ele>
        <time>2022-07-10T09:28:29Z</time>
      </trkpt>
      <trkpt lat="43.43137" lon="2.22617">
        <ele>758.37884521</ele>
        <time>2022-07-10T09:28:30Z</time>
      </trkpt>
      <trkpt lat="43.43133" lon="2.22617">
        <ele>758.35882568</ele>
        <time>2022-07-10T09:28:31Z</time>
      </trkpt>
      <trkpt lat="43.4313" lon="2.22616">
        <ele>758.35882568</ele>
        <time>2022-07-10T09:28:32Z</time>
      </trkpt>
      <trkpt lat="43.43126" lon="2.22614">
        <ele>758.38885498</ele>
        <time>2022-07-10T09:28:33Z</time>
      </trkpt>
      <trkpt lat="43.43123" lon="2.22609">
        <ele>758.55883789</ele>
        <time>2022-07-10T09:28:34Z</time>
      </trkpt>
      <trkpt lat="43.43121" lon="2.22606">
        <ele>758.7088623</ele>
        <time>2022-07-10T09:28:35Z</time>
      </trkpt>
      <trkpt lat="43.43118" lon="2.22602">
        <ele>758.88885498</ele>
        <time>2022-07-10T09:28:36Z</time>
      </trkpt>
      <trkpt lat="43.43117" lon="2.22599">
        <ele>759.12884521</ele>
        <time>2022-07-10T09:28:37Z</time>
      </trkpt>
      <trkpt lat="43.43114" lon="2.22596">
        <ele>759.16882324</ele>
        <time>2022-07-10T09:28:38Z</time>
      </trkpt>
      <trkpt lat="43.4311" lon="2.2259">
        <ele>759.26879883</ele>
        <time>2022-07-10T09:28:39Z</time>
      </trkpt>
      <trkpt lat="43.43107" lon="2.22587">
        <ele>759.34881592</ele>
        <time>2022-07-10T09:28:40Z</time>
      </trkpt>
      <trkpt lat="43.43104" lon="2.22583">
        <ele>759.24884033</ele>
        <time>2022-07-10T09:28:41Z</time>
      </trkpt>
      <trkpt lat="43.43101" lon="2.22579">
        <ele>759.32885742</ele>
        <time>2022-07-10T09:28:42Z</time>
      </trkpt>
      <trkpt lat="43.43097" lon="2.22576">
        <ele>759.35888672</ele>
        <time>2022-07-10T09:28:43Z</time>
      </trkpt>
      <trkpt lat="43.43092" lon="2.22572">
        <ele>759.33886719</ele>
        <time>2022-07-10T09:28:44Z</time>
      </trkpt>
      <trkpt lat="43.43089" lon="2.2257">
        <ele>759.42889404</ele>
        <time>2022-07-10T09:28:45Z</time>
      </trkpt>
      <trkpt lat="43.43086" lon="2.22567">
        <ele>759.35888672</ele>
        <time>2022-07-10T09:28:46Z</time>
      </trkpt>
      <trkpt lat="43.43082" lon="2.22564">
        <ele>759.33886719</ele>
        <time>2022-07-10T09:28:47Z</time>
      </trkpt>
      <trkpt lat="43.43076" lon="2.22558">
        <ele>759.26885986</ele>
        <time>2022-07-10T09:28:48Z</time>
      </trkpt>
      <trkpt lat="43.43073" lon="2.22553">
        <ele>759.2088623</ele>
        <time>2022-07-10T09:28:49Z</time>
      </trkpt>
      <trkpt lat="43.4307" lon="2.22548">
        <ele>759.2088623</ele>
        <time>2022-07-10T09:28:50Z</time>
      </trkpt>
      <trkpt lat="43.43067" lon="2.22543">
        <ele>759.10888672</ele>
        <time>2022-07-10T09:28:51Z</time>
      </trkpt>
      <trkpt lat="43.43062" lon="2.22536">
        <ele>759.06890869</ele>
        <time>2022-07-10T09:28:52Z</time>
      </trkpt>
      <trkpt lat="43.43059" lon="2.22532">
        <ele>759.06890869</ele>
        <time>2022-07-10T09:28:53Z</time>
      </trkpt>
      <trkpt lat="43.43056" lon="2.22528">
        <ele>759.15893555</ele>
        <time>2022-07-10T09:28:54Z</time>
      </trkpt>
      <trkpt lat="43.43052" lon="2.22524">
        <ele>759.2989502</ele>
        <time>2022-07-10T09:28:55Z</time>
      </trkpt>
      <trkpt lat="43.43049" lon="2.2252">
        <ele>759.48895264</ele>
        <time>2022-07-10T09:28:56Z</time>
      </trkpt>
      <trkpt lat="43.43044" lon="2.22516">
        <ele>759.59893799</ele>
        <time>2022-07-10T09:28:57Z</time>
      </trkpt>
      <trkpt lat="43.4304" lon="2.22513">
        <ele>759.69891357</ele>
        <time>2022-07-10T09:28:58Z</time>
      </trkpt>
      <trkpt lat="43.43037" lon="2.2251">
        <ele>759.75891113</ele>
        <time>2022-07-10T09:28:59Z</time>
      </trkpt>
      <trkpt lat="43.43034" lon="2.22508">
        <ele>759.92889404</ele>
        <time>2022-07-10T09:29:00Z</time>
      </trkpt>
      <trkpt lat="43.43032" lon="2.22505">
        <ele>760.12890625</ele>
        <time>2022-07-10T09:29:01Z</time>
      </trkpt>
      <trkpt lat="43.43028" lon="2.22501">
        <ele>760.30889893</ele>
        <time>2022-07-10T09:29:02Z</time>
      </trkpt>
      <trkpt lat="43.43025" lon="2.22498">
        <ele>760.4888916</ele>
        <time>2022-07-10T09:29:03Z</time>
      </trkpt>
      <trkpt lat="43.43024" lon="2.22496">
        <ele>760.71887207</ele>
        <time>2022-07-10T09:29:04Z</time>
      </trkpt>
      <trkpt lat="43.43022" lon="2.22493">
        <ele>760.9888916</ele>
        <time>2022-07-10T09:29:05Z</time>
      </trkpt>
      <trkpt lat="43.4302" lon="2.22489">
        <ele>761.13891602</ele>
        <time>2022-07-10T09:29:06Z</time>
      </trkpt>
      <trkpt lat="43.43018" lon="2.22487">
        <ele>761.4888916</ele>
        <time>2022-07-10T09:29:07Z</time>
      </trkpt>
      <trkpt lat="43.43017" lon="2.22483">
        <ele>761.7088623</ele>
        <time>2022-07-10T09:29:08Z</time>
      </trkpt>
      <trkpt lat="43.43015" lon="2.2248">
        <ele>761.55883789</ele>
        <time>2022-07-10T09:29:09Z</time>
      </trkpt>
      <trkpt lat="43.43013" lon="2.22477">
        <ele>761.76885986</ele>
        <time>2022-07-10T09:29:10Z</time>
      </trkpt>
      <trkpt lat="43.43011" lon="2.22473">
        <ele>761.98883057</ele>
        <time>2022-07-10T09:29:11Z</time>
      </trkpt>
      <trkpt lat="43.4301" lon="2.2247">
        <ele>762.12884521</ele>
        <time>2022-07-10T09:29:12Z</time>
      </trkpt>
      <trkpt lat="43.43008" lon="2.22467">
        <ele>762.4788208</ele>
        <time>2022-07-10T09:29:13Z</time>
      </trkpt>
      <trkpt lat="43.43007" lon="2.22464">
        <ele>762.84881592</ele>
        <time>2022-07-10T09:29:14Z</time>
      </trkpt>
      <trkpt lat="43.43005" lon="2.22459">
        <ele>763.05883789</ele>
        <time>2022-07-10T09:29:15Z</time>
      </trkpt>
      <trkpt lat="43.43004" lon="2.22456">
        <ele>763.39886475</ele>
        <time>2022-07-10T09:29:16Z</time>
      </trkpt>
      <trkpt lat="43.43003" lon="2.22453">
        <ele>763.56884766</ele>
        <time>2022-07-10T09:29:17Z</time>
      </trkpt>
      <trkpt lat="43.43001" lon="2.2245">
        <ele>763.76885986</ele>
        <time>2022-07-10T09:29:18Z</time>
      </trkpt>
      <trkpt lat="43.43" lon="2.22448">
        <ele>763.92883301</ele>
        <time>2022-07-10T09:29:19Z</time>
      </trkpt>
      <trkpt lat="43.42997" lon="2.22445">
        <ele>764.14880371</ele>
        <time>2022-07-10T09:29:20Z</time>
      </trkpt>
      <trkpt lat="43.42996" lon="2.22442">
        <ele>764.41882324</ele>
        <time>2022-07-10T09:29:21Z</time>
      </trkpt>
      <trkpt lat="43.42994" lon="2.2244">
        <ele>764.63879395</ele>
        <time>2022-07-10T09:29:22Z</time>
      </trkpt>
      <trkpt lat="43.42993" lon="2.22438">
        <ele>764.84881592</ele>
        <time>2022-07-10T09:29:23Z</time>
      </trkpt>
      <trkpt lat="43.4299" lon="2.22435">
        <ele>765.08880615</ele>
        <time>2022-07-10T09:29:24Z</time>
      </trkpt>
      <trkpt lat="43.42989" lon="2.22433">
        <ele>765.37878418</ele>
        <time>2022-07-10T09:29:25Z</time>
      </trkpt>
      <trkpt lat="43.42987" lon="2.22432">
        <ele>765.65881348</ele>
        <time>2022-07-10T09:29:26Z</time>
      </trkpt>
      <trkpt lat="43.42985" lon="2.2243">
        <ele>765.85882568</ele>
        <time>2022-07-10T09:29:27Z</time>
      </trkpt>
      <trkpt lat="43.42983" lon="2.22428">
        <ele>766.01879883</ele>
        <time>2022-07-10T09:29:28Z</time>
      </trkpt>
      <trkpt lat="43.4298" lon="2.22426">
        <ele>766.23876953</ele>
        <time>2022-07-10T09:29:29Z</time>
      </trkpt>
      <trkpt lat="43.42978" lon="2.22425">
        <ele>766.46875</ele>
        <time>2022-07-10T09:29:30Z</time>
      </trkpt>
      <trkpt lat="43.42976" lon="2.22424">
        <ele>766.84875488</ele>
        <time>2022-07-10T09:29:31Z</time>
      </trkpt>
      <trkpt lat="43.42974" lon="2.22422">
        <ele>767.15875244</ele>
        <time>2022-07-10T09:29:32Z</time>
      </trkpt>
      <trkpt lat="43.42971" lon="2.2242">
        <ele>767.38873291</ele>
        <time>2022-07-10T09:29:33Z</time>
      </trkpt>
      <trkpt lat="43.42969" lon="2.22418">
        <ele>767.61871338</ele>
        <time>2022-07-10T09:29:34Z</time>
      </trkpt>
      <trkpt lat="43.42967" lon="2.22417">
        <ele>767.84869385</ele>
        <time>2022-07-10T09:29:35Z</time>
      </trkpt>
      <trkpt lat="43.42965" lon="2.22416">
        <ele>768.03869629</ele>
        <time>2022-07-10T09:29:36Z</time>
      </trkpt>
      <trkpt lat="43.42963" lon="2.22416">
        <ele>768.32867432</ele>
        <time>2022-07-10T09:29:37Z</time>
      </trkpt>
      <trkpt lat="43.4296" lon="2.22416">
        <ele>768.53869629</ele>
        <time>2022-07-10T09:29:38Z</time>
      </trkpt>
      <trkpt lat="43.42958" lon="2.22416">
        <ele>768.78869629</ele>
        <time>2022-07-10T09:29:39Z</time>
      </trkpt>
      <trkpt lat="43.42956" lon="2.22415">
        <ele>769.03869629</ele>
        <time>2022-07-10T09:29:40Z</time>
      </trkpt>
      <trkpt lat="43.42954" lon="2.22415">
        <ele>769.21868896</ele>
        <time>2022-07-10T09:29:41Z</time>
      </trkpt>
      <trkpt lat="43.4295" lon="2.22414">
        <ele>769.56866455</ele>
        <time>2022-07-10T09:29:42Z</time>
      </trkpt>
      <trkpt lat="43.42948" lon="2.22414">
        <ele>769.73864746</ele>
        <time>2022-07-10T09:29:43Z</time>
      </trkpt>
      <trkpt lat="43.42946" lon="2.22414">
        <ele>769.93865967</ele>
        <time>2022-07-10T09:29:44Z</time>
      </trkpt>
      <trkpt lat="43.42944" lon="2.22415">
        <ele>770.16864014</ele>
        <time>2022-07-10T09:29:45Z</time>
      </trkpt>
      <trkpt lat="43.42942" lon="2.22415">
        <ele>770.31866455</ele>
        <time>2022-07-10T09:29:46Z</time>
      </trkpt>
      <trkpt lat="43.42939" lon="2.22415">
        <ele>770.54864502</ele>
        <time>2022-07-10T09:29:47Z</time>
      </trkpt>
      <trkpt lat="43.42937" lon="2.22415">
        <ele>770.78863525</ele>
        <time>2022-07-10T09:29:48Z</time>
      </trkpt>
      <trkpt lat="43.42934" lon="2.22414">
        <ele>770.96862793</ele>
        <time>2022-07-10T09:29:49Z</time>
      </trkpt>
      <trkpt lat="43.42932" lon="2.22414">
        <ele>771.15863037</ele>
        <time>2022-07-10T09:29:50Z</time>
      </trkpt>
      <trkpt lat="43.42928" lon="2.22414">
        <ele>771.34863281</ele>
        <time>2022-07-10T09:29:51Z</time>
      </trkpt>
      <trkpt lat="43.42926" lon="2.22414">
        <ele>771.4486084</ele>
        <time>2022-07-10T09:29:52Z</time>
      </trkpt>
      <trkpt lat="43.42923" lon="2.22414">
        <ele>771.6685791</ele>
        <time>2022-07-10T09:29:53Z</time>
      </trkpt>
      <trkpt lat="43.42921" lon="2.22415">
        <ele>771.71856689</ele>
        <time>2022-07-10T09:29:54Z</time>
      </trkpt>
      <trkpt lat="43.42918" lon="2.22415">
        <ele>771.89855957</ele>
        <time>2022-07-10T09:29:55Z</time>
      </trkpt>
      <trkpt lat="43.42915" lon="2.22417">
        <ele>772.08856201</ele>
        <time>2022-07-10T09:29:56Z</time>
      </trkpt>
      <trkpt lat="43.42912" lon="2.22417">
        <ele>772.19854736</ele>
        <time>2022-07-10T09:29:57Z</time>
      </trkpt>
      <trkpt lat="43.4291" lon="2.22419">
        <ele>772.37854004</ele>
        <time>2022-07-10T09:29:58Z</time>
      </trkpt>
      <trkpt lat="43.42907" lon="2.2242">
        <ele>772.60852051</ele>
        <time>2022-07-10T09:29:59Z</time>
      </trkpt>
      <trkpt lat="43.42904" lon="2.22422">
        <ele>772.76849365</ele>
        <time>2022-07-10T09:30:00Z</time>
      </trkpt>
      <trkpt lat="43.42902" lon="2.22423">
        <ele>772.95849609</ele>
        <time>2022-07-10T09:30:01Z</time>
      </trkpt>
      <trkpt lat="43.429" lon="2.22425">
        <ele>773.28851318</ele>
        <time>2022-07-10T09:30:02Z</time>
      </trkpt>
      <trkpt lat="43.42898" lon="2.22427">
        <ele>773.44848633</ele>
        <time>2022-07-10T09:30:03Z</time>
      </trkpt>
      <trkpt lat="43.42895" lon="2.22429">
        <ele>773.64849854</ele>
        <time>2022-07-10T09:30:04Z</time>
      </trkpt>
      <trkpt lat="43.42893" lon="2.22431">
        <ele>773.88848877</ele>
        <time>2022-07-10T09:30:05Z</time>
      </trkpt>
      <trkpt lat="43.42891" lon="2.22433">
        <ele>774.01849365</ele>
        <time>2022-07-10T09:30:06Z</time>
      </trkpt>
      <trkpt lat="43.4289" lon="2.22436">
        <ele>774.18847656</ele>
        <time>2022-07-10T09:30:07Z</time>
      </trkpt>
      <trkpt lat="43.42889" lon="2.22438">
        <ele>774.41845703</ele>
        <time>2022-07-10T09:30:08Z</time>
      </trkpt>
      <trkpt lat="43.42886" lon="2.22441">
        <ele>774.58843994</ele>
        <time>2022-07-10T09:30:09Z</time>
      </trkpt>
      <trkpt lat="43.42885" lon="2.22443">
        <ele>774.75842285</ele>
        <time>2022-07-10T09:30:10Z</time>
      </trkpt>
      <trkpt lat="43.42883" lon="2.22446">
        <ele>774.84844971</ele>
        <time>2022-07-10T09:30:11Z</time>
      </trkpt>
      <trkpt lat="43.42881" lon="2.22448">
        <ele>774.98846436</ele>
        <time>2022-07-10T09:30:12Z</time>
      </trkpt>
      <trkpt lat="43.42878" lon="2.22452">
        <ele>775.03845215</ele>
        <time>2022-07-10T09:30:13Z</time>
      </trkpt>
      <trkpt lat="43.42877" lon="2.22454">
        <ele>775.1784668</ele>
        <time>2022-07-10T09:30:14Z</time>
      </trkpt>
      <trkpt lat="43.42875" lon="2.22457">
        <ele>775.3984375</ele>
        <time>2022-07-10T09:30:15Z</time>
      </trkpt>
      <trkpt lat="43.42874" lon="2.22459">
        <ele>775.43841553</ele>
        <time>2022-07-10T09:30:16Z</time>
      </trkpt>
      <trkpt lat="43.42873" lon="2.22462">
        <ele>775.6184082</ele>
        <time>2022-07-10T09:30:17Z</time>
      </trkpt>
      <trkpt lat="43.42871" lon="2.22466">
        <ele>775.70843506</ele>
        <time>2022-07-10T09:30:18Z</time>
      </trkpt>
      <trkpt lat="43.4287" lon="2.22469">
        <ele>775.81842041</ele>
        <time>2022-07-10T09:30:19Z</time>
      </trkpt>
      <trkpt lat="43.42869" lon="2.22472">
        <ele>776.02844238</ele>
        <time>2022-07-10T09:30:20Z</time>
      </trkpt>
      <trkpt lat="43.42869" lon="2.22475">
        <ele>776.15844727</ele>
        <time>2022-07-10T09:30:21Z</time>
      </trkpt>
      <trkpt lat="43.4287" lon="2.22479">
        <ele>776.28845215</ele>
        <time>2022-07-10T09:30:22Z</time>
      </trkpt>
      <trkpt lat="43.42871" lon="2.22482">
        <ele>776.55847168</ele>
        <time>2022-07-10T09:30:23Z</time>
      </trkpt>
      <trkpt lat="43.42872" lon="2.22485">
        <ele>776.69848633</ele>
        <time>2022-07-10T09:30:24Z</time>
      </trkpt>
      <trkpt lat="43.42872" lon="2.22487">
        <ele>776.88848877</ele>
        <time>2022-07-10T09:30:25Z</time>
      </trkpt>
      <trkpt lat="43.42873" lon="2.2249">
        <ele>777.13848877</ele>
        <time>2022-07-10T09:30:26Z</time>
      </trkpt>
      <trkpt lat="43.42875" lon="2.22493">
        <ele>777.1784668</ele>
        <time>2022-07-10T09:30:27Z</time>
      </trkpt>
      <trkpt lat="43.42876" lon="2.22495">
        <ele>777.43847656</ele>
        <time>2022-07-10T09:30:28Z</time>
      </trkpt>
      <trkpt lat="43.42877" lon="2.22498">
        <ele>777.51849365</ele>
        <time>2022-07-10T09:30:29Z</time>
      </trkpt>
      <trkpt lat="43.42878" lon="2.225">
        <ele>777.60852051</ele>
        <time>2022-07-10T09:30:30Z</time>
      </trkpt>
      <trkpt lat="43.42879" lon="2.22503">
        <ele>777.78851318</ele>
        <time>2022-07-10T09:30:31Z</time>
      </trkpt>
      <trkpt lat="43.42881" lon="2.22506">
        <ele>777.92852783</ele>
        <time>2022-07-10T09:30:32Z</time>
      </trkpt>
      <trkpt lat="43.42882" lon="2.22508">
        <ele>778.28851318</ele>
        <time>2022-07-10T09:30:33Z</time>
      </trkpt>
      <trkpt lat="43.42883" lon="2.2251">
        <ele>778.55853271</ele>
        <time>2022-07-10T09:30:34Z</time>
      </trkpt>
      <trkpt lat="43.42883" lon="2.22512">
        <ele>778.70855713</ele>
        <time>2022-07-10T09:30:35Z</time>
      </trkpt>
      <trkpt lat="43.42885" lon="2.22516">
        <ele>778.80853271</ele>
        <time>2022-07-10T09:30:36Z</time>
      </trkpt>
      <trkpt lat="43.42885" lon="2.22518">
        <ele>778.83856201</ele>
        <time>2022-07-10T09:30:37Z</time>
      </trkpt>
      <trkpt lat="43.42886" lon="2.2252">
        <ele>778.94854736</ele>
        <time>2022-07-10T09:30:38Z</time>
      </trkpt>
      <trkpt lat="43.42886" lon="2.22522">
        <ele>779.22857666</ele>
        <time>2022-07-10T09:30:39Z</time>
      </trkpt>
      <trkpt lat="43.42887" lon="2.22524">
        <ele>779.48858643</ele>
        <time>2022-07-10T09:30:40Z</time>
      </trkpt>
      <trkpt lat="43.42888" lon="2.22528">
        <ele>779.75860596</ele>
        <time>2022-07-10T09:30:41Z</time>
      </trkpt>
      <trkpt lat="43.42888" lon="2.2253">
        <ele>780.01861572</ele>
        <time>2022-07-10T09:30:42Z</time>
      </trkpt>
      <trkpt lat="43.42889" lon="2.22532">
        <ele>780.10864258</ele>
        <time>2022-07-10T09:30:43Z</time>
      </trkpt>
      <trkpt lat="43.4289" lon="2.22535">
        <ele>780.28863525</ele>
        <time>2022-07-10T09:30:44Z</time>
      </trkpt>
      <trkpt lat="43.42891" lon="2.22538">
        <ele>780.55865479</ele>
        <time>2022-07-10T09:30:45Z</time>
      </trkpt>
      <trkpt lat="43.42891" lon="2.22539">
        <ele>780.74865723</ele>
        <time>2022-07-10T09:30:46Z</time>
      </trkpt>
      <trkpt lat="43.42892" lon="2.22541">
        <ele>781.01867676</ele>
        <time>2022-07-10T09:30:47Z</time>
      </trkpt>
      <trkpt lat="43.42892" lon="2.22543">
        <ele>781.28869629</ele>
        <time>2022-07-10T09:30:48Z</time>
      </trkpt>
      <trkpt lat="43.42892" lon="2.22547">
        <ele>781.40869141</ele>
        <time>2022-07-10T09:30:49Z</time>
      </trkpt>
      <trkpt lat="43.42893" lon="2.22549">
        <ele>781.51867676</ele>
        <time>2022-07-10T09:30:50Z</time>
      </trkpt>
      <trkpt lat="43.42893" lon="2.22552">
        <ele>781.58868408</ele>
        <time>2022-07-10T09:30:51Z</time>
      </trkpt>
      <trkpt lat="43.42893" lon="2.22554">
        <ele>781.7387085</ele>
        <time>2022-07-10T09:30:52Z</time>
      </trkpt>
      <trkpt lat="43.42893" lon="2.22556">
        <ele>781.88873291</ele>
        <time>2022-07-10T09:30:53Z</time>
      </trkpt>
      <trkpt lat="43.42893" lon="2.22559">
        <ele>782.13873291</ele>
        <time>2022-07-10T09:30:54Z</time>
      </trkpt>
      <trkpt lat="43.42893" lon="2.22561">
        <ele>782.37872314</ele>
        <time>2022-07-10T09:30:55Z</time>
      </trkpt>
      <trkpt lat="43.42893" lon="2.22563">
        <ele>782.52874756</ele>
        <time>2022-07-10T09:30:56Z</time>
      </trkpt>
      <trkpt lat="43.42894" lon="2.22565">
        <ele>782.70874023</ele>
        <time>2022-07-10T09:30:57Z</time>
      </trkpt>
      <trkpt lat="43.42894" lon="2.22568">
        <ele>782.88873291</ele>
        <time>2022-07-10T09:30:58Z</time>
      </trkpt>
      <trkpt lat="43.42895" lon="2.22571">
        <ele>783.32873535</ele>
        <time>2022-07-10T09:30:59Z</time>
      </trkpt>
      <trkpt lat="43.42896" lon="2.22573">
        <ele>784.63873291</ele>
        <time>2022-07-10T09:31:00Z</time>
      </trkpt>
      <trkpt lat="43.42897" lon="2.22575">
        <ele>786.10870361</ele>
        <time>2022-07-10T09:31:01Z</time>
      </trkpt>
      <trkpt lat="43.42898" lon="2.22577">
        <ele>787.34869385</ele>
        <time>2022-07-10T09:31:02Z</time>
      </trkpt>
      <trkpt lat="43.42899" lon="2.2258">
        <ele>788.44866943</ele>
        <time>2022-07-10T09:31:03Z</time>
      </trkpt>
      <trkpt lat="43.429" lon="2.22582">
        <ele>788.40869141</ele>
        <time>2022-07-10T09:31:04Z</time>
      </trkpt>
      <trkpt lat="43.429" lon="2.22585">
        <ele>787.39868164</ele>
        <time>2022-07-10T09:31:05Z</time>
      </trkpt>
      <trkpt lat="43.42901" lon="2.22586">
        <ele>786.38867188</ele>
        <time>2022-07-10T09:31:06Z</time>
      </trkpt>
      <trkpt lat="43.42903" lon="2.22589">
        <ele>785.24865723</ele>
        <time>2022-07-10T09:31:07Z</time>
      </trkpt>
      <trkpt lat="43.42904" lon="2.22591">
        <ele>784.4586792</ele>
        <time>2022-07-10T09:31:08Z</time>
      </trkpt>
      <trkpt lat="43.42905" lon="2.22592">
        <ele>784.83868408</ele>
        <time>2022-07-10T09:31:09Z</time>
      </trkpt>
      <trkpt lat="43.42906" lon="2.22594">
        <ele>785.38867188</ele>
        <time>2022-07-10T09:31:10Z</time>
      </trkpt>
      <trkpt lat="43.42908" lon="2.22596">
        <ele>785.6786499</ele>
        <time>2022-07-10T09:31:11Z</time>
      </trkpt>
      <trkpt lat="43.4291" lon="2.22599">
        <ele>785.65863037</ele>
        <time>2022-07-10T09:31:12Z</time>
      </trkpt>
      <trkpt lat="43.42911" lon="2.22601">
        <ele>784.84863281</ele>
        <time>2022-07-10T09:31:13Z</time>
      </trkpt>
      <trkpt lat="43.42913" lon="2.22603">
        <ele>785.13861084</ele>
        <time>2022-07-10T09:31:14Z</time>
      </trkpt>
      <trkpt lat="43.42915" lon="2.22605">
        <ele>785.63861084</ele>
        <time>2022-07-10T09:31:15Z</time>
      </trkpt>
      <trkpt lat="43.42916" lon="2.22607">
        <ele>786.41864014</ele>
        <time>2022-07-10T09:31:16Z</time>
      </trkpt>
      <trkpt lat="43.42918" lon="2.2261">
        <ele>786.44866943</ele>
        <time>2022-07-10T09:31:17Z</time>
      </trkpt>
      <trkpt lat="43.4292" lon="2.22612">
        <ele>785.91864014</ele>
        <time>2022-07-10T09:31:18Z</time>
      </trkpt>
      <trkpt lat="43.42921" lon="2.22614">
        <ele>785.40863037</ele>
        <time>2022-07-10T09:31:19Z</time>
      </trkpt>
      <trkpt lat="43.42922" lon="2.22616">
        <ele>784.84863281</ele>
        <time>2022-07-10T09:31:20Z</time>
      </trkpt>
      <trkpt lat="43.42924" lon="2.22619">
        <ele>784.93865967</ele>
        <time>2022-07-10T09:31:21Z</time>
      </trkpt>
      <trkpt lat="43.42926" lon="2.22621">
        <ele>785.08868408</ele>
        <time>2022-07-10T09:31:22Z</time>
      </trkpt>
      <trkpt lat="43.42927" lon="2.22623">
        <ele>785.34869385</ele>
        <time>2022-07-10T09:31:23Z</time>
      </trkpt>
      <trkpt lat="43.42928" lon="2.22625">
        <ele>785.52868652</ele>
        <time>2022-07-10T09:31:24Z</time>
      </trkpt>
      <trkpt lat="43.42929" lon="2.22627">
        <ele>785.64868164</ele>
        <time>2022-07-10T09:31:25Z</time>
      </trkpt>
      <trkpt lat="43.42931" lon="2.2263">
        <ele>785.76867676</ele>
        <time>2022-07-10T09:31:26Z</time>
      </trkpt>
      <trkpt lat="43.42932" lon="2.22632">
        <ele>785.84869385</ele>
        <time>2022-07-10T09:31:27Z</time>
      </trkpt>
      <trkpt lat="43.42934" lon="2.22634">
        <ele>786.05871582</ele>
        <time>2022-07-10T09:31:28Z</time>
      </trkpt>
      <trkpt lat="43.42935" lon="2.22636">
        <ele>786.35870361</ele>
        <time>2022-07-10T09:31:29Z</time>
      </trkpt>
      <trkpt lat="43.42937" lon="2.22639">
        <ele>786.69873047</ele>
        <time>2022-07-10T09:31:30Z</time>
      </trkpt>
      <trkpt lat="43.42938" lon="2.22641">
        <ele>786.95874023</ele>
        <time>2022-07-10T09:31:31Z</time>
      </trkpt>
      <trkpt lat="43.4294" lon="2.22643">
        <ele>787.10876465</ele>
        <time>2022-07-10T09:31:32Z</time>
      </trkpt>
      <trkpt lat="43.42941" lon="2.22645">
        <ele>787.26873779</ele>
        <time>2022-07-10T09:31:33Z</time>
      </trkpt>
      <trkpt lat="43.42943" lon="2.22647">
        <ele>787.29876709</ele>
        <time>2022-07-10T09:31:34Z</time>
      </trkpt>
      <trkpt lat="43.42945" lon="2.2265">
        <ele>787.4487915</ele>
        <time>2022-07-10T09:31:35Z</time>
      </trkpt>
      <trkpt lat="43.42947" lon="2.22652">
        <ele>787.58880615</ele>
        <time>2022-07-10T09:31:36Z</time>
      </trkpt>
      <trkpt lat="43.42948" lon="2.22654">
        <ele>787.70880127</ele>
        <time>2022-07-10T09:31:37Z</time>
      </trkpt>
      <trkpt lat="43.4295" lon="2.22655">
        <ele>787.90881348</ele>
        <time>2022-07-10T09:31:38Z</time>
      </trkpt>
      <trkpt lat="43.42952" lon="2.22658">
        <ele>788.07879639</ele>
        <time>2022-07-10T09:31:39Z</time>
      </trkpt>
      <trkpt lat="43.42954" lon="2.2266">
        <ele>788.2487793</ele>
        <time>2022-07-10T09:31:40Z</time>
      </trkpt>
      <trkpt lat="43.42955" lon="2.22662">
        <ele>788.36877441</ele>
        <time>2022-07-10T09:31:41Z</time>
      </trkpt>
      <trkpt lat="43.42957" lon="2.22663">
        <ele>788.51879883</ele>
        <time>2022-07-10T09:31:42Z</time>
      </trkpt>
      <trkpt lat="43.42958" lon="2.22665">
        <ele>788.65881348</ele>
        <time>2022-07-10T09:31:43Z</time>
      </trkpt>
      <trkpt lat="43.4296" lon="2.22668">
        <ele>788.84881592</ele>
        <time>2022-07-10T09:31:44Z</time>
      </trkpt>
      <trkpt lat="43.42962" lon="2.2267">
        <ele>789.09881592</ele>
        <time>2022-07-10T09:31:45Z</time>
      </trkpt>
      <trkpt lat="43.42964" lon="2.22671">
        <ele>789.24884033</ele>
        <time>2022-07-10T09:31:46Z</time>
      </trkpt>
      <trkpt lat="43.42965" lon="2.22673">
        <ele>789.39886475</ele>
        <time>2022-07-10T09:31:47Z</time>
      </trkpt>
      <trkpt lat="43.42968" lon="2.22675">
        <ele>789.57885742</ele>
        <time>2022-07-10T09:31:48Z</time>
      </trkpt>
      <trkpt lat="43.42969" lon="2.22677">
        <ele>789.74884033</ele>
        <time>2022-07-10T09:31:49Z</time>
      </trkpt>
      <trkpt lat="43.42971" lon="2.22679">
        <ele>789.9588623</ele>
        <time>2022-07-10T09:31:50Z</time>
      </trkpt>
      <trkpt lat="43.42973" lon="2.2268">
        <ele>790.15887451</ele>
        <time>2022-07-10T09:31:51Z</time>
      </trkpt>
      <trkpt lat="43.42974" lon="2.22682">
        <ele>790.34887695</ele>
        <time>2022-07-10T09:31:52Z</time>
      </trkpt>
      <trkpt lat="43.42977" lon="2.22685">
        <ele>790.49890137</ele>
        <time>2022-07-10T09:31:53Z</time>
      </trkpt>
      <trkpt lat="43.42978" lon="2.22686">
        <ele>790.60888672</ele>
        <time>2022-07-10T09:31:54Z</time>
      </trkpt>
      <trkpt lat="43.4298" lon="2.22688">
        <ele>790.77886963</ele>
        <time>2022-07-10T09:31:55Z</time>
      </trkpt>
      <trkpt lat="43.42982" lon="2.2269">
        <ele>790.92889404</ele>
        <time>2022-07-10T09:31:56Z</time>
      </trkpt>
      <trkpt lat="43.42985" lon="2.22692">
        <ele>791.04888916</ele>
        <time>2022-07-10T09:31:57Z</time>
      </trkpt>
      <trkpt lat="43.42987" lon="2.22694">
        <ele>791.21887207</ele>
        <time>2022-07-10T09:31:58Z</time>
      </trkpt>
      <trkpt lat="43.42988" lon="2.22696">
        <ele>791.30889893</ele>
        <time>2022-07-10T09:31:59Z</time>
      </trkpt>
      <trkpt lat="43.4299" lon="2.22698">
        <ele>791.40887451</ele>
        <time>2022-07-10T09:32:00Z</time>
      </trkpt>
      <trkpt lat="43.42992" lon="2.227">
        <ele>791.49890137</ele>
        <time>2022-07-10T09:32:01Z</time>
      </trkpt>
      <trkpt lat="43.42994" lon="2.22703">
        <ele>791.63891602</ele>
        <time>2022-07-10T09:32:02Z</time>
      </trkpt>
      <trkpt lat="43.42996" lon="2.22705">
        <ele>791.81890869</ele>
        <time>2022-07-10T09:32:03Z</time>
      </trkpt>
      <trkpt lat="43.42997" lon="2.22707">
        <ele>791.96893311</ele>
        <time>2022-07-10T09:32:04Z</time>
      </trkpt>
      <trkpt lat="43.42999" lon="2.22709">
        <ele>792.15893555</ele>
        <time>2022-07-10T09:32:05Z</time>
      </trkpt>
      <trkpt lat="43.43001" lon="2.22712">
        <ele>792.2989502</ele>
        <time>2022-07-10T09:32:06Z</time>
      </trkpt>
      <trkpt lat="43.43003" lon="2.22715">
        <ele>792.32897949</ele>
        <time>2022-07-10T09:32:07Z</time>
      </trkpt>
      <trkpt lat="43.43004" lon="2.22717">
        <ele>792.44897461</ele>
        <time>2022-07-10T09:32:08Z</time>
      </trkpt>
      <trkpt lat="43.43005" lon="2.2272">
        <ele>792.61895752</ele>
        <time>2022-07-10T09:32:09Z</time>
      </trkpt>
      <trkpt lat="43.43007" lon="2.22724">
        <ele>792.76898193</ele>
        <time>2022-07-10T09:32:10Z</time>
      </trkpt>
      <trkpt lat="43.43008" lon="2.22727">
        <ele>792.93896484</ele>
        <time>2022-07-10T09:32:11Z</time>
      </trkpt>
      <trkpt lat="43.43009" lon="2.2273">
        <ele>793.10894775</ele>
        <time>2022-07-10T09:32:12Z</time>
      </trkpt>
      <trkpt lat="43.4301" lon="2.22732">
        <ele>793.23895264</ele>
        <time>2022-07-10T09:32:13Z</time>
      </trkpt>
      <trkpt lat="43.43011" lon="2.22736">
        <ele>793.27893066</ele>
        <time>2022-07-10T09:32:14Z</time>
      </trkpt>
      <trkpt lat="43.43013" lon="2.2274">
        <ele>793.37890625</ele>
        <time>2022-07-10T09:32:15Z</time>
      </trkpt>
      <trkpt lat="43.43015" lon="2.22743">
        <ele>793.45892334</ele>
        <time>2022-07-10T09:32:16Z</time>
      </trkpt>
      <trkpt lat="43.43016" lon="2.22746">
        <ele>793.49890137</ele>
        <time>2022-07-10T09:32:17Z</time>
      </trkpt>
      <trkpt lat="43.43017" lon="2.22749">
        <ele>793.70892334</ele>
        <time>2022-07-10T09:32:18Z</time>
      </trkpt>
      <trkpt lat="43.43018" lon="2.22752">
        <ele>793.85894775</ele>
        <time>2022-07-10T09:32:19Z</time>
      </trkpt>
      <trkpt lat="43.4302" lon="2.22757">
        <ele>794.02893066</ele>
        <time>2022-07-10T09:32:20Z</time>
      </trkpt>
      <trkpt lat="43.43022" lon="2.2276">
        <ele>794.11895752</ele>
        <time>2022-07-10T09:32:21Z</time>
      </trkpt>
      <trkpt lat="43.43023" lon="2.22763">
        <ele>794.09893799</ele>
        <time>2022-07-10T09:32:22Z</time>
      </trkpt>
      <trkpt lat="43.43024" lon="2.22766">
        <ele>794.21893311</ele>
        <time>2022-07-10T09:32:23Z</time>
      </trkpt>
      <trkpt lat="43.43026" lon="2.22771">
        <ele>794.2689209</ele>
        <time>2022-07-10T09:32:24Z</time>
      </trkpt>
      <trkpt lat="43.43027" lon="2.22774">
        <ele>794.33892822</ele>
        <time>2022-07-10T09:32:25Z</time>
      </trkpt>
      <trkpt lat="43.43028" lon="2.22777">
        <ele>794.45892334</ele>
        <time>2022-07-10T09:32:26Z</time>
      </trkpt>
      <trkpt lat="43.43029" lon="2.2278">
        <ele>794.46893311</ele>
        <time>2022-07-10T09:32:27Z</time>
      </trkpt>
      <trkpt lat="43.43031" lon="2.22785">
        <ele>794.5189209</ele>
        <time>2022-07-10T09:32:28Z</time>
      </trkpt>
      <trkpt lat="43.43032" lon="2.22788">
        <ele>794.61889648</ele>
        <time>2022-07-10T09:32:29Z</time>
      </trkpt>
      <trkpt lat="43.43033" lon="2.22791">
        <ele>794.71887207</ele>
        <time>2022-07-10T09:32:30Z</time>
      </trkpt>
      <trkpt lat="43.43034" lon="2.22795">
        <ele>794.7588501</ele>
        <time>2022-07-10T09:32:31Z</time>
      </trkpt>
      <trkpt lat="43.43035" lon="2.22799">
        <ele>794.79882812</ele>
        <time>2022-07-10T09:32:32Z</time>
      </trkpt>
      <trkpt lat="43.43036" lon="2.22804">
        <ele>794.88885498</ele>
        <time>2022-07-10T09:32:33Z</time>
      </trkpt>
      <trkpt lat="43.43037" lon="2.22807">
        <ele>794.96887207</ele>
        <time>2022-07-10T09:32:34Z</time>
      </trkpt>
      <trkpt lat="43.43038" lon="2.2281">
        <ele>795.05889893</ele>
        <time>2022-07-10T09:32:35Z</time>
      </trkpt>
      <trkpt lat="43.43038" lon="2.22814">
        <ele>795.08892822</ele>
        <time>2022-07-10T09:32:36Z</time>
      </trkpt>
      <trkpt lat="43.43039" lon="2.22817">
        <ele>795.12890625</ele>
        <time>2022-07-10T09:32:37Z</time>
      </trkpt>
      <trkpt lat="43.4304" lon="2.22823">
        <ele>795.09887695</ele>
        <time>2022-07-10T09:32:38Z</time>
      </trkpt>
      <trkpt lat="43.43041" lon="2.22826">
        <ele>795.24890137</ele>
        <time>2022-07-10T09:32:39Z</time>
      </trkpt>
      <trkpt lat="43.43042" lon="2.22829">
        <ele>795.35888672</ele>
        <time>2022-07-10T09:32:40Z</time>
      </trkpt>
      <trkpt lat="43.43042" lon="2.22833">
        <ele>795.40887451</ele>
        <time>2022-07-10T09:32:41Z</time>
      </trkpt>
      <trkpt lat="43.43043" lon="2.22839">
        <ele>795.60888672</ele>
        <time>2022-07-10T09:32:42Z</time>
      </trkpt>
      <trkpt lat="43.43044" lon="2.22843">
        <ele>795.66888428</ele>
        <time>2022-07-10T09:32:43Z</time>
      </trkpt>
      <trkpt lat="43.43045" lon="2.22847">
        <ele>795.55889893</ele>
        <time>2022-07-10T09:32:44Z</time>
      </trkpt>
      <trkpt lat="43.43046" lon="2.22851">
        <ele>795.56890869</ele>
        <time>2022-07-10T09:32:45Z</time>
      </trkpt>
      <trkpt lat="43.43048" lon="2.22857">
        <ele>795.57891846</ele>
        <time>2022-07-10T09:32:46Z</time>
      </trkpt>
      <trkpt lat="43.43049" lon="2.22861">
        <ele>795.57891846</ele>
        <time>2022-07-10T09:32:47Z</time>
      </trkpt>
      <trkpt lat="43.4305" lon="2.22864">
        <ele>795.82891846</ele>
        <time>2022-07-10T09:32:48Z</time>
      </trkpt>
      <trkpt lat="43.43051" lon="2.22868">
        <ele>795.91894531</ele>
        <time>2022-07-10T09:32:49Z</time>
      </trkpt>
      <trkpt lat="43.43052" lon="2.22872">
        <ele>796.03894043</ele>
        <time>2022-07-10T09:32:50Z</time>
      </trkpt>
      <trkpt lat="43.43053" lon="2.22878">
        <ele>796.11895752</ele>
        <time>2022-07-10T09:32:51Z</time>
      </trkpt>
      <trkpt lat="43.43053" lon="2.22882">
        <ele>796.08892822</ele>
        <time>2022-07-10T09:32:52Z</time>
      </trkpt>
      <trkpt lat="43.43053" lon="2.22886">
        <ele>796.17895508</ele>
        <time>2022-07-10T09:32:53Z</time>
      </trkpt>
      <trkpt lat="43.43054" lon="2.22889">
        <ele>796.16894531</ele>
        <time>2022-07-10T09:32:54Z</time>
      </trkpt>
      <trkpt lat="43.43054" lon="2.22893">
        <ele>796.19897461</ele>
        <time>2022-07-10T09:32:55Z</time>
      </trkpt>
      <trkpt lat="43.43056" lon="2.22898">
        <ele>796.31896973</ele>
        <time>2022-07-10T09:32:56Z</time>
      </trkpt>
      <trkpt lat="43.43057" lon="2.22902">
        <ele>796.31896973</ele>
        <time>2022-07-10T09:32:57Z</time>
      </trkpt>
      <trkpt lat="43.43058" lon="2.22906">
        <ele>796.38897705</ele>
        <time>2022-07-10T09:32:58Z</time>
      </trkpt>
      <trkpt lat="43.43059" lon="2.2291">
        <ele>796.46899414</ele>
        <time>2022-07-10T09:32:59Z</time>
      </trkpt>
      <trkpt lat="43.4306" lon="2.22915">
        <ele>796.59899902</ele>
        <time>2022-07-10T09:33:00Z</time>
      </trkpt>
      <trkpt lat="43.43062" lon="2.22918">
        <ele>796.78900146</ele>
        <time>2022-07-10T09:33:01Z</time>
      </trkpt>
      <trkpt lat="43.43063" lon="2.22921">
        <ele>796.90899658</ele>
        <time>2022-07-10T09:33:02Z</time>
      </trkpt>
      <trkpt lat="43.43065" lon="2.22925">
        <ele>797.10900879</ele>
        <time>2022-07-10T09:33:03Z</time>
      </trkpt>
      <trkpt lat="43.43068" lon="2.22929">
        <ele>797.20898438</ele>
        <time>2022-07-10T09:33:04Z</time>
      </trkpt>
      <trkpt lat="43.43069" lon="2.22933">
        <ele>797.2789917</ele>
        <time>2022-07-10T09:33:05Z</time>
      </trkpt>
      <trkpt lat="43.4307" lon="2.22936">
        <ele>797.33898926</ele>
        <time>2022-07-10T09:33:06Z</time>
      </trkpt>
      <trkpt lat="43.43072" lon="2.22941">
        <ele>797.31896973</ele>
        <time>2022-07-10T09:33:07Z</time>
      </trkpt>
      <trkpt lat="43.43073" lon="2.22944">
        <ele>797.42895508</ele>
        <time>2022-07-10T09:33:08Z</time>
      </trkpt>
      <trkpt lat="43.43076" lon="2.22949">
        <ele>797.55895996</ele>
        <time>2022-07-10T09:33:09Z</time>
      </trkpt>
      <trkpt lat="43.43077" lon="2.22952">
        <ele>797.72894287</ele>
        <time>2022-07-10T09:33:10Z</time>
      </trkpt>
      <trkpt lat="43.43079" lon="2.22956">
        <ele>797.95892334</ele>
        <time>2022-07-10T09:33:11Z</time>
      </trkpt>
      <trkpt lat="43.4308" lon="2.2296">
        <ele>797.99890137</ele>
        <time>2022-07-10T09:33:12Z</time>
      </trkpt>
      <trkpt lat="43.43082" lon="2.22965">
        <ele>798.10888672</ele>
        <time>2022-07-10T09:33:13Z</time>
      </trkpt>
      <trkpt lat="43.43083" lon="2.22968">
        <ele>798.2388916</ele>
        <time>2022-07-10T09:33:14Z</time>
      </trkpt>
      <trkpt lat="43.43085" lon="2.22972">
        <ele>798.30889893</ele>
        <time>2022-07-10T09:33:15Z</time>
      </trkpt>
      <trkpt lat="43.43087" lon="2.22976">
        <ele>798.41888428</ele>
        <time>2022-07-10T09:33:16Z</time>
      </trkpt>
      <trkpt lat="43.43088" lon="2.2298">
        <ele>798.4888916</ele>
        <time>2022-07-10T09:33:17Z</time>
      </trkpt>
      <trkpt lat="43.43091" lon="2.22984">
        <ele>798.5189209</ele>
        <time>2022-07-10T09:33:18Z</time>
      </trkpt>
      <trkpt lat="43.43093" lon="2.22987">
        <ele>798.52893066</ele>
        <time>2022-07-10T09:33:19Z</time>
      </trkpt>
      <trkpt lat="43.43095" lon="2.2299">
        <ele>798.59893799</ele>
        <time>2022-07-10T09:33:20Z</time>
      </trkpt>
      <trkpt lat="43.43096" lon="2.22993">
        <ele>798.69891357</ele>
        <time>2022-07-10T09:33:21Z</time>
      </trkpt>
      <trkpt lat="43.43099" lon="2.22998">
        <ele>798.79888916</ele>
        <time>2022-07-10T09:33:22Z</time>
      </trkpt>
      <trkpt lat="43.43101" lon="2.23001">
        <ele>798.91888428</ele>
        <time>2022-07-10T09:33:23Z</time>
      </trkpt>
      <trkpt lat="43.43104" lon="2.23004">
        <ele>799.07885742</ele>
        <time>2022-07-10T09:33:24Z</time>
      </trkpt>
      <trkpt lat="43.43105" lon="2.23007">
        <ele>799.17883301</ele>
        <time>2022-07-10T09:33:25Z</time>
      </trkpt>
      <trkpt lat="43.43107" lon="2.2301">
        <ele>799.34881592</ele>
        <time>2022-07-10T09:33:26Z</time>
      </trkpt>
      <trkpt lat="43.43109" lon="2.23015">
        <ele>799.48883057</ele>
        <time>2022-07-10T09:33:27Z</time>
      </trkpt>
      <trkpt lat="43.43111" lon="2.23018">
        <ele>799.57885742</ele>
        <time>2022-07-10T09:33:28Z</time>
      </trkpt>
      <trkpt lat="43.43113" lon="2.23021">
        <ele>799.78887939</ele>
        <time>2022-07-10T09:33:29Z</time>
      </trkpt>
      <trkpt lat="43.43114" lon="2.23025">
        <ele>799.85888672</ele>
        <time>2022-07-10T09:33:30Z</time>
      </trkpt>
      <trkpt lat="43.43116" lon="2.23028">
        <ele>800.08886719</ele>
        <time>2022-07-10T09:33:31Z</time>
      </trkpt>
      <trkpt lat="43.43119" lon="2.23033">
        <ele>800.28887939</ele>
        <time>2022-07-10T09:33:32Z</time>
      </trkpt>
      <trkpt lat="43.43121" lon="2.23037">
        <ele>800.43890381</ele>
        <time>2022-07-10T09:33:33Z</time>
      </trkpt>
      <trkpt lat="43.43123" lon="2.2304">
        <ele>800.62890625</ele>
        <time>2022-07-10T09:33:34Z</time>
      </trkpt>
      <trkpt lat="43.43125" lon="2.23043">
        <ele>800.7388916</ele>
        <time>2022-07-10T09:33:35Z</time>
      </trkpt>
      <trkpt lat="43.43128" lon="2.23047">
        <ele>800.86889648</ele>
        <time>2022-07-10T09:33:36Z</time>
      </trkpt>
      <trkpt lat="43.4313" lon="2.23051">
        <ele>801.0189209</ele>
        <time>2022-07-10T09:33:37Z</time>
      </trkpt>
      <trkpt lat="43.43131" lon="2.23053">
        <ele>801.16894531</ele>
        <time>2022-07-10T09:33:38Z</time>
      </trkpt>
      <trkpt lat="43.43134" lon="2.23056">
        <ele>801.23895264</ele>
        <time>2022-07-10T09:33:39Z</time>
      </trkpt>
      <trkpt lat="43.43135" lon="2.2306">
        <ele>801.34893799</ele>
        <time>2022-07-10T09:33:40Z</time>
      </trkpt>
      <trkpt lat="43.43138" lon="2.23064">
        <ele>801.40893555</ele>
        <time>2022-07-10T09:33:41Z</time>
      </trkpt>
      <trkpt lat="43.4314" lon="2.23068">
        <ele>801.48895264</ele>
        <time>2022-07-10T09:33:42Z</time>
      </trkpt>
      <trkpt lat="43.43142" lon="2.23071">
        <ele>801.58892822</ele>
        <time>2022-07-10T09:33:43Z</time>
      </trkpt>
      <trkpt lat="43.43144" lon="2.23075">
        <ele>801.70892334</ele>
        <time>2022-07-10T09:33:44Z</time>
      </trkpt>
      <trkpt lat="43.43147" lon="2.2308">
        <ele>801.71893311</ele>
        <time>2022-07-10T09:33:45Z</time>
      </trkpt>
      <trkpt lat="43.43149" lon="2.23083">
        <ele>801.7689209</ele>
        <time>2022-07-10T09:33:46Z</time>
      </trkpt>
      <trkpt lat="43.43151" lon="2.23088">
        <ele>801.85894775</ele>
        <time>2022-07-10T09:33:47Z</time>
      </trkpt>
      <trkpt lat="43.43152" lon="2.23092">
        <ele>801.85894775</ele>
        <time>2022-07-10T09:33:48Z</time>
      </trkpt>
      <trkpt lat="43.43154" lon="2.23096">
        <ele>801.86895752</ele>
        <time>2022-07-10T09:33:49Z</time>
      </trkpt>
      <trkpt lat="43.43157" lon="2.23101">
        <ele>801.84893799</ele>
        <time>2022-07-10T09:33:50Z</time>
      </trkpt>
      <trkpt lat="43.43158" lon="2.23105">
        <ele>801.89892578</ele>
        <time>2022-07-10T09:33:51Z</time>
      </trkpt>
      <trkpt lat="43.4316" lon="2.23109">
        <ele>801.89892578</ele>
        <time>2022-07-10T09:33:52Z</time>
      </trkpt>
      <trkpt lat="43.43162" lon="2.23113">
        <ele>801.97894287</ele>
        <time>2022-07-10T09:33:53Z</time>
      </trkpt>
      <trkpt lat="43.43165" lon="2.23119">
        <ele>802.13891602</ele>
        <time>2022-07-10T09:33:54Z</time>
      </trkpt>
      <trkpt lat="43.43167" lon="2.23123">
        <ele>802.18890381</ele>
        <time>2022-07-10T09:33:55Z</time>
      </trkpt>
      <trkpt lat="43.43169" lon="2.23126">
        <ele>802.2689209</ele>
        <time>2022-07-10T09:33:56Z</time>
      </trkpt>
      <trkpt lat="43.43171" lon="2.2313">
        <ele>802.36889648</ele>
        <time>2022-07-10T09:33:57Z</time>
      </trkpt>
      <trkpt lat="43.43173" lon="2.23133">
        <ele>802.38891602</ele>
        <time>2022-07-10T09:33:58Z</time>
      </trkpt>
      <trkpt lat="43.43175" lon="2.23139">
        <ele>802.36889648</ele>
        <time>2022-07-10T09:33:59Z</time>
      </trkpt>
      <trkpt lat="43.43176" lon="2.23143">
        <ele>802.41888428</ele>
        <time>2022-07-10T09:34:00Z</time>
      </trkpt>
      <trkpt lat="43.43178" lon="2.23147">
        <ele>802.43890381</ele>
        <time>2022-07-10T09:34:01Z</time>
      </trkpt>
      <trkpt lat="43.43179" lon="2.23151">
        <ele>802.40887451</ele>
        <time>2022-07-10T09:34:02Z</time>
      </trkpt>
      <trkpt lat="43.43182" lon="2.23156">
        <ele>802.40887451</ele>
        <time>2022-07-10T09:34:03Z</time>
      </trkpt>
      <trkpt lat="43.43185" lon="2.23159">
        <ele>802.4588623</ele>
        <time>2022-07-10T09:34:04Z</time>
      </trkpt>
      <trkpt lat="43.43187" lon="2.23163">
        <ele>802.5088501</ele>
        <time>2022-07-10T09:34:05Z</time>
      </trkpt>
      <trkpt lat="43.43189" lon="2.23166">
        <ele>802.66882324</ele>
        <time>2022-07-10T09:34:06Z</time>
      </trkpt>
      <trkpt lat="43.4319" lon="2.2317">
        <ele>802.81884766</ele>
        <time>2022-07-10T09:34:07Z</time>
      </trkpt>
      <trkpt lat="43.43194" lon="2.23175">
        <ele>802.96887207</ele>
        <time>2022-07-10T09:34:08Z</time>
      </trkpt>
      <trkpt lat="43.43196" lon="2.23178">
        <ele>802.7388916</ele>
        <time>2022-07-10T09:34:09Z</time>
      </trkpt>
      <trkpt lat="43.43198" lon="2.23181">
        <ele>802.83886719</ele>
        <time>2022-07-10T09:34:10Z</time>
      </trkpt>
      <trkpt lat="43.432" lon="2.23185">
        <ele>802.96887207</ele>
        <time>2022-07-10T09:34:11Z</time>
      </trkpt>
      <trkpt lat="43.43203" lon="2.2319">
        <ele>803.10888672</ele>
        <time>2022-07-10T09:34:12Z</time>
      </trkpt>
      <trkpt lat="43.43205" lon="2.23193">
        <ele>803.29888916</ele>
        <time>2022-07-10T09:34:13Z</time>
      </trkpt>
      <trkpt lat="43.43207" lon="2.23197">
        <ele>803.39886475</ele>
        <time>2022-07-10T09:34:14Z</time>
      </trkpt>
      <trkpt lat="43.43209" lon="2.232">
        <ele>803.54888916</ele>
        <time>2022-07-10T09:34:15Z</time>
      </trkpt>
      <trkpt lat="43.43211" lon="2.23203">
        <ele>803.61889648</ele>
        <time>2022-07-10T09:34:16Z</time>
      </trkpt>
      <trkpt lat="43.43214" lon="2.23208">
        <ele>803.79888916</ele>
        <time>2022-07-10T09:34:17Z</time>
      </trkpt>
      <trkpt lat="43.43216" lon="2.23212">
        <ele>803.9588623</ele>
        <time>2022-07-10T09:34:18Z</time>
      </trkpt>
      <trkpt lat="43.43218" lon="2.23215">
        <ele>804.17883301</ele>
        <time>2022-07-10T09:34:19Z</time>
      </trkpt>
      <trkpt lat="43.43219" lon="2.23219">
        <ele>804.37884521</ele>
        <time>2022-07-10T09:34:20Z</time>
      </trkpt>
      <trkpt lat="43.43223" lon="2.23223">
        <ele>804.38885498</ele>
        <time>2022-07-10T09:34:21Z</time>
      </trkpt>
      <trkpt lat="43.43225" lon="2.23227">
        <ele>804.40887451</ele>
        <time>2022-07-10T09:34:22Z</time>
      </trkpt>
      <trkpt lat="43.43227" lon="2.2323">
        <ele>804.38885498</ele>
        <time>2022-07-10T09:34:23Z</time>
      </trkpt>
      <trkpt lat="43.43229" lon="2.23234">
        <ele>804.36883545</ele>
        <time>2022-07-10T09:34:24Z</time>
      </trkpt>
      <trkpt lat="43.43233" lon="2.2324">
        <ele>804.41882324</ele>
        <time>2022-07-10T09:34:25Z</time>
      </trkpt>
      <trkpt lat="43.43235" lon="2.23243">
        <ele>804.61883545</ele>
        <time>2022-07-10T09:34:26Z</time>
      </trkpt>
      <trkpt lat="43.43237" lon="2.23247">
        <ele>804.74884033</ele>
        <time>2022-07-10T09:34:27Z</time>
      </trkpt>
      <trkpt lat="43.4324" lon="2.2325">
        <ele>804.96881104</ele>
        <time>2022-07-10T09:34:28Z</time>
      </trkpt>
      <trkpt lat="43.43242" lon="2.23253">
        <ele>805.03881836</ele>
        <time>2022-07-10T09:34:29Z</time>
      </trkpt>
      <trkpt lat="43.43246" lon="2.23258">
        <ele>805.07879639</ele>
        <time>2022-07-10T09:34:30Z</time>
      </trkpt>
      <trkpt lat="43.43248" lon="2.23261">
        <ele>805.11877441</ele>
        <time>2022-07-10T09:34:31Z</time>
      </trkpt>
      <trkpt lat="43.4325" lon="2.23265">
        <ele>805.14880371</ele>
        <time>2022-07-10T09:34:32Z</time>
      </trkpt>
      <trkpt lat="43.43252" lon="2.23268">
        <ele>805.26879883</ele>
        <time>2022-07-10T09:34:33Z</time>
      </trkpt>
      <trkpt lat="43.43256" lon="2.23273">
        <ele>805.32879639</ele>
        <time>2022-07-10T09:34:34Z</time>
      </trkpt>
      <trkpt lat="43.43258" lon="2.23277">
        <ele>805.46881104</ele>
        <time>2022-07-10T09:34:35Z</time>
      </trkpt>
      <trkpt lat="43.4326" lon="2.2328">
        <ele>805.39880371</ele>
        <time>2022-07-10T09:34:36Z</time>
      </trkpt>
      <trkpt lat="43.43262" lon="2.23283">
        <ele>805.45880127</ele>
        <time>2022-07-10T09:34:37Z</time>
      </trkpt>
      <trkpt lat="43.43265" lon="2.23286">
        <ele>805.55877686</ele>
        <time>2022-07-10T09:34:38Z</time>
      </trkpt>
      <trkpt lat="43.43268" lon="2.23291">
        <ele>805.56878662</ele>
        <time>2022-07-10T09:34:39Z</time>
      </trkpt>
      <trkpt lat="43.4327" lon="2.23294">
        <ele>805.73876953</ele>
        <time>2022-07-10T09:34:40Z</time>
      </trkpt>
      <trkpt lat="43.43272" lon="2.23297">
        <ele>805.81878662</ele>
        <time>2022-07-10T09:34:41Z</time>
      </trkpt>
      <trkpt lat="43.43275" lon="2.233">
        <ele>805.95880127</ele>
        <time>2022-07-10T09:34:42Z</time>
      </trkpt>
      <trkpt lat="43.43278" lon="2.23304">
        <ele>806.06878662</ele>
        <time>2022-07-10T09:34:43Z</time>
      </trkpt>
      <trkpt lat="43.4328" lon="2.23308">
        <ele>806.23876953</ele>
        <time>2022-07-10T09:34:44Z</time>
      </trkpt>
      <trkpt lat="43.43283" lon="2.23311">
        <ele>806.33874512</ele>
        <time>2022-07-10T09:34:45Z</time>
      </trkpt>
      <trkpt lat="43.43285" lon="2.23313">
        <ele>806.4387207</ele>
        <time>2022-07-10T09:34:46Z</time>
      </trkpt>
      <trkpt lat="43.43288" lon="2.23316">
        <ele>806.57873535</ele>
        <time>2022-07-10T09:34:47Z</time>
      </trkpt>
      <trkpt lat="43.43291" lon="2.23321">
        <ele>806.7387085</ele>
        <time>2022-07-10T09:34:48Z</time>
      </trkpt>
      <trkpt lat="43.43293" lon="2.23324">
        <ele>806.85870361</ele>
        <time>2022-07-10T09:34:49Z</time>
      </trkpt>
      <trkpt lat="43.43295" lon="2.23328">
        <ele>806.86871338</ele>
        <time>2022-07-10T09:34:50Z</time>
      </trkpt>
      <trkpt lat="43.43297" lon="2.23332">
        <ele>806.94873047</ele>
        <time>2022-07-10T09:34:51Z</time>
      </trkpt>
      <trkpt lat="43.43301" lon="2.23336">
        <ele>806.94873047</ele>
        <time>2022-07-10T09:34:52Z</time>
      </trkpt>
      <trkpt lat="43.43303" lon="2.23339">
        <ele>807.06872559</ele>
        <time>2022-07-10T09:34:53Z</time>
      </trkpt>
      <trkpt lat="43.43305" lon="2.23341">
        <ele>807.16870117</ele>
        <time>2022-07-10T09:34:54Z</time>
      </trkpt>
      <trkpt lat="43.43308" lon="2.23345">
        <ele>807.19873047</ele>
        <time>2022-07-10T09:34:55Z</time>
      </trkpt>
      <trkpt lat="43.4331" lon="2.23348">
        <ele>807.28875732</ele>
        <time>2022-07-10T09:34:56Z</time>
      </trkpt>
      <trkpt lat="43.43313" lon="2.23354">
        <ele>807.28875732</ele>
        <time>2022-07-10T09:34:57Z</time>
      </trkpt>
      <trkpt lat="43.43315" lon="2.23358">
        <ele>807.39874268</ele>
        <time>2022-07-10T09:34:58Z</time>
      </trkpt>
      <trkpt lat="43.43317" lon="2.23362">
        <ele>807.53875732</ele>
        <time>2022-07-10T09:34:59Z</time>
      </trkpt>
      <trkpt lat="43.4332" lon="2.23365">
        <ele>807.69873047</ele>
        <time>2022-07-10T09:35:00Z</time>
      </trkpt>
      <trkpt lat="43.43323" lon="2.2337">
        <ele>807.88873291</ele>
        <time>2022-07-10T09:35:01Z</time>
      </trkpt>
      <trkpt lat="43.43325" lon="2.23374">
        <ele>808.08874512</ele>
        <time>2022-07-10T09:35:02Z</time>
      </trkpt>
      <trkpt lat="43.43327" lon="2.23377">
        <ele>808.1887207</ele>
        <time>2022-07-10T09:35:03Z</time>
      </trkpt>
      <trkpt lat="43.43329" lon="2.2338">
        <ele>808.29870605</ele>
        <time>2022-07-10T09:35:04Z</time>
      </trkpt>
      <trkpt lat="43.43331" lon="2.23383">
        <ele>808.35870361</ele>
        <time>2022-07-10T09:35:05Z</time>
      </trkpt>
      <trkpt lat="43.43335" lon="2.23387">
        <ele>808.33868408</ele>
        <time>2022-07-10T09:35:06Z</time>
      </trkpt>
      <trkpt lat="43.43336" lon="2.2339">
        <ele>808.36871338</ele>
        <time>2022-07-10T09:35:07Z</time>
      </trkpt>
      <trkpt lat="43.43338" lon="2.23393">
        <ele>808.40869141</ele>
        <time>2022-07-10T09:35:08Z</time>
      </trkpt>
      <trkpt lat="43.4334" lon="2.23396">
        <ele>808.16870117</ele>
        <time>2022-07-10T09:35:09Z</time>
      </trkpt>
      <trkpt lat="43.43342" lon="2.234">
        <ele>808.27868652</ele>
        <time>2022-07-10T09:35:10Z</time>
      </trkpt>
      <trkpt lat="43.43345" lon="2.23404">
        <ele>808.4586792</ele>
        <time>2022-07-10T09:35:11Z</time>
      </trkpt>
      <trkpt lat="43.43347" lon="2.23407">
        <ele>808.59869385</ele>
        <time>2022-07-10T09:35:12Z</time>
      </trkpt>
      <trkpt lat="43.43349" lon="2.23411">
        <ele>808.7387085</ele>
        <time>2022-07-10T09:35:13Z</time>
      </trkpt>
      <trkpt lat="43.43351" lon="2.23414">
        <ele>808.9586792</ele>
        <time>2022-07-10T09:35:14Z</time>
      </trkpt>
      <trkpt lat="43.43355" lon="2.23419">
        <ele>809.12866211</ele>
        <time>2022-07-10T09:35:15Z</time>
      </trkpt>
      <trkpt lat="43.43357" lon="2.23422">
        <ele>809.31866455</ele>
        <time>2022-07-10T09:35:16Z</time>
      </trkpt>
      <trkpt lat="43.43359" lon="2.23426">
        <ele>809.49865723</ele>
        <time>2022-07-10T09:35:17Z</time>
      </trkpt>
      <trkpt lat="43.43361" lon="2.23429">
        <ele>809.53863525</ele>
        <time>2022-07-10T09:35:18Z</time>
      </trkpt>
      <trkpt lat="43.43364" lon="2.23433">
        <ele>809.64862061</ele>
        <time>2022-07-10T09:35:19Z</time>
      </trkpt>
      <trkpt lat="43.43366" lon="2.23436">
        <ele>809.75860596</ele>
        <time>2022-07-10T09:35:20Z</time>
      </trkpt>
      <trkpt lat="43.43369" lon="2.2344">
        <ele>809.81860352</ele>
        <time>2022-07-10T09:35:21Z</time>
      </trkpt>
      <trkpt lat="43.4337" lon="2.23443">
        <ele>809.88861084</ele>
        <time>2022-07-10T09:35:22Z</time>
      </trkpt>
      <trkpt lat="43.43373" lon="2.23447">
        <ele>809.88861084</ele>
        <time>2022-07-10T09:35:23Z</time>
      </trkpt>
      <trkpt lat="43.43376" lon="2.23452">
        <ele>809.95861816</ele>
        <time>2022-07-10T09:35:24Z</time>
      </trkpt>
      <trkpt lat="43.43378" lon="2.23455">
        <ele>810.05859375</ele>
        <time>2022-07-10T09:35:25Z</time>
      </trkpt>
      <trkpt lat="43.43379" lon="2.23459">
        <ele>810.18859863</ele>
        <time>2022-07-10T09:35:26Z</time>
      </trkpt>
      <trkpt lat="43.43381" lon="2.23463">
        <ele>810.40856934</ele>
        <time>2022-07-10T09:35:27Z</time>
      </trkpt>
      <trkpt lat="43.43383" lon="2.23467">
        <ele>810.44854736</ele>
        <time>2022-07-10T09:35:28Z</time>
      </trkpt>
      <trkpt lat="43.43385" lon="2.23473">
        <ele>810.54852295</ele>
        <time>2022-07-10T09:35:29Z</time>
      </trkpt>
      <trkpt lat="43.43387" lon="2.23476">
        <ele>810.66851807</ele>
        <time>2022-07-10T09:35:30Z</time>
      </trkpt>
      <trkpt lat="43.43388" lon="2.2348">
        <ele>810.74853516</ele>
        <time>2022-07-10T09:35:31Z</time>
      </trkpt>
      <trkpt lat="43.43389" lon="2.23485">
        <ele>810.86853027</ele>
        <time>2022-07-10T09:35:32Z</time>
      </trkpt>
      <trkpt lat="43.43391" lon="2.23491">
        <ele>810.97851562</ele>
        <time>2022-07-10T09:35:33Z</time>
      </trkpt>
      <trkpt lat="43.43393" lon="2.23495">
        <ele>811.09851074</ele>
        <time>2022-07-10T09:35:34Z</time>
      </trkpt>
      <trkpt lat="43.43394" lon="2.23499">
        <ele>811.11853027</ele>
        <time>2022-07-10T09:35:35Z</time>
      </trkpt>
      <trkpt lat="43.43395" lon="2.23504">
        <ele>811.21850586</ele>
        <time>2022-07-10T09:35:36Z</time>
      </trkpt>
      <trkpt lat="43.43396" lon="2.23508">
        <ele>811.27850342</ele>
        <time>2022-07-10T09:35:37Z</time>
      </trkpt>
      <trkpt lat="43.43398" lon="2.23514">
        <ele>811.378479</ele>
        <time>2022-07-10T09:35:38Z</time>
      </trkpt>
      <trkpt lat="43.43399" lon="2.23517">
        <ele>811.48846436</ele>
        <time>2022-07-10T09:35:39Z</time>
      </trkpt>
      <trkpt lat="43.434" lon="2.23521">
        <ele>811.63848877</ele>
        <time>2022-07-10T09:35:40Z</time>
      </trkpt>
      <trkpt lat="43.43402" lon="2.23527">
        <ele>811.79846191</ele>
        <time>2022-07-10T09:35:41Z</time>
      </trkpt>
      <trkpt lat="43.43403" lon="2.23531">
        <ele>811.91845703</ele>
        <time>2022-07-10T09:35:42Z</time>
      </trkpt>
      <trkpt lat="43.43405" lon="2.23534">
        <ele>812.1784668</ele>
        <time>2022-07-10T09:35:43Z</time>
      </trkpt>
      <trkpt lat="43.43407" lon="2.23538">
        <ele>812.22845459</ele>
        <time>2022-07-10T09:35:44Z</time>
      </trkpt>
      <trkpt lat="43.43408" lon="2.23541">
        <ele>812.31848145</ele>
        <time>2022-07-10T09:35:45Z</time>
      </trkpt>
      <trkpt lat="43.4341" lon="2.23545">
        <ele>812.4284668</ele>
        <time>2022-07-10T09:35:46Z</time>
      </trkpt>
      <trkpt lat="43.43412" lon="2.23551">
        <ele>812.47845459</ele>
        <time>2022-07-10T09:35:47Z</time>
      </trkpt>
      <trkpt lat="43.43413" lon="2.23554">
        <ele>812.63842773</ele>
        <time>2022-07-10T09:35:48Z</time>
      </trkpt>
      <trkpt lat="43.43415" lon="2.23557">
        <ele>812.77844238</ele>
        <time>2022-07-10T09:35:49Z</time>
      </trkpt>
      <trkpt lat="43.43416" lon="2.2356">
        <ele>812.94842529</ele>
        <time>2022-07-10T09:35:50Z</time>
      </trkpt>
      <trkpt lat="43.43419" lon="2.23565">
        <ele>812.95843506</ele>
        <time>2022-07-10T09:35:51Z</time>
      </trkpt>
      <trkpt lat="43.4342" lon="2.23569">
        <ele>813.09844971</ele>
        <time>2022-07-10T09:35:52Z</time>
      </trkpt>
      <trkpt lat="43.43421" lon="2.23573">
        <ele>813.24847412</ele>
        <time>2022-07-10T09:35:53Z</time>
      </trkpt>
      <trkpt lat="43.43424" lon="2.23575">
        <ele>813.378479</ele>
        <time>2022-07-10T09:35:54Z</time>
      </trkpt>
      <trkpt lat="43.43426" lon="2.23579">
        <ele>813.52850342</ele>
        <time>2022-07-10T09:35:55Z</time>
      </trkpt>
      <trkpt lat="43.43429" lon="2.23584">
        <ele>813.56848145</ele>
        <time>2022-07-10T09:35:56Z</time>
      </trkpt>
      <trkpt lat="43.43431" lon="2.23587">
        <ele>813.6784668</ele>
        <time>2022-07-10T09:35:57Z</time>
      </trkpt>
      <trkpt lat="43.43433" lon="2.2359">
        <ele>813.74847412</ele>
        <time>2022-07-10T09:35:58Z</time>
      </trkpt>
      <trkpt lat="43.43435" lon="2.23593">
        <ele>813.81848145</ele>
        <time>2022-07-10T09:35:59Z</time>
      </trkpt>
      <trkpt lat="43.43439" lon="2.23598">
        <ele>813.95849609</ele>
        <time>2022-07-10T09:36:00Z</time>
      </trkpt>
      <trkpt lat="43.43441" lon="2.23601">
        <ele>814.02850342</ele>
        <time>2022-07-10T09:36:01Z</time>
      </trkpt>
      <trkpt lat="43.43443" lon="2.23605">
        <ele>814.02850342</ele>
        <time>2022-07-10T09:36:02Z</time>
      </trkpt>
      <trkpt lat="43.43445" lon="2.23608">
        <ele>814.17852783</ele>
        <time>2022-07-10T09:36:03Z</time>
      </trkpt>
      <trkpt lat="43.43447" lon="2.23611">
        <ele>814.24853516</ele>
        <time>2022-07-10T09:36:04Z</time>
      </trkpt>
      <trkpt lat="43.43451" lon="2.23615">
        <ele>814.31854248</ele>
        <time>2022-07-10T09:36:05Z</time>
      </trkpt>
      <trkpt lat="43.43453" lon="2.23618">
        <ele>814.39855957</ele>
        <time>2022-07-10T09:36:06Z</time>
      </trkpt>
      <trkpt lat="43.43455" lon="2.2362">
        <ele>814.48858643</ele>
        <time>2022-07-10T09:36:07Z</time>
      </trkpt>
      <trkpt lat="43.43457" lon="2.23623">
        <ele>814.63861084</ele>
        <time>2022-07-10T09:36:08Z</time>
      </trkpt>
      <trkpt lat="43.43461" lon="2.23627">
        <ele>814.79858398</ele>
        <time>2022-07-10T09:36:09Z</time>
      </trkpt>
      <trkpt lat="43.43464" lon="2.23629">
        <ele>814.99859619</ele>
        <time>2022-07-10T09:36:10Z</time>
      </trkpt>
      <trkpt lat="43.43466" lon="2.23631">
        <ele>815.14862061</ele>
        <time>2022-07-10T09:36:11Z</time>
      </trkpt>
      <trkpt lat="43.43468" lon="2.23633">
        <ele>815.38861084</ele>
        <time>2022-07-10T09:36:12Z</time>
      </trkpt>
      <trkpt lat="43.4347" lon="2.23635">
        <ele>815.46862793</ele>
        <time>2022-07-10T09:36:13Z</time>
      </trkpt>
      <trkpt lat="43.43474" lon="2.23637">
        <ele>815.62860107</ele>
        <time>2022-07-10T09:36:14Z</time>
      </trkpt>
      <trkpt lat="43.43477" lon="2.23639">
        <ele>815.70861816</ele>
        <time>2022-07-10T09:36:15Z</time>
      </trkpt>
      <trkpt lat="43.4348" lon="2.23642">
        <ele>815.63861084</ele>
        <time>2022-07-10T09:36:16Z</time>
      </trkpt>
      <trkpt lat="43.43482" lon="2.23644">
        <ele>815.76861572</ele>
        <time>2022-07-10T09:36:17Z</time>
      </trkpt>
      <trkpt lat="43.43486" lon="2.23646">
        <ele>815.80859375</ele>
        <time>2022-07-10T09:36:18Z</time>
      </trkpt>
      <trkpt lat="43.43489" lon="2.23648">
        <ele>815.88861084</ele>
        <time>2022-07-10T09:36:19Z</time>
      </trkpt>
      <trkpt lat="43.43492" lon="2.2365">
        <ele>815.90863037</ele>
        <time>2022-07-10T09:36:20Z</time>
      </trkpt>
      <trkpt lat="43.43495" lon="2.23652">
        <ele>815.98864746</ele>
        <time>2022-07-10T09:36:21Z</time>
      </trkpt>
      <trkpt lat="43.43497" lon="2.23654">
        <ele>816.02862549</ele>
        <time>2022-07-10T09:36:22Z</time>
      </trkpt>
      <trkpt lat="43.43502" lon="2.23655">
        <ele>816.10864258</ele>
        <time>2022-07-10T09:36:23Z</time>
      </trkpt>
      <trkpt lat="43.43505" lon="2.23657">
        <ele>816.32861328</ele>
        <time>2022-07-10T09:36:24Z</time>
      </trkpt>
      <trkpt lat="43.43508" lon="2.23658">
        <ele>816.56860352</ele>
        <time>2022-07-10T09:36:25Z</time>
      </trkpt>
      <trkpt lat="43.43511" lon="2.2366">
        <ele>816.79858398</ele>
        <time>2022-07-10T09:36:26Z</time>
      </trkpt>
      <trkpt lat="43.43515" lon="2.23662">
        <ele>816.93859863</ele>
        <time>2022-07-10T09:36:27Z</time>
      </trkpt>
      <trkpt lat="43.43518" lon="2.23663">
        <ele>817.04858398</ele>
        <time>2022-07-10T09:36:28Z</time>
      </trkpt>
      <trkpt lat="43.43521" lon="2.23664">
        <ele>817.09857178</ele>
        <time>2022-07-10T09:36:29Z</time>
      </trkpt>
      <trkpt lat="43.43524" lon="2.23666">
        <ele>817.21856689</ele>
        <time>2022-07-10T09:36:30Z</time>
      </trkpt>
      <trkpt lat="43.43527" lon="2.23668">
        <ele>817.35858154</ele>
        <time>2022-07-10T09:36:31Z</time>
      </trkpt>
      <trkpt lat="43.43532" lon="2.2367">
        <ele>817.58856201</ele>
        <time>2022-07-10T09:36:32Z</time>
      </trkpt>
      <trkpt lat="43.43535" lon="2.23671">
        <ele>817.6685791</ele>
        <time>2022-07-10T09:36:33Z</time>
      </trkpt>
      <trkpt lat="43.43538" lon="2.23672">
        <ele>817.84857178</ele>
        <time>2022-07-10T09:36:34Z</time>
      </trkpt>
      <trkpt lat="43.43541" lon="2.23673">
        <ele>818.09857178</ele>
        <time>2022-07-10T09:36:35Z</time>
      </trkpt>
      <trkpt lat="43.43545" lon="2.23675">
        <ele>818.22857666</ele>
        <time>2022-07-10T09:36:36Z</time>
      </trkpt>
      <trkpt lat="43.43548" lon="2.23676">
        <ele>818.50860596</ele>
        <time>2022-07-10T09:36:37Z</time>
      </trkpt>
      <trkpt lat="43.43551" lon="2.23678">
        <ele>818.74859619</ele>
        <time>2022-07-10T09:36:38Z</time>
      </trkpt>
      <trkpt lat="43.43554" lon="2.23679">
        <ele>818.85858154</ele>
        <time>2022-07-10T09:36:39Z</time>
      </trkpt>
      <trkpt lat="43.43558" lon="2.23681">
        <ele>819.00860596</ele>
        <time>2022-07-10T09:36:40Z</time>
      </trkpt>
      <trkpt lat="43.43562" lon="2.23683">
        <ele>819.12860107</ele>
        <time>2022-07-10T09:36:41Z</time>
      </trkpt>
      <trkpt lat="43.43565" lon="2.23684">
        <ele>819.15863037</ele>
        <time>2022-07-10T09:36:42Z</time>
      </trkpt>
      <trkpt lat="43.43567" lon="2.23684">
        <ele>819.31860352</ele>
        <time>2022-07-10T09:36:43Z</time>
      </trkpt>
      <trkpt lat="43.4357" lon="2.23685">
        <ele>819.36859131</ele>
        <time>2022-07-10T09:36:44Z</time>
      </trkpt>
      <trkpt lat="43.43574" lon="2.23686">
        <ele>819.4185791</ele>
        <time>2022-07-10T09:36:45Z</time>
      </trkpt>
      <trkpt lat="43.43576" lon="2.23687">
        <ele>819.4486084</ele>
        <time>2022-07-10T09:36:46Z</time>
      </trkpt>
      <trkpt lat="43.43579" lon="2.23688">
        <ele>819.57861328</ele>
        <time>2022-07-10T09:36:47Z</time>
      </trkpt>
      <trkpt lat="43.43582" lon="2.23689">
        <ele>819.68859863</ele>
        <time>2022-07-10T09:36:48Z</time>
      </trkpt>
      <trkpt lat="43.43585" lon="2.23691">
        <ele>819.75860596</ele>
        <time>2022-07-10T09:36:49Z</time>
      </trkpt>
      <trkpt lat="43.43589" lon="2.23693">
        <ele>819.86859131</ele>
        <time>2022-07-10T09:36:50Z</time>
      </trkpt>
      <trkpt lat="43.43592" lon="2.23694">
        <ele>819.89862061</ele>
        <time>2022-07-10T09:36:51Z</time>
      </trkpt>
      <trkpt lat="43.43595" lon="2.23696">
        <ele>820.02862549</ele>
        <time>2022-07-10T09:36:52Z</time>
      </trkpt>
      <trkpt lat="43.43597" lon="2.23698">
        <ele>820.30865479</ele>
        <time>2022-07-10T09:36:53Z</time>
      </trkpt>
      <trkpt lat="43.43601" lon="2.23702">
        <ele>820.48864746</ele>
        <time>2022-07-10T09:36:54Z</time>
      </trkpt>
      <trkpt lat="43.43604" lon="2.23704">
        <ele>820.48864746</ele>
        <time>2022-07-10T09:36:55Z</time>
      </trkpt>
      <trkpt lat="43.43607" lon="2.23706">
        <ele>820.52862549</ele>
        <time>2022-07-10T09:36:56Z</time>
      </trkpt>
      <trkpt lat="43.43609" lon="2.23708">
        <ele>820.43859863</ele>
        <time>2022-07-10T09:36:57Z</time>
      </trkpt>
      <trkpt lat="43.43613" lon="2.23712">
        <ele>820.52862549</ele>
        <time>2022-07-10T09:36:58Z</time>
      </trkpt>
      <trkpt lat="43.43615" lon="2.23715">
        <ele>820.73864746</ele>
        <time>2022-07-10T09:36:59Z</time>
      </trkpt>
      <trkpt lat="43.43618" lon="2.23718">
        <ele>820.99865723</ele>
        <time>2022-07-10T09:37:00Z</time>
      </trkpt>
      <trkpt lat="43.4362" lon="2.23722">
        <ele>821.09863281</ele>
        <time>2022-07-10T09:37:01Z</time>
      </trkpt>
      <trkpt lat="43.43622" lon="2.23725">
        <ele>821.2286377</ele>
        <time>2022-07-10T09:37:02Z</time>
      </trkpt>
      <trkpt lat="43.43625" lon="2.2373">
        <ele>821.25866699</ele>
        <time>2022-07-10T09:37:03Z</time>
      </trkpt>
      <trkpt lat="43.43627" lon="2.23733">
        <ele>821.13867188</ele>
        <time>2022-07-10T09:37:04Z</time>
      </trkpt>
      <trkpt lat="43.43629" lon="2.23737">
        <ele>821.11865234</ele>
        <time>2022-07-10T09:37:05Z</time>
      </trkpt>
      <trkpt lat="43.4363" lon="2.2374">
        <ele>821.02862549</ele>
        <time>2022-07-10T09:37:06Z</time>
      </trkpt>
      <trkpt lat="43.43631" lon="2.23745">
        <ele>821.08862305</ele>
        <time>2022-07-10T09:37:07Z</time>
      </trkpt>
      <trkpt lat="43.43634" lon="2.23751">
        <ele>821.15863037</ele>
        <time>2022-07-10T09:37:08Z</time>
      </trkpt>
      <trkpt lat="43.43635" lon="2.23755">
        <ele>821.29864502</ele>
        <time>2022-07-10T09:37:09Z</time>
      </trkpt>
      <trkpt lat="43.43636" lon="2.23759">
        <ele>821.48864746</ele>
        <time>2022-07-10T09:37:10Z</time>
      </trkpt>
      <trkpt lat="43.43637" lon="2.23763">
        <ele>821.58862305</ele>
        <time>2022-07-10T09:37:11Z</time>
      </trkpt>
      <trkpt lat="43.43638" lon="2.23769">
        <ele>821.73864746</ele>
        <time>2022-07-10T09:37:12Z</time>
      </trkpt>
      <trkpt lat="43.43639" lon="2.23773">
        <ele>821.81866455</ele>
        <time>2022-07-10T09:37:13Z</time>
      </trkpt>
      <trkpt lat="43.4364" lon="2.23776">
        <ele>821.86865234</ele>
        <time>2022-07-10T09:37:14Z</time>
      </trkpt>
      <trkpt lat="43.43641" lon="2.2378">
        <ele>822.05865479</ele>
        <time>2022-07-10T09:37:15Z</time>
      </trkpt>
      <trkpt lat="43.43642" lon="2.23783">
        <ele>822.16864014</ele>
        <time>2022-07-10T09:37:16Z</time>
      </trkpt>
      <trkpt lat="43.43642" lon="2.23789">
        <ele>822.33862305</ele>
        <time>2022-07-10T09:37:17Z</time>
      </trkpt>
      <trkpt lat="43.43642" lon="2.23794">
        <ele>822.41864014</ele>
        <time>2022-07-10T09:37:18Z</time>
      </trkpt>
      <trkpt lat="43.43642" lon="2.23798">
        <ele>822.48864746</ele>
        <time>2022-07-10T09:37:19Z</time>
      </trkpt>
      <trkpt lat="43.43643" lon="2.238">
        <ele>822.65863037</ele>
        <time>2022-07-10T09:37:20Z</time>
      </trkpt>
      <trkpt lat="43.43643" lon="2.23806">
        <ele>822.76861572</ele>
        <time>2022-07-10T09:37:21Z</time>
      </trkpt>
      <trkpt lat="43.43643" lon="2.2381">
        <ele>822.89862061</ele>
        <time>2022-07-10T09:37:22Z</time>
      </trkpt>
      <trkpt lat="43.43643" lon="2.23814">
        <ele>822.89862061</ele>
        <time>2022-07-10T09:37:23Z</time>
      </trkpt>
      <trkpt lat="43.43642" lon="2.23818">
        <ele>822.9486084</ele>
        <time>2022-07-10T09:37:24Z</time>
      </trkpt>
      <trkpt lat="43.43642" lon="2.23823">
        <ele>823.10858154</ele>
        <time>2022-07-10T09:37:25Z</time>
      </trkpt>
      <trkpt lat="43.43641" lon="2.2383">
        <ele>823.20855713</ele>
        <time>2022-07-10T09:37:26Z</time>
      </trkpt>
      <trkpt lat="43.43641" lon="2.23834">
        <ele>823.40856934</ele>
        <time>2022-07-10T09:37:27Z</time>
      </trkpt>
      <trkpt lat="43.4364" lon="2.23839">
        <ele>823.57855225</ele>
        <time>2022-07-10T09:37:28Z</time>
      </trkpt>
      <trkpt lat="43.4364" lon="2.23843">
        <ele>823.70855713</ele>
        <time>2022-07-10T09:37:29Z</time>
      </trkpt>
      <trkpt lat="43.43639" lon="2.2385">
        <ele>823.85858154</ele>
        <time>2022-07-10T09:37:30Z</time>
      </trkpt>
      <trkpt lat="43.43639" lon="2.23854">
        <ele>823.96856689</ele>
        <time>2022-07-10T09:37:31Z</time>
      </trkpt>
      <trkpt lat="43.43638" lon="2.23858">
        <ele>823.97857666</ele>
        <time>2022-07-10T09:37:32Z</time>
      </trkpt>
      <trkpt lat="43.43637" lon="2.23862">
        <ele>823.89855957</ele>
        <time>2022-07-10T09:37:33Z</time>
      </trkpt>
      <trkpt lat="43.43637" lon="2.23866">
        <ele>823.89855957</ele>
        <time>2022-07-10T09:37:34Z</time>
      </trkpt>
      <trkpt lat="43.43636" lon="2.23873">
        <ele>823.89855957</ele>
        <time>2022-07-10T09:37:35Z</time>
      </trkpt>
      <trkpt lat="43.43636" lon="2.23876">
        <ele>823.89855957</ele>
        <time>2022-07-10T09:37:36Z</time>
      </trkpt>
      <trkpt lat="43.43635" lon="2.2388">
        <ele>824.05853271</ele>
        <time>2022-07-10T09:37:37Z</time>
      </trkpt>
      <trkpt lat="43.43634" lon="2.23883">
        <ele>824.21850586</ele>
        <time>2022-07-10T09:37:38Z</time>
      </trkpt>
      <trkpt lat="43.43634" lon="2.23889">
        <ele>824.32849121</ele>
        <time>2022-07-10T09:37:39Z</time>
      </trkpt>
      <trkpt lat="43.43634" lon="2.23894">
        <ele>824.53851318</ele>
        <time>2022-07-10T09:37:40Z</time>
      </trkpt>
      <trkpt lat="43.43635" lon="2.23899">
        <ele>824.57849121</ele>
        <time>2022-07-10T09:37:41Z</time>
      </trkpt>
      <trkpt lat="43.43635" lon="2.23904">
        <ele>824.61846924</ele>
        <time>2022-07-10T09:37:42Z</time>
      </trkpt>
      <trkpt lat="43.43636" lon="2.23909">
        <ele>824.77844238</ele>
        <time>2022-07-10T09:37:43Z</time>
      </trkpt>
      <trkpt lat="43.43637" lon="2.23916">
        <ele>824.79846191</ele>
        <time>2022-07-10T09:37:44Z</time>
      </trkpt>
      <trkpt lat="43.43637" lon="2.2392">
        <ele>824.96844482</ele>
        <time>2022-07-10T09:37:45Z</time>
      </trkpt>
      <trkpt lat="43.43638" lon="2.23924">
        <ele>825.09844971</ele>
        <time>2022-07-10T09:37:46Z</time>
      </trkpt>
      <trkpt lat="43.43637" lon="2.23928">
        <ele>825.24847412</ele>
        <time>2022-07-10T09:37:47Z</time>
      </trkpt>
      <trkpt lat="43.43635" lon="2.23933">
        <ele>825.49847412</ele>
        <time>2022-07-10T09:37:48Z</time>
      </trkpt>
      <trkpt lat="43.43633" lon="2.23935">
        <ele>825.77850342</ele>
        <time>2022-07-10T09:37:49Z</time>
      </trkpt>
      <trkpt lat="43.4363" lon="2.23936">
        <ele>826.128479</ele>
        <time>2022-07-10T09:37:50Z</time>
      </trkpt>
      <trkpt lat="43.43628" lon="2.23936">
        <ele>826.34844971</ele>
        <time>2022-07-10T09:37:51Z</time>
      </trkpt>
      <trkpt lat="43.43627" lon="2.23935">
        <ele>826.54846191</ele>
        <time>2022-07-10T09:37:52Z</time>
      </trkpt>
      <trkpt lat="43.43625" lon="2.23931">
        <ele>826.74847412</ele>
        <time>2022-07-10T09:37:53Z</time>
      </trkpt>
      <trkpt lat="43.43624" lon="2.23928">
        <ele>826.77850342</ele>
        <time>2022-07-10T09:37:54Z</time>
      </trkpt>
      <trkpt lat="43.43624" lon="2.23925">
        <ele>826.89849854</ele>
        <time>2022-07-10T09:37:55Z</time>
      </trkpt>
      <trkpt lat="43.43624" lon="2.23922">
        <ele>827.01849365</ele>
        <time>2022-07-10T09:37:56Z</time>
      </trkpt>
      <trkpt lat="43.43624" lon="2.23918">
        <ele>826.99847412</ele>
        <time>2022-07-10T09:37:57Z</time>
      </trkpt>
      <trkpt lat="43.43624" lon="2.23915">
        <ele>827.00848389</ele>
        <time>2022-07-10T09:37:58Z</time>
      </trkpt>
      <trkpt lat="43.43624" lon="2.23912">
        <ele>827.04846191</ele>
        <time>2022-07-10T09:37:59Z</time>
      </trkpt>
      <trkpt lat="43.43624" lon="2.23908">
        <ele>827.08843994</ele>
        <time>2022-07-10T09:38:00Z</time>
      </trkpt>
      <trkpt lat="43.43623" lon="2.23905">
        <ele>827.20843506</ele>
        <time>2022-07-10T09:38:01Z</time>
      </trkpt>
      <trkpt lat="43.43623" lon="2.23899">
        <ele>827.31842041</ele>
        <time>2022-07-10T09:38:02Z</time>
      </trkpt>
      <trkpt lat="43.43623" lon="2.23896">
        <ele>827.3984375</ele>
        <time>2022-07-10T09:38:03Z</time>
      </trkpt>
      <trkpt lat="43.43623" lon="2.23892">
        <ele>827.47845459</ele>
        <time>2022-07-10T09:38:04Z</time>
      </trkpt>
      <trkpt lat="43.43623" lon="2.23889">
        <ele>827.6484375</ele>
        <time>2022-07-10T09:38:05Z</time>
      </trkpt>
      <trkpt lat="43.43623" lon="2.23884">
        <ele>827.8684082</ele>
        <time>2022-07-10T09:38:06Z</time>
      </trkpt>
      <trkpt lat="43.43623" lon="2.23881">
        <ele>828.05841064</ele>
        <time>2022-07-10T09:38:07Z</time>
      </trkpt>
      <trkpt lat="43.43623" lon="2.23877">
        <ele>828.27838135</ele>
        <time>2022-07-10T09:38:08Z</time>
      </trkpt>
      <trkpt lat="43.43622" lon="2.23873">
        <ele>828.40838623</ele>
        <time>2022-07-10T09:38:09Z</time>
      </trkpt>
      <trkpt lat="43.43622" lon="2.23869">
        <ele>828.54840088</ele>
        <time>2022-07-10T09:38:10Z</time>
      </trkpt>
      <trkpt lat="43.43621" lon="2.23863">
        <ele>828.71838379</ele>
        <time>2022-07-10T09:38:11Z</time>
      </trkpt>
      <trkpt lat="43.4362" lon="2.23859">
        <ele>828.79840088</ele>
        <time>2022-07-10T09:38:12Z</time>
      </trkpt>
      <trkpt lat="43.4362" lon="2.23855">
        <ele>828.83837891</ele>
        <time>2022-07-10T09:38:13Z</time>
      </trkpt>
      <trkpt lat="43.43619" lon="2.23851">
        <ele>828.85839844</ele>
        <time>2022-07-10T09:38:14Z</time>
      </trkpt>
      <trkpt lat="43.43618" lon="2.23844">
        <ele>828.92840576</ele>
        <time>2022-07-10T09:38:15Z</time>
      </trkpt>
      <trkpt lat="43.43617" lon="2.23841">
        <ele>829.01843262</ele>
        <time>2022-07-10T09:38:16Z</time>
      </trkpt>
      <trkpt lat="43.43616" lon="2.23837">
        <ele>829.08843994</ele>
        <time>2022-07-10T09:38:17Z</time>
      </trkpt>
      <trkpt lat="43.43616" lon="2.23833">
        <ele>829.25842285</ele>
        <time>2022-07-10T09:38:18Z</time>
      </trkpt>
      <trkpt lat="43.43615" lon="2.23829">
        <ele>829.33843994</ele>
        <time>2022-07-10T09:38:19Z</time>
      </trkpt>
      <trkpt lat="43.43613" lon="2.23823">
        <ele>829.52844238</ele>
        <time>2022-07-10T09:38:20Z</time>
      </trkpt>
      <trkpt lat="43.43612" lon="2.2382">
        <ele>829.75842285</ele>
        <time>2022-07-10T09:38:21Z</time>
      </trkpt>
      <trkpt lat="43.4361" lon="2.23817">
        <ele>829.85839844</ele>
        <time>2022-07-10T09:38:22Z</time>
      </trkpt>
      <trkpt lat="43.43609" lon="2.23814">
        <ele>829.89837646</ele>
        <time>2022-07-10T09:38:23Z</time>
      </trkpt>
      <trkpt lat="43.43607" lon="2.23809">
        <ele>829.89837646</ele>
        <time>2022-07-10T09:38:24Z</time>
      </trkpt>
      <trkpt lat="43.43605" lon="2.23807">
        <ele>829.92840576</ele>
        <time>2022-07-10T09:38:25Z</time>
      </trkpt>
      <trkpt lat="43.43603" lon="2.23803">
        <ele>830.07843018</ele>
        <time>2022-07-10T09:38:26Z</time>
      </trkpt>
      <trkpt lat="43.43601" lon="2.238">
        <ele>830.19842529</ele>
        <time>2022-07-10T09:38:27Z</time>
      </trkpt>
      <trkpt lat="43.43599" lon="2.23794">
        <ele>830.27844238</ele>
        <time>2022-07-10T09:38:28Z</time>
      </trkpt>
      <trkpt lat="43.43597" lon="2.23793">
        <ele>830.45843506</ele>
        <time>2022-07-10T09:38:29Z</time>
      </trkpt>
      <trkpt lat="43.43594" lon="2.23791">
        <ele>830.60845947</ele>
        <time>2022-07-10T09:38:30Z</time>
      </trkpt>
      <trkpt lat="43.43591" lon="2.23788">
        <ele>830.90844727</ele>
        <time>2022-07-10T09:38:31Z</time>
      </trkpt>
      <trkpt lat="43.43588" lon="2.23785">
        <ele>831.21844482</ele>
        <time>2022-07-10T09:38:32Z</time>
      </trkpt>
      <trkpt lat="43.43584" lon="2.23782">
        <ele>831.33843994</ele>
        <time>2022-07-10T09:38:33Z</time>
      </trkpt>
      <trkpt lat="43.43581" lon="2.2378">
        <ele>831.46844482</ele>
        <time>2022-07-10T09:38:34Z</time>
      </trkpt>
      <trkpt lat="43.43578" lon="2.23777">
        <ele>831.50842285</ele>
        <time>2022-07-10T09:38:35Z</time>
      </trkpt>
      <trkpt lat="43.43575" lon="2.23775">
        <ele>831.57843018</ele>
        <time>2022-07-10T09:38:36Z</time>
      </trkpt>
      <trkpt lat="43.43572" lon="2.23773">
        <ele>831.75842285</ele>
        <time>2022-07-10T09:38:37Z</time>
      </trkpt>
      <trkpt lat="43.43567" lon="2.23771">
        <ele>831.83843994</ele>
        <time>2022-07-10T09:38:38Z</time>
      </trkpt>
      <trkpt lat="43.43564" lon="2.23769">
        <ele>832.04846191</ele>
        <time>2022-07-10T09:38:39Z</time>
      </trkpt>
      <trkpt lat="43.43561" lon="2.23768">
        <ele>832.16845703</ele>
        <time>2022-07-10T09:38:40Z</time>
      </trkpt>
      <trkpt lat="43.43557" lon="2.23768">
        <ele>832.24847412</ele>
        <time>2022-07-10T09:38:41Z</time>
      </trkpt>
      <trkpt lat="43.43553" lon="2.23766">
        <ele>832.40844727</ele>
        <time>2022-07-10T09:38:42Z</time>
      </trkpt>
      <trkpt lat="43.4355" lon="2.23765">
        <ele>832.47845459</ele>
        <time>2022-07-10T09:38:43Z</time>
      </trkpt>
      <trkpt lat="43.43547" lon="2.23764">
        <ele>832.54846191</ele>
        <time>2022-07-10T09:38:44Z</time>
      </trkpt>
      <trkpt lat="43.43544" lon="2.23763">
        <ele>832.65844727</ele>
        <time>2022-07-10T09:38:45Z</time>
      </trkpt>
      <trkpt lat="43.43541" lon="2.23764">
        <ele>832.72845459</ele>
        <time>2022-07-10T09:38:46Z</time>
      </trkpt>
      <trkpt lat="43.43537" lon="2.23764">
        <ele>833.19842529</ele>
        <time>2022-07-10T09:38:47Z</time>
      </trkpt>
      <trkpt lat="43.43533" lon="2.23764">
        <ele>833.38842773</ele>
        <time>2022-07-10T09:38:48Z</time>
      </trkpt>
      <trkpt lat="43.4353" lon="2.23764">
        <ele>833.63842773</ele>
        <time>2022-07-10T09:38:49Z</time>
      </trkpt>
      <trkpt lat="43.43528" lon="2.23764">
        <ele>833.83843994</ele>
        <time>2022-07-10T09:38:50Z</time>
      </trkpt>
      <trkpt lat="43.43523" lon="2.23765">
        <ele>833.74841309</ele>
        <time>2022-07-10T09:38:51Z</time>
      </trkpt>
      <trkpt lat="43.4352" lon="2.23765">
        <ele>834.15838623</ele>
        <time>2022-07-10T09:38:52Z</time>
      </trkpt>
      <trkpt lat="43.43516" lon="2.23766">
        <ele>834.26837158</ele>
        <time>2022-07-10T09:38:53Z</time>
      </trkpt>
      <trkpt lat="43.43513" lon="2.23767">
        <ele>833.94836426</ele>
        <time>2022-07-10T09:38:54Z</time>
      </trkpt>
      <trkpt lat="43.43509" lon="2.23768">
        <ele>834.06835938</ele>
        <time>2022-07-10T09:38:55Z</time>
      </trkpt>
      <trkpt lat="43.43506" lon="2.23769">
        <ele>833.99835205</ele>
        <time>2022-07-10T09:38:56Z</time>
      </trkpt>
      <trkpt lat="43.43503" lon="2.2377">
        <ele>834.04833984</ele>
        <time>2022-07-10T09:38:57Z</time>
      </trkpt>
      <trkpt lat="43.43499" lon="2.23771">
        <ele>834.66833496</ele>
        <time>2022-07-10T09:38:58Z</time>
      </trkpt>
      <trkpt lat="43.43496" lon="2.23771">
        <ele>834.82830811</ele>
        <time>2022-07-10T09:38:59Z</time>
      </trkpt>
      <trkpt lat="43.43492" lon="2.23772">
        <ele>835.23828125</ele>
        <time>2022-07-10T09:39:00Z</time>
      </trkpt>
      <trkpt lat="43.43489" lon="2.23772">
        <ele>835.27825928</ele>
        <time>2022-07-10T09:39:01Z</time>
      </trkpt>
      <trkpt lat="43.43486" lon="2.23772">
        <ele>835.49822998</ele>
        <time>2022-07-10T09:39:02Z</time>
      </trkpt>
      <trkpt lat="43.43483" lon="2.23772">
        <ele>835.63824463</ele>
        <time>2022-07-10T09:39:03Z</time>
      </trkpt>
      <trkpt lat="43.43477" lon="2.23773">
        <ele>835.50823975</ele>
        <time>2022-07-10T09:39:04Z</time>
      </trkpt>
      <trkpt lat="43.43474" lon="2.23774">
        <ele>835.79821777</ele>
        <time>2022-07-10T09:39:05Z</time>
      </trkpt>
      <trkpt lat="43.4347" lon="2.23775">
        <ele>835.85821533</ele>
        <time>2022-07-10T09:39:06Z</time>
      </trkpt>
      <trkpt lat="43.43467" lon="2.23776">
        <ele>836.00823975</ele>
        <time>2022-07-10T09:39:07Z</time>
      </trkpt>
      <trkpt lat="43.43464" lon="2.23777">
        <ele>836.12823486</ele>
        <time>2022-07-10T09:39:08Z</time>
      </trkpt>
      <trkpt lat="43.43459" lon="2.23777">
        <ele>836.3182373</ele>
        <time>2022-07-10T09:39:09Z</time>
      </trkpt>
      <trkpt lat="43.43456" lon="2.23778">
        <ele>836.47821045</ele>
        <time>2022-07-10T09:39:10Z</time>
      </trkpt>
      <trkpt lat="43.43453" lon="2.23778">
        <ele>836.5682373</ele>
        <time>2022-07-10T09:39:11Z</time>
      </trkpt>
      <trkpt lat="43.43449" lon="2.23779">
        <ele>836.71826172</ele>
        <time>2022-07-10T09:39:12Z</time>
      </trkpt>
      <trkpt lat="43.43444" lon="2.2378">
        <ele>836.85827637</ele>
        <time>2022-07-10T09:39:13Z</time>
      </trkpt>
      <trkpt lat="43.43441" lon="2.2378">
        <ele>837.02825928</ele>
        <time>2022-07-10T09:39:14Z</time>
      </trkpt>
      <trkpt lat="43.43438" lon="2.2378">
        <ele>837.19824219</ele>
        <time>2022-07-10T09:39:15Z</time>
      </trkpt>
      <trkpt lat="43.43435" lon="2.23781">
        <ele>837.3682251</ele>
        <time>2022-07-10T09:39:16Z</time>
      </trkpt>
      <trkpt lat="43.43432" lon="2.2378">
        <ele>837.45825195</ele>
        <time>2022-07-10T09:39:17Z</time>
      </trkpt>
      <trkpt lat="43.43426" lon="2.2378">
        <ele>837.60827637</ele>
        <time>2022-07-10T09:39:18Z</time>
      </trkpt>
      <trkpt lat="43.43423" lon="2.23778">
        <ele>837.67828369</ele>
        <time>2022-07-10T09:39:19Z</time>
      </trkpt>
      <trkpt lat="43.4342" lon="2.23777">
        <ele>837.77825928</ele>
        <time>2022-07-10T09:39:20Z</time>
      </trkpt>
      <trkpt lat="43.43416" lon="2.23776">
        <ele>837.90826416</ele>
        <time>2022-07-10T09:39:21Z</time>
      </trkpt>
      <trkpt lat="43.43413" lon="2.23775">
        <ele>837.90826416</ele>
        <time>2022-07-10T09:39:22Z</time>
      </trkpt>
      <trkpt lat="43.43409" lon="2.23773">
        <ele>837.99829102</ele>
        <time>2022-07-10T09:39:23Z</time>
      </trkpt>
      <trkpt lat="43.43405" lon="2.23772">
        <ele>838.05828857</ele>
        <time>2022-07-10T09:39:24Z</time>
      </trkpt>
      <trkpt lat="43.43402" lon="2.23771">
        <ele>838.14831543</ele>
        <time>2022-07-10T09:39:25Z</time>
      </trkpt>
      <trkpt lat="43.43398" lon="2.23769">
        <ele>838.34832764</ele>
        <time>2022-07-10T09:39:26Z</time>
      </trkpt>
      <trkpt lat="43.43393" lon="2.23767">
        <ele>838.53833008</ele>
        <time>2022-07-10T09:39:27Z</time>
      </trkpt>
      <trkpt lat="43.4339" lon="2.23765">
        <ele>838.76831055</ele>
        <time>2022-07-10T09:39:28Z</time>
      </trkpt>
      <trkpt lat="43.43387" lon="2.23763">
        <ele>838.78833008</ele>
        <time>2022-07-10T09:39:29Z</time>
      </trkpt>
      <trkpt lat="43.43384" lon="2.23761">
        <ele>838.89831543</ele>
        <time>2022-07-10T09:39:30Z</time>
      </trkpt>
      <trkpt lat="43.4338" lon="2.23759">
        <ele>838.92834473</ele>
        <time>2022-07-10T09:39:31Z</time>
      </trkpt>
      <trkpt lat="43.43376" lon="2.23757">
        <ele>838.98834229</ele>
        <time>2022-07-10T09:39:32Z</time>
      </trkpt>
      <trkpt lat="43.43373" lon="2.23755">
        <ele>839.20831299</ele>
        <time>2022-07-10T09:39:33Z</time>
      </trkpt>
      <trkpt lat="43.4337" lon="2.23754">
        <ele>839.20831299</ele>
        <time>2022-07-10T09:39:34Z</time>
      </trkpt>
      <trkpt lat="43.43368" lon="2.23751">
        <ele>839.16833496</ele>
        <time>2022-07-10T09:39:35Z</time>
      </trkpt>
      <trkpt lat="43.43364" lon="2.23748">
        <ele>839.21832275</ele>
        <time>2022-07-10T09:39:36Z</time>
      </trkpt>
      <trkpt lat="43.43361" lon="2.23746">
        <ele>839.25830078</ele>
        <time>2022-07-10T09:39:37Z</time>
      </trkpt>
      <trkpt lat="43.43358" lon="2.23744">
        <ele>839.4083252</ele>
        <time>2022-07-10T09:39:38Z</time>
      </trkpt>
      <trkpt lat="43.43356" lon="2.23741">
        <ele>839.69830322</ele>
        <time>2022-07-10T09:39:39Z</time>
      </trkpt>
      <trkpt lat="43.43353" lon="2.23739">
        <ele>839.89831543</ele>
        <time>2022-07-10T09:39:40Z</time>
      </trkpt>
      <trkpt lat="43.43349" lon="2.23736">
        <ele>840.03833008</ele>
        <time>2022-07-10T09:39:41Z</time>
      </trkpt>
      <trkpt lat="43.43346" lon="2.23733">
        <ele>840.13830566</ele>
        <time>2022-07-10T09:39:42Z</time>
      </trkpt>
      <trkpt lat="43.43343" lon="2.23731">
        <ele>840.29827881</ele>
        <time>2022-07-10T09:39:43Z</time>
      </trkpt>
      <trkpt lat="43.4334" lon="2.23729">
        <ele>840.35827637</ele>
        <time>2022-07-10T09:39:44Z</time>
      </trkpt>
      <trkpt lat="43.43336" lon="2.23726">
        <ele>840.50830078</ele>
        <time>2022-07-10T09:39:45Z</time>
      </trkpt>
      <trkpt lat="43.43333" lon="2.23725">
        <ele>840.75830078</ele>
        <time>2022-07-10T09:39:46Z</time>
      </trkpt>
      <trkpt lat="43.43331" lon="2.23723">
        <ele>840.85827637</ele>
        <time>2022-07-10T09:39:47Z</time>
      </trkpt>
      <trkpt lat="43.43328" lon="2.23721">
        <ele>841.06829834</ele>
        <time>2022-07-10T09:39:48Z</time>
      </trkpt>
      <trkpt lat="43.43325" lon="2.23719">
        <ele>841.23828125</ele>
        <time>2022-07-10T09:39:49Z</time>
      </trkpt>
      <trkpt lat="43.43321" lon="2.23717">
        <ele>841.46826172</ele>
        <time>2022-07-10T09:39:50Z</time>
      </trkpt>
      <trkpt lat="43.4332" lon="2.23715">
        <ele>841.85827637</ele>
        <time>2022-07-10T09:39:51Z</time>
      </trkpt>
      <trkpt lat="43.43317" lon="2.23714">
        <ele>842.00830078</ele>
        <time>2022-07-10T09:39:52Z</time>
      </trkpt>
      <trkpt lat="43.43315" lon="2.23713">
        <ele>842.19830322</ele>
        <time>2022-07-10T09:39:53Z</time>
      </trkpt>
      <trkpt lat="43.43311" lon="2.23711">
        <ele>842.21832275</ele>
        <time>2022-07-10T09:39:54Z</time>
      </trkpt>
      <trkpt lat="43.43308" lon="2.2371">
        <ele>842.16833496</ele>
        <time>2022-07-10T09:39:55Z</time>
      </trkpt>
      <trkpt lat="43.43305" lon="2.23709">
        <ele>842.3583374</ele>
        <time>2022-07-10T09:39:56Z</time>
      </trkpt>
      <trkpt lat="43.43303" lon="2.2371">
        <ele>842.44836426</ele>
        <time>2022-07-10T09:39:57Z</time>
      </trkpt>
      <trkpt lat="43.43302" lon="2.23712">
        <ele>842.62835693</ele>
        <time>2022-07-10T09:39:58Z</time>
      </trkpt>
      <trkpt lat="43.43301" lon="2.23716">
        <ele>842.75836182</ele>
        <time>2022-07-10T09:39:59Z</time>
      </trkpt>
      <trkpt lat="43.43293" lon="2.23715">
        <ele>842.76837158</ele>
        <time>2022-07-10T09:40:21Z</time>
      </trkpt>
      <trkpt lat="43.43291" lon="2.23712">
        <ele>842.71838379</ele>
        <time>2022-07-10T09:40:22Z</time>
      </trkpt>
      <trkpt lat="43.43288" lon="2.23711">
        <ele>842.71838379</ele>
        <time>2022-07-10T09:40:23Z</time>
      </trkpt>
      <trkpt lat="43.43285" lon="2.2371">
        <ele>842.67840576</ele>
        <time>2022-07-10T09:40:24Z</time>
      </trkpt>
      <trkpt lat="43.43282" lon="2.23711">
        <ele>842.70843506</ele>
        <time>2022-07-10T09:40:25Z</time>
      </trkpt>
      <trkpt lat="43.43278" lon="2.23713">
        <ele>842.75842285</ele>
        <time>2022-07-10T09:40:26Z</time>
      </trkpt>
      <trkpt lat="43.43275" lon="2.23715">
        <ele>842.76843262</ele>
        <time>2022-07-10T09:40:27Z</time>
      </trkpt>
      <trkpt lat="43.43272" lon="2.23718">
        <ele>842.81842041</ele>
        <time>2022-07-10T09:40:28Z</time>
      </trkpt>
      <trkpt lat="43.4327" lon="2.23723">
        <ele>842.81842041</ele>
        <time>2022-07-10T09:40:29Z</time>
      </trkpt>
      <trkpt lat="43.43268" lon="2.2373">
        <ele>842.75842285</ele>
        <time>2022-07-10T09:40:30Z</time>
      </trkpt>
      <trkpt lat="43.43268" lon="2.23736">
        <ele>842.71844482</ele>
        <time>2022-07-10T09:40:31Z</time>
      </trkpt>
      <trkpt lat="43.43269" lon="2.23742">
        <ele>842.61846924</ele>
        <time>2022-07-10T09:40:32Z</time>
      </trkpt>
      <trkpt lat="43.4327" lon="2.23748">
        <ele>842.35845947</ele>
        <time>2022-07-10T09:40:33Z</time>
      </trkpt>
      <trkpt lat="43.43272" lon="2.23756">
        <ele>842.10845947</ele>
        <time>2022-07-10T09:40:34Z</time>
      </trkpt>
      <trkpt lat="43.43274" lon="2.23761">
        <ele>841.81848145</ele>
        <time>2022-07-10T09:40:35Z</time>
      </trkpt>
      <trkpt lat="43.43275" lon="2.23766">
        <ele>841.61846924</ele>
        <time>2022-07-10T09:40:36Z</time>
      </trkpt>
      <trkpt lat="43.43277" lon="2.23771">
        <ele>841.35845947</ele>
        <time>2022-07-10T09:40:37Z</time>
      </trkpt>
      <trkpt lat="43.4328" lon="2.23777">
        <ele>841.15844727</ele>
        <time>2022-07-10T09:40:38Z</time>
      </trkpt>
      <trkpt lat="43.43284" lon="2.23785">
        <ele>840.9284668</ele>
        <time>2022-07-10T09:40:39Z</time>
      </trkpt>
      <trkpt lat="43.43287" lon="2.23791">
        <ele>840.3984375</ele>
        <time>2022-07-10T09:40:40Z</time>
      </trkpt>
      <trkpt lat="43.4329" lon="2.23798">
        <ele>840.05841064</ele>
        <time>2022-07-10T09:40:41Z</time>
      </trkpt>
      <trkpt lat="43.43292" lon="2.23805">
        <ele>839.45843506</ele>
        <time>2022-07-10T09:40:42Z</time>
      </trkpt>
      <trkpt lat="43.43294" lon="2.23814">
        <ele>838.81842041</ele>
        <time>2022-07-10T09:40:43Z</time>
      </trkpt>
      <trkpt lat="43.43297" lon="2.2382">
        <ele>838.3684082</ele>
        <time>2022-07-10T09:40:44Z</time>
      </trkpt>
      <trkpt lat="43.43299" lon="2.23825">
        <ele>837.8684082</ele>
        <time>2022-07-10T09:40:45Z</time>
      </trkpt>
      <trkpt lat="43.433" lon="2.23831">
        <ele>837.52838135</ele>
        <time>2022-07-10T09:40:46Z</time>
      </trkpt>
      <trkpt lat="43.43301" lon="2.23838">
        <ele>837.21838379</ele>
        <time>2022-07-10T09:40:47Z</time>
      </trkpt>
      <trkpt lat="43.43303" lon="2.23847">
        <ele>836.81835938</ele>
        <time>2022-07-10T09:40:48Z</time>
      </trkpt>
      <trkpt lat="43.43303" lon="2.23855">
        <ele>836.39837646</ele>
        <time>2022-07-10T09:40:49Z</time>
      </trkpt>
      <trkpt lat="43.43305" lon="2.23862">
        <ele>835.72839355</ele>
        <time>2022-07-10T09:40:50Z</time>
      </trkpt>
      <trkpt lat="43.43306" lon="2.2387">
        <ele>835.1383667</ele>
        <time>2022-07-10T09:40:51Z</time>
      </trkpt>
      <trkpt lat="43.43307" lon="2.23878">
        <ele>834.71838379</ele>
        <time>2022-07-10T09:40:52Z</time>
      </trkpt>
      <trkpt lat="43.43307" lon="2.2389">
        <ele>834.44836426</ele>
        <time>2022-07-10T09:40:53Z</time>
      </trkpt>
      <trkpt lat="43.43308" lon="2.23898">
        <ele>833.95837402</ele>
        <time>2022-07-10T09:40:54Z</time>
      </trkpt>
      <trkpt lat="43.4331" lon="2.23906">
        <ele>833.37835693</ele>
        <time>2022-07-10T09:40:55Z</time>
      </trkpt>
      <trkpt lat="43.43311" lon="2.23912">
        <ele>833.00836182</ele>
        <time>2022-07-10T09:40:56Z</time>
      </trkpt>
      <trkpt lat="43.43312" lon="2.23924">
        <ele>832.33837891</ele>
        <time>2022-07-10T09:40:57Z</time>
      </trkpt>
      <trkpt lat="43.43313" lon="2.23931">
        <ele>832.05834961</ele>
        <time>2022-07-10T09:40:58Z</time>
      </trkpt>
      <trkpt lat="43.43315" lon="2.2394">
        <ele>831.61834717</ele>
        <time>2022-07-10T09:40:59Z</time>
      </trkpt>
      <trkpt lat="43.43317" lon="2.23948">
        <ele>830.80834961</ele>
        <time>2022-07-10T09:41:00Z</time>
      </trkpt>
      <trkpt lat="43.43319" lon="2.23956">
        <ele>830.11834717</ele>
        <time>2022-07-10T09:41:01Z</time>
      </trkpt>
      <trkpt lat="43.4332" lon="2.23964">
        <ele>829.74835205</ele>
        <time>2022-07-10T09:41:02Z</time>
      </trkpt>
      <trkpt lat="43.43321" lon="2.23968">
        <ele>829.77838135</ele>
        <time>2022-07-10T09:41:03Z</time>
      </trkpt>
      <trkpt lat="43.43321" lon="2.23971">
        <ele>830.06835938</ele>
        <time>2022-07-10T09:41:04Z</time>
      </trkpt>
      <trkpt lat="43.43321" lon="2.23974">
        <ele>830.51837158</ele>
        <time>2022-07-10T09:41:05Z</time>
      </trkpt>
      <trkpt lat="43.4332" lon="2.23977">
        <ele>830.70837402</ele>
        <time>2022-07-10T09:41:06Z</time>
      </trkpt>
      <trkpt lat="43.43318" lon="2.23979">
        <ele>830.74835205</ele>
        <time>2022-07-10T09:41:07Z</time>
      </trkpt>
      <trkpt lat="43.43316" lon="2.23981">
        <ele>830.66833496</ele>
        <time>2022-07-10T09:41:08Z</time>
      </trkpt>
      <trkpt lat="43.43312" lon="2.23982">
        <ele>830.66833496</ele>
        <time>2022-07-10T09:41:09Z</time>
      </trkpt>
      <trkpt lat="43.43308" lon="2.23984">
        <ele>830.66833496</ele>
        <time>2022-07-10T09:41:10Z</time>
      </trkpt>
      <trkpt lat="43.43304" lon="2.23985">
        <ele>830.71832275</ele>
        <time>2022-07-10T09:41:11Z</time>
      </trkpt>
      <trkpt lat="43.43301" lon="2.23985">
        <ele>830.76831055</ele>
        <time>2022-07-10T09:41:12Z</time>
      </trkpt>
      <trkpt lat="43.43298" lon="2.23985">
        <ele>830.77832031</ele>
        <time>2022-07-10T09:41:13Z</time>
      </trkpt>
      <trkpt lat="43.43296" lon="2.23984">
        <ele>830.84832764</ele>
        <time>2022-07-10T09:41:14Z</time>
      </trkpt>
      <trkpt lat="43.43292" lon="2.23982">
        <ele>830.84832764</ele>
        <time>2022-07-10T09:41:15Z</time>
      </trkpt>
      <trkpt lat="43.4329" lon="2.23981">
        <ele>830.89831543</ele>
        <time>2022-07-10T09:41:16Z</time>
      </trkpt>
      <trkpt lat="43.43289" lon="2.2398">
        <ele>830.88830566</ele>
        <time>2022-07-10T09:41:17Z</time>
      </trkpt>
      <trkpt lat="43.43288" lon="2.23979">
        <ele>830.8782959</ele>
        <time>2022-07-10T09:41:18Z</time>
      </trkpt>
      <trkpt lat="43.43287" lon="2.23981">
        <ele>830.79827881</ele>
        <time>2022-07-10T09:41:19Z</time>
      </trkpt>
      <trkpt lat="43.43287" lon="2.23983">
        <ele>830.75830078</ele>
        <time>2022-07-10T09:41:20Z</time>
      </trkpt>
      <trkpt lat="43.43288" lon="2.23984">
        <ele>830.75830078</ele>
        <time>2022-07-10T09:41:21Z</time>
      </trkpt>
      <trkpt lat="43.43289" lon="2.23986">
        <ele>830.75830078</ele>
        <time>2022-07-10T09:41:22Z</time>
      </trkpt>
      <trkpt lat="43.43291" lon="2.23986">
        <ele>830.82830811</ele>
        <time>2022-07-10T09:41:23Z</time>
      </trkpt>
      <trkpt lat="43.43293" lon="2.23987">
        <ele>830.8583374</ele>
        <time>2022-07-10T09:41:24Z</time>
      </trkpt>
      <trkpt lat="43.43295" lon="2.23988">
        <ele>830.9083252</ele>
        <time>2022-07-10T09:41:25Z</time>
      </trkpt>
      <trkpt lat="43.43297" lon="2.23989">
        <ele>830.94830322</ele>
        <time>2022-07-10T09:41:26Z</time>
      </trkpt>
      <trkpt lat="43.43298" lon="2.2399">
        <ele>831.01831055</ele>
        <time>2022-07-10T09:41:27Z</time>
      </trkpt>
      <trkpt lat="43.43299" lon="2.23992">
        <ele>831.09832764</ele>
        <time>2022-07-10T09:41:28Z</time>
      </trkpt>
      <trkpt lat="43.433" lon="2.23996">
        <ele>831.16833496</ele>
        <time>2022-07-10T09:41:29Z</time>
      </trkpt>
      <trkpt lat="43.43301" lon="2.23999">
        <ele>831.28833008</ele>
        <time>2022-07-10T09:41:30Z</time>
      </trkpt>
      <trkpt lat="43.43301" lon="2.24002">
        <ele>831.47833252</ele>
        <time>2022-07-10T09:41:31Z</time>
      </trkpt>
      <trkpt lat="43.43302" lon="2.24004">
        <ele>831.72833252</ele>
        <time>2022-07-10T09:41:32Z</time>
      </trkpt>
      <trkpt lat="43.43303" lon="2.24008">
        <ele>831.95831299</ele>
        <time>2022-07-10T09:41:33Z</time>
      </trkpt>
      <trkpt lat="43.43303" lon="2.24011">
        <ele>832.22833252</ele>
        <time>2022-07-10T09:41:34Z</time>
      </trkpt>
      <trkpt lat="43.43304" lon="2.24014">
        <ele>832.49835205</ele>
        <time>2022-07-10T09:41:35Z</time>
      </trkpt>
      <trkpt lat="43.43305" lon="2.24016">
        <ele>832.72833252</ele>
        <time>2022-07-10T09:41:36Z</time>
      </trkpt>
      <trkpt lat="43.43305" lon="2.24017">
        <ele>833.00836182</ele>
        <time>2022-07-10T09:41:37Z</time>
      </trkpt>
      <trkpt lat="43.43308" lon="2.24026">
        <ele>833.10839844</ele>
        <time>2022-07-10T09:42:36Z</time>
      </trkpt>
      <trkpt lat="43.43308" lon="2.24028">
        <ele>833.19842529</ele>
        <time>2022-07-10T09:42:37Z</time>
      </trkpt>
      <trkpt lat="43.43308" lon="2.24031">
        <ele>833.37841797</ele>
        <time>2022-07-10T09:42:38Z</time>
      </trkpt>
      <trkpt lat="43.43308" lon="2.24034">
        <ele>833.52844238</ele>
        <time>2022-07-10T09:42:39Z</time>
      </trkpt>
      <trkpt lat="43.43309" lon="2.24038">
        <ele>833.6784668</ele>
        <time>2022-07-10T09:42:40Z</time>
      </trkpt>
      <trkpt lat="43.4331" lon="2.2404">
        <ele>833.94848633</ele>
        <time>2022-07-10T09:42:41Z</time>
      </trkpt>
      <trkpt lat="43.4331" lon="2.24042">
        <ele>834.20849609</ele>
        <time>2022-07-10T09:42:42Z</time>
      </trkpt>
      <trkpt lat="43.43311" lon="2.24044">
        <ele>834.47851562</ele>
        <time>2022-07-10T09:42:43Z</time>
      </trkpt>
      <trkpt lat="43.43311" lon="2.24046">
        <ele>834.83850098</ele>
        <time>2022-07-10T09:42:44Z</time>
      </trkpt>
      <trkpt lat="43.43312" lon="2.24048">
        <ele>835.1585083</ele>
        <time>2022-07-10T09:42:45Z</time>
      </trkpt>
      <trkpt lat="43.43313" lon="2.24049">
        <ele>835.38848877</ele>
        <time>2022-07-10T09:42:46Z</time>
      </trkpt>
      <trkpt lat="43.43313" lon="2.2405">
        <ele>835.6585083</ele>
        <time>2022-07-10T09:42:47Z</time>
      </trkpt>
      <trkpt lat="43.43313" lon="2.24052">
        <ele>835.80853271</ele>
        <time>2022-07-10T09:42:48Z</time>
      </trkpt>
      <trkpt lat="43.43315" lon="2.24055">
        <ele>835.96850586</ele>
        <time>2022-07-10T09:42:49Z</time>
      </trkpt>
      <trkpt lat="43.43315" lon="2.24058">
        <ele>836.22851562</ele>
        <time>2022-07-10T09:42:50Z</time>
      </trkpt>
      <trkpt lat="43.43316" lon="2.24061">
        <ele>836.37854004</ele>
        <time>2022-07-10T09:42:51Z</time>
      </trkpt>
      <trkpt lat="43.43317" lon="2.24065">
        <ele>836.78851318</ele>
        <time>2022-07-10T09:42:52Z</time>
      </trkpt>
      <trkpt lat="43.43317" lon="2.2407">
        <ele>837.01849365</ele>
        <time>2022-07-10T09:42:53Z</time>
      </trkpt>
      <trkpt lat="43.43317" lon="2.24074">
        <ele>837.28851318</ele>
        <time>2022-07-10T09:42:54Z</time>
      </trkpt>
      <trkpt lat="43.43318" lon="2.24076">
        <ele>837.6885376</ele>
        <time>2022-07-10T09:42:55Z</time>
      </trkpt>
      <trkpt lat="43.43319" lon="2.24078">
        <ele>837.87854004</ele>
        <time>2022-07-10T09:42:56Z</time>
      </trkpt>
      <trkpt lat="43.4332" lon="2.2408">
        <ele>838.24853516</ele>
        <time>2022-07-10T09:42:57Z</time>
      </trkpt>
      <trkpt lat="43.43321" lon="2.24084">
        <ele>838.55853271</ele>
        <time>2022-07-10T09:42:58Z</time>
      </trkpt>
      <trkpt lat="43.43322" lon="2.24087">
        <ele>838.79852295</ele>
        <time>2022-07-10T09:42:59Z</time>
      </trkpt>
      <trkpt lat="43.43323" lon="2.2409">
        <ele>839.05853271</ele>
        <time>2022-07-10T09:43:00Z</time>
      </trkpt>
      <trkpt lat="43.43324" lon="2.24093">
        <ele>839.25854492</ele>
        <time>2022-07-10T09:43:01Z</time>
      </trkpt>
      <trkpt lat="43.43324" lon="2.24097">
        <ele>839.41851807</ele>
        <time>2022-07-10T09:43:02Z</time>
      </trkpt>
      <trkpt lat="43.43324" lon="2.24102">
        <ele>839.51849365</ele>
        <time>2022-07-10T09:43:03Z</time>
      </trkpt>
      <trkpt lat="43.43324" lon="2.24105">
        <ele>839.57849121</ele>
        <time>2022-07-10T09:43:04Z</time>
      </trkpt>
      <trkpt lat="43.43324" lon="2.24108">
        <ele>839.68847656</ele>
        <time>2022-07-10T09:43:05Z</time>
      </trkpt>
      <trkpt lat="43.43326" lon="2.2411">
        <ele>839.80847168</ele>
        <time>2022-07-10T09:43:06Z</time>
      </trkpt>
      <trkpt lat="43.43327" lon="2.24112">
        <ele>839.97845459</ele>
        <time>2022-07-10T09:43:07Z</time>
      </trkpt>
      <trkpt lat="43.43329" lon="2.24116">
        <ele>840.29846191</ele>
        <time>2022-07-10T09:43:08Z</time>
      </trkpt>
      <trkpt lat="43.43331" lon="2.24119">
        <ele>840.73846436</ele>
        <time>2022-07-10T09:43:09Z</time>
      </trkpt>
      <trkpt lat="43.43333" lon="2.24123">
        <ele>841.02844238</ele>
        <time>2022-07-10T09:43:10Z</time>
      </trkpt>
      <trkpt lat="43.43334" lon="2.24126">
        <ele>841.19842529</ele>
        <time>2022-07-10T09:43:11Z</time>
      </trkpt>
      <trkpt lat="43.43336" lon="2.2413">
        <ele>841.35839844</ele>
        <time>2022-07-10T09:43:12Z</time>
      </trkpt>
      <trkpt lat="43.43338" lon="2.24133">
        <ele>841.70837402</ele>
        <time>2022-07-10T09:43:13Z</time>
      </trkpt>
      <trkpt lat="43.43339" lon="2.24136">
        <ele>841.8883667</ele>
        <time>2022-07-10T09:43:14Z</time>
      </trkpt>
      <trkpt lat="43.43339" lon="2.2414">
        <ele>842.20837402</ele>
        <time>2022-07-10T09:43:15Z</time>
      </trkpt>
      <trkpt lat="43.4334" lon="2.24143">
        <ele>842.39837646</ele>
        <time>2022-07-10T09:43:16Z</time>
      </trkpt>
      <trkpt lat="43.4334" lon="2.24146">
        <ele>842.53839111</ele>
        <time>2022-07-10T09:43:17Z</time>
      </trkpt>
      <trkpt lat="43.43341" lon="2.24148">
        <ele>842.60839844</ele>
        <time>2022-07-10T09:43:18Z</time>
      </trkpt>
      <trkpt lat="43.43342" lon="2.24151">
        <ele>842.78839111</ele>
        <time>2022-07-10T09:43:19Z</time>
      </trkpt>
      <trkpt lat="43.43342" lon="2.24153">
        <ele>842.918396</ele>
        <time>2022-07-10T09:43:20Z</time>
      </trkpt>
      <trkpt lat="43.43343" lon="2.24159">
        <ele>843.15838623</ele>
        <time>2022-07-10T09:43:21Z</time>
      </trkpt>
      <trkpt lat="43.43344" lon="2.24162">
        <ele>843.418396</ele>
        <time>2022-07-10T09:43:22Z</time>
      </trkpt>
      <trkpt lat="43.43345" lon="2.24164">
        <ele>843.6184082</ele>
        <time>2022-07-10T09:43:23Z</time>
      </trkpt>
      <trkpt lat="43.43346" lon="2.24167">
        <ele>843.85839844</ele>
        <time>2022-07-10T09:43:24Z</time>
      </trkpt>
      <trkpt lat="43.43347" lon="2.2417">
        <ele>844.05841064</ele>
        <time>2022-07-10T09:43:25Z</time>
      </trkpt>
      <trkpt lat="43.43347" lon="2.24174">
        <ele>844.32843018</ele>
        <time>2022-07-10T09:43:26Z</time>
      </trkpt>
      <trkpt lat="43.43348" lon="2.24177">
        <ele>844.55841064</ele>
        <time>2022-07-10T09:43:27Z</time>
      </trkpt>
      <trkpt lat="43.43349" lon="2.24179">
        <ele>844.79840088</ele>
        <time>2022-07-10T09:43:28Z</time>
      </trkpt>
      <trkpt lat="43.43349" lon="2.24183">
        <ele>844.99841309</ele>
        <time>2022-07-10T09:43:29Z</time>
      </trkpt>
      <trkpt lat="43.43351" lon="2.24187">
        <ele>845.13842773</ele>
        <time>2022-07-10T09:43:30Z</time>
      </trkpt>
      <trkpt lat="43.43352" lon="2.24191">
        <ele>845.24841309</ele>
        <time>2022-07-10T09:43:31Z</time>
      </trkpt>
      <trkpt lat="43.43353" lon="2.24195">
        <ele>845.51843262</ele>
        <time>2022-07-10T09:43:32Z</time>
      </trkpt>
      <trkpt lat="43.43354" lon="2.24199">
        <ele>845.69842529</ele>
        <time>2022-07-10T09:43:33Z</time>
      </trkpt>
      <trkpt lat="43.43355" lon="2.24201">
        <ele>845.96844482</ele>
        <time>2022-07-10T09:43:34Z</time>
      </trkpt>
      <trkpt lat="43.43356" lon="2.24206">
        <ele>846.26843262</ele>
        <time>2022-07-10T09:43:35Z</time>
      </trkpt>
      <trkpt lat="43.43357" lon="2.24208">
        <ele>846.43841553</ele>
        <time>2022-07-10T09:43:36Z</time>
      </trkpt>
      <trkpt lat="43.43357" lon="2.24209">
        <ele>846.58843994</ele>
        <time>2022-07-10T09:43:37Z</time>
      </trkpt>
      <trkpt lat="43.43359" lon="2.24211">
        <ele>846.76843262</ele>
        <time>2022-07-10T09:43:38Z</time>
      </trkpt>
      <trkpt lat="43.4336" lon="2.24216">
        <ele>846.8684082</ele>
        <time>2022-07-10T09:43:39Z</time>
      </trkpt>
      <trkpt lat="43.43361" lon="2.24219">
        <ele>846.98840332</ele>
        <time>2022-07-10T09:43:40Z</time>
      </trkpt>
      <trkpt lat="43.43362" lon="2.24223">
        <ele>847.12841797</ele>
        <time>2022-07-10T09:43:41Z</time>
      </trkpt>
      <trkpt lat="43.43362" lon="2.24226">
        <ele>847.23840332</ele>
        <time>2022-07-10T09:43:42Z</time>
      </trkpt>
      <trkpt lat="43.43364" lon="2.2423">
        <ele>847.37841797</ele>
        <time>2022-07-10T09:43:43Z</time>
      </trkpt>
      <trkpt lat="43.43365" lon="2.24233">
        <ele>847.418396</ele>
        <time>2022-07-10T09:43:44Z</time>
      </trkpt>
      <trkpt lat="43.43366" lon="2.24235">
        <ele>847.59838867</ele>
        <time>2022-07-10T09:43:45Z</time>
      </trkpt>
      <trkpt lat="43.43367" lon="2.24238">
        <ele>847.71838379</ele>
        <time>2022-07-10T09:43:46Z</time>
      </trkpt>
      <trkpt lat="43.43367" lon="2.24241">
        <ele>847.87835693</ele>
        <time>2022-07-10T09:43:47Z</time>
      </trkpt>
      <trkpt lat="43.43369" lon="2.24246">
        <ele>848.16833496</ele>
        <time>2022-07-10T09:43:48Z</time>
      </trkpt>
      <trkpt lat="43.4337" lon="2.24248">
        <ele>848.39831543</ele>
        <time>2022-07-10T09:43:49Z</time>
      </trkpt>
      <trkpt lat="43.43371" lon="2.24251">
        <ele>848.68829346</ele>
        <time>2022-07-10T09:43:50Z</time>
      </trkpt>
      <trkpt lat="43.43371" lon="2.24253">
        <ele>848.98828125</ele>
        <time>2022-07-10T09:43:51Z</time>
      </trkpt>
      <trkpt lat="43.4337" lon="2.24255">
        <ele>849.26831055</ele>
        <time>2022-07-10T09:43:52Z</time>
      </trkpt>
      <trkpt lat="43.43369" lon="2.24258">
        <ele>849.41833496</ele>
        <time>2022-07-10T09:43:53Z</time>
      </trkpt>
      <trkpt lat="43.4337" lon="2.24261">
        <ele>849.62835693</ele>
        <time>2022-07-10T09:43:54Z</time>
      </trkpt>
      <trkpt lat="43.43371" lon="2.24263">
        <ele>849.86834717</ele>
        <time>2022-07-10T09:43:55Z</time>
      </trkpt>
      <trkpt lat="43.43371" lon="2.24266">
        <ele>849.99835205</ele>
        <time>2022-07-10T09:43:56Z</time>
      </trkpt>
      <trkpt lat="43.43372" lon="2.24269">
        <ele>850.28833008</ele>
        <time>2022-07-10T09:43:57Z</time>
      </trkpt>
      <trkpt lat="43.43371" lon="2.24271">
        <ele>850.52832031</ele>
        <time>2022-07-10T09:43:58Z</time>
      </trkpt>
      <trkpt lat="43.43371" lon="2.24273">
        <ele>850.72833252</ele>
        <time>2022-07-10T09:43:59Z</time>
      </trkpt>
      <trkpt lat="43.43372" lon="2.24275">
        <ele>850.98834229</ele>
        <time>2022-07-10T09:44:00Z</time>
      </trkpt>
      <trkpt lat="43.43372" lon="2.24277">
        <ele>851.18835449</ele>
        <time>2022-07-10T09:44:01Z</time>
      </trkpt>
      <trkpt lat="43.43372" lon="2.24282">
        <ele>851.36834717</ele>
        <time>2022-07-10T09:44:02Z</time>
      </trkpt>
      <trkpt lat="43.43372" lon="2.24285">
        <ele>851.48834229</ele>
        <time>2022-07-10T09:44:03Z</time>
      </trkpt>
      <trkpt lat="43.43372" lon="2.24288">
        <ele>851.58831787</ele>
        <time>2022-07-10T09:44:04Z</time>
      </trkpt>
      <trkpt lat="43.43373" lon="2.24291">
        <ele>851.71832275</ele>
        <time>2022-07-10T09:44:05Z</time>
      </trkpt>
      <trkpt lat="43.43372" lon="2.24293">
        <ele>851.80834961</ele>
        <time>2022-07-10T09:44:06Z</time>
      </trkpt>
      <trkpt lat="43.43372" lon="2.24297">
        <ele>851.93835449</ele>
        <time>2022-07-10T09:44:07Z</time>
      </trkpt>
      <trkpt lat="43.43373" lon="2.24299">
        <ele>852.08837891</ele>
        <time>2022-07-10T09:44:08Z</time>
      </trkpt>
      <trkpt lat="43.43373" lon="2.24301">
        <ele>852.79840088</ele>
        <time>2022-07-10T09:44:09Z</time>
      </trkpt>
      <trkpt lat="43.43374" lon="2.24304">
        <ele>852.95837402</ele>
        <time>2022-07-10T09:44:10Z</time>
      </trkpt>
      <trkpt lat="43.43375" lon="2.24309">
        <ele>853.00836182</ele>
        <time>2022-07-10T09:44:11Z</time>
      </trkpt>
      <trkpt lat="43.43375" lon="2.24311">
        <ele>853.18835449</ele>
        <time>2022-07-10T09:44:12Z</time>
      </trkpt>
      <trkpt lat="43.43375" lon="2.24314">
        <ele>853.33837891</ele>
        <time>2022-07-10T09:44:13Z</time>
      </trkpt>
      <trkpt lat="43.43375" lon="2.24316">
        <ele>853.55834961</ele>
        <time>2022-07-10T09:44:14Z</time>
      </trkpt>
      <trkpt lat="43.43374" lon="2.24321">
        <ele>853.9083252</ele>
        <time>2022-07-10T09:44:15Z</time>
      </trkpt>
      <trkpt lat="43.43374" lon="2.24324">
        <ele>854.19830322</ele>
        <time>2022-07-10T09:44:16Z</time>
      </trkpt>
      <trkpt lat="43.43373" lon="2.24328">
        <ele>854.48828125</ele>
        <time>2022-07-10T09:44:17Z</time>
      </trkpt>
      <trkpt lat="43.43373" lon="2.24332">
        <ele>854.72827148</ele>
        <time>2022-07-10T09:44:18Z</time>
      </trkpt>
      <trkpt lat="43.43373" lon="2.24338">
        <ele>854.98828125</ele>
        <time>2022-07-10T09:44:19Z</time>
      </trkpt>
      <trkpt lat="43.43373" lon="2.24341">
        <ele>855.22827148</ele>
        <time>2022-07-10T09:44:20Z</time>
      </trkpt>
      <trkpt lat="43.43374" lon="2.24345">
        <ele>855.45825195</ele>
        <time>2022-07-10T09:44:21Z</time>
      </trkpt>
      <trkpt lat="43.43374" lon="2.24348">
        <ele>855.66827393</ele>
        <time>2022-07-10T09:44:22Z</time>
      </trkpt>
      <trkpt lat="43.43375" lon="2.24352">
        <ele>855.91827393</ele>
        <time>2022-07-10T09:44:23Z</time>
      </trkpt>
      <trkpt lat="43.43375" lon="2.24356">
        <ele>856.17828369</ele>
        <time>2022-07-10T09:44:24Z</time>
      </trkpt>
      <trkpt lat="43.43375" lon="2.2436">
        <ele>856.45831299</ele>
        <time>2022-07-10T09:44:25Z</time>
      </trkpt>
      <trkpt lat="43.43374" lon="2.24363">
        <ele>856.82830811</ele>
        <time>2022-07-10T09:44:26Z</time>
      </trkpt>
      <trkpt lat="43.43374" lon="2.24366">
        <ele>857.02832031</ele>
        <time>2022-07-10T09:44:27Z</time>
      </trkpt>
      <trkpt lat="43.43374" lon="2.24371">
        <ele>857.22833252</ele>
        <time>2022-07-10T09:44:28Z</time>
      </trkpt>
      <trkpt lat="43.43373" lon="2.24374">
        <ele>857.48834229</ele>
        <time>2022-07-10T09:44:29Z</time>
      </trkpt>
      <trkpt lat="43.43373" lon="2.24378">
        <ele>857.66833496</ele>
        <time>2022-07-10T09:44:30Z</time>
      </trkpt>
      <trkpt lat="43.43373" lon="2.24382">
        <ele>857.87835693</ele>
        <time>2022-07-10T09:44:31Z</time>
      </trkpt>
      <trkpt lat="43.43373" lon="2.24385">
        <ele>858.02838135</ele>
        <time>2022-07-10T09:44:32Z</time>
      </trkpt>
      <trkpt lat="43.43373" lon="2.2439">
        <ele>858.15838623</ele>
        <time>2022-07-10T09:44:33Z</time>
      </trkpt>
      <trkpt lat="43.43373" lon="2.24393">
        <ele>858.24841309</ele>
        <time>2022-07-10T09:44:34Z</time>
      </trkpt>
      <trkpt lat="43.43372" lon="2.24397">
        <ele>858.35839844</ele>
        <time>2022-07-10T09:44:35Z</time>
      </trkpt>
      <trkpt lat="43.43372" lon="2.24401">
        <ele>858.46838379</ele>
        <time>2022-07-10T09:44:36Z</time>
      </trkpt>
      <trkpt lat="43.43372" lon="2.24404">
        <ele>858.54840088</ele>
        <time>2022-07-10T09:44:37Z</time>
      </trkpt>
      <trkpt lat="43.43372" lon="2.24409">
        <ele>858.70837402</ele>
        <time>2022-07-10T09:44:38Z</time>
      </trkpt>
      <trkpt lat="43.43373" lon="2.24412">
        <ele>858.75836182</ele>
        <time>2022-07-10T09:44:39Z</time>
      </trkpt>
      <trkpt lat="43.43374" lon="2.24415">
        <ele>858.93835449</ele>
        <time>2022-07-10T09:44:40Z</time>
      </trkpt>
      <trkpt lat="43.43375" lon="2.24418">
        <ele>859.1083374</ele>
        <time>2022-07-10T09:44:41Z</time>
      </trkpt>
      <trkpt lat="43.43377" lon="2.24421">
        <ele>859.27832031</ele>
        <time>2022-07-10T09:44:42Z</time>
      </trkpt>
      <trkpt lat="43.43378" lon="2.24424">
        <ele>859.54833984</ele>
        <time>2022-07-10T09:44:43Z</time>
      </trkpt>
      <trkpt lat="43.43379" lon="2.24426">
        <ele>859.73834229</ele>
        <time>2022-07-10T09:44:44Z</time>
      </trkpt>
      <trkpt lat="43.4338" lon="2.24429">
        <ele>859.87835693</ele>
        <time>2022-07-10T09:44:45Z</time>
      </trkpt>
      <trkpt lat="43.4338" lon="2.24432">
        <ele>860.03833008</ele>
        <time>2022-07-10T09:44:46Z</time>
      </trkpt>
      <trkpt lat="43.43382" lon="2.24436">
        <ele>860.27832031</ele>
        <time>2022-07-10T09:44:47Z</time>
      </trkpt>
      <trkpt lat="43.43382" lon="2.24438">
        <ele>860.54833984</ele>
        <time>2022-07-10T09:44:48Z</time>
      </trkpt>
      <trkpt lat="43.43383" lon="2.24441">
        <ele>861.6583252</ele>
        <time>2022-07-10T09:44:49Z</time>
      </trkpt>
      <trkpt lat="43.43383" lon="2.24444">
        <ele>863.09832764</ele>
        <time>2022-07-10T09:44:50Z</time>
      </trkpt>
      <trkpt lat="43.43384" lon="2.24449">
        <ele>864.1583252</ele>
        <time>2022-07-10T09:44:51Z</time>
      </trkpt>
      <trkpt lat="43.43384" lon="2.24451">
        <ele>866.08831787</ele>
        <time>2022-07-10T09:44:52Z</time>
      </trkpt>
      <trkpt lat="43.43385" lon="2.24454">
        <ele>866.53833008</ele>
        <time>2022-07-10T09:44:53Z</time>
      </trkpt>
      <trkpt lat="43.43385" lon="2.24458">
        <ele>866.38830566</ele>
        <time>2022-07-10T09:44:54Z</time>
      </trkpt>
      <trkpt lat="43.43386" lon="2.2446">
        <ele>866.41833496</ele>
        <time>2022-07-10T09:44:55Z</time>
      </trkpt>
      <trkpt lat="43.43386" lon="2.24465">
        <ele>864.86834717</ele>
        <time>2022-07-10T09:44:56Z</time>
      </trkpt>
      <trkpt lat="43.43387" lon="2.24468">
        <ele>863.81835938</ele>
        <time>2022-07-10T09:44:57Z</time>
      </trkpt>
      <trkpt lat="43.43388" lon="2.24471">
        <ele>862.95837402</ele>
        <time>2022-07-10T09:44:58Z</time>
      </trkpt>
      <trkpt lat="43.43389" lon="2.24474">
        <ele>862.20837402</ele>
        <time>2022-07-10T09:44:59Z</time>
      </trkpt>
      <trkpt lat="43.4339" lon="2.24479">
        <ele>862.11834717</ele>
        <time>2022-07-10T09:45:00Z</time>
      </trkpt>
      <trkpt lat="43.43391" lon="2.24482">
        <ele>862.21832275</ele>
        <time>2022-07-10T09:45:01Z</time>
      </trkpt>
      <trkpt lat="43.43392" lon="2.24485">
        <ele>862.31829834</ele>
        <time>2022-07-10T09:45:02Z</time>
      </trkpt>
      <trkpt lat="43.43393" lon="2.24489">
        <ele>862.46832275</ele>
        <time>2022-07-10T09:45:03Z</time>
      </trkpt>
      <trkpt lat="43.43395" lon="2.24493">
        <ele>862.63830566</ele>
        <time>2022-07-10T09:45:04Z</time>
      </trkpt>
      <trkpt lat="43.43396" lon="2.24496">
        <ele>862.70831299</ele>
        <time>2022-07-10T09:45:05Z</time>
      </trkpt>
      <trkpt lat="43.43397" lon="2.24499">
        <ele>862.72833252</ele>
        <time>2022-07-10T09:45:06Z</time>
      </trkpt>
      <trkpt lat="43.43398" lon="2.24502">
        <ele>862.77832031</ele>
        <time>2022-07-10T09:45:07Z</time>
      </trkpt>
      <trkpt lat="43.43399" lon="2.24505">
        <ele>862.80834961</ele>
        <time>2022-07-10T09:45:08Z</time>
      </trkpt>
      <trkpt lat="43.43401" lon="2.24509">
        <ele>862.9083252</ele>
        <time>2022-07-10T09:45:09Z</time>
      </trkpt>
      <trkpt lat="43.43402" lon="2.24512">
        <ele>863.19830322</ele>
        <time>2022-07-10T09:45:10Z</time>
      </trkpt>
      <trkpt lat="43.43403" lon="2.24515">
        <ele>863.3782959</ele>
        <time>2022-07-10T09:45:11Z</time>
      </trkpt>
      <trkpt lat="43.43405" lon="2.24517">
        <ele>863.50830078</ele>
        <time>2022-07-10T09:45:12Z</time>
      </trkpt>
      <trkpt lat="43.43406" lon="2.2452">
        <ele>863.6282959</ele>
        <time>2022-07-10T09:45:13Z</time>
      </trkpt>
      <trkpt lat="43.43408" lon="2.24524">
        <ele>863.67828369</ele>
        <time>2022-07-10T09:45:14Z</time>
      </trkpt>
      <trkpt lat="43.43409" lon="2.24527">
        <ele>863.75830078</ele>
        <time>2022-07-10T09:45:15Z</time>
      </trkpt>
      <trkpt lat="43.4341" lon="2.24529">
        <ele>863.88830566</ele>
        <time>2022-07-10T09:45:16Z</time>
      </trkpt>
      <trkpt lat="43.43411" lon="2.24532">
        <ele>863.97833252</ele>
        <time>2022-07-10T09:45:17Z</time>
      </trkpt>
      <trkpt lat="43.43413" lon="2.24537">
        <ele>864.13830566</ele>
        <time>2022-07-10T09:45:18Z</time>
      </trkpt>
      <trkpt lat="43.43414" lon="2.2454">
        <ele>864.25830078</ele>
        <time>2022-07-10T09:45:19Z</time>
      </trkpt>
      <trkpt lat="43.43415" lon="2.24543">
        <ele>864.4083252</ele>
        <time>2022-07-10T09:45:20Z</time>
      </trkpt>
      <trkpt lat="43.43416" lon="2.24546">
        <ele>864.6083374</ele>
        <time>2022-07-10T09:45:21Z</time>
      </trkpt>
      <trkpt lat="43.43417" lon="2.24549">
        <ele>864.69836426</ele>
        <time>2022-07-10T09:45:22Z</time>
      </trkpt>
      <trkpt lat="43.43418" lon="2.24553">
        <ele>864.84838867</ele>
        <time>2022-07-10T09:45:23Z</time>
      </trkpt>
      <trkpt lat="43.43419" lon="2.24556">
        <ele>865.08837891</ele>
        <time>2022-07-10T09:45:24Z</time>
      </trkpt>
      <trkpt lat="43.43421" lon="2.2456">
        <ele>865.37835693</ele>
        <time>2022-07-10T09:45:25Z</time>
      </trkpt>
      <trkpt lat="43.43422" lon="2.24563">
        <ele>865.61834717</ele>
        <time>2022-07-10T09:45:26Z</time>
      </trkpt>
      <trkpt lat="43.43424" lon="2.24567">
        <ele>865.81835938</ele>
        <time>2022-07-10T09:45:27Z</time>
      </trkpt>
      <trkpt lat="43.43425" lon="2.2457">
        <ele>865.96838379</ele>
        <time>2022-07-10T09:45:28Z</time>
      </trkpt>
      <trkpt lat="43.43426" lon="2.24573">
        <ele>866.02838135</ele>
        <time>2022-07-10T09:45:29Z</time>
      </trkpt>
      <trkpt lat="43.43427" lon="2.24576">
        <ele>866.14837646</ele>
        <time>2022-07-10T09:45:30Z</time>
      </trkpt>
      <trkpt lat="43.43428" lon="2.24579">
        <ele>866.27838135</ele>
        <time>2022-07-10T09:45:31Z</time>
      </trkpt>
      <trkpt lat="43.4343" lon="2.24583">
        <ele>866.39837646</ele>
        <time>2022-07-10T09:45:32Z</time>
      </trkpt>
      <trkpt lat="43.43431" lon="2.24586">
        <ele>866.43835449</ele>
        <time>2022-07-10T09:45:33Z</time>
      </trkpt>
      <trkpt lat="43.43432" lon="2.24589">
        <ele>866.47833252</ele>
        <time>2022-07-10T09:45:34Z</time>
      </trkpt>
      <trkpt lat="43.43434" lon="2.24592">
        <ele>866.53833008</ele>
        <time>2022-07-10T09:45:35Z</time>
      </trkpt>
      <trkpt lat="43.43435" lon="2.24595">
        <ele>866.59832764</ele>
        <time>2022-07-10T09:45:36Z</time>
      </trkpt>
      <trkpt lat="43.43436" lon="2.24599">
        <ele>866.75830078</ele>
        <time>2022-07-10T09:45:37Z</time>
      </trkpt>
      <trkpt lat="43.43438" lon="2.24602">
        <ele>866.9083252</ele>
        <time>2022-07-10T09:45:38Z</time>
      </trkpt>
      <trkpt lat="43.43439" lon="2.24605">
        <ele>867.04833984</ele>
        <time>2022-07-10T09:45:39Z</time>
      </trkpt>
      <trkpt lat="43.4344" lon="2.24608">
        <ele>867.02832031</ele>
        <time>2022-07-10T09:45:40Z</time>
      </trkpt>
      <trkpt lat="43.43442" lon="2.24613">
        <ele>866.96832275</ele>
        <time>2022-07-10T09:45:41Z</time>
      </trkpt>
      <trkpt lat="43.43444" lon="2.24615">
        <ele>867.05834961</ele>
        <time>2022-07-10T09:45:42Z</time>
      </trkpt>
      <trkpt lat="43.43445" lon="2.24618">
        <ele>867.08837891</ele>
        <time>2022-07-10T09:45:43Z</time>
      </trkpt>
      <trkpt lat="43.43447" lon="2.24621">
        <ele>867.28839111</ele>
        <time>2022-07-10T09:45:44Z</time>
      </trkpt>
      <trkpt lat="43.43449" lon="2.24625">
        <ele>867.59838867</ele>
        <time>2022-07-10T09:45:45Z</time>
      </trkpt>
      <trkpt lat="43.43451" lon="2.24628">
        <ele>867.72839355</ele>
        <time>2022-07-10T09:45:46Z</time>
      </trkpt>
      <trkpt lat="43.43452" lon="2.2463">
        <ele>867.92840576</ele>
        <time>2022-07-10T09:45:47Z</time>
      </trkpt>
      <trkpt lat="43.43454" lon="2.24633">
        <ele>868.08837891</ele>
        <time>2022-07-10T09:45:48Z</time>
      </trkpt>
      <trkpt lat="43.43455" lon="2.24636">
        <ele>868.09838867</ele>
        <time>2022-07-10T09:45:49Z</time>
      </trkpt>
      <trkpt lat="43.43458" lon="2.2464">
        <ele>868.1383667</ele>
        <time>2022-07-10T09:45:50Z</time>
      </trkpt>
      <trkpt lat="43.43459" lon="2.24643">
        <ele>868.18835449</ele>
        <time>2022-07-10T09:45:51Z</time>
      </trkpt>
      <trkpt lat="43.43461" lon="2.24646">
        <ele>868.28833008</ele>
        <time>2022-07-10T09:45:52Z</time>
      </trkpt>
      <trkpt lat="43.43462" lon="2.24648">
        <ele>868.41833496</ele>
        <time>2022-07-10T09:45:53Z</time>
      </trkpt>
      <trkpt lat="43.43464" lon="2.24652">
        <ele>868.58831787</ele>
        <time>2022-07-10T09:45:54Z</time>
      </trkpt>
      <trkpt lat="43.43466" lon="2.24655">
        <ele>868.63830566</ele>
        <time>2022-07-10T09:45:55Z</time>
      </trkpt>
      <trkpt lat="43.43467" lon="2.24657">
        <ele>868.63830566</ele>
        <time>2022-07-10T09:45:56Z</time>
      </trkpt>
      <trkpt lat="43.43468" lon="2.2466">
        <ele>868.67828369</ele>
        <time>2022-07-10T09:45:57Z</time>
      </trkpt>
      <trkpt lat="43.4347" lon="2.24663">
        <ele>868.63830566</ele>
        <time>2022-07-10T09:45:58Z</time>
      </trkpt>
      <trkpt lat="43.43472" lon="2.24666">
        <ele>868.73828125</ele>
        <time>2022-07-10T09:45:59Z</time>
      </trkpt>
      <trkpt lat="43.43473" lon="2.24669">
        <ele>868.89825439</ele>
        <time>2022-07-10T09:46:00Z</time>
      </trkpt>
      <trkpt lat="43.43474" lon="2.24671">
        <ele>868.99822998</ele>
        <time>2022-07-10T09:46:01Z</time>
      </trkpt>
      <trkpt lat="43.43475" lon="2.24674">
        <ele>869.07824707</ele>
        <time>2022-07-10T09:46:02Z</time>
      </trkpt>
      <trkpt lat="43.43476" lon="2.24679">
        <ele>869.12823486</ele>
        <time>2022-07-10T09:46:03Z</time>
      </trkpt>
      <trkpt lat="43.43475" lon="2.24681">
        <ele>869.1182251</ele>
        <time>2022-07-10T09:46:04Z</time>
      </trkpt>
      <trkpt lat="43.43474" lon="2.24684">
        <ele>869.0682373</ele>
        <time>2022-07-10T09:46:05Z</time>
      </trkpt>
      <trkpt lat="43.43472" lon="2.24686">
        <ele>869.0682373</ele>
        <time>2022-07-10T09:46:06Z</time>
      </trkpt>
      <trkpt lat="43.4347" lon="2.24686">
        <ele>868.97821045</ele>
        <time>2022-07-10T09:46:07Z</time>
      </trkpt>
      <trkpt lat="43.43467" lon="2.24686">
        <ele>868.84820557</ele>
        <time>2022-07-10T09:46:08Z</time>
      </trkpt>
      <trkpt lat="43.43464" lon="2.24685">
        <ele>868.69818115</ele>
        <time>2022-07-10T09:46:09Z</time>
      </trkpt>
      <trkpt lat="43.43461" lon="2.24683">
        <ele>868.37817383</ele>
        <time>2022-07-10T09:46:10Z</time>
      </trkpt>
      <trkpt lat="43.43458" lon="2.24681">
        <ele>868.00817871</ele>
        <time>2022-07-10T09:46:11Z</time>
      </trkpt>
      <trkpt lat="43.43452" lon="2.24676">
        <ele>867.49816895</ele>
        <time>2022-07-10T09:46:12Z</time>
      </trkpt>
      <trkpt lat="43.43447" lon="2.24673">
        <ele>866.95819092</ele>
        <time>2022-07-10T09:46:13Z</time>
      </trkpt>
      <trkpt lat="43.43443" lon="2.2467">
        <ele>866.51818848</ele>
        <time>2022-07-10T09:46:14Z</time>
      </trkpt>
      <trkpt lat="43.43438" lon="2.24666">
        <ele>866.15820312</ele>
        <time>2022-07-10T09:46:15Z</time>
      </trkpt>
      <trkpt lat="43.43433" lon="2.24662">
        <ele>865.77819824</ele>
        <time>2022-07-10T09:46:16Z</time>
      </trkpt>
      <trkpt lat="43.43425" lon="2.24657">
        <ele>865.43817139</ele>
        <time>2022-07-10T09:46:17Z</time>
      </trkpt>
      <trkpt lat="43.4342" lon="2.24654">
        <ele>864.91815186</ele>
        <time>2022-07-10T09:46:18Z</time>
      </trkpt>
      <trkpt lat="43.43414" lon="2.24652">
        <ele>864.43817139</ele>
        <time>2022-07-10T09:46:19Z</time>
      </trkpt>
      <trkpt lat="43.43408" lon="2.24649">
        <ele>864.04815674</ele>
        <time>2022-07-10T09:46:20Z</time>
      </trkpt>
      <trkpt lat="43.43398" lon="2.24647">
        <ele>863.73815918</ele>
        <time>2022-07-10T09:46:21Z</time>
      </trkpt>
      <trkpt lat="43.43392" lon="2.24646">
        <ele>863.61816406</ele>
        <time>2022-07-10T09:46:22Z</time>
      </trkpt>
      <trkpt lat="43.43386" lon="2.24645">
        <ele>863.42816162</ele>
        <time>2022-07-10T09:46:23Z</time>
      </trkpt>
      <trkpt lat="43.43379" lon="2.24644">
        <ele>863.21813965</ele>
        <time>2022-07-10T09:46:24Z</time>
      </trkpt>
      <trkpt lat="43.43373" lon="2.24643">
        <ele>862.97814941</ele>
        <time>2022-07-10T09:46:25Z</time>
      </trkpt>
      <trkpt lat="43.43364" lon="2.24642">
        <ele>862.76812744</ele>
        <time>2022-07-10T09:46:26Z</time>
      </trkpt>
      <trkpt lat="43.43358" lon="2.24642">
        <ele>862.65814209</ele>
        <time>2022-07-10T09:46:27Z</time>
      </trkpt>
      <trkpt lat="43.43353" lon="2.24641">
        <ele>862.69812012</ele>
        <time>2022-07-10T09:46:28Z</time>
      </trkpt>
      <trkpt lat="43.43347" lon="2.2464">
        <ele>862.76812744</ele>
        <time>2022-07-10T09:46:29Z</time>
      </trkpt>
      <trkpt lat="43.43339" lon="2.24639">
        <ele>862.83813477</ele>
        <time>2022-07-10T09:46:30Z</time>
      </trkpt>
      <trkpt lat="43.43334" lon="2.24638">
        <ele>862.81811523</ele>
        <time>2022-07-10T09:46:31Z</time>
      </trkpt>
      <trkpt lat="43.43329" lon="2.24638">
        <ele>862.68811035</ele>
        <time>2022-07-10T09:46:32Z</time>
      </trkpt>
      <trkpt lat="43.43323" lon="2.24637">
        <ele>862.62811279</ele>
        <time>2022-07-10T09:46:33Z</time>
      </trkpt>
      <trkpt lat="43.43319" lon="2.24636">
        <ele>862.56811523</ele>
        <time>2022-07-10T09:46:34Z</time>
      </trkpt>
      <trkpt lat="43.43312" lon="2.24634">
        <ele>862.56811523</ele>
        <time>2022-07-10T09:46:35Z</time>
      </trkpt>
      <trkpt lat="43.43307" lon="2.24634">
        <ele>862.65814209</ele>
        <time>2022-07-10T09:46:36Z</time>
      </trkpt>
      <trkpt lat="43.43303" lon="2.24633">
        <ele>862.63812256</ele>
        <time>2022-07-10T09:46:37Z</time>
      </trkpt>
      <trkpt lat="43.43298" lon="2.24632">
        <ele>862.67810059</ele>
        <time>2022-07-10T09:46:38Z</time>
      </trkpt>
      <trkpt lat="43.43291" lon="2.24631">
        <ele>862.75811768</ele>
        <time>2022-07-10T09:46:39Z</time>
      </trkpt>
      <trkpt lat="43.43287" lon="2.2463">
        <ele>862.80810547</ele>
        <time>2022-07-10T09:46:40Z</time>
      </trkpt>
      <trkpt lat="43.43283" lon="2.24629">
        <ele>862.92810059</ele>
        <time>2022-07-10T09:46:41Z</time>
      </trkpt>
      <trkpt lat="43.43279" lon="2.24629">
        <ele>863.15808105</ele>
        <time>2022-07-10T09:46:42Z</time>
      </trkpt>
      <trkpt lat="43.43274" lon="2.24628">
        <ele>864.96807861</ele>
        <time>2022-07-10T09:46:43Z</time>
      </trkpt>
      <trkpt lat="43.4327" lon="2.24626">
        <ele>865.91809082</ele>
        <time>2022-07-10T09:46:44Z</time>
      </trkpt>
      <trkpt lat="43.43267" lon="2.24626">
        <ele>866.27807617</ele>
        <time>2022-07-10T09:46:45Z</time>
      </trkpt>
      <trkpt lat="43.43263" lon="2.24625">
        <ele>866.3180542</ele>
        <time>2022-07-10T09:46:46Z</time>
      </trkpt>
      <trkpt lat="43.43259" lon="2.24624">
        <ele>864.8180542</ele>
        <time>2022-07-10T09:46:47Z</time>
      </trkpt>
      <trkpt lat="43.43254" lon="2.24624">
        <ele>864.14807129</ele>
        <time>2022-07-10T09:46:48Z</time>
      </trkpt>
      <trkpt lat="43.4325" lon="2.24623">
        <ele>864.11804199</ele>
        <time>2022-07-10T09:46:49Z</time>
      </trkpt>
      <trkpt lat="43.43246" lon="2.24623">
        <ele>864.24804688</ele>
        <time>2022-07-10T09:46:50Z</time>
      </trkpt>
      <trkpt lat="43.43243" lon="2.24622">
        <ele>864.27807617</ele>
        <time>2022-07-10T09:46:51Z</time>
      </trkpt>
      <trkpt lat="43.43239" lon="2.24622">
        <ele>864.44805908</ele>
        <time>2022-07-10T09:46:52Z</time>
      </trkpt>
      <trkpt lat="43.43233" lon="2.2462">
        <ele>864.47808838</ele>
        <time>2022-07-10T09:46:53Z</time>
      </trkpt>
      <trkpt lat="43.4323" lon="2.2462">
        <ele>864.5480957</ele>
        <time>2022-07-10T09:46:54Z</time>
      </trkpt>
      <trkpt lat="43.43226" lon="2.24619">
        <ele>864.67810059</ele>
        <time>2022-07-10T09:46:55Z</time>
      </trkpt>
      <trkpt lat="43.43223" lon="2.24619">
        <ele>864.68811035</ele>
        <time>2022-07-10T09:46:56Z</time>
      </trkpt>
      <trkpt lat="43.43217" lon="2.24618">
        <ele>864.78808594</ele>
        <time>2022-07-10T09:46:57Z</time>
      </trkpt>
      <trkpt lat="43.43214" lon="2.24618">
        <ele>864.87811279</ele>
        <time>2022-07-10T09:46:58Z</time>
      </trkpt>
      <trkpt lat="43.4321" lon="2.24617">
        <ele>864.97808838</ele>
        <time>2022-07-10T09:46:59Z</time>
      </trkpt>
      <trkpt lat="43.43207" lon="2.24617">
        <ele>865.17810059</ele>
        <time>2022-07-10T09:47:00Z</time>
      </trkpt>
      <trkpt lat="43.43204" lon="2.24617">
        <ele>865.39807129</ele>
        <time>2022-07-10T09:47:01Z</time>
      </trkpt>
      <trkpt lat="43.43199" lon="2.24617">
        <ele>865.61804199</ele>
        <time>2022-07-10T09:47:02Z</time>
      </trkpt>
      <trkpt lat="43.43196" lon="2.24616">
        <ele>865.86804199</ele>
        <time>2022-07-10T09:47:03Z</time>
      </trkpt>
      <trkpt lat="43.43193" lon="2.24616">
        <ele>866.09802246</ele>
        <time>2022-07-10T09:47:04Z</time>
      </trkpt>
      <trkpt lat="43.4319" lon="2.24616">
        <ele>866.3380127</ele>
        <time>2022-07-10T09:47:05Z</time>
      </trkpt>
      <trkpt lat="43.43187" lon="2.24616">
        <ele>866.56799316</ele>
        <time>2022-07-10T09:47:06Z</time>
      </trkpt>
      <trkpt lat="43.43182" lon="2.24616">
        <ele>866.79797363</ele>
        <time>2022-07-10T09:47:07Z</time>
      </trkpt>
      <trkpt lat="43.4318" lon="2.24617">
        <ele>867.01794434</ele>
        <time>2022-07-10T09:47:08Z</time>
      </trkpt>
      <trkpt lat="43.43177" lon="2.24617">
        <ele>867.28796387</ele>
        <time>2022-07-10T09:47:09Z</time>
      </trkpt>
      <trkpt lat="43.43174" lon="2.24617">
        <ele>867.5279541</ele>
        <time>2022-07-10T09:47:10Z</time>
      </trkpt>
      <trkpt lat="43.4317" lon="2.24618">
        <ele>867.73797607</ele>
        <time>2022-07-10T09:47:11Z</time>
      </trkpt>
      <trkpt lat="43.43168" lon="2.24618">
        <ele>867.88800049</ele>
        <time>2022-07-10T09:47:12Z</time>
      </trkpt>
      <trkpt lat="43.43165" lon="2.24618">
        <ele>867.98797607</ele>
        <time>2022-07-10T09:47:13Z</time>
      </trkpt>
      <trkpt lat="43.43163" lon="2.24619">
        <ele>868.15795898</ele>
        <time>2022-07-10T09:47:14Z</time>
      </trkpt>
      <trkpt lat="43.43159" lon="2.24619">
        <ele>868.36798096</ele>
        <time>2022-07-10T09:47:15Z</time>
      </trkpt>
      <trkpt lat="43.43156" lon="2.24619">
        <ele>868.64801025</ele>
        <time>2022-07-10T09:47:16Z</time>
      </trkpt>
      <trkpt lat="43.43153" lon="2.24619">
        <ele>868.8079834</ele>
        <time>2022-07-10T09:47:17Z</time>
      </trkpt>
      <trkpt lat="43.4315" lon="2.24619">
        <ele>869.03796387</ele>
        <time>2022-07-10T09:47:18Z</time>
      </trkpt>
      <trkpt lat="43.43147" lon="2.24619">
        <ele>869.15795898</ele>
        <time>2022-07-10T09:47:19Z</time>
      </trkpt>
      <trkpt lat="43.43143" lon="2.24619">
        <ele>869.34796143</ele>
        <time>2022-07-10T09:47:20Z</time>
      </trkpt>
      <trkpt lat="43.43141" lon="2.24619">
        <ele>869.65795898</ele>
        <time>2022-07-10T09:47:21Z</time>
      </trkpt>
      <trkpt lat="43.43138" lon="2.24619">
        <ele>869.90795898</ele>
        <time>2022-07-10T09:47:22Z</time>
      </trkpt>
      <trkpt lat="43.43135" lon="2.24619">
        <ele>870.21795654</ele>
        <time>2022-07-10T09:47:23Z</time>
      </trkpt>
      <trkpt lat="43.43131" lon="2.24618">
        <ele>870.47796631</ele>
        <time>2022-07-10T09:47:24Z</time>
      </trkpt>
      <trkpt lat="43.43128" lon="2.24618">
        <ele>870.75799561</ele>
        <time>2022-07-10T09:47:25Z</time>
      </trkpt>
      <trkpt lat="43.43125" lon="2.24617">
        <ele>871.00799561</ele>
        <time>2022-07-10T09:47:26Z</time>
      </trkpt>
      <trkpt lat="43.43123" lon="2.24617">
        <ele>871.26800537</ele>
        <time>2022-07-10T09:47:27Z</time>
      </trkpt>
      <trkpt lat="43.4312" lon="2.24617">
        <ele>871.47802734</ele>
        <time>2022-07-10T09:47:28Z</time>
      </trkpt>
      <trkpt lat="43.43115" lon="2.24615">
        <ele>871.68804932</ele>
        <time>2022-07-10T09:47:29Z</time>
      </trkpt>
      <trkpt lat="43.43113" lon="2.24615">
        <ele>871.86804199</ele>
        <time>2022-07-10T09:47:30Z</time>
      </trkpt>
      <trkpt lat="43.4311" lon="2.24614">
        <ele>872.05804443</ele>
        <time>2022-07-10T09:47:31Z</time>
      </trkpt>
      <trkpt lat="43.43107" lon="2.24613">
        <ele>872.25805664</ele>
        <time>2022-07-10T09:47:32Z</time>
      </trkpt>
      <trkpt lat="43.43103" lon="2.24611">
        <ele>872.45806885</ele>
        <time>2022-07-10T09:47:33Z</time>
      </trkpt>
      <trkpt lat="43.431" lon="2.2461">
        <ele>872.66809082</ele>
        <time>2022-07-10T09:47:34Z</time>
      </trkpt>
      <trkpt lat="43.43097" lon="2.24609">
        <ele>872.83807373</ele>
        <time>2022-07-10T09:47:35Z</time>
      </trkpt>
      <trkpt lat="43.43095" lon="2.24608">
        <ele>872.94805908</ele>
        <time>2022-07-10T09:47:36Z</time>
      </trkpt>
      <trkpt lat="43.43092" lon="2.24606">
        <ele>873.00805664</ele>
        <time>2022-07-10T09:47:37Z</time>
      </trkpt>
      <trkpt lat="43.43087" lon="2.24604">
        <ele>873.04803467</ele>
        <time>2022-07-10T09:47:38Z</time>
      </trkpt>
      <trkpt lat="43.43084" lon="2.24602">
        <ele>873.11804199</ele>
        <time>2022-07-10T09:47:39Z</time>
      </trkpt>
      <trkpt lat="43.43081" lon="2.24601">
        <ele>873.22802734</ele>
        <time>2022-07-10T09:47:40Z</time>
      </trkpt>
      <trkpt lat="43.43078" lon="2.24599">
        <ele>873.34802246</ele>
        <time>2022-07-10T09:47:41Z</time>
      </trkpt>
      <trkpt lat="43.43073" lon="2.24597">
        <ele>873.40802002</ele>
        <time>2022-07-10T09:47:42Z</time>
      </trkpt>
      <trkpt lat="43.4307" lon="2.24595">
        <ele>873.41802979</ele>
        <time>2022-07-10T09:47:43Z</time>
      </trkpt>
      <trkpt lat="43.43067" lon="2.24593">
        <ele>873.46801758</ele>
        <time>2022-07-10T09:47:44Z</time>
      </trkpt>
      <trkpt lat="43.43063" lon="2.24591">
        <ele>873.44799805</ele>
        <time>2022-07-10T09:47:45Z</time>
      </trkpt>
      <trkpt lat="43.4306" lon="2.24588">
        <ele>873.43798828</ele>
        <time>2022-07-10T09:47:46Z</time>
      </trkpt>
      <trkpt lat="43.43055" lon="2.24584">
        <ele>873.41796875</ele>
        <time>2022-07-10T09:47:47Z</time>
      </trkpt>
      <trkpt lat="43.43052" lon="2.24581">
        <ele>873.38793945</ele>
        <time>2022-07-10T09:47:48Z</time>
      </trkpt>
      <trkpt lat="43.43048" lon="2.24578">
        <ele>873.37792969</ele>
        <time>2022-07-10T09:47:49Z</time>
      </trkpt>
      <trkpt lat="43.43045" lon="2.24576">
        <ele>873.40795898</ele>
        <time>2022-07-10T09:47:50Z</time>
      </trkpt>
      <trkpt lat="43.4304" lon="2.24571">
        <ele>873.49798584</ele>
        <time>2022-07-10T09:47:51Z</time>
      </trkpt>
      <trkpt lat="43.43037" lon="2.24568">
        <ele>873.61798096</ele>
        <time>2022-07-10T09:47:52Z</time>
      </trkpt>
      <trkpt lat="43.43035" lon="2.24565">
        <ele>873.78796387</ele>
        <time>2022-07-10T09:47:53Z</time>
      </trkpt>
      <trkpt lat="43.43032" lon="2.24562">
        <ele>873.93798828</ele>
        <time>2022-07-10T09:47:54Z</time>
      </trkpt>
      <trkpt lat="43.43028" lon="2.24557">
        <ele>874.11798096</ele>
        <time>2022-07-10T09:47:55Z</time>
      </trkpt>
      <trkpt lat="43.43025" lon="2.24555">
        <ele>874.28796387</ele>
        <time>2022-07-10T09:47:56Z</time>
      </trkpt>
      <trkpt lat="43.43023" lon="2.24552">
        <ele>874.46795654</ele>
        <time>2022-07-10T09:47:57Z</time>
      </trkpt>
      <trkpt lat="43.43021" lon="2.24549">
        <ele>874.73797607</ele>
        <time>2022-07-10T09:47:58Z</time>
      </trkpt>
      <trkpt lat="43.43018" lon="2.24547">
        <ele>874.95794678</ele>
        <time>2022-07-10T09:47:59Z</time>
      </trkpt>
      <trkpt lat="43.43015" lon="2.24543">
        <ele>875.17791748</ele>
        <time>2022-07-10T09:48:00Z</time>
      </trkpt>
      <trkpt lat="43.43013" lon="2.2454">
        <ele>875.47790527</ele>
        <time>2022-07-10T09:48:01Z</time>
      </trkpt>
      <trkpt lat="43.43011" lon="2.24537">
        <ele>875.67791748</ele>
        <time>2022-07-10T09:48:02Z</time>
      </trkpt>
      <trkpt lat="43.4301" lon="2.24534">
        <ele>875.94793701</ele>
        <time>2022-07-10T09:48:03Z</time>
      </trkpt>
      <trkpt lat="43.43008" lon="2.24531">
        <ele>876.2479248</ele>
        <time>2022-07-10T09:48:04Z</time>
      </trkpt>
      <trkpt lat="43.43005" lon="2.24527">
        <ele>876.55792236</ele>
        <time>2022-07-10T09:48:05Z</time>
      </trkpt>
      <trkpt lat="43.43003" lon="2.24524">
        <ele>876.89794922</ele>
        <time>2022-07-10T09:48:06Z</time>
      </trkpt>
      <trkpt lat="43.43002" lon="2.24521">
        <ele>877.18792725</ele>
        <time>2022-07-10T09:48:07Z</time>
      </trkpt>
      <trkpt lat="43.43" lon="2.24519">
        <ele>877.42791748</ele>
        <time>2022-07-10T09:48:08Z</time>
      </trkpt>
      <trkpt lat="43.42997" lon="2.24514">
        <ele>877.91790771</ele>
        <time>2022-07-10T09:48:09Z</time>
      </trkpt>
      <trkpt lat="43.42996" lon="2.24511">
        <ele>878.19793701</ele>
        <time>2022-07-10T09:48:10Z</time>
      </trkpt>
      <trkpt lat="43.42994" lon="2.24508">
        <ele>878.51794434</ele>
        <time>2022-07-10T09:48:11Z</time>
      </trkpt>
      <trkpt lat="43.42993" lon="2.24505">
        <ele>878.84796143</ele>
        <time>2022-07-10T09:48:12Z</time>
      </trkpt>
      <trkpt lat="43.42991" lon="2.24502">
        <ele>879.20794678</ele>
        <time>2022-07-10T09:48:13Z</time>
      </trkpt>
      <trkpt lat="43.42989" lon="2.24498">
        <ele>879.56793213</ele>
        <time>2022-07-10T09:48:14Z</time>
      </trkpt>
      <trkpt lat="43.42988" lon="2.24494">
        <ele>879.88793945</ele>
        <time>2022-07-10T09:48:15Z</time>
      </trkpt>
      <trkpt lat="43.42986" lon="2.24491">
        <ele>880.2479248</ele>
        <time>2022-07-10T09:48:16Z</time>
      </trkpt>
      <trkpt lat="43.42984" lon="2.24488">
        <ele>880.48791504</ele>
        <time>2022-07-10T09:48:17Z</time>
      </trkpt>
      <trkpt lat="43.42982" lon="2.24484">
        <ele>880.63793945</ele>
        <time>2022-07-10T09:48:18Z</time>
      </trkpt>
      <trkpt lat="43.4298" lon="2.2448">
        <ele>880.80792236</ele>
        <time>2022-07-10T09:48:19Z</time>
      </trkpt>
      <trkpt lat="43.42979" lon="2.24477">
        <ele>880.89794922</ele>
        <time>2022-07-10T09:48:20Z</time>
      </trkpt>
      <trkpt lat="43.42977" lon="2.24474">
        <ele>881.0279541</ele>
        <time>2022-07-10T09:48:21Z</time>
      </trkpt>
      <trkpt lat="43.42974" lon="2.2447">
        <ele>881.17797852</ele>
        <time>2022-07-10T09:48:22Z</time>
      </trkpt>
      <trkpt lat="43.42972" lon="2.24468">
        <ele>881.38800049</ele>
        <time>2022-07-10T09:48:23Z</time>
      </trkpt>
      <trkpt lat="43.4297" lon="2.24465">
        <ele>881.59802246</ele>
        <time>2022-07-10T09:48:24Z</time>
      </trkpt>
      <trkpt lat="43.42968" lon="2.24462">
        <ele>881.79803467</ele>
        <time>2022-07-10T09:48:25Z</time>
      </trkpt>
      <trkpt lat="43.42966" lon="2.2446">
        <ele>882.04803467</ele>
        <time>2022-07-10T09:48:26Z</time>
      </trkpt>
      <trkpt lat="43.42962" lon="2.24456">
        <ele>882.21801758</ele>
        <time>2022-07-10T09:48:27Z</time>
      </trkpt>
      <trkpt lat="43.4296" lon="2.24454">
        <ele>882.41802979</ele>
        <time>2022-07-10T09:48:28Z</time>
      </trkpt>
      <trkpt lat="43.42957" lon="2.24452">
        <ele>882.65802002</ele>
        <time>2022-07-10T09:48:29Z</time>
      </trkpt>
      <trkpt lat="43.42955" lon="2.2445">
        <ele>882.8380127</ele>
        <time>2022-07-10T09:48:30Z</time>
      </trkpt>
      <trkpt lat="43.42952" lon="2.24448">
        <ele>884.09802246</ele>
        <time>2022-07-10T09:48:31Z</time>
      </trkpt>
      <trkpt lat="43.42949" lon="2.24446">
        <ele>885.44799805</ele>
        <time>2022-07-10T09:48:32Z</time>
      </trkpt>
      <trkpt lat="43.42946" lon="2.24445">
        <ele>886.25799561</ele>
        <time>2022-07-10T09:48:33Z</time>
      </trkpt>
      <trkpt lat="43.42944" lon="2.24443">
        <ele>886.32800293</ele>
        <time>2022-07-10T09:48:34Z</time>
      </trkpt>
      <trkpt lat="43.42909" lon="2.2444">
        <ele>879.6</ele>
        <time>2022-07-10T09:48:35Z</time>
      </trkpt>
      <trkpt lat="43.42869" lon="2.24431">
        <ele>877</ele>
      </trkpt>
      <trkpt lat="43.42853" lon="2.24426">
        <ele>875.6</ele>
      </trkpt>
      <trkpt lat="43.428" lon="2.24369">
        <ele>874.43023682</ele>
        <time>2022-07-10T10:00:34Z</time>
      </trkpt>
      <trkpt lat="43.42798" lon="2.2437">
        <ele>874.38024902</ele>
        <time>2022-07-10T10:00:35Z</time>
      </trkpt>
      <trkpt lat="43.42795" lon="2.24369">
        <ele>874.30023193</ele>
        <time>2022-07-10T10:00:36Z</time>
      </trkpt>
      <trkpt lat="43.42793" lon="2.24369">
        <ele>874.04022217</ele>
        <time>2022-07-10T10:00:37Z</time>
      </trkpt>
      <trkpt lat="43.42792" lon="2.24368">
        <ele>873.90020752</ele>
        <time>2022-07-10T10:00:38Z</time>
      </trkpt>
      <trkpt lat="43.4279" lon="2.24366">
        <ele>873.64019775</ele>
        <time>2022-07-10T10:00:39Z</time>
      </trkpt>
      <trkpt lat="43.42788" lon="2.24366">
        <ele>873.13018799</ele>
        <time>2022-07-10T10:00:40Z</time>
      </trkpt>
      <trkpt lat="43.42786" lon="2.24367">
        <ele>872.87017822</ele>
        <time>2022-07-10T10:00:41Z</time>
      </trkpt>
      <trkpt lat="43.42785" lon="2.24369">
        <ele>872.49017334</ele>
        <time>2022-07-10T10:00:42Z</time>
      </trkpt>
      <trkpt lat="43.42784" lon="2.24369">
        <ele>872.15014648</ele>
        <time>2022-07-10T10:00:43Z</time>
      </trkpt>
      <trkpt lat="43.42784" lon="2.2437">
        <ele>871.87011719</ele>
        <time>2022-07-10T10:00:44Z</time>
      </trkpt>
      <trkpt lat="43.42782" lon="2.2437">
        <ele>871.55010986</ele>
        <time>2022-07-10T10:00:45Z</time>
      </trkpt>
      <trkpt lat="43.42781" lon="2.2437">
        <ele>871.17010498</ele>
        <time>2022-07-10T10:00:46Z</time>
      </trkpt>
      <trkpt lat="43.4278" lon="2.2437">
        <ele>870.92010498</ele>
        <time>2022-07-10T10:00:47Z</time>
      </trkpt>
      <trkpt lat="43.42776" lon="2.2438">
        <ele>871.47009277</ele>
        <time>2022-07-10T10:01:28Z</time>
      </trkpt>
      <trkpt lat="43.42775" lon="2.24382">
        <ele>870.96008301</ele>
        <time>2022-07-10T10:01:29Z</time>
      </trkpt>
      <trkpt lat="43.42773" lon="2.24384">
        <ele>870.52008057</ele>
        <time>2022-07-10T10:01:30Z</time>
      </trkpt>
      <trkpt lat="43.42772" lon="2.24385">
        <ele>870.15008545</ele>
        <time>2022-07-10T10:01:31Z</time>
      </trkpt>
      <trkpt lat="43.4277" lon="2.24386">
        <ele>869.73010254</ele>
        <time>2022-07-10T10:01:32Z</time>
      </trkpt>
      <trkpt lat="43.42769" lon="2.24387">
        <ele>869.35009766</ele>
        <time>2022-07-10T10:01:33Z</time>
      </trkpt>
      <trkpt lat="43.42767" lon="2.2439">
        <ele>868.98010254</ele>
        <time>2022-07-10T10:01:34Z</time>
      </trkpt>
      <trkpt lat="43.42765" lon="2.24391">
        <ele>868.51013184</ele>
        <time>2022-07-10T10:01:35Z</time>
      </trkpt>
      <trkpt lat="43.42764" lon="2.24392">
        <ele>868.0201416</ele>
        <time>2022-07-10T10:01:36Z</time>
      </trkpt>
      <trkpt lat="43.42762" lon="2.24393">
        <ele>867.50012207</ele>
        <time>2022-07-10T10:01:37Z</time>
      </trkpt>
      <trkpt lat="43.4276" lon="2.24395">
        <ele>866.85009766</ele>
        <time>2022-07-10T10:01:38Z</time>
      </trkpt>
      <trkpt lat="43.42758" lon="2.24397">
        <ele>866.21008301</ele>
        <time>2022-07-10T10:01:39Z</time>
      </trkpt>
      <trkpt lat="43.42757" lon="2.24398">
        <ele>865.59008789</ele>
        <time>2022-07-10T10:01:40Z</time>
      </trkpt>
      <trkpt lat="43.42756" lon="2.244">
        <ele>864.92010498</ele>
        <time>2022-07-10T10:01:41Z</time>
      </trkpt>
      <trkpt lat="43.42755" lon="2.24402">
        <ele>864.37011719</ele>
        <time>2022-07-10T10:01:42Z</time>
      </trkpt>
      <trkpt lat="43.42752" lon="2.24404">
        <ele>863.83013916</ele>
        <time>2022-07-10T10:01:43Z</time>
      </trkpt>
      <trkpt lat="43.42751" lon="2.24405">
        <ele>863.23016357</ele>
        <time>2022-07-10T10:01:44Z</time>
      </trkpt>
      <trkpt lat="43.42751" lon="2.24406">
        <ele>862.79016113</ele>
        <time>2022-07-10T10:01:45Z</time>
      </trkpt>
      <trkpt lat="43.42751" lon="2.24407">
        <ele>862.38018799</ele>
        <time>2022-07-10T10:01:46Z</time>
      </trkpt>
      <trkpt lat="43.42749" lon="2.2441">
        <ele>861.94018555</ele>
        <time>2022-07-10T10:01:48Z</time>
      </trkpt>
      <trkpt lat="43.42747" lon="2.24412">
        <ele>861.63018799</ele>
        <time>2022-07-10T10:01:49Z</time>
      </trkpt>
      <trkpt lat="43.42746" lon="2.24413">
        <ele>861.29016113</ele>
        <time>2022-07-10T10:01:50Z</time>
      </trkpt>
      <trkpt lat="43.42744" lon="2.24414">
        <ele>860.76013184</ele>
        <time>2022-07-10T10:01:51Z</time>
      </trkpt>
      <trkpt lat="43.42741" lon="2.24417">
        <ele>860.13012695</ele>
        <time>2022-07-10T10:01:52Z</time>
      </trkpt>
      <trkpt lat="43.4274" lon="2.24419">
        <ele>859.51013184</ele>
        <time>2022-07-10T10:01:53Z</time>
      </trkpt>
      <trkpt lat="43.42739" lon="2.24421">
        <ele>858.76013184</ele>
        <time>2022-07-10T10:01:54Z</time>
      </trkpt>
      <trkpt lat="43.42738" lon="2.24423">
        <ele>858.06011963</ele>
        <time>2022-07-10T10:01:55Z</time>
      </trkpt>
      <trkpt lat="43.42736" lon="2.24425">
        <ele>857.42010498</ele>
        <time>2022-07-10T10:01:56Z</time>
      </trkpt>
      <trkpt lat="43.42734" lon="2.24426">
        <ele>856.66009521</ele>
        <time>2022-07-10T10:01:57Z</time>
      </trkpt>
      <trkpt lat="43.42733" lon="2.24427">
        <ele>855.94012451</ele>
        <time>2022-07-10T10:01:58Z</time>
      </trkpt>
      <trkpt lat="43.42732" lon="2.24428">
        <ele>855.35009766</ele>
        <time>2022-07-10T10:01:59Z</time>
      </trkpt>
      <trkpt lat="43.42731" lon="2.24428">
        <ele>854.84008789</ele>
        <time>2022-07-10T10:02:00Z</time>
      </trkpt>
      <trkpt lat="43.4273" lon="2.2443">
        <ele>854.55010986</ele>
        <time>2022-07-10T10:02:01Z</time>
      </trkpt>
      <trkpt lat="43.42729" lon="2.24432">
        <ele>854.34008789</ele>
        <time>2022-07-10T10:02:02Z</time>
      </trkpt>
      <trkpt lat="43.42727" lon="2.24434">
        <ele>854.09008789</ele>
        <time>2022-07-10T10:02:03Z</time>
      </trkpt>
      <trkpt lat="43.42726" lon="2.24436">
        <ele>853.86010742</ele>
        <time>2022-07-10T10:02:04Z</time>
      </trkpt>
      <trkpt lat="43.42724" lon="2.24437">
        <ele>853.60009766</ele>
        <time>2022-07-10T10:02:05Z</time>
      </trkpt>
      <trkpt lat="43.42722" lon="2.24439">
        <ele>853.37011719</ele>
        <time>2022-07-10T10:02:06Z</time>
      </trkpt>
      <trkpt lat="43.42721" lon="2.2444">
        <ele>853.12011719</ele>
        <time>2022-07-10T10:02:07Z</time>
      </trkpt>
      <trkpt lat="43.42719" lon="2.2444">
        <ele>852.78009033</ele>
        <time>2022-07-10T10:02:08Z</time>
      </trkpt>
      <trkpt lat="43.42718" lon="2.24441">
        <ele>852.44006348</ele>
        <time>2022-07-10T10:02:09Z</time>
      </trkpt>
      <trkpt lat="43.42716" lon="2.24442">
        <ele>852.22009277</ele>
        <time>2022-07-10T10:02:10Z</time>
      </trkpt>
      <trkpt lat="43.42715" lon="2.24444">
        <ele>851.7600708</ele>
        <time>2022-07-10T10:02:11Z</time>
      </trkpt>
      <trkpt lat="43.42713" lon="2.24445">
        <ele>851.44006348</ele>
        <time>2022-07-10T10:02:12Z</time>
      </trkpt>
      <trkpt lat="43.42712" lon="2.24447">
        <ele>851.15008545</ele>
        <time>2022-07-10T10:02:13Z</time>
      </trkpt>
      <trkpt lat="43.42711" lon="2.24448">
        <ele>850.78009033</ele>
        <time>2022-07-10T10:02:14Z</time>
      </trkpt>
      <trkpt lat="43.4271" lon="2.24448">
        <ele>850.73010254</ele>
        <time>2022-07-10T10:02:15Z</time>
      </trkpt>
      <trkpt lat="43.42709" lon="2.24448">
        <ele>850.69012451</ele>
        <time>2022-07-10T10:02:16Z</time>
      </trkpt>
      <trkpt lat="43.42707" lon="2.24456">
        <ele>850.55010986</ele>
        <time>2022-07-10T10:02:24Z</time>
      </trkpt>
      <trkpt lat="43.42705" lon="2.24457">
        <ele>850.5401001</ele>
        <time>2022-07-10T10:02:25Z</time>
      </trkpt>
      <trkpt lat="43.42705" lon="2.24458">
        <ele>850.47009277</ele>
        <time>2022-07-10T10:02:26Z</time>
      </trkpt>
      <trkpt lat="43.42704" lon="2.24459">
        <ele>850.40008545</ele>
        <time>2022-07-10T10:02:28Z</time>
      </trkpt>
      <trkpt lat="43.42704" lon="2.2446">
        <ele>850.33007812</ele>
        <time>2022-07-10T10:02:29Z</time>
      </trkpt>
      <trkpt lat="43.42698" lon="2.24466">
        <ele>850.22009277</ele>
        <time>2022-07-10T10:02:44Z</time>
      </trkpt>
      <trkpt lat="43.42697" lon="2.24467">
        <ele>850.17010498</ele>
        <time>2022-07-10T10:02:45Z</time>
      </trkpt>
      <trkpt lat="43.42695" lon="2.2447">
        <ele>849.61010742</ele>
        <time>2022-07-10T10:02:49Z</time>
      </trkpt>
      <trkpt lat="43.42695" lon="2.24471">
        <ele>849.42010498</ele>
        <time>2022-07-10T10:02:50Z</time>
      </trkpt>
      <trkpt lat="43.42693" lon="2.24472">
        <ele>849.14007568</ele>
        <time>2022-07-10T10:02:51Z</time>
      </trkpt>
      <trkpt lat="43.42692" lon="2.24474">
        <ele>848.96008301</ele>
        <time>2022-07-10T10:02:52Z</time>
      </trkpt>
      <trkpt lat="43.42692" lon="2.24475">
        <ele>848.87005615</ele>
        <time>2022-07-10T10:02:53Z</time>
      </trkpt>
      <trkpt lat="43.42691" lon="2.24476">
        <ele>848.70007324</ele>
        <time>2022-07-10T10:02:54Z</time>
      </trkpt>
      <trkpt lat="43.4269" lon="2.24477">
        <ele>848.63006592</ele>
        <time>2022-07-10T10:02:55Z</time>
      </trkpt>
      <trkpt lat="43.42689" lon="2.24478">
        <ele>848.53009033</ele>
        <time>2022-07-10T10:02:56Z</time>
      </trkpt>
      <trkpt lat="43.42689" lon="2.24479">
        <ele>848.45007324</ele>
        <time>2022-07-10T10:02:57Z</time>
      </trkpt>
      <trkpt lat="43.42688" lon="2.2448">
        <ele>848.37005615</ele>
        <time>2022-07-10T10:02:58Z</time>
      </trkpt>
      <trkpt lat="43.42687" lon="2.24482">
        <ele>848.16003418</ele>
        <time>2022-07-10T10:03:00Z</time>
      </trkpt>
      <trkpt lat="43.42686" lon="2.24484">
        <ele>848.0300293</ele>
        <time>2022-07-10T10:03:01Z</time>
      </trkpt>
      <trkpt lat="43.42684" lon="2.24485">
        <ele>847.90002441</ele>
        <time>2022-07-10T10:03:02Z</time>
      </trkpt>
      <trkpt lat="43.42682" lon="2.24486">
        <ele>847.70001221</ele>
        <time>2022-07-10T10:03:03Z</time>
      </trkpt>
      <trkpt lat="43.4268" lon="2.24488">
        <ele>847.59002686</ele>
        <time>2022-07-10T10:03:04Z</time>
      </trkpt>
      <trkpt lat="43.42678" lon="2.24489">
        <ele>847.4800415</ele>
        <time>2022-07-10T10:03:05Z</time>
      </trkpt>
      <trkpt lat="43.42676" lon="2.2449">
        <ele>847.13006592</ele>
        <time>2022-07-10T10:03:06Z</time>
      </trkpt>
      <trkpt lat="43.42675" lon="2.24492">
        <ele>846.95007324</ele>
        <time>2022-07-10T10:03:07Z</time>
      </trkpt>
      <trkpt lat="43.42674" lon="2.24494">
        <ele>846.57006836</ele>
        <time>2022-07-10T10:03:08Z</time>
      </trkpt>
      <trkpt lat="43.42673" lon="2.24496">
        <ele>846.06005859</ele>
        <time>2022-07-10T10:03:09Z</time>
      </trkpt>
      <trkpt lat="43.42671" lon="2.24497">
        <ele>845.95007324</ele>
        <time>2022-07-10T10:03:10Z</time>
      </trkpt>
      <trkpt lat="43.4267" lon="2.24499">
        <ele>845.5100708</ele>
        <time>2022-07-10T10:03:11Z</time>
      </trkpt>
      <trkpt lat="43.42668" lon="2.245">
        <ele>845.16009521</ele>
        <time>2022-07-10T10:03:12Z</time>
      </trkpt>
      <trkpt lat="43.42665" lon="2.24503">
        <ele>844.86010742</ele>
        <time>2022-07-10T10:03:13Z</time>
      </trkpt>
      <trkpt lat="43.42664" lon="2.24504">
        <ele>844.34008789</ele>
        <time>2022-07-10T10:03:14Z</time>
      </trkpt>
      <trkpt lat="43.42662" lon="2.24505">
        <ele>843.98010254</ele>
        <time>2022-07-10T10:03:15Z</time>
      </trkpt>
      <trkpt lat="43.42661" lon="2.24507">
        <ele>843.59008789</ele>
        <time>2022-07-10T10:03:16Z</time>
      </trkpt>
      <trkpt lat="43.4266" lon="2.24508">
        <ele>843.32006836</ele>
        <time>2022-07-10T10:03:17Z</time>
      </trkpt>
      <trkpt lat="43.42658" lon="2.24509">
        <ele>842.91009521</ele>
        <time>2022-07-10T10:03:18Z</time>
      </trkpt>
      <trkpt lat="43.42656" lon="2.2451">
        <ele>842.45007324</ele>
        <time>2022-07-10T10:03:19Z</time>
      </trkpt>
      <trkpt lat="43.42656" lon="2.24511">
        <ele>841.97009277</ele>
        <time>2022-07-10T10:03:20Z</time>
      </trkpt>
      <trkpt lat="43.42655" lon="2.24512">
        <ele>841.36010742</ele>
        <time>2022-07-10T10:03:21Z</time>
      </trkpt>
      <trkpt lat="43.42651" lon="2.24515">
        <ele>841.00012207</ele>
        <time>2022-07-10T10:03:22Z</time>
      </trkpt>
      <trkpt lat="43.4265" lon="2.24517">
        <ele>840.53015137</ele>
        <time>2022-07-10T10:03:23Z</time>
      </trkpt>
      <trkpt lat="43.42648" lon="2.24519">
        <ele>840.13012695</ele>
        <time>2022-07-10T10:03:24Z</time>
      </trkpt>
      <trkpt lat="43.42646" lon="2.24522">
        <ele>839.76013184</ele>
        <time>2022-07-10T10:03:25Z</time>
      </trkpt>
      <trkpt lat="43.42645" lon="2.24523">
        <ele>839.2401123</ele>
        <time>2022-07-10T10:03:26Z</time>
      </trkpt>
      <trkpt lat="43.42643" lon="2.24525">
        <ele>839.01013184</ele>
        <time>2022-07-10T10:03:27Z</time>
      </trkpt>
      <trkpt lat="43.42641" lon="2.24527">
        <ele>838.54016113</ele>
        <time>2022-07-10T10:03:28Z</time>
      </trkpt>
      <trkpt lat="43.42639" lon="2.24528">
        <ele>838.22015381</ele>
        <time>2022-07-10T10:03:29Z</time>
      </trkpt>
      <trkpt lat="43.42637" lon="2.2453">
        <ele>837.92016602</ele>
        <time>2022-07-10T10:03:30Z</time>
      </trkpt>
      <trkpt lat="43.42634" lon="2.24534">
        <ele>837.45019531</ele>
        <time>2022-07-10T10:03:31Z</time>
      </trkpt>
      <trkpt lat="43.42631" lon="2.24535">
        <ele>837.21020508</ele>
        <time>2022-07-10T10:03:32Z</time>
      </trkpt>
      <trkpt lat="43.4263" lon="2.24536">
        <ele>836.69018555</ele>
        <time>2022-07-10T10:03:33Z</time>
      </trkpt>
      <trkpt lat="43.42629" lon="2.24537">
        <ele>836.14019775</ele>
        <time>2022-07-10T10:03:34Z</time>
      </trkpt>
      <trkpt lat="43.42627" lon="2.24538">
        <ele>835.54022217</ele>
        <time>2022-07-10T10:03:35Z</time>
      </trkpt>
      <trkpt lat="43.42623" lon="2.2454">
        <ele>834.96020508</ele>
        <time>2022-07-10T10:03:36Z</time>
      </trkpt>
      <trkpt lat="43.42621" lon="2.24542">
        <ele>834.37017822</ele>
        <time>2022-07-10T10:03:37Z</time>
      </trkpt>
      <trkpt lat="43.42619" lon="2.24544">
        <ele>833.77020264</ele>
        <time>2022-07-10T10:03:38Z</time>
      </trkpt>
      <trkpt lat="43.42616" lon="2.24546">
        <ele>833.2802124</ele>
        <time>2022-07-10T10:03:39Z</time>
      </trkpt>
      <trkpt lat="43.42615" lon="2.24547">
        <ele>832.82019043</ele>
        <time>2022-07-10T10:03:40Z</time>
      </trkpt>
      <trkpt lat="43.42614" lon="2.2455">
        <ele>832.46020508</ele>
        <time>2022-07-10T10:03:41Z</time>
      </trkpt>
      <trkpt lat="43.42612" lon="2.24553">
        <ele>832.13018799</ele>
        <time>2022-07-10T10:03:42Z</time>
      </trkpt>
      <trkpt lat="43.4261" lon="2.24555">
        <ele>831.7802124</ele>
        <time>2022-07-10T10:03:43Z</time>
      </trkpt>
      <trkpt lat="43.42608" lon="2.24558">
        <ele>831.21020508</ele>
        <time>2022-07-10T10:03:44Z</time>
      </trkpt>
      <trkpt lat="43.42606" lon="2.24562">
        <ele>830.75018311</ele>
        <time>2022-07-10T10:03:45Z</time>
      </trkpt>
      <trkpt lat="43.42604" lon="2.24564">
        <ele>830.34020996</ele>
        <time>2022-07-10T10:03:46Z</time>
      </trkpt>
      <trkpt lat="43.42603" lon="2.24565">
        <ele>829.74023438</ele>
        <time>2022-07-10T10:03:47Z</time>
      </trkpt>
      <trkpt lat="43.42602" lon="2.24566">
        <ele>829.40020752</ele>
        <time>2022-07-10T10:03:48Z</time>
      </trkpt>
      <trkpt lat="43.42601" lon="2.24568">
        <ele>828.73022461</ele>
        <time>2022-07-10T10:03:49Z</time>
      </trkpt>
      <trkpt lat="43.42599" lon="2.2457">
        <ele>827.75024414</ele>
        <time>2022-07-10T10:03:50Z</time>
      </trkpt>
      <trkpt lat="43.42598" lon="2.24571">
        <ele>827.25024414</ele>
        <time>2022-07-10T10:03:51Z</time>
      </trkpt>
      <trkpt lat="43.42596" lon="2.24573">
        <ele>826.05023193</ele>
        <time>2022-07-10T10:03:52Z</time>
      </trkpt>
      <trkpt lat="43.42594" lon="2.24575">
        <ele>824.98022461</ele>
        <time>2022-07-10T10:03:53Z</time>
      </trkpt>
      <trkpt lat="43.42591" lon="2.24579">
        <ele>824.18023682</ele>
        <time>2022-07-10T10:03:54Z</time>
      </trkpt>
      <trkpt lat="43.42589" lon="2.24581">
        <ele>822.85021973</ele>
        <time>2022-07-10T10:03:55Z</time>
      </trkpt>
      <trkpt lat="43.42587" lon="2.24583">
        <ele>821.96020508</ele>
        <time>2022-07-10T10:03:56Z</time>
      </trkpt>
      <trkpt lat="43.42586" lon="2.24584">
        <ele>821.05023193</ele>
        <time>2022-07-10T10:03:57Z</time>
      </trkpt>
      <trkpt lat="43.42584" lon="2.24587">
        <ele>820.18023682</ele>
        <time>2022-07-10T10:03:58Z</time>
      </trkpt>
      <trkpt lat="43.42582" lon="2.24589">
        <ele>819.5602417</ele>
        <time>2022-07-10T10:03:59Z</time>
      </trkpt>
      <trkpt lat="43.42577" lon="2.24603">
        <ele>818.04022217</ele>
        <time>2022-07-10T10:04:12Z</time>
      </trkpt>
      <trkpt lat="43.42577" lon="2.24604">
        <ele>817.89019775</ele>
        <time>2022-07-10T10:04:13Z</time>
      </trkpt>
      <trkpt lat="43.42576" lon="2.24605">
        <ele>817.71020508</ele>
        <time>2022-07-10T10:04:14Z</time>
      </trkpt>
      <trkpt lat="43.42567" lon="2.24612">
        <ele>815.8302002</ele>
        <time>2022-07-10T10:04:28Z</time>
      </trkpt>
      <trkpt lat="43.42566" lon="2.24614">
        <ele>815.40020752</ele>
        <time>2022-07-10T10:04:29Z</time>
      </trkpt>
      <trkpt lat="43.42565" lon="2.24616">
        <ele>814.8302002</ele>
        <time>2022-07-10T10:04:30Z</time>
      </trkpt>
      <trkpt lat="43.42565" lon="2.24617">
        <ele>814.10021973</ele>
        <time>2022-07-10T10:04:31Z</time>
      </trkpt>
      <trkpt lat="43.42564" lon="2.24617">
        <ele>813.61022949</ele>
        <time>2022-07-10T10:04:32Z</time>
      </trkpt>
      <trkpt lat="43.42563" lon="2.24618">
        <ele>813.15020752</ele>
        <time>2022-07-10T10:04:33Z</time>
      </trkpt>
      <trkpt lat="43.42561" lon="2.24621">
        <ele>812.74023438</ele>
        <time>2022-07-10T10:04:34Z</time>
      </trkpt>
      <trkpt lat="43.4256" lon="2.24622">
        <ele>812.2802124</ele>
        <time>2022-07-10T10:04:35Z</time>
      </trkpt>
      <trkpt lat="43.42559" lon="2.24623">
        <ele>811.75018311</ele>
        <time>2022-07-10T10:04:36Z</time>
      </trkpt>
      <trkpt lat="43.42557" lon="2.24624">
        <ele>811.21020508</ele>
        <time>2022-07-10T10:04:37Z</time>
      </trkpt>
      <trkpt lat="43.42556" lon="2.24625">
        <ele>810.64019775</ele>
        <time>2022-07-10T10:04:38Z</time>
      </trkpt>
      <trkpt lat="43.42553" lon="2.24628">
        <ele>810.27020264</ele>
        <time>2022-07-10T10:04:39Z</time>
      </trkpt>
      <trkpt lat="43.42551" lon="2.24629">
        <ele>809.8302002</ele>
        <time>2022-07-10T10:04:40Z</time>
      </trkpt>
      <trkpt lat="43.4255" lon="2.24631">
        <ele>809.52020264</ele>
        <time>2022-07-10T10:04:41Z</time>
      </trkpt>
      <trkpt lat="43.42549" lon="2.24632">
        <ele>809.22021484</ele>
        <time>2022-07-10T10:04:42Z</time>
      </trkpt>
      <trkpt lat="43.42547" lon="2.24633">
        <ele>808.94018555</ele>
        <time>2022-07-10T10:04:43Z</time>
      </trkpt>
      <trkpt lat="43.42545" lon="2.24635">
        <ele>808.81018066</ele>
        <time>2022-07-10T10:04:44Z</time>
      </trkpt>
      <trkpt lat="43.42544" lon="2.24637">
        <ele>808.66015625</ele>
        <time>2022-07-10T10:04:45Z</time>
      </trkpt>
      <trkpt lat="43.42544" lon="2.24639">
        <ele>808.61016846</ele>
        <time>2022-07-10T10:04:46Z</time>
      </trkpt>
      <trkpt lat="43.42543" lon="2.2464">
        <ele>808.68017578</ele>
        <time>2022-07-10T10:04:47Z</time>
      </trkpt>
      <trkpt lat="43.42541" lon="2.24643">
        <ele>808.89019775</ele>
        <time>2022-07-10T10:04:48Z</time>
      </trkpt>
      <trkpt lat="43.42539" lon="2.24645">
        <ele>809.17022705</ele>
        <time>2022-07-10T10:04:49Z</time>
      </trkpt>
      <trkpt lat="43.42537" lon="2.24646">
        <ele>809.57025146</ele>
        <time>2022-07-10T10:04:50Z</time>
      </trkpt>
      <trkpt lat="43.42535" lon="2.24647">
        <ele>809.99023438</ele>
        <time>2022-07-10T10:04:51Z</time>
      </trkpt>
      <trkpt lat="43.42534" lon="2.24648">
        <ele>810.34020996</ele>
        <time>2022-07-10T10:04:52Z</time>
      </trkpt>
      <trkpt lat="43.42533" lon="2.24648">
        <ele>810.62023926</ele>
        <time>2022-07-10T10:04:53Z</time>
      </trkpt>
      <trkpt lat="43.42529" lon="2.24647">
        <ele>810.75024414</ele>
        <time>2022-07-10T10:05:10Z</time>
      </trkpt>
      <trkpt lat="43.42528" lon="2.24645">
        <ele>810.76025391</ele>
        <time>2022-07-10T10:05:11Z</time>
      </trkpt>
      <trkpt lat="43.42526" lon="2.24644">
        <ele>810.85028076</ele>
        <time>2022-07-10T10:05:12Z</time>
      </trkpt>
      <trkpt lat="43.42524" lon="2.24644">
        <ele>810.99029541</ele>
        <time>2022-07-10T10:05:13Z</time>
      </trkpt>
      <trkpt lat="43.42522" lon="2.24643">
        <ele>811.10028076</ele>
        <time>2022-07-10T10:05:14Z</time>
      </trkpt>
      <trkpt lat="43.42519" lon="2.24642">
        <ele>811.26025391</ele>
        <time>2022-07-10T10:05:15Z</time>
      </trkpt>
      <trkpt lat="43.42517" lon="2.24641">
        <ele>811.32025146</ele>
        <time>2022-07-10T10:05:16Z</time>
      </trkpt>
      <trkpt lat="43.42515" lon="2.2464">
        <ele>811.39025879</ele>
        <time>2022-07-10T10:05:17Z</time>
      </trkpt>
      <trkpt lat="43.42513" lon="2.24638">
        <ele>811.44024658</ele>
        <time>2022-07-10T10:05:18Z</time>
      </trkpt>
      <trkpt lat="43.42511" lon="2.24635">
        <ele>811.41021729</ele>
        <time>2022-07-10T10:05:19Z</time>
      </trkpt>
      <trkpt lat="43.4251" lon="2.24633">
        <ele>811.38018799</ele>
        <time>2022-07-10T10:05:20Z</time>
      </trkpt>
      <trkpt lat="43.42509" lon="2.24631">
        <ele>811.31018066</ele>
        <time>2022-07-10T10:05:21Z</time>
      </trkpt>
      <trkpt lat="43.42509" lon="2.2463">
        <ele>811.24017334</ele>
        <time>2022-07-10T10:05:22Z</time>
      </trkpt>
      <trkpt lat="43.42509" lon="2.24631">
        <ele>811.24017334</ele>
        <time>2022-07-10T10:05:23Z</time>
      </trkpt>
      <trkpt lat="43.42505" lon="2.24627">
        <ele>811.73016357</ele>
        <time>2022-07-10T10:05:37Z</time>
      </trkpt>
      <trkpt lat="43.42504" lon="2.24624">
        <ele>810.98016357</ele>
        <time>2022-07-10T10:05:38Z</time>
      </trkpt>
      <trkpt lat="43.42502" lon="2.24621">
        <ele>810.5501709</ele>
        <time>2022-07-10T10:05:39Z</time>
      </trkpt>
      <trkpt lat="43.425" lon="2.24619">
        <ele>810.26019287</ele>
        <time>2022-07-10T10:05:40Z</time>
      </trkpt>
      <trkpt lat="43.42498" lon="2.24617">
        <ele>809.96020508</ele>
        <time>2022-07-10T10:05:41Z</time>
      </trkpt>
      <trkpt lat="43.42493" lon="2.24613">
        <ele>809.64019775</ele>
        <time>2022-07-10T10:05:42Z</time>
      </trkpt>
      <trkpt lat="43.42491" lon="2.24611">
        <ele>809.29022217</ele>
        <time>2022-07-10T10:05:43Z</time>
      </trkpt>
      <trkpt lat="43.42487" lon="2.2461">
        <ele>808.93023682</ele>
        <time>2022-07-10T10:05:44Z</time>
      </trkpt>
      <trkpt lat="43.42484" lon="2.24608">
        <ele>808.42022705</ele>
        <time>2022-07-10T10:05:45Z</time>
      </trkpt>
      <trkpt lat="43.42479" lon="2.24606">
        <ele>807.77020264</ele>
        <time>2022-07-10T10:05:46Z</time>
      </trkpt>
      <trkpt lat="43.42476" lon="2.24605">
        <ele>807.26019287</ele>
        <time>2022-07-10T10:05:47Z</time>
      </trkpt>
      <trkpt lat="43.42472" lon="2.24604">
        <ele>806.72021484</ele>
        <time>2022-07-10T10:05:48Z</time>
      </trkpt>
      <trkpt lat="43.42469" lon="2.24604">
        <ele>806.54022217</ele>
        <time>2022-07-10T10:05:49Z</time>
      </trkpt>
      <trkpt lat="43.42465" lon="2.24603">
        <ele>806.47021484</ele>
        <time>2022-07-10T10:05:50Z</time>
      </trkpt>
      <trkpt lat="43.42459" lon="2.24603">
        <ele>806.20019531</ele>
        <time>2022-07-10T10:05:51Z</time>
      </trkpt>
      <trkpt lat="43.42455" lon="2.24602">
        <ele>805.88018799</ele>
        <time>2022-07-10T10:05:52Z</time>
      </trkpt>
      <trkpt lat="43.42451" lon="2.24602">
        <ele>805.5802002</ele>
        <time>2022-07-10T10:05:53Z</time>
      </trkpt>
      <trkpt lat="43.42447" lon="2.24601">
        <ele>805.09020996</ele>
        <time>2022-07-10T10:05:54Z</time>
      </trkpt>
      <trkpt lat="43.42443" lon="2.24601">
        <ele>805.10021973</ele>
        <time>2022-07-10T10:05:55Z</time>
      </trkpt>
      <trkpt lat="43.42437" lon="2.24602">
        <ele>805.05023193</ele>
        <time>2022-07-10T10:05:56Z</time>
      </trkpt>
      <trkpt lat="43.42432" lon="2.24602">
        <ele>804.90020752</ele>
        <time>2022-07-10T10:05:57Z</time>
      </trkpt>
      <trkpt lat="43.42428" lon="2.24602">
        <ele>804.89019775</ele>
        <time>2022-07-10T10:05:58Z</time>
      </trkpt>
      <trkpt lat="43.42425" lon="2.24602">
        <ele>804.43017578</ele>
        <time>2022-07-10T10:05:59Z</time>
      </trkpt>
      <trkpt lat="43.42419" lon="2.24599">
        <ele>804.10015869</ele>
        <time>2022-07-10T10:06:00Z</time>
      </trkpt>
      <trkpt lat="43.42414" lon="2.24597">
        <ele>803.32012939</ele>
        <time>2022-07-10T10:06:01Z</time>
      </trkpt>
      <trkpt lat="43.4241" lon="2.24595">
        <ele>803.00012207</ele>
        <time>2022-07-10T10:06:02Z</time>
      </trkpt>
      <trkpt lat="43.42406" lon="2.24591">
        <ele>802.55010986</ele>
        <time>2022-07-10T10:06:03Z</time>
      </trkpt>
      <trkpt lat="43.42399" lon="2.24587">
        <ele>802.13012695</ele>
        <time>2022-07-10T10:06:04Z</time>
      </trkpt>
      <trkpt lat="43.42394" lon="2.24584">
        <ele>801.7901001</ele>
        <time>2022-07-10T10:06:05Z</time>
      </trkpt>
      <trkpt lat="43.4239" lon="2.24581">
        <ele>801.22009277</ele>
        <time>2022-07-10T10:06:06Z</time>
      </trkpt>
      <trkpt lat="43.42385" lon="2.24578">
        <ele>800.65008545</ele>
        <time>2022-07-10T10:06:07Z</time>
      </trkpt>
      <trkpt lat="43.42381" lon="2.24575">
        <ele>800.23010254</ele>
        <time>2022-07-10T10:06:08Z</time>
      </trkpt>
      <trkpt lat="43.42376" lon="2.24571">
        <ele>799.82012939</ele>
        <time>2022-07-10T10:06:09Z</time>
      </trkpt>
      <trkpt lat="43.42372" lon="2.24568">
        <ele>799.46014404</ele>
        <time>2022-07-10T10:06:10Z</time>
      </trkpt>
      <trkpt lat="43.42369" lon="2.24565">
        <ele>799.61016846</ele>
        <time>2022-07-10T10:06:11Z</time>
      </trkpt>
      <trkpt lat="43.42366" lon="2.24563">
        <ele>799.53015137</ele>
        <time>2022-07-10T10:06:12Z</time>
      </trkpt>
      <trkpt lat="43.42362" lon="2.2456">
        <ele>799.48016357</ele>
        <time>2022-07-10T10:06:13Z</time>
      </trkpt>
      <trkpt lat="43.42356" lon="2.24557">
        <ele>799.39013672</ele>
        <time>2022-07-10T10:06:14Z</time>
      </trkpt>
      <trkpt lat="43.42353" lon="2.24555">
        <ele>799.0201416</ele>
        <time>2022-07-10T10:06:15Z</time>
      </trkpt>
      <trkpt lat="43.4235" lon="2.24554">
        <ele>798.59014893</ele>
        <time>2022-07-10T10:06:16Z</time>
      </trkpt>
      <trkpt lat="43.42347" lon="2.24553">
        <ele>798.32012939</ele>
        <time>2022-07-10T10:06:17Z</time>
      </trkpt>
      <trkpt lat="43.42343" lon="2.24552">
        <ele>797.98010254</ele>
        <time>2022-07-10T10:06:18Z</time>
      </trkpt>
      <trkpt lat="43.4234" lon="2.24553">
        <ele>797.72009277</ele>
        <time>2022-07-10T10:06:19Z</time>
      </trkpt>
      <trkpt lat="43.42337" lon="2.24552">
        <ele>797.68011475</ele>
        <time>2022-07-10T10:06:20Z</time>
      </trkpt>
      <trkpt lat="43.42334" lon="2.24551">
        <ele>797.43011475</ele>
        <time>2022-07-10T10:06:21Z</time>
      </trkpt>
      <trkpt lat="43.42329" lon="2.2455">
        <ele>796.88012695</ele>
        <time>2022-07-10T10:06:22Z</time>
      </trkpt>
      <trkpt lat="43.42326" lon="2.2455">
        <ele>796.41015625</ele>
        <time>2022-07-10T10:06:23Z</time>
      </trkpt>
      <trkpt lat="43.42324" lon="2.24549">
        <ele>795.96014404</ele>
        <time>2022-07-10T10:06:24Z</time>
      </trkpt>
      <trkpt lat="43.42321" lon="2.24549">
        <ele>795.90014648</ele>
        <time>2022-07-10T10:06:25Z</time>
      </trkpt>
      <trkpt lat="43.42318" lon="2.2455">
        <ele>795.96014404</ele>
        <time>2022-07-10T10:06:26Z</time>
      </trkpt>
      <trkpt lat="43.42315" lon="2.2455">
        <ele>795.89013672</ele>
        <time>2022-07-10T10:06:27Z</time>
      </trkpt>
      <trkpt lat="43.42313" lon="2.2455">
        <ele>795.59014893</ele>
        <time>2022-07-10T10:06:28Z</time>
      </trkpt>
      <trkpt lat="43.4231" lon="2.24551">
        <ele>795.17016602</ele>
        <time>2022-07-10T10:06:29Z</time>
      </trkpt>
      <trkpt lat="43.42307" lon="2.24551">
        <ele>794.99017334</ele>
        <time>2022-07-10T10:06:30Z</time>
      </trkpt>
      <trkpt lat="43.42303" lon="2.24552">
        <ele>794.79016113</ele>
        <time>2022-07-10T10:06:31Z</time>
      </trkpt>
      <trkpt lat="43.42301" lon="2.24552">
        <ele>794.74017334</ele>
        <time>2022-07-10T10:06:32Z</time>
      </trkpt>
      <trkpt lat="43.42299" lon="2.24552">
        <ele>794.71014404</ele>
        <time>2022-07-10T10:06:33Z</time>
      </trkpt>
      <trkpt lat="43.42296" lon="2.24553">
        <ele>794.49017334</ele>
        <time>2022-07-10T10:06:34Z</time>
      </trkpt>
      <trkpt lat="43.42293" lon="2.24553">
        <ele>794.3001709</ele>
        <time>2022-07-10T10:06:35Z</time>
      </trkpt>
      <trkpt lat="43.4229" lon="2.24553">
        <ele>794.0201416</ele>
        <time>2022-07-10T10:06:36Z</time>
      </trkpt>
      <trkpt lat="43.42286" lon="2.24553">
        <ele>793.82012939</ele>
        <time>2022-07-10T10:06:37Z</time>
      </trkpt>
      <trkpt lat="43.42283" lon="2.24553">
        <ele>793.82012939</ele>
        <time>2022-07-10T10:06:38Z</time>
      </trkpt>
      <trkpt lat="43.4228" lon="2.24552">
        <ele>793.76013184</ele>
        <time>2022-07-10T10:06:39Z</time>
      </trkpt>
      <trkpt lat="43.42277" lon="2.24551">
        <ele>793.7701416</ele>
        <time>2022-07-10T10:06:40Z</time>
      </trkpt>
      <trkpt lat="43.42272" lon="2.2455">
        <ele>793.83013916</ele>
        <time>2022-07-10T10:06:41Z</time>
      </trkpt>
      <trkpt lat="43.42269" lon="2.24549">
        <ele>793.65014648</ele>
        <time>2022-07-10T10:06:42Z</time>
      </trkpt>
      <trkpt lat="43.42266" lon="2.24549">
        <ele>793.59014893</ele>
        <time>2022-07-10T10:06:43Z</time>
      </trkpt>
      <trkpt lat="43.42263" lon="2.24548">
        <ele>793.45013428</ele>
        <time>2022-07-10T10:06:44Z</time>
      </trkpt>
      <trkpt lat="43.42259" lon="2.24546">
        <ele>793.18011475</ele>
        <time>2022-07-10T10:06:45Z</time>
      </trkpt>
      <trkpt lat="43.42257" lon="2.24545">
        <ele>793.07012939</ele>
        <time>2022-07-10T10:06:46Z</time>
      </trkpt>
      <trkpt lat="43.42254" lon="2.24543">
        <ele>792.88012695</ele>
        <time>2022-07-10T10:06:47Z</time>
      </trkpt>
      <trkpt lat="43.42252" lon="2.24542">
        <ele>792.67010498</ele>
        <time>2022-07-10T10:06:48Z</time>
      </trkpt>
      <trkpt lat="43.4225" lon="2.24539">
        <ele>792.51013184</ele>
        <time>2022-07-10T10:06:49Z</time>
      </trkpt>
      <trkpt lat="43.42246" lon="2.24536">
        <ele>792.14013672</ele>
        <time>2022-07-10T10:06:50Z</time>
      </trkpt>
      <trkpt lat="43.42244" lon="2.24533">
        <ele>791.84014893</ele>
        <time>2022-07-10T10:06:51Z</time>
      </trkpt>
      <trkpt lat="43.42242" lon="2.24529">
        <ele>791.50012207</ele>
        <time>2022-07-10T10:06:52Z</time>
      </trkpt>
      <trkpt lat="43.4224" lon="2.24527">
        <ele>790.9901123</ele>
        <time>2022-07-10T10:06:53Z</time>
      </trkpt>
      <trkpt lat="43.42238" lon="2.24522">
        <ele>790.69012451</ele>
        <time>2022-07-10T10:06:54Z</time>
      </trkpt>
      <trkpt lat="43.42238" lon="2.24519">
        <ele>790.18011475</ele>
        <time>2022-07-10T10:06:55Z</time>
      </trkpt>
      <trkpt lat="43.42237" lon="2.24516">
        <ele>789.68011475</ele>
        <time>2022-07-10T10:06:56Z</time>
      </trkpt>
      <trkpt lat="43.42236" lon="2.24513">
        <ele>789.34008789</ele>
        <time>2022-07-10T10:06:57Z</time>
      </trkpt>
      <trkpt lat="43.42237" lon="2.24511">
        <ele>789.13006592</ele>
        <time>2022-07-10T10:06:58Z</time>
      </trkpt>
      <trkpt lat="43.42235" lon="2.24508">
        <ele>788.95007324</ele>
        <time>2022-07-10T10:06:59Z</time>
      </trkpt>
      <trkpt lat="43.42234" lon="2.24506">
        <ele>788.81005859</ele>
        <time>2022-07-10T10:07:00Z</time>
      </trkpt>
      <trkpt lat="43.42232" lon="2.24503">
        <ele>788.55004883</ele>
        <time>2022-07-10T10:07:01Z</time>
      </trkpt>
      <trkpt lat="43.42229" lon="2.24499">
        <ele>788.07006836</ele>
        <time>2022-07-10T10:07:02Z</time>
      </trkpt>
      <trkpt lat="43.42226" lon="2.24493">
        <ele>787.55004883</ele>
        <time>2022-07-10T10:07:03Z</time>
      </trkpt>
      <trkpt lat="43.42223" lon="2.24489">
        <ele>786.99005127</ele>
        <time>2022-07-10T10:07:04Z</time>
      </trkpt>
      <trkpt lat="43.42221" lon="2.24484">
        <ele>786.7800293</ele>
        <time>2022-07-10T10:07:05Z</time>
      </trkpt>
      <trkpt lat="43.42219" lon="2.2448">
        <ele>786.33001709</ele>
        <time>2022-07-10T10:07:06Z</time>
      </trkpt>
      <trkpt lat="43.42214" lon="2.24471">
        <ele>785.97003174</ele>
        <time>2022-07-10T10:07:07Z</time>
      </trkpt>
      <trkpt lat="43.4221" lon="2.24466">
        <ele>785.79003906</ele>
        <time>2022-07-10T10:07:08Z</time>
      </trkpt>
      <trkpt lat="43.42206" lon="2.2446">
        <ele>785.83001709</ele>
        <time>2022-07-10T10:07:09Z</time>
      </trkpt>
      <trkpt lat="43.42202" lon="2.24455">
        <ele>785.5</ele>
        <time>2022-07-10T10:07:10Z</time>
      </trkpt>
      <trkpt lat="43.42199" lon="2.24451">
        <ele>785.15997314</ele>
        <time>2022-07-10T10:07:11Z</time>
      </trkpt>
      <trkpt lat="43.42194" lon="2.24443">
        <ele>784.72998047</ele>
        <time>2022-07-10T10:07:12Z</time>
      </trkpt>
      <trkpt lat="43.42194" lon="2.24441">
        <ele>784.5</ele>
        <time>2022-07-10T10:07:13Z</time>
      </trkpt>
      <trkpt lat="43.42194" lon="2.2444">
        <ele>784.28997803</ele>
        <time>2022-07-10T10:07:14Z</time>
      </trkpt>
      <trkpt lat="43.42191" lon="2.24429">
        <ele>784.53997803</ele>
        <time>2022-07-10T10:07:26Z</time>
      </trkpt>
      <trkpt lat="43.42189" lon="2.24428">
        <ele>783.9699707</ele>
        <time>2022-07-10T10:07:27Z</time>
      </trkpt>
      <trkpt lat="43.42187" lon="2.24426">
        <ele>783.59997559</ele>
        <time>2022-07-10T10:07:28Z</time>
      </trkpt>
      <trkpt lat="43.42185" lon="2.24424">
        <ele>783.23999023</ele>
        <time>2022-07-10T10:07:29Z</time>
      </trkpt>
      <trkpt lat="43.4218" lon="2.2442">
        <ele>782.95996094</ele>
        <time>2022-07-10T10:07:30Z</time>
      </trkpt>
      <trkpt lat="43.42177" lon="2.24419">
        <ele>782.68994141</ele>
        <time>2022-07-10T10:07:31Z</time>
      </trkpt>
      <trkpt lat="43.42175" lon="2.24416">
        <ele>782.35992432</ele>
        <time>2022-07-10T10:07:32Z</time>
      </trkpt>
      <trkpt lat="43.42171" lon="2.24414">
        <ele>782.00994873</ele>
        <time>2022-07-10T10:07:33Z</time>
      </trkpt>
      <trkpt lat="43.42165" lon="2.24411">
        <ele>781.45996094</ele>
        <time>2022-07-10T10:07:34Z</time>
      </trkpt>
      <trkpt lat="43.42161" lon="2.2441">
        <ele>780.90997314</ele>
        <time>2022-07-10T10:07:35Z</time>
      </trkpt>
      <trkpt lat="43.42157" lon="2.24409">
        <ele>780.02996826</ele>
        <time>2022-07-10T10:07:36Z</time>
      </trkpt>
      <trkpt lat="43.42153" lon="2.24408">
        <ele>779.19995117</ele>
        <time>2022-07-10T10:07:37Z</time>
      </trkpt>
      <trkpt lat="43.42149" lon="2.24406">
        <ele>778.54992676</ele>
        <time>2022-07-10T10:07:38Z</time>
      </trkpt>
      <trkpt lat="43.42143" lon="2.24404">
        <ele>778.02990723</ele>
        <time>2022-07-10T10:07:39Z</time>
      </trkpt>
      <trkpt lat="43.42139" lon="2.24402">
        <ele>777.56988525</ele>
        <time>2022-07-10T10:07:40Z</time>
      </trkpt>
      <trkpt lat="43.42135" lon="2.244">
        <ele>777.14990234</ele>
        <time>2022-07-10T10:07:41Z</time>
      </trkpt>
      <trkpt lat="43.42131" lon="2.24397">
        <ele>776.49987793</ele>
        <time>2022-07-10T10:07:42Z</time>
      </trkpt>
      <trkpt lat="43.42128" lon="2.24393">
        <ele>775.7598877</ele>
        <time>2022-07-10T10:07:43Z</time>
      </trkpt>
      <trkpt lat="43.42122" lon="2.24388">
        <ele>775.32989502</ele>
        <time>2022-07-10T10:07:44Z</time>
      </trkpt>
      <trkpt lat="43.42119" lon="2.24384">
        <ele>774.9598999</ele>
        <time>2022-07-10T10:07:45Z</time>
      </trkpt>
      <trkpt lat="43.42115" lon="2.2438">
        <ele>774.60992432</ele>
        <time>2022-07-10T10:07:46Z</time>
      </trkpt>
      <trkpt lat="43.42111" lon="2.24375">
        <ele>774.27990723</ele>
        <time>2022-07-10T10:07:47Z</time>
      </trkpt>
      <trkpt lat="43.42108" lon="2.2437">
        <ele>773.76989746</ele>
        <time>2022-07-10T10:07:48Z</time>
      </trkpt>
      <trkpt lat="43.42105" lon="2.24366">
        <ele>773.56988525</ele>
        <time>2022-07-10T10:07:49Z</time>
      </trkpt>
      <trkpt lat="43.42102" lon="2.24361">
        <ele>773.14990234</ele>
        <time>2022-07-10T10:07:50Z</time>
      </trkpt>
      <trkpt lat="43.42099" lon="2.24356">
        <ele>772.69989014</ele>
        <time>2022-07-10T10:07:51Z</time>
      </trkpt>
      <trkpt lat="43.42094" lon="2.24348">
        <ele>772.27990723</ele>
        <time>2022-07-10T10:07:52Z</time>
      </trkpt>
      <trkpt lat="43.42091" lon="2.24342">
        <ele>771.54992676</ele>
        <time>2022-07-10T10:07:53Z</time>
      </trkpt>
      <trkpt lat="43.42087" lon="2.24337">
        <ele>770.97991943</ele>
        <time>2022-07-10T10:07:54Z</time>
      </trkpt>
      <trkpt lat="43.42084" lon="2.24332">
        <ele>770.74993896</ele>
        <time>2022-07-10T10:07:55Z</time>
      </trkpt>
      <trkpt lat="43.4208" lon="2.24327">
        <ele>770.2699585</ele>
        <time>2022-07-10T10:07:56Z</time>
      </trkpt>
      <trkpt lat="43.42075" lon="2.24319">
        <ele>769.84997559</ele>
        <time>2022-07-10T10:07:57Z</time>
      </trkpt>
      <trkpt lat="43.42071" lon="2.24314">
        <ele>769.35998535</ele>
        <time>2022-07-10T10:07:58Z</time>
      </trkpt>
      <trkpt lat="43.42067" lon="2.2431">
        <ele>768.4699707</ele>
        <time>2022-07-10T10:07:59Z</time>
      </trkpt>
      <trkpt lat="43.42062" lon="2.24307">
        <ele>767.97998047</ele>
        <time>2022-07-10T10:08:00Z</time>
      </trkpt>
      <trkpt lat="43.42058" lon="2.24302">
        <ele>767.38995361</ele>
        <time>2022-07-10T10:08:01Z</time>
      </trkpt>
      <trkpt lat="43.4205" lon="2.24296">
        <ele>766.93994141</ele>
        <time>2022-07-10T10:08:02Z</time>
      </trkpt>
      <trkpt lat="43.42046" lon="2.24292">
        <ele>766.58996582</ele>
        <time>2022-07-10T10:08:03Z</time>
      </trkpt>
      <trkpt lat="43.42042" lon="2.24287">
        <ele>766.06994629</ele>
        <time>2022-07-10T10:08:04Z</time>
      </trkpt>
      <trkpt lat="43.42037" lon="2.24282">
        <ele>765.79992676</ele>
        <time>2022-07-10T10:08:05Z</time>
      </trkpt>
      <trkpt lat="43.42033" lon="2.24278">
        <ele>765.65991211</ele>
        <time>2022-07-10T10:08:06Z</time>
      </trkpt>
      <trkpt lat="43.42029" lon="2.24277">
        <ele>765.4598999</ele>
        <time>2022-07-10T10:08:07Z</time>
      </trkpt>
      <trkpt lat="43.42026" lon="2.24276">
        <ele>765.4598999</ele>
        <time>2022-07-10T10:08:08Z</time>
      </trkpt>
      <trkpt lat="43.42022" lon="2.24275">
        <ele>765.68988037</ele>
        <time>2022-07-10T10:08:09Z</time>
      </trkpt>
      <trkpt lat="43.42019" lon="2.24274">
        <ele>765.62988281</ele>
        <time>2022-07-10T10:08:10Z</time>
      </trkpt>
      <trkpt lat="43.42015" lon="2.24272">
        <ele>765.63989258</ele>
        <time>2022-07-10T10:08:11Z</time>
      </trkpt>
      <trkpt lat="43.42012" lon="2.24271">
        <ele>765.80987549</ele>
        <time>2022-07-10T10:08:12Z</time>
      </trkpt>
      <trkpt lat="43.42008" lon="2.24269">
        <ele>765.96984863</ele>
        <time>2022-07-10T10:08:13Z</time>
      </trkpt>
      <trkpt lat="43.42006" lon="2.24267">
        <ele>766.07983398</ele>
        <time>2022-07-10T10:08:14Z</time>
      </trkpt>
      <trkpt lat="43.42001" lon="2.24263">
        <ele>766.25982666</ele>
        <time>2022-07-10T10:08:15Z</time>
      </trkpt>
      <trkpt lat="43.41999" lon="2.2426">
        <ele>766.24981689</ele>
        <time>2022-07-10T10:08:16Z</time>
      </trkpt>
      <trkpt lat="43.41997" lon="2.24257">
        <ele>766.35980225</ele>
        <time>2022-07-10T10:08:17Z</time>
      </trkpt>
      <trkpt lat="43.41995" lon="2.24254">
        <ele>766.4697876</ele>
        <time>2022-07-10T10:08:18Z</time>
      </trkpt>
      <trkpt lat="43.41991" lon="2.2425">
        <ele>766.47979736</ele>
        <time>2022-07-10T10:08:19Z</time>
      </trkpt>
      <trkpt lat="43.41989" lon="2.24248">
        <ele>766.58978271</ele>
        <time>2022-07-10T10:08:20Z</time>
      </trkpt>
      <trkpt lat="43.41987" lon="2.24245">
        <ele>766.61981201</ele>
        <time>2022-07-10T10:08:21Z</time>
      </trkpt>
      <trkpt lat="43.41985" lon="2.24243">
        <ele>766.62982178</ele>
        <time>2022-07-10T10:08:22Z</time>
      </trkpt>
      <trkpt lat="43.41983" lon="2.24241">
        <ele>766.77984619</ele>
        <time>2022-07-10T10:08:23Z</time>
      </trkpt>
      <trkpt lat="43.41979" lon="2.24239">
        <ele>766.82983398</ele>
        <time>2022-07-10T10:08:24Z</time>
      </trkpt>
      <trkpt lat="43.41977" lon="2.24237">
        <ele>766.9798584</ele>
        <time>2022-07-10T10:08:25Z</time>
      </trkpt>
      <trkpt lat="43.41975" lon="2.24235">
        <ele>767.07983398</ele>
        <time>2022-07-10T10:08:26Z</time>
      </trkpt>
      <trkpt lat="43.41973" lon="2.24234">
        <ele>767.12982178</ele>
        <time>2022-07-10T10:08:27Z</time>
      </trkpt>
      <trkpt lat="43.4197" lon="2.24232">
        <ele>767.29980469</ele>
        <time>2022-07-10T10:08:28Z</time>
      </trkpt>
      <trkpt lat="43.41966" lon="2.24229">
        <ele>767.49981689</ele>
        <time>2022-07-10T10:08:29Z</time>
      </trkpt>
      <trkpt lat="43.41963" lon="2.24228">
        <ele>767.73980713</ele>
        <time>2022-07-10T10:08:30Z</time>
      </trkpt>
      <trkpt lat="43.41961" lon="2.24226">
        <ele>768.03979492</ele>
        <time>2022-07-10T10:08:31Z</time>
      </trkpt>
      <trkpt lat="43.41959" lon="2.24225">
        <ele>768.31982422</ele>
        <time>2022-07-10T10:08:32Z</time>
      </trkpt>
      <trkpt lat="43.41955" lon="2.24223">
        <ele>768.54980469</ele>
        <time>2022-07-10T10:08:33Z</time>
      </trkpt>
      <trkpt lat="43.41953" lon="2.24222">
        <ele>768.81982422</ele>
        <time>2022-07-10T10:08:34Z</time>
      </trkpt>
      <trkpt lat="43.4195" lon="2.2422">
        <ele>768.98980713</ele>
        <time>2022-07-10T10:08:35Z</time>
      </trkpt>
      <trkpt lat="43.41948" lon="2.24219">
        <ele>769.15979004</ele>
        <time>2022-07-10T10:08:36Z</time>
      </trkpt>
      <trkpt lat="43.41945" lon="2.24217">
        <ele>769.40979004</ele>
        <time>2022-07-10T10:08:37Z</time>
      </trkpt>
      <trkpt lat="43.41942" lon="2.24216">
        <ele>769.68981934</ele>
        <time>2022-07-10T10:08:38Z</time>
      </trkpt>
      <trkpt lat="43.4194" lon="2.24216">
        <ele>769.98980713</ele>
        <time>2022-07-10T10:08:39Z</time>
      </trkpt>
      <trkpt lat="43.41938" lon="2.24215">
        <ele>770.25982666</ele>
        <time>2022-07-10T10:08:40Z</time>
      </trkpt>
      <trkpt lat="43.41935" lon="2.24216">
        <ele>770.33984375</ele>
        <time>2022-07-10T10:08:41Z</time>
      </trkpt>
      <trkpt lat="43.41932" lon="2.24217">
        <ele>770.51983643</ele>
        <time>2022-07-10T10:08:42Z</time>
      </trkpt>
      <trkpt lat="43.41929" lon="2.24216">
        <ele>770.67980957</ele>
        <time>2022-07-10T10:08:43Z</time>
      </trkpt>
      <trkpt lat="43.41928" lon="2.24216">
        <ele>770.87982178</ele>
        <time>2022-07-10T10:08:44Z</time>
      </trkpt>
      <trkpt lat="43.41926" lon="2.24216">
        <ele>771.22979736</ele>
        <time>2022-07-10T10:08:45Z</time>
      </trkpt>
      <trkpt lat="43.41924" lon="2.24216">
        <ele>771.55981445</ele>
        <time>2022-07-10T10:08:46Z</time>
      </trkpt>
      <trkpt lat="43.41921" lon="2.24216">
        <ele>771.88983154</ele>
        <time>2022-07-10T10:08:47Z</time>
      </trkpt>
      <trkpt lat="43.41919" lon="2.24217">
        <ele>772.21984863</ele>
        <time>2022-07-10T10:08:48Z</time>
      </trkpt>
      <trkpt lat="43.41918" lon="2.24217">
        <ele>772.53985596</ele>
        <time>2022-07-10T10:08:49Z</time>
      </trkpt>
      <trkpt lat="43.41916" lon="2.24218">
        <ele>772.76983643</ele>
        <time>2022-07-10T10:08:50Z</time>
      </trkpt>
      <trkpt lat="43.41914" lon="2.2422">
        <ele>773.04986572</ele>
        <time>2022-07-10T10:08:51Z</time>
      </trkpt>
      <trkpt lat="43.41912" lon="2.2422">
        <ele>773.28985596</ele>
        <time>2022-07-10T10:08:52Z</time>
      </trkpt>
      <trkpt lat="43.4191" lon="2.24221">
        <ele>773.4798584</ele>
        <time>2022-07-10T10:08:53Z</time>
      </trkpt>
      <trkpt lat="43.41909" lon="2.24221">
        <ele>773.7298584</ele>
        <time>2022-07-10T10:08:54Z</time>
      </trkpt>
      <trkpt lat="43.41907" lon="2.24222">
        <ele>773.9498291</ele>
        <time>2022-07-10T10:08:55Z</time>
      </trkpt>
      <trkpt lat="43.41905" lon="2.24223">
        <ele>774.21984863</ele>
        <time>2022-07-10T10:08:56Z</time>
      </trkpt>
      <trkpt lat="43.41904" lon="2.24224">
        <ele>774.39984131</ele>
        <time>2022-07-10T10:08:57Z</time>
      </trkpt>
      <trkpt lat="43.41902" lon="2.24225">
        <ele>774.63983154</ele>
        <time>2022-07-10T10:08:58Z</time>
      </trkpt>
      <trkpt lat="43.41901" lon="2.24225">
        <ele>774.89984131</ele>
        <time>2022-07-10T10:08:59Z</time>
      </trkpt>
      <trkpt lat="43.41899" lon="2.24226">
        <ele>775.14984131</ele>
        <time>2022-07-10T10:09:00Z</time>
      </trkpt>
      <trkpt lat="43.41897" lon="2.24227">
        <ele>775.56982422</ele>
        <time>2022-07-10T10:09:01Z</time>
      </trkpt>
      <trkpt lat="43.41896" lon="2.24228">
        <ele>775.90985107</ele>
        <time>2022-07-10T10:09:02Z</time>
      </trkpt>
      <trkpt lat="43.41894" lon="2.2423">
        <ele>776.24987793</ele>
        <time>2022-07-10T10:09:03Z</time>
      </trkpt>
      <trkpt lat="43.41893" lon="2.2423">
        <ele>776.55987549</ele>
        <time>2022-07-10T10:09:04Z</time>
      </trkpt>
      <trkpt lat="43.41891" lon="2.24232">
        <ele>776.76989746</ele>
        <time>2022-07-10T10:09:05Z</time>
      </trkpt>
      <trkpt lat="43.41889" lon="2.24233">
        <ele>776.99987793</ele>
        <time>2022-07-10T10:09:06Z</time>
      </trkpt>
      <trkpt lat="43.41887" lon="2.24234">
        <ele>777.2098999</ele>
        <time>2022-07-10T10:09:07Z</time>
      </trkpt>
      <trkpt lat="43.41885" lon="2.24235">
        <ele>777.4899292</ele>
        <time>2022-07-10T10:09:08Z</time>
      </trkpt>
      <trkpt lat="43.41883" lon="2.24238">
        <ele>777.83990479</ele>
        <time>2022-07-10T10:09:09Z</time>
      </trkpt>
      <trkpt lat="43.41881" lon="2.24239">
        <ele>778.21990967</ele>
        <time>2022-07-10T10:09:10Z</time>
      </trkpt>
      <trkpt lat="43.4188" lon="2.2424">
        <ele>778.52990723</ele>
        <time>2022-07-10T10:09:11Z</time>
      </trkpt>
      <trkpt lat="43.41878" lon="2.24241">
        <ele>778.7098999</ele>
        <time>2022-07-10T10:09:12Z</time>
      </trkpt>
      <trkpt lat="43.41877" lon="2.24242">
        <ele>779.02990723</ele>
        <time>2022-07-10T10:09:13Z</time>
      </trkpt>
      <trkpt lat="43.41876" lon="2.24244">
        <ele>779.24987793</ele>
        <time>2022-07-10T10:09:14Z</time>
      </trkpt>
      <trkpt lat="43.41875" lon="2.24246">
        <ele>779.57989502</ele>
        <time>2022-07-10T10:09:15Z</time>
      </trkpt>
      <trkpt lat="43.41874" lon="2.24247">
        <ele>780.10992432</ele>
        <time>2022-07-10T10:09:16Z</time>
      </trkpt>
      <trkpt lat="43.41872" lon="2.24249">
        <ele>780.36993408</ele>
        <time>2022-07-10T10:09:17Z</time>
      </trkpt>
      <trkpt lat="43.41871" lon="2.24251">
        <ele>780.69995117</ele>
        <time>2022-07-10T10:09:18Z</time>
      </trkpt>
      <trkpt lat="43.4187" lon="2.24253">
        <ele>781.0199585</ele>
        <time>2022-07-10T10:09:19Z</time>
      </trkpt>
      <trkpt lat="43.41868" lon="2.24256">
        <ele>781.18994141</ele>
        <time>2022-07-10T10:09:20Z</time>
      </trkpt>
      <trkpt lat="43.41868" lon="2.24258">
        <ele>781.4699707</ele>
        <time>2022-07-10T10:09:21Z</time>
      </trkpt>
      <trkpt lat="43.41868" lon="2.24263">
        <ele>781.80999756</ele>
        <time>2022-07-10T10:09:22Z</time>
      </trkpt>
      <trkpt lat="43.41868" lon="2.24265">
        <ele>782.05999756</ele>
        <time>2022-07-10T10:09:23Z</time>
      </trkpt>
      <trkpt lat="43.41869" lon="2.24267">
        <ele>782.39001465</ele>
        <time>2022-07-10T10:09:24Z</time>
      </trkpt>
      <trkpt lat="43.4187" lon="2.24268">
        <ele>782.72003174</ele>
        <time>2022-07-10T10:09:25Z</time>
      </trkpt>
      <trkpt lat="43.41871" lon="2.24269">
        <ele>783.0300293</ele>
        <time>2022-07-10T10:09:26Z</time>
      </trkpt>
      <trkpt lat="43.41873" lon="2.24271">
        <ele>783.41003418</ele>
        <time>2022-07-10T10:09:27Z</time>
      </trkpt>
      <trkpt lat="43.41873" lon="2.24272">
        <ele>783.75006104</ele>
        <time>2022-07-10T10:09:28Z</time>
      </trkpt>
      <trkpt lat="43.41875" lon="2.24274">
        <ele>784.03009033</ele>
        <time>2022-07-10T10:09:29Z</time>
      </trkpt>
      <trkpt lat="43.41875" lon="2.24276">
        <ele>784.23010254</ele>
        <time>2022-07-10T10:09:30Z</time>
      </trkpt>
      <trkpt lat="43.41877" lon="2.2428">
        <ele>784.65008545</ele>
        <time>2022-07-10T10:09:31Z</time>
      </trkpt>
      <trkpt lat="43.41877" lon="2.24282">
        <ele>784.90008545</ele>
        <time>2022-07-10T10:09:32Z</time>
      </trkpt>
      <trkpt lat="43.41877" lon="2.24283">
        <ele>785.14007568</ele>
        <time>2022-07-10T10:09:33Z</time>
      </trkpt>
      <trkpt lat="43.41877" lon="2.24285">
        <ele>785.68005371</ele>
        <time>2022-07-10T10:09:34Z</time>
      </trkpt>
      <trkpt lat="43.41877" lon="2.24286">
        <ele>785.83007812</ele>
        <time>2022-07-10T10:09:35Z</time>
      </trkpt>
      <trkpt lat="43.41875" lon="2.24287">
        <ele>786.19006348</ele>
        <time>2022-07-10T10:09:36Z</time>
      </trkpt>
      <trkpt lat="43.41874" lon="2.24288">
        <ele>786.50006104</ele>
        <time>2022-07-10T10:09:37Z</time>
      </trkpt>
      <trkpt lat="43.41873" lon="2.2429">
        <ele>786.65008545</ele>
        <time>2022-07-10T10:09:38Z</time>
      </trkpt>
      <trkpt lat="43.41872" lon="2.24291">
        <ele>786.93011475</ele>
        <time>2022-07-10T10:09:39Z</time>
      </trkpt>
      <trkpt lat="43.4187" lon="2.24292">
        <ele>787.14013672</ele>
        <time>2022-07-10T10:09:40Z</time>
      </trkpt>
      <trkpt lat="43.41868" lon="2.24295">
        <ele>787.43011475</ele>
        <time>2022-07-10T10:09:41Z</time>
      </trkpt>
      <trkpt lat="43.41866" lon="2.24296">
        <ele>787.65008545</ele>
        <time>2022-07-10T10:09:42Z</time>
      </trkpt>
      <trkpt lat="43.41865" lon="2.24298">
        <ele>787.86010742</ele>
        <time>2022-07-10T10:09:43Z</time>
      </trkpt>
      <trkpt lat="43.41864" lon="2.24298">
        <ele>788.10009766</ele>
        <time>2022-07-10T10:09:44Z</time>
      </trkpt>
      <trkpt lat="43.41862" lon="2.243">
        <ele>788.41009521</ele>
        <time>2022-07-10T10:09:45Z</time>
      </trkpt>
      <trkpt lat="43.41861" lon="2.24301">
        <ele>788.64007568</ele>
        <time>2022-07-10T10:09:46Z</time>
      </trkpt>
      <trkpt lat="43.4186" lon="2.24301">
        <ele>788.94006348</ele>
        <time>2022-07-10T10:09:47Z</time>
      </trkpt>
      <trkpt lat="43.41859" lon="2.24302">
        <ele>789.2600708</ele>
        <time>2022-07-10T10:09:48Z</time>
      </trkpt>
      <trkpt lat="43.41857" lon="2.24304">
        <ele>789.5100708</ele>
        <time>2022-07-10T10:09:49Z</time>
      </trkpt>
      <trkpt lat="43.41856" lon="2.24306">
        <ele>789.77008057</ele>
        <time>2022-07-10T10:09:50Z</time>
      </trkpt>
      <trkpt lat="43.41855" lon="2.24307">
        <ele>790.00006104</ele>
        <time>2022-07-10T10:09:51Z</time>
      </trkpt>
      <trkpt lat="43.41854" lon="2.24309">
        <ele>790.28009033</ele>
        <time>2022-07-10T10:09:52Z</time>
      </trkpt>
      <trkpt lat="43.41853" lon="2.24311">
        <ele>790.5100708</ele>
        <time>2022-07-10T10:09:53Z</time>
      </trkpt>
      <trkpt lat="43.41852" lon="2.24312">
        <ele>790.74005127</ele>
        <time>2022-07-10T10:09:54Z</time>
      </trkpt>
      <trkpt lat="43.4185" lon="2.24314">
        <ele>791.00006104</ele>
        <time>2022-07-10T10:09:55Z</time>
      </trkpt>
      <trkpt lat="43.41849" lon="2.24316">
        <ele>791.20007324</ele>
        <time>2022-07-10T10:09:56Z</time>
      </trkpt>
      <trkpt lat="43.41847" lon="2.24318">
        <ele>791.42004395</ele>
        <time>2022-07-10T10:09:57Z</time>
      </trkpt>
      <trkpt lat="43.41845" lon="2.24322">
        <ele>791.68005371</ele>
        <time>2022-07-10T10:09:58Z</time>
      </trkpt>
      <trkpt lat="43.41844" lon="2.24324">
        <ele>791.91003418</ele>
        <time>2022-07-10T10:09:59Z</time>
      </trkpt>
      <trkpt lat="43.41843" lon="2.24327">
        <ele>792.16003418</ele>
        <time>2022-07-10T10:10:00Z</time>
      </trkpt>
      <trkpt lat="43.41842" lon="2.24329">
        <ele>792.35003662</ele>
        <time>2022-07-10T10:10:01Z</time>
      </trkpt>
      <trkpt lat="43.41843" lon="2.24331">
        <ele>792.47003174</ele>
        <time>2022-07-10T10:10:02Z</time>
      </trkpt>
      <trkpt lat="43.41842" lon="2.24334">
        <ele>792.59002686</ele>
        <time>2022-07-10T10:10:03Z</time>
      </trkpt>
      <trkpt lat="43.41841" lon="2.24335">
        <ele>792.68005371</ele>
        <time>2022-07-10T10:10:04Z</time>
      </trkpt>
      <trkpt lat="43.41841" lon="2.24337">
        <ele>792.88006592</ele>
        <time>2022-07-10T10:10:05Z</time>
      </trkpt>
      <trkpt lat="43.4184" lon="2.24341">
        <ele>793.10003662</ele>
        <time>2022-07-10T10:10:06Z</time>
      </trkpt>
      <trkpt lat="43.41839" lon="2.24344">
        <ele>793.33001709</ele>
        <time>2022-07-10T10:10:07Z</time>
      </trkpt>
      <trkpt lat="43.41838" lon="2.24348">
        <ele>793.57000732</ele>
        <time>2022-07-10T10:10:08Z</time>
      </trkpt>
      <trkpt lat="43.41837" lon="2.24352">
        <ele>793.52001953</ele>
        <time>2022-07-10T10:10:09Z</time>
      </trkpt>
      <trkpt lat="43.41836" lon="2.24354">
        <ele>793.71002197</ele>
        <time>2022-07-10T10:10:10Z</time>
      </trkpt>
      <trkpt lat="43.41834" lon="2.24357">
        <ele>793.94000244</ele>
        <time>2022-07-10T10:10:11Z</time>
      </trkpt>
      <trkpt lat="43.41833" lon="2.24361">
        <ele>794.19000244</ele>
        <time>2022-07-10T10:10:12Z</time>
      </trkpt>
      <trkpt lat="43.41831" lon="2.24363">
        <ele>794.47003174</ele>
        <time>2022-07-10T10:10:13Z</time>
      </trkpt>
      <trkpt lat="43.41831" lon="2.24365">
        <ele>794.75006104</ele>
        <time>2022-07-10T10:10:14Z</time>
      </trkpt>
      <trkpt lat="43.4183" lon="2.24367">
        <ele>795.00006104</ele>
        <time>2022-07-10T10:10:15Z</time>
      </trkpt>
      <trkpt lat="43.41829" lon="2.2437">
        <ele>795.22003174</ele>
        <time>2022-07-10T10:10:16Z</time>
      </trkpt>
      <trkpt lat="43.41828" lon="2.24373">
        <ele>795.55004883</ele>
        <time>2022-07-10T10:10:17Z</time>
      </trkpt>
      <trkpt lat="43.41827" lon="2.24375">
        <ele>795.83007812</ele>
        <time>2022-07-10T10:10:18Z</time>
      </trkpt>
      <trkpt lat="43.41825" lon="2.24377">
        <ele>796.16009521</ele>
        <time>2022-07-10T10:10:19Z</time>
      </trkpt>
      <trkpt lat="43.41825" lon="2.24379">
        <ele>796.48010254</ele>
        <time>2022-07-10T10:10:20Z</time>
      </trkpt>
      <trkpt lat="43.41822" lon="2.24382">
        <ele>796.75012207</ele>
        <time>2022-07-10T10:10:21Z</time>
      </trkpt>
      <trkpt lat="43.41821" lon="2.24384">
        <ele>797.05010986</ele>
        <time>2022-07-10T10:10:22Z</time>
      </trkpt>
      <trkpt lat="43.4182" lon="2.24386">
        <ele>797.33013916</ele>
        <time>2022-07-10T10:10:23Z</time>
      </trkpt>
      <trkpt lat="43.41819" lon="2.24388">
        <ele>797.59014893</ele>
        <time>2022-07-10T10:10:24Z</time>
      </trkpt>
      <trkpt lat="43.41818" lon="2.2439">
        <ele>797.7701416</ele>
        <time>2022-07-10T10:10:25Z</time>
      </trkpt>
      <trkpt lat="43.41817" lon="2.24391">
        <ele>797.98016357</ele>
        <time>2022-07-10T10:10:26Z</time>
      </trkpt>
      <trkpt lat="43.41816" lon="2.24393">
        <ele>798.15014648</ele>
        <time>2022-07-10T10:10:27Z</time>
      </trkpt>
      <trkpt lat="43.41815" lon="2.24396">
        <ele>798.35015869</ele>
        <time>2022-07-10T10:10:28Z</time>
      </trkpt>
      <trkpt lat="43.41814" lon="2.24399">
        <ele>798.60015869</ele>
        <time>2022-07-10T10:10:29Z</time>
      </trkpt>
      <trkpt lat="43.41812" lon="2.24402">
        <ele>798.83013916</ele>
        <time>2022-07-10T10:10:30Z</time>
      </trkpt>
      <trkpt lat="43.4181" lon="2.24403">
        <ele>799.08013916</ele>
        <time>2022-07-10T10:10:31Z</time>
      </trkpt>
      <trkpt lat="43.41809" lon="2.24405">
        <ele>799.33013916</ele>
        <time>2022-07-10T10:10:32Z</time>
      </trkpt>
      <trkpt lat="43.41809" lon="2.24406">
        <ele>799.61016846</ele>
        <time>2022-07-10T10:10:33Z</time>
      </trkpt>
      <trkpt lat="43.41808" lon="2.24408">
        <ele>799.89019775</ele>
        <time>2022-07-10T10:10:34Z</time>
      </trkpt>
      <trkpt lat="43.41806" lon="2.24411">
        <ele>800.16021729</ele>
        <time>2022-07-10T10:10:35Z</time>
      </trkpt>
      <trkpt lat="43.41805" lon="2.24414">
        <ele>800.49023438</ele>
        <time>2022-07-10T10:10:36Z</time>
      </trkpt>
      <trkpt lat="43.41804" lon="2.24416">
        <ele>800.80023193</ele>
        <time>2022-07-10T10:10:37Z</time>
      </trkpt>
      <trkpt lat="43.41803" lon="2.24418">
        <ele>801.12023926</ele>
        <time>2022-07-10T10:10:38Z</time>
      </trkpt>
      <trkpt lat="43.41801" lon="2.24421">
        <ele>801.45025635</ele>
        <time>2022-07-10T10:10:39Z</time>
      </trkpt>
      <trkpt lat="43.418" lon="2.24424">
        <ele>801.72027588</ele>
        <time>2022-07-10T10:10:40Z</time>
      </trkpt>
      <trkpt lat="43.418" lon="2.24427">
        <ele>801.96026611</ele>
        <time>2022-07-10T10:10:41Z</time>
      </trkpt>
      <trkpt lat="43.41798" lon="2.24429">
        <ele>802.24029541</ele>
        <time>2022-07-10T10:10:42Z</time>
      </trkpt>
      <trkpt lat="43.41796" lon="2.24433">
        <ele>802.47027588</ele>
        <time>2022-07-10T10:10:43Z</time>
      </trkpt>
      <trkpt lat="43.41795" lon="2.24436">
        <ele>802.71026611</ele>
        <time>2022-07-10T10:10:44Z</time>
      </trkpt>
      <trkpt lat="43.41794" lon="2.24437">
        <ele>802.98028564</ele>
        <time>2022-07-10T10:10:45Z</time>
      </trkpt>
      <trkpt lat="43.41792" lon="2.24438">
        <ele>803.20025635</ele>
        <time>2022-07-10T10:10:46Z</time>
      </trkpt>
      <trkpt lat="43.41791" lon="2.2444">
        <ele>803.42022705</ele>
        <time>2022-07-10T10:10:47Z</time>
      </trkpt>
      <trkpt lat="43.4179" lon="2.24441">
        <ele>803.63024902</ele>
        <time>2022-07-10T10:10:48Z</time>
      </trkpt>
      <trkpt lat="43.41789" lon="2.24442">
        <ele>803.78027344</ele>
        <time>2022-07-10T10:10:49Z</time>
      </trkpt>
      <trkpt lat="43.41787" lon="2.24444">
        <ele>803.98028564</ele>
        <time>2022-07-10T10:10:50Z</time>
      </trkpt>
      <trkpt lat="43.41786" lon="2.24445">
        <ele>804.16027832</ele>
        <time>2022-07-10T10:10:51Z</time>
      </trkpt>
      <trkpt lat="43.41785" lon="2.24449">
        <ele>804.36029053</ele>
        <time>2022-07-10T10:10:52Z</time>
      </trkpt>
      <trkpt lat="43.41784" lon="2.2445">
        <ele>804.52026367</ele>
        <time>2022-07-10T10:10:53Z</time>
      </trkpt>
      <trkpt lat="43.41783" lon="2.24452">
        <ele>804.63024902</ele>
        <time>2022-07-10T10:10:54Z</time>
      </trkpt>
      <trkpt lat="43.41782" lon="2.24453">
        <ele>804.76025391</ele>
        <time>2022-07-10T10:10:55Z</time>
      </trkpt>
      <trkpt lat="43.41781" lon="2.24455">
        <ele>804.91027832</ele>
        <time>2022-07-10T10:10:56Z</time>
      </trkpt>
      <trkpt lat="43.41779" lon="2.24457">
        <ele>805.10028076</ele>
        <time>2022-07-10T10:10:57Z</time>
      </trkpt>
      <trkpt lat="43.41778" lon="2.24458">
        <ele>805.31030273</ele>
        <time>2022-07-10T10:10:58Z</time>
      </trkpt>
      <trkpt lat="43.41777" lon="2.2446">
        <ele>805.5402832</ele>
        <time>2022-07-10T10:10:59Z</time>
      </trkpt>
      <trkpt lat="43.41776" lon="2.24461">
        <ele>805.69030762</ele>
        <time>2022-07-10T10:11:00Z</time>
      </trkpt>
      <trkpt lat="43.41775" lon="2.24464">
        <ele>805.85028076</ele>
        <time>2022-07-10T10:11:01Z</time>
      </trkpt>
      <trkpt lat="43.41774" lon="2.24466">
        <ele>806.00030518</ele>
        <time>2022-07-10T10:11:02Z</time>
      </trkpt>
      <trkpt lat="43.41773" lon="2.24468">
        <ele>806.17028809</ele>
        <time>2022-07-10T10:11:03Z</time>
      </trkpt>
      <trkpt lat="43.41773" lon="2.2447">
        <ele>806.37030029</ele>
        <time>2022-07-10T10:11:04Z</time>
      </trkpt>
      <trkpt lat="43.41773" lon="2.24472">
        <ele>806.58032227</ele>
        <time>2022-07-10T10:11:05Z</time>
      </trkpt>
      <trkpt lat="43.41773" lon="2.24476">
        <ele>806.79034424</ele>
        <time>2022-07-10T10:11:06Z</time>
      </trkpt>
      <trkpt lat="43.41772" lon="2.24479">
        <ele>806.99035645</ele>
        <time>2022-07-10T10:11:07Z</time>
      </trkpt>
      <trkpt lat="43.41771" lon="2.24481">
        <ele>807.21032715</ele>
        <time>2022-07-10T10:11:08Z</time>
      </trkpt>
      <trkpt lat="43.41771" lon="2.24482">
        <ele>806.800354</ele>
        <time>2022-07-10T10:11:09Z</time>
      </trkpt>
      <trkpt lat="43.4177" lon="2.24483">
        <ele>807.02032471</ele>
        <time>2022-07-10T10:11:10Z</time>
      </trkpt>
      <trkpt lat="43.41768" lon="2.24486">
        <ele>807.27032471</ele>
        <time>2022-07-10T10:11:11Z</time>
      </trkpt>
      <trkpt lat="43.41767" lon="2.24487">
        <ele>807.47033691</ele>
        <time>2022-07-10T10:11:12Z</time>
      </trkpt>
      <trkpt lat="43.41766" lon="2.24489">
        <ele>807.70031738</ele>
        <time>2022-07-10T10:11:13Z</time>
      </trkpt>
      <trkpt lat="43.41765" lon="2.24491">
        <ele>807.89031982</ele>
        <time>2022-07-10T10:11:14Z</time>
      </trkpt>
      <trkpt lat="43.41764" lon="2.24494">
        <ele>808.08032227</ele>
        <time>2022-07-10T10:11:15Z</time>
      </trkpt>
      <trkpt lat="43.41763" lon="2.24495">
        <ele>808.33032227</ele>
        <time>2022-07-10T10:11:16Z</time>
      </trkpt>
      <trkpt lat="43.41761" lon="2.24497">
        <ele>808.55029297</ele>
        <time>2022-07-10T10:11:17Z</time>
      </trkpt>
      <trkpt lat="43.4176" lon="2.24499">
        <ele>808.840271</ele>
        <time>2022-07-10T10:11:18Z</time>
      </trkpt>
      <trkpt lat="43.41758" lon="2.24502">
        <ele>809.08026123</ele>
        <time>2022-07-10T10:11:19Z</time>
      </trkpt>
      <trkpt lat="43.41757" lon="2.24504">
        <ele>809.3102417</ele>
        <time>2022-07-10T10:11:20Z</time>
      </trkpt>
      <trkpt lat="43.41755" lon="2.24505">
        <ele>809.52026367</ele>
        <time>2022-07-10T10:11:21Z</time>
      </trkpt>
      <trkpt lat="43.41754" lon="2.24507">
        <ele>809.69024658</ele>
        <time>2022-07-10T10:11:22Z</time>
      </trkpt>
      <trkpt lat="43.41752" lon="2.24508">
        <ele>809.87023926</ele>
        <time>2022-07-10T10:11:23Z</time>
      </trkpt>
      <trkpt lat="43.4175" lon="2.24509">
        <ele>810.0302124</ele>
        <time>2022-07-10T10:11:24Z</time>
      </trkpt>
      <trkpt lat="43.41748" lon="2.2451">
        <ele>810.15020752</ele>
        <time>2022-07-10T10:11:25Z</time>
      </trkpt>
      <trkpt lat="43.41747" lon="2.24511">
        <ele>810.3302002</ele>
        <time>2022-07-10T10:11:26Z</time>
      </trkpt>
      <trkpt lat="43.41745" lon="2.24512">
        <ele>810.49017334</ele>
        <time>2022-07-10T10:11:27Z</time>
      </trkpt>
      <trkpt lat="43.41742" lon="2.24512">
        <ele>810.62017822</ele>
        <time>2022-07-10T10:11:28Z</time>
      </trkpt>
      <trkpt lat="43.41738" lon="2.24514">
        <ele>810.8001709</ele>
        <time>2022-07-10T10:11:29Z</time>
      </trkpt>
      <trkpt lat="43.41736" lon="2.24516">
        <ele>810.93017578</ele>
        <time>2022-07-10T10:11:30Z</time>
      </trkpt>
      <trkpt lat="43.41734" lon="2.24517">
        <ele>811.0802002</ele>
        <time>2022-07-10T10:11:31Z</time>
      </trkpt>
      <trkpt lat="43.41731" lon="2.24518">
        <ele>811.26019287</ele>
        <time>2022-07-10T10:11:32Z</time>
      </trkpt>
      <trkpt lat="43.41728" lon="2.2452">
        <ele>811.44018555</ele>
        <time>2022-07-10T10:11:33Z</time>
      </trkpt>
      <trkpt lat="43.41727" lon="2.2452">
        <ele>811.56018066</ele>
        <time>2022-07-10T10:11:34Z</time>
      </trkpt>
      <trkpt lat="43.41725" lon="2.24521">
        <ele>811.67016602</ele>
        <time>2022-07-10T10:11:35Z</time>
      </trkpt>
      <trkpt lat="43.41723" lon="2.24522">
        <ele>811.83013916</ele>
        <time>2022-07-10T10:11:36Z</time>
      </trkpt>
      <trkpt lat="43.4172" lon="2.24524">
        <ele>811.97015381</ele>
        <time>2022-07-10T10:11:37Z</time>
      </trkpt>
      <trkpt lat="43.41719" lon="2.24525">
        <ele>812.20013428</ele>
        <time>2022-07-10T10:11:38Z</time>
      </trkpt>
      <trkpt lat="43.41717" lon="2.24526">
        <ele>812.44012451</ele>
        <time>2022-07-10T10:11:39Z</time>
      </trkpt>
      <trkpt lat="43.41716" lon="2.24527">
        <ele>812.67010498</ele>
        <time>2022-07-10T10:11:40Z</time>
      </trkpt>
      <trkpt lat="43.41714" lon="2.24528">
        <ele>812.87011719</ele>
        <time>2022-07-10T10:11:41Z</time>
      </trkpt>
      <trkpt lat="43.41712" lon="2.24531">
        <ele>813.08013916</ele>
        <time>2022-07-10T10:11:42Z</time>
      </trkpt>
      <trkpt lat="43.4171" lon="2.24532">
        <ele>813.30010986</ele>
        <time>2022-07-10T10:11:43Z</time>
      </trkpt>
      <trkpt lat="43.41709" lon="2.24533">
        <ele>813.48010254</ele>
        <time>2022-07-10T10:11:44Z</time>
      </trkpt>
      <trkpt lat="43.41707" lon="2.24534">
        <ele>813.71008301</ele>
        <time>2022-07-10T10:11:45Z</time>
      </trkpt>
      <trkpt lat="43.41706" lon="2.24536">
        <ele>813.95007324</ele>
        <time>2022-07-10T10:11:46Z</time>
      </trkpt>
      <trkpt lat="43.41704" lon="2.24538">
        <ele>814.23010254</ele>
        <time>2022-07-10T10:11:47Z</time>
      </trkpt>
      <trkpt lat="43.41702" lon="2.24541">
        <ele>814.50012207</ele>
        <time>2022-07-10T10:11:48Z</time>
      </trkpt>
      <trkpt lat="43.417" lon="2.24542">
        <ele>814.7901001</ele>
        <time>2022-07-10T10:11:49Z</time>
      </trkpt>
      <trkpt lat="43.41699" lon="2.24543">
        <ele>814.95007324</ele>
        <time>2022-07-10T10:11:50Z</time>
      </trkpt>
      <trkpt lat="43.41697" lon="2.24545">
        <ele>815.16009521</ele>
        <time>2022-07-10T10:11:51Z</time>
      </trkpt>
      <trkpt lat="43.41696" lon="2.24546">
        <ele>815.39007568</ele>
        <time>2022-07-10T10:11:52Z</time>
      </trkpt>
      <trkpt lat="43.41695" lon="2.24547">
        <ele>815.52008057</ele>
        <time>2022-07-10T10:11:53Z</time>
      </trkpt>
      <trkpt lat="43.41694" lon="2.24548">
        <ele>815.7600708</ele>
        <time>2022-07-10T10:11:54Z</time>
      </trkpt>
      <trkpt lat="43.41692" lon="2.24548">
        <ele>815.96008301</ele>
        <time>2022-07-10T10:11:55Z</time>
      </trkpt>
      <trkpt lat="43.41691" lon="2.24551">
        <ele>816.25006104</ele>
        <time>2022-07-10T10:11:56Z</time>
      </trkpt>
      <trkpt lat="43.41689" lon="2.24552">
        <ele>816.63006592</ele>
        <time>2022-07-10T10:11:57Z</time>
      </trkpt>
      <trkpt lat="43.41688" lon="2.24553">
        <ele>816.9800415</ele>
        <time>2022-07-10T10:11:58Z</time>
      </trkpt>
      <trkpt lat="43.41686" lon="2.24554">
        <ele>817.27001953</ele>
        <time>2022-07-10T10:11:59Z</time>
      </trkpt>
      <trkpt lat="43.41684" lon="2.24556">
        <ele>817.5300293</ele>
        <time>2022-07-10T10:12:00Z</time>
      </trkpt>
      <trkpt lat="43.41683" lon="2.24557">
        <ele>817.77001953</ele>
        <time>2022-07-10T10:12:01Z</time>
      </trkpt>
      <trkpt lat="43.41681" lon="2.24558">
        <ele>818.05004883</ele>
        <time>2022-07-10T10:12:02Z</time>
      </trkpt>
      <trkpt lat="43.41679" lon="2.24559">
        <ele>818.33007812</ele>
        <time>2022-07-10T10:12:03Z</time>
      </trkpt>
      <trkpt lat="43.41677" lon="2.2456">
        <ele>818.52008057</ele>
        <time>2022-07-10T10:12:04Z</time>
      </trkpt>
      <trkpt lat="43.41675" lon="2.24561">
        <ele>818.64007568</ele>
        <time>2022-07-10T10:12:05Z</time>
      </trkpt>
      <trkpt lat="43.41673" lon="2.24562">
        <ele>818.72009277</ele>
        <time>2022-07-10T10:12:06Z</time>
      </trkpt>
      <trkpt lat="43.41671" lon="2.24564">
        <ele>818.7901001</ele>
        <time>2022-07-10T10:12:07Z</time>
      </trkpt>
      <trkpt lat="43.41669" lon="2.24565">
        <ele>818.85009766</ele>
        <time>2022-07-10T10:12:08Z</time>
      </trkpt>
      <trkpt lat="43.41665" lon="2.24567">
        <ele>818.2600708</ele>
        <time>2022-07-10T10:12:09Z</time>
      </trkpt>
      <trkpt lat="43.41662" lon="2.24569">
        <ele>818.40008545</ele>
        <time>2022-07-10T10:12:10Z</time>
      </trkpt>
      <trkpt lat="43.41659" lon="2.24569">
        <ele>818.53009033</ele>
        <time>2022-07-10T10:12:11Z</time>
      </trkpt>
      <trkpt lat="43.41656" lon="2.24569">
        <ele>818.66009521</ele>
        <time>2022-07-10T10:12:12Z</time>
      </trkpt>
      <trkpt lat="43.41654" lon="2.2457">
        <ele>818.7901001</ele>
        <time>2022-07-10T10:12:13Z</time>
      </trkpt>
      <trkpt lat="43.41651" lon="2.24571">
        <ele>818.89007568</ele>
        <time>2022-07-10T10:12:14Z</time>
      </trkpt>
      <trkpt lat="43.41649" lon="2.24573">
        <ele>818.99005127</ele>
        <time>2022-07-10T10:12:15Z</time>
      </trkpt>
      <trkpt lat="43.41646" lon="2.24574">
        <ele>819.09002686</ele>
        <time>2022-07-10T10:12:16Z</time>
      </trkpt>
      <trkpt lat="43.41643" lon="2.24576">
        <ele>819.19000244</ele>
        <time>2022-07-10T10:12:17Z</time>
      </trkpt>
      <trkpt lat="43.41639" lon="2.24577">
        <ele>819.27001953</ele>
        <time>2022-07-10T10:12:18Z</time>
      </trkpt>
      <trkpt lat="43.41637" lon="2.24578">
        <ele>819.36999512</ele>
        <time>2022-07-10T10:12:19Z</time>
      </trkpt>
      <trkpt lat="43.41634" lon="2.24578">
        <ele>819.51000977</ele>
        <time>2022-07-10T10:12:20Z</time>
      </trkpt>
      <trkpt lat="43.41631" lon="2.24579">
        <ele>819.67999268</ele>
        <time>2022-07-10T10:12:21Z</time>
      </trkpt>
      <trkpt lat="43.41628" lon="2.24581">
        <ele>819.84997559</ele>
        <time>2022-07-10T10:12:22Z</time>
      </trkpt>
      <trkpt lat="43.41625" lon="2.24583">
        <ele>820.0199585</ele>
        <time>2022-07-10T10:12:23Z</time>
      </trkpt>
      <trkpt lat="43.41622" lon="2.24584">
        <ele>820.12994385</ele>
        <time>2022-07-10T10:12:24Z</time>
      </trkpt>
      <trkpt lat="43.41619" lon="2.24585">
        <ele>820.17993164</ele>
        <time>2022-07-10T10:12:25Z</time>
      </trkpt>
      <trkpt lat="43.41616" lon="2.24585">
        <ele>820.22991943</ele>
        <time>2022-07-10T10:12:26Z</time>
      </trkpt>
      <trkpt lat="43.41611" lon="2.24588">
        <ele>820.25994873</ele>
        <time>2022-07-10T10:12:27Z</time>
      </trkpt>
      <trkpt lat="43.41608" lon="2.24589">
        <ele>820.34997559</ele>
        <time>2022-07-10T10:12:28Z</time>
      </trkpt>
      <trkpt lat="43.41606" lon="2.24591">
        <ele>820.39996338</ele>
        <time>2022-07-10T10:12:29Z</time>
      </trkpt>
      <trkpt lat="43.41604" lon="2.24592">
        <ele>820.49993896</ele>
        <time>2022-07-10T10:12:30Z</time>
      </trkpt>
      <trkpt lat="43.41602" lon="2.24595">
        <ele>820.54992676</ele>
        <time>2022-07-10T10:12:31Z</time>
      </trkpt>
      <trkpt lat="43.416" lon="2.24599">
        <ele>820.62994385</ele>
        <time>2022-07-10T10:12:32Z</time>
      </trkpt>
      <trkpt lat="43.41598" lon="2.24601">
        <ele>820.72991943</ele>
        <time>2022-07-10T10:12:33Z</time>
      </trkpt>
      <trkpt lat="43.41597" lon="2.24603">
        <ele>820.77990723</ele>
        <time>2022-07-10T10:12:34Z</time>
      </trkpt>
      <trkpt lat="43.41595" lon="2.24606">
        <ele>820.81988525</ele>
        <time>2022-07-10T10:12:35Z</time>
      </trkpt>
      <trkpt lat="43.41593" lon="2.24608">
        <ele>820.86987305</ele>
        <time>2022-07-10T10:12:36Z</time>
      </trkpt>
      <trkpt lat="43.41592" lon="2.2461">
        <ele>820.9798584</ele>
        <time>2022-07-10T10:12:37Z</time>
      </trkpt>
      <trkpt lat="43.41591" lon="2.24612">
        <ele>821.12988281</ele>
        <time>2022-07-10T10:12:38Z</time>
      </trkpt>
      <trkpt lat="43.41589" lon="2.24614">
        <ele>821.35986328</ele>
        <time>2022-07-10T10:12:39Z</time>
      </trkpt>
      <trkpt lat="43.41588" lon="2.24616">
        <ele>821.51983643</ele>
        <time>2022-07-10T10:12:40Z</time>
      </trkpt>
      <trkpt lat="43.41586" lon="2.24618">
        <ele>821.61981201</ele>
        <time>2022-07-10T10:12:41Z</time>
      </trkpt>
      <trkpt lat="43.41585" lon="2.24621">
        <ele>821.62982178</ele>
        <time>2022-07-10T10:12:42Z</time>
      </trkpt>
      <trkpt lat="43.41583" lon="2.24624">
        <ele>821.62982178</ele>
        <time>2022-07-10T10:12:43Z</time>
      </trkpt>
      <trkpt lat="43.41581" lon="2.24627">
        <ele>821.65985107</ele>
        <time>2022-07-10T10:12:44Z</time>
      </trkpt>
      <trkpt lat="43.41578" lon="2.24631">
        <ele>821.7298584</ele>
        <time>2022-07-10T10:12:45Z</time>
      </trkpt>
      <trkpt lat="43.41575" lon="2.24634">
        <ele>821.88983154</ele>
        <time>2022-07-10T10:12:46Z</time>
      </trkpt>
      <trkpt lat="43.41572" lon="2.24636">
        <ele>822.01983643</ele>
        <time>2022-07-10T10:12:47Z</time>
      </trkpt>
      <trkpt lat="43.4157" lon="2.24639">
        <ele>822.06982422</ele>
        <time>2022-07-10T10:12:48Z</time>
      </trkpt>
      <trkpt lat="43.41566" lon="2.24641">
        <ele>822.06982422</ele>
        <time>2022-07-10T10:12:49Z</time>
      </trkpt>
      <trkpt lat="43.41562" lon="2.24644">
        <ele>822.02984619</ele>
        <time>2022-07-10T10:12:50Z</time>
      </trkpt>
      <trkpt lat="43.4156" lon="2.24645">
        <ele>821.96984863</ele>
        <time>2022-07-10T10:12:51Z</time>
      </trkpt>
      <trkpt lat="43.41558" lon="2.24647">
        <ele>821.96984863</ele>
        <time>2022-07-10T10:12:52Z</time>
      </trkpt>
      <trkpt lat="43.41556" lon="2.2465">
        <ele>821.9498291</ele>
        <time>2022-07-10T10:12:53Z</time>
      </trkpt>
      <trkpt lat="43.41555" lon="2.24654">
        <ele>821.9197998</ele>
        <time>2022-07-10T10:12:54Z</time>
      </trkpt>
      <trkpt lat="43.41554" lon="2.24657">
        <ele>821.88977051</ele>
        <time>2022-07-10T10:12:55Z</time>
      </trkpt>
      <trkpt lat="43.41554" lon="2.2466">
        <ele>821.81976318</ele>
        <time>2022-07-10T10:12:56Z</time>
      </trkpt>
      <trkpt lat="43.41554" lon="2.24663">
        <ele>821.73974609</ele>
        <time>2022-07-10T10:12:57Z</time>
      </trkpt>
      <trkpt lat="43.41554" lon="2.24666">
        <ele>821.6897583</ele>
        <time>2022-07-10T10:12:58Z</time>
      </trkpt>
      <trkpt lat="43.41555" lon="2.24668">
        <ele>821.59973145</ele>
        <time>2022-07-10T10:12:59Z</time>
      </trkpt>
      <trkpt lat="43.41554" lon="2.24668">
        <ele>821.59973145</ele>
        <time>2022-07-10T10:13:00Z</time>
      </trkpt>
      <trkpt lat="43.41556" lon="2.24676">
        <ele>821.05975342</ele>
        <time>2022-07-10T10:13:21Z</time>
      </trkpt>
      <trkpt lat="43.41557" lon="2.24678">
        <ele>821.03973389</ele>
        <time>2022-07-10T10:13:22Z</time>
      </trkpt>
      <trkpt lat="43.41559" lon="2.2468">
        <ele>821.02972412</ele>
        <time>2022-07-10T10:13:23Z</time>
      </trkpt>
      <trkpt lat="43.4156" lon="2.24682">
        <ele>820.96972656</ele>
        <time>2022-07-10T10:13:24Z</time>
      </trkpt>
      <trkpt lat="43.41563" lon="2.24686">
        <ele>820.93969727</ele>
        <time>2022-07-10T10:13:25Z</time>
      </trkpt>
      <trkpt lat="43.41564" lon="2.24688">
        <ele>820.93969727</ele>
        <time>2022-07-10T10:13:26Z</time>
      </trkpt>
      <trkpt lat="43.41565" lon="2.24691">
        <ele>820.93969727</ele>
        <time>2022-07-10T10:13:27Z</time>
      </trkpt>
      <trkpt lat="43.41567" lon="2.24694">
        <ele>820.99969482</ele>
        <time>2022-07-10T10:13:28Z</time>
      </trkpt>
      <trkpt lat="43.41569" lon="2.24696">
        <ele>821.04968262</ele>
        <time>2022-07-10T10:13:29Z</time>
      </trkpt>
      <trkpt lat="43.41572" lon="2.247">
        <ele>821.10968018</ele>
        <time>2022-07-10T10:13:30Z</time>
      </trkpt>
      <trkpt lat="43.41574" lon="2.24702">
        <ele>821.16967773</ele>
        <time>2022-07-10T10:13:31Z</time>
      </trkpt>
      <trkpt lat="43.41575" lon="2.24705">
        <ele>821.29968262</ele>
        <time>2022-07-10T10:13:32Z</time>
      </trkpt>
      <trkpt lat="43.41577" lon="2.24707">
        <ele>821.34967041</ele>
        <time>2022-07-10T10:13:33Z</time>
      </trkpt>
      <trkpt lat="43.4158" lon="2.24711">
        <ele>821.43969727</ele>
        <time>2022-07-10T10:13:34Z</time>
      </trkpt>
      <trkpt lat="43.41583" lon="2.24713">
        <ele>821.56970215</ele>
        <time>2022-07-10T10:13:35Z</time>
      </trkpt>
      <trkpt lat="43.41585" lon="2.24715">
        <ele>821.66967773</ele>
        <time>2022-07-10T10:13:36Z</time>
      </trkpt>
      <trkpt lat="43.41587" lon="2.24718">
        <ele>821.77966309</ele>
        <time>2022-07-10T10:13:37Z</time>
      </trkpt>
      <trkpt lat="43.41588" lon="2.24721">
        <ele>821.8996582</ele>
        <time>2022-07-10T10:13:38Z</time>
      </trkpt>
      <trkpt lat="43.41589" lon="2.24726">
        <ele>822.01965332</ele>
        <time>2022-07-10T10:13:39Z</time>
      </trkpt>
      <trkpt lat="43.41591" lon="2.24728">
        <ele>822.17962646</ele>
        <time>2022-07-10T10:13:40Z</time>
      </trkpt>
      <trkpt lat="43.41592" lon="2.2473">
        <ele>822.39959717</ele>
        <time>2022-07-10T10:13:41Z</time>
      </trkpt>
      <trkpt lat="43.41593" lon="2.24734">
        <ele>822.59960938</ele>
        <time>2022-07-10T10:13:42Z</time>
      </trkpt>
      <trkpt lat="43.41594" lon="2.2474">
        <ele>822.75958252</ele>
        <time>2022-07-10T10:13:43Z</time>
      </trkpt>
      <trkpt lat="43.41594" lon="2.24744">
        <ele>822.90960693</ele>
        <time>2022-07-10T10:13:44Z</time>
      </trkpt>
      <trkpt lat="43.41594" lon="2.24749">
        <ele>823.07958984</ele>
        <time>2022-07-10T10:13:45Z</time>
      </trkpt>
      <trkpt lat="43.41594" lon="2.24753">
        <ele>823.1895752</ele>
        <time>2022-07-10T10:13:46Z</time>
      </trkpt>
      <trkpt lat="43.41594" lon="2.24758">
        <ele>823.33959961</ele>
        <time>2022-07-10T10:13:47Z</time>
      </trkpt>
      <trkpt lat="43.41594" lon="2.24764">
        <ele>823.49957275</ele>
        <time>2022-07-10T10:13:48Z</time>
      </trkpt>
      <trkpt lat="43.41593" lon="2.24768">
        <ele>823.69958496</ele>
        <time>2022-07-10T10:13:49Z</time>
      </trkpt>
      <trkpt lat="43.41592" lon="2.24771">
        <ele>823.96960449</ele>
        <time>2022-07-10T10:13:50Z</time>
      </trkpt>
      <trkpt lat="43.41592" lon="2.24774">
        <ele>824.19958496</ele>
        <time>2022-07-10T10:13:51Z</time>
      </trkpt>
      <trkpt lat="43.41592" lon="2.24777">
        <ele>824.35955811</ele>
        <time>2022-07-10T10:13:52Z</time>
      </trkpt>
      <trkpt lat="43.41592" lon="2.24782">
        <ele>824.50958252</ele>
        <time>2022-07-10T10:13:53Z</time>
      </trkpt>
      <trkpt lat="43.41591" lon="2.24786">
        <ele>824.6395874</ele>
        <time>2022-07-10T10:13:54Z</time>
      </trkpt>
      <trkpt lat="43.41591" lon="2.24789">
        <ele>824.81958008</ele>
        <time>2022-07-10T10:13:55Z</time>
      </trkpt>
      <trkpt lat="43.4159" lon="2.24791">
        <ele>825.06958008</ele>
        <time>2022-07-10T10:13:56Z</time>
      </trkpt>
      <trkpt lat="43.41592" lon="2.24788">
        <ele>825.23956299</ele>
        <time>2022-07-10T10:14:02Z</time>
      </trkpt>
      <trkpt lat="43.41592" lon="2.24786">
        <ele>825.08953857</ele>
        <time>2022-07-10T10:14:03Z</time>
      </trkpt>
      <trkpt lat="43.41594" lon="2.24783">
        <ele>824.81951904</ele>
        <time>2022-07-10T10:14:04Z</time>
      </trkpt>
      <trkpt lat="43.41593" lon="2.2478">
        <ele>824.58953857</ele>
        <time>2022-07-10T10:14:05Z</time>
      </trkpt>
      <trkpt lat="43.41593" lon="2.24775">
        <ele>824.35955811</ele>
        <time>2022-07-10T10:14:06Z</time>
      </trkpt>
      <trkpt lat="43.41593" lon="2.24773">
        <ele>824.10955811</ele>
        <time>2022-07-10T10:14:07Z</time>
      </trkpt>
      <trkpt lat="43.41593" lon="2.2477">
        <ele>823.99957275</ele>
        <time>2022-07-10T10:14:08Z</time>
      </trkpt>
      <trkpt lat="43.41593" lon="2.24766">
        <ele>824.24957275</ele>
        <time>2022-07-10T10:14:09Z</time>
      </trkpt>
      <trkpt lat="43.41592" lon="2.24761">
        <ele>824.1395874</ele>
        <time>2022-07-10T10:14:10Z</time>
      </trkpt>
      <trkpt lat="43.41592" lon="2.24757">
        <ele>824.02960205</ele>
        <time>2022-07-10T10:14:11Z</time>
      </trkpt>
      <trkpt lat="43.41592" lon="2.24754">
        <ele>823.78961182</ele>
        <time>2022-07-10T10:14:12Z</time>
      </trkpt>
      <trkpt lat="43.41591" lon="2.2475">
        <ele>823.56964111</ele>
        <time>2022-07-10T10:14:13Z</time>
      </trkpt>
      <trkpt lat="43.41591" lon="2.24746">
        <ele>823.24963379</ele>
        <time>2022-07-10T10:14:14Z</time>
      </trkpt>
      <trkpt lat="43.41593" lon="2.24742">
        <ele>823.04962158</ele>
        <time>2022-07-10T10:14:15Z</time>
      </trkpt>
      <trkpt lat="43.41595" lon="2.2474">
        <ele>822.97961426</ele>
        <time>2022-07-10T10:14:16Z</time>
      </trkpt>
      <trkpt lat="43.41596" lon="2.24738">
        <ele>823.00964355</ele>
        <time>2022-07-10T10:14:17Z</time>
      </trkpt>
      <trkpt lat="43.41597" lon="2.24737">
        <ele>823.33966064</ele>
        <time>2022-07-10T10:14:19Z</time>
      </trkpt>
      <trkpt lat="43.41599" lon="2.24737">
        <ele>823.50964355</ele>
        <time>2022-07-10T10:14:20Z</time>
      </trkpt>
      <trkpt lat="43.416" lon="2.24736">
        <ele>823.61962891</ele>
        <time>2022-07-10T10:14:21Z</time>
      </trkpt>
      <trkpt lat="43.41601" lon="2.24734">
        <ele>823.70965576</ele>
        <time>2022-07-10T10:14:22Z</time>
      </trkpt>
      <trkpt lat="43.41601" lon="2.24733">
        <ele>823.73968506</ele>
        <time>2022-07-10T10:14:23Z</time>
      </trkpt>
      <trkpt lat="43.41602" lon="2.24732">
        <ele>823.78967285</ele>
        <time>2022-07-10T10:14:24Z</time>
      </trkpt>
      <trkpt lat="43.41603" lon="2.24731">
        <ele>823.8996582</ele>
        <time>2022-07-10T10:14:25Z</time>
      </trkpt>
      <trkpt lat="43.41602" lon="2.2473">
        <ele>824.16967773</ele>
        <time>2022-07-10T10:14:58Z</time>
      </trkpt>
      <trkpt lat="43.41603" lon="2.2473">
        <ele>824.18969727</ele>
        <time>2022-07-10T10:14:59Z</time>
      </trkpt>
      <trkpt lat="43.41606" lon="2.24732">
        <ele>824.25970459</ele>
        <time>2022-07-10T10:15:00Z</time>
      </trkpt>
      <trkpt lat="43.41606" lon="2.24733">
        <ele>824.35968018</ele>
        <time>2022-07-10T10:15:01Z</time>
      </trkpt>
      <trkpt lat="43.41606" lon="2.24734">
        <ele>824.51965332</ele>
        <time>2022-07-10T10:15:02Z</time>
      </trkpt>
      <trkpt lat="43.41607" lon="2.24735">
        <ele>824.73962402</ele>
        <time>2022-07-10T10:15:03Z</time>
      </trkpt>
      <trkpt lat="43.41607" lon="2.24734">
        <ele>824.949646</ele>
        <time>2022-07-10T10:15:04Z</time>
      </trkpt>
      <trkpt lat="43.41608" lon="2.24735">
        <ele>825.10961914</ele>
        <time>2022-07-10T10:15:05Z</time>
      </trkpt>
      <trkpt lat="43.41608" lon="2.24736">
        <ele>825.27960205</ele>
        <time>2022-07-10T10:15:06Z</time>
      </trkpt>
      <trkpt lat="43.41609" lon="2.24737">
        <ele>825.44958496</ele>
        <time>2022-07-10T10:15:07Z</time>
      </trkpt>
      <trkpt lat="43.4161" lon="2.24739">
        <ele>825.53961182</ele>
        <time>2022-07-10T10:15:08Z</time>
      </trkpt>
      <trkpt lat="43.41611" lon="2.2474">
        <ele>826.12963867</ele>
        <time>2022-07-10T10:15:09Z</time>
      </trkpt>
      <trkpt lat="43.41611" lon="2.24741">
        <ele>826.23962402</ele>
        <time>2022-07-10T10:15:10Z</time>
      </trkpt>
      <trkpt lat="43.41612" lon="2.24741">
        <ele>826.34960938</ele>
        <time>2022-07-10T10:15:11Z</time>
      </trkpt>
      <trkpt lat="43.41616" lon="2.24742">
        <ele>826.70959473</ele>
        <time>2022-07-10T10:15:24Z</time>
      </trkpt>
      <trkpt lat="43.41617" lon="2.24742">
        <ele>826.79962158</ele>
        <time>2022-07-10T10:15:25Z</time>
      </trkpt>
      <trkpt lat="43.41617" lon="2.24741">
        <ele>826.90960693</ele>
        <time>2022-07-10T10:15:26Z</time>
      </trkpt>
      <trkpt lat="43.41619" lon="2.24739">
        <ele>827.03961182</ele>
        <time>2022-07-10T10:15:27Z</time>
      </trkpt>
      <trkpt lat="43.4162" lon="2.24738">
        <ele>827.12963867</ele>
        <time>2022-07-10T10:15:28Z</time>
      </trkpt>
      <trkpt lat="43.41621" lon="2.24737">
        <ele>827.23962402</ele>
        <time>2022-07-10T10:15:30Z</time>
      </trkpt>
      <trkpt lat="43.41622" lon="2.24736">
        <ele>827.28961182</ele>
        <time>2022-07-10T10:15:31Z</time>
      </trkpt>
      <trkpt lat="43.41622" lon="2.24734">
        <ele>827.32958984</ele>
        <time>2022-07-10T10:15:32Z</time>
      </trkpt>
      <trkpt lat="43.41621" lon="2.24733">
        <ele>826.94958496</ele>
        <time>2022-07-10T10:15:44Z</time>
      </trkpt>
      <trkpt lat="43.41621" lon="2.24735">
        <ele>826.89959717</ele>
        <time>2022-07-10T10:15:45Z</time>
      </trkpt>
      <trkpt lat="43.4162" lon="2.24736">
        <ele>826.77960205</ele>
        <time>2022-07-10T10:15:46Z</time>
      </trkpt>
      <trkpt lat="43.4162" lon="2.24738">
        <ele>826.59960938</ele>
        <time>2022-07-10T10:15:47Z</time>
      </trkpt>
      <trkpt lat="43.41619" lon="2.24739">
        <ele>826.40960693</ele>
        <time>2022-07-10T10:15:48Z</time>
      </trkpt>
      <trkpt lat="43.41617" lon="2.24739">
        <ele>826.30963135</ele>
        <time>2022-07-10T10:15:49Z</time>
      </trkpt>
      <trkpt lat="43.41616" lon="2.24739">
        <ele>826.1496582</ele>
        <time>2022-07-10T10:15:50Z</time>
      </trkpt>
      <trkpt lat="43.41615" lon="2.24738">
        <ele>826.01965332</ele>
        <time>2022-07-10T10:15:51Z</time>
      </trkpt>
      <trkpt lat="43.41613" lon="2.24737">
        <ele>825.83966064</ele>
        <time>2022-07-10T10:15:52Z</time>
      </trkpt>
      <trkpt lat="43.41611" lon="2.24735">
        <ele>825.48968506</ele>
        <time>2022-07-10T10:15:53Z</time>
      </trkpt>
      <trkpt lat="43.41609" lon="2.24735">
        <ele>825.21966553</ele>
        <time>2022-07-10T10:15:54Z</time>
      </trkpt>
      <trkpt lat="43.41607" lon="2.24735">
        <ele>824.97967529</ele>
        <time>2022-07-10T10:15:55Z</time>
      </trkpt>
      <trkpt lat="43.41605" lon="2.24736">
        <ele>824.78967285</ele>
        <time>2022-07-10T10:15:56Z</time>
      </trkpt>
      <trkpt lat="43.41605" lon="2.24735">
        <ele>824.68969727</ele>
        <time>2022-07-10T10:15:57Z</time>
      </trkpt>
      <trkpt lat="43.41604" lon="2.24734">
        <ele>824.55969238</ele>
        <time>2022-07-10T10:15:58Z</time>
      </trkpt>
      <trkpt lat="43.41603" lon="2.24734">
        <ele>824.39971924</ele>
        <time>2022-07-10T10:15:59Z</time>
      </trkpt>
      <trkpt lat="43.41602" lon="2.24735">
        <ele>824.24969482</ele>
        <time>2022-07-10T10:16:00Z</time>
      </trkpt>
      <trkpt lat="43.41601" lon="2.24737">
        <ele>824.08972168</ele>
        <time>2022-07-10T10:16:01Z</time>
      </trkpt>
      <trkpt lat="43.41599" lon="2.24738">
        <ele>823.91973877</ele>
        <time>2022-07-10T10:16:02Z</time>
      </trkpt>
      <trkpt lat="43.41597" lon="2.24741">
        <ele>823.79974365</ele>
        <time>2022-07-10T10:16:03Z</time>
      </trkpt>
      <trkpt lat="43.41596" lon="2.24744">
        <ele>823.6897583</ele>
        <time>2022-07-10T10:16:04Z</time>
      </trkpt>
      <trkpt lat="43.41596" lon="2.24747">
        <ele>823.60974121</ele>
        <time>2022-07-10T10:16:05Z</time>
      </trkpt>
      <trkpt lat="43.41596" lon="2.2475">
        <ele>823.52972412</ele>
        <time>2022-07-10T10:16:06Z</time>
      </trkpt>
      <trkpt lat="43.41596" lon="2.24754">
        <ele>823.52972412</ele>
        <time>2022-07-10T10:16:07Z</time>
      </trkpt>
      <trkpt lat="43.41598" lon="2.24758">
        <ele>823.60974121</ele>
        <time>2022-07-10T10:16:08Z</time>
      </trkpt>
      <trkpt lat="43.41598" lon="2.24761">
        <ele>824.08972168</ele>
        <time>2022-07-10T10:16:09Z</time>
      </trkpt>
      <trkpt lat="43.41599" lon="2.24765">
        <ele>824.28973389</ele>
        <time>2022-07-10T10:16:10Z</time>
      </trkpt>
      <trkpt lat="43.41599" lon="2.24769">
        <ele>824.49975586</ele>
        <time>2022-07-10T10:16:11Z</time>
      </trkpt>
      <trkpt lat="43.41598" lon="2.24774">
        <ele>824.70977783</ele>
        <time>2022-07-10T10:16:12Z</time>
      </trkpt>
      <trkpt lat="43.41597" lon="2.24777">
        <ele>824.85980225</ele>
        <time>2022-07-10T10:16:13Z</time>
      </trkpt>
      <trkpt lat="43.41597" lon="2.2478">
        <ele>825.05981445</ele>
        <time>2022-07-10T10:16:14Z</time>
      </trkpt>
      <trkpt lat="43.41597" lon="2.24783">
        <ele>825.24981689</ele>
        <time>2022-07-10T10:16:15Z</time>
      </trkpt>
      <trkpt lat="43.41597" lon="2.24786">
        <ele>825.4197998</ele>
        <time>2022-07-10T10:16:16Z</time>
      </trkpt>
      <trkpt lat="43.41597" lon="2.24791">
        <ele>825.64978027</ele>
        <time>2022-07-10T10:16:17Z</time>
      </trkpt>
      <trkpt lat="43.41596" lon="2.24793">
        <ele>825.84979248</ele>
        <time>2022-07-10T10:16:18Z</time>
      </trkpt>
      <trkpt lat="43.41596" lon="2.24796">
        <ele>826.00976562</ele>
        <time>2022-07-10T10:16:19Z</time>
      </trkpt>
      <trkpt lat="43.41596" lon="2.248">
        <ele>826.14978027</ele>
        <time>2022-07-10T10:16:20Z</time>
      </trkpt>
      <trkpt lat="43.41595" lon="2.24806">
        <ele>826.25976562</ele>
        <time>2022-07-10T10:16:21Z</time>
      </trkpt>
      <trkpt lat="43.41594" lon="2.24809">
        <ele>826.4697876</ele>
        <time>2022-07-10T10:16:22Z</time>
      </trkpt>
      <trkpt lat="43.41594" lon="2.24813">
        <ele>826.75976562</ele>
        <time>2022-07-10T10:16:23Z</time>
      </trkpt>
      <trkpt lat="43.41594" lon="2.24816">
        <ele>827.06976318</ele>
        <time>2022-07-10T10:16:24Z</time>
      </trkpt>
      <trkpt lat="43.41594" lon="2.24819">
        <ele>827.39978027</ele>
        <time>2022-07-10T10:16:25Z</time>
      </trkpt>
      <trkpt lat="43.41594" lon="2.24824">
        <ele>827.67980957</ele>
        <time>2022-07-10T10:16:26Z</time>
      </trkpt>
      <trkpt lat="43.41594" lon="2.24827">
        <ele>827.88983154</ele>
        <time>2022-07-10T10:16:27Z</time>
      </trkpt>
      <trkpt lat="43.41595" lon="2.24831">
        <ele>828.09985352</ele>
        <time>2022-07-10T10:16:28Z</time>
      </trkpt>
      <trkpt lat="43.41595" lon="2.24834">
        <ele>828.36987305</ele>
        <time>2022-07-10T10:16:29Z</time>
      </trkpt>
      <trkpt lat="43.41594" lon="2.24839">
        <ele>828.58984375</ele>
        <time>2022-07-10T10:16:30Z</time>
      </trkpt>
      <trkpt lat="43.41594" lon="2.24842">
        <ele>828.87982178</ele>
        <time>2022-07-10T10:16:31Z</time>
      </trkpt>
      <trkpt lat="43.41593" lon="2.24845">
        <ele>829.1697998</ele>
        <time>2022-07-10T10:16:32Z</time>
      </trkpt>
      <trkpt lat="43.41594" lon="2.24848">
        <ele>829.47979736</ele>
        <time>2022-07-10T10:16:33Z</time>
      </trkpt>
      <trkpt lat="43.41593" lon="2.24852">
        <ele>829.83978271</ele>
        <time>2022-07-10T10:16:34Z</time>
      </trkpt>
      <trkpt lat="43.41593" lon="2.24855">
        <ele>830.13977051</ele>
        <time>2022-07-10T10:16:35Z</time>
      </trkpt>
      <trkpt lat="43.41593" lon="2.24858">
        <ele>830.54974365</ele>
        <time>2022-07-10T10:16:36Z</time>
      </trkpt>
      <trkpt lat="43.41593" lon="2.24861">
        <ele>830.89971924</ele>
        <time>2022-07-10T10:16:37Z</time>
      </trkpt>
      <trkpt lat="43.41593" lon="2.24865">
        <ele>831.14971924</ele>
        <time>2022-07-10T10:16:38Z</time>
      </trkpt>
      <trkpt lat="43.41593" lon="2.24869">
        <ele>831.49969482</ele>
        <time>2022-07-10T10:16:39Z</time>
      </trkpt>
      <trkpt lat="43.41593" lon="2.24872">
        <ele>831.6796875</ele>
        <time>2022-07-10T10:16:40Z</time>
      </trkpt>
      <trkpt lat="43.41593" lon="2.24875">
        <ele>831.84967041</ele>
        <time>2022-07-10T10:16:41Z</time>
      </trkpt>
      <trkpt lat="43.41593" lon="2.24878">
        <ele>832.16967773</ele>
        <time>2022-07-10T10:16:42Z</time>
      </trkpt>
      <trkpt lat="43.41595" lon="2.24884">
        <ele>832.32965088</ele>
        <time>2022-07-10T10:16:43Z</time>
      </trkpt>
      <trkpt lat="43.41595" lon="2.24887">
        <ele>832.56964111</ele>
        <time>2022-07-10T10:16:44Z</time>
      </trkpt>
      <trkpt lat="43.41596" lon="2.2489">
        <ele>832.80963135</ele>
        <time>2022-07-10T10:16:45Z</time>
      </trkpt>
      <trkpt lat="43.41595" lon="2.24893">
        <ele>833.03961182</ele>
        <time>2022-07-10T10:16:46Z</time>
      </trkpt>
      <trkpt lat="43.41594" lon="2.24896">
        <ele>833.30963135</ele>
        <time>2022-07-10T10:16:47Z</time>
      </trkpt>
      <trkpt lat="43.41594" lon="2.249">
        <ele>833.51965332</ele>
        <time>2022-07-10T10:16:48Z</time>
      </trkpt>
      <trkpt lat="43.41595" lon="2.24903">
        <ele>833.70965576</ele>
        <time>2022-07-10T10:16:49Z</time>
      </trkpt>
      <trkpt lat="43.41595" lon="2.24906">
        <ele>833.84967041</ele>
        <time>2022-07-10T10:16:50Z</time>
      </trkpt>
      <trkpt lat="43.41595" lon="2.24909">
        <ele>833.91967773</ele>
        <time>2022-07-10T10:16:51Z</time>
      </trkpt>
      <trkpt lat="43.41596" lon="2.24912">
        <ele>834.13964844</ele>
        <time>2022-07-10T10:16:52Z</time>
      </trkpt>
      <trkpt lat="43.41597" lon="2.24916">
        <ele>834.37963867</ele>
        <time>2022-07-10T10:16:53Z</time>
      </trkpt>
      <trkpt lat="43.41597" lon="2.24919">
        <ele>834.60961914</ele>
        <time>2022-07-10T10:16:54Z</time>
      </trkpt>
      <trkpt lat="43.41598" lon="2.24921">
        <ele>834.96960449</ele>
        <time>2022-07-10T10:16:55Z</time>
      </trkpt>
      <trkpt lat="43.41599" lon="2.24924">
        <ele>835.23962402</ele>
        <time>2022-07-10T10:16:56Z</time>
      </trkpt>
      <trkpt lat="43.41601" lon="2.24927">
        <ele>835.50964355</ele>
        <time>2022-07-10T10:16:57Z</time>
      </trkpt>
      <trkpt lat="43.41604" lon="2.24929">
        <ele>835.68963623</ele>
        <time>2022-07-10T10:16:58Z</time>
      </trkpt>
      <trkpt lat="43.41605" lon="2.24931">
        <ele>835.79962158</ele>
        <time>2022-07-10T10:16:59Z</time>
      </trkpt>
      <trkpt lat="43.41606" lon="2.24933">
        <ele>836.03961182</ele>
        <time>2022-07-10T10:17:00Z</time>
      </trkpt>
      <trkpt lat="43.41607" lon="2.24935">
        <ele>836.21960449</ele>
        <time>2022-07-10T10:17:01Z</time>
      </trkpt>
      <trkpt lat="43.4161" lon="2.24938">
        <ele>836.51959229</ele>
        <time>2022-07-10T10:17:02Z</time>
      </trkpt>
      <trkpt lat="43.41611" lon="2.2494">
        <ele>836.84960938</ele>
        <time>2022-07-10T10:17:03Z</time>
      </trkpt>
      <trkpt lat="43.41612" lon="2.24942">
        <ele>837.06958008</ele>
        <time>2022-07-10T10:17:04Z</time>
      </trkpt>
      <trkpt lat="43.41614" lon="2.24944">
        <ele>837.28955078</ele>
        <time>2022-07-10T10:17:05Z</time>
      </trkpt>
      <trkpt lat="43.41616" lon="2.24947">
        <ele>837.53955078</ele>
        <time>2022-07-10T10:17:06Z</time>
      </trkpt>
      <trkpt lat="43.41618" lon="2.24949">
        <ele>837.88952637</ele>
        <time>2022-07-10T10:17:07Z</time>
      </trkpt>
      <trkpt lat="43.41619" lon="2.24951">
        <ele>838.20953369</ele>
        <time>2022-07-10T10:17:08Z</time>
      </trkpt>
      <trkpt lat="43.41621" lon="2.24952">
        <ele>838.60955811</ele>
        <time>2022-07-10T10:17:09Z</time>
      </trkpt>
      <trkpt lat="43.41624" lon="2.24954">
        <ele>839.00958252</ele>
        <time>2022-07-10T10:17:10Z</time>
      </trkpt>
      <trkpt lat="43.41626" lon="2.24955">
        <ele>839.29956055</ele>
        <time>2022-07-10T10:17:11Z</time>
      </trkpt>
      <trkpt lat="43.41628" lon="2.24957">
        <ele>839.6395874</ele>
        <time>2022-07-10T10:17:12Z</time>
      </trkpt>
      <trkpt lat="43.41631" lon="2.24958">
        <ele>839.94958496</ele>
        <time>2022-07-10T10:17:13Z</time>
      </trkpt>
      <trkpt lat="43.41633" lon="2.24959">
        <ele>840.16955566</ele>
        <time>2022-07-10T10:17:14Z</time>
      </trkpt>
      <trkpt lat="43.41636" lon="2.24961">
        <ele>840.4395752</ele>
        <time>2022-07-10T10:17:15Z</time>
      </trkpt>
      <trkpt lat="43.41637" lon="2.24962">
        <ele>840.72955322</ele>
        <time>2022-07-10T10:17:16Z</time>
      </trkpt>
      <trkpt lat="43.41639" lon="2.24962">
        <ele>841.03955078</ele>
        <time>2022-07-10T10:17:17Z</time>
      </trkpt>
      <trkpt lat="43.41641" lon="2.24963">
        <ele>841.31958008</ele>
        <time>2022-07-10T10:17:18Z</time>
      </trkpt>
      <trkpt lat="43.41643" lon="2.24964">
        <ele>841.50958252</ele>
        <time>2022-07-10T10:17:19Z</time>
      </trkpt>
      <trkpt lat="43.41646" lon="2.24965">
        <ele>841.73956299</ele>
        <time>2022-07-10T10:17:20Z</time>
      </trkpt>
      <trkpt lat="43.41648" lon="2.24967">
        <ele>841.9095459</ele>
        <time>2022-07-10T10:17:21Z</time>
      </trkpt>
      <trkpt lat="43.41651" lon="2.24967">
        <ele>842.11956787</ele>
        <time>2022-07-10T10:17:22Z</time>
      </trkpt>
      <trkpt lat="43.41653" lon="2.24967">
        <ele>842.34954834</ele>
        <time>2022-07-10T10:17:23Z</time>
      </trkpt>
      <trkpt lat="43.41656" lon="2.24967">
        <ele>842.55957031</ele>
        <time>2022-07-10T10:17:24Z</time>
      </trkpt>
      <trkpt lat="43.41658" lon="2.24968">
        <ele>842.72955322</ele>
        <time>2022-07-10T10:17:25Z</time>
      </trkpt>
      <trkpt lat="43.4166" lon="2.24968">
        <ele>842.9095459</ele>
        <time>2022-07-10T10:17:26Z</time>
      </trkpt>
      <trkpt lat="43.41663" lon="2.24968">
        <ele>843.09954834</ele>
        <time>2022-07-10T10:17:27Z</time>
      </trkpt>
      <trkpt lat="43.41667" lon="2.24968">
        <ele>843.20953369</ele>
        <time>2022-07-10T10:17:28Z</time>
      </trkpt>
      <trkpt lat="43.4167" lon="2.24968">
        <ele>843.35955811</ele>
        <time>2022-07-10T10:17:29Z</time>
      </trkpt>
      <trkpt lat="43.41672" lon="2.24969">
        <ele>843.55957031</ele>
        <time>2022-07-10T10:17:30Z</time>
      </trkpt>
      <trkpt lat="43.41674" lon="2.2497">
        <ele>843.72955322</ele>
        <time>2022-07-10T10:17:31Z</time>
      </trkpt>
      <trkpt lat="43.41676" lon="2.2497">
        <ele>843.88952637</ele>
        <time>2022-07-10T10:17:32Z</time>
      </trkpt>
      <trkpt lat="43.4168" lon="2.24971">
        <ele>844.02954102</ele>
        <time>2022-07-10T10:17:33Z</time>
      </trkpt>
      <trkpt lat="43.41682" lon="2.24972">
        <ele>844.09954834</ele>
        <time>2022-07-10T10:17:34Z</time>
      </trkpt>
      <trkpt lat="43.41684" lon="2.24972">
        <ele>844.1895752</ele>
        <time>2022-07-10T10:17:35Z</time>
      </trkpt>
      <trkpt lat="43.41686" lon="2.24973">
        <ele>844.25958252</ele>
        <time>2022-07-10T10:17:36Z</time>
      </trkpt>
      <trkpt lat="43.41689" lon="2.24974">
        <ele>844.28961182</ele>
        <time>2022-07-10T10:17:37Z</time>
      </trkpt>
      <trkpt lat="43.4169" lon="2.24975">
        <ele>844.3895874</ele>
        <time>2022-07-10T10:17:38Z</time>
      </trkpt>
      <trkpt lat="43.41692" lon="2.24976">
        <ele>844.46960449</ele>
        <time>2022-07-10T10:17:39Z</time>
      </trkpt>
      <trkpt lat="43.41694" lon="2.24975">
        <ele>844.58959961</ele>
        <time>2022-07-10T10:17:40Z</time>
      </trkpt>
      <trkpt lat="43.41697" lon="2.24975">
        <ele>844.72961426</ele>
        <time>2022-07-10T10:17:41Z</time>
      </trkpt>
      <trkpt lat="43.41701" lon="2.24975">
        <ele>844.84960938</ele>
        <time>2022-07-10T10:17:42Z</time>
      </trkpt>
      <trkpt lat="43.41703" lon="2.24976">
        <ele>844.95959473</ele>
        <time>2022-07-10T10:17:43Z</time>
      </trkpt>
      <trkpt lat="43.41706" lon="2.24977">
        <ele>845.04962158</ele>
        <time>2022-07-10T10:17:44Z</time>
      </trkpt>
      <trkpt lat="43.41708" lon="2.24977">
        <ele>845.11962891</ele>
        <time>2022-07-10T10:17:45Z</time>
      </trkpt>
      <trkpt lat="43.41711" lon="2.24977">
        <ele>845.17962646</ele>
        <time>2022-07-10T10:17:46Z</time>
      </trkpt>
      <trkpt lat="43.41714" lon="2.24977">
        <ele>845.199646</ele>
        <time>2022-07-10T10:17:47Z</time>
      </trkpt>
      <trkpt lat="43.41716" lon="2.24978">
        <ele>845.31964111</ele>
        <time>2022-07-10T10:17:48Z</time>
      </trkpt>
      <trkpt lat="43.41718" lon="2.24979">
        <ele>845.449646</ele>
        <time>2022-07-10T10:17:49Z</time>
      </trkpt>
      <trkpt lat="43.4172" lon="2.24979">
        <ele>845.59967041</ele>
        <time>2022-07-10T10:17:50Z</time>
      </trkpt>
      <trkpt lat="43.41724" lon="2.24977">
        <ele>845.81964111</ele>
        <time>2022-07-10T10:17:51Z</time>
      </trkpt>
      <trkpt lat="43.41727" lon="2.24976">
        <ele>845.95965576</ele>
        <time>2022-07-10T10:17:52Z</time>
      </trkpt>
      <trkpt lat="43.41729" lon="2.24975">
        <ele>846.10968018</ele>
        <time>2022-07-10T10:17:53Z</time>
      </trkpt>
      <trkpt lat="43.41731" lon="2.24974">
        <ele>846.20965576</ele>
        <time>2022-07-10T10:17:54Z</time>
      </trkpt>
      <trkpt lat="43.41734" lon="2.24971">
        <ele>846.30963135</ele>
        <time>2022-07-10T10:17:55Z</time>
      </trkpt>
      <trkpt lat="43.41736" lon="2.24969">
        <ele>846.42962646</ele>
        <time>2022-07-10T10:17:56Z</time>
      </trkpt>
      <trkpt lat="43.41738" lon="2.24966">
        <ele>846.59960938</ele>
        <time>2022-07-10T10:17:57Z</time>
      </trkpt>
      <trkpt lat="43.41739" lon="2.24964">
        <ele>846.84960938</ele>
        <time>2022-07-10T10:17:58Z</time>
      </trkpt>
      <trkpt lat="43.41741" lon="2.24962">
        <ele>847.05963135</ele>
        <time>2022-07-10T10:17:59Z</time>
      </trkpt>
      <trkpt lat="43.41745" lon="2.24959">
        <ele>847.27960205</ele>
        <time>2022-07-10T10:18:00Z</time>
      </trkpt>
      <trkpt lat="43.41746" lon="2.24957">
        <ele>847.48962402</ele>
        <time>2022-07-10T10:18:01Z</time>
      </trkpt>
      <trkpt lat="43.41748" lon="2.24955">
        <ele>847.65960693</ele>
        <time>2022-07-10T10:18:02Z</time>
      </trkpt>
      <trkpt lat="43.4175" lon="2.24953">
        <ele>847.86962891</ele>
        <time>2022-07-10T10:18:03Z</time>
      </trkpt>
      <trkpt lat="43.41753" lon="2.24951">
        <ele>848.02960205</ele>
        <time>2022-07-10T10:18:04Z</time>
      </trkpt>
      <trkpt lat="43.41755" lon="2.24949">
        <ele>848.19958496</ele>
        <time>2022-07-10T10:18:05Z</time>
      </trkpt>
      <trkpt lat="43.41757" lon="2.24949">
        <ele>848.32958984</ele>
        <time>2022-07-10T10:18:06Z</time>
      </trkpt>
      <trkpt lat="43.41758" lon="2.24949">
        <ele>848.49957275</ele>
        <time>2022-07-10T10:18:07Z</time>
      </trkpt>
      <trkpt lat="43.4176" lon="2.24949">
        <ele>848.71954346</ele>
        <time>2022-07-10T10:18:08Z</time>
      </trkpt>
      <trkpt lat="43.41764" lon="2.24949">
        <ele>849.17956543</ele>
        <time>2022-07-10T10:18:09Z</time>
      </trkpt>
      <trkpt lat="43.41766" lon="2.2495">
        <ele>849.4095459</ele>
        <time>2022-07-10T10:18:10Z</time>
      </trkpt>
      <trkpt lat="43.4177" lon="2.24951">
        <ele>849.52954102</ele>
        <time>2022-07-10T10:18:11Z</time>
      </trkpt>
      <trkpt lat="43.41774" lon="2.24951">
        <ele>849.66955566</ele>
        <time>2022-07-10T10:18:12Z</time>
      </trkpt>
      <trkpt lat="43.41777" lon="2.24952">
        <ele>849.78955078</ele>
        <time>2022-07-10T10:18:13Z</time>
      </trkpt>
      <trkpt lat="43.41782" lon="2.24953">
        <ele>849.87957764</ele>
        <time>2022-07-10T10:18:14Z</time>
      </trkpt>
      <trkpt lat="43.41786" lon="2.24953">
        <ele>849.99957275</ele>
        <time>2022-07-10T10:18:15Z</time>
      </trkpt>
      <trkpt lat="43.41788" lon="2.24954">
        <ele>850.10955811</ele>
        <time>2022-07-10T10:18:16Z</time>
      </trkpt>
      <trkpt lat="43.4179" lon="2.24955">
        <ele>850.19958496</ele>
        <time>2022-07-10T10:18:17Z</time>
      </trkpt>
      <trkpt lat="43.41794" lon="2.24956">
        <ele>850.28961182</ele>
        <time>2022-07-10T10:18:18Z</time>
      </trkpt>
      <trkpt lat="43.41796" lon="2.24957">
        <ele>850.36962891</ele>
        <time>2022-07-10T10:18:19Z</time>
      </trkpt>
      <trkpt lat="43.41797" lon="2.24958">
        <ele>850.47961426</ele>
        <time>2022-07-10T10:18:20Z</time>
      </trkpt>
      <trkpt lat="43.418" lon="2.24959">
        <ele>850.60961914</ele>
        <time>2022-07-10T10:18:21Z</time>
      </trkpt>
      <trkpt lat="43.41803" lon="2.2496">
        <ele>850.70959473</ele>
        <time>2022-07-10T10:18:22Z</time>
      </trkpt>
      <trkpt lat="43.41808" lon="2.24962">
        <ele>850.80957031</ele>
        <time>2022-07-10T10:18:23Z</time>
      </trkpt>
      <trkpt lat="43.4181" lon="2.24964">
        <ele>850.86956787</ele>
        <time>2022-07-10T10:18:24Z</time>
      </trkpt>
      <trkpt lat="43.41811" lon="2.24965">
        <ele>850.96954346</ele>
        <time>2022-07-10T10:18:25Z</time>
      </trkpt>
      <trkpt lat="43.41814" lon="2.24966">
        <ele>851.07952881</ele>
        <time>2022-07-10T10:18:26Z</time>
      </trkpt>
      <trkpt lat="43.41817" lon="2.24967">
        <ele>851.21954346</ele>
        <time>2022-07-10T10:18:27Z</time>
      </trkpt>
      <trkpt lat="43.4182" lon="2.24968">
        <ele>851.33953857</ele>
        <time>2022-07-10T10:18:28Z</time>
      </trkpt>
      <trkpt lat="43.41825" lon="2.24969">
        <ele>851.41955566</ele>
        <time>2022-07-10T10:18:29Z</time>
      </trkpt>
      <trkpt lat="43.41828" lon="2.2497">
        <ele>851.54956055</ele>
        <time>2022-07-10T10:18:30Z</time>
      </trkpt>
      <trkpt lat="43.41831" lon="2.24972">
        <ele>851.69958496</ele>
        <time>2022-07-10T10:18:31Z</time>
      </trkpt>
      <trkpt lat="43.41834" lon="2.24975">
        <ele>851.81958008</ele>
        <time>2022-07-10T10:18:32Z</time>
      </trkpt>
      <trkpt lat="43.41836" lon="2.24977">
        <ele>851.97955322</ele>
        <time>2022-07-10T10:18:33Z</time>
      </trkpt>
      <trkpt lat="43.41839" lon="2.24978">
        <ele>852.07952881</ele>
        <time>2022-07-10T10:18:34Z</time>
      </trkpt>
      <trkpt lat="43.41842" lon="2.24979">
        <ele>852.22955322</ele>
        <time>2022-07-10T10:18:35Z</time>
      </trkpt>
      <trkpt lat="43.41849" lon="2.24981">
        <ele>852.36956787</ele>
        <time>2022-07-10T10:18:36Z</time>
      </trkpt>
      <trkpt lat="43.41852" lon="2.24982">
        <ele>852.46954346</ele>
        <time>2022-07-10T10:18:37Z</time>
      </trkpt>
      <trkpt lat="43.41856" lon="2.24983">
        <ele>852.58953857</ele>
        <time>2022-07-10T10:18:38Z</time>
      </trkpt>
      <trkpt lat="43.41859" lon="2.24984">
        <ele>852.72955322</ele>
        <time>2022-07-10T10:18:39Z</time>
      </trkpt>
      <trkpt lat="43.41863" lon="2.24985">
        <ele>852.81958008</ele>
        <time>2022-07-10T10:18:40Z</time>
      </trkpt>
      <trkpt lat="43.41864" lon="2.24985">
        <ele>852.97955322</ele>
        <time>2022-07-10T10:18:41Z</time>
      </trkpt>
      <trkpt lat="43.41866" lon="2.24986">
        <ele>853.14953613</ele>
        <time>2022-07-10T10:18:42Z</time>
      </trkpt>
      <trkpt lat="43.41868" lon="2.24986">
        <ele>853.22955322</ele>
        <time>2022-07-10T10:18:43Z</time>
      </trkpt>
      <trkpt lat="43.41871" lon="2.24988">
        <ele>853.45953369</ele>
        <time>2022-07-10T10:18:44Z</time>
      </trkpt>
      <trkpt lat="43.41876" lon="2.24991">
        <ele>853.64953613</ele>
        <time>2022-07-10T10:18:45Z</time>
      </trkpt>
      <trkpt lat="43.41879" lon="2.24992">
        <ele>853.83953857</ele>
        <time>2022-07-10T10:18:46Z</time>
      </trkpt>
      <trkpt lat="43.41882" lon="2.24992">
        <ele>854.01953125</ele>
        <time>2022-07-10T10:18:47Z</time>
      </trkpt>
      <trkpt lat="43.41886" lon="2.24994">
        <ele>854.1295166</ele>
        <time>2022-07-10T10:18:48Z</time>
      </trkpt>
      <trkpt lat="43.41889" lon="2.24995">
        <ele>854.23950195</ele>
        <time>2022-07-10T10:18:49Z</time>
      </trkpt>
      <trkpt lat="43.41893" lon="2.24997">
        <ele>854.32952881</ele>
        <time>2022-07-10T10:18:50Z</time>
      </trkpt>
      <trkpt lat="43.41895" lon="2.24997">
        <ele>854.42950439</ele>
        <time>2022-07-10T10:18:51Z</time>
      </trkpt>
      <trkpt lat="43.41899" lon="2.24999">
        <ele>854.58947754</ele>
        <time>2022-07-10T10:18:52Z</time>
      </trkpt>
      <trkpt lat="43.41903" lon="2.25">
        <ele>854.74945068</ele>
        <time>2022-07-10T10:18:53Z</time>
      </trkpt>
      <trkpt lat="43.41908" lon="2.25001">
        <ele>854.99945068</ele>
        <time>2022-07-10T10:18:54Z</time>
      </trkpt>
      <trkpt lat="43.41911" lon="2.25003">
        <ele>855.23944092</ele>
        <time>2022-07-10T10:18:55Z</time>
      </trkpt>
      <trkpt lat="43.41913" lon="2.25004">
        <ele>855.43945312</ele>
        <time>2022-07-10T10:18:56Z</time>
      </trkpt>
      <trkpt lat="43.41916" lon="2.25005">
        <ele>855.68945312</ele>
        <time>2022-07-10T10:18:57Z</time>
      </trkpt>
      <trkpt lat="43.41919" lon="2.25006">
        <ele>855.88946533</ele>
        <time>2022-07-10T10:18:58Z</time>
      </trkpt>
      <trkpt lat="43.41922" lon="2.25007">
        <ele>856.1194458</ele>
        <time>2022-07-10T10:18:59Z</time>
      </trkpt>
      <trkpt lat="43.41924" lon="2.25007">
        <ele>856.44946289</ele>
        <time>2022-07-10T10:19:00Z</time>
      </trkpt>
      <trkpt lat="43.41927" lon="2.25009">
        <ele>856.70947266</ele>
        <time>2022-07-10T10:19:01Z</time>
      </trkpt>
      <trkpt lat="43.41929" lon="2.2501">
        <ele>857.01947021</ele>
        <time>2022-07-10T10:19:02Z</time>
      </trkpt>
      <trkpt lat="43.41932" lon="2.25013">
        <ele>857.33947754</ele>
        <time>2022-07-10T10:19:03Z</time>
      </trkpt>
      <trkpt lat="43.41933" lon="2.25013">
        <ele>857.57946777</ele>
        <time>2022-07-10T10:19:04Z</time>
      </trkpt>
      <trkpt lat="43.41934" lon="2.25013">
        <ele>857.8994751</ele>
        <time>2022-07-10T10:19:05Z</time>
      </trkpt>
      <trkpt lat="43.41937" lon="2.25013">
        <ele>858.20947266</ele>
        <time>2022-07-10T10:19:06Z</time>
      </trkpt>
      <trkpt lat="43.41939" lon="2.25013">
        <ele>858.42944336</ele>
        <time>2022-07-10T10:19:07Z</time>
      </trkpt>
      <trkpt lat="43.41943" lon="2.25014">
        <ele>858.68945312</ele>
        <time>2022-07-10T10:19:08Z</time>
      </trkpt>
      <trkpt lat="43.41945" lon="2.25015">
        <ele>859.12945557</ele>
        <time>2022-07-10T10:19:09Z</time>
      </trkpt>
      <trkpt lat="43.41947" lon="2.25016">
        <ele>859.35943604</ele>
        <time>2022-07-10T10:19:10Z</time>
      </trkpt>
      <trkpt lat="43.41949" lon="2.25017">
        <ele>859.63946533</ele>
        <time>2022-07-10T10:19:11Z</time>
      </trkpt>
      <trkpt lat="43.41952" lon="2.25018">
        <ele>859.83947754</ele>
        <time>2022-07-10T10:19:12Z</time>
      </trkpt>
      <trkpt lat="43.41954" lon="2.25019">
        <ele>860.0994873</ele>
        <time>2022-07-10T10:19:13Z</time>
      </trkpt>
      <trkpt lat="43.41956" lon="2.25019">
        <ele>860.28948975</ele>
        <time>2022-07-10T10:19:14Z</time>
      </trkpt>
      <trkpt lat="43.41957" lon="2.25019">
        <ele>860.45947266</ele>
        <time>2022-07-10T10:19:15Z</time>
      </trkpt>
      <trkpt lat="43.4196" lon="2.2502">
        <ele>860.62945557</ele>
        <time>2022-07-10T10:19:16Z</time>
      </trkpt>
      <trkpt lat="43.41962" lon="2.25021">
        <ele>860.76947021</ele>
        <time>2022-07-10T10:19:17Z</time>
      </trkpt>
      <trkpt lat="43.41964" lon="2.25022">
        <ele>860.82946777</ele>
        <time>2022-07-10T10:19:18Z</time>
      </trkpt>
      <trkpt lat="43.41967" lon="2.25025">
        <ele>860.98944092</ele>
        <time>2022-07-10T10:19:19Z</time>
      </trkpt>
      <trkpt lat="43.4197" lon="2.25026">
        <ele>861.17944336</ele>
        <time>2022-07-10T10:19:20Z</time>
      </trkpt>
      <trkpt lat="43.41975" lon="2.25028">
        <ele>861.40942383</ele>
        <time>2022-07-10T10:19:21Z</time>
      </trkpt>
      <trkpt lat="43.41977" lon="2.25028">
        <ele>861.70941162</ele>
        <time>2022-07-10T10:19:22Z</time>
      </trkpt>
      <trkpt lat="43.41979" lon="2.25029">
        <ele>861.90942383</ele>
        <time>2022-07-10T10:19:23Z</time>
      </trkpt>
      <trkpt lat="43.41981" lon="2.2503">
        <ele>862.12939453</ele>
        <time>2022-07-10T10:19:24Z</time>
      </trkpt>
      <trkpt lat="43.41984" lon="2.25032">
        <ele>862.34936523</ele>
        <time>2022-07-10T10:19:25Z</time>
      </trkpt>
      <trkpt lat="43.41986" lon="2.25033">
        <ele>862.59936523</ele>
        <time>2022-07-10T10:19:26Z</time>
      </trkpt>
      <trkpt lat="43.41988" lon="2.25035">
        <ele>862.93939209</ele>
        <time>2022-07-10T10:19:27Z</time>
      </trkpt>
      <trkpt lat="43.41991" lon="2.25036">
        <ele>863.22937012</ele>
        <time>2022-07-10T10:19:28Z</time>
      </trkpt>
      <trkpt lat="43.41995" lon="2.25038">
        <ele>863.45935059</ele>
        <time>2022-07-10T10:19:29Z</time>
      </trkpt>
      <trkpt lat="43.41998" lon="2.25039">
        <ele>863.65936279</ele>
        <time>2022-07-10T10:19:30Z</time>
      </trkpt>
      <trkpt lat="43.42" lon="2.2504">
        <ele>863.84936523</ele>
        <time>2022-07-10T10:19:31Z</time>
      </trkpt>
      <trkpt lat="43.42001" lon="2.25041">
        <ele>864.04937744</ele>
        <time>2022-07-10T10:19:32Z</time>
      </trkpt>
      <trkpt lat="43.42003" lon="2.25043">
        <ele>864.27935791</ele>
        <time>2022-07-10T10:19:33Z</time>
      </trkpt>
      <trkpt lat="43.42008" lon="2.25045">
        <ele>864.55938721</ele>
        <time>2022-07-10T10:19:34Z</time>
      </trkpt>
      <trkpt lat="43.42009" lon="2.25047">
        <ele>864.75939941</ele>
        <time>2022-07-10T10:19:35Z</time>
      </trkpt>
      <trkpt lat="43.4201" lon="2.25049">
        <ele>864.93939209</ele>
        <time>2022-07-10T10:19:36Z</time>
      </trkpt>
      <trkpt lat="43.42012" lon="2.2505">
        <ele>865.1394043</ele>
        <time>2022-07-10T10:19:37Z</time>
      </trkpt>
      <trkpt lat="43.42014" lon="2.25052">
        <ele>865.21942139</ele>
        <time>2022-07-10T10:19:38Z</time>
      </trkpt>
      <trkpt lat="43.42017" lon="2.25055">
        <ele>865.35943604</ele>
        <time>2022-07-10T10:19:39Z</time>
      </trkpt>
      <trkpt lat="43.4202" lon="2.25056">
        <ele>865.52941895</ele>
        <time>2022-07-10T10:19:40Z</time>
      </trkpt>
      <trkpt lat="43.42022" lon="2.25058">
        <ele>865.65942383</ele>
        <time>2022-07-10T10:19:41Z</time>
      </trkpt>
      <trkpt lat="43.42024" lon="2.25059">
        <ele>865.8694458</ele>
        <time>2022-07-10T10:19:42Z</time>
      </trkpt>
      <trkpt lat="43.42026" lon="2.2506">
        <ele>866.03942871</ele>
        <time>2022-07-10T10:19:43Z</time>
      </trkpt>
      <trkpt lat="43.42028" lon="2.25061">
        <ele>866.1394043</ele>
        <time>2022-07-10T10:19:44Z</time>
      </trkpt>
      <trkpt lat="43.4203" lon="2.25062">
        <ele>866.32940674</ele>
        <time>2022-07-10T10:19:45Z</time>
      </trkpt>
      <trkpt lat="43.42031" lon="2.25064">
        <ele>866.48937988</ele>
        <time>2022-07-10T10:19:46Z</time>
      </trkpt>
      <trkpt lat="43.42033" lon="2.25066">
        <ele>866.72937012</ele>
        <time>2022-07-10T10:19:47Z</time>
      </trkpt>
      <trkpt lat="43.42035" lon="2.25068">
        <ele>867.02935791</ele>
        <time>2022-07-10T10:19:48Z</time>
      </trkpt>
      <trkpt lat="43.42037" lon="2.2507">
        <ele>867.21936035</ele>
        <time>2022-07-10T10:19:49Z</time>
      </trkpt>
      <trkpt lat="43.42038" lon="2.25071">
        <ele>867.44934082</ele>
        <time>2022-07-10T10:19:50Z</time>
      </trkpt>
      <trkpt lat="43.42039" lon="2.25074">
        <ele>867.58935547</ele>
        <time>2022-07-10T10:19:51Z</time>
      </trkpt>
      <trkpt lat="43.4204" lon="2.25076">
        <ele>867.72937012</ele>
        <time>2022-07-10T10:19:52Z</time>
      </trkpt>
      <trkpt lat="43.42042" lon="2.2508">
        <ele>867.94934082</ele>
        <time>2022-07-10T10:19:53Z</time>
      </trkpt>
      <trkpt lat="43.42044" lon="2.25082">
        <ele>868.14935303</ele>
        <time>2022-07-10T10:19:54Z</time>
      </trkpt>
      <trkpt lat="43.42046" lon="2.25084">
        <ele>868.3793335</ele>
        <time>2022-07-10T10:19:55Z</time>
      </trkpt>
      <trkpt lat="43.42047" lon="2.25086">
        <ele>868.63934326</ele>
        <time>2022-07-10T10:19:56Z</time>
      </trkpt>
      <trkpt lat="43.42051" lon="2.25089">
        <ele>868.8793335</ele>
        <time>2022-07-10T10:19:57Z</time>
      </trkpt>
      <trkpt lat="43.42053" lon="2.25091">
        <ele>869.14935303</ele>
        <time>2022-07-10T10:19:58Z</time>
      </trkpt>
      <trkpt lat="43.42054" lon="2.25094">
        <ele>869.42938232</ele>
        <time>2022-07-10T10:19:59Z</time>
      </trkpt>
      <trkpt lat="43.42055" lon="2.25097">
        <ele>869.6394043</ele>
        <time>2022-07-10T10:20:00Z</time>
      </trkpt>
      <trkpt lat="43.42057" lon="2.25099">
        <ele>869.87939453</ele>
        <time>2022-07-10T10:20:01Z</time>
      </trkpt>
      <trkpt lat="43.42059" lon="2.25103">
        <ele>870.09936523</ele>
        <time>2022-07-10T10:20:02Z</time>
      </trkpt>
      <trkpt lat="43.4206" lon="2.25105">
        <ele>870.34936523</ele>
        <time>2022-07-10T10:20:03Z</time>
      </trkpt>
      <trkpt lat="43.42062" lon="2.25107">
        <ele>870.69934082</ele>
        <time>2022-07-10T10:20:04Z</time>
      </trkpt>
      <trkpt lat="43.42064" lon="2.2511">
        <ele>871.06933594</ele>
        <time>2022-07-10T10:20:05Z</time>
      </trkpt>
      <trkpt lat="43.42066" lon="2.25113">
        <ele>871.42932129</ele>
        <time>2022-07-10T10:20:06Z</time>
      </trkpt>
      <trkpt lat="43.42068" lon="2.25115">
        <ele>871.73931885</ele>
        <time>2022-07-10T10:20:07Z</time>
      </trkpt>
      <trkpt lat="43.42069" lon="2.25118">
        <ele>871.97930908</ele>
        <time>2022-07-10T10:20:08Z</time>
      </trkpt>
      <trkpt lat="43.42069" lon="2.25119">
        <ele>872.18933105</ele>
        <time>2022-07-10T10:20:09Z</time>
      </trkpt>
      <trkpt lat="43.42071" lon="2.25122">
        <ele>872.41931152</ele>
        <time>2022-07-10T10:20:10Z</time>
      </trkpt>
      <trkpt lat="43.42072" lon="2.25125">
        <ele>872.67932129</ele>
        <time>2022-07-10T10:20:11Z</time>
      </trkpt>
      <trkpt lat="43.42074" lon="2.25127">
        <ele>872.96929932</ele>
        <time>2022-07-10T10:20:12Z</time>
      </trkpt>
      <trkpt lat="43.42075" lon="2.25129">
        <ele>873.17932129</ele>
        <time>2022-07-10T10:20:13Z</time>
      </trkpt>
      <trkpt lat="43.42076" lon="2.25131">
        <ele>873.36932373</ele>
        <time>2022-07-10T10:20:14Z</time>
      </trkpt>
      <trkpt lat="43.42078" lon="2.25133">
        <ele>873.5793457</ele>
        <time>2022-07-10T10:20:15Z</time>
      </trkpt>
      <trkpt lat="43.42079" lon="2.25135">
        <ele>873.83935547</ele>
        <time>2022-07-10T10:20:16Z</time>
      </trkpt>
      <trkpt lat="43.4208" lon="2.25137">
        <ele>874.06933594</ele>
        <time>2022-07-10T10:20:17Z</time>
      </trkpt>
      <trkpt lat="43.42081" lon="2.25139">
        <ele>874.3293457</ele>
        <time>2022-07-10T10:20:18Z</time>
      </trkpt>
      <trkpt lat="43.42082" lon="2.25141">
        <ele>874.64935303</ele>
        <time>2022-07-10T10:20:19Z</time>
      </trkpt>
      <trkpt lat="43.42085" lon="2.25144">
        <ele>874.84936523</ele>
        <time>2022-07-10T10:20:20Z</time>
      </trkpt>
      <trkpt lat="43.42087" lon="2.25147">
        <ele>875.11938477</ele>
        <time>2022-07-10T10:20:21Z</time>
      </trkpt>
      <trkpt lat="43.42088" lon="2.25149">
        <ele>875.36938477</ele>
        <time>2022-07-10T10:20:22Z</time>
      </trkpt>
      <trkpt lat="43.4209" lon="2.25152">
        <ele>875.52935791</ele>
        <time>2022-07-10T10:20:23Z</time>
      </trkpt>
      <trkpt lat="43.42093" lon="2.25157">
        <ele>875.71936035</ele>
        <time>2022-07-10T10:20:24Z</time>
      </trkpt>
      <trkpt lat="43.42096" lon="2.25159">
        <ele>875.88934326</ele>
        <time>2022-07-10T10:20:25Z</time>
      </trkpt>
      <trkpt lat="43.42098" lon="2.25161">
        <ele>876.0793457</ele>
        <time>2022-07-10T10:20:26Z</time>
      </trkpt>
      <trkpt lat="43.42101" lon="2.25162">
        <ele>876.29931641</ele>
        <time>2022-07-10T10:20:27Z</time>
      </trkpt>
      <trkpt lat="43.42104" lon="2.25163">
        <ele>876.58929443</ele>
        <time>2022-07-10T10:20:28Z</time>
      </trkpt>
      <trkpt lat="43.42106" lon="2.25164">
        <ele>876.87927246</ele>
        <time>2022-07-10T10:20:29Z</time>
      </trkpt>
      <trkpt lat="43.42108" lon="2.25165">
        <ele>877.15930176</ele>
        <time>2022-07-10T10:20:30Z</time>
      </trkpt>
      <trkpt lat="43.4211" lon="2.25166">
        <ele>877.44927979</ele>
        <time>2022-07-10T10:20:31Z</time>
      </trkpt>
      <trkpt lat="43.42112" lon="2.25166">
        <ele>877.69927979</ele>
        <time>2022-07-10T10:20:32Z</time>
      </trkpt>
      <trkpt lat="43.42114" lon="2.25168">
        <ele>877.98925781</ele>
        <time>2022-07-10T10:20:33Z</time>
      </trkpt>
      <trkpt lat="43.42117" lon="2.25168">
        <ele>878.25927734</ele>
        <time>2022-07-10T10:20:34Z</time>
      </trkpt>
      <trkpt lat="43.42119" lon="2.25169">
        <ele>878.50927734</ele>
        <time>2022-07-10T10:20:35Z</time>
      </trkpt>
      <trkpt lat="43.42121" lon="2.25169">
        <ele>878.74926758</ele>
        <time>2022-07-10T10:20:36Z</time>
      </trkpt>
      <trkpt lat="43.42125" lon="2.25171">
        <ele>878.99926758</ele>
        <time>2022-07-10T10:20:37Z</time>
      </trkpt>
      <trkpt lat="43.42126" lon="2.25172">
        <ele>879.24926758</ele>
        <time>2022-07-10T10:20:38Z</time>
      </trkpt>
      <trkpt lat="43.42128" lon="2.25173">
        <ele>879.53924561</ele>
        <time>2022-07-10T10:20:39Z</time>
      </trkpt>
      <trkpt lat="43.42129" lon="2.25173">
        <ele>879.77923584</ele>
        <time>2022-07-10T10:20:40Z</time>
      </trkpt>
      <trkpt lat="43.42132" lon="2.25175">
        <ele>879.99920654</ele>
        <time>2022-07-10T10:20:41Z</time>
      </trkpt>
      <trkpt lat="43.42135" lon="2.25177">
        <ele>880.23919678</ele>
        <time>2022-07-10T10:20:42Z</time>
      </trkpt>
      <trkpt lat="43.42137" lon="2.25178">
        <ele>880.38922119</ele>
        <time>2022-07-10T10:20:43Z</time>
      </trkpt>
      <trkpt lat="43.4214" lon="2.25179">
        <ele>880.5592041</ele>
        <time>2022-07-10T10:20:44Z</time>
      </trkpt>
      <trkpt lat="43.42141" lon="2.2518">
        <ele>880.72918701</ele>
        <time>2022-07-10T10:20:45Z</time>
      </trkpt>
      <trkpt lat="43.42143" lon="2.25182">
        <ele>880.8291626</ele>
        <time>2022-07-10T10:20:46Z</time>
      </trkpt>
      <trkpt lat="43.42145" lon="2.25184">
        <ele>880.99914551</ele>
        <time>2022-07-10T10:20:47Z</time>
      </trkpt>
      <trkpt lat="43.42147" lon="2.25185">
        <ele>881.20916748</ele>
        <time>2022-07-10T10:20:48Z</time>
      </trkpt>
      <trkpt lat="43.42148" lon="2.25187">
        <ele>881.36914062</ele>
        <time>2022-07-10T10:20:49Z</time>
      </trkpt>
      <trkpt lat="43.4215" lon="2.25189">
        <ele>881.62915039</ele>
        <time>2022-07-10T10:20:50Z</time>
      </trkpt>
      <trkpt lat="43.42152" lon="2.2519">
        <ele>881.83917236</ele>
        <time>2022-07-10T10:20:51Z</time>
      </trkpt>
      <trkpt lat="43.42153" lon="2.25191">
        <ele>882.10919189</ele>
        <time>2022-07-10T10:20:52Z</time>
      </trkpt>
      <trkpt lat="43.42155" lon="2.25192">
        <ele>882.43920898</ele>
        <time>2022-07-10T10:20:53Z</time>
      </trkpt>
      <trkpt lat="43.42156" lon="2.25193">
        <ele>882.68920898</ele>
        <time>2022-07-10T10:20:54Z</time>
      </trkpt>
      <trkpt lat="43.42159" lon="2.25195">
        <ele>883.00921631</ele>
        <time>2022-07-10T10:20:55Z</time>
      </trkpt>
      <trkpt lat="43.4216" lon="2.25196">
        <ele>883.17919922</ele>
        <time>2022-07-10T10:20:56Z</time>
      </trkpt>
      <trkpt lat="43.42162" lon="2.25197">
        <ele>883.38922119</ele>
        <time>2022-07-10T10:20:57Z</time>
      </trkpt>
      <trkpt lat="43.42164" lon="2.25198">
        <ele>883.5592041</ele>
        <time>2022-07-10T10:20:58Z</time>
      </trkpt>
      <trkpt lat="43.42166" lon="2.252">
        <ele>883.65917969</ele>
        <time>2022-07-10T10:20:59Z</time>
      </trkpt>
      <trkpt lat="43.42167" lon="2.25201">
        <ele>883.84918213</ele>
        <time>2022-07-10T10:21:00Z</time>
      </trkpt>
      <trkpt lat="43.42168" lon="2.25203">
        <ele>883.98919678</ele>
        <time>2022-07-10T10:21:01Z</time>
      </trkpt>
      <trkpt lat="43.42169" lon="2.25204">
        <ele>884.14916992</ele>
        <time>2022-07-10T10:21:02Z</time>
      </trkpt>
      <trkpt lat="43.42171" lon="2.25206">
        <ele>884.28918457</ele>
        <time>2022-07-10T10:21:03Z</time>
      </trkpt>
      <trkpt lat="43.42174" lon="2.25209">
        <ele>884.39916992</ele>
        <time>2022-07-10T10:21:04Z</time>
      </trkpt>
      <trkpt lat="43.42175" lon="2.2521">
        <ele>884.56915283</ele>
        <time>2022-07-10T10:21:05Z</time>
      </trkpt>
      <trkpt lat="43.42177" lon="2.25212">
        <ele>884.73913574</ele>
        <time>2022-07-10T10:21:06Z</time>
      </trkpt>
      <trkpt lat="43.42179" lon="2.25213">
        <ele>884.97912598</ele>
        <time>2022-07-10T10:21:07Z</time>
      </trkpt>
      <trkpt lat="43.42181" lon="2.25214">
        <ele>885.18914795</ele>
        <time>2022-07-10T10:21:08Z</time>
      </trkpt>
      <trkpt lat="43.42184" lon="2.25216">
        <ele>885.69915771</ele>
        <time>2022-07-10T10:21:09Z</time>
      </trkpt>
      <trkpt lat="43.42186" lon="2.25217">
        <ele>885.91912842</ele>
        <time>2022-07-10T10:21:10Z</time>
      </trkpt>
      <trkpt lat="43.42188" lon="2.25218">
        <ele>886.06915283</ele>
        <time>2022-07-10T10:21:11Z</time>
      </trkpt>
      <trkpt lat="43.4219" lon="2.25219">
        <ele>886.23913574</ele>
        <time>2022-07-10T10:21:12Z</time>
      </trkpt>
      <trkpt lat="43.42192" lon="2.2522">
        <ele>886.41912842</ele>
        <time>2022-07-10T10:21:13Z</time>
      </trkpt>
      <trkpt lat="43.42195" lon="2.25221">
        <ele>886.52911377</ele>
        <time>2022-07-10T10:21:14Z</time>
      </trkpt>
      <trkpt lat="43.42197" lon="2.25222">
        <ele>886.68908691</ele>
        <time>2022-07-10T10:21:15Z</time>
      </trkpt>
      <trkpt lat="43.42199" lon="2.25223">
        <ele>886.84906006</ele>
        <time>2022-07-10T10:21:16Z</time>
      </trkpt>
      <trkpt lat="43.42201" lon="2.25224">
        <ele>887.0090332</ele>
        <time>2022-07-10T10:21:17Z</time>
      </trkpt>
      <trkpt lat="43.42205" lon="2.25226">
        <ele>887.19903564</ele>
        <time>2022-07-10T10:21:18Z</time>
      </trkpt>
      <trkpt lat="43.42208" lon="2.25227">
        <ele>887.32904053</ele>
        <time>2022-07-10T10:21:19Z</time>
      </trkpt>
      <trkpt lat="43.4221" lon="2.25228">
        <ele>887.42901611</ele>
        <time>2022-07-10T10:21:20Z</time>
      </trkpt>
      <trkpt lat="43.42213" lon="2.25229">
        <ele>887.49902344</ele>
        <time>2022-07-10T10:21:21Z</time>
      </trkpt>
      <trkpt lat="43.42216" lon="2.25231">
        <ele>887.49902344</ele>
        <time>2022-07-10T10:21:22Z</time>
      </trkpt>
      <trkpt lat="43.42219" lon="2.25232">
        <ele>887.53900146</ele>
        <time>2022-07-10T10:21:23Z</time>
      </trkpt>
      <trkpt lat="43.42222" lon="2.25232">
        <ele>887.48901367</ele>
        <time>2022-07-10T10:21:24Z</time>
      </trkpt>
      <trkpt lat="43.42224" lon="2.25233">
        <ele>887.39898682</ele>
        <time>2022-07-10T10:21:25Z</time>
      </trkpt>
      <trkpt lat="43.42228" lon="2.25234">
        <ele>887.32897949</ele>
        <time>2022-07-10T10:21:26Z</time>
      </trkpt>
      <trkpt lat="43.42233" lon="2.25236">
        <ele>887.18896484</ele>
        <time>2022-07-10T10:21:27Z</time>
      </trkpt>
      <trkpt lat="43.42238" lon="2.25236">
        <ele>887.0289917</ele>
        <time>2022-07-10T10:21:28Z</time>
      </trkpt>
      <trkpt lat="43.42241" lon="2.25238">
        <ele>886.83898926</ele>
        <time>2022-07-10T10:21:29Z</time>
      </trkpt>
      <trkpt lat="43.42245" lon="2.2524">
        <ele>886.64898682</ele>
        <time>2022-07-10T10:21:30Z</time>
      </trkpt>
      <trkpt lat="43.42248" lon="2.25245">
        <ele>886.36895752</ele>
        <time>2022-07-10T10:21:31Z</time>
      </trkpt>
      <trkpt lat="43.42252" lon="2.25247">
        <ele>886.08892822</ele>
        <time>2022-07-10T10:21:32Z</time>
      </trkpt>
      <trkpt lat="43.42255" lon="2.2525">
        <ele>885.80889893</ele>
        <time>2022-07-10T10:21:33Z</time>
      </trkpt>
      <trkpt lat="43.42259" lon="2.25254">
        <ele>885.47888184</ele>
        <time>2022-07-10T10:21:34Z</time>
      </trkpt>
      <trkpt lat="43.42263" lon="2.25257">
        <ele>885.12890625</ele>
        <time>2022-07-10T10:21:35Z</time>
      </trkpt>
      <trkpt lat="43.42269" lon="2.25262">
        <ele>884.7689209</ele>
        <time>2022-07-10T10:21:36Z</time>
      </trkpt>
      <trkpt lat="43.42274" lon="2.25266">
        <ele>884.18890381</ele>
        <time>2022-07-10T10:21:37Z</time>
      </trkpt>
      <trkpt lat="43.42278" lon="2.2527">
        <ele>883.62890625</ele>
        <time>2022-07-10T10:21:38Z</time>
      </trkpt>
      <trkpt lat="43.42282" lon="2.25273">
        <ele>882.97888184</ele>
        <time>2022-07-10T10:21:39Z</time>
      </trkpt>
      <trkpt lat="43.42285" lon="2.25277">
        <ele>882.33886719</ele>
        <time>2022-07-10T10:21:40Z</time>
      </trkpt>
      <trkpt lat="43.42293" lon="2.25282">
        <ele>881.86889648</ele>
        <time>2022-07-10T10:21:41Z</time>
      </trkpt>
      <trkpt lat="43.42299" lon="2.25285">
        <ele>881.54888916</ele>
        <time>2022-07-10T10:21:42Z</time>
      </trkpt>
      <trkpt lat="43.42305" lon="2.25288">
        <ele>881.34887695</ele>
        <time>2022-07-10T10:21:43Z</time>
      </trkpt>
      <trkpt lat="43.4231" lon="2.25292">
        <ele>880.96887207</ele>
        <time>2022-07-10T10:21:44Z</time>
      </trkpt>
      <trkpt lat="43.42318" lon="2.25297">
        <ele>880.71887207</ele>
        <time>2022-07-10T10:21:45Z</time>
      </trkpt>
      <trkpt lat="43.42323" lon="2.253">
        <ele>880.35888672</ele>
        <time>2022-07-10T10:21:46Z</time>
      </trkpt>
      <trkpt lat="43.42329" lon="2.25302">
        <ele>879.97888184</ele>
        <time>2022-07-10T10:21:47Z</time>
      </trkpt>
      <trkpt lat="43.42335" lon="2.25305">
        <ele>879.91888428</ele>
        <time>2022-07-10T10:21:48Z</time>
      </trkpt>
      <trkpt lat="43.42343" lon="2.25309">
        <ele>879.66888428</ele>
        <time>2022-07-10T10:21:49Z</time>
      </trkpt>
      <trkpt lat="43.42348" lon="2.25311">
        <ele>879.65887451</ele>
        <time>2022-07-10T10:21:50Z</time>
      </trkpt>
      <trkpt lat="43.42355" lon="2.25314">
        <ele>879.64886475</ele>
        <time>2022-07-10T10:21:51Z</time>
      </trkpt>
      <trkpt lat="43.4236" lon="2.25316">
        <ele>879.4888916</ele>
        <time>2022-07-10T10:21:52Z</time>
      </trkpt>
      <trkpt lat="43.42365" lon="2.25318">
        <ele>879.40887451</ele>
        <time>2022-07-10T10:21:53Z</time>
      </trkpt>
      <trkpt lat="43.42372" lon="2.25322">
        <ele>878.7088623</ele>
        <time>2022-07-10T10:21:54Z</time>
      </trkpt>
      <trkpt lat="43.42377" lon="2.25324">
        <ele>877.89886475</ele>
        <time>2022-07-10T10:21:55Z</time>
      </trkpt>
      <trkpt lat="43.42382" lon="2.25327">
        <ele>877.43884277</ele>
        <time>2022-07-10T10:21:56Z</time>
      </trkpt>
      <trkpt lat="43.42387" lon="2.2533">
        <ele>876.66882324</ele>
        <time>2022-07-10T10:21:57Z</time>
      </trkpt>
      <trkpt lat="43.42391" lon="2.25334">
        <ele>875.86883545</ele>
        <time>2022-07-10T10:21:58Z</time>
      </trkpt>
      <trkpt lat="43.42397" lon="2.25339">
        <ele>875.17883301</ele>
        <time>2022-07-10T10:21:59Z</time>
      </trkpt>
      <trkpt lat="43.42402" lon="2.25343">
        <ele>874.08880615</ele>
        <time>2022-07-10T10:22:00Z</time>
      </trkpt>
      <trkpt lat="43.42408" lon="2.25346">
        <ele>873.17883301</ele>
        <time>2022-07-10T10:22:01Z</time>
      </trkpt>
      <trkpt lat="43.42416" lon="2.25349">
        <ele>872.53881836</ele>
        <time>2022-07-10T10:22:02Z</time>
      </trkpt>
      <trkpt lat="43.42427" lon="2.25355">
        <ele>871.99884033</ele>
        <time>2022-07-10T10:22:03Z</time>
      </trkpt>
      <trkpt lat="43.42434" lon="2.25359">
        <ele>871.64886475</ele>
        <time>2022-07-10T10:22:04Z</time>
      </trkpt>
      <trkpt lat="43.42441" lon="2.25362">
        <ele>871.2088623</ele>
        <time>2022-07-10T10:22:05Z</time>
      </trkpt>
      <trkpt lat="43.42448" lon="2.25364">
        <ele>870.72888184</ele>
        <time>2022-07-10T10:22:06Z</time>
      </trkpt>
      <trkpt lat="43.4246" lon="2.25368">
        <ele>870.11889648</ele>
        <time>2022-07-10T10:22:07Z</time>
      </trkpt>
      <trkpt lat="43.42469" lon="2.2537">
        <ele>869.36889648</ele>
        <time>2022-07-10T10:22:08Z</time>
      </trkpt>
      <trkpt lat="43.42477" lon="2.25371">
        <ele>868.54888916</ele>
        <time>2022-07-10T10:22:09Z</time>
      </trkpt>
      <trkpt lat="43.42485" lon="2.25373">
        <ele>867.84887695</ele>
        <time>2022-07-10T10:22:10Z</time>
      </trkpt>
      <trkpt lat="43.42492" lon="2.25375">
        <ele>866.97888184</ele>
        <time>2022-07-10T10:22:11Z</time>
      </trkpt>
      <trkpt lat="43.42503" lon="2.25377">
        <ele>866.12890625</ele>
        <time>2022-07-10T10:22:12Z</time>
      </trkpt>
      <trkpt lat="43.42511" lon="2.2538">
        <ele>865.46893311</ele>
        <time>2022-07-10T10:22:13Z</time>
      </trkpt>
      <trkpt lat="43.42517" lon="2.25383">
        <ele>864.95892334</ele>
        <time>2022-07-10T10:22:14Z</time>
      </trkpt>
      <trkpt lat="43.42523" lon="2.25386">
        <ele>864.50891113</ele>
        <time>2022-07-10T10:22:15Z</time>
      </trkpt>
      <trkpt lat="43.4253" lon="2.25388">
        <ele>864.07891846</ele>
        <time>2022-07-10T10:22:16Z</time>
      </trkpt>
      <trkpt lat="43.42539" lon="2.25391">
        <ele>863.7388916</ele>
        <time>2022-07-10T10:22:17Z</time>
      </trkpt>
      <trkpt lat="43.42545" lon="2.25394">
        <ele>863.28887939</ele>
        <time>2022-07-10T10:22:18Z</time>
      </trkpt>
      <trkpt lat="43.42551" lon="2.25396">
        <ele>862.84887695</ele>
        <time>2022-07-10T10:22:19Z</time>
      </trkpt>
      <trkpt lat="43.42557" lon="2.25399">
        <ele>862.52886963</ele>
        <time>2022-07-10T10:22:20Z</time>
      </trkpt>
      <trkpt lat="43.42567" lon="2.25402">
        <ele>861.9888916</ele>
        <time>2022-07-10T10:22:21Z</time>
      </trkpt>
      <trkpt lat="43.42573" lon="2.25405">
        <ele>861.47888184</ele>
        <time>2022-07-10T10:22:22Z</time>
      </trkpt>
      <trkpt lat="43.42579" lon="2.25408">
        <ele>860.97888184</ele>
        <time>2022-07-10T10:22:23Z</time>
      </trkpt>
      <trkpt lat="43.42585" lon="2.25412">
        <ele>860.28887939</ele>
        <time>2022-07-10T10:22:24Z</time>
      </trkpt>
      <trkpt lat="43.4259" lon="2.25413">
        <ele>859.84887695</ele>
        <time>2022-07-10T10:22:25Z</time>
      </trkpt>
      <trkpt lat="43.42599" lon="2.25417">
        <ele>859.2088623</ele>
        <time>2022-07-10T10:22:26Z</time>
      </trkpt>
      <trkpt lat="43.42606" lon="2.2542">
        <ele>858.66888428</ele>
        <time>2022-07-10T10:22:27Z</time>
      </trkpt>
      <trkpt lat="43.42614" lon="2.25423">
        <ele>858.28887939</ele>
        <time>2022-07-10T10:22:28Z</time>
      </trkpt>
      <trkpt lat="43.42625" lon="2.25426">
        <ele>857.7088623</ele>
        <time>2022-07-10T10:22:29Z</time>
      </trkpt>
      <trkpt lat="43.42638" lon="2.25431">
        <ele>857.28887939</ele>
        <time>2022-07-10T10:22:30Z</time>
      </trkpt>
      <trkpt lat="43.42645" lon="2.25434">
        <ele>856.66888428</ele>
        <time>2022-07-10T10:22:31Z</time>
      </trkpt>
      <trkpt lat="43.42653" lon="2.25437">
        <ele>855.91888428</ele>
        <time>2022-07-10T10:22:32Z</time>
      </trkpt>
      <trkpt lat="43.42661" lon="2.25441">
        <ele>855.4588623</ele>
        <time>2022-07-10T10:22:33Z</time>
      </trkpt>
      <trkpt lat="43.42672" lon="2.25446">
        <ele>854.81884766</ele>
        <time>2022-07-10T10:22:34Z</time>
      </trkpt>
      <trkpt lat="43.42678" lon="2.25449">
        <ele>854.4788208</ele>
        <time>2022-07-10T10:22:35Z</time>
      </trkpt>
      <trkpt lat="43.42683" lon="2.25452">
        <ele>854.21881104</ele>
        <time>2022-07-10T10:22:36Z</time>
      </trkpt>
      <trkpt lat="43.42688" lon="2.25456">
        <ele>853.78881836</ele>
        <time>2022-07-10T10:22:37Z</time>
      </trkpt>
      <trkpt lat="43.42697" lon="2.25462">
        <ele>853.78881836</ele>
        <time>2022-07-10T10:22:38Z</time>
      </trkpt>
      <trkpt lat="43.42703" lon="2.25466">
        <ele>853.89880371</ele>
        <time>2022-07-10T10:22:39Z</time>
      </trkpt>
      <trkpt lat="43.42708" lon="2.25469">
        <ele>854.04882812</ele>
        <time>2022-07-10T10:22:40Z</time>
      </trkpt>
      <trkpt lat="43.42712" lon="2.25472">
        <ele>854.4788208</ele>
        <time>2022-07-10T10:22:41Z</time>
      </trkpt>
      <trkpt lat="43.42717" lon="2.25474">
        <ele>854.79882812</ele>
        <time>2022-07-10T10:22:42Z</time>
      </trkpt>
      <trkpt lat="43.42722" lon="2.25478">
        <ele>855.09881592</ele>
        <time>2022-07-10T10:22:43Z</time>
      </trkpt>
      <trkpt lat="43.42724" lon="2.25481">
        <ele>855.36883545</ele>
        <time>2022-07-10T10:22:44Z</time>
      </trkpt>
      <trkpt lat="43.42725" lon="2.25484">
        <ele>855.54882812</ele>
        <time>2022-07-10T10:22:45Z</time>
      </trkpt>
      <trkpt lat="43.42726" lon="2.25487">
        <ele>855.61883545</ele>
        <time>2022-07-10T10:22:46Z</time>
      </trkpt>
      <trkpt lat="43.42726" lon="2.2549">
        <ele>855.52880859</ele>
        <time>2022-07-10T10:22:47Z</time>
      </trkpt>
      <trkpt lat="43.42728" lon="2.25495">
        <ele>855.30883789</ele>
        <time>2022-07-10T10:22:48Z</time>
      </trkpt>
      <trkpt lat="43.42728" lon="2.25499">
        <ele>855.01885986</ele>
        <time>2022-07-10T10:22:49Z</time>
      </trkpt>
      <trkpt lat="43.42728" lon="2.25503">
        <ele>854.74884033</ele>
        <time>2022-07-10T10:22:50Z</time>
      </trkpt>
      <trkpt lat="43.42729" lon="2.25507">
        <ele>854.59881592</ele>
        <time>2022-07-10T10:22:51Z</time>
      </trkpt>
      <trkpt lat="43.42732" lon="2.25512">
        <ele>854.55883789</ele>
        <time>2022-07-10T10:22:52Z</time>
      </trkpt>
      <trkpt lat="43.42733" lon="2.25519">
        <ele>854.49884033</ele>
        <time>2022-07-10T10:22:53Z</time>
      </trkpt>
      <trkpt lat="43.42732" lon="2.25523">
        <ele>854.39886475</ele>
        <time>2022-07-10T10:22:54Z</time>
      </trkpt>
      <trkpt lat="43.42732" lon="2.25527">
        <ele>854.28887939</ele>
        <time>2022-07-10T10:22:55Z</time>
      </trkpt>
      <trkpt lat="43.42731" lon="2.25531">
        <ele>854.09887695</ele>
        <time>2022-07-10T10:22:56Z</time>
      </trkpt>
      <trkpt lat="43.42728" lon="2.25536">
        <ele>853.85888672</ele>
        <time>2022-07-10T10:22:57Z</time>
      </trkpt>
      <trkpt lat="43.42727" lon="2.25541">
        <ele>853.54888916</ele>
        <time>2022-07-10T10:22:58Z</time>
      </trkpt>
      <trkpt lat="43.42726" lon="2.25546">
        <ele>853.02886963</ele>
        <time>2022-07-10T10:22:59Z</time>
      </trkpt>
      <trkpt lat="43.42724" lon="2.25552">
        <ele>852.4588623</ele>
        <time>2022-07-10T10:23:00Z</time>
      </trkpt>
      <trkpt lat="43.42722" lon="2.25557">
        <ele>851.86883545</ele>
        <time>2022-07-10T10:23:01Z</time>
      </trkpt>
      <trkpt lat="43.4272" lon="2.25564">
        <ele>851.2588501</ele>
        <time>2022-07-10T10:23:02Z</time>
      </trkpt>
      <trkpt lat="43.42719" lon="2.25568">
        <ele>850.87884521</ele>
        <time>2022-07-10T10:23:03Z</time>
      </trkpt>
      <trkpt lat="43.42718" lon="2.25571">
        <ele>850.68884277</ele>
        <time>2022-07-10T10:23:04Z</time>
      </trkpt>
      <trkpt lat="43.42716" lon="2.25573">
        <ele>850.69885254</ele>
        <time>2022-07-10T10:23:05Z</time>
      </trkpt>
      <trkpt lat="43.42716" lon="2.25575">
        <ele>850.84887695</ele>
        <time>2022-07-10T10:23:06Z</time>
      </trkpt>
      <trkpt lat="43.42715" lon="2.25577">
        <ele>850.9588623</ele>
        <time>2022-07-10T10:23:07Z</time>
      </trkpt>
      <trkpt lat="43.42714" lon="2.25581">
        <ele>850.84887695</ele>
        <time>2022-07-10T10:23:08Z</time>
      </trkpt>
      <trkpt lat="43.42713" lon="2.25586">
        <ele>851.34887695</ele>
        <time>2022-07-10T10:23:09Z</time>
      </trkpt>
      <trkpt lat="43.42711" lon="2.2559">
        <ele>850.9588623</ele>
        <time>2022-07-10T10:23:10Z</time>
      </trkpt>
      <trkpt lat="43.42707" lon="2.25596">
        <ele>850.44885254</ele>
        <time>2022-07-10T10:23:11Z</time>
      </trkpt>
      <trkpt lat="43.42705" lon="2.25601">
        <ele>849.98883057</ele>
        <time>2022-07-10T10:23:12Z</time>
      </trkpt>
      <trkpt lat="43.42703" lon="2.25606">
        <ele>849.33880615</ele>
        <time>2022-07-10T10:23:13Z</time>
      </trkpt>
      <trkpt lat="43.42701" lon="2.2561">
        <ele>848.58880615</ele>
        <time>2022-07-10T10:23:14Z</time>
      </trkpt>
      <trkpt lat="43.42699" lon="2.25615">
        <ele>847.64880371</ele>
        <time>2022-07-10T10:23:15Z</time>
      </trkpt>
      <trkpt lat="43.42696" lon="2.2562">
        <ele>846.70880127</ele>
        <time>2022-07-10T10:23:16Z</time>
      </trkpt>
      <trkpt lat="43.42694" lon="2.25624">
        <ele>845.79882812</ele>
        <time>2022-07-10T10:23:17Z</time>
      </trkpt>
      <trkpt lat="43.42692" lon="2.25628">
        <ele>845.05883789</ele>
        <time>2022-07-10T10:23:18Z</time>
      </trkpt>
      <trkpt lat="43.4269" lon="2.25631">
        <ele>844.5088501</ele>
        <time>2022-07-10T10:23:19Z</time>
      </trkpt>
      <trkpt lat="43.42688" lon="2.25636">
        <ele>843.82885742</ele>
        <time>2022-07-10T10:23:20Z</time>
      </trkpt>
      <trkpt lat="43.42685" lon="2.25641">
        <ele>843.31884766</ele>
        <time>2022-07-10T10:23:21Z</time>
      </trkpt>
      <trkpt lat="43.42682" lon="2.25646">
        <ele>842.53881836</ele>
        <time>2022-07-10T10:23:22Z</time>
      </trkpt>
      <trkpt lat="43.4268" lon="2.2565">
        <ele>841.61883545</ele>
        <time>2022-07-10T10:23:23Z</time>
      </trkpt>
      <trkpt lat="43.42675" lon="2.25654">
        <ele>840.91882324</ele>
        <time>2022-07-10T10:23:24Z</time>
      </trkpt>
      <trkpt lat="43.42672" lon="2.25657">
        <ele>840.30883789</ele>
        <time>2022-07-10T10:23:25Z</time>
      </trkpt>
      <trkpt lat="43.42669" lon="2.2566">
        <ele>840.04882812</ele>
        <time>2022-07-10T10:23:26Z</time>
      </trkpt>
      <trkpt lat="43.42665" lon="2.25662">
        <ele>839.57885742</ele>
        <time>2022-07-10T10:23:27Z</time>
      </trkpt>
      <trkpt lat="43.42661" lon="2.25667">
        <ele>839.16888428</ele>
        <time>2022-07-10T10:23:28Z</time>
      </trkpt>
      <trkpt lat="43.42658" lon="2.2567">
        <ele>838.63885498</ele>
        <time>2022-07-10T10:23:29Z</time>
      </trkpt>
      <trkpt lat="43.42655" lon="2.25674">
        <ele>837.83886719</ele>
        <time>2022-07-10T10:23:30Z</time>
      </trkpt>
      <trkpt lat="43.42652" lon="2.25679">
        <ele>837.46887207</ele>
        <time>2022-07-10T10:23:31Z</time>
      </trkpt>
      <trkpt lat="43.4265" lon="2.25682">
        <ele>836.77886963</ele>
        <time>2022-07-10T10:23:32Z</time>
      </trkpt>
      <trkpt lat="43.42645" lon="2.25688">
        <ele>836.05889893</ele>
        <time>2022-07-10T10:23:33Z</time>
      </trkpt>
      <trkpt lat="43.42641" lon="2.25692">
        <ele>835.43890381</ele>
        <time>2022-07-10T10:23:34Z</time>
      </trkpt>
      <trkpt lat="43.42636" lon="2.25694">
        <ele>834.90887451</ele>
        <time>2022-07-10T10:23:35Z</time>
      </trkpt>
      <trkpt lat="43.42632" lon="2.25697">
        <ele>834.67889404</ele>
        <time>2022-07-10T10:23:36Z</time>
      </trkpt>
      <trkpt lat="43.42627" lon="2.257">
        <ele>834.67889404</ele>
        <time>2022-07-10T10:23:37Z</time>
      </trkpt>
      <trkpt lat="43.42624" lon="2.25702">
        <ele>834.53887939</ele>
        <time>2022-07-10T10:23:38Z</time>
      </trkpt>
      <trkpt lat="43.42621" lon="2.25704">
        <ele>834.36889648</ele>
        <time>2022-07-10T10:23:39Z</time>
      </trkpt>
      <trkpt lat="43.42618" lon="2.25708">
        <ele>834.27886963</ele>
        <time>2022-07-10T10:23:40Z</time>
      </trkpt>
      <trkpt lat="43.42615" lon="2.25711">
        <ele>834.0088501</ele>
        <time>2022-07-10T10:23:41Z</time>
      </trkpt>
      <trkpt lat="43.42613" lon="2.25712">
        <ele>833.99884033</ele>
        <time>2022-07-10T10:23:42Z</time>
      </trkpt>
      <trkpt lat="43.42611" lon="2.25714">
        <ele>834.02886963</ele>
        <time>2022-07-10T10:23:43Z</time>
      </trkpt>
      <trkpt lat="43.42609" lon="2.25717">
        <ele>834.03887939</ele>
        <time>2022-07-10T10:23:44Z</time>
      </trkpt>
      <trkpt lat="43.42606" lon="2.25719">
        <ele>834.01885986</ele>
        <time>2022-07-10T10:23:45Z</time>
      </trkpt>
      <trkpt lat="43.42604" lon="2.25722">
        <ele>833.94885254</ele>
        <time>2022-07-10T10:23:46Z</time>
      </trkpt>
      <trkpt lat="43.42602" lon="2.25724">
        <ele>833.83886719</ele>
        <time>2022-07-10T10:23:47Z</time>
      </trkpt>
      <trkpt lat="43.426" lon="2.25725">
        <ele>833.7388916</ele>
        <time>2022-07-10T10:23:48Z</time>
      </trkpt>
      <trkpt lat="43.42597" lon="2.25726">
        <ele>833.62890625</ele>
        <time>2022-07-10T10:23:49Z</time>
      </trkpt>
      <trkpt lat="43.42594" lon="2.25726">
        <ele>833.44891357</ele>
        <time>2022-07-10T10:23:50Z</time>
      </trkpt>
      <trkpt lat="43.4259" lon="2.25726">
        <ele>833.38891602</ele>
        <time>2022-07-10T10:23:51Z</time>
      </trkpt>
      <trkpt lat="43.42587" lon="2.25725">
        <ele>833.50891113</ele>
        <time>2022-07-10T10:23:52Z</time>
      </trkpt>
      <trkpt lat="43.42585" lon="2.25724">
        <ele>833.78894043</ele>
        <time>2022-07-10T10:23:53Z</time>
      </trkpt>
      <trkpt lat="43.42583" lon="2.25725">
        <ele>834.12896729</ele>
        <time>2022-07-10T10:23:54Z</time>
      </trkpt>
      <trkpt lat="43.42581" lon="2.25726">
        <ele>834.36895752</ele>
        <time>2022-07-10T10:23:55Z</time>
      </trkpt>
      <trkpt lat="43.42577" lon="2.25729">
        <ele>834.31896973</ele>
        <time>2022-07-10T10:23:56Z</time>
      </trkpt>
      <trkpt lat="43.42575" lon="2.25731">
        <ele>834.13897705</ele>
        <time>2022-07-10T10:23:57Z</time>
      </trkpt>
      <trkpt lat="43.42574" lon="2.25733">
        <ele>833.9989624</ele>
        <time>2022-07-10T10:23:58Z</time>
      </trkpt>
      <trkpt lat="43.42573" lon="2.25736">
        <ele>833.84893799</ele>
        <time>2022-07-10T10:23:59Z</time>
      </trkpt>
      <trkpt lat="43.4257" lon="2.25742">
        <ele>833.64892578</ele>
        <time>2022-07-10T10:24:00Z</time>
      </trkpt>
      <trkpt lat="43.42568" lon="2.25745">
        <ele>833.39892578</ele>
        <time>2022-07-10T10:24:01Z</time>
      </trkpt>
      <trkpt lat="43.42565" lon="2.25748">
        <ele>833.0489502</ele>
        <time>2022-07-10T10:24:02Z</time>
      </trkpt>
      <trkpt lat="43.42562" lon="2.25752">
        <ele>832.70892334</ele>
        <time>2022-07-10T10:24:03Z</time>
      </trkpt>
      <trkpt lat="43.42559" lon="2.25757">
        <ele>832.53894043</ele>
        <time>2022-07-10T10:24:04Z</time>
      </trkpt>
      <trkpt lat="43.42557" lon="2.25761">
        <ele>832.37896729</ele>
        <time>2022-07-10T10:24:05Z</time>
      </trkpt>
      <trkpt lat="43.42556" lon="2.25764">
        <ele>832.33898926</ele>
        <time>2022-07-10T10:24:06Z</time>
      </trkpt>
      <trkpt lat="43.42555" lon="2.2577">
        <ele>832.21899414</ele>
        <time>2022-07-10T10:24:07Z</time>
      </trkpt>
      <trkpt lat="43.42553" lon="2.25773">
        <ele>831.95898438</ele>
        <time>2022-07-10T10:24:08Z</time>
      </trkpt>
      <trkpt lat="43.4255" lon="2.25779">
        <ele>831.65899658</ele>
        <time>2022-07-10T10:24:09Z</time>
      </trkpt>
      <trkpt lat="43.42547" lon="2.25783">
        <ele>831.45898438</ele>
        <time>2022-07-10T10:24:10Z</time>
      </trkpt>
      <trkpt lat="43.42545" lon="2.25787">
        <ele>831.05895996</ele>
        <time>2022-07-10T10:24:11Z</time>
      </trkpt>
      <trkpt lat="43.42544" lon="2.25791">
        <ele>830.78894043</ele>
        <time>2022-07-10T10:24:12Z</time>
      </trkpt>
      <trkpt lat="43.42542" lon="2.25794">
        <ele>830.55895996</ele>
        <time>2022-07-10T10:24:13Z</time>
      </trkpt>
      <trkpt lat="43.42539" lon="2.25798">
        <ele>830.35894775</ele>
        <time>2022-07-10T10:24:14Z</time>
      </trkpt>
      <trkpt lat="43.42536" lon="2.25801">
        <ele>830.22894287</ele>
        <time>2022-07-10T10:24:15Z</time>
      </trkpt>
      <trkpt lat="43.42533" lon="2.25805">
        <ele>830.0189209</ele>
        <time>2022-07-10T10:24:16Z</time>
      </trkpt>
      <trkpt lat="43.4253" lon="2.25809">
        <ele>829.72894287</ele>
        <time>2022-07-10T10:24:17Z</time>
      </trkpt>
      <trkpt lat="43.42527" lon="2.25815">
        <ele>829.22894287</ele>
        <time>2022-07-10T10:24:18Z</time>
      </trkpt>
      <trkpt lat="43.42525" lon="2.25818">
        <ele>828.88891602</ele>
        <time>2022-07-10T10:24:19Z</time>
      </trkpt>
      <trkpt lat="43.42522" lon="2.25821">
        <ele>828.59893799</ele>
        <time>2022-07-10T10:24:20Z</time>
      </trkpt>
      <trkpt lat="43.4252" lon="2.25825">
        <ele>828.45892334</ele>
        <time>2022-07-10T10:24:21Z</time>
      </trkpt>
      <trkpt lat="43.42516" lon="2.2583">
        <ele>828.37890625</ele>
        <time>2022-07-10T10:24:22Z</time>
      </trkpt>
      <trkpt lat="43.42515" lon="2.25834">
        <ele>828.24890137</ele>
        <time>2022-07-10T10:24:23Z</time>
      </trkpt>
      <trkpt lat="43.42513" lon="2.25838">
        <ele>828.21887207</ele>
        <time>2022-07-10T10:24:24Z</time>
      </trkpt>
      <trkpt lat="43.42512" lon="2.25842">
        <ele>828.05889893</ele>
        <time>2022-07-10T10:24:25Z</time>
      </trkpt>
      <trkpt lat="43.42511" lon="2.25845">
        <ele>827.88891602</ele>
        <time>2022-07-10T10:24:26Z</time>
      </trkpt>
      <trkpt lat="43.42508" lon="2.25851">
        <ele>827.7689209</ele>
        <time>2022-07-10T10:24:27Z</time>
      </trkpt>
      <trkpt lat="43.42506" lon="2.25855">
        <ele>827.59893799</ele>
        <time>2022-07-10T10:24:28Z</time>
      </trkpt>
      <trkpt lat="43.42505" lon="2.25858">
        <ele>827.50891113</ele>
        <time>2022-07-10T10:24:29Z</time>
      </trkpt>
      <trkpt lat="43.42504" lon="2.2586">
        <ele>827.38891602</ele>
        <time>2022-07-10T10:24:30Z</time>
      </trkpt>
      <trkpt lat="43.42503" lon="2.25863">
        <ele>827.2689209</ele>
        <time>2022-07-10T10:24:31Z</time>
      </trkpt>
      <trkpt lat="43.425" lon="2.25868">
        <ele>827.06890869</ele>
        <time>2022-07-10T10:24:32Z</time>
      </trkpt>
      <trkpt lat="43.42498" lon="2.25871">
        <ele>826.95892334</ele>
        <time>2022-07-10T10:24:33Z</time>
      </trkpt>
      <trkpt lat="43.42496" lon="2.25875">
        <ele>826.87890625</ele>
        <time>2022-07-10T10:24:34Z</time>
      </trkpt>
      <trkpt lat="43.42494" lon="2.25878">
        <ele>826.79888916</ele>
        <time>2022-07-10T10:24:35Z</time>
      </trkpt>
      <trkpt lat="43.42491" lon="2.25883">
        <ele>826.78887939</ele>
        <time>2022-07-10T10:24:36Z</time>
      </trkpt>
      <trkpt lat="43.42488" lon="2.25885">
        <ele>826.71887207</ele>
        <time>2022-07-10T10:24:37Z</time>
      </trkpt>
      <trkpt lat="43.42485" lon="2.25887">
        <ele>826.58886719</ele>
        <time>2022-07-10T10:24:38Z</time>
      </trkpt>
      <trkpt lat="43.42483" lon="2.25891">
        <ele>826.41888428</ele>
        <time>2022-07-10T10:24:39Z</time>
      </trkpt>
      <trkpt lat="43.42482" lon="2.25894">
        <ele>826.22888184</ele>
        <time>2022-07-10T10:24:40Z</time>
      </trkpt>
      <trkpt lat="43.4248" lon="2.25899">
        <ele>826.11889648</ele>
        <time>2022-07-10T10:24:41Z</time>
      </trkpt>
      <trkpt lat="43.42479" lon="2.25903">
        <ele>825.97888184</ele>
        <time>2022-07-10T10:24:42Z</time>
      </trkpt>
      <trkpt lat="43.42477" lon="2.25907">
        <ele>825.85888672</ele>
        <time>2022-07-10T10:24:43Z</time>
      </trkpt>
      <trkpt lat="43.42476" lon="2.2591">
        <ele>825.71887207</ele>
        <time>2022-07-10T10:24:44Z</time>
      </trkpt>
      <trkpt lat="43.42473" lon="2.25915">
        <ele>825.24890137</ele>
        <time>2022-07-10T10:24:45Z</time>
      </trkpt>
      <trkpt lat="43.4247" lon="2.25918">
        <ele>825.03887939</ele>
        <time>2022-07-10T10:24:46Z</time>
      </trkpt>
      <trkpt lat="43.42467" lon="2.25922">
        <ele>824.7588501</ele>
        <time>2022-07-10T10:24:47Z</time>
      </trkpt>
      <trkpt lat="43.42464" lon="2.25926">
        <ele>824.40887451</ele>
        <time>2022-07-10T10:24:48Z</time>
      </trkpt>
      <trkpt lat="43.42462" lon="2.25933">
        <ele>824.24890137</ele>
        <time>2022-07-10T10:24:49Z</time>
      </trkpt>
      <trkpt lat="43.4246" lon="2.25937">
        <ele>823.96887207</ele>
        <time>2022-07-10T10:24:50Z</time>
      </trkpt>
      <trkpt lat="43.42458" lon="2.25941">
        <ele>823.71887207</ele>
        <time>2022-07-10T10:24:51Z</time>
      </trkpt>
      <trkpt lat="43.42456" lon="2.25944">
        <ele>823.57885742</ele>
        <time>2022-07-10T10:24:52Z</time>
      </trkpt>
      <trkpt lat="43.42453" lon="2.25947">
        <ele>823.41888428</ele>
        <time>2022-07-10T10:24:53Z</time>
      </trkpt>
      <trkpt lat="43.42449" lon="2.25952">
        <ele>823.09887695</ele>
        <time>2022-07-10T10:24:54Z</time>
      </trkpt>
      <trkpt lat="43.42446" lon="2.25957">
        <ele>822.91888428</ele>
        <time>2022-07-10T10:24:55Z</time>
      </trkpt>
      <trkpt lat="43.42443" lon="2.25959">
        <ele>822.75891113</ele>
        <time>2022-07-10T10:24:56Z</time>
      </trkpt>
      <trkpt lat="43.4244" lon="2.25962">
        <ele>822.36889648</ele>
        <time>2022-07-10T10:24:57Z</time>
      </trkpt>
      <trkpt lat="43.42438" lon="2.25965">
        <ele>822.21887207</ele>
        <time>2022-07-10T10:24:58Z</time>
      </trkpt>
      <trkpt lat="43.42437" lon="2.2597">
        <ele>821.91888428</ele>
        <time>2022-07-10T10:24:59Z</time>
      </trkpt>
      <trkpt lat="43.42436" lon="2.25974">
        <ele>821.47888184</ele>
        <time>2022-07-10T10:25:00Z</time>
      </trkpt>
      <trkpt lat="43.42436" lon="2.25978">
        <ele>821.15887451</ele>
        <time>2022-07-10T10:25:01Z</time>
      </trkpt>
      <trkpt lat="43.42435" lon="2.25982">
        <ele>820.82885742</ele>
        <time>2022-07-10T10:25:02Z</time>
      </trkpt>
      <trkpt lat="43.42433" lon="2.25989">
        <ele>820.48883057</ele>
        <time>2022-07-10T10:25:03Z</time>
      </trkpt>
      <trkpt lat="43.42431" lon="2.25993">
        <ele>820.17883301</ele>
        <time>2022-07-10T10:25:04Z</time>
      </trkpt>
      <trkpt lat="43.42429" lon="2.25997">
        <ele>819.84881592</ele>
        <time>2022-07-10T10:25:05Z</time>
      </trkpt>
      <trkpt lat="43.42426" lon="2.26">
        <ele>819.30883789</ele>
        <time>2022-07-10T10:25:06Z</time>
      </trkpt>
      <trkpt lat="43.42425" lon="2.26004">
        <ele>818.57885742</ele>
        <time>2022-07-10T10:25:07Z</time>
      </trkpt>
      <trkpt lat="43.42422" lon="2.26011">
        <ele>818.26885986</ele>
        <time>2022-07-10T10:25:08Z</time>
      </trkpt>
      <trkpt lat="43.4242" lon="2.26016">
        <ele>817.99884033</ele>
        <time>2022-07-10T10:25:09Z</time>
      </trkpt>
      <trkpt lat="43.42419" lon="2.2602">
        <ele>817.73883057</ele>
        <time>2022-07-10T10:25:10Z</time>
      </trkpt>
      <trkpt lat="43.42417" lon="2.26025">
        <ele>817.80883789</ele>
        <time>2022-07-10T10:25:11Z</time>
      </trkpt>
      <trkpt lat="43.42413" lon="2.2603">
        <ele>817.4788208</ele>
        <time>2022-07-10T10:25:12Z</time>
      </trkpt>
      <trkpt lat="43.4241" lon="2.26035">
        <ele>817.26879883</ele>
        <time>2022-07-10T10:25:13Z</time>
      </trkpt>
      <trkpt lat="43.42407" lon="2.2604">
        <ele>816.91882324</ele>
        <time>2022-07-10T10:25:14Z</time>
      </trkpt>
      <trkpt lat="43.42403" lon="2.26044">
        <ele>816.53881836</ele>
        <time>2022-07-10T10:25:15Z</time>
      </trkpt>
      <trkpt lat="43.424" lon="2.26048">
        <ele>816.16882324</ele>
        <time>2022-07-10T10:25:16Z</time>
      </trkpt>
      <trkpt lat="43.42396" lon="2.26055">
        <ele>815.69885254</ele>
        <time>2022-07-10T10:25:17Z</time>
      </trkpt>
      <trkpt lat="43.42394" lon="2.2606">
        <ele>815.65887451</ele>
        <time>2022-07-10T10:25:18Z</time>
      </trkpt>
      <trkpt lat="43.42392" lon="2.26064">
        <ele>815.2088623</ele>
        <time>2022-07-10T10:25:19Z</time>
      </trkpt>
      <trkpt lat="43.4239" lon="2.26069">
        <ele>814.97888184</ele>
        <time>2022-07-10T10:25:20Z</time>
      </trkpt>
      <trkpt lat="43.42387" lon="2.26075">
        <ele>814.75891113</ele>
        <time>2022-07-10T10:25:21Z</time>
      </trkpt>
      <trkpt lat="43.42384" lon="2.2608">
        <ele>814.25891113</ele>
        <time>2022-07-10T10:25:22Z</time>
      </trkpt>
      <trkpt lat="43.42383" lon="2.26086">
        <ele>814.32891846</ele>
        <time>2022-07-10T10:25:23Z</time>
      </trkpt>
      <trkpt lat="43.42382" lon="2.2609">
        <ele>814.07891846</ele>
        <time>2022-07-10T10:25:24Z</time>
      </trkpt>
      <trkpt lat="43.42381" lon="2.26096">
        <ele>813.78894043</ele>
        <time>2022-07-10T10:25:25Z</time>
      </trkpt>
      <trkpt lat="43.42381" lon="2.26102">
        <ele>813.57891846</ele>
        <time>2022-07-10T10:25:26Z</time>
      </trkpt>
      <trkpt lat="43.4238" lon="2.26106">
        <ele>813.04888916</ele>
        <time>2022-07-10T10:25:27Z</time>
      </trkpt>
      <trkpt lat="43.42378" lon="2.26112">
        <ele>812.81890869</ele>
        <time>2022-07-10T10:25:28Z</time>
      </trkpt>
      <trkpt lat="43.42377" lon="2.26117">
        <ele>812.58892822</ele>
        <time>2022-07-10T10:25:29Z</time>
      </trkpt>
      <trkpt lat="43.42375" lon="2.26125">
        <ele>812.35894775</ele>
        <time>2022-07-10T10:25:30Z</time>
      </trkpt>
      <trkpt lat="43.42373" lon="2.26129">
        <ele>812.11895752</ele>
        <time>2022-07-10T10:25:31Z</time>
      </trkpt>
      <trkpt lat="43.42372" lon="2.26134">
        <ele>811.69897461</ele>
        <time>2022-07-10T10:25:32Z</time>
      </trkpt>
      <trkpt lat="43.42371" lon="2.26138">
        <ele>811.63897705</ele>
        <time>2022-07-10T10:25:33Z</time>
      </trkpt>
      <trkpt lat="43.42369" lon="2.26144">
        <ele>811.31896973</ele>
        <time>2022-07-10T10:25:34Z</time>
      </trkpt>
      <trkpt lat="43.42368" lon="2.26148">
        <ele>811.00897217</ele>
        <time>2022-07-10T10:25:35Z</time>
      </trkpt>
      <trkpt lat="43.42366" lon="2.26152">
        <ele>810.82897949</ele>
        <time>2022-07-10T10:25:36Z</time>
      </trkpt>
      <trkpt lat="43.42365" lon="2.26156">
        <ele>810.5289917</ele>
        <time>2022-07-10T10:25:37Z</time>
      </trkpt>
      <trkpt lat="43.42364" lon="2.26161">
        <ele>810.18896484</ele>
        <time>2022-07-10T10:25:38Z</time>
      </trkpt>
      <trkpt lat="43.42363" lon="2.26169">
        <ele>810.16894531</ele>
        <time>2022-07-10T10:25:39Z</time>
      </trkpt>
      <trkpt lat="43.42361" lon="2.26174">
        <ele>809.77893066</ele>
        <time>2022-07-10T10:25:40Z</time>
      </trkpt>
      <trkpt lat="43.4236" lon="2.2618">
        <ele>809.61895752</ele>
        <time>2022-07-10T10:25:41Z</time>
      </trkpt>
      <trkpt lat="43.42359" lon="2.26183">
        <ele>809.27893066</ele>
        <time>2022-07-10T10:25:42Z</time>
      </trkpt>
      <trkpt lat="43.42358" lon="2.26189">
        <ele>808.78894043</ele>
        <time>2022-07-10T10:25:43Z</time>
      </trkpt>
      <trkpt lat="43.42358" lon="2.26192">
        <ele>808.48895264</ele>
        <time>2022-07-10T10:25:44Z</time>
      </trkpt>
      <trkpt lat="43.42357" lon="2.26198">
        <ele>807.85894775</ele>
        <time>2022-07-10T10:25:45Z</time>
      </trkpt>
      <trkpt lat="43.42354" lon="2.26205">
        <ele>808.0189209</ele>
        <time>2022-07-10T10:25:46Z</time>
      </trkpt>
      <trkpt lat="43.42352" lon="2.2621">
        <ele>807.66894531</ele>
        <time>2022-07-10T10:25:47Z</time>
      </trkpt>
      <trkpt lat="43.42351" lon="2.26217">
        <ele>807.36895752</ele>
        <time>2022-07-10T10:25:48Z</time>
      </trkpt>
      <trkpt lat="43.4235" lon="2.26221">
        <ele>806.91894531</ele>
        <time>2022-07-10T10:25:49Z</time>
      </trkpt>
      <trkpt lat="43.42348" lon="2.26227">
        <ele>806.07891846</ele>
        <time>2022-07-10T10:25:50Z</time>
      </trkpt>
      <trkpt lat="43.42347" lon="2.26232">
        <ele>805.7689209</ele>
        <time>2022-07-10T10:25:51Z</time>
      </trkpt>
      <trkpt lat="43.42345" lon="2.26235">
        <ele>805.57891846</ele>
        <time>2022-07-10T10:25:52Z</time>
      </trkpt>
      <trkpt lat="43.42343" lon="2.2624">
        <ele>805.39892578</ele>
        <time>2022-07-10T10:25:53Z</time>
      </trkpt>
      <trkpt lat="43.42342" lon="2.26244">
        <ele>805.2989502</ele>
        <time>2022-07-10T10:25:54Z</time>
      </trkpt>
      <trkpt lat="43.4234" lon="2.26248">
        <ele>805.05895996</ele>
        <time>2022-07-10T10:25:55Z</time>
      </trkpt>
      <trkpt lat="43.42338" lon="2.26251">
        <ele>804.81896973</ele>
        <time>2022-07-10T10:25:56Z</time>
      </trkpt>
      <trkpt lat="43.42335" lon="2.26258">
        <ele>804.73895264</ele>
        <time>2022-07-10T10:25:57Z</time>
      </trkpt>
      <trkpt lat="43.42334" lon="2.26263">
        <ele>804.48895264</ele>
        <time>2022-07-10T10:25:58Z</time>
      </trkpt>
      <trkpt lat="43.42333" lon="2.26265">
        <ele>804.40893555</ele>
        <time>2022-07-10T10:25:59Z</time>
      </trkpt>
      <trkpt lat="43.42331" lon="2.26269">
        <ele>804.09893799</ele>
        <time>2022-07-10T10:26:00Z</time>
      </trkpt>
      <trkpt lat="43.42329" lon="2.26275">
        <ele>803.43896484</ele>
        <time>2022-07-10T10:26:01Z</time>
      </trkpt>
      <trkpt lat="43.42327" lon="2.26278">
        <ele>803.53894043</ele>
        <time>2022-07-10T10:26:02Z</time>
      </trkpt>
      <trkpt lat="43.42326" lon="2.26282">
        <ele>803.10894775</ele>
        <time>2022-07-10T10:26:03Z</time>
      </trkpt>
      <trkpt lat="43.42324" lon="2.26287">
        <ele>802.7989502</ele>
        <time>2022-07-10T10:26:04Z</time>
      </trkpt>
      <trkpt lat="43.42323" lon="2.26292">
        <ele>802.7489624</ele>
        <time>2022-07-10T10:26:05Z</time>
      </trkpt>
      <trkpt lat="43.42321" lon="2.26299">
        <ele>802.07897949</ele>
        <time>2022-07-10T10:26:06Z</time>
      </trkpt>
      <trkpt lat="43.42321" lon="2.26304">
        <ele>801.90899658</ele>
        <time>2022-07-10T10:26:07Z</time>
      </trkpt>
      <trkpt lat="43.4232" lon="2.26307">
        <ele>801.74902344</ele>
        <time>2022-07-10T10:26:08Z</time>
      </trkpt>
      <trkpt lat="43.4232" lon="2.26312">
        <ele>801.64904785</ele>
        <time>2022-07-10T10:26:09Z</time>
      </trkpt>
      <trkpt lat="43.42319" lon="2.26319">
        <ele>801.45904541</ele>
        <time>2022-07-10T10:26:10Z</time>
      </trkpt>
      <trkpt lat="43.42317" lon="2.26323">
        <ele>801.29907227</ele>
        <time>2022-07-10T10:26:11Z</time>
      </trkpt>
      <trkpt lat="43.42316" lon="2.26328">
        <ele>801.13909912</ele>
        <time>2022-07-10T10:26:12Z</time>
      </trkpt>
      <trkpt lat="43.42314" lon="2.26333">
        <ele>800.87908936</ele>
        <time>2022-07-10T10:26:13Z</time>
      </trkpt>
      <trkpt lat="43.42313" lon="2.26338">
        <ele>800.64910889</ele>
        <time>2022-07-10T10:26:14Z</time>
      </trkpt>
      <trkpt lat="43.42311" lon="2.26345">
        <ele>800.39910889</ele>
        <time>2022-07-10T10:26:15Z</time>
      </trkpt>
      <trkpt lat="43.42308" lon="2.26349">
        <ele>800.02911377</ele>
        <time>2022-07-10T10:26:16Z</time>
      </trkpt>
      <trkpt lat="43.42306" lon="2.26353">
        <ele>799.90911865</ele>
        <time>2022-07-10T10:26:17Z</time>
      </trkpt>
      <trkpt lat="43.42304" lon="2.26357">
        <ele>799.75909424</ele>
        <time>2022-07-10T10:26:18Z</time>
      </trkpt>
      <trkpt lat="43.42303" lon="2.2636">
        <ele>799.45910645</ele>
        <time>2022-07-10T10:26:19Z</time>
      </trkpt>
      <trkpt lat="43.42302" lon="2.26367">
        <ele>799.15911865</ele>
        <time>2022-07-10T10:26:20Z</time>
      </trkpt>
      <trkpt lat="43.42301" lon="2.26371">
        <ele>798.71911621</ele>
        <time>2022-07-10T10:26:21Z</time>
      </trkpt>
      <trkpt lat="43.423" lon="2.26375">
        <ele>798.24914551</ele>
        <time>2022-07-10T10:26:22Z</time>
      </trkpt>
      <trkpt lat="43.42299" lon="2.26379">
        <ele>797.85913086</ele>
        <time>2022-07-10T10:26:23Z</time>
      </trkpt>
      <trkpt lat="43.42297" lon="2.26386">
        <ele>797.38916016</ele>
        <time>2022-07-10T10:26:24Z</time>
      </trkpt>
      <trkpt lat="43.42296" lon="2.26391">
        <ele>796.69915771</ele>
        <time>2022-07-10T10:26:25Z</time>
      </trkpt>
      <trkpt lat="43.42295" lon="2.26397">
        <ele>795.94915771</ele>
        <time>2022-07-10T10:26:26Z</time>
      </trkpt>
      <trkpt lat="43.42296" lon="2.26402">
        <ele>795.09918213</ele>
        <time>2022-07-10T10:26:27Z</time>
      </trkpt>
      <trkpt lat="43.42297" lon="2.26408">
        <ele>794.09918213</ele>
        <time>2022-07-10T10:26:28Z</time>
      </trkpt>
      <trkpt lat="43.42299" lon="2.26416">
        <ele>793.33917236</ele>
        <time>2022-07-10T10:26:29Z</time>
      </trkpt>
      <trkpt lat="43.42302" lon="2.26422">
        <ele>792.75915527</ele>
        <time>2022-07-10T10:26:30Z</time>
      </trkpt>
      <trkpt lat="43.42303" lon="2.2643">
        <ele>792.3291626</ele>
        <time>2022-07-10T10:26:31Z</time>
      </trkpt>
      <trkpt lat="43.42303" lon="2.26439">
        <ele>792.19915771</ele>
        <time>2022-07-10T10:26:32Z</time>
      </trkpt>
      <trkpt lat="43.42303" lon="2.26453">
        <ele>792.21917725</ele>
        <time>2022-07-10T10:26:33Z</time>
      </trkpt>
      <trkpt lat="43.42303" lon="2.26461">
        <ele>792.29919434</ele>
        <time>2022-07-10T10:26:34Z</time>
      </trkpt>
      <trkpt lat="43.42304" lon="2.26466">
        <ele>792.56921387</ele>
        <time>2022-07-10T10:26:35Z</time>
      </trkpt>
      <trkpt lat="43.42303" lon="2.26472">
        <ele>792.82922363</ele>
        <time>2022-07-10T10:26:36Z</time>
      </trkpt>
      <trkpt lat="43.42303" lon="2.2648">
        <ele>793.03924561</ele>
        <time>2022-07-10T10:26:37Z</time>
      </trkpt>
      <trkpt lat="43.42302" lon="2.26486">
        <ele>793.19921875</ele>
        <time>2022-07-10T10:26:38Z</time>
      </trkpt>
      <trkpt lat="43.42301" lon="2.26491">
        <ele>793.19921875</ele>
        <time>2022-07-10T10:26:39Z</time>
      </trkpt>
      <trkpt lat="43.42301" lon="2.26495">
        <ele>793.18920898</ele>
        <time>2022-07-10T10:26:40Z</time>
      </trkpt>
      <trkpt lat="43.42301" lon="2.26499">
        <ele>793.22918701</ele>
        <time>2022-07-10T10:26:41Z</time>
      </trkpt>
      <trkpt lat="43.42302" lon="2.26506">
        <ele>793.29919434</ele>
        <time>2022-07-10T10:26:42Z</time>
      </trkpt>
      <trkpt lat="43.42303" lon="2.2651">
        <ele>793.3092041</ele>
        <time>2022-07-10T10:26:43Z</time>
      </trkpt>
      <trkpt lat="43.42304" lon="2.26514">
        <ele>793.2791748</ele>
        <time>2022-07-10T10:26:44Z</time>
      </trkpt>
      <trkpt lat="43.42306" lon="2.26519">
        <ele>793.15917969</ele>
        <time>2022-07-10T10:26:45Z</time>
      </trkpt>
      <trkpt lat="43.42307" lon="2.26524">
        <ele>792.99920654</ele>
        <time>2022-07-10T10:26:46Z</time>
      </trkpt>
      <trkpt lat="43.4231" lon="2.2653">
        <ele>792.94921875</ele>
        <time>2022-07-10T10:26:47Z</time>
      </trkpt>
      <trkpt lat="43.4231" lon="2.26535">
        <ele>793.11920166</ele>
        <time>2022-07-10T10:26:48Z</time>
      </trkpt>
      <trkpt lat="43.42311" lon="2.26539">
        <ele>793.2791748</ele>
        <time>2022-07-10T10:26:49Z</time>
      </trkpt>
      <trkpt lat="43.42312" lon="2.26544">
        <ele>793.5291748</ele>
        <time>2022-07-10T10:26:50Z</time>
      </trkpt>
      <trkpt lat="43.42313" lon="2.26551">
        <ele>793.75915527</ele>
        <time>2022-07-10T10:26:51Z</time>
      </trkpt>
      <trkpt lat="43.42314" lon="2.26555">
        <ele>793.94915771</ele>
        <time>2022-07-10T10:26:52Z</time>
      </trkpt>
      <trkpt lat="43.42315" lon="2.2656">
        <ele>794.17913818</ele>
        <time>2022-07-10T10:26:53Z</time>
      </trkpt>
      <trkpt lat="43.42315" lon="2.26564">
        <ele>794.37915039</ele>
        <time>2022-07-10T10:26:54Z</time>
      </trkpt>
      <trkpt lat="43.42315" lon="2.26568">
        <ele>794.63916016</ele>
        <time>2022-07-10T10:26:55Z</time>
      </trkpt>
      <trkpt lat="43.42315" lon="2.26575">
        <ele>794.81915283</ele>
        <time>2022-07-10T10:26:56Z</time>
      </trkpt>
      <trkpt lat="43.42315" lon="2.26578">
        <ele>795.00915527</ele>
        <time>2022-07-10T10:26:57Z</time>
      </trkpt>
      <trkpt lat="43.42315" lon="2.26582">
        <ele>795.19915771</ele>
        <time>2022-07-10T10:26:58Z</time>
      </trkpt>
      <trkpt lat="43.42315" lon="2.26585">
        <ele>795.33917236</ele>
        <time>2022-07-10T10:26:59Z</time>
      </trkpt>
      <trkpt lat="43.42315" lon="2.26591">
        <ele>795.50915527</ele>
        <time>2022-07-10T10:27:00Z</time>
      </trkpt>
      <trkpt lat="43.42316" lon="2.26595">
        <ele>795.65917969</ele>
        <time>2022-07-10T10:27:01Z</time>
      </trkpt>
      <trkpt lat="43.42316" lon="2.266">
        <ele>795.76916504</ele>
        <time>2022-07-10T10:27:02Z</time>
      </trkpt>
      <trkpt lat="43.42317" lon="2.26604">
        <ele>795.7791748</ele>
        <time>2022-07-10T10:27:03Z</time>
      </trkpt>
      <trkpt lat="43.42317" lon="2.26608">
        <ele>795.92919922</ele>
        <time>2022-07-10T10:27:04Z</time>
      </trkpt>
      <trkpt lat="43.42317" lon="2.26614">
        <ele>795.96917725</ele>
        <time>2022-07-10T10:27:05Z</time>
      </trkpt>
      <trkpt lat="43.42317" lon="2.26618">
        <ele>796.12915039</ele>
        <time>2022-07-10T10:27:06Z</time>
      </trkpt>
      <trkpt lat="43.42317" lon="2.26621">
        <ele>796.35913086</ele>
        <time>2022-07-10T10:27:07Z</time>
      </trkpt>
      <trkpt lat="43.42317" lon="2.26625">
        <ele>796.47912598</ele>
        <time>2022-07-10T10:27:08Z</time>
      </trkpt>
      <trkpt lat="43.42317" lon="2.2663">
        <ele>797.42913818</ele>
        <time>2022-07-10T10:27:09Z</time>
      </trkpt>
      <trkpt lat="43.42317" lon="2.26634">
        <ele>798.0791626</ele>
        <time>2022-07-10T10:27:10Z</time>
      </trkpt>
      <trkpt lat="43.42317" lon="2.26637">
        <ele>798.63916016</ele>
        <time>2022-07-10T10:27:11Z</time>
      </trkpt>
      <trkpt lat="43.42317" lon="2.26641">
        <ele>800.08917236</ele>
        <time>2022-07-10T10:27:12Z</time>
      </trkpt>
      <trkpt lat="43.42318" lon="2.26645">
        <ele>799.39916992</ele>
        <time>2022-07-10T10:27:13Z</time>
      </trkpt>
      <trkpt lat="43.42319" lon="2.26651">
        <ele>798.97918701</ele>
        <time>2022-07-10T10:27:14Z</time>
      </trkpt>
      <trkpt lat="43.42319" lon="2.26655">
        <ele>798.69915771</ele>
        <time>2022-07-10T10:27:15Z</time>
      </trkpt>
      <trkpt lat="43.4232" lon="2.26659">
        <ele>797.42913818</ele>
        <time>2022-07-10T10:27:16Z</time>
      </trkpt>
      <trkpt lat="43.42321" lon="2.26663">
        <ele>797.16912842</ele>
        <time>2022-07-10T10:27:17Z</time>
      </trkpt>
      <trkpt lat="43.42321" lon="2.26669">
        <ele>797.23913574</ele>
        <time>2022-07-10T10:27:18Z</time>
      </trkpt>
      <trkpt lat="43.42322" lon="2.26674">
        <ele>797.27911377</ele>
        <time>2022-07-10T10:27:19Z</time>
      </trkpt>
      <trkpt lat="43.42322" lon="2.26678">
        <ele>797.36914062</ele>
        <time>2022-07-10T10:27:20Z</time>
      </trkpt>
      <trkpt lat="43.42322" lon="2.26682">
        <ele>797.46911621</ele>
        <time>2022-07-10T10:27:21Z</time>
      </trkpt>
      <trkpt lat="43.42322" lon="2.26686">
        <ele>797.61914062</ele>
        <time>2022-07-10T10:27:22Z</time>
      </trkpt>
      <trkpt lat="43.42322" lon="2.26692">
        <ele>797.67913818</ele>
        <time>2022-07-10T10:27:23Z</time>
      </trkpt>
      <trkpt lat="43.42322" lon="2.26696">
        <ele>797.72912598</ele>
        <time>2022-07-10T10:27:24Z</time>
      </trkpt>
      <trkpt lat="43.42321" lon="2.26701">
        <ele>797.78912354</ele>
        <time>2022-07-10T10:27:25Z</time>
      </trkpt>
      <trkpt lat="43.4232" lon="2.26705">
        <ele>797.769104</ele>
        <time>2022-07-10T10:27:26Z</time>
      </trkpt>
      <trkpt lat="43.4232" lon="2.26709">
        <ele>797.80908203</ele>
        <time>2022-07-10T10:27:27Z</time>
      </trkpt>
      <trkpt lat="43.42319" lon="2.26716">
        <ele>797.80908203</ele>
        <time>2022-07-10T10:27:28Z</time>
      </trkpt>
      <trkpt lat="43.42319" lon="2.2672">
        <ele>797.7890625</ele>
        <time>2022-07-10T10:27:29Z</time>
      </trkpt>
      <trkpt lat="43.42318" lon="2.26724">
        <ele>797.73907471</ele>
        <time>2022-07-10T10:27:30Z</time>
      </trkpt>
      <trkpt lat="43.42317" lon="2.26729">
        <ele>797.67907715</ele>
        <time>2022-07-10T10:27:31Z</time>
      </trkpt>
      <trkpt lat="43.42316" lon="2.26737">
        <ele>797.519104</ele>
        <time>2022-07-10T10:27:32Z</time>
      </trkpt>
      <trkpt lat="43.42314" lon="2.26741">
        <ele>797.34912109</ele>
        <time>2022-07-10T10:27:33Z</time>
      </trkpt>
      <trkpt lat="43.42313" lon="2.26746">
        <ele>797.17913818</ele>
        <time>2022-07-10T10:27:34Z</time>
      </trkpt>
      <trkpt lat="43.42311" lon="2.26751">
        <ele>797.06915283</ele>
        <time>2022-07-10T10:27:35Z</time>
      </trkpt>
      <trkpt lat="43.4231" lon="2.26759">
        <ele>796.94915771</ele>
        <time>2022-07-10T10:27:36Z</time>
      </trkpt>
      <trkpt lat="43.42307" lon="2.26764">
        <ele>796.92913818</ele>
        <time>2022-07-10T10:27:37Z</time>
      </trkpt>
      <trkpt lat="43.42306" lon="2.2677">
        <ele>796.7991333</ele>
        <time>2022-07-10T10:27:38Z</time>
      </trkpt>
      <trkpt lat="43.42304" lon="2.26775">
        <ele>796.64910889</ele>
        <time>2022-07-10T10:27:39Z</time>
      </trkpt>
      <trkpt lat="43.42303" lon="2.26782">
        <ele>796.62908936</ele>
        <time>2022-07-10T10:27:40Z</time>
      </trkpt>
      <trkpt lat="43.42302" lon="2.26786">
        <ele>796.5390625</ele>
        <time>2022-07-10T10:27:41Z</time>
      </trkpt>
      <trkpt lat="43.42301" lon="2.26791">
        <ele>796.5390625</ele>
        <time>2022-07-10T10:27:42Z</time>
      </trkpt>
      <trkpt lat="43.423" lon="2.26796">
        <ele>796.57904053</ele>
        <time>2022-07-10T10:27:43Z</time>
      </trkpt>
      <trkpt lat="43.42298" lon="2.26801">
        <ele>796.68902588</ele>
        <time>2022-07-10T10:27:44Z</time>
      </trkpt>
      <trkpt lat="43.42297" lon="2.26808">
        <ele>796.70904541</ele>
        <time>2022-07-10T10:27:45Z</time>
      </trkpt>
      <trkpt lat="43.42296" lon="2.26813">
        <ele>796.81903076</ele>
        <time>2022-07-10T10:27:46Z</time>
      </trkpt>
      <trkpt lat="43.42295" lon="2.26818">
        <ele>796.83905029</ele>
        <time>2022-07-10T10:27:47Z</time>
      </trkpt>
      <trkpt lat="43.42294" lon="2.26823">
        <ele>796.85906982</ele>
        <time>2022-07-10T10:27:48Z</time>
      </trkpt>
      <trkpt lat="43.42294" lon="2.26828">
        <ele>796.96905518</ele>
        <time>2022-07-10T10:27:49Z</time>
      </trkpt>
      <trkpt lat="43.42293" lon="2.26835">
        <ele>797.01904297</ele>
        <time>2022-07-10T10:27:50Z</time>
      </trkpt>
      <trkpt lat="43.42293" lon="2.2684">
        <ele>797.12902832</ele>
        <time>2022-07-10T10:27:51Z</time>
      </trkpt>
      <trkpt lat="43.42292" lon="2.26845">
        <ele>797.17901611</ele>
        <time>2022-07-10T10:27:52Z</time>
      </trkpt>
      <trkpt lat="43.42291" lon="2.2685">
        <ele>797.2590332</ele>
        <time>2022-07-10T10:27:53Z</time>
      </trkpt>
      <trkpt lat="43.4229" lon="2.26856">
        <ele>797.36901855</ele>
        <time>2022-07-10T10:27:54Z</time>
      </trkpt>
      <trkpt lat="43.42289" lon="2.26861">
        <ele>797.38903809</ele>
        <time>2022-07-10T10:27:55Z</time>
      </trkpt>
      <trkpt lat="43.42289" lon="2.26866">
        <ele>797.46905518</ele>
        <time>2022-07-10T10:27:56Z</time>
      </trkpt>
      <trkpt lat="43.42289" lon="2.2687">
        <ele>797.49908447</ele>
        <time>2022-07-10T10:27:57Z</time>
      </trkpt>
      <trkpt lat="43.42288" lon="2.26877">
        <ele>797.54907227</ele>
        <time>2022-07-10T10:27:58Z</time>
      </trkpt>
      <trkpt lat="43.42288" lon="2.26881">
        <ele>797.67907715</ele>
        <time>2022-07-10T10:27:59Z</time>
      </trkpt>
      <trkpt lat="43.42288" lon="2.26885">
        <ele>797.7890625</ele>
        <time>2022-07-10T10:28:00Z</time>
      </trkpt>
      <trkpt lat="43.42288" lon="2.2689">
        <ele>797.87908936</ele>
        <time>2022-07-10T10:28:01Z</time>
      </trkpt>
      <trkpt lat="43.42288" lon="2.26894">
        <ele>797.95910645</ele>
        <time>2022-07-10T10:28:02Z</time>
      </trkpt>
      <trkpt lat="43.42286" lon="2.269">
        <ele>798.12908936</ele>
        <time>2022-07-10T10:28:03Z</time>
      </trkpt>
      <trkpt lat="43.42287" lon="2.26904">
        <ele>798.22906494</ele>
        <time>2022-07-10T10:28:04Z</time>
      </trkpt>
      <trkpt lat="43.42286" lon="2.26908">
        <ele>798.42907715</ele>
        <time>2022-07-10T10:28:05Z</time>
      </trkpt>
      <trkpt lat="43.42287" lon="2.26911">
        <ele>798.54907227</ele>
        <time>2022-07-10T10:28:06Z</time>
      </trkpt>
      <trkpt lat="43.42287" lon="2.26915">
        <ele>798.69909668</ele>
        <time>2022-07-10T10:28:07Z</time>
      </trkpt>
      <trkpt lat="43.42287" lon="2.26919">
        <ele>798.8190918</ele>
        <time>2022-07-10T10:28:08Z</time>
      </trkpt>
      <trkpt lat="43.42289" lon="2.26922">
        <ele>798.91906738</ele>
        <time>2022-07-10T10:28:09Z</time>
      </trkpt>
      <trkpt lat="43.4229" lon="2.26924">
        <ele>799.14904785</ele>
        <time>2022-07-10T10:28:10Z</time>
      </trkpt>
      <trkpt lat="43.42291" lon="2.26927">
        <ele>799.33905029</ele>
        <time>2022-07-10T10:28:11Z</time>
      </trkpt>
      <trkpt lat="43.42293" lon="2.26931">
        <ele>799.70904541</ele>
        <time>2022-07-10T10:28:12Z</time>
      </trkpt>
      <trkpt lat="43.42293" lon="2.26933">
        <ele>800.02905273</ele>
        <time>2022-07-10T10:28:13Z</time>
      </trkpt>
      <trkpt lat="43.42295" lon="2.26935">
        <ele>800.32904053</ele>
        <time>2022-07-10T10:28:14Z</time>
      </trkpt>
      <trkpt lat="43.42296" lon="2.26938">
        <ele>800.49902344</ele>
        <time>2022-07-10T10:28:15Z</time>
      </trkpt>
      <trkpt lat="43.42297" lon="2.26941">
        <ele>800.54901123</ele>
        <time>2022-07-10T10:28:16Z</time>
      </trkpt>
      <trkpt lat="43.423" lon="2.26945">
        <ele>800.72900391</ele>
        <time>2022-07-10T10:28:17Z</time>
      </trkpt>
      <trkpt lat="43.42302" lon="2.26948">
        <ele>800.85900879</ele>
        <time>2022-07-10T10:28:18Z</time>
      </trkpt>
      <trkpt lat="43.42304" lon="2.26951">
        <ele>801.04901123</ele>
        <time>2022-07-10T10:28:19Z</time>
      </trkpt>
      <trkpt lat="43.42305" lon="2.26953">
        <ele>801.31903076</ele>
        <time>2022-07-10T10:28:20Z</time>
      </trkpt>
      <trkpt lat="43.42308" lon="2.26957">
        <ele>801.47900391</ele>
        <time>2022-07-10T10:28:21Z</time>
      </trkpt>
      <trkpt lat="43.4231" lon="2.2696">
        <ele>801.66900635</ele>
        <time>2022-07-10T10:28:22Z</time>
      </trkpt>
      <trkpt lat="43.42312" lon="2.26962">
        <ele>801.86901855</ele>
        <time>2022-07-10T10:28:23Z</time>
      </trkpt>
      <trkpt lat="43.42314" lon="2.26965">
        <ele>802.13903809</ele>
        <time>2022-07-10T10:28:24Z</time>
      </trkpt>
      <trkpt lat="43.42316" lon="2.26968">
        <ele>802.37902832</ele>
        <time>2022-07-10T10:28:25Z</time>
      </trkpt>
      <trkpt lat="43.42317" lon="2.26971">
        <ele>802.53900146</ele>
        <time>2022-07-10T10:28:26Z</time>
      </trkpt>
      <trkpt lat="43.42318" lon="2.26975">
        <ele>802.73901367</ele>
        <time>2022-07-10T10:28:27Z</time>
      </trkpt>
      <trkpt lat="43.42318" lon="2.26979">
        <ele>802.89898682</ele>
        <time>2022-07-10T10:28:28Z</time>
      </trkpt>
      <trkpt lat="43.42319" lon="2.26982">
        <ele>802.95898438</ele>
        <time>2022-07-10T10:28:29Z</time>
      </trkpt>
      <trkpt lat="43.42319" lon="2.26987">
        <ele>803.13897705</ele>
        <time>2022-07-10T10:28:30Z</time>
      </trkpt>
      <trkpt lat="43.4232" lon="2.26991">
        <ele>803.37896729</ele>
        <time>2022-07-10T10:28:31Z</time>
      </trkpt>
      <trkpt lat="43.42322" lon="2.26994">
        <ele>803.45898438</ele>
        <time>2022-07-10T10:28:32Z</time>
      </trkpt>
      <trkpt lat="43.42322" lon="2.26997">
        <ele>803.7789917</ele>
        <time>2022-07-10T10:28:33Z</time>
      </trkpt>
      <trkpt lat="43.42323" lon="2.27003">
        <ele>804.06896973</ele>
        <time>2022-07-10T10:28:34Z</time>
      </trkpt>
      <trkpt lat="43.42323" lon="2.27006">
        <ele>804.26898193</ele>
        <time>2022-07-10T10:28:35Z</time>
      </trkpt>
      <trkpt lat="43.42323" lon="2.27011">
        <ele>804.56896973</ele>
        <time>2022-07-10T10:28:36Z</time>
      </trkpt>
      <trkpt lat="43.42323" lon="2.27014">
        <ele>804.81896973</ele>
        <time>2022-07-10T10:28:37Z</time>
      </trkpt>
      <trkpt lat="43.42323" lon="2.27018">
        <ele>805.01898193</ele>
        <time>2022-07-10T10:28:38Z</time>
      </trkpt>
      <trkpt lat="43.42324" lon="2.27023">
        <ele>805.44897461</ele>
        <time>2022-07-10T10:28:39Z</time>
      </trkpt>
      <trkpt lat="43.42325" lon="2.27026">
        <ele>805.72900391</ele>
        <time>2022-07-10T10:28:40Z</time>
      </trkpt>
      <trkpt lat="43.42327" lon="2.27029">
        <ele>805.96899414</ele>
        <time>2022-07-10T10:28:41Z</time>
      </trkpt>
      <trkpt lat="43.42328" lon="2.27033">
        <ele>806.24902344</ele>
        <time>2022-07-10T10:28:42Z</time>
      </trkpt>
      <trkpt lat="43.42328" lon="2.27037">
        <ele>806.28900146</ele>
        <time>2022-07-10T10:28:43Z</time>
      </trkpt>
      <trkpt lat="43.4233" lon="2.27042">
        <ele>806.45898438</ele>
        <time>2022-07-10T10:28:44Z</time>
      </trkpt>
      <trkpt lat="43.42331" lon="2.27045">
        <ele>806.59899902</ele>
        <time>2022-07-10T10:28:45Z</time>
      </trkpt>
      <trkpt lat="43.42332" lon="2.27048">
        <ele>806.69897461</ele>
        <time>2022-07-10T10:28:46Z</time>
      </trkpt>
      <trkpt lat="43.42333" lon="2.27051">
        <ele>806.73895264</ele>
        <time>2022-07-10T10:28:47Z</time>
      </trkpt>
      <trkpt lat="43.42335" lon="2.27057">
        <ele>806.73895264</ele>
        <time>2022-07-10T10:28:48Z</time>
      </trkpt>
      <trkpt lat="43.42337" lon="2.2706">
        <ele>806.66894531</ele>
        <time>2022-07-10T10:28:49Z</time>
      </trkpt>
      <trkpt lat="43.42338" lon="2.27064">
        <ele>806.59893799</ele>
        <time>2022-07-10T10:28:50Z</time>
      </trkpt>
      <trkpt lat="43.42339" lon="2.27068">
        <ele>806.4989624</ele>
        <time>2022-07-10T10:28:51Z</time>
      </trkpt>
      <trkpt lat="43.42341" lon="2.27074">
        <ele>806.46893311</ele>
        <time>2022-07-10T10:28:52Z</time>
      </trkpt>
      <trkpt lat="43.42341" lon="2.27077">
        <ele>806.48895264</ele>
        <time>2022-07-10T10:28:53Z</time>
      </trkpt>
      <trkpt lat="43.42342" lon="2.27081">
        <ele>806.47894287</ele>
        <time>2022-07-10T10:28:54Z</time>
      </trkpt>
      <trkpt lat="43.42342" lon="2.27084">
        <ele>806.55895996</ele>
        <time>2022-07-10T10:28:55Z</time>
      </trkpt>
      <trkpt lat="43.42343" lon="2.27087">
        <ele>806.62896729</ele>
        <time>2022-07-10T10:28:56Z</time>
      </trkpt>
      <trkpt lat="43.42344" lon="2.27091">
        <ele>806.62896729</ele>
        <time>2022-07-10T10:28:57Z</time>
      </trkpt>
      <trkpt lat="43.42345" lon="2.27093">
        <ele>806.60894775</ele>
        <time>2022-07-10T10:28:58Z</time>
      </trkpt>
      <trkpt lat="43.42346" lon="2.27095">
        <ele>806.52893066</ele>
        <time>2022-07-10T10:28:59Z</time>
      </trkpt>
      <trkpt lat="43.42347" lon="2.27097">
        <ele>806.42895508</ele>
        <time>2022-07-10T10:29:00Z</time>
      </trkpt>
      <trkpt lat="43.42347" lon="2.27098">
        <ele>806.42895508</ele>
        <time>2022-07-10T10:29:01Z</time>
      </trkpt>
      <trkpt lat="43.42348" lon="2.27101">
        <ele>806.45898438</ele>
        <time>2022-07-10T10:29:02Z</time>
      </trkpt>
      <trkpt lat="43.42348" lon="2.27104">
        <ele>806.42895508</ele>
        <time>2022-07-10T10:29:03Z</time>
      </trkpt>
      <trkpt lat="43.42348" lon="2.27106">
        <ele>806.39892578</ele>
        <time>2022-07-10T10:29:04Z</time>
      </trkpt>
      <trkpt lat="43.42348" lon="2.2711">
        <ele>806.34893799</ele>
        <time>2022-07-10T10:29:05Z</time>
      </trkpt>
      <trkpt lat="43.42349" lon="2.27115">
        <ele>806.23895264</ele>
        <time>2022-07-10T10:29:06Z</time>
      </trkpt>
      <trkpt lat="43.4235" lon="2.2712">
        <ele>806.14892578</ele>
        <time>2022-07-10T10:29:07Z</time>
      </trkpt>
      <trkpt lat="43.4235" lon="2.27124">
        <ele>805.96893311</ele>
        <time>2022-07-10T10:29:08Z</time>
      </trkpt>
      <trkpt lat="43.42351" lon="2.27129">
        <ele>804.56890869</ele>
        <time>2022-07-10T10:29:09Z</time>
      </trkpt>
      <trkpt lat="43.42352" lon="2.27133">
        <ele>804.37890625</ele>
        <time>2022-07-10T10:29:10Z</time>
      </trkpt>
      <trkpt lat="43.42353" lon="2.27141">
        <ele>804.22888184</ele>
        <time>2022-07-10T10:29:11Z</time>
      </trkpt>
      <trkpt lat="43.42354" lon="2.27146">
        <ele>803.97888184</ele>
        <time>2022-07-10T10:29:12Z</time>
      </trkpt>
      <trkpt lat="43.42355" lon="2.27152">
        <ele>803.75891113</ele>
        <time>2022-07-10T10:29:13Z</time>
      </trkpt>
      <trkpt lat="43.42357" lon="2.27158">
        <ele>803.24890137</ele>
        <time>2022-07-10T10:29:14Z</time>
      </trkpt>
      <trkpt lat="43.42359" lon="2.27167">
        <ele>802.63891602</ele>
        <time>2022-07-10T10:29:15Z</time>
      </trkpt>
      <trkpt lat="43.42361" lon="2.27173">
        <ele>802.03894043</ele>
        <time>2022-07-10T10:29:16Z</time>
      </trkpt>
      <trkpt lat="43.42362" lon="2.27179">
        <ele>801.31896973</ele>
        <time>2022-07-10T10:29:17Z</time>
      </trkpt>
      <trkpt lat="43.42362" lon="2.27187">
        <ele>800.71899414</ele>
        <time>2022-07-10T10:29:18Z</time>
      </trkpt>
      <trkpt lat="43.4236" lon="2.27198">
        <ele>800.35900879</ele>
        <time>2022-07-10T10:29:19Z</time>
      </trkpt>
      <trkpt lat="43.42359" lon="2.27206">
        <ele>799.7590332</ele>
        <time>2022-07-10T10:29:20Z</time>
      </trkpt>
      <trkpt lat="43.42357" lon="2.27213">
        <ele>799.09906006</ele>
        <time>2022-07-10T10:29:21Z</time>
      </trkpt>
      <trkpt lat="43.42355" lon="2.27221">
        <ele>798.47906494</ele>
        <time>2022-07-10T10:29:22Z</time>
      </trkpt>
      <trkpt lat="43.42353" lon="2.27227">
        <ele>797.92907715</ele>
        <time>2022-07-10T10:29:23Z</time>
      </trkpt>
      <trkpt lat="43.42351" lon="2.27237">
        <ele>797.67907715</ele>
        <time>2022-07-10T10:29:24Z</time>
      </trkpt>
      <trkpt lat="43.42349" lon="2.27242">
        <ele>797.54907227</ele>
        <time>2022-07-10T10:29:25Z</time>
      </trkpt>
      <trkpt lat="43.42348" lon="2.27247">
        <ele>797.46905518</ele>
        <time>2022-07-10T10:29:26Z</time>
      </trkpt>
      <trkpt lat="43.42347" lon="2.27252">
        <ele>797.09906006</ele>
        <time>2022-07-10T10:29:27Z</time>
      </trkpt>
      <trkpt lat="43.42346" lon="2.27257">
        <ele>796.77905273</ele>
        <time>2022-07-10T10:29:28Z</time>
      </trkpt>
      <trkpt lat="43.42344" lon="2.27263">
        <ele>796.64904785</ele>
        <time>2022-07-10T10:29:29Z</time>
      </trkpt>
      <trkpt lat="43.42343" lon="2.27267">
        <ele>796.52905273</ele>
        <time>2022-07-10T10:29:30Z</time>
      </trkpt>
      <trkpt lat="43.42341" lon="2.2727">
        <ele>796.48907471</ele>
        <time>2022-07-10T10:29:31Z</time>
      </trkpt>
      <trkpt lat="43.42338" lon="2.27273">
        <ele>796.34906006</ele>
        <time>2022-07-10T10:29:32Z</time>
      </trkpt>
      <trkpt lat="43.42333" lon="2.27276">
        <ele>796.12908936</ele>
        <time>2022-07-10T10:29:33Z</time>
      </trkpt>
      <trkpt lat="43.4233" lon="2.27278">
        <ele>795.94909668</ele>
        <time>2022-07-10T10:29:34Z</time>
      </trkpt>
      <trkpt lat="43.42326" lon="2.27282">
        <ele>795.79907227</ele>
        <time>2022-07-10T10:29:35Z</time>
      </trkpt>
      <trkpt lat="43.42323" lon="2.27286">
        <ele>795.72906494</ele>
        <time>2022-07-10T10:29:36Z</time>
      </trkpt>
      <trkpt lat="43.42321" lon="2.27291">
        <ele>795.5390625</ele>
        <time>2022-07-10T10:29:37Z</time>
      </trkpt>
      <trkpt lat="43.42316" lon="2.27299">
        <ele>795.27905273</ele>
        <time>2022-07-10T10:29:38Z</time>
      </trkpt>
      <trkpt lat="43.42314" lon="2.27304">
        <ele>795.05908203</ele>
        <time>2022-07-10T10:29:39Z</time>
      </trkpt>
      <trkpt lat="43.42311" lon="2.27311">
        <ele>794.64910889</ele>
        <time>2022-07-10T10:29:40Z</time>
      </trkpt>
      <trkpt lat="43.42308" lon="2.27317">
        <ele>794.37908936</ele>
        <time>2022-07-10T10:29:41Z</time>
      </trkpt>
      <trkpt lat="43.42305" lon="2.27328">
        <ele>794.14910889</ele>
        <time>2022-07-10T10:29:42Z</time>
      </trkpt>
      <trkpt lat="43.42302" lon="2.27335">
        <ele>793.67913818</ele>
        <time>2022-07-10T10:29:43Z</time>
      </trkpt>
      <trkpt lat="43.423" lon="2.27343">
        <ele>793.36914062</ele>
        <time>2022-07-10T10:29:44Z</time>
      </trkpt>
      <trkpt lat="43.42297" lon="2.27351">
        <ele>792.87915039</ele>
        <time>2022-07-10T10:29:45Z</time>
      </trkpt>
      <trkpt lat="43.42293" lon="2.27359">
        <ele>792.22912598</ele>
        <time>2022-07-10T10:29:46Z</time>
      </trkpt>
      <trkpt lat="43.42286" lon="2.27371">
        <ele>791.769104</ele>
        <time>2022-07-10T10:29:47Z</time>
      </trkpt>
      <trkpt lat="43.4228" lon="2.27378">
        <ele>790.97912598</ele>
        <time>2022-07-10T10:29:48Z</time>
      </trkpt>
      <trkpt lat="43.42273" lon="2.27386">
        <ele>790.10913086</ele>
        <time>2022-07-10T10:29:49Z</time>
      </trkpt>
      <trkpt lat="43.42266" lon="2.27393">
        <ele>789.13916016</ele>
        <time>2022-07-10T10:29:50Z</time>
      </trkpt>
      <trkpt lat="43.42256" lon="2.27404">
        <ele>787.97918701</ele>
        <time>2022-07-10T10:29:51Z</time>
      </trkpt>
      <trkpt lat="43.42248" lon="2.27412">
        <ele>787.11920166</ele>
        <time>2022-07-10T10:29:52Z</time>
      </trkpt>
      <trkpt lat="43.42241" lon="2.27419">
        <ele>786.29919434</ele>
        <time>2022-07-10T10:29:53Z</time>
      </trkpt>
      <trkpt lat="43.42235" lon="2.27426">
        <ele>785.81921387</ele>
        <time>2022-07-10T10:29:54Z</time>
      </trkpt>
      <trkpt lat="43.42226" lon="2.27436">
        <ele>785.52923584</ele>
        <time>2022-07-10T10:29:55Z</time>
      </trkpt>
      <trkpt lat="43.4222" lon="2.27442">
        <ele>785.13922119</ele>
        <time>2022-07-10T10:29:56Z</time>
      </trkpt>
      <trkpt lat="43.42215" lon="2.27447">
        <ele>784.84924316</ele>
        <time>2022-07-10T10:29:57Z</time>
      </trkpt>
      <trkpt lat="43.42211" lon="2.27451">
        <ele>784.44921875</ele>
        <time>2022-07-10T10:29:58Z</time>
      </trkpt>
      <trkpt lat="43.42207" lon="2.27455">
        <ele>784.06921387</ele>
        <time>2022-07-10T10:29:59Z</time>
      </trkpt>
      <trkpt lat="43.42202" lon="2.27459">
        <ele>783.76922607</ele>
        <time>2022-07-10T10:30:00Z</time>
      </trkpt>
      <trkpt lat="43.422" lon="2.27459">
        <ele>783.54925537</ele>
        <time>2022-07-10T10:30:01Z</time>
      </trkpt>
      <trkpt lat="43.42197" lon="2.27459">
        <ele>783.3692627</ele>
        <time>2022-07-10T10:30:02Z</time>
      </trkpt>
      <trkpt lat="43.42195" lon="2.27459">
        <ele>783.18927002</ele>
        <time>2022-07-10T10:30:03Z</time>
      </trkpt>
      <trkpt lat="43.42193" lon="2.27461">
        <ele>783.04925537</ele>
        <time>2022-07-10T10:30:04Z</time>
      </trkpt>
      <trkpt lat="43.4219" lon="2.27463">
        <ele>782.8392334</ele>
        <time>2022-07-10T10:30:05Z</time>
      </trkpt>
      <trkpt lat="43.42188" lon="2.27463">
        <ele>782.67926025</ele>
        <time>2022-07-10T10:30:06Z</time>
      </trkpt>
      <trkpt lat="43.42185" lon="2.27464">
        <ele>782.39923096</ele>
        <time>2022-07-10T10:30:07Z</time>
      </trkpt>
      <trkpt lat="43.42184" lon="2.27465">
        <ele>782.11920166</ele>
        <time>2022-07-10T10:30:08Z</time>
      </trkpt>
      <trkpt lat="43.42182" lon="2.27468">
        <ele>781.89923096</ele>
        <time>2022-07-10T10:30:09Z</time>
      </trkpt>
      <trkpt lat="43.4218" lon="2.2747">
        <ele>781.61920166</ele>
        <time>2022-07-10T10:30:10Z</time>
      </trkpt>
      <trkpt lat="43.42177" lon="2.27474">
        <ele>781.21917725</ele>
        <time>2022-07-10T10:30:14Z</time>
      </trkpt>
      <trkpt lat="43.42176" lon="2.27474">
        <ele>781.14916992</ele>
        <time>2022-07-10T10:30:15Z</time>
      </trkpt>
      <trkpt lat="43.42174" lon="2.27475">
        <ele>781.12915039</ele>
        <time>2022-07-10T10:30:16Z</time>
      </trkpt>
      <trkpt lat="43.42171" lon="2.27475">
        <ele>781.15917969</ele>
        <time>2022-07-10T10:30:17Z</time>
      </trkpt>
      <trkpt lat="43.42169" lon="2.27474">
        <ele>781.0592041</ele>
        <time>2022-07-10T10:30:18Z</time>
      </trkpt>
      <trkpt lat="43.42167" lon="2.27472">
        <ele>780.93920898</ele>
        <time>2022-07-10T10:30:19Z</time>
      </trkpt>
      <trkpt lat="43.42166" lon="2.2747">
        <ele>780.66918945</ele>
        <time>2022-07-10T10:30:20Z</time>
      </trkpt>
      <trkpt lat="43.42165" lon="2.27468">
        <ele>780.36920166</ele>
        <time>2022-07-10T10:30:21Z</time>
      </trkpt>
      <trkpt lat="43.42163" lon="2.27463">
        <ele>780.14923096</ele>
        <time>2022-07-10T10:30:22Z</time>
      </trkpt>
      <trkpt lat="43.42163" lon="2.2746">
        <ele>779.97924805</ele>
        <time>2022-07-10T10:30:23Z</time>
      </trkpt>
      <trkpt lat="43.42163" lon="2.27457">
        <ele>779.90924072</ele>
        <time>2022-07-10T10:30:24Z</time>
      </trkpt>
      <trkpt lat="43.42163" lon="2.27454">
        <ele>779.88922119</ele>
        <time>2022-07-10T10:30:25Z</time>
      </trkpt>
      <trkpt lat="43.42164" lon="2.27453">
        <ele>779.92919922</ele>
        <time>2022-07-10T10:30:26Z</time>
      </trkpt>
      <trkpt lat="43.42165" lon="2.27449">
        <ele>779.94921875</ele>
        <time>2022-07-10T10:30:27Z</time>
      </trkpt>
      <trkpt lat="43.42165" lon="2.27446">
        <ele>779.97924805</ele>
        <time>2022-07-10T10:30:28Z</time>
      </trkpt>
      <trkpt lat="43.42166" lon="2.27443">
        <ele>780.00927734</ele>
        <time>2022-07-10T10:30:29Z</time>
      </trkpt>
      <trkpt lat="43.42167" lon="2.2744">
        <ele>780.00927734</ele>
        <time>2022-07-10T10:30:30Z</time>
      </trkpt>
      <trkpt lat="43.42167" lon="2.27436">
        <ele>779.95928955</ele>
        <time>2022-07-10T10:30:31Z</time>
      </trkpt>
      <trkpt lat="43.42168" lon="2.27431">
        <ele>779.89929199</ele>
        <time>2022-07-10T10:30:32Z</time>
      </trkpt>
      <trkpt lat="43.4217" lon="2.27428">
        <ele>779.72930908</ele>
        <time>2022-07-10T10:30:33Z</time>
      </trkpt>
      <trkpt lat="43.42171" lon="2.27423">
        <ele>779.56933594</ele>
        <time>2022-07-10T10:30:34Z</time>
      </trkpt>
      <trkpt lat="43.42171" lon="2.27419">
        <ele>779.46936035</ele>
        <time>2022-07-10T10:30:35Z</time>
      </trkpt>
      <trkpt lat="43.42173" lon="2.27411">
        <ele>779.41937256</ele>
        <time>2022-07-10T10:30:36Z</time>
      </trkpt>
      <trkpt lat="43.42173" lon="2.27407">
        <ele>779.46936035</ele>
        <time>2022-07-10T10:30:37Z</time>
      </trkpt>
      <trkpt lat="43.42174" lon="2.27402">
        <ele>779.47937012</ele>
        <time>2022-07-10T10:30:38Z</time>
      </trkpt>
      <trkpt lat="43.42175" lon="2.27398">
        <ele>779.46936035</ele>
        <time>2022-07-10T10:30:39Z</time>
      </trkpt>
      <trkpt lat="43.42175" lon="2.27394">
        <ele>779.3793335</ele>
        <time>2022-07-10T10:30:40Z</time>
      </trkpt>
      <trkpt lat="43.42177" lon="2.27388">
        <ele>779.28930664</ele>
        <time>2022-07-10T10:30:41Z</time>
      </trkpt>
      <trkpt lat="43.42178" lon="2.27384">
        <ele>779.25927734</ele>
        <time>2022-07-10T10:30:42Z</time>
      </trkpt>
      <trkpt lat="43.42179" lon="2.27381">
        <ele>779.28930664</ele>
        <time>2022-07-10T10:30:43Z</time>
      </trkpt>
      <trkpt lat="43.4218" lon="2.27378">
        <ele>779.35931396</ele>
        <time>2022-07-10T10:30:44Z</time>
      </trkpt>
      <trkpt lat="43.4218" lon="2.27372">
        <ele>779.3793335</ele>
        <time>2022-07-10T10:30:45Z</time>
      </trkpt>
      <trkpt lat="43.42181" lon="2.27368">
        <ele>779.44934082</ele>
        <time>2022-07-10T10:30:46Z</time>
      </trkpt>
      <trkpt lat="43.42181" lon="2.27365">
        <ele>779.54931641</ele>
        <time>2022-07-10T10:30:47Z</time>
      </trkpt>
      <trkpt lat="43.42182" lon="2.27362">
        <ele>779.63934326</ele>
        <time>2022-07-10T10:30:48Z</time>
      </trkpt>
      <trkpt lat="43.42183" lon="2.27357">
        <ele>779.83935547</ele>
        <time>2022-07-10T10:30:49Z</time>
      </trkpt>
      <trkpt lat="43.42184" lon="2.27353">
        <ele>779.88934326</ele>
        <time>2022-07-10T10:30:50Z</time>
      </trkpt>
      <trkpt lat="43.42185" lon="2.27349">
        <ele>779.84936523</ele>
        <time>2022-07-10T10:30:51Z</time>
      </trkpt>
      <trkpt lat="43.42187" lon="2.27347">
        <ele>779.859375</ele>
        <time>2022-07-10T10:30:52Z</time>
      </trkpt>
      <trkpt lat="43.42188" lon="2.27345">
        <ele>779.84936523</ele>
        <time>2022-07-10T10:30:53Z</time>
      </trkpt>
      <trkpt lat="43.42189" lon="2.27341">
        <ele>779.84936523</ele>
        <time>2022-07-10T10:30:54Z</time>
      </trkpt>
      <trkpt lat="43.4219" lon="2.27339">
        <ele>779.95935059</ele>
        <time>2022-07-10T10:30:55Z</time>
      </trkpt>
      <trkpt lat="43.42191" lon="2.27336">
        <ele>780.02935791</ele>
        <time>2022-07-10T10:30:56Z</time>
      </trkpt>
      <trkpt lat="43.42191" lon="2.27333">
        <ele>780.08935547</ele>
        <time>2022-07-10T10:30:57Z</time>
      </trkpt>
      <trkpt lat="43.42192" lon="2.27329">
        <ele>780.08935547</ele>
        <time>2022-07-10T10:30:58Z</time>
      </trkpt>
      <trkpt lat="43.42194" lon="2.27326">
        <ele>780.04937744</ele>
        <time>2022-07-10T10:30:59Z</time>
      </trkpt>
      <trkpt lat="43.42196" lon="2.27323">
        <ele>779.89935303</ele>
        <time>2022-07-10T10:31:00Z</time>
      </trkpt>
      <trkpt lat="43.42198" lon="2.2732">
        <ele>779.67938232</ele>
        <time>2022-07-10T10:31:01Z</time>
      </trkpt>
      <trkpt lat="43.422" lon="2.27316">
        <ele>779.55938721</ele>
        <time>2022-07-10T10:31:02Z</time>
      </trkpt>
      <trkpt lat="43.42201" lon="2.27312">
        <ele>779.40936279</ele>
        <time>2022-07-10T10:31:03Z</time>
      </trkpt>
      <trkpt lat="43.422" lon="2.2731">
        <ele>779.40936279</ele>
        <time>2022-07-10T10:31:04Z</time>
      </trkpt>
      <trkpt lat="43.42199" lon="2.27308">
        <ele>779.51934814</ele>
        <time>2022-07-10T10:31:05Z</time>
      </trkpt>
      <trkpt lat="43.42199" lon="2.27305">
        <ele>779.61932373</ele>
        <time>2022-07-10T10:31:06Z</time>
      </trkpt>
      <trkpt lat="43.42198" lon="2.273">
        <ele>779.74932861</ele>
        <time>2022-07-10T10:31:07Z</time>
      </trkpt>
      <trkpt lat="43.42197" lon="2.27297">
        <ele>779.94934082</ele>
        <time>2022-07-10T10:31:08Z</time>
      </trkpt>
      <trkpt lat="43.42196" lon="2.27294">
        <ele>779.34936523</ele>
        <time>2022-07-10T10:31:09Z</time>
      </trkpt>
      <trkpt lat="43.42196" lon="2.27292">
        <ele>779.69934082</ele>
        <time>2022-07-10T10:31:10Z</time>
      </trkpt>
      <trkpt lat="43.42196" lon="2.2729">
        <ele>780.10931396</ele>
        <time>2022-07-10T10:31:11Z</time>
      </trkpt>
      <trkpt lat="43.42195" lon="2.27287">
        <ele>780.38934326</ele>
        <time>2022-07-10T10:31:12Z</time>
      </trkpt>
      <trkpt lat="43.42194" lon="2.27284">
        <ele>780.56933594</ele>
        <time>2022-07-10T10:31:13Z</time>
      </trkpt>
      <trkpt lat="43.42193" lon="2.27281">
        <ele>780.61932373</ele>
        <time>2022-07-10T10:31:14Z</time>
      </trkpt>
      <trkpt lat="43.42192" lon="2.27277">
        <ele>780.61932373</ele>
        <time>2022-07-10T10:31:15Z</time>
      </trkpt>
      <trkpt lat="43.42191" lon="2.27271">
        <ele>780.53930664</ele>
        <time>2022-07-10T10:31:16Z</time>
      </trkpt>
      <trkpt lat="43.42191" lon="2.27268">
        <ele>780.47930908</ele>
        <time>2022-07-10T10:31:17Z</time>
      </trkpt>
      <trkpt lat="43.4219" lon="2.27263">
        <ele>780.46929932</ele>
        <time>2022-07-10T10:31:18Z</time>
      </trkpt>
      <trkpt lat="43.42191" lon="2.2726">
        <ele>780.42932129</ele>
        <time>2022-07-10T10:31:19Z</time>
      </trkpt>
      <trkpt lat="43.42191" lon="2.27256">
        <ele>780.46929932</ele>
        <time>2022-07-10T10:31:20Z</time>
      </trkpt>
      <trkpt lat="43.42191" lon="2.27251">
        <ele>780.52929688</ele>
        <time>2022-07-10T10:31:21Z</time>
      </trkpt>
      <trkpt lat="43.42191" lon="2.27248">
        <ele>780.58929443</ele>
        <time>2022-07-10T10:31:22Z</time>
      </trkpt>
      <trkpt lat="43.42193" lon="2.27245">
        <ele>780.64929199</ele>
        <time>2022-07-10T10:31:23Z</time>
      </trkpt>
      <trkpt lat="43.42194" lon="2.27242">
        <ele>780.72930908</ele>
        <time>2022-07-10T10:31:24Z</time>
      </trkpt>
      <trkpt lat="43.42194" lon="2.27239">
        <ele>780.77929688</ele>
        <time>2022-07-10T10:31:25Z</time>
      </trkpt>
      <trkpt lat="43.42194" lon="2.27234">
        <ele>780.77929688</ele>
        <time>2022-07-10T10:31:26Z</time>
      </trkpt>
      <trkpt lat="43.42194" lon="2.2723">
        <ele>780.74926758</ele>
        <time>2022-07-10T10:31:27Z</time>
      </trkpt>
      <trkpt lat="43.42194" lon="2.27225">
        <ele>780.65924072</ele>
        <time>2022-07-10T10:31:28Z</time>
      </trkpt>
      <trkpt lat="43.42195" lon="2.27221">
        <ele>780.3692627</ele>
        <time>2022-07-10T10:31:29Z</time>
      </trkpt>
      <trkpt lat="43.42197" lon="2.27213">
        <ele>780.02923584</ele>
        <time>2022-07-10T10:31:30Z</time>
      </trkpt>
      <trkpt lat="43.42199" lon="2.27208">
        <ele>779.74920654</ele>
        <time>2022-07-10T10:31:31Z</time>
      </trkpt>
      <trkpt lat="43.42201" lon="2.27203">
        <ele>779.50921631</ele>
        <time>2022-07-10T10:31:32Z</time>
      </trkpt>
      <trkpt lat="43.42202" lon="2.27198">
        <ele>779.43920898</ele>
        <time>2022-07-10T10:31:33Z</time>
      </trkpt>
      <trkpt lat="43.42204" lon="2.2719">
        <ele>779.3092041</ele>
        <time>2022-07-10T10:31:34Z</time>
      </trkpt>
      <trkpt lat="43.42206" lon="2.27186">
        <ele>779.24920654</ele>
        <time>2022-07-10T10:31:35Z</time>
      </trkpt>
      <trkpt lat="43.42207" lon="2.27182">
        <ele>779.14923096</ele>
        <time>2022-07-10T10:31:36Z</time>
      </trkpt>
      <trkpt lat="43.42207" lon="2.2718">
        <ele>779.0892334</ele>
        <time>2022-07-10T10:31:37Z</time>
      </trkpt>
      <trkpt lat="43.42207" lon="2.27176">
        <ele>779.07922363</ele>
        <time>2022-07-10T10:31:38Z</time>
      </trkpt>
      <trkpt lat="43.42208" lon="2.2717">
        <ele>779.03924561</ele>
        <time>2022-07-10T10:31:39Z</time>
      </trkpt>
      <trkpt lat="43.42209" lon="2.27167">
        <ele>779.03924561</ele>
        <time>2022-07-10T10:31:40Z</time>
      </trkpt>
      <trkpt lat="43.42211" lon="2.27164">
        <ele>779.03924561</ele>
        <time>2022-07-10T10:31:41Z</time>
      </trkpt>
      <trkpt lat="43.42211" lon="2.2716">
        <ele>779.14923096</ele>
        <time>2022-07-10T10:31:42Z</time>
      </trkpt>
      <trkpt lat="43.42211" lon="2.27156">
        <ele>779.21923828</ele>
        <time>2022-07-10T10:31:43Z</time>
      </trkpt>
      <trkpt lat="43.42211" lon="2.2715">
        <ele>779.21923828</ele>
        <time>2022-07-10T10:31:44Z</time>
      </trkpt>
      <trkpt lat="43.42211" lon="2.27145">
        <ele>779.14923096</ele>
        <time>2022-07-10T10:31:45Z</time>
      </trkpt>
      <trkpt lat="43.42211" lon="2.27141">
        <ele>779.07922363</ele>
        <time>2022-07-10T10:31:46Z</time>
      </trkpt>
      <trkpt lat="43.42212" lon="2.27136">
        <ele>778.98919678</ele>
        <time>2022-07-10T10:31:47Z</time>
      </trkpt>
      <trkpt lat="43.42213" lon="2.27129">
        <ele>778.98919678</ele>
        <time>2022-07-10T10:31:48Z</time>
      </trkpt>
      <trkpt lat="43.42213" lon="2.27124">
        <ele>779.0592041</ele>
        <time>2022-07-10T10:31:49Z</time>
      </trkpt>
      <trkpt lat="43.42214" lon="2.2712">
        <ele>779.07922363</ele>
        <time>2022-07-10T10:31:50Z</time>
      </trkpt>
      <trkpt lat="43.42214" lon="2.27116">
        <ele>779.04919434</ele>
        <time>2022-07-10T10:31:51Z</time>
      </trkpt>
      <trkpt lat="43.42215" lon="2.27114">
        <ele>778.99920654</ele>
        <time>2022-07-10T10:31:52Z</time>
      </trkpt>
      <trkpt lat="43.42216" lon="2.2711">
        <ele>778.87921143</ele>
        <time>2022-07-10T10:31:53Z</time>
      </trkpt>
      <trkpt lat="43.42216" lon="2.27106">
        <ele>778.74920654</ele>
        <time>2022-07-10T10:31:54Z</time>
      </trkpt>
      <trkpt lat="43.42215" lon="2.27104">
        <ele>778.56921387</ele>
        <time>2022-07-10T10:31:55Z</time>
      </trkpt>
      <trkpt lat="43.42216" lon="2.27102">
        <ele>778.32922363</ele>
        <time>2022-07-10T10:31:56Z</time>
      </trkpt>
      <trkpt lat="43.42218" lon="2.27097">
        <ele>778.0592041</ele>
        <time>2022-07-10T10:31:57Z</time>
      </trkpt>
      <trkpt lat="43.42218" lon="2.27095">
        <ele>777.82922363</ele>
        <time>2022-07-10T10:31:58Z</time>
      </trkpt>
      <trkpt lat="43.4222" lon="2.27093">
        <ele>777.74920654</ele>
        <time>2022-07-10T10:31:59Z</time>
      </trkpt>
      <trkpt lat="43.42221" lon="2.27092">
        <ele>777.74920654</ele>
        <time>2022-07-10T10:32:00Z</time>
      </trkpt>
      <trkpt lat="43.42222" lon="2.27091">
        <ele>777.79919434</ele>
        <time>2022-07-10T10:32:01Z</time>
      </trkpt>
      <trkpt lat="43.42223" lon="2.27089">
        <ele>777.79919434</ele>
        <time>2022-07-10T10:32:02Z</time>
      </trkpt>
      <trkpt lat="43.42223" lon="2.27086">
        <ele>777.73919678</ele>
        <time>2022-07-10T10:32:03Z</time>
      </trkpt>
      <trkpt lat="43.42225" lon="2.27084">
        <ele>777.56921387</ele>
        <time>2022-07-10T10:32:04Z</time>
      </trkpt>
      <trkpt lat="43.42226" lon="2.27082">
        <ele>777.40924072</ele>
        <time>2022-07-10T10:32:05Z</time>
      </trkpt>
      <trkpt lat="43.42226" lon="2.2708">
        <ele>777.29925537</ele>
        <time>2022-07-10T10:32:06Z</time>
      </trkpt>
      <trkpt lat="43.42228" lon="2.27064">
        <ele>776.73999023</ele>
        <time>2022-07-10T10:55:43Z</time>
      </trkpt>
      <trkpt lat="43.42229" lon="2.27063">
        <ele>776.84997559</ele>
        <time>2022-07-10T10:55:44Z</time>
      </trkpt>
      <trkpt lat="43.42229" lon="2.27062">
        <ele>777</ele>
        <time>2022-07-10T10:55:45Z</time>
      </trkpt>
      <trkpt lat="43.42228" lon="2.27061">
        <ele>777.10998535</ele>
        <time>2022-07-10T10:55:46Z</time>
      </trkpt>
      <trkpt lat="43.42228" lon="2.27059">
        <ele>777.15997314</ele>
        <time>2022-07-10T10:55:47Z</time>
      </trkpt>
      <trkpt lat="43.42227" lon="2.27057">
        <ele>777.20996094</ele>
        <time>2022-07-10T10:55:48Z</time>
      </trkpt>
      <trkpt lat="43.42227" lon="2.27054">
        <ele>777.15997314</ele>
        <time>2022-07-10T10:55:49Z</time>
      </trkpt>
      <trkpt lat="43.42227" lon="2.27051">
        <ele>777.06994629</ele>
        <time>2022-07-10T10:55:50Z</time>
      </trkpt>
      <trkpt lat="43.42227" lon="2.2705">
        <ele>777.00994873</ele>
        <time>2022-07-10T10:55:51Z</time>
      </trkpt>
      <trkpt lat="43.42228" lon="2.27048">
        <ele>777.00994873</ele>
        <time>2022-07-10T10:55:52Z</time>
      </trkpt>
      <trkpt lat="43.42229" lon="2.27046">
        <ele>776.90997314</ele>
        <time>2022-07-10T10:55:53Z</time>
      </trkpt>
      <trkpt lat="43.42229" lon="2.27044">
        <ele>776.82995605</ele>
        <time>2022-07-10T10:55:54Z</time>
      </trkpt>
      <trkpt lat="43.42229" lon="2.27043">
        <ele>776.81994629</ele>
        <time>2022-07-10T10:55:55Z</time>
      </trkpt>
      <trkpt lat="43.42229" lon="2.27042">
        <ele>776.83996582</ele>
        <time>2022-07-10T10:55:56Z</time>
      </trkpt>
      <trkpt lat="43.42227" lon="2.2704">
        <ele>776.83996582</ele>
        <time>2022-07-10T10:55:57Z</time>
      </trkpt>
      <trkpt lat="43.42228" lon="2.27036">
        <ele>776.79998779</ele>
        <time>2022-07-10T10:55:58Z</time>
      </trkpt>
      <trkpt lat="43.42229" lon="2.27033">
        <ele>776.70996094</ele>
        <time>2022-07-10T10:55:59Z</time>
      </trkpt>
      <trkpt lat="43.42229" lon="2.27031">
        <ele>776.67993164</ele>
        <time>2022-07-10T10:56:00Z</time>
      </trkpt>
      <trkpt lat="43.42229" lon="2.27028">
        <ele>776.75994873</ele>
        <time>2022-07-10T10:56:01Z</time>
      </trkpt>
      <trkpt lat="43.4223" lon="2.27021">
        <ele>779.44995117</ele>
        <time>2022-07-10T10:56:02Z</time>
      </trkpt>
      <trkpt lat="43.42231" lon="2.27018">
        <ele>779.69995117</ele>
        <time>2022-07-10T10:56:03Z</time>
      </trkpt>
      <trkpt lat="43.42232" lon="2.27016">
        <ele>779.97998047</ele>
        <time>2022-07-10T10:56:04Z</time>
      </trkpt>
      <trkpt lat="43.42233" lon="2.27013">
        <ele>779.97998047</ele>
        <time>2022-07-10T10:56:05Z</time>
      </trkpt>
      <trkpt lat="43.42234" lon="2.27011">
        <ele>780.41998291</ele>
        <time>2022-07-10T10:56:06Z</time>
      </trkpt>
      <trkpt lat="43.42236" lon="2.27007">
        <ele>780.58996582</ele>
        <time>2022-07-10T10:56:07Z</time>
      </trkpt>
      <trkpt lat="43.42236" lon="2.27004">
        <ele>780.70996094</ele>
        <time>2022-07-10T10:56:08Z</time>
      </trkpt>
      <trkpt lat="43.42235" lon="2.27001">
        <ele>780.70996094</ele>
        <time>2022-07-10T10:56:09Z</time>
      </trkpt>
      <trkpt lat="43.42235" lon="2.26997">
        <ele>780.85998535</ele>
        <time>2022-07-10T10:56:10Z</time>
      </trkpt>
      <trkpt lat="43.42236" lon="2.26995">
        <ele>780.95001221</ele>
        <time>2022-07-10T10:56:11Z</time>
      </trkpt>
      <trkpt lat="43.42235" lon="2.26992">
        <ele>781.02001953</ele>
        <time>2022-07-10T10:56:12Z</time>
      </trkpt>
      <trkpt lat="43.42235" lon="2.2699">
        <ele>781.02001953</ele>
        <time>2022-07-10T10:56:13Z</time>
      </trkpt>
      <trkpt lat="43.42235" lon="2.26988">
        <ele>780.97003174</ele>
        <time>2022-07-10T10:56:14Z</time>
      </trkpt>
      <trkpt lat="43.42236" lon="2.26986">
        <ele>780.97003174</ele>
        <time>2022-07-10T10:56:15Z</time>
      </trkpt>
      <trkpt lat="43.42236" lon="2.26983">
        <ele>781.12005615</ele>
        <time>2022-07-10T10:56:16Z</time>
      </trkpt>
      <trkpt lat="43.42236" lon="2.26981">
        <ele>781.27008057</ele>
        <time>2022-07-10T10:56:17Z</time>
      </trkpt>
      <trkpt lat="43.42235" lon="2.26979">
        <ele>781.5401001</ele>
        <time>2022-07-10T10:56:18Z</time>
      </trkpt>
      <trkpt lat="43.42235" lon="2.26977">
        <ele>781.83007812</ele>
        <time>2022-07-10T10:56:19Z</time>
      </trkpt>
      <trkpt lat="43.42235" lon="2.26974">
        <ele>781.83007812</ele>
        <time>2022-07-10T10:56:20Z</time>
      </trkpt>
      <trkpt lat="43.42236" lon="2.26972">
        <ele>782.38006592</ele>
        <time>2022-07-10T10:56:21Z</time>
      </trkpt>
      <trkpt lat="43.42235" lon="2.26971">
        <ele>782.62005615</ele>
        <time>2022-07-10T10:56:22Z</time>
      </trkpt>
      <trkpt lat="43.42235" lon="2.26968">
        <ele>782.7800293</ele>
        <time>2022-07-10T10:56:23Z</time>
      </trkpt>
      <trkpt lat="43.42236" lon="2.26965">
        <ele>782.91003418</ele>
        <time>2022-07-10T10:56:24Z</time>
      </trkpt>
      <trkpt lat="43.42236" lon="2.26964">
        <ele>782.99005127</ele>
        <time>2022-07-10T10:56:25Z</time>
      </trkpt>
      <trkpt lat="43.42235" lon="2.26962">
        <ele>782.99005127</ele>
        <time>2022-07-10T10:56:26Z</time>
      </trkpt>
      <trkpt lat="43.42236" lon="2.2696">
        <ele>783.10003662</ele>
        <time>2022-07-10T10:56:27Z</time>
      </trkpt>
      <trkpt lat="43.42236" lon="2.26958">
        <ele>783.10003662</ele>
        <time>2022-07-10T10:56:28Z</time>
      </trkpt>
      <trkpt lat="43.42236" lon="2.26956">
        <ele>783.24005127</ele>
        <time>2022-07-10T10:56:29Z</time>
      </trkpt>
      <trkpt lat="43.42237" lon="2.26952">
        <ele>783.24005127</ele>
        <time>2022-07-10T10:56:30Z</time>
      </trkpt>
      <trkpt lat="43.42236" lon="2.2695">
        <ele>783.30004883</ele>
        <time>2022-07-10T10:56:31Z</time>
      </trkpt>
      <trkpt lat="43.42235" lon="2.26947">
        <ele>783.31005859</ele>
        <time>2022-07-10T10:56:32Z</time>
      </trkpt>
      <trkpt lat="43.42233" lon="2.26944">
        <ele>783.18005371</ele>
        <time>2022-07-10T10:56:33Z</time>
      </trkpt>
      <trkpt lat="43.42231" lon="2.2694">
        <ele>782.56005859</ele>
        <time>2022-07-10T10:56:34Z</time>
      </trkpt>
      <trkpt lat="43.42229" lon="2.26936">
        <ele>782.56005859</ele>
        <time>2022-07-10T10:56:35Z</time>
      </trkpt>
      <trkpt lat="43.42227" lon="2.26934">
        <ele>781.63006592</ele>
        <time>2022-07-10T10:56:36Z</time>
      </trkpt>
      <trkpt lat="43.42227" lon="2.26931">
        <ele>781.27008057</ele>
        <time>2022-07-10T10:56:37Z</time>
      </trkpt>
      <trkpt lat="43.42225" lon="2.26927">
        <ele>781.27008057</ele>
        <time>2022-07-10T10:56:38Z</time>
      </trkpt>
      <trkpt lat="43.42223" lon="2.26924">
        <ele>780.58007812</ele>
        <time>2022-07-10T10:56:39Z</time>
      </trkpt>
      <trkpt lat="43.42221" lon="2.26921">
        <ele>780.58007812</ele>
        <time>2022-07-10T10:56:40Z</time>
      </trkpt>
      <trkpt lat="43.4222" lon="2.26919">
        <ele>780.05004883</ele>
        <time>2022-07-10T10:56:41Z</time>
      </trkpt>
      <trkpt lat="43.42218" lon="2.26915">
        <ele>779.83007812</ele>
        <time>2022-07-10T10:56:42Z</time>
      </trkpt>
      <trkpt lat="43.42217" lon="2.26913">
        <ele>779.70007324</ele>
        <time>2022-07-10T10:56:43Z</time>
      </trkpt>
      <trkpt lat="43.42217" lon="2.2691">
        <ele>779.70007324</ele>
        <time>2022-07-10T10:56:44Z</time>
      </trkpt>
      <trkpt lat="43.42216" lon="2.26907">
        <ele>779.78009033</ele>
        <time>2022-07-10T10:56:45Z</time>
      </trkpt>
      <trkpt lat="43.42216" lon="2.26904">
        <ele>779.66009521</ele>
        <time>2022-07-10T10:56:46Z</time>
      </trkpt>
      <trkpt lat="43.42216" lon="2.26899">
        <ele>779.66009521</ele>
        <time>2022-07-10T10:56:47Z</time>
      </trkpt>
      <trkpt lat="43.42216" lon="2.26896">
        <ele>779.30010986</ele>
        <time>2022-07-10T10:56:48Z</time>
      </trkpt>
      <trkpt lat="43.42216" lon="2.26893">
        <ele>779.11010742</ele>
        <time>2022-07-10T10:56:49Z</time>
      </trkpt>
      <trkpt lat="43.42217" lon="2.2689">
        <ele>779.11010742</ele>
        <time>2022-07-10T10:56:50Z</time>
      </trkpt>
      <trkpt lat="43.42219" lon="2.26888">
        <ele>779.22009277</ele>
        <time>2022-07-10T10:56:51Z</time>
      </trkpt>
      <trkpt lat="43.4222" lon="2.26887">
        <ele>779.38006592</ele>
        <time>2022-07-10T10:56:52Z</time>
      </trkpt>
      <trkpt lat="43.42221" lon="2.26885">
        <ele>779.55004883</ele>
        <time>2022-07-10T10:56:53Z</time>
      </trkpt>
      <trkpt lat="43.42222" lon="2.26883">
        <ele>779.65002441</ele>
        <time>2022-07-10T10:56:54Z</time>
      </trkpt>
      <trkpt lat="43.42221" lon="2.2688">
        <ele>779.72003174</ele>
        <time>2022-07-10T10:56:55Z</time>
      </trkpt>
      <trkpt lat="43.4222" lon="2.26878">
        <ele>779.72003174</ele>
        <time>2022-07-10T10:56:56Z</time>
      </trkpt>
      <trkpt lat="43.42219" lon="2.26876">
        <ele>779.82000732</ele>
        <time>2022-07-10T10:56:57Z</time>
      </trkpt>
      <trkpt lat="43.42206" lon="2.26846">
        <ele>779.47998047</ele>
        <time>2022-07-10T10:57:23Z</time>
      </trkpt>
      <trkpt lat="43.42206" lon="2.26845">
        <ele>779.53997803</ele>
        <time>2022-07-10T10:57:24Z</time>
      </trkpt>
      <trkpt lat="43.42206" lon="2.26844">
        <ele>779.58996582</ele>
        <time>2022-07-10T10:57:25Z</time>
      </trkpt>
      <trkpt lat="43.42206" lon="2.26843">
        <ele>779.58996582</ele>
        <time>2022-07-10T10:57:26Z</time>
      </trkpt>
      <trkpt lat="43.42208" lon="2.26839">
        <ele>779.91998291</ele>
        <time>2022-07-10T10:57:33Z</time>
      </trkpt>
      <trkpt lat="43.42208" lon="2.26838">
        <ele>779.91998291</ele>
        <time>2022-07-10T10:57:34Z</time>
      </trkpt>
      <trkpt lat="43.42207" lon="2.26836">
        <ele>779.7800293</ele>
        <time>2022-07-10T10:57:36Z</time>
      </trkpt>
      <trkpt lat="43.42207" lon="2.26835">
        <ele>779.64001465</ele>
        <time>2022-07-10T10:57:37Z</time>
      </trkpt>
      <trkpt lat="43.42207" lon="2.26833">
        <ele>779.51000977</ele>
        <time>2022-07-10T10:57:38Z</time>
      </trkpt>
      <trkpt lat="43.42207" lon="2.26832">
        <ele>779.38000488</ele>
        <time>2022-07-10T10:57:39Z</time>
      </trkpt>
      <trkpt lat="43.42206" lon="2.26832">
        <ele>779.22998047</ele>
        <time>2022-07-10T10:57:40Z</time>
      </trkpt>
      <trkpt lat="43.42205" lon="2.26831">
        <ele>779.22998047</ele>
        <time>2022-07-10T10:57:41Z</time>
      </trkpt>
      <trkpt lat="43.42205" lon="2.2683">
        <ele>779.07995605</ele>
        <time>2022-07-10T10:57:42Z</time>
      </trkpt>
      <trkpt lat="43.42205" lon="2.26828">
        <ele>778.80993652</ele>
        <time>2022-07-10T10:57:43Z</time>
      </trkpt>
      <trkpt lat="43.42205" lon="2.26827">
        <ele>778.80993652</ele>
        <time>2022-07-10T10:57:44Z</time>
      </trkpt>
      <trkpt lat="43.42205" lon="2.26825">
        <ele>778.65991211</ele>
        <time>2022-07-10T10:57:45Z</time>
      </trkpt>
      <trkpt lat="43.42204" lon="2.26823">
        <ele>778.65991211</ele>
        <time>2022-07-10T10:57:46Z</time>
      </trkpt>
      <trkpt lat="43.42202" lon="2.26823">
        <ele>778.9598999</ele>
        <time>2022-07-10T10:57:47Z</time>
      </trkpt>
      <trkpt lat="43.42202" lon="2.26822">
        <ele>779.2098999</ele>
        <time>2022-07-10T10:57:48Z</time>
      </trkpt>
      <trkpt lat="43.42201" lon="2.26822">
        <ele>779.35992432</ele>
        <time>2022-07-10T10:57:49Z</time>
      </trkpt>
      <trkpt lat="43.42199" lon="2.2682">
        <ele>779.38995361</ele>
        <time>2022-07-10T10:57:50Z</time>
      </trkpt>
      <trkpt lat="43.42198" lon="2.26818">
        <ele>779.25994873</ele>
        <time>2022-07-10T10:57:51Z</time>
      </trkpt>
      <trkpt lat="43.42195" lon="2.26816">
        <ele>779.11993408</ele>
        <time>2022-07-10T10:57:52Z</time>
      </trkpt>
      <trkpt lat="43.42193" lon="2.26815">
        <ele>778.96990967</ele>
        <time>2022-07-10T10:57:53Z</time>
      </trkpt>
      <trkpt lat="43.4219" lon="2.26813">
        <ele>778.96990967</ele>
        <time>2022-07-10T10:57:54Z</time>
      </trkpt>
      <trkpt lat="43.42188" lon="2.26813">
        <ele>779.0098877</ele>
        <time>2022-07-10T10:57:55Z</time>
      </trkpt>
      <trkpt lat="43.42185" lon="2.26813">
        <ele>779.11987305</ele>
        <time>2022-07-10T10:57:56Z</time>
      </trkpt>
      <trkpt lat="43.42184" lon="2.26812">
        <ele>779.27984619</ele>
        <time>2022-07-10T10:57:57Z</time>
      </trkpt>
      <trkpt lat="43.42183" lon="2.26812">
        <ele>779.36987305</ele>
        <time>2022-07-10T10:57:58Z</time>
      </trkpt>
      <trkpt lat="43.4218" lon="2.26811">
        <ele>779.42987061</ele>
        <time>2022-07-10T10:57:59Z</time>
      </trkpt>
      <trkpt lat="43.42178" lon="2.26811">
        <ele>779.42987061</ele>
        <time>2022-07-10T10:58:00Z</time>
      </trkpt>
      <trkpt lat="43.42176" lon="2.26812">
        <ele>779.41986084</ele>
        <time>2022-07-10T10:58:01Z</time>
      </trkpt>
      <trkpt lat="43.42174" lon="2.26812">
        <ele>779.13983154</ele>
        <time>2022-07-10T10:58:02Z</time>
      </trkpt>
      <trkpt lat="43.42172" lon="2.26812">
        <ele>779.05981445</ele>
        <time>2022-07-10T10:58:03Z</time>
      </trkpt>
      <trkpt lat="43.42169" lon="2.26812">
        <ele>778.85980225</ele>
        <time>2022-07-10T10:58:04Z</time>
      </trkpt>
      <trkpt lat="43.42167" lon="2.26811">
        <ele>778.77978516</ele>
        <time>2022-07-10T10:58:05Z</time>
      </trkpt>
      <trkpt lat="43.42165" lon="2.2681">
        <ele>778.6897583</ele>
        <time>2022-07-10T10:58:06Z</time>
      </trkpt>
      <trkpt lat="43.42163" lon="2.2681">
        <ele>778.59973145</ele>
        <time>2022-07-10T10:58:07Z</time>
      </trkpt>
      <trkpt lat="43.42161" lon="2.26808">
        <ele>778.59973145</ele>
        <time>2022-07-10T10:58:08Z</time>
      </trkpt>
      <trkpt lat="43.4216" lon="2.26808">
        <ele>778.51971436</ele>
        <time>2022-07-10T10:58:09Z</time>
      </trkpt>
      <trkpt lat="43.42158" lon="2.26807">
        <ele>778.54974365</ele>
        <time>2022-07-10T10:58:10Z</time>
      </trkpt>
      <trkpt lat="43.42156" lon="2.26807">
        <ele>778.73974609</ele>
        <time>2022-07-10T10:58:11Z</time>
      </trkpt>
      <trkpt lat="43.42153" lon="2.26806">
        <ele>778.96972656</ele>
        <time>2022-07-10T10:58:12Z</time>
      </trkpt>
      <trkpt lat="43.42152" lon="2.26805">
        <ele>778.96972656</ele>
        <time>2022-07-10T10:58:13Z</time>
      </trkpt>
      <trkpt lat="43.42147" lon="2.26803">
        <ele>779.67974854</ele>
        <time>2022-07-10T10:58:19Z</time>
      </trkpt>
      <trkpt lat="43.42146" lon="2.26804">
        <ele>779.63977051</ele>
        <time>2022-07-10T10:58:20Z</time>
      </trkpt>
      <trkpt lat="43.42145" lon="2.26805">
        <ele>779.60974121</ele>
        <time>2022-07-10T10:58:21Z</time>
      </trkpt>
      <trkpt lat="43.4214" lon="2.26805">
        <ele>779.79974365</ele>
        <time>2022-07-10T10:58:26Z</time>
      </trkpt>
      <trkpt lat="43.42139" lon="2.26806">
        <ele>779.79974365</ele>
        <time>2022-07-10T10:58:27Z</time>
      </trkpt>
      <trkpt lat="43.42138" lon="2.26807">
        <ele>779.83972168</ele>
        <time>2022-07-10T10:58:28Z</time>
      </trkpt>
      <trkpt lat="43.42137" lon="2.26808">
        <ele>779.83972168</ele>
        <time>2022-07-10T10:58:29Z</time>
      </trkpt>
      <trkpt lat="43.42136" lon="2.2681">
        <ele>779.80969238</ele>
        <time>2022-07-10T10:58:30Z</time>
      </trkpt>
      <trkpt lat="43.42135" lon="2.2681">
        <ele>779.78967285</ele>
        <time>2022-07-10T10:58:31Z</time>
      </trkpt>
      <trkpt lat="43.42134" lon="2.26809">
        <ele>779.78967285</ele>
        <time>2022-07-10T10:58:32Z</time>
      </trkpt>
      <trkpt lat="43.42132" lon="2.26809">
        <ele>779.82965088</ele>
        <time>2022-07-10T10:58:33Z</time>
      </trkpt>
      <trkpt lat="43.42131" lon="2.26808">
        <ele>779.82965088</ele>
        <time>2022-07-10T10:58:34Z</time>
      </trkpt>
      <trkpt lat="43.42129" lon="2.26807">
        <ele>779.82965088</ele>
        <time>2022-07-10T10:58:35Z</time>
      </trkpt>
      <trkpt lat="43.42128" lon="2.26807">
        <ele>779.78967285</ele>
        <time>2022-07-10T10:58:36Z</time>
      </trkpt>
      <trkpt lat="43.42127" lon="2.26807">
        <ele>779.78967285</ele>
        <time>2022-07-10T10:58:37Z</time>
      </trkpt>
      <trkpt lat="43.42126" lon="2.26806">
        <ele>779.77966309</ele>
        <time>2022-07-10T10:58:38Z</time>
      </trkpt>
      <trkpt lat="43.42124" lon="2.26806">
        <ele>779.78967285</ele>
        <time>2022-07-10T10:58:39Z</time>
      </trkpt>
      <trkpt lat="43.42122" lon="2.26806">
        <ele>779.99969482</ele>
        <time>2022-07-10T10:58:40Z</time>
      </trkpt>
      <trkpt lat="43.42121" lon="2.26807">
        <ele>780.19970703</ele>
        <time>2022-07-10T10:58:41Z</time>
      </trkpt>
      <trkpt lat="43.42119" lon="2.26808">
        <ele>780.34973145</ele>
        <time>2022-07-10T10:58:42Z</time>
      </trkpt>
      <trkpt lat="43.42116" lon="2.26809">
        <ele>780.49975586</ele>
        <time>2022-07-10T10:58:43Z</time>
      </trkpt>
      <trkpt lat="43.42113" lon="2.26812">
        <ele>780.659729</ele>
        <time>2022-07-10T10:58:44Z</time>
      </trkpt>
      <trkpt lat="43.42112" lon="2.26813">
        <ele>780.659729</ele>
        <time>2022-07-10T10:58:45Z</time>
      </trkpt>
      <trkpt lat="43.42111" lon="2.26815">
        <ele>780.9597168</ele>
        <time>2022-07-10T10:58:46Z</time>
      </trkpt>
      <trkpt lat="43.4211" lon="2.26817">
        <ele>781.07971191</ele>
        <time>2022-07-10T10:58:47Z</time>
      </trkpt>
      <trkpt lat="43.42108" lon="2.2682">
        <ele>781.07971191</ele>
        <time>2022-07-10T10:58:48Z</time>
      </trkpt>
      <trkpt lat="43.42107" lon="2.26821">
        <ele>781.00970459</ele>
        <time>2022-07-10T10:58:50Z</time>
      </trkpt>
      <trkpt lat="43.42105" lon="2.26821">
        <ele>780.9296875</ele>
        <time>2022-07-10T10:58:51Z</time>
      </trkpt>
      <trkpt lat="43.42104" lon="2.26822">
        <ele>780.82971191</ele>
        <time>2022-07-10T10:58:52Z</time>
      </trkpt>
      <trkpt lat="43.42102" lon="2.26824">
        <ele>780.77972412</ele>
        <time>2022-07-10T10:58:53Z</time>
      </trkpt>
      <trkpt lat="43.421" lon="2.26825">
        <ele>780.73974609</ele>
        <time>2022-07-10T10:58:54Z</time>
      </trkpt>
      <trkpt lat="43.42099" lon="2.26827">
        <ele>780.73974609</ele>
        <time>2022-07-10T10:58:55Z</time>
      </trkpt>
      <trkpt lat="43.42097" lon="2.26828">
        <ele>780.67974854</ele>
        <time>2022-07-10T10:58:56Z</time>
      </trkpt>
      <trkpt lat="43.42094" lon="2.26831">
        <ele>780.61975098</ele>
        <time>2022-07-10T10:58:57Z</time>
      </trkpt>
      <trkpt lat="43.42093" lon="2.26831">
        <ele>780.50976562</ele>
        <time>2022-07-10T10:58:58Z</time>
      </trkpt>
      <trkpt lat="43.42092" lon="2.26832">
        <ele>780.47973633</ele>
        <time>2022-07-10T10:58:59Z</time>
      </trkpt>
      <trkpt lat="43.4209" lon="2.26834">
        <ele>780.47973633</ele>
        <time>2022-07-10T10:59:00Z</time>
      </trkpt>
      <trkpt lat="43.42088" lon="2.26835">
        <ele>780.51971436</ele>
        <time>2022-07-10T10:59:01Z</time>
      </trkpt>
      <trkpt lat="43.42085" lon="2.26838">
        <ele>780.51971436</ele>
        <time>2022-07-10T10:59:02Z</time>
      </trkpt>
      <trkpt lat="43.42084" lon="2.26838">
        <ele>780.75970459</ele>
        <time>2022-07-10T10:59:03Z</time>
      </trkpt>
      <trkpt lat="43.42082" lon="2.26839">
        <ele>780.75970459</ele>
        <time>2022-07-10T10:59:04Z</time>
      </trkpt>
      <trkpt lat="43.4208" lon="2.26839">
        <ele>780.99969482</ele>
        <time>2022-07-10T10:59:05Z</time>
      </trkpt>
      <trkpt lat="43.42077" lon="2.26841">
        <ele>781.08972168</ele>
        <time>2022-07-10T10:59:06Z</time>
      </trkpt>
      <trkpt lat="43.42075" lon="2.26841">
        <ele>781.13970947</ele>
        <time>2022-07-10T10:59:07Z</time>
      </trkpt>
      <trkpt lat="43.42074" lon="2.26842">
        <ele>781.23968506</ele>
        <time>2022-07-10T10:59:08Z</time>
      </trkpt>
      <trkpt lat="43.42072" lon="2.26843">
        <ele>781.23968506</ele>
        <time>2022-07-10T10:59:09Z</time>
      </trkpt>
      <trkpt lat="43.4207" lon="2.26845">
        <ele>781.28967285</ele>
        <time>2022-07-10T10:59:10Z</time>
      </trkpt>
      <trkpt lat="43.42068" lon="2.26847">
        <ele>781.38964844</ele>
        <time>2022-07-10T10:59:11Z</time>
      </trkpt>
      <trkpt lat="43.42066" lon="2.26849">
        <ele>781.38964844</ele>
        <time>2022-07-10T10:59:12Z</time>
      </trkpt>
      <trkpt lat="43.42064" lon="2.26851">
        <ele>781.42962646</ele>
        <time>2022-07-10T10:59:13Z</time>
      </trkpt>
      <trkpt lat="43.42061" lon="2.26853">
        <ele>781.46960449</ele>
        <time>2022-07-10T10:59:14Z</time>
      </trkpt>
      <trkpt lat="43.42058" lon="2.26855">
        <ele>781.44958496</ele>
        <time>2022-07-10T10:59:15Z</time>
      </trkpt>
      <trkpt lat="43.42056" lon="2.26856">
        <ele>781.44958496</ele>
        <time>2022-07-10T10:59:16Z</time>
      </trkpt>
      <trkpt lat="43.42054" lon="2.26855">
        <ele>781.47961426</ele>
        <time>2022-07-10T10:59:17Z</time>
      </trkpt>
      <trkpt lat="43.42051" lon="2.26855">
        <ele>781.53961182</ele>
        <time>2022-07-10T10:59:18Z</time>
      </trkpt>
      <trkpt lat="43.42049" lon="2.26856">
        <ele>781.59960938</ele>
        <time>2022-07-10T10:59:19Z</time>
      </trkpt>
      <trkpt lat="43.42045" lon="2.26856">
        <ele>781.76959229</ele>
        <time>2022-07-10T10:59:20Z</time>
      </trkpt>
      <trkpt lat="43.42043" lon="2.26856">
        <ele>782.12957764</ele>
        <time>2022-07-10T10:59:21Z</time>
      </trkpt>
      <trkpt lat="43.42041" lon="2.26855">
        <ele>782.41955566</ele>
        <time>2022-07-10T10:59:22Z</time>
      </trkpt>
      <trkpt lat="43.42039" lon="2.26855">
        <ele>782.60955811</ele>
        <time>2022-07-10T10:59:23Z</time>
      </trkpt>
      <trkpt lat="43.42037" lon="2.26855">
        <ele>782.60955811</ele>
        <time>2022-07-10T10:59:24Z</time>
      </trkpt>
      <trkpt lat="43.42035" lon="2.26856">
        <ele>782.75958252</ele>
        <time>2022-07-10T10:59:25Z</time>
      </trkpt>
      <trkpt lat="43.42033" lon="2.26857">
        <ele>782.79956055</ele>
        <time>2022-07-10T10:59:26Z</time>
      </trkpt>
      <trkpt lat="43.42031" lon="2.26858">
        <ele>782.79956055</ele>
        <time>2022-07-10T10:59:27Z</time>
      </trkpt>
      <trkpt lat="43.42029" lon="2.26859">
        <ele>782.76953125</ele>
        <time>2022-07-10T10:59:28Z</time>
      </trkpt>
      <trkpt lat="43.42026" lon="2.26859">
        <ele>782.69952393</ele>
        <time>2022-07-10T10:59:29Z</time>
      </trkpt>
      <trkpt lat="43.42023" lon="2.26858">
        <ele>782.59954834</ele>
        <time>2022-07-10T10:59:30Z</time>
      </trkpt>
      <trkpt lat="43.42019" lon="2.26856">
        <ele>782.4095459</ele>
        <time>2022-07-10T10:59:31Z</time>
      </trkpt>
      <trkpt lat="43.42016" lon="2.26854">
        <ele>782.07952881</ele>
        <time>2022-07-10T10:59:32Z</time>
      </trkpt>
      <trkpt lat="43.42014" lon="2.26851">
        <ele>781.76953125</ele>
        <time>2022-07-10T10:59:33Z</time>
      </trkpt>
      <trkpt lat="43.42012" lon="2.26848">
        <ele>781.49951172</ele>
        <time>2022-07-10T10:59:34Z</time>
      </trkpt>
      <trkpt lat="43.42012" lon="2.26846">
        <ele>781.45953369</ele>
        <time>2022-07-10T10:59:35Z</time>
      </trkpt>
      <trkpt lat="43.42011" lon="2.26844">
        <ele>781.54956055</ele>
        <time>2022-07-10T10:59:36Z</time>
      </trkpt>
      <trkpt lat="43.4201" lon="2.26843">
        <ele>781.54956055</ele>
        <time>2022-07-10T10:59:37Z</time>
      </trkpt>
      <trkpt lat="43.42008" lon="2.26841">
        <ele>781.84954834</ele>
        <time>2022-07-10T10:59:38Z</time>
      </trkpt>
      <trkpt lat="43.42007" lon="2.26838">
        <ele>781.86956787</ele>
        <time>2022-07-10T10:59:39Z</time>
      </trkpt>
      <trkpt lat="43.42006" lon="2.26836">
        <ele>781.8895874</ele>
        <time>2022-07-10T10:59:40Z</time>
      </trkpt>
      <trkpt lat="43.42006" lon="2.26834">
        <ele>781.8895874</ele>
        <time>2022-07-10T10:59:41Z</time>
      </trkpt>
      <trkpt lat="43.42005" lon="2.26831">
        <ele>781.98956299</ele>
        <time>2022-07-10T10:59:42Z</time>
      </trkpt>
      <trkpt lat="43.42004" lon="2.26829">
        <ele>782.06958008</ele>
        <time>2022-07-10T10:59:43Z</time>
      </trkpt>
      <trkpt lat="43.42003" lon="2.26827">
        <ele>782.06958008</ele>
        <time>2022-07-10T10:59:44Z</time>
      </trkpt>
      <trkpt lat="43.42002" lon="2.26825">
        <ele>782.27960205</ele>
        <time>2022-07-10T10:59:45Z</time>
      </trkpt>
      <trkpt lat="43.42001" lon="2.26823">
        <ele>782.34960938</ele>
        <time>2022-07-10T10:59:46Z</time>
      </trkpt>
      <trkpt lat="43.42" lon="2.26821">
        <ele>782.45959473</ele>
        <time>2022-07-10T10:59:47Z</time>
      </trkpt>
      <trkpt lat="43.42" lon="2.26819">
        <ele>782.45959473</ele>
        <time>2022-07-10T10:59:48Z</time>
      </trkpt>
      <trkpt lat="43.41999" lon="2.26817">
        <ele>782.39959717</ele>
        <time>2022-07-10T10:59:49Z</time>
      </trkpt>
      <trkpt lat="43.41999" lon="2.26814">
        <ele>782.36956787</ele>
        <time>2022-07-10T10:59:50Z</time>
      </trkpt>
      <trkpt lat="43.42001" lon="2.26811">
        <ele>782.36956787</ele>
        <time>2022-07-10T10:59:51Z</time>
      </trkpt>
      <trkpt lat="43.42002" lon="2.26807">
        <ele>782.25958252</ele>
        <time>2022-07-10T10:59:52Z</time>
      </trkpt>
      <trkpt lat="43.42001" lon="2.26805">
        <ele>782.41955566</ele>
        <time>2022-07-10T10:59:53Z</time>
      </trkpt>
      <trkpt lat="43.42002" lon="2.26803">
        <ele>782.50958252</ele>
        <time>2022-07-10T10:59:54Z</time>
      </trkpt>
      <trkpt lat="43.42002" lon="2.268">
        <ele>782.65960693</ele>
        <time>2022-07-10T10:59:55Z</time>
      </trkpt>
      <trkpt lat="43.42002" lon="2.26796">
        <ele>782.65960693</ele>
        <time>2022-07-10T10:59:56Z</time>
      </trkpt>
      <trkpt lat="43.42002" lon="2.26793">
        <ele>782.86962891</ele>
        <time>2022-07-10T10:59:57Z</time>
      </trkpt>
      <trkpt lat="43.42003" lon="2.2679">
        <ele>782.86962891</ele>
        <time>2022-07-10T10:59:58Z</time>
      </trkpt>
      <trkpt lat="43.42002" lon="2.26787">
        <ele>783.01965332</ele>
        <time>2022-07-10T10:59:59Z</time>
      </trkpt>
      <trkpt lat="43.42002" lon="2.26784">
        <ele>783.15966797</ele>
        <time>2022-07-10T11:00:00Z</time>
      </trkpt>
      <trkpt lat="43.42003" lon="2.26779">
        <ele>783.23968506</ele>
        <time>2022-07-10T11:00:01Z</time>
      </trkpt>
      <trkpt lat="43.42004" lon="2.26776">
        <ele>782.15966797</ele>
        <time>2022-07-10T11:00:02Z</time>
      </trkpt>
      <trkpt lat="43.42004" lon="2.26774">
        <ele>782.15966797</ele>
        <time>2022-07-10T11:00:03Z</time>
      </trkpt>
      <trkpt lat="43.42005" lon="2.2677">
        <ele>781.87963867</ele>
        <time>2022-07-10T11:00:04Z</time>
      </trkpt>
      <trkpt lat="43.42006" lon="2.26764">
        <ele>781.67962646</ele>
        <time>2022-07-10T11:00:05Z</time>
      </trkpt>
      <trkpt lat="43.42006" lon="2.2676">
        <ele>781.51965332</ele>
        <time>2022-07-10T11:00:06Z</time>
      </trkpt>
      <trkpt lat="43.42006" lon="2.26758">
        <ele>781.51965332</ele>
        <time>2022-07-10T11:00:07Z</time>
      </trkpt>
      <trkpt lat="43.42006" lon="2.26755">
        <ele>781.56964111</ele>
        <time>2022-07-10T11:00:08Z</time>
      </trkpt>
      <trkpt lat="43.42008" lon="2.26751">
        <ele>781.74963379</ele>
        <time>2022-07-10T11:00:09Z</time>
      </trkpt>
      <trkpt lat="43.42009" lon="2.26747">
        <ele>781.74963379</ele>
        <time>2022-07-10T11:00:10Z</time>
      </trkpt>
      <trkpt lat="43.42009" lon="2.26743">
        <ele>782.08966064</ele>
        <time>2022-07-10T11:00:11Z</time>
      </trkpt>
      <trkpt lat="43.42009" lon="2.2674">
        <ele>782.08966064</ele>
        <time>2022-07-10T11:00:12Z</time>
      </trkpt>
      <trkpt lat="43.42009" lon="2.26737">
        <ele>782.26965332</ele>
        <time>2022-07-10T11:00:13Z</time>
      </trkpt>
      <trkpt lat="43.42008" lon="2.26732">
        <ele>782.26965332</ele>
        <time>2022-07-10T11:00:14Z</time>
      </trkpt>
      <trkpt lat="43.42008" lon="2.26729">
        <ele>782.23962402</ele>
        <time>2022-07-10T11:00:15Z</time>
      </trkpt>
      <trkpt lat="43.42009" lon="2.26726">
        <ele>782.14959717</ele>
        <time>2022-07-10T11:00:16Z</time>
      </trkpt>
      <trkpt lat="43.42009" lon="2.26723">
        <ele>782.14959717</ele>
        <time>2022-07-10T11:00:17Z</time>
      </trkpt>
      <trkpt lat="43.42009" lon="2.2672">
        <ele>781.95959473</ele>
        <time>2022-07-10T11:00:18Z</time>
      </trkpt>
      <trkpt lat="43.42008" lon="2.26715">
        <ele>781.83959961</ele>
        <time>2022-07-10T11:00:19Z</time>
      </trkpt>
      <trkpt lat="43.42007" lon="2.26712">
        <ele>781.64959717</ele>
        <time>2022-07-10T11:00:20Z</time>
      </trkpt>
      <trkpt lat="43.42006" lon="2.2671">
        <ele>781.64959717</ele>
        <time>2022-07-10T11:00:21Z</time>
      </trkpt>
      <trkpt lat="43.42004" lon="2.26708">
        <ele>781.08959961</ele>
        <time>2022-07-10T11:00:22Z</time>
      </trkpt>
      <trkpt lat="43.42003" lon="2.26704">
        <ele>781.08959961</ele>
        <time>2022-07-10T11:00:23Z</time>
      </trkpt>
      <trkpt lat="43.42004" lon="2.26701">
        <ele>780.57958984</ele>
        <time>2022-07-10T11:00:24Z</time>
      </trkpt>
      <trkpt lat="43.42005" lon="2.26697">
        <ele>780.51959229</ele>
        <time>2022-07-10T11:00:25Z</time>
      </trkpt>
      <trkpt lat="43.42006" lon="2.26693">
        <ele>780.78961182</ele>
        <time>2022-07-10T11:00:26Z</time>
      </trkpt>
      <trkpt lat="43.42008" lon="2.26688">
        <ele>781.12963867</ele>
        <time>2022-07-10T11:00:27Z</time>
      </trkpt>
      <trkpt lat="43.42008" lon="2.26686">
        <ele>781.449646</ele>
        <time>2022-07-10T11:00:28Z</time>
      </trkpt>
      <trkpt lat="43.42008" lon="2.26682">
        <ele>781.449646</ele>
        <time>2022-07-10T11:00:29Z</time>
      </trkpt>
      <trkpt lat="43.42009" lon="2.26678">
        <ele>781.76965332</ele>
        <time>2022-07-10T11:00:30Z</time>
      </trkpt>
      <trkpt lat="43.42009" lon="2.26675">
        <ele>781.79968262</ele>
        <time>2022-07-10T11:00:31Z</time>
      </trkpt>
      <trkpt lat="43.42009" lon="2.26669">
        <ele>781.76965332</ele>
        <time>2022-07-10T11:00:32Z</time>
      </trkpt>
      <trkpt lat="43.4201" lon="2.26665">
        <ele>781.73962402</ele>
        <time>2022-07-10T11:00:33Z</time>
      </trkpt>
      <trkpt lat="43.42009" lon="2.26661">
        <ele>781.59960938</ele>
        <time>2022-07-10T11:00:34Z</time>
      </trkpt>
      <trkpt lat="43.42007" lon="2.26658">
        <ele>781.40960693</ele>
        <time>2022-07-10T11:00:35Z</time>
      </trkpt>
      <trkpt lat="43.42003" lon="2.26653">
        <ele>781.03961182</ele>
        <time>2022-07-10T11:00:36Z</time>
      </trkpt>
      <trkpt lat="43.42002" lon="2.2665">
        <ele>780.3895874</ele>
        <time>2022-07-10T11:00:37Z</time>
      </trkpt>
      <trkpt lat="43.42002" lon="2.26649">
        <ele>779.84960938</ele>
        <time>2022-07-10T11:00:38Z</time>
      </trkpt>
      <trkpt lat="43.42001" lon="2.26647">
        <ele>779.84960938</ele>
        <time>2022-07-10T11:00:39Z</time>
      </trkpt>
      <trkpt lat="43.42001" lon="2.26645">
        <ele>778.98962402</ele>
        <time>2022-07-10T11:00:40Z</time>
      </trkpt>
      <trkpt lat="43.42" lon="2.26642">
        <ele>778.98962402</ele>
        <time>2022-07-10T11:00:41Z</time>
      </trkpt>
      <trkpt lat="43.42" lon="2.26641">
        <ele>778.87963867</ele>
        <time>2022-07-10T11:00:42Z</time>
      </trkpt>
      <trkpt lat="43.42001" lon="2.26638">
        <ele>778.83966064</ele>
        <time>2022-07-10T11:00:43Z</time>
      </trkpt>
      <trkpt lat="43.42001" lon="2.26636">
        <ele>778.84967041</ele>
        <time>2022-07-10T11:00:44Z</time>
      </trkpt>
      <trkpt lat="43.42001" lon="2.26635">
        <ele>779.02966309</ele>
        <time>2022-07-10T11:00:45Z</time>
      </trkpt>
      <trkpt lat="43.41999" lon="2.26632">
        <ele>779.1796875</ele>
        <time>2022-07-10T11:00:46Z</time>
      </trkpt>
      <trkpt lat="43.41996" lon="2.26606">
        <ele>779.65966797</ele>
        <time>2022-07-10T11:01:08Z</time>
      </trkpt>
      <trkpt lat="43.41996" lon="2.26605">
        <ele>779.65966797</ele>
        <time>2022-07-10T11:01:09Z</time>
      </trkpt>
      <trkpt lat="43.41996" lon="2.26604">
        <ele>779.30969238</ele>
        <time>2022-07-10T11:01:10Z</time>
      </trkpt>
      <trkpt lat="43.41995" lon="2.26602">
        <ele>779.21966553</ele>
        <time>2022-07-10T11:01:11Z</time>
      </trkpt>
      <trkpt lat="43.41994" lon="2.26602">
        <ele>779.22967529</ele>
        <time>2022-07-10T11:01:12Z</time>
      </trkpt>
      <trkpt lat="43.41995" lon="2.26601">
        <ele>779.29968262</ele>
        <time>2022-07-10T11:01:13Z</time>
      </trkpt>
      <trkpt lat="43.41995" lon="2.26602">
        <ele>779.3996582</ele>
        <time>2022-07-10T11:01:14Z</time>
      </trkpt>
      <trkpt lat="43.41994" lon="2.26598">
        <ele>779.71966553</ele>
        <time>2022-07-10T11:01:22Z</time>
      </trkpt>
      <trkpt lat="43.41993" lon="2.26597">
        <ele>779.71966553</ele>
        <time>2022-07-10T11:01:24Z</time>
      </trkpt>
      <trkpt lat="43.41992" lon="2.26596">
        <ele>779.73968506</ele>
        <time>2022-07-10T11:01:26Z</time>
      </trkpt>
      <trkpt lat="43.41991" lon="2.26595">
        <ele>780.07971191</ele>
        <time>2022-07-10T11:01:30Z</time>
      </trkpt>
      <trkpt lat="43.4199" lon="2.26595">
        <ele>780.159729</ele>
        <time>2022-07-10T11:01:31Z</time>
      </trkpt>
      <trkpt lat="43.41989" lon="2.26595">
        <ele>780.21972656</ele>
        <time>2022-07-10T11:01:32Z</time>
      </trkpt>
      <trkpt lat="43.41986" lon="2.26593">
        <ele>780.19970703</ele>
        <time>2022-07-10T11:01:38Z</time>
      </trkpt>
      <trkpt lat="43.41984" lon="2.26593">
        <ele>780.22973633</ele>
        <time>2022-07-10T11:01:39Z</time>
      </trkpt>
      <trkpt lat="43.41983" lon="2.26593">
        <ele>780.22973633</ele>
        <time>2022-07-10T11:01:40Z</time>
      </trkpt>
      <trkpt lat="43.41982" lon="2.26592">
        <ele>780.32971191</ele>
        <time>2022-07-10T11:01:41Z</time>
      </trkpt>
      <trkpt lat="43.41981" lon="2.26592">
        <ele>780.39971924</ele>
        <time>2022-07-10T11:01:42Z</time>
      </trkpt>
      <trkpt lat="43.41979" lon="2.26592">
        <ele>780.44970703</ele>
        <time>2022-07-10T11:01:43Z</time>
      </trkpt>
      <trkpt lat="43.41976" lon="2.26593">
        <ele>780.48968506</ele>
        <time>2022-07-10T11:01:44Z</time>
      </trkpt>
      <trkpt lat="43.41974" lon="2.26593">
        <ele>780.62969971</ele>
        <time>2022-07-10T11:01:45Z</time>
      </trkpt>
      <trkpt lat="43.41973" lon="2.26593">
        <ele>780.76971436</ele>
        <time>2022-07-10T11:01:46Z</time>
      </trkpt>
      <trkpt lat="43.41972" lon="2.26593">
        <ele>780.91973877</ele>
        <time>2022-07-10T11:01:48Z</time>
      </trkpt>
      <trkpt lat="43.4197" lon="2.26594">
        <ele>781.22973633</ele>
        <time>2022-07-10T11:01:49Z</time>
      </trkpt>
      <trkpt lat="43.41969" lon="2.26595">
        <ele>781.22973633</ele>
        <time>2022-07-10T11:01:50Z</time>
      </trkpt>
      <trkpt lat="43.41967" lon="2.26596">
        <ele>781.69970703</ele>
        <time>2022-07-10T11:01:51Z</time>
      </trkpt>
      <trkpt lat="43.41964" lon="2.26597">
        <ele>781.91967773</ele>
        <time>2022-07-10T11:01:52Z</time>
      </trkpt>
      <trkpt lat="43.41962" lon="2.26599">
        <ele>782.10968018</ele>
        <time>2022-07-10T11:01:53Z</time>
      </trkpt>
      <trkpt lat="43.41961" lon="2.26599">
        <ele>782.21966553</ele>
        <time>2022-07-10T11:01:54Z</time>
      </trkpt>
      <trkpt lat="43.4196" lon="2.266">
        <ele>782.27966309</ele>
        <time>2022-07-10T11:01:55Z</time>
      </trkpt>
      <trkpt lat="43.41958" lon="2.26601">
        <ele>782.35968018</ele>
        <time>2022-07-10T11:01:56Z</time>
      </trkpt>
      <trkpt lat="43.41956" lon="2.26602">
        <ele>782.41967773</ele>
        <time>2022-07-10T11:01:57Z</time>
      </trkpt>
      <trkpt lat="43.41953" lon="2.26604">
        <ele>782.41967773</ele>
        <time>2022-07-10T11:01:58Z</time>
      </trkpt>
      <trkpt lat="43.4195" lon="2.26606">
        <ele>782.4296875</ele>
        <time>2022-07-10T11:01:59Z</time>
      </trkpt>
      <trkpt lat="43.41948" lon="2.26608">
        <ele>782.52966309</ele>
        <time>2022-07-10T11:02:00Z</time>
      </trkpt>
      <trkpt lat="43.41945" lon="2.2661">
        <ele>782.53967285</ele>
        <time>2022-07-10T11:02:01Z</time>
      </trkpt>
      <trkpt lat="43.41942" lon="2.26612">
        <ele>782.11968994</ele>
        <time>2022-07-10T11:02:02Z</time>
      </trkpt>
      <trkpt lat="43.41941" lon="2.26614">
        <ele>782.12969971</ele>
        <time>2022-07-10T11:02:03Z</time>
      </trkpt>
      <trkpt lat="43.4194" lon="2.26615">
        <ele>782.1796875</ele>
        <time>2022-07-10T11:02:04Z</time>
      </trkpt>
      <trkpt lat="43.41939" lon="2.26617">
        <ele>782.19970703</ele>
        <time>2022-07-10T11:02:05Z</time>
      </trkpt>
      <trkpt lat="43.41937" lon="2.26618">
        <ele>782.19970703</ele>
        <time>2022-07-10T11:02:06Z</time>
      </trkpt>
      <trkpt lat="43.41933" lon="2.26622">
        <ele>782.09973145</ele>
        <time>2022-07-10T11:02:07Z</time>
      </trkpt>
      <trkpt lat="43.41931" lon="2.26624">
        <ele>782.09973145</ele>
        <time>2022-07-10T11:02:08Z</time>
      </trkpt>
      <trkpt lat="43.41929" lon="2.26626">
        <ele>781.91973877</ele>
        <time>2022-07-10T11:02:09Z</time>
      </trkpt>
      <trkpt lat="43.41928" lon="2.26627">
        <ele>781.78973389</ele>
        <time>2022-07-10T11:02:10Z</time>
      </trkpt>
      <trkpt lat="43.41924" lon="2.2663">
        <ele>781.78973389</ele>
        <time>2022-07-10T11:02:11Z</time>
      </trkpt>
      <trkpt lat="43.41923" lon="2.26633">
        <ele>781.61975098</ele>
        <time>2022-07-10T11:02:12Z</time>
      </trkpt>
      <trkpt lat="43.4192" lon="2.26635">
        <ele>781.06976318</ele>
        <time>2022-07-10T11:02:13Z</time>
      </trkpt>
      <trkpt lat="43.41917" lon="2.26637">
        <ele>780.70977783</ele>
        <time>2022-07-10T11:02:14Z</time>
      </trkpt>
      <trkpt lat="43.41913" lon="2.26639">
        <ele>780.30975342</ele>
        <time>2022-07-10T11:02:15Z</time>
      </trkpt>
      <trkpt lat="43.41907" lon="2.26642">
        <ele>779.56976318</ele>
        <time>2022-07-10T11:02:16Z</time>
      </trkpt>
      <trkpt lat="43.41903" lon="2.26645">
        <ele>778.79974365</ele>
        <time>2022-07-10T11:02:17Z</time>
      </trkpt>
      <trkpt lat="43.41899" lon="2.26646">
        <ele>777.85974121</ele>
        <time>2022-07-10T11:02:18Z</time>
      </trkpt>
      <trkpt lat="43.41895" lon="2.26649">
        <ele>777.03973389</ele>
        <time>2022-07-10T11:02:19Z</time>
      </trkpt>
      <trkpt lat="43.4189" lon="2.26653">
        <ele>776.52972412</ele>
        <time>2022-07-10T11:02:20Z</time>
      </trkpt>
      <trkpt lat="43.41886" lon="2.26654">
        <ele>776.52972412</ele>
        <time>2022-07-10T11:02:21Z</time>
      </trkpt>
      <trkpt lat="43.41883" lon="2.26655">
        <ele>776.35974121</ele>
        <time>2022-07-10T11:02:22Z</time>
      </trkpt>
      <trkpt lat="43.41881" lon="2.26657">
        <ele>776.34973145</ele>
        <time>2022-07-10T11:02:23Z</time>
      </trkpt>
      <trkpt lat="43.41878" lon="2.26662">
        <ele>776.34973145</ele>
        <time>2022-07-10T11:02:24Z</time>
      </trkpt>
      <trkpt lat="43.41875" lon="2.26665">
        <ele>776.44970703</ele>
        <time>2022-07-10T11:02:25Z</time>
      </trkpt>
      <trkpt lat="43.41873" lon="2.26667">
        <ele>776.35968018</ele>
        <time>2022-07-10T11:02:26Z</time>
      </trkpt>
      <trkpt lat="43.41869" lon="2.26669">
        <ele>776.43969727</ele>
        <time>2022-07-10T11:02:27Z</time>
      </trkpt>
      <trkpt lat="43.41867" lon="2.2667">
        <ele>776.49969482</ele>
        <time>2022-07-10T11:02:28Z</time>
      </trkpt>
      <trkpt lat="43.41864" lon="2.26672">
        <ele>776.58972168</ele>
        <time>2022-07-10T11:02:29Z</time>
      </trkpt>
      <trkpt lat="43.41861" lon="2.26673">
        <ele>776.58972168</ele>
        <time>2022-07-10T11:02:30Z</time>
      </trkpt>
      <trkpt lat="43.41859" lon="2.26674">
        <ele>776.59973145</ele>
        <time>2022-07-10T11:02:31Z</time>
      </trkpt>
      <trkpt lat="43.41856" lon="2.26675">
        <ele>776.61975098</ele>
        <time>2022-07-10T11:02:32Z</time>
      </trkpt>
      <trkpt lat="43.41854" lon="2.26678">
        <ele>776.61975098</ele>
        <time>2022-07-10T11:02:33Z</time>
      </trkpt>
      <trkpt lat="43.41852" lon="2.26679">
        <ele>776.64978027</ele>
        <time>2022-07-10T11:02:34Z</time>
      </trkpt>
      <trkpt lat="43.41851" lon="2.2668">
        <ele>776.75976562</ele>
        <time>2022-07-10T11:02:35Z</time>
      </trkpt>
      <trkpt lat="43.41849" lon="2.2668">
        <ele>776.81976318</ele>
        <time>2022-07-10T11:02:36Z</time>
      </trkpt>
      <trkpt lat="43.41848" lon="2.26681">
        <ele>776.90979004</ele>
        <time>2022-07-10T11:02:37Z</time>
      </trkpt>
      <trkpt lat="43.41845" lon="2.26683">
        <ele>776.99981689</ele>
        <time>2022-07-10T11:02:38Z</time>
      </trkpt>
      <trkpt lat="43.41843" lon="2.26684">
        <ele>777.11981201</ele>
        <time>2022-07-10T11:02:39Z</time>
      </trkpt>
      <trkpt lat="43.41841" lon="2.26684">
        <ele>777.11981201</ele>
        <time>2022-07-10T11:02:40Z</time>
      </trkpt>
      <trkpt lat="43.41839" lon="2.26686">
        <ele>777.32983398</ele>
        <time>2022-07-10T11:02:41Z</time>
      </trkpt>
      <trkpt lat="43.41836" lon="2.26688">
        <ele>777.43981934</ele>
        <time>2022-07-10T11:02:42Z</time>
      </trkpt>
      <trkpt lat="43.41833" lon="2.26688">
        <ele>777.52984619</ele>
        <time>2022-07-10T11:02:43Z</time>
      </trkpt>
      <trkpt lat="43.41831" lon="2.26688">
        <ele>777.65985107</ele>
        <time>2022-07-10T11:02:44Z</time>
      </trkpt>
      <trkpt lat="43.41829" lon="2.26688">
        <ele>777.81982422</ele>
        <time>2022-07-10T11:02:45Z</time>
      </trkpt>
      <trkpt lat="43.41827" lon="2.26688">
        <ele>777.81982422</ele>
        <time>2022-07-10T11:02:46Z</time>
      </trkpt>
      <trkpt lat="43.41825" lon="2.26688">
        <ele>778.1697998</ele>
        <time>2022-07-10T11:02:47Z</time>
      </trkpt>
      <trkpt lat="43.41822" lon="2.26688">
        <ele>778.31982422</ele>
        <time>2022-07-10T11:02:48Z</time>
      </trkpt>
      <trkpt lat="43.4182" lon="2.26687">
        <ele>778.47979736</ele>
        <time>2022-07-10T11:02:49Z</time>
      </trkpt>
      <trkpt lat="43.41818" lon="2.26687">
        <ele>778.63977051</ele>
        <time>2022-07-10T11:02:50Z</time>
      </trkpt>
      <trkpt lat="43.41815" lon="2.26687">
        <ele>778.85974121</ele>
        <time>2022-07-10T11:02:51Z</time>
      </trkpt>
      <trkpt lat="43.41812" lon="2.26687">
        <ele>779.11975098</ele>
        <time>2022-07-10T11:02:52Z</time>
      </trkpt>
      <trkpt lat="43.4181" lon="2.26687">
        <ele>779.37976074</ele>
        <time>2022-07-10T11:02:53Z</time>
      </trkpt>
      <trkpt lat="43.41807" lon="2.26688">
        <ele>779.70977783</ele>
        <time>2022-07-10T11:02:54Z</time>
      </trkpt>
      <trkpt lat="43.41805" lon="2.26689">
        <ele>779.9697876</ele>
        <time>2022-07-10T11:02:55Z</time>
      </trkpt>
      <trkpt lat="43.41803" lon="2.2669">
        <ele>779.9697876</ele>
        <time>2022-07-10T11:02:56Z</time>
      </trkpt>
      <trkpt lat="43.41802" lon="2.2669">
        <ele>780.63977051</ele>
        <time>2022-07-10T11:02:57Z</time>
      </trkpt>
      <trkpt lat="43.41802" lon="2.26691">
        <ele>781.03979492</ele>
        <time>2022-07-10T11:02:58Z</time>
      </trkpt>
      <trkpt lat="43.418" lon="2.26691">
        <ele>781.40979004</ele>
        <time>2022-07-10T11:02:59Z</time>
      </trkpt>
      <trkpt lat="43.41798" lon="2.26693">
        <ele>781.40979004</ele>
        <time>2022-07-10T11:03:00Z</time>
      </trkpt>
      <trkpt lat="43.41795" lon="2.26694">
        <ele>782.09979248</ele>
        <time>2022-07-10T11:03:01Z</time>
      </trkpt>
      <trkpt lat="43.41794" lon="2.26695">
        <ele>782.19976807</ele>
        <time>2022-07-10T11:03:02Z</time>
      </trkpt>
      <trkpt lat="43.41792" lon="2.26697">
        <ele>782.19976807</ele>
        <time>2022-07-10T11:03:03Z</time>
      </trkpt>
      <trkpt lat="43.41791" lon="2.26698">
        <ele>782.42974854</ele>
        <time>2022-07-10T11:03:04Z</time>
      </trkpt>
      <trkpt lat="43.41789" lon="2.26702">
        <ele>782.54974365</ele>
        <time>2022-07-10T11:03:05Z</time>
      </trkpt>
      <trkpt lat="43.41787" lon="2.26704">
        <ele>782.55975342</ele>
        <time>2022-07-10T11:03:06Z</time>
      </trkpt>
      <trkpt lat="43.41785" lon="2.26706">
        <ele>782.55975342</ele>
        <time>2022-07-10T11:03:07Z</time>
      </trkpt>
      <trkpt lat="43.41783" lon="2.26708">
        <ele>782.659729</ele>
        <time>2022-07-10T11:03:08Z</time>
      </trkpt>
      <trkpt lat="43.41782" lon="2.2671">
        <ele>782.659729</ele>
        <time>2022-07-10T11:03:09Z</time>
      </trkpt>
      <trkpt lat="43.4178" lon="2.26712">
        <ele>782.84973145</ele>
        <time>2022-07-10T11:03:10Z</time>
      </trkpt>
      <trkpt lat="43.4178" lon="2.26714">
        <ele>783.00970459</ele>
        <time>2022-07-10T11:03:11Z</time>
      </trkpt>
      <trkpt lat="43.41778" lon="2.26718">
        <ele>783.1796875</ele>
        <time>2022-07-10T11:03:12Z</time>
      </trkpt>
      <trkpt lat="43.41776" lon="2.26722">
        <ele>783.25970459</ele>
        <time>2022-07-10T11:03:13Z</time>
      </trkpt>
      <trkpt lat="43.41775" lon="2.26726">
        <ele>783.25970459</ele>
        <time>2022-07-10T11:03:14Z</time>
      </trkpt>
      <trkpt lat="43.41774" lon="2.26727">
        <ele>783.35968018</ele>
        <time>2022-07-10T11:03:15Z</time>
      </trkpt>
      <trkpt lat="43.41772" lon="2.2673">
        <ele>783.38970947</ele>
        <time>2022-07-10T11:03:16Z</time>
      </trkpt>
      <trkpt lat="43.41771" lon="2.26732">
        <ele>783.49969482</ele>
        <time>2022-07-10T11:03:17Z</time>
      </trkpt>
      <trkpt lat="43.41768" lon="2.26736">
        <ele>783.56970215</ele>
        <time>2022-07-10T11:03:18Z</time>
      </trkpt>
      <trkpt lat="43.41766" lon="2.26739">
        <ele>783.58972168</ele>
        <time>2022-07-10T11:03:19Z</time>
      </trkpt>
      <trkpt lat="43.41765" lon="2.26741">
        <ele>783.58972168</ele>
        <time>2022-07-10T11:03:20Z</time>
      </trkpt>
      <trkpt lat="43.41763" lon="2.26743">
        <ele>783.58972168</ele>
        <time>2022-07-10T11:03:21Z</time>
      </trkpt>
      <trkpt lat="43.41761" lon="2.26746">
        <ele>783.66973877</ele>
        <time>2022-07-10T11:03:22Z</time>
      </trkpt>
      <trkpt lat="43.41758" lon="2.2675">
        <ele>783.66973877</ele>
        <time>2022-07-10T11:03:23Z</time>
      </trkpt>
      <trkpt lat="43.41757" lon="2.26751">
        <ele>783.77972412</ele>
        <time>2022-07-10T11:03:24Z</time>
      </trkpt>
      <trkpt lat="43.41756" lon="2.26753">
        <ele>783.77972412</ele>
        <time>2022-07-10T11:03:25Z</time>
      </trkpt>
      <trkpt lat="43.41754" lon="2.26754">
        <ele>783.82971191</ele>
        <time>2022-07-10T11:03:26Z</time>
      </trkpt>
      <trkpt lat="43.41754" lon="2.26756">
        <ele>783.82971191</ele>
        <time>2022-07-10T11:03:27Z</time>
      </trkpt>
      <trkpt lat="43.41755" lon="2.26757">
        <ele>783.86968994</ele>
        <time>2022-07-10T11:03:28Z</time>
      </trkpt>
      <trkpt lat="43.41754" lon="2.26761">
        <ele>783.83966064</ele>
        <time>2022-07-10T11:03:29Z</time>
      </trkpt>
      <trkpt lat="43.41753" lon="2.26763">
        <ele>783.83966064</ele>
        <time>2022-07-10T11:03:30Z</time>
      </trkpt>
      <trkpt lat="43.41752" lon="2.26765">
        <ele>783.65966797</ele>
        <time>2022-07-10T11:03:31Z</time>
      </trkpt>
      <trkpt lat="43.41749" lon="2.2677">
        <ele>783.55969238</ele>
        <time>2022-07-10T11:03:32Z</time>
      </trkpt>
      <trkpt lat="43.41747" lon="2.26772">
        <ele>783.49969482</ele>
        <time>2022-07-10T11:03:33Z</time>
      </trkpt>
      <trkpt lat="43.41745" lon="2.26775">
        <ele>783.49969482</ele>
        <time>2022-07-10T11:03:34Z</time>
      </trkpt>
      <trkpt lat="43.41743" lon="2.26778">
        <ele>783.4597168</ele>
        <time>2022-07-10T11:03:35Z</time>
      </trkpt>
      <trkpt lat="43.41742" lon="2.26781">
        <ele>783.37969971</ele>
        <time>2022-07-10T11:03:36Z</time>
      </trkpt>
      <trkpt lat="43.4174" lon="2.26785">
        <ele>783.26971436</ele>
        <time>2022-07-10T11:03:37Z</time>
      </trkpt>
      <trkpt lat="43.41738" lon="2.26787">
        <ele>783.159729</ele>
        <time>2022-07-10T11:03:38Z</time>
      </trkpt>
      <trkpt lat="43.41736" lon="2.26789">
        <ele>783.159729</ele>
        <time>2022-07-10T11:03:39Z</time>
      </trkpt>
      <trkpt lat="43.41733" lon="2.26792">
        <ele>783.33972168</ele>
        <time>2022-07-10T11:03:40Z</time>
      </trkpt>
      <trkpt lat="43.4173" lon="2.26795">
        <ele>783.33972168</ele>
        <time>2022-07-10T11:03:41Z</time>
      </trkpt>
      <trkpt lat="43.41729" lon="2.26798">
        <ele>783.51971436</ele>
        <time>2022-07-10T11:03:42Z</time>
      </trkpt>
      <trkpt lat="43.41728" lon="2.26801">
        <ele>783.56970215</ele>
        <time>2022-07-10T11:03:43Z</time>
      </trkpt>
      <trkpt lat="43.41729" lon="2.26805">
        <ele>783.56970215</ele>
        <time>2022-07-10T11:03:44Z</time>
      </trkpt>
      <trkpt lat="43.41729" lon="2.26809">
        <ele>783.36968994</ele>
        <time>2022-07-10T11:03:45Z</time>
      </trkpt>
      <trkpt lat="43.41725" lon="2.26813">
        <ele>782.79968262</ele>
        <time>2022-07-10T11:03:46Z</time>
      </trkpt>
      <trkpt lat="43.41723" lon="2.26816">
        <ele>782.79968262</ele>
        <time>2022-07-10T11:03:47Z</time>
      </trkpt>
      <trkpt lat="43.41722" lon="2.26819">
        <ele>782.54968262</ele>
        <time>2022-07-10T11:03:48Z</time>
      </trkpt>
      <trkpt lat="43.41721" lon="2.26822">
        <ele>782.54968262</ele>
        <time>2022-07-10T11:03:49Z</time>
      </trkpt>
      <trkpt lat="43.41718" lon="2.26825">
        <ele>782.58966064</ele>
        <time>2022-07-10T11:03:50Z</time>
      </trkpt>
      <trkpt lat="43.41716" lon="2.26828">
        <ele>782.73968506</ele>
        <time>2022-07-10T11:03:51Z</time>
      </trkpt>
      <trkpt lat="43.41714" lon="2.26829">
        <ele>782.78967285</ele>
        <time>2022-07-10T11:03:52Z</time>
      </trkpt>
      <trkpt lat="43.41712" lon="2.26832">
        <ele>782.76965332</ele>
        <time>2022-07-10T11:03:53Z</time>
      </trkpt>
      <trkpt lat="43.41709" lon="2.26835">
        <ele>782.76965332</ele>
        <time>2022-07-10T11:03:54Z</time>
      </trkpt>
      <trkpt lat="43.41706" lon="2.26835">
        <ele>782.73962402</ele>
        <time>2022-07-10T11:03:55Z</time>
      </trkpt>
      <trkpt lat="43.41704" lon="2.26837">
        <ele>783.25964355</ele>
        <time>2022-07-10T11:03:56Z</time>
      </trkpt>
      <trkpt lat="43.41703" lon="2.26838">
        <ele>783.25964355</ele>
        <time>2022-07-10T11:03:57Z</time>
      </trkpt>
      <trkpt lat="43.41701" lon="2.2684">
        <ele>784.12963867</ele>
        <time>2022-07-10T11:03:58Z</time>
      </trkpt>
      <trkpt lat="43.41698" lon="2.26844">
        <ele>784.26965332</ele>
        <time>2022-07-10T11:03:59Z</time>
      </trkpt>
      <trkpt lat="43.41696" lon="2.26848">
        <ele>784.32965088</ele>
        <time>2022-07-10T11:04:00Z</time>
      </trkpt>
      <trkpt lat="43.41694" lon="2.26852">
        <ele>784.32965088</ele>
        <time>2022-07-10T11:04:01Z</time>
      </trkpt>
      <trkpt lat="43.41691" lon="2.26855">
        <ele>784.26965332</ele>
        <time>2022-07-10T11:04:02Z</time>
      </trkpt>
      <trkpt lat="43.41686" lon="2.2686">
        <ele>784.16967773</ele>
        <time>2022-07-10T11:04:03Z</time>
      </trkpt>
      <trkpt lat="43.41685" lon="2.26862">
        <ele>784.20965576</ele>
        <time>2022-07-10T11:04:04Z</time>
      </trkpt>
      <trkpt lat="43.41683" lon="2.26863">
        <ele>784.20965576</ele>
        <time>2022-07-10T11:04:05Z</time>
      </trkpt>
      <trkpt lat="43.41681" lon="2.26865">
        <ele>784.37963867</ele>
        <time>2022-07-10T11:04:06Z</time>
      </trkpt>
      <trkpt lat="43.4168" lon="2.26867">
        <ele>784.35961914</ele>
        <time>2022-07-10T11:04:07Z</time>
      </trkpt>
      <trkpt lat="43.41678" lon="2.26873">
        <ele>784.35961914</ele>
        <time>2022-07-10T11:04:08Z</time>
      </trkpt>
      <trkpt lat="43.41677" lon="2.26876">
        <ele>784.17962646</ele>
        <time>2022-07-10T11:04:09Z</time>
      </trkpt>
      <trkpt lat="43.41675" lon="2.26879">
        <ele>783.70965576</ele>
        <time>2022-07-10T11:04:10Z</time>
      </trkpt>
      <trkpt lat="43.41671" lon="2.26883">
        <ele>783.28967285</ele>
        <time>2022-07-10T11:04:11Z</time>
      </trkpt>
      <trkpt lat="43.41667" lon="2.26887">
        <ele>782.74969482</ele>
        <time>2022-07-10T11:04:12Z</time>
      </trkpt>
      <trkpt lat="43.41665" lon="2.26887">
        <ele>782.74969482</ele>
        <time>2022-07-10T11:04:13Z</time>
      </trkpt>
      <trkpt lat="43.41663" lon="2.26888">
        <ele>783.34967041</ele>
        <time>2022-07-10T11:04:14Z</time>
      </trkpt>
      <trkpt lat="43.41661" lon="2.26889">
        <ele>783.76965332</ele>
        <time>2022-07-10T11:04:15Z</time>
      </trkpt>
      <trkpt lat="43.41659" lon="2.26891">
        <ele>783.76965332</ele>
        <time>2022-07-10T11:04:16Z</time>
      </trkpt>
      <trkpt lat="43.41657" lon="2.26895">
        <ele>784.40966797</ele>
        <time>2022-07-10T11:04:17Z</time>
      </trkpt>
      <trkpt lat="43.41656" lon="2.26897">
        <ele>784.51965332</ele>
        <time>2022-07-10T11:04:18Z</time>
      </trkpt>
      <trkpt lat="43.41656" lon="2.269">
        <ele>784.51965332</ele>
        <time>2022-07-10T11:04:19Z</time>
      </trkpt>
      <trkpt lat="43.41654" lon="2.26902">
        <ele>784.43963623</ele>
        <time>2022-07-10T11:04:20Z</time>
      </trkpt>
      <trkpt lat="43.41653" lon="2.26907">
        <ele>784.43963623</ele>
        <time>2022-07-10T11:04:21Z</time>
      </trkpt>
      <trkpt lat="43.41651" lon="2.2691">
        <ele>784.31964111</ele>
        <time>2022-07-10T11:04:22Z</time>
      </trkpt>
      <trkpt lat="43.41649" lon="2.26913">
        <ele>783.92962646</ele>
        <time>2022-07-10T11:04:23Z</time>
      </trkpt>
      <trkpt lat="43.41647" lon="2.26916">
        <ele>783.81964111</ele>
        <time>2022-07-10T11:04:24Z</time>
      </trkpt>
      <trkpt lat="43.41644" lon="2.26918">
        <ele>783.8996582</ele>
        <time>2022-07-10T11:04:25Z</time>
      </trkpt>
      <trkpt lat="43.4164" lon="2.26921">
        <ele>783.8996582</ele>
        <time>2022-07-10T11:04:26Z</time>
      </trkpt>
      <trkpt lat="43.41638" lon="2.26923">
        <ele>784.31964111</ele>
        <time>2022-07-10T11:04:27Z</time>
      </trkpt>
      <trkpt lat="43.41637" lon="2.26923">
        <ele>784.60961914</ele>
        <time>2022-07-10T11:04:28Z</time>
      </trkpt>
      <trkpt lat="43.41635" lon="2.26925">
        <ele>784.78961182</ele>
        <time>2022-07-10T11:04:29Z</time>
      </trkpt>
      <trkpt lat="43.41632" lon="2.26928">
        <ele>784.78961182</ele>
        <time>2022-07-10T11:04:30Z</time>
      </trkpt>
      <trkpt lat="43.41628" lon="2.26933">
        <ele>784.98962402</ele>
        <time>2022-07-10T11:04:31Z</time>
      </trkpt>
      <trkpt lat="43.41627" lon="2.26935">
        <ele>785.10961914</ele>
        <time>2022-07-10T11:04:32Z</time>
      </trkpt>
      <trkpt lat="43.41625" lon="2.26936">
        <ele>785.30963135</ele>
        <time>2022-07-10T11:04:33Z</time>
      </trkpt>
      <trkpt lat="43.41622" lon="2.26936">
        <ele>785.36962891</ele>
        <time>2022-07-10T11:04:34Z</time>
      </trkpt>
      <trkpt lat="43.41616" lon="2.26938">
        <ele>785.36962891</ele>
        <time>2022-07-10T11:04:35Z</time>
      </trkpt>
      <trkpt lat="43.41613" lon="2.2694">
        <ele>785.4196167</ele>
        <time>2022-07-10T11:04:36Z</time>
      </trkpt>
      <trkpt lat="43.4161" lon="2.26942">
        <ele>785.58959961</ele>
        <time>2022-07-10T11:04:37Z</time>
      </trkpt>
      <trkpt lat="43.41607" lon="2.26945">
        <ele>785.72961426</ele>
        <time>2022-07-10T11:04:38Z</time>
      </trkpt>
      <trkpt lat="43.41602" lon="2.26947">
        <ele>785.72961426</ele>
        <time>2022-07-10T11:04:39Z</time>
      </trkpt>
      <trkpt lat="43.41599" lon="2.26948">
        <ele>786.11962891</ele>
        <time>2022-07-10T11:04:40Z</time>
      </trkpt>
      <trkpt lat="43.41597" lon="2.26948">
        <ele>786.26965332</ele>
        <time>2022-07-10T11:04:41Z</time>
      </trkpt>
      <trkpt lat="43.41595" lon="2.26948">
        <ele>786.3996582</ele>
        <time>2022-07-10T11:04:42Z</time>
      </trkpt>
      <trkpt lat="43.41592" lon="2.26951">
        <ele>786.46966553</ele>
        <time>2022-07-10T11:04:43Z</time>
      </trkpt>
      <trkpt lat="43.41588" lon="2.26955">
        <ele>786.46966553</ele>
        <time>2022-07-10T11:04:44Z</time>
      </trkpt>
      <trkpt lat="43.41586" lon="2.26957">
        <ele>786.40966797</ele>
        <time>2022-07-10T11:04:45Z</time>
      </trkpt>
      <trkpt lat="43.41584" lon="2.2696">
        <ele>786.25964355</ele>
        <time>2022-07-10T11:04:46Z</time>
      </trkpt>
      <trkpt lat="43.41581" lon="2.26963">
        <ele>785.74963379</ele>
        <time>2022-07-10T11:04:47Z</time>
      </trkpt>
      <trkpt lat="43.41577" lon="2.26965">
        <ele>785.74963379</ele>
        <time>2022-07-10T11:04:48Z</time>
      </trkpt>
      <trkpt lat="43.41574" lon="2.26965">
        <ele>785.49963379</ele>
        <time>2022-07-10T11:04:49Z</time>
      </trkpt>
      <trkpt lat="43.41572" lon="2.26965">
        <ele>785.49963379</ele>
        <time>2022-07-10T11:04:50Z</time>
      </trkpt>
      <trkpt lat="43.4157" lon="2.26966">
        <ele>785.61962891</ele>
        <time>2022-07-10T11:04:51Z</time>
      </trkpt>
      <trkpt lat="43.41567" lon="2.26967">
        <ele>785.77960205</ele>
        <time>2022-07-10T11:04:52Z</time>
      </trkpt>
      <trkpt lat="43.41564" lon="2.26968">
        <ele>785.77960205</ele>
        <time>2022-07-10T11:04:53Z</time>
      </trkpt>
      <trkpt lat="43.41562" lon="2.2697">
        <ele>785.79962158</ele>
        <time>2022-07-10T11:04:54Z</time>
      </trkpt>
      <trkpt lat="43.41559" lon="2.26971">
        <ele>785.70959473</ele>
        <time>2022-07-10T11:04:55Z</time>
      </trkpt>
      <trkpt lat="43.41556" lon="2.26972">
        <ele>785.59960938</ele>
        <time>2022-07-10T11:04:56Z</time>
      </trkpt>
      <trkpt lat="43.41551" lon="2.26974">
        <ele>785.44958496</ele>
        <time>2022-07-10T11:04:57Z</time>
      </trkpt>
      <trkpt lat="43.4155" lon="2.26976">
        <ele>785.44958496</ele>
        <time>2022-07-10T11:04:58Z</time>
      </trkpt>
      <trkpt lat="43.41548" lon="2.26977">
        <ele>785.05957031</ele>
        <time>2022-07-10T11:04:59Z</time>
      </trkpt>
      <trkpt lat="43.41546" lon="2.26978">
        <ele>784.69958496</ele>
        <time>2022-07-10T11:05:00Z</time>
      </trkpt>
      <trkpt lat="43.41543" lon="2.26978">
        <ele>784.69958496</ele>
        <time>2022-07-10T11:05:01Z</time>
      </trkpt>
      <trkpt lat="43.4154" lon="2.26976">
        <ele>783.78961182</ele>
        <time>2022-07-10T11:05:02Z</time>
      </trkpt>
      <trkpt lat="43.41539" lon="2.26974">
        <ele>782.85961914</ele>
        <time>2022-07-10T11:05:03Z</time>
      </trkpt>
      <trkpt lat="43.41538" lon="2.26972">
        <ele>782.46960449</ele>
        <time>2022-07-10T11:05:04Z</time>
      </trkpt>
      <trkpt lat="43.41537" lon="2.2697">
        <ele>782.23962402</ele>
        <time>2022-07-10T11:05:05Z</time>
      </trkpt>
      <trkpt lat="43.41537" lon="2.26968">
        <ele>782.23962402</ele>
        <time>2022-07-10T11:05:06Z</time>
      </trkpt>
      <trkpt lat="43.41536" lon="2.26966">
        <ele>782.07965088</ele>
        <time>2022-07-10T11:05:07Z</time>
      </trkpt>
      <trkpt lat="43.41535" lon="2.26965">
        <ele>782.12963867</ele>
        <time>2022-07-10T11:05:08Z</time>
      </trkpt>
      <trkpt lat="43.41535" lon="2.26963">
        <ele>782.22961426</ele>
        <time>2022-07-10T11:05:09Z</time>
      </trkpt>
      <trkpt lat="43.41534" lon="2.26961">
        <ele>782.25964355</ele>
        <time>2022-07-10T11:05:10Z</time>
      </trkpt>
      <trkpt lat="43.41532" lon="2.26957">
        <ele>782.30963135</ele>
        <time>2022-07-10T11:05:11Z</time>
      </trkpt>
      <trkpt lat="43.41532" lon="2.26954">
        <ele>782.30963135</ele>
        <time>2022-07-10T11:05:12Z</time>
      </trkpt>
      <trkpt lat="43.41532" lon="2.26952">
        <ele>782.33966064</ele>
        <time>2022-07-10T11:05:13Z</time>
      </trkpt>
      <trkpt lat="43.41531" lon="2.26949">
        <ele>782.34967041</ele>
        <time>2022-07-10T11:05:14Z</time>
      </trkpt>
      <trkpt lat="43.4153" lon="2.26947">
        <ele>782.32965088</ele>
        <time>2022-07-10T11:05:15Z</time>
      </trkpt>
      <trkpt lat="43.41527" lon="2.26945">
        <ele>782.32965088</ele>
        <time>2022-07-10T11:05:16Z</time>
      </trkpt>
      <trkpt lat="43.41525" lon="2.26944">
        <ele>782.27966309</ele>
        <time>2022-07-10T11:05:17Z</time>
      </trkpt>
      <trkpt lat="43.41524" lon="2.26943">
        <ele>782.37963867</ele>
        <time>2022-07-10T11:05:18Z</time>
      </trkpt>
      <trkpt lat="43.41523" lon="2.26941">
        <ele>782.37963867</ele>
        <time>2022-07-10T11:05:19Z</time>
      </trkpt>
      <trkpt lat="43.4152" lon="2.2694">
        <ele>782.53961182</ele>
        <time>2022-07-10T11:05:20Z</time>
      </trkpt>
      <trkpt lat="43.41517" lon="2.2694">
        <ele>782.53961182</ele>
        <time>2022-07-10T11:05:21Z</time>
      </trkpt>
      <trkpt lat="43.41514" lon="2.26939">
        <ele>782.50958252</ele>
        <time>2022-07-10T11:05:22Z</time>
      </trkpt>
      <trkpt lat="43.41511" lon="2.26939">
        <ele>782.50958252</ele>
        <time>2022-07-10T11:05:23Z</time>
      </trkpt>
      <trkpt lat="43.41505" lon="2.26938">
        <ele>782.46960449</ele>
        <time>2022-07-10T11:05:24Z</time>
      </trkpt>
      <trkpt lat="43.41502" lon="2.2694">
        <ele>782.29962158</ele>
        <time>2022-07-10T11:05:25Z</time>
      </trkpt>
      <trkpt lat="43.415" lon="2.26943">
        <ele>782.29962158</ele>
        <time>2022-07-10T11:05:26Z</time>
      </trkpt>
      <trkpt lat="43.41497" lon="2.26944">
        <ele>782.17962646</ele>
        <time>2022-07-10T11:05:27Z</time>
      </trkpt>
      <trkpt lat="43.41495" lon="2.26944">
        <ele>782.20965576</ele>
        <time>2022-07-10T11:05:28Z</time>
      </trkpt>
      <trkpt lat="43.4149" lon="2.26946">
        <ele>782.21966553</ele>
        <time>2022-07-10T11:05:29Z</time>
      </trkpt>
      <trkpt lat="43.41486" lon="2.26949">
        <ele>782.20965576</ele>
        <time>2022-07-10T11:05:30Z</time>
      </trkpt>
      <trkpt lat="43.41481" lon="2.26952">
        <ele>782.25964355</ele>
        <time>2022-07-10T11:05:31Z</time>
      </trkpt>
      <trkpt lat="43.41477" lon="2.26954">
        <ele>781.99963379</ele>
        <time>2022-07-10T11:05:32Z</time>
      </trkpt>
      <trkpt lat="43.41472" lon="2.2696">
        <ele>781.71960449</ele>
        <time>2022-07-10T11:05:33Z</time>
      </trkpt>
      <trkpt lat="43.41468" lon="2.26963">
        <ele>781.71960449</ele>
        <time>2022-07-10T11:05:34Z</time>
      </trkpt>
      <trkpt lat="43.41465" lon="2.26966">
        <ele>781.49963379</ele>
        <time>2022-07-10T11:05:35Z</time>
      </trkpt>
      <trkpt lat="43.41464" lon="2.26968">
        <ele>781.50964355</ele>
        <time>2022-07-10T11:05:36Z</time>
      </trkpt>
      <trkpt lat="43.41461" lon="2.2697">
        <ele>781.50964355</ele>
        <time>2022-07-10T11:05:37Z</time>
      </trkpt>
      <trkpt lat="43.41458" lon="2.26974">
        <ele>781.6496582</ele>
        <time>2022-07-10T11:05:38Z</time>
      </trkpt>
      <trkpt lat="43.41456" lon="2.26976">
        <ele>781.6496582</ele>
        <time>2022-07-10T11:05:39Z</time>
      </trkpt>
      <trkpt lat="43.41454" lon="2.26978">
        <ele>781.6496582</ele>
        <time>2022-07-10T11:05:40Z</time>
      </trkpt>
      <trkpt lat="43.41452" lon="2.2698">
        <ele>781.65966797</ele>
        <time>2022-07-10T11:05:41Z</time>
      </trkpt>
      <trkpt lat="43.4145" lon="2.26984">
        <ele>781.65966797</ele>
        <time>2022-07-10T11:05:42Z</time>
      </trkpt>
      <trkpt lat="43.41447" lon="2.26987">
        <ele>781.65966797</ele>
        <time>2022-07-10T11:05:43Z</time>
      </trkpt>
      <trkpt lat="43.41444" lon="2.26991">
        <ele>781.74969482</ele>
        <time>2022-07-10T11:05:44Z</time>
      </trkpt>
      <trkpt lat="43.41441" lon="2.26996">
        <ele>781.68969727</ele>
        <time>2022-07-10T11:05:45Z</time>
      </trkpt>
      <trkpt lat="43.41438" lon="2.27">
        <ele>781.77972412</ele>
        <time>2022-07-10T11:05:46Z</time>
      </trkpt>
      <trkpt lat="43.41436" lon="2.27004">
        <ele>781.77972412</ele>
        <time>2022-07-10T11:05:47Z</time>
      </trkpt>
      <trkpt lat="43.41433" lon="2.27009">
        <ele>781.91973877</ele>
        <time>2022-07-10T11:05:48Z</time>
      </trkpt>
      <trkpt lat="43.4143" lon="2.27012">
        <ele>781.96972656</ele>
        <time>2022-07-10T11:05:49Z</time>
      </trkpt>
      <trkpt lat="43.41428" lon="2.27016">
        <ele>781.97973633</ele>
        <time>2022-07-10T11:05:50Z</time>
      </trkpt>
      <trkpt lat="43.41426" lon="2.27022">
        <ele>781.96972656</ele>
        <time>2022-07-10T11:05:51Z</time>
      </trkpt>
      <trkpt lat="43.41425" lon="2.27025">
        <ele>781.88970947</ele>
        <time>2022-07-10T11:05:52Z</time>
      </trkpt>
      <trkpt lat="43.41425" lon="2.27028">
        <ele>781.88970947</ele>
        <time>2022-07-10T11:05:53Z</time>
      </trkpt>
      <trkpt lat="43.41424" lon="2.2703">
        <ele>781.77972412</ele>
        <time>2022-07-10T11:05:54Z</time>
      </trkpt>
      <trkpt lat="43.41424" lon="2.27033">
        <ele>781.77972412</ele>
        <time>2022-07-10T11:05:55Z</time>
      </trkpt>
      <trkpt lat="43.41423" lon="2.27036">
        <ele>783.78973389</ele>
        <time>2022-07-10T11:05:56Z</time>
      </trkpt>
      <trkpt lat="43.41421" lon="2.27039">
        <ele>783.78973389</ele>
        <time>2022-07-10T11:05:57Z</time>
      </trkpt>
      <trkpt lat="43.41419" lon="2.27043">
        <ele>783.98974609</ele>
        <time>2022-07-10T11:05:58Z</time>
      </trkpt>
      <trkpt lat="43.41418" lon="2.27046">
        <ele>782.78973389</ele>
        <time>2022-07-10T11:05:59Z</time>
      </trkpt>
      <trkpt lat="43.41414" lon="2.27052">
        <ele>781.99975586</ele>
        <time>2022-07-10T11:06:00Z</time>
      </trkpt>
      <trkpt lat="43.41412" lon="2.27056">
        <ele>781.80975342</ele>
        <time>2022-07-10T11:06:01Z</time>
      </trkpt>
      <trkpt lat="43.41411" lon="2.27062">
        <ele>781.6897583</ele>
        <time>2022-07-10T11:06:02Z</time>
      </trkpt>
      <trkpt lat="43.41409" lon="2.27065">
        <ele>781.6897583</ele>
        <time>2022-07-10T11:06:03Z</time>
      </trkpt>
      <trkpt lat="43.41407" lon="2.27069">
        <ele>781.6897583</ele>
        <time>2022-07-10T11:06:04Z</time>
      </trkpt>
      <trkpt lat="43.41404" lon="2.27075">
        <ele>781.69976807</ele>
        <time>2022-07-10T11:06:05Z</time>
      </trkpt>
      <trkpt lat="43.41403" lon="2.27077">
        <ele>781.74975586</ele>
        <time>2022-07-10T11:06:06Z</time>
      </trkpt>
      <trkpt lat="43.41402" lon="2.27081">
        <ele>781.80975342</ele>
        <time>2022-07-10T11:06:07Z</time>
      </trkpt>
      <trkpt lat="43.414" lon="2.27086">
        <ele>781.80975342</ele>
        <time>2022-07-10T11:06:08Z</time>
      </trkpt>
      <trkpt lat="43.41397" lon="2.27092">
        <ele>781.72973633</ele>
        <time>2022-07-10T11:06:09Z</time>
      </trkpt>
      <trkpt lat="43.41395" lon="2.27096">
        <ele>781.63970947</ele>
        <time>2022-07-10T11:06:10Z</time>
      </trkpt>
      <trkpt lat="43.41392" lon="2.27101">
        <ele>781.58972168</ele>
        <time>2022-07-10T11:06:11Z</time>
      </trkpt>
      <trkpt lat="43.41389" lon="2.27105">
        <ele>781.53973389</ele>
        <time>2022-07-10T11:06:12Z</time>
      </trkpt>
      <trkpt lat="43.41387" lon="2.2711">
        <ele>781.52972412</ele>
        <time>2022-07-10T11:06:13Z</time>
      </trkpt>
      <trkpt lat="43.41384" lon="2.27115">
        <ele>781.62969971</ele>
        <time>2022-07-10T11:06:14Z</time>
      </trkpt>
      <trkpt lat="43.41382" lon="2.2712">
        <ele>781.63970947</ele>
        <time>2022-07-10T11:06:15Z</time>
      </trkpt>
      <trkpt lat="43.41381" lon="2.27124">
        <ele>781.63970947</ele>
        <time>2022-07-10T11:06:16Z</time>
      </trkpt>
      <trkpt lat="43.4138" lon="2.27127">
        <ele>781.64971924</ele>
        <time>2022-07-10T11:06:17Z</time>
      </trkpt>
      <trkpt lat="43.41379" lon="2.27132">
        <ele>781.72973633</ele>
        <time>2022-07-10T11:06:18Z</time>
      </trkpt>
      <trkpt lat="43.41376" lon="2.27135">
        <ele>781.71972656</ele>
        <time>2022-07-10T11:06:19Z</time>
      </trkpt>
      <trkpt lat="43.41374" lon="2.27139">
        <ele>781.80975342</ele>
        <time>2022-07-10T11:06:20Z</time>
      </trkpt>
      <trkpt lat="43.41371" lon="2.27143">
        <ele>781.73974609</ele>
        <time>2022-07-10T11:06:21Z</time>
      </trkpt>
      <trkpt lat="43.41369" lon="2.27147">
        <ele>781.73974609</ele>
        <time>2022-07-10T11:06:22Z</time>
      </trkpt>
      <trkpt lat="43.41368" lon="2.27152">
        <ele>781.78973389</ele>
        <time>2022-07-10T11:06:23Z</time>
      </trkpt>
      <trkpt lat="43.41366" lon="2.27156">
        <ele>781.78973389</ele>
        <time>2022-07-10T11:06:24Z</time>
      </trkpt>
      <trkpt lat="43.41364" lon="2.27161">
        <ele>781.78973389</ele>
        <time>2022-07-10T11:06:25Z</time>
      </trkpt>
      <trkpt lat="43.41363" lon="2.27165">
        <ele>781.76971436</ele>
        <time>2022-07-10T11:06:26Z</time>
      </trkpt>
      <trkpt lat="43.41362" lon="2.2717">
        <ele>781.76971436</ele>
        <time>2022-07-10T11:06:27Z</time>
      </trkpt>
      <trkpt lat="43.41362" lon="2.27173">
        <ele>781.81970215</ele>
        <time>2022-07-10T11:06:28Z</time>
      </trkpt>
      <trkpt lat="43.41362" lon="2.27176">
        <ele>781.82971191</ele>
        <time>2022-07-10T11:06:29Z</time>
      </trkpt>
      <trkpt lat="43.41362" lon="2.27179">
        <ele>781.75970459</ele>
        <time>2022-07-10T11:06:30Z</time>
      </trkpt>
      <trkpt lat="43.4136" lon="2.27184">
        <ele>781.75970459</ele>
        <time>2022-07-10T11:06:31Z</time>
      </trkpt>
      <trkpt lat="43.41358" lon="2.27194">
        <ele>781.76971436</ele>
        <time>2022-07-10T11:06:32Z</time>
      </trkpt>
      <trkpt lat="43.41357" lon="2.27201">
        <ele>781.659729</ele>
        <time>2022-07-10T11:06:33Z</time>
      </trkpt>
      <trkpt lat="43.41355" lon="2.27208">
        <ele>781.61975098</ele>
        <time>2022-07-10T11:06:34Z</time>
      </trkpt>
      <trkpt lat="43.41354" lon="2.27214">
        <ele>781.51977539</ele>
        <time>2022-07-10T11:06:35Z</time>
      </trkpt>
      <trkpt lat="43.41353" lon="2.27222">
        <ele>781.51977539</ele>
        <time>2022-07-10T11:06:36Z</time>
      </trkpt>
      <trkpt lat="43.41352" lon="2.27226">
        <ele>781.51977539</ele>
        <time>2022-07-10T11:06:37Z</time>
      </trkpt>
      <trkpt lat="43.41351" lon="2.2723">
        <ele>781.54980469</ele>
        <time>2022-07-10T11:06:38Z</time>
      </trkpt>
      <trkpt lat="43.4135" lon="2.27234">
        <ele>781.58978271</ele>
        <time>2022-07-10T11:06:39Z</time>
      </trkpt>
      <trkpt lat="43.41349" lon="2.27239">
        <ele>781.59979248</ele>
        <time>2022-07-10T11:06:40Z</time>
      </trkpt>
      <trkpt lat="43.41348" lon="2.27246">
        <ele>781.65979004</ele>
        <time>2022-07-10T11:06:41Z</time>
      </trkpt>
      <trkpt lat="43.41347" lon="2.2725">
        <ele>781.65979004</ele>
        <time>2022-07-10T11:06:42Z</time>
      </trkpt>
      <trkpt lat="43.41346" lon="2.27254">
        <ele>781.65979004</ele>
        <time>2022-07-10T11:06:43Z</time>
      </trkpt>
      <trkpt lat="43.41345" lon="2.27259">
        <ele>781.65979004</ele>
        <time>2022-07-10T11:06:44Z</time>
      </trkpt>
      <trkpt lat="43.41342" lon="2.27267">
        <ele>781.6697998</ele>
        <time>2022-07-10T11:06:45Z</time>
      </trkpt>
      <trkpt lat="43.4134" lon="2.27273">
        <ele>781.59979248</ele>
        <time>2022-07-10T11:06:46Z</time>
      </trkpt>
      <trkpt lat="43.41339" lon="2.27278">
        <ele>781.59979248</ele>
        <time>2022-07-10T11:06:47Z</time>
      </trkpt>
      <trkpt lat="43.41338" lon="2.27283">
        <ele>781.59979248</ele>
        <time>2022-07-10T11:06:48Z</time>
      </trkpt>
      <trkpt lat="43.41337" lon="2.27288">
        <ele>781.62982178</ele>
        <time>2022-07-10T11:06:49Z</time>
      </trkpt>
      <trkpt lat="43.41335" lon="2.27296">
        <ele>781.67980957</ele>
        <time>2022-07-10T11:06:50Z</time>
      </trkpt>
      <trkpt lat="43.41333" lon="2.27301">
        <ele>781.64978027</ele>
        <time>2022-07-10T11:06:51Z</time>
      </trkpt>
      <trkpt lat="43.41332" lon="2.27305">
        <ele>781.64978027</ele>
        <time>2022-07-10T11:06:52Z</time>
      </trkpt>
      <trkpt lat="43.41331" lon="2.2731">
        <ele>781.65979004</ele>
        <time>2022-07-10T11:06:53Z</time>
      </trkpt>
      <trkpt lat="43.41328" lon="2.27317">
        <ele>781.6697998</ele>
        <time>2022-07-10T11:06:54Z</time>
      </trkpt>
      <trkpt lat="43.41326" lon="2.27321">
        <ele>781.78979492</ele>
        <time>2022-07-10T11:06:55Z</time>
      </trkpt>
      <trkpt lat="43.41325" lon="2.27325">
        <ele>781.78979492</ele>
        <time>2022-07-10T11:06:56Z</time>
      </trkpt>
      <trkpt lat="43.41323" lon="2.2733">
        <ele>781.81982422</ele>
        <time>2022-07-10T11:06:57Z</time>
      </trkpt>
      <trkpt lat="43.4132" lon="2.27335">
        <ele>781.82983398</ele>
        <time>2022-07-10T11:06:58Z</time>
      </trkpt>
      <trkpt lat="43.4132" lon="2.27341">
        <ele>781.82983398</ele>
        <time>2022-07-10T11:06:59Z</time>
      </trkpt>
      <trkpt lat="43.41318" lon="2.27345">
        <ele>781.81982422</ele>
        <time>2022-07-10T11:07:00Z</time>
      </trkpt>
      <trkpt lat="43.41317" lon="2.27349">
        <ele>782.02984619</ele>
        <time>2022-07-10T11:07:01Z</time>
      </trkpt>
      <trkpt lat="43.41316" lon="2.27353">
        <ele>782.14984131</ele>
        <time>2022-07-10T11:07:02Z</time>
      </trkpt>
      <trkpt lat="43.41316" lon="2.27359">
        <ele>782.14984131</ele>
        <time>2022-07-10T11:07:03Z</time>
      </trkpt>
      <trkpt lat="43.41317" lon="2.27362">
        <ele>782.24981689</ele>
        <time>2022-07-10T11:07:04Z</time>
      </trkpt>
      <trkpt lat="43.41318" lon="2.27366">
        <ele>782.05981445</ele>
        <time>2022-07-10T11:07:05Z</time>
      </trkpt>
      <trkpt lat="43.41316" lon="2.27371">
        <ele>782.05981445</ele>
        <time>2022-07-10T11:07:06Z</time>
      </trkpt>
      <trkpt lat="43.41315" lon="2.27375">
        <ele>781.87982178</ele>
        <time>2022-07-10T11:07:07Z</time>
      </trkpt>
      <trkpt lat="43.41313" lon="2.27382">
        <ele>781.86981201</ele>
        <time>2022-07-10T11:07:08Z</time>
      </trkpt>
      <trkpt lat="43.41313" lon="2.27385">
        <ele>781.86981201</ele>
        <time>2022-07-10T11:07:09Z</time>
      </trkpt>
      <trkpt lat="43.41312" lon="2.27389">
        <ele>781.7197876</ele>
        <time>2022-07-10T11:07:10Z</time>
      </trkpt>
      <trkpt lat="43.41312" lon="2.27394">
        <ele>781.75976562</ele>
        <time>2022-07-10T11:07:11Z</time>
      </trkpt>
      <trkpt lat="43.41312" lon="2.27401">
        <ele>781.75976562</ele>
        <time>2022-07-10T11:07:12Z</time>
      </trkpt>
      <trkpt lat="43.41311" lon="2.27404">
        <ele>782.09979248</ele>
        <time>2022-07-10T11:07:13Z</time>
      </trkpt>
      <trkpt lat="43.41311" lon="2.27408">
        <ele>782.25976562</ele>
        <time>2022-07-10T11:07:14Z</time>
      </trkpt>
      <trkpt lat="43.41311" lon="2.27411">
        <ele>782.34979248</ele>
        <time>2022-07-10T11:07:15Z</time>
      </trkpt>
      <trkpt lat="43.4131" lon="2.27414">
        <ele>782.40979004</ele>
        <time>2022-07-10T11:07:16Z</time>
      </trkpt>
      <trkpt lat="43.41309" lon="2.27418">
        <ele>782.40979004</ele>
        <time>2022-07-10T11:07:17Z</time>
      </trkpt>
      <trkpt lat="43.41309" lon="2.27421">
        <ele>782.45977783</ele>
        <time>2022-07-10T11:07:18Z</time>
      </trkpt>
      <trkpt lat="43.41308" lon="2.27423">
        <ele>782.50976562</ele>
        <time>2022-07-10T11:07:19Z</time>
      </trkpt>
      <trkpt lat="43.41307" lon="2.27426">
        <ele>782.50976562</ele>
        <time>2022-07-10T11:07:20Z</time>
      </trkpt>
      <trkpt lat="43.41306" lon="2.27429">
        <ele>782.64978027</ele>
        <time>2022-07-10T11:07:21Z</time>
      </trkpt>
      <trkpt lat="43.41307" lon="2.27432">
        <ele>782.62976074</ele>
        <time>2022-07-10T11:07:22Z</time>
      </trkpt>
      <trkpt lat="43.41307" lon="2.27435">
        <ele>782.62976074</ele>
        <time>2022-07-10T11:07:23Z</time>
      </trkpt>
      <trkpt lat="43.41307" lon="2.27439">
        <ele>782.45977783</ele>
        <time>2022-07-10T11:07:24Z</time>
      </trkpt>
      <trkpt lat="43.41307" lon="2.27442">
        <ele>782.39978027</ele>
        <time>2022-07-10T11:07:25Z</time>
      </trkpt>
      <trkpt lat="43.41308" lon="2.27445">
        <ele>782.39978027</ele>
        <time>2022-07-10T11:07:26Z</time>
      </trkpt>
      <trkpt lat="43.41309" lon="2.27447">
        <ele>782.38977051</ele>
        <time>2022-07-10T11:07:27Z</time>
      </trkpt>
      <trkpt lat="43.41311" lon="2.2745">
        <ele>782.32977295</ele>
        <time>2022-07-10T11:07:28Z</time>
      </trkpt>
      <trkpt lat="43.41312" lon="2.27453">
        <ele>782.32977295</ele>
        <time>2022-07-10T11:07:29Z</time>
      </trkpt>
      <trkpt lat="43.41313" lon="2.27456">
        <ele>781.97979736</ele>
        <time>2022-07-10T11:07:30Z</time>
      </trkpt>
      <trkpt lat="43.41313" lon="2.27459">
        <ele>781.84979248</ele>
        <time>2022-07-10T11:07:31Z</time>
      </trkpt>
      <trkpt lat="43.41313" lon="2.27462">
        <ele>781.84979248</ele>
        <time>2022-07-10T11:07:32Z</time>
      </trkpt>
      <trkpt lat="43.41314" lon="2.27464">
        <ele>781.7197876</ele>
        <time>2022-07-10T11:07:33Z</time>
      </trkpt>
      <trkpt lat="43.41314" lon="2.27467">
        <ele>781.64978027</ele>
        <time>2022-07-10T11:07:34Z</time>
      </trkpt>
      <trkpt lat="43.41313" lon="2.27472">
        <ele>781.64978027</ele>
        <time>2022-07-10T11:07:35Z</time>
      </trkpt>
      <trkpt lat="43.41312" lon="2.27474">
        <ele>781.27978516</ele>
        <time>2022-07-10T11:07:36Z</time>
      </trkpt>
      <trkpt lat="43.41311" lon="2.27476">
        <ele>781.27978516</ele>
        <time>2022-07-10T11:07:37Z</time>
      </trkpt>
      <trkpt lat="43.4131" lon="2.27477">
        <ele>781.11981201</ele>
        <time>2022-07-10T11:07:38Z</time>
      </trkpt>
      <trkpt lat="43.41308" lon="2.27479">
        <ele>780.89984131</ele>
        <time>2022-07-10T11:07:39Z</time>
      </trkpt>
      <trkpt lat="43.41305" lon="2.2748">
        <ele>780.75982666</ele>
        <time>2022-07-10T11:07:40Z</time>
      </trkpt>
      <trkpt lat="43.41302" lon="2.2748">
        <ele>780.68981934</ele>
        <time>2022-07-10T11:07:41Z</time>
      </trkpt>
      <trkpt lat="43.413" lon="2.2748">
        <ele>780.74981689</ele>
        <time>2022-07-10T11:07:42Z</time>
      </trkpt>
      <trkpt lat="43.41297" lon="2.27479">
        <ele>780.81982422</ele>
        <time>2022-07-10T11:07:43Z</time>
      </trkpt>
      <trkpt lat="43.41293" lon="2.2748">
        <ele>780.95983887</ele>
        <time>2022-07-10T11:07:44Z</time>
      </trkpt>
      <trkpt lat="43.4129" lon="2.27479">
        <ele>780.95983887</ele>
        <time>2022-07-10T11:07:45Z</time>
      </trkpt>
      <trkpt lat="43.41288" lon="2.27478">
        <ele>781.11981201</ele>
        <time>2022-07-10T11:07:46Z</time>
      </trkpt>
      <trkpt lat="43.41285" lon="2.27477">
        <ele>781.35980225</ele>
        <time>2022-07-10T11:07:47Z</time>
      </trkpt>
      <trkpt lat="43.41282" lon="2.27478">
        <ele>781.57977295</ele>
        <time>2022-07-10T11:07:48Z</time>
      </trkpt>
      <trkpt lat="43.41279" lon="2.27477">
        <ele>781.57977295</ele>
        <time>2022-07-10T11:07:49Z</time>
      </trkpt>
      <trkpt lat="43.41277" lon="2.27476">
        <ele>781.72979736</ele>
        <time>2022-07-10T11:07:50Z</time>
      </trkpt>
      <trkpt lat="43.41274" lon="2.27476">
        <ele>782.14978027</ele>
        <time>2022-07-10T11:07:51Z</time>
      </trkpt>
      <trkpt lat="43.41272" lon="2.27475">
        <ele>782.14978027</ele>
        <time>2022-07-10T11:07:52Z</time>
      </trkpt>
      <trkpt lat="43.41268" lon="2.27474">
        <ele>782.51977539</ele>
        <time>2022-07-10T11:07:53Z</time>
      </trkpt>
      <trkpt lat="43.41264" lon="2.27473">
        <ele>782.60980225</ele>
        <time>2022-07-10T11:07:54Z</time>
      </trkpt>
      <trkpt lat="43.41261" lon="2.27474">
        <ele>782.60980225</ele>
        <time>2022-07-10T11:07:55Z</time>
      </trkpt>
      <trkpt lat="43.41259" lon="2.27474">
        <ele>782.55981445</ele>
        <time>2022-07-10T11:07:56Z</time>
      </trkpt>
      <trkpt lat="43.41255" lon="2.27475">
        <ele>782.42980957</ele>
        <time>2022-07-10T11:07:57Z</time>
      </trkpt>
      <trkpt lat="43.41253" lon="2.27475">
        <ele>782.49981689</ele>
        <time>2022-07-10T11:07:58Z</time>
      </trkpt>
      <trkpt lat="43.4125" lon="2.27475">
        <ele>782.49981689</ele>
        <time>2022-07-10T11:07:59Z</time>
      </trkpt>
      <trkpt lat="43.41248" lon="2.27475">
        <ele>782.47979736</ele>
        <time>2022-07-10T11:08:00Z</time>
      </trkpt>
      <trkpt lat="43.41247" lon="2.27475">
        <ele>782.43981934</ele>
        <time>2022-07-10T11:08:01Z</time>
      </trkpt>
      <trkpt lat="43.41243" lon="2.27476">
        <ele>782.1697998</ele>
        <time>2022-07-10T11:08:02Z</time>
      </trkpt>
      <trkpt lat="43.4124" lon="2.27476">
        <ele>782.01977539</ele>
        <time>2022-07-10T11:08:03Z</time>
      </trkpt>
      <trkpt lat="43.41237" lon="2.27476">
        <ele>781.7197876</ele>
        <time>2022-07-10T11:08:04Z</time>
      </trkpt>
      <trkpt lat="43.41235" lon="2.27477">
        <ele>781.39978027</ele>
        <time>2022-07-10T11:08:05Z</time>
      </trkpt>
      <trkpt lat="43.41233" lon="2.27478">
        <ele>781.03979492</ele>
        <time>2022-07-10T11:08:06Z</time>
      </trkpt>
      <trkpt lat="43.4123" lon="2.27479">
        <ele>781.03979492</ele>
        <time>2022-07-10T11:08:07Z</time>
      </trkpt>
      <trkpt lat="43.41228" lon="2.27479">
        <ele>780.18981934</ele>
        <time>2022-07-10T11:08:08Z</time>
      </trkpt>
      <trkpt lat="43.41225" lon="2.27479">
        <ele>779.73980713</ele>
        <time>2022-07-10T11:08:09Z</time>
      </trkpt>
      <trkpt lat="43.41222" lon="2.27481">
        <ele>779.45977783</ele>
        <time>2022-07-10T11:08:10Z</time>
      </trkpt>
      <trkpt lat="43.41218" lon="2.27484">
        <ele>779.1897583</ele>
        <time>2022-07-10T11:08:11Z</time>
      </trkpt>
      <trkpt lat="43.41215" lon="2.27487">
        <ele>778.9697876</ele>
        <time>2022-07-10T11:08:12Z</time>
      </trkpt>
      <trkpt lat="43.41212" lon="2.27491">
        <ele>778.7197876</ele>
        <time>2022-07-10T11:08:13Z</time>
      </trkpt>
      <trkpt lat="43.41207" lon="2.27494">
        <ele>778.36981201</ele>
        <time>2022-07-10T11:08:14Z</time>
      </trkpt>
      <trkpt lat="43.41202" lon="2.27499">
        <ele>778.36981201</ele>
        <time>2022-07-10T11:08:15Z</time>
      </trkpt>
      <trkpt lat="43.41199" lon="2.27502">
        <ele>778.02978516</ele>
        <time>2022-07-10T11:08:16Z</time>
      </trkpt>
      <trkpt lat="43.41196" lon="2.27506">
        <ele>777.60980225</ele>
        <time>2022-07-10T11:08:17Z</time>
      </trkpt>
      <trkpt lat="43.41193" lon="2.27512">
        <ele>777.24981689</ele>
        <time>2022-07-10T11:08:18Z</time>
      </trkpt>
      <trkpt lat="43.4119" lon="2.27517">
        <ele>776.74981689</ele>
        <time>2022-07-10T11:08:19Z</time>
      </trkpt>
      <trkpt lat="43.41185" lon="2.27524">
        <ele>775.59979248</ele>
        <time>2022-07-10T11:08:20Z</time>
      </trkpt>
      <trkpt lat="43.41184" lon="2.27528">
        <ele>775.08978271</ele>
        <time>2022-07-10T11:08:21Z</time>
      </trkpt>
      <trkpt lat="43.4118" lon="2.27532">
        <ele>775.08978271</ele>
        <time>2022-07-10T11:08:22Z</time>
      </trkpt>
      <trkpt lat="43.41177" lon="2.27537">
        <ele>774.4697876</ele>
        <time>2022-07-10T11:08:23Z</time>
      </trkpt>
      <trkpt lat="43.4117" lon="2.27545">
        <ele>774.42980957</ele>
        <time>2022-07-10T11:08:24Z</time>
      </trkpt>
      <trkpt lat="43.41166" lon="2.27552">
        <ele>774.42980957</ele>
        <time>2022-07-10T11:08:25Z</time>
      </trkpt>
      <trkpt lat="43.41162" lon="2.27559">
        <ele>774.17980957</ele>
        <time>2022-07-10T11:08:26Z</time>
      </trkpt>
      <trkpt lat="43.41156" lon="2.27565">
        <ele>774.17980957</ele>
        <time>2022-07-10T11:08:27Z</time>
      </trkpt>
      <trkpt lat="43.41152" lon="2.2757">
        <ele>773.87982178</ele>
        <time>2022-07-10T11:08:28Z</time>
      </trkpt>
      <trkpt lat="43.41146" lon="2.27575">
        <ele>773.92980957</ele>
        <time>2022-07-10T11:08:29Z</time>
      </trkpt>
      <trkpt lat="43.41143" lon="2.27578">
        <ele>773.92980957</ele>
        <time>2022-07-10T11:08:30Z</time>
      </trkpt>
      <trkpt lat="43.4114" lon="2.27581">
        <ele>774.18981934</ele>
        <time>2022-07-10T11:08:31Z</time>
      </trkpt>
      <trkpt lat="43.41136" lon="2.27583">
        <ele>774.35980225</ele>
        <time>2022-07-10T11:08:32Z</time>
      </trkpt>
      <trkpt lat="43.41131" lon="2.27588">
        <ele>774.39978027</ele>
        <time>2022-07-10T11:08:33Z</time>
      </trkpt>
      <trkpt lat="43.4113" lon="2.2759">
        <ele>774.39978027</ele>
        <time>2022-07-10T11:08:34Z</time>
      </trkpt>
      <trkpt lat="43.41127" lon="2.27593">
        <ele>774.44976807</ele>
        <time>2022-07-10T11:08:35Z</time>
      </trkpt>
      <trkpt lat="43.41124" lon="2.27595">
        <ele>774.54974365</ele>
        <time>2022-07-10T11:08:36Z</time>
      </trkpt>
      <trkpt lat="43.4112" lon="2.27599">
        <ele>774.64971924</ele>
        <time>2022-07-10T11:08:37Z</time>
      </trkpt>
      <trkpt lat="43.41115" lon="2.27606">
        <ele>774.80969238</ele>
        <time>2022-07-10T11:08:38Z</time>
      </trkpt>
      <trkpt lat="43.41111" lon="2.2761">
        <ele>774.97967529</ele>
        <time>2022-07-10T11:08:39Z</time>
      </trkpt>
      <trkpt lat="43.41109" lon="2.27613">
        <ele>775.10968018</ele>
        <time>2022-07-10T11:08:40Z</time>
      </trkpt>
      <trkpt lat="43.41106" lon="2.27617">
        <ele>775.21966553</ele>
        <time>2022-07-10T11:08:41Z</time>
      </trkpt>
      <trkpt lat="43.41103" lon="2.27621">
        <ele>775.21966553</ele>
        <time>2022-07-10T11:08:42Z</time>
      </trkpt>
      <trkpt lat="43.411" lon="2.27625">
        <ele>775.63964844</ele>
        <time>2022-07-10T11:08:43Z</time>
      </trkpt>
      <trkpt lat="43.41099" lon="2.27628">
        <ele>775.82965088</ele>
        <time>2022-07-10T11:08:44Z</time>
      </trkpt>
      <trkpt lat="43.41098" lon="2.27631">
        <ele>775.82965088</ele>
        <time>2022-07-10T11:08:45Z</time>
      </trkpt>
      <trkpt lat="43.41097" lon="2.27634">
        <ele>776.31964111</ele>
        <time>2022-07-10T11:08:46Z</time>
      </trkpt>
      <trkpt lat="43.41098" lon="2.27638">
        <ele>776.4196167</ele>
        <time>2022-07-10T11:08:47Z</time>
      </trkpt>
      <trkpt lat="43.41097" lon="2.27642">
        <ele>776.59960938</ele>
        <time>2022-07-10T11:08:48Z</time>
      </trkpt>
      <trkpt lat="43.41096" lon="2.27644">
        <ele>776.72961426</ele>
        <time>2022-07-10T11:08:49Z</time>
      </trkpt>
      <trkpt lat="43.41097" lon="2.27648">
        <ele>776.98962402</ele>
        <time>2022-07-10T11:08:50Z</time>
      </trkpt>
      <trkpt lat="43.41096" lon="2.27652">
        <ele>777.21960449</ele>
        <time>2022-07-10T11:08:51Z</time>
      </trkpt>
      <trkpt lat="43.41094" lon="2.27654">
        <ele>777.40960693</ele>
        <time>2022-07-10T11:08:52Z</time>
      </trkpt>
      <trkpt lat="43.41092" lon="2.27657">
        <ele>777.53961182</ele>
        <time>2022-07-10T11:08:53Z</time>
      </trkpt>
      <trkpt lat="43.41092" lon="2.2766">
        <ele>777.74963379</ele>
        <time>2022-07-10T11:08:54Z</time>
      </trkpt>
      <trkpt lat="43.4109" lon="2.27663">
        <ele>777.74963379</ele>
        <time>2022-07-10T11:08:55Z</time>
      </trkpt>
      <trkpt lat="43.41089" lon="2.27668">
        <ele>778.29962158</ele>
        <time>2022-07-10T11:08:56Z</time>
      </trkpt>
      <trkpt lat="43.41087" lon="2.27671">
        <ele>778.6696167</ele>
        <time>2022-07-10T11:08:57Z</time>
      </trkpt>
      <trkpt lat="43.41084" lon="2.27673">
        <ele>778.93963623</ele>
        <time>2022-07-10T11:08:58Z</time>
      </trkpt>
      <trkpt lat="43.41082" lon="2.27676">
        <ele>779.36962891</ele>
        <time>2022-07-10T11:08:59Z</time>
      </trkpt>
      <trkpt lat="43.41081" lon="2.27679">
        <ele>779.65960693</ele>
        <time>2022-07-10T11:09:00Z</time>
      </trkpt>
      <trkpt lat="43.41077" lon="2.27683">
        <ele>779.65960693</ele>
        <time>2022-07-10T11:09:01Z</time>
      </trkpt>
      <trkpt lat="43.41075" lon="2.27686">
        <ele>780.45959473</ele>
        <time>2022-07-10T11:09:02Z</time>
      </trkpt>
      <trkpt lat="43.41074" lon="2.2769">
        <ele>780.72961426</ele>
        <time>2022-07-10T11:09:03Z</time>
      </trkpt>
      <trkpt lat="43.41072" lon="2.27692">
        <ele>780.72961426</ele>
        <time>2022-07-10T11:09:04Z</time>
      </trkpt>
      <trkpt lat="43.41071" lon="2.27696">
        <ele>781.68963623</ele>
        <time>2022-07-10T11:09:05Z</time>
      </trkpt>
      <trkpt lat="43.41072" lon="2.277">
        <ele>782.10961914</ele>
        <time>2022-07-10T11:09:06Z</time>
      </trkpt>
      <trkpt lat="43.41071" lon="2.27703">
        <ele>782.10961914</ele>
        <time>2022-07-10T11:09:07Z</time>
      </trkpt>
      <trkpt lat="43.4107" lon="2.27705">
        <ele>782.47961426</ele>
        <time>2022-07-10T11:09:08Z</time>
      </trkpt>
      <trkpt lat="43.4107" lon="2.27707">
        <ele>782.82958984</ele>
        <time>2022-07-10T11:09:09Z</time>
      </trkpt>
      <trkpt lat="43.41069" lon="2.27709">
        <ele>783.07958984</ele>
        <time>2022-07-10T11:09:10Z</time>
      </trkpt>
      <trkpt lat="43.41068" lon="2.27712">
        <ele>783.07958984</ele>
        <time>2022-07-10T11:09:11Z</time>
      </trkpt>
      <trkpt lat="43.41066" lon="2.27715">
        <ele>783.26959229</ele>
        <time>2022-07-10T11:09:12Z</time>
      </trkpt>
      <trkpt lat="43.41064" lon="2.27717">
        <ele>783.82958984</ele>
        <time>2022-07-10T11:09:13Z</time>
      </trkpt>
      <trkpt lat="43.4106" lon="2.27721">
        <ele>783.98956299</ele>
        <time>2022-07-10T11:09:14Z</time>
      </trkpt>
      <trkpt lat="43.4106" lon="2.27723">
        <ele>784.21954346</ele>
        <time>2022-07-10T11:09:15Z</time>
      </trkpt>
      <trkpt lat="43.41058" lon="2.27725">
        <ele>784.47955322</ele>
        <time>2022-07-10T11:09:16Z</time>
      </trkpt>
      <trkpt lat="43.41056" lon="2.27726">
        <ele>784.53955078</ele>
        <time>2022-07-10T11:09:17Z</time>
      </trkpt>
      <trkpt lat="43.41053" lon="2.2773">
        <ele>784.75952148</ele>
        <time>2022-07-10T11:09:18Z</time>
      </trkpt>
      <trkpt lat="43.41051" lon="2.27732">
        <ele>784.93951416</ele>
        <time>2022-07-10T11:09:19Z</time>
      </trkpt>
      <trkpt lat="43.41049" lon="2.27734">
        <ele>785.0994873</ele>
        <time>2022-07-10T11:09:20Z</time>
      </trkpt>
      <trkpt lat="43.41047" lon="2.27736">
        <ele>785.0994873</ele>
        <time>2022-07-10T11:09:21Z</time>
      </trkpt>
      <trkpt lat="43.41045" lon="2.27738">
        <ele>785.5994873</ele>
        <time>2022-07-10T11:09:22Z</time>
      </trkpt>
      <trkpt lat="43.41042" lon="2.2774">
        <ele>785.5994873</ele>
        <time>2022-07-10T11:09:23Z</time>
      </trkpt>
      <trkpt lat="43.4104" lon="2.27741">
        <ele>785.94946289</ele>
        <time>2022-07-10T11:09:24Z</time>
      </trkpt>
      <trkpt lat="43.41038" lon="2.27743">
        <ele>785.94946289</ele>
        <time>2022-07-10T11:09:25Z</time>
      </trkpt>
      <trkpt lat="43.41036" lon="2.27743">
        <ele>786.15948486</ele>
        <time>2022-07-10T11:09:26Z</time>
      </trkpt>
      <trkpt lat="43.41033" lon="2.27745">
        <ele>786.61950684</ele>
        <time>2022-07-10T11:09:27Z</time>
      </trkpt>
      <trkpt lat="43.41031" lon="2.27746">
        <ele>786.86950684</ele>
        <time>2022-07-10T11:09:28Z</time>
      </trkpt>
      <trkpt lat="43.4103" lon="2.27747">
        <ele>786.86950684</ele>
        <time>2022-07-10T11:09:29Z</time>
      </trkpt>
      <trkpt lat="43.41028" lon="2.27748">
        <ele>787.39953613</ele>
        <time>2022-07-10T11:09:30Z</time>
      </trkpt>
      <trkpt lat="43.41026" lon="2.27748">
        <ele>787.39953613</ele>
        <time>2022-07-10T11:09:31Z</time>
      </trkpt>
      <trkpt lat="43.41023" lon="2.2775">
        <ele>787.84954834</ele>
        <time>2022-07-10T11:09:32Z</time>
      </trkpt>
      <trkpt lat="43.4102" lon="2.27751">
        <ele>788.07952881</ele>
        <time>2022-07-10T11:09:33Z</time>
      </trkpt>
      <trkpt lat="43.41017" lon="2.27752">
        <ele>788.28955078</ele>
        <time>2022-07-10T11:09:34Z</time>
      </trkpt>
      <trkpt lat="43.41015" lon="2.27753">
        <ele>788.28955078</ele>
        <time>2022-07-10T11:09:35Z</time>
      </trkpt>
      <trkpt lat="43.41013" lon="2.27756">
        <ele>788.92956543</ele>
        <time>2022-07-10T11:09:36Z</time>
      </trkpt>
      <trkpt lat="43.41011" lon="2.27758">
        <ele>788.92956543</ele>
        <time>2022-07-10T11:09:37Z</time>
      </trkpt>
      <trkpt lat="43.41009" lon="2.27759">
        <ele>789.50958252</ele>
        <time>2022-07-10T11:09:38Z</time>
      </trkpt>
      <trkpt lat="43.41008" lon="2.27761">
        <ele>789.76959229</ele>
        <time>2022-07-10T11:09:39Z</time>
      </trkpt>
      <trkpt lat="43.41007" lon="2.27763">
        <ele>789.76959229</ele>
        <time>2022-07-10T11:09:40Z</time>
      </trkpt>
      <trkpt lat="43.41005" lon="2.27765">
        <ele>790.23956299</ele>
        <time>2022-07-10T11:09:41Z</time>
      </trkpt>
      <trkpt lat="43.41003" lon="2.27766">
        <ele>790.23956299</ele>
        <time>2022-07-10T11:09:42Z</time>
      </trkpt>
      <trkpt lat="43.41002" lon="2.27768">
        <ele>790.71954346</ele>
        <time>2022-07-10T11:09:43Z</time>
      </trkpt>
      <trkpt lat="43.41001" lon="2.2777">
        <ele>790.96954346</ele>
        <time>2022-07-10T11:09:44Z</time>
      </trkpt>
      <trkpt lat="43.41001" lon="2.27771">
        <ele>790.96954346</ele>
        <time>2022-07-10T11:09:45Z</time>
      </trkpt>
      <trkpt lat="43.40998" lon="2.27773">
        <ele>791.38952637</ele>
        <time>2022-07-10T11:09:46Z</time>
      </trkpt>
      <trkpt lat="43.40995" lon="2.27775">
        <ele>791.59954834</ele>
        <time>2022-07-10T11:09:47Z</time>
      </trkpt>
      <trkpt lat="43.40992" lon="2.27777">
        <ele>791.59954834</ele>
        <time>2022-07-10T11:09:48Z</time>
      </trkpt>
      <trkpt lat="43.40991" lon="2.27778">
        <ele>791.9095459</ele>
        <time>2022-07-10T11:09:49Z</time>
      </trkpt>
      <trkpt lat="43.40987" lon="2.27781">
        <ele>791.9095459</ele>
        <time>2022-07-10T11:09:50Z</time>
      </trkpt>
      <trkpt lat="43.40986" lon="2.27783">
        <ele>792.26953125</ele>
        <time>2022-07-10T11:09:51Z</time>
      </trkpt>
      <trkpt lat="43.40985" lon="2.27783">
        <ele>792.49951172</ele>
        <time>2022-07-10T11:09:52Z</time>
      </trkpt>
      <trkpt lat="43.40984" lon="2.27785">
        <ele>792.49951172</ele>
        <time>2022-07-10T11:09:53Z</time>
      </trkpt>
      <trkpt lat="43.40981" lon="2.27786">
        <ele>792.6295166</ele>
        <time>2022-07-10T11:09:54Z</time>
      </trkpt>
      <trkpt lat="43.4098" lon="2.27786">
        <ele>793.0994873</ele>
        <time>2022-07-10T11:09:55Z</time>
      </trkpt>
      <trkpt lat="43.40979" lon="2.27787">
        <ele>793.0994873</ele>
        <time>2022-07-10T11:09:56Z</time>
      </trkpt>
      <trkpt lat="43.40978" lon="2.27788">
        <ele>793.32946777</ele>
        <time>2022-07-10T11:09:57Z</time>
      </trkpt>
      <trkpt lat="43.40977" lon="2.27789">
        <ele>793.95947266</ele>
        <time>2022-07-10T11:09:58Z</time>
      </trkpt>
      <trkpt lat="43.40973" lon="2.27792">
        <ele>794.17944336</ele>
        <time>2022-07-10T11:09:59Z</time>
      </trkpt>
      <trkpt lat="43.40971" lon="2.27794">
        <ele>794.17944336</ele>
        <time>2022-07-10T11:10:00Z</time>
      </trkpt>
      <trkpt lat="43.4097" lon="2.27796">
        <ele>794.69946289</ele>
        <time>2022-07-10T11:10:01Z</time>
      </trkpt>
      <trkpt lat="43.40968" lon="2.27798">
        <ele>793.98944092</ele>
        <time>2022-07-10T11:10:02Z</time>
      </trkpt>
      <trkpt lat="43.40968" lon="2.278">
        <ele>794.3394165</ele>
        <time>2022-07-10T11:10:03Z</time>
      </trkpt>
      <trkpt lat="43.40967" lon="2.27802">
        <ele>794.47943115</ele>
        <time>2022-07-10T11:10:04Z</time>
      </trkpt>
      <trkpt lat="43.40967" lon="2.27803">
        <ele>794.47943115</ele>
        <time>2022-07-10T11:10:05Z</time>
      </trkpt>
      <trkpt lat="43.40965" lon="2.27804">
        <ele>794.90942383</ele>
        <time>2022-07-10T11:10:06Z</time>
      </trkpt>
      <trkpt lat="43.40964" lon="2.27805">
        <ele>795.0894165</ele>
        <time>2022-07-10T11:10:07Z</time>
      </trkpt>
      <trkpt lat="43.40962" lon="2.27806">
        <ele>795.0894165</ele>
        <time>2022-07-10T11:10:08Z</time>
      </trkpt>
      <trkpt lat="43.4096" lon="2.27808">
        <ele>795.5894165</ele>
        <time>2022-07-10T11:10:09Z</time>
      </trkpt>
      <trkpt lat="43.4096" lon="2.2781">
        <ele>795.76940918</ele>
        <time>2022-07-10T11:10:10Z</time>
      </trkpt>
      <trkpt lat="43.40958" lon="2.27811">
        <ele>796.00939941</ele>
        <time>2022-07-10T11:10:11Z</time>
      </trkpt>
      <trkpt lat="43.40956" lon="2.27813">
        <ele>796.00939941</ele>
        <time>2022-07-10T11:10:12Z</time>
      </trkpt>
      <trkpt lat="43.40954" lon="2.27814">
        <ele>796.26940918</ele>
        <time>2022-07-10T11:10:13Z</time>
      </trkpt>
      <trkpt lat="43.40953" lon="2.27814">
        <ele>796.44940186</ele>
        <time>2022-07-10T11:10:14Z</time>
      </trkpt>
      <trkpt lat="43.40951" lon="2.27815">
        <ele>796.87939453</ele>
        <time>2022-07-10T11:10:15Z</time>
      </trkpt>
      <trkpt lat="43.4095" lon="2.27815">
        <ele>796.98937988</ele>
        <time>2022-07-10T11:10:16Z</time>
      </trkpt>
      <trkpt lat="43.40948" lon="2.27816">
        <ele>797.1394043</ele>
        <time>2022-07-10T11:10:17Z</time>
      </trkpt>
      <trkpt lat="43.40946" lon="2.27816">
        <ele>797.29937744</ele>
        <time>2022-07-10T11:10:18Z</time>
      </trkpt>
      <trkpt lat="43.40945" lon="2.27817">
        <ele>797.48937988</ele>
        <time>2022-07-10T11:10:19Z</time>
      </trkpt>
      <trkpt lat="43.40943" lon="2.27818">
        <ele>797.68939209</ele>
        <time>2022-07-10T11:10:20Z</time>
      </trkpt>
      <trkpt lat="43.40942" lon="2.27818">
        <ele>797.87939453</ele>
        <time>2022-07-10T11:10:21Z</time>
      </trkpt>
      <trkpt lat="43.40942" lon="2.27817">
        <ele>798.05938721</ele>
        <time>2022-07-10T11:10:22Z</time>
      </trkpt>
      <trkpt lat="43.40942" lon="2.27815">
        <ele>798.22937012</ele>
        <time>2022-07-10T11:10:23Z</time>
      </trkpt>
      <trkpt lat="43.40943" lon="2.27813">
        <ele>798.50939941</ele>
        <time>2022-07-10T11:10:24Z</time>
      </trkpt>
      <trkpt lat="43.40943" lon="2.27812">
        <ele>798.79937744</ele>
        <time>2022-07-10T11:10:25Z</time>
      </trkpt>
      <trkpt lat="43.40941" lon="2.27809">
        <ele>798.79937744</ele>
        <time>2022-07-10T11:10:26Z</time>
      </trkpt>
      <trkpt lat="43.40941" lon="2.27807">
        <ele>799.61938477</ele>
        <time>2022-07-10T11:10:27Z</time>
      </trkpt>
      <trkpt lat="43.4094" lon="2.27805">
        <ele>799.61938477</ele>
        <time>2022-07-10T11:10:28Z</time>
      </trkpt>
      <trkpt lat="43.4094" lon="2.27804">
        <ele>799.93939209</ele>
        <time>2022-07-10T11:10:29Z</time>
      </trkpt>
      <trkpt lat="43.40939" lon="2.27802">
        <ele>800.47937012</ele>
        <time>2022-07-10T11:10:30Z</time>
      </trkpt>
      <trkpt lat="43.40938" lon="2.278">
        <ele>800.47937012</ele>
        <time>2022-07-10T11:10:31Z</time>
      </trkpt>
      <trkpt lat="43.40938" lon="2.27799">
        <ele>801.16937256</ele>
        <time>2022-07-10T11:10:32Z</time>
      </trkpt>
      <trkpt lat="43.40938" lon="2.27798">
        <ele>801.48937988</ele>
        <time>2022-07-10T11:10:33Z</time>
      </trkpt>
      <trkpt lat="43.40938" lon="2.27796">
        <ele>801.48937988</ele>
        <time>2022-07-10T11:10:34Z</time>
      </trkpt>
      <trkpt lat="43.40937" lon="2.27794">
        <ele>801.95935059</ele>
        <time>2022-07-10T11:10:35Z</time>
      </trkpt>
      <trkpt lat="43.40935" lon="2.27792">
        <ele>802.1293335</ele>
        <time>2022-07-10T11:10:36Z</time>
      </trkpt>
      <trkpt lat="43.40933" lon="2.27789">
        <ele>802.25933838</ele>
        <time>2022-07-10T11:10:37Z</time>
      </trkpt>
      <trkpt lat="43.40932" lon="2.27788">
        <ele>802.41931152</ele>
        <time>2022-07-10T11:10:38Z</time>
      </trkpt>
      <trkpt lat="43.4093" lon="2.27785">
        <ele>802.55932617</ele>
        <time>2022-07-10T11:10:39Z</time>
      </trkpt>
      <trkpt lat="43.40929" lon="2.27784">
        <ele>802.55932617</ele>
        <time>2022-07-10T11:10:40Z</time>
      </trkpt>
      <trkpt lat="43.40927" lon="2.27783">
        <ele>802.75933838</ele>
        <time>2022-07-10T11:10:41Z</time>
      </trkpt>
      <trkpt lat="43.40925" lon="2.27781">
        <ele>802.78936768</ele>
        <time>2022-07-10T11:10:42Z</time>
      </trkpt>
      <trkpt lat="43.40924" lon="2.27779">
        <ele>802.78936768</ele>
        <time>2022-07-10T11:10:43Z</time>
      </trkpt>
      <trkpt lat="43.40923" lon="2.27778">
        <ele>802.81939697</ele>
        <time>2022-07-10T11:10:44Z</time>
      </trkpt>
      <trkpt lat="43.40922" lon="2.27777">
        <ele>802.8894043</ele>
        <time>2022-07-10T11:10:45Z</time>
      </trkpt>
      <trkpt lat="43.40922" lon="2.27776">
        <ele>802.8894043</ele>
        <time>2022-07-10T11:10:46Z</time>
      </trkpt>
      <trkpt lat="43.40921" lon="2.27774">
        <ele>802.77941895</ele>
        <time>2022-07-10T11:10:47Z</time>
      </trkpt>
      <trkpt lat="43.40919" lon="2.27771">
        <ele>802.65942383</ele>
        <time>2022-07-10T11:10:48Z</time>
      </trkpt>
      <trkpt lat="43.40918" lon="2.27769">
        <ele>802.50939941</ele>
        <time>2022-07-10T11:10:49Z</time>
      </trkpt>
      <trkpt lat="43.40916" lon="2.27768">
        <ele>802.51940918</ele>
        <time>2022-07-10T11:10:50Z</time>
      </trkpt>
      <trkpt lat="43.40914" lon="2.27765">
        <ele>802.51940918</ele>
        <time>2022-07-10T11:10:51Z</time>
      </trkpt>
      <trkpt lat="43.40912" lon="2.27763">
        <ele>802.36938477</ele>
        <time>2022-07-10T11:10:52Z</time>
      </trkpt>
      <trkpt lat="43.40907" lon="2.27761">
        <ele>802.33935547</ele>
        <time>2022-07-10T11:10:53Z</time>
      </trkpt>
      <trkpt lat="43.40904" lon="2.2776">
        <ele>802.27935791</ele>
        <time>2022-07-10T11:10:54Z</time>
      </trkpt>
      <trkpt lat="43.40902" lon="2.27758">
        <ele>802.27935791</ele>
        <time>2022-07-10T11:10:55Z</time>
      </trkpt>
      <trkpt lat="43.409" lon="2.27757">
        <ele>802.23937988</ele>
        <time>2022-07-10T11:10:56Z</time>
      </trkpt>
      <trkpt lat="43.40897" lon="2.27755">
        <ele>802.109375</ele>
        <time>2022-07-10T11:10:57Z</time>
      </trkpt>
      <trkpt lat="43.40894" lon="2.27753">
        <ele>801.93939209</ele>
        <time>2022-07-10T11:10:58Z</time>
      </trkpt>
      <trkpt lat="43.40891" lon="2.27752">
        <ele>801.86938477</ele>
        <time>2022-07-10T11:10:59Z</time>
      </trkpt>
      <trkpt lat="43.40889" lon="2.2775">
        <ele>801.76940918</ele>
        <time>2022-07-10T11:11:00Z</time>
      </trkpt>
      <trkpt lat="43.40887" lon="2.27748">
        <ele>801.76940918</ele>
        <time>2022-07-10T11:11:01Z</time>
      </trkpt>
      <trkpt lat="43.40883" lon="2.27744">
        <ele>801.60943604</ele>
        <time>2022-07-10T11:11:02Z</time>
      </trkpt>
      <trkpt lat="43.4088" lon="2.27742">
        <ele>801.32940674</ele>
        <time>2022-07-10T11:11:03Z</time>
      </trkpt>
      <trkpt lat="43.40876" lon="2.27741">
        <ele>801.32940674</ele>
        <time>2022-07-10T11:11:04Z</time>
      </trkpt>
      <trkpt lat="43.40874" lon="2.27739">
        <ele>801.10943604</ele>
        <time>2022-07-10T11:11:05Z</time>
      </trkpt>
      <trkpt lat="43.40869" lon="2.27736">
        <ele>801.01940918</ele>
        <time>2022-07-10T11:11:06Z</time>
      </trkpt>
      <trkpt lat="43.40867" lon="2.27733">
        <ele>801.01940918</ele>
        <time>2022-07-10T11:11:07Z</time>
      </trkpt>
      <trkpt lat="43.40865" lon="2.27731">
        <ele>801.01940918</ele>
        <time>2022-07-10T11:11:08Z</time>
      </trkpt>
      <trkpt lat="43.40861" lon="2.2773">
        <ele>801.01940918</ele>
        <time>2022-07-10T11:11:09Z</time>
      </trkpt>
      <trkpt lat="43.4086" lon="2.27728">
        <ele>800.84942627</ele>
        <time>2022-07-10T11:11:10Z</time>
      </trkpt>
      <trkpt lat="43.40856" lon="2.27726">
        <ele>800.72943115</ele>
        <time>2022-07-10T11:11:11Z</time>
      </trkpt>
      <trkpt lat="43.40853" lon="2.27723">
        <ele>800.72943115</ele>
        <time>2022-07-10T11:11:12Z</time>
      </trkpt>
      <trkpt lat="43.4085" lon="2.27721">
        <ele>800.72943115</ele>
        <time>2022-07-10T11:11:13Z</time>
      </trkpt>
      <trkpt lat="43.40845" lon="2.27719">
        <ele>800.72943115</ele>
        <time>2022-07-10T11:11:14Z</time>
      </trkpt>
      <trkpt lat="43.40841" lon="2.27717">
        <ele>800.8694458</ele>
        <time>2022-07-10T11:11:15Z</time>
      </trkpt>
      <trkpt lat="43.40837" lon="2.27716">
        <ele>800.98944092</ele>
        <time>2022-07-10T11:11:16Z</time>
      </trkpt>
      <trkpt lat="43.40834" lon="2.27714">
        <ele>800.93945312</ele>
        <time>2022-07-10T11:11:17Z</time>
      </trkpt>
      <trkpt lat="43.40832" lon="2.27711">
        <ele>800.93945312</ele>
        <time>2022-07-10T11:11:18Z</time>
      </trkpt>
      <trkpt lat="43.40828" lon="2.27708">
        <ele>800.80944824</ele>
        <time>2022-07-10T11:11:19Z</time>
      </trkpt>
      <trkpt lat="43.40825" lon="2.27706">
        <ele>800.59942627</ele>
        <time>2022-07-10T11:11:20Z</time>
      </trkpt>
      <trkpt lat="43.40823" lon="2.27704">
        <ele>800.37945557</ele>
        <time>2022-07-10T11:11:21Z</time>
      </trkpt>
      <trkpt lat="43.40821" lon="2.27701">
        <ele>799.77947998</ele>
        <time>2022-07-10T11:11:22Z</time>
      </trkpt>
      <trkpt lat="43.40818" lon="2.27699">
        <ele>799.43945312</ele>
        <time>2022-07-10T11:11:23Z</time>
      </trkpt>
      <trkpt lat="43.40813" lon="2.27698">
        <ele>798.94946289</ele>
        <time>2022-07-10T11:11:24Z</time>
      </trkpt>
      <trkpt lat="43.40809" lon="2.27695">
        <ele>798.27947998</ele>
        <time>2022-07-10T11:11:25Z</time>
      </trkpt>
      <trkpt lat="43.40805" lon="2.27692">
        <ele>798.27947998</ele>
        <time>2022-07-10T11:11:26Z</time>
      </trkpt>
      <trkpt lat="43.40801" lon="2.2769">
        <ele>797.26947021</ele>
        <time>2022-07-10T11:11:27Z</time>
      </trkpt>
      <trkpt lat="43.40798" lon="2.27688">
        <ele>797.26947021</ele>
        <time>2022-07-10T11:11:28Z</time>
      </trkpt>
      <trkpt lat="43.40794" lon="2.27688">
        <ele>797.05944824</ele>
        <time>2022-07-10T11:11:29Z</time>
      </trkpt>
      <trkpt lat="43.40791" lon="2.27688">
        <ele>796.94946289</ele>
        <time>2022-07-10T11:11:30Z</time>
      </trkpt>
      <trkpt lat="43.40788" lon="2.27687">
        <ele>796.43945312</ele>
        <time>2022-07-10T11:11:31Z</time>
      </trkpt>
      <trkpt lat="43.40784" lon="2.27684">
        <ele>795.96948242</ele>
        <time>2022-07-10T11:11:32Z</time>
      </trkpt>
      <trkpt lat="43.40781" lon="2.27681">
        <ele>795.60949707</ele>
        <time>2022-07-10T11:11:33Z</time>
      </trkpt>
      <trkpt lat="43.40775" lon="2.2768">
        <ele>795.26947021</ele>
        <time>2022-07-10T11:11:34Z</time>
      </trkpt>
      <trkpt lat="43.40771" lon="2.27679">
        <ele>795.26947021</ele>
        <time>2022-07-10T11:11:35Z</time>
      </trkpt>
      <trkpt lat="43.40768" lon="2.27679">
        <ele>794.92944336</ele>
        <time>2022-07-10T11:11:36Z</time>
      </trkpt>
      <trkpt lat="43.40765" lon="2.27679">
        <ele>794.70947266</ele>
        <time>2022-07-10T11:11:37Z</time>
      </trkpt>
      <trkpt lat="43.40761" lon="2.2768">
        <ele>794.54949951</ele>
        <time>2022-07-10T11:11:38Z</time>
      </trkpt>
      <trkpt lat="43.40759" lon="2.27681">
        <ele>794.35949707</ele>
        <time>2022-07-10T11:11:39Z</time>
      </trkpt>
      <trkpt lat="43.40759" lon="2.27686">
        <ele>794.0994873</ele>
        <time>2022-07-10T11:11:41Z</time>
      </trkpt>
      <trkpt lat="43.40744" lon="2.27676">
        <ele>788.1</ele>
      </trkpt>
      <trkpt lat="43.40738" lon="2.27671">
        <ele>788.5</ele>
      </trkpt>
      <trkpt lat="43.40725" lon="2.27675">
        <ele>787.2</ele>
      </trkpt>
      <trkpt lat="43.4067" lon="2.27683">
        <ele>786.5</ele>
      </trkpt>
      <trkpt lat="43.40638" lon="2.27649">
        <ele>786.6</ele>
      </trkpt>
      <trkpt lat="43.40586" lon="2.27638">
        <ele>785.1</ele>
      </trkpt>
      <trkpt lat="43.40539" lon="2.27596">
        <ele>777.8</ele>
      </trkpt>
      <trkpt lat="43.40504" lon="2.27585">
        <ele>770.8</ele>
      </trkpt>
      <trkpt lat="43.40479" lon="2.27564">
        <ele>765.4</ele>
      </trkpt>
      <trkpt lat="43.40462" lon="2.27555">
        <ele>762.5</ele>
      </trkpt>
      <trkpt lat="43.40457" lon="2.27538">
        <ele>760.9</ele>
      </trkpt>
      <trkpt lat="43.40458" lon="2.275">
        <ele>759</ele>
      </trkpt>
      <trkpt lat="43.40455" lon="2.27454">
        <ele>758.2</ele>
      </trkpt>
      <trkpt lat="43.40451" lon="2.27445">
        <ele>758.7</ele>
      </trkpt>
      <trkpt lat="43.40442" lon="2.2744">
        <ele>759.5</ele>
      </trkpt>
      <trkpt lat="43.40418" lon="2.27444">
        <ele>760</ele>
      </trkpt>
      <trkpt lat="43.40393" lon="2.27481">
        <ele>759.8</ele>
      </trkpt>
      <trkpt lat="43.40348" lon="2.27563">
        <ele>762.2</ele>
      </trkpt>
      <trkpt lat="43.40297" lon="2.27636">
        <ele>764.9</ele>
      </trkpt>
      <trkpt lat="43.40255" lon="2.27678">
        <ele>766.2</ele>
      </trkpt>
      <trkpt lat="43.40202" lon="2.27663">
        <ele>756.2</ele>
      </trkpt>
      <trkpt lat="43.40173" lon="2.27646">
        <ele>748.5</ele>
      </trkpt>
      <trkpt lat="43.40149" lon="2.27635">
        <ele>742.5</ele>
      </trkpt>
      <trkpt lat="43.40128" lon="2.27622">
        <ele>742.3</ele>
      </trkpt>
      <trkpt lat="43.40106" lon="2.27631">
        <ele>748.4</ele>
      </trkpt>
      <trkpt lat="43.40094" lon="2.2762">
        <ele>747.4</ele>
      </trkpt>
      <trkpt lat="43.40062" lon="2.27624">
        <ele>754.4</ele>
      </trkpt>
      <trkpt lat="43.40047" lon="2.27632">
        <ele>757.6</ele>
      </trkpt>
      <trkpt lat="43.4004" lon="2.27663">
        <ele>761.8</ele>
      </trkpt>
      <trkpt lat="43.39994" lon="2.27691">
        <ele>769.3</ele>
      </trkpt>
      <trkpt lat="43.39961" lon="2.27712">
        <ele>772.6</ele>
      </trkpt>
      <trkpt lat="43.39906" lon="2.27763">
        <ele>779.1</ele>
      </trkpt>
      <trkpt lat="43.3986" lon="2.27814">
        <ele>784.7</ele>
      </trkpt>
      <trkpt lat="43.39812" lon="2.27846">
        <ele>789.6</ele>
      </trkpt>
      <trkpt lat="43.39747" lon="2.27869">
        <ele>796.4</ele>
      </trkpt>
      <trkpt lat="43.39696" lon="2.27878">
        <ele>798.9</ele>
      </trkpt>
      <trkpt lat="43.39649" lon="2.27869">
        <ele>802</ele>
      </trkpt>
      <trkpt lat="43.39568" lon="2.27839">
        <ele>802.70819092</ele>
        <time>2022-07-10T11:48:27Z</time>
      </trkpt>
      <trkpt lat="43.39565" lon="2.27835">
        <ele>802.89819336</ele>
        <time>2022-07-10T11:48:28Z</time>
      </trkpt>
      <trkpt lat="43.39563" lon="2.27833">
        <ele>803.03820801</ele>
        <time>2022-07-10T11:48:29Z</time>
      </trkpt>
      <trkpt lat="43.39559" lon="2.27832">
        <ele>803.20819092</ele>
        <time>2022-07-10T11:48:30Z</time>
      </trkpt>
      <trkpt lat="43.39555" lon="2.27831">
        <ele>803.32818604</ele>
        <time>2022-07-10T11:48:31Z</time>
      </trkpt>
      <trkpt lat="43.39549" lon="2.27829">
        <ele>803.29815674</ele>
        <time>2022-07-10T11:48:32Z</time>
      </trkpt>
      <trkpt lat="43.39544" lon="2.27828">
        <ele>803.23815918</ele>
        <time>2022-07-10T11:48:33Z</time>
      </trkpt>
      <trkpt lat="43.3954" lon="2.27828">
        <ele>803.18817139</ele>
        <time>2022-07-10T11:48:34Z</time>
      </trkpt>
      <trkpt lat="43.39536" lon="2.27828">
        <ele>803.18817139</ele>
        <time>2022-07-10T11:48:35Z</time>
      </trkpt>
      <trkpt lat="43.3953" lon="2.27829">
        <ele>803.03814697</ele>
        <time>2022-07-10T11:48:36Z</time>
      </trkpt>
      <trkpt lat="43.39526" lon="2.27829">
        <ele>802.96813965</ele>
        <time>2022-07-10T11:48:37Z</time>
      </trkpt>
      <trkpt lat="43.39521" lon="2.2783">
        <ele>802.828125</ele>
        <time>2022-07-10T11:48:38Z</time>
      </trkpt>
      <trkpt lat="43.39517" lon="2.2783">
        <ele>802.7980957</ele>
        <time>2022-07-10T11:48:39Z</time>
      </trkpt>
      <trkpt lat="43.39512" lon="2.2783">
        <ele>802.7980957</ele>
        <time>2022-07-10T11:48:40Z</time>
      </trkpt>
      <trkpt lat="43.39505" lon="2.2783">
        <ele>802.71807861</ele>
        <time>2022-07-10T11:48:41Z</time>
      </trkpt>
      <trkpt lat="43.39501" lon="2.2783">
        <ele>802.66809082</ele>
        <time>2022-07-10T11:48:42Z</time>
      </trkpt>
      <trkpt lat="43.39496" lon="2.27831">
        <ele>802.63806152</ele>
        <time>2022-07-10T11:48:43Z</time>
      </trkpt>
      <trkpt lat="43.39491" lon="2.2783">
        <ele>802.67803955</ele>
        <time>2022-07-10T11:48:44Z</time>
      </trkpt>
      <trkpt lat="43.39486" lon="2.2783">
        <ele>802.67803955</ele>
        <time>2022-07-10T11:48:45Z</time>
      </trkpt>
      <trkpt lat="43.39479" lon="2.27829">
        <ele>802.5880127</ele>
        <time>2022-07-10T11:48:46Z</time>
      </trkpt>
      <trkpt lat="43.39474" lon="2.27829">
        <ele>802.17803955</ele>
        <time>2022-07-10T11:48:47Z</time>
      </trkpt>
      <trkpt lat="43.39469" lon="2.27829">
        <ele>801.93804932</ele>
        <time>2022-07-10T11:48:48Z</time>
      </trkpt>
      <trkpt lat="43.39464" lon="2.27829">
        <ele>801.85803223</ele>
        <time>2022-07-10T11:48:49Z</time>
      </trkpt>
      <trkpt lat="43.39457" lon="2.27828">
        <ele>801.77801514</ele>
        <time>2022-07-10T11:48:50Z</time>
      </trkpt>
      <trkpt lat="43.39453" lon="2.27826">
        <ele>801.75799561</ele>
        <time>2022-07-10T11:48:51Z</time>
      </trkpt>
      <trkpt lat="43.39448" lon="2.27823">
        <ele>801.61798096</ele>
        <time>2022-07-10T11:48:52Z</time>
      </trkpt>
      <trkpt lat="43.39443" lon="2.27822">
        <ele>801.61798096</ele>
        <time>2022-07-10T11:48:53Z</time>
      </trkpt>
      <trkpt lat="43.39438" lon="2.27822">
        <ele>801.12799072</ele>
        <time>2022-07-10T11:48:54Z</time>
      </trkpt>
      <trkpt lat="43.39431" lon="2.27823">
        <ele>801.06799316</ele>
        <time>2022-07-10T11:48:55Z</time>
      </trkpt>
      <trkpt lat="43.39426" lon="2.27825">
        <ele>801.07800293</ele>
        <time>2022-07-10T11:48:56Z</time>
      </trkpt>
      <trkpt lat="43.39422" lon="2.27827">
        <ele>801.10803223</ele>
        <time>2022-07-10T11:48:57Z</time>
      </trkpt>
      <trkpt lat="43.39417" lon="2.27829">
        <ele>801.0880127</ele>
        <time>2022-07-10T11:48:58Z</time>
      </trkpt>
      <trkpt lat="43.3941" lon="2.27831">
        <ele>800.88800049</ele>
        <time>2022-07-10T11:48:59Z</time>
      </trkpt>
      <trkpt lat="43.39405" lon="2.27832">
        <ele>800.67797852</ele>
        <time>2022-07-10T11:49:00Z</time>
      </trkpt>
      <trkpt lat="43.394" lon="2.27833">
        <ele>800.38800049</ele>
        <time>2022-07-10T11:49:01Z</time>
      </trkpt>
      <trkpt lat="43.39394" lon="2.27834">
        <ele>800.48797607</ele>
        <time>2022-07-10T11:49:02Z</time>
      </trkpt>
      <trkpt lat="43.39389" lon="2.27836">
        <ele>800.22796631</ele>
        <time>2022-07-10T11:49:03Z</time>
      </trkpt>
      <trkpt lat="43.39381" lon="2.27838">
        <ele>800.08795166</ele>
        <time>2022-07-10T11:49:04Z</time>
      </trkpt>
      <trkpt lat="43.39376" lon="2.27839">
        <ele>800.01794434</ele>
        <time>2022-07-10T11:49:05Z</time>
      </trkpt>
      <trkpt lat="43.39371" lon="2.2784">
        <ele>799.82794189</ele>
        <time>2022-07-10T11:49:06Z</time>
      </trkpt>
      <trkpt lat="43.39366" lon="2.27841">
        <ele>799.82794189</ele>
        <time>2022-07-10T11:49:07Z</time>
      </trkpt>
      <trkpt lat="43.39358" lon="2.27841">
        <ele>799.48791504</ele>
        <time>2022-07-10T11:49:08Z</time>
      </trkpt>
      <trkpt lat="43.39353" lon="2.27841">
        <ele>799.42791748</ele>
        <time>2022-07-10T11:49:09Z</time>
      </trkpt>
      <trkpt lat="43.39348" lon="2.27841">
        <ele>799.42791748</ele>
        <time>2022-07-10T11:49:10Z</time>
      </trkpt>
      <trkpt lat="43.39343" lon="2.27841">
        <ele>799.38793945</ele>
        <time>2022-07-10T11:49:11Z</time>
      </trkpt>
      <trkpt lat="43.39338" lon="2.27841">
        <ele>799.22796631</ele>
        <time>2022-07-10T11:49:12Z</time>
      </trkpt>
      <trkpt lat="43.39331" lon="2.27842">
        <ele>799.14794922</ele>
        <time>2022-07-10T11:49:13Z</time>
      </trkpt>
      <trkpt lat="43.39326" lon="2.27842">
        <ele>799.10797119</ele>
        <time>2022-07-10T11:49:14Z</time>
      </trkpt>
      <trkpt lat="43.39321" lon="2.27842">
        <ele>799.10797119</ele>
        <time>2022-07-10T11:49:15Z</time>
      </trkpt>
      <trkpt lat="43.39316" lon="2.27843">
        <ele>799.0279541</ele>
        <time>2022-07-10T11:49:16Z</time>
      </trkpt>
      <trkpt lat="43.39308" lon="2.27842">
        <ele>799.08795166</ele>
        <time>2022-07-10T11:49:17Z</time>
      </trkpt>
      <trkpt lat="43.39303" lon="2.27842">
        <ele>799.04797363</ele>
        <time>2022-07-10T11:49:18Z</time>
      </trkpt>
      <trkpt lat="43.39298" lon="2.27841">
        <ele>798.86798096</ele>
        <time>2022-07-10T11:49:19Z</time>
      </trkpt>
      <trkpt lat="43.39293" lon="2.2784">
        <ele>798.79797363</ele>
        <time>2022-07-10T11:49:20Z</time>
      </trkpt>
      <trkpt lat="43.39286" lon="2.2784">
        <ele>798.58795166</ele>
        <time>2022-07-10T11:49:21Z</time>
      </trkpt>
      <trkpt lat="43.39281" lon="2.2784">
        <ele>798.58795166</ele>
        <time>2022-07-10T11:49:22Z</time>
      </trkpt>
      <trkpt lat="43.39276" lon="2.2784">
        <ele>798.47796631</ele>
        <time>2022-07-10T11:49:23Z</time>
      </trkpt>
      <trkpt lat="43.39271" lon="2.2784">
        <ele>798.46795654</ele>
        <time>2022-07-10T11:49:24Z</time>
      </trkpt>
      <trkpt lat="43.39265" lon="2.27841">
        <ele>798.46795654</ele>
        <time>2022-07-10T11:49:25Z</time>
      </trkpt>
      <trkpt lat="43.39258" lon="2.27842">
        <ele>798.22796631</ele>
        <time>2022-07-10T11:49:26Z</time>
      </trkpt>
      <trkpt lat="43.39253" lon="2.27844">
        <ele>798.14794922</ele>
        <time>2022-07-10T11:49:27Z</time>
      </trkpt>
      <trkpt lat="43.39247" lon="2.27845">
        <ele>797.47796631</ele>
        <time>2022-07-10T11:49:28Z</time>
      </trkpt>
      <trkpt lat="43.39242" lon="2.27847">
        <ele>797.47796631</ele>
        <time>2022-07-10T11:49:29Z</time>
      </trkpt>
      <trkpt lat="43.39237" lon="2.27848">
        <ele>796.86798096</ele>
        <time>2022-07-10T11:49:30Z</time>
      </trkpt>
      <trkpt lat="43.3923" lon="2.27852">
        <ele>796.86798096</ele>
        <time>2022-07-10T11:49:31Z</time>
      </trkpt>
      <trkpt lat="43.39225" lon="2.27854">
        <ele>796.60797119</ele>
        <time>2022-07-10T11:49:32Z</time>
      </trkpt>
      <trkpt lat="43.39219" lon="2.27856">
        <ele>796.39794922</ele>
        <time>2022-07-10T11:49:33Z</time>
      </trkpt>
      <trkpt lat="43.39214" lon="2.27859">
        <ele>796.07794189</ele>
        <time>2022-07-10T11:49:34Z</time>
      </trkpt>
      <trkpt lat="43.39206" lon="2.27863">
        <ele>796.07794189</ele>
        <time>2022-07-10T11:49:35Z</time>
      </trkpt>
      <trkpt lat="43.39201" lon="2.27865">
        <ele>795.22796631</ele>
        <time>2022-07-10T11:49:36Z</time>
      </trkpt>
      <trkpt lat="43.39195" lon="2.27868">
        <ele>795.22796631</ele>
        <time>2022-07-10T11:49:37Z</time>
      </trkpt>
      <trkpt lat="43.39189" lon="2.27871">
        <ele>794.82794189</ele>
        <time>2022-07-10T11:49:38Z</time>
      </trkpt>
      <trkpt lat="43.39184" lon="2.27872">
        <ele>794.41796875</ele>
        <time>2022-07-10T11:49:39Z</time>
      </trkpt>
      <trkpt lat="43.39176" lon="2.27871">
        <ele>794.35797119</ele>
        <time>2022-07-10T11:49:40Z</time>
      </trkpt>
      <trkpt lat="43.3917" lon="2.27869">
        <ele>794.35797119</ele>
        <time>2022-07-10T11:49:41Z</time>
      </trkpt>
      <trkpt lat="43.39165" lon="2.27867">
        <ele>793.71795654</ele>
        <time>2022-07-10T11:49:42Z</time>
      </trkpt>
      <trkpt lat="43.3916" lon="2.27864">
        <ele>793.71795654</ele>
        <time>2022-07-10T11:49:43Z</time>
      </trkpt>
      <trkpt lat="43.39153" lon="2.27859">
        <ele>793.16796875</ele>
        <time>2022-07-10T11:49:44Z</time>
      </trkpt>
      <trkpt lat="43.39149" lon="2.27855">
        <ele>793.16796875</ele>
        <time>2022-07-10T11:49:45Z</time>
      </trkpt>
      <trkpt lat="43.39144" lon="2.27852">
        <ele>792.95794678</ele>
        <time>2022-07-10T11:49:46Z</time>
      </trkpt>
      <trkpt lat="43.39139" lon="2.27849">
        <ele>792.68792725</ele>
        <time>2022-07-10T11:49:47Z</time>
      </trkpt>
      <trkpt lat="43.39134" lon="2.27845">
        <ele>792.4979248</ele>
        <time>2022-07-10T11:49:48Z</time>
      </trkpt>
      <trkpt lat="43.39126" lon="2.2784">
        <ele>792.4979248</ele>
        <time>2022-07-10T11:49:49Z</time>
      </trkpt>
      <trkpt lat="43.39121" lon="2.27836">
        <ele>792.28790283</ele>
        <time>2022-07-10T11:49:50Z</time>
      </trkpt>
      <trkpt lat="43.39117" lon="2.27832">
        <ele>791.63787842</ele>
        <time>2022-07-10T11:49:51Z</time>
      </trkpt>
      <trkpt lat="43.39112" lon="2.27827">
        <ele>791.37786865</ele>
        <time>2022-07-10T11:49:52Z</time>
      </trkpt>
      <trkpt lat="43.39106" lon="2.2782">
        <ele>791.09783936</ele>
        <time>2022-07-10T11:49:53Z</time>
      </trkpt>
      <trkpt lat="43.39101" lon="2.27815">
        <ele>790.63781738</ele>
        <time>2022-07-10T11:49:54Z</time>
      </trkpt>
      <trkpt lat="43.39096" lon="2.2781">
        <ele>790.22784424</ele>
        <time>2022-07-10T11:49:55Z</time>
      </trkpt>
      <trkpt lat="43.39091" lon="2.27805">
        <ele>789.737854</ele>
        <time>2022-07-10T11:49:56Z</time>
      </trkpt>
      <trkpt lat="43.39082" lon="2.27797">
        <ele>789.27783203</ele>
        <time>2022-07-10T11:49:57Z</time>
      </trkpt>
      <trkpt lat="43.39078" lon="2.27791">
        <ele>789.27783203</ele>
        <time>2022-07-10T11:49:58Z</time>
      </trkpt>
      <trkpt lat="43.39073" lon="2.27787">
        <ele>788.35784912</ele>
        <time>2022-07-10T11:49:59Z</time>
      </trkpt>
      <trkpt lat="43.39067" lon="2.27781">
        <ele>787.24786377</ele>
        <time>2022-07-10T11:50:00Z</time>
      </trkpt>
      <trkpt lat="43.39063" lon="2.27776">
        <ele>786.16784668</ele>
        <time>2022-07-10T11:50:01Z</time>
      </trkpt>
      <trkpt lat="43.39056" lon="2.27769">
        <ele>785.20782471</ele>
        <time>2022-07-10T11:50:02Z</time>
      </trkpt>
      <trkpt lat="43.39051" lon="2.27764">
        <ele>783.93780518</ele>
        <time>2022-07-10T11:50:03Z</time>
      </trkpt>
      <trkpt lat="43.39045" lon="2.27759">
        <ele>782.85778809</ele>
        <time>2022-07-10T11:50:04Z</time>
      </trkpt>
      <trkpt lat="43.39039" lon="2.27755">
        <ele>781.84777832</ele>
        <time>2022-07-10T11:50:05Z</time>
      </trkpt>
      <trkpt lat="43.39029" lon="2.27748">
        <ele>780.78778076</ele>
        <time>2022-07-10T11:50:06Z</time>
      </trkpt>
      <trkpt lat="43.39022" lon="2.27743">
        <ele>779.81781006</ele>
        <time>2022-07-10T11:50:07Z</time>
      </trkpt>
      <trkpt lat="43.39014" lon="2.27739">
        <ele>779.81781006</ele>
        <time>2022-07-10T11:50:08Z</time>
      </trkpt>
      <trkpt lat="43.39006" lon="2.27733">
        <ele>779.07781982</ele>
        <time>2022-07-10T11:50:09Z</time>
      </trkpt>
      <trkpt lat="43.38998" lon="2.27728">
        <ele>777.77783203</ele>
        <time>2022-07-10T11:50:10Z</time>
      </trkpt>
      <trkpt lat="43.38986" lon="2.27721">
        <ele>775.51782227</ele>
        <time>2022-07-10T11:50:11Z</time>
      </trkpt>
      <trkpt lat="43.38979" lon="2.27718">
        <ele>774.30780029</ele>
        <time>2022-07-10T11:50:12Z</time>
      </trkpt>
      <trkpt lat="43.38972" lon="2.27714">
        <ele>773.33782959</ele>
        <time>2022-07-10T11:50:13Z</time>
      </trkpt>
      <trkpt lat="43.38964" lon="2.2771">
        <ele>773.33782959</ele>
        <time>2022-07-10T11:50:14Z</time>
      </trkpt>
      <trkpt lat="43.38956" lon="2.27706">
        <ele>772.08782959</ele>
        <time>2022-07-10T11:50:15Z</time>
      </trkpt>
      <trkpt lat="43.38944" lon="2.27701">
        <ele>771.42785645</ele>
        <time>2022-07-10T11:50:16Z</time>
      </trkpt>
      <trkpt lat="43.38935" lon="2.27697">
        <ele>769.42785645</ele>
        <time>2022-07-10T11:50:17Z</time>
      </trkpt>
      <trkpt lat="43.38926" lon="2.27692">
        <ele>768.737854</ele>
        <time>2022-07-10T11:50:18Z</time>
      </trkpt>
      <trkpt lat="43.38917" lon="2.27688">
        <ele>767.63787842</ele>
        <time>2022-07-10T11:50:19Z</time>
      </trkpt>
      <trkpt lat="43.38902" lon="2.27681">
        <ele>766.77789307</ele>
        <time>2022-07-10T11:50:20Z</time>
      </trkpt>
      <trkpt lat="43.38893" lon="2.27677">
        <ele>765.41790771</ele>
        <time>2022-07-10T11:50:21Z</time>
      </trkpt>
      <trkpt lat="43.38884" lon="2.27673">
        <ele>763.4979248</ele>
        <time>2022-07-10T11:50:22Z</time>
      </trkpt>
      <trkpt lat="43.38874" lon="2.27669">
        <ele>762.2779541</ele>
        <time>2022-07-10T11:50:23Z</time>
      </trkpt>
      <trkpt lat="43.38865" lon="2.27664">
        <ele>762.2779541</ele>
        <time>2022-07-10T11:50:24Z</time>
      </trkpt>
      <trkpt lat="43.38851" lon="2.27658">
        <ele>760.59796143</ele>
        <time>2022-07-10T11:50:25Z</time>
      </trkpt>
      <trkpt lat="43.38841" lon="2.27654">
        <ele>760.59796143</ele>
        <time>2022-07-10T11:50:26Z</time>
      </trkpt>
      <trkpt lat="43.38831" lon="2.2765">
        <ele>759.95794678</ele>
        <time>2022-07-10T11:50:27Z</time>
      </trkpt>
      <trkpt lat="43.38821" lon="2.27648">
        <ele>759.19793701</ele>
        <time>2022-07-10T11:50:28Z</time>
      </trkpt>
      <trkpt lat="43.38807" lon="2.27643">
        <ele>758.25793457</ele>
        <time>2022-07-10T11:50:29Z</time>
      </trkpt>
      <trkpt lat="43.38798" lon="2.27641">
        <ele>757.34796143</ele>
        <time>2022-07-10T11:50:30Z</time>
      </trkpt>
      <trkpt lat="43.38788" lon="2.27638">
        <ele>756.07794189</ele>
        <time>2022-07-10T11:50:31Z</time>
      </trkpt>
      <trkpt lat="43.38779" lon="2.27635">
        <ele>756.07794189</ele>
        <time>2022-07-10T11:50:32Z</time>
      </trkpt>
      <trkpt lat="43.38769" lon="2.27633">
        <ele>755.20794678</ele>
        <time>2022-07-10T11:50:33Z</time>
      </trkpt>
      <trkpt lat="43.38755" lon="2.2763">
        <ele>754.08795166</ele>
        <time>2022-07-10T11:50:34Z</time>
      </trkpt>
      <trkpt lat="43.38746" lon="2.27628">
        <ele>753.37792969</ele>
        <time>2022-07-10T11:50:35Z</time>
      </trkpt>
      <trkpt lat="43.38736" lon="2.27628">
        <ele>753.37792969</ele>
        <time>2022-07-10T11:50:36Z</time>
      </trkpt>
      <trkpt lat="43.38727" lon="2.27627">
        <ele>751.65795898</ele>
        <time>2022-07-10T11:50:37Z</time>
      </trkpt>
      <trkpt lat="43.38712" lon="2.27625">
        <ele>750.68798828</ele>
        <time>2022-07-10T11:50:38Z</time>
      </trkpt>
      <trkpt lat="43.38702" lon="2.27623">
        <ele>749.27801514</ele>
        <time>2022-07-10T11:50:39Z</time>
      </trkpt>
      <trkpt lat="43.38693" lon="2.2762">
        <ele>748.52801514</ele>
        <time>2022-07-10T11:50:40Z</time>
      </trkpt>
      <trkpt lat="43.38683" lon="2.27619">
        <ele>747.89801025</ele>
        <time>2022-07-10T11:50:41Z</time>
      </trkpt>
      <trkpt lat="43.38675" lon="2.27616">
        <ele>747.24798584</ele>
        <time>2022-07-10T11:50:42Z</time>
      </trkpt>
      <trkpt lat="43.38663" lon="2.27612">
        <ele>747.24798584</ele>
        <time>2022-07-10T11:50:43Z</time>
      </trkpt>
      <trkpt lat="43.38654" lon="2.2761">
        <ele>746.91796875</ele>
        <time>2022-07-10T11:50:44Z</time>
      </trkpt>
      <trkpt lat="43.38646" lon="2.27608">
        <ele>746.45794678</ele>
        <time>2022-07-10T11:50:45Z</time>
      </trkpt>
      <trkpt lat="43.38637" lon="2.27605">
        <ele>744.50793457</ele>
        <time>2022-07-10T11:50:46Z</time>
      </trkpt>
      <trkpt lat="43.38622" lon="2.27601">
        <ele>743.7479248</ele>
        <time>2022-07-10T11:50:47Z</time>
      </trkpt>
      <trkpt lat="43.38613" lon="2.27598">
        <ele>742.18792725</ele>
        <time>2022-07-10T11:50:48Z</time>
      </trkpt>
      <trkpt lat="43.38603" lon="2.27596">
        <ele>741.37792969</ele>
        <time>2022-07-10T11:50:49Z</time>
      </trkpt>
      <trkpt lat="43.38594" lon="2.27595">
        <ele>740.06793213</ele>
        <time>2022-07-10T11:50:50Z</time>
      </trkpt>
      <trkpt lat="43.38584" lon="2.27592">
        <ele>739.2979126</ele>
        <time>2022-07-10T11:50:51Z</time>
      </trkpt>
      <trkpt lat="43.38571" lon="2.27588">
        <ele>738.85791016</ele>
        <time>2022-07-10T11:50:52Z</time>
      </trkpt>
      <trkpt lat="43.38562" lon="2.27584">
        <ele>737.77789307</ele>
        <time>2022-07-10T11:50:53Z</time>
      </trkpt>
      <trkpt lat="43.38552" lon="2.27582">
        <ele>736.98791504</ele>
        <time>2022-07-10T11:50:54Z</time>
      </trkpt>
      <trkpt lat="43.38542" lon="2.2758">
        <ele>735.86791992</ele>
        <time>2022-07-10T11:50:55Z</time>
      </trkpt>
      <trkpt lat="43.38528" lon="2.27576">
        <ele>735.31793213</ele>
        <time>2022-07-10T11:50:56Z</time>
      </trkpt>
      <trkpt lat="43.38519" lon="2.27573">
        <ele>735.31793213</ele>
        <time>2022-07-10T11:50:57Z</time>
      </trkpt>
      <trkpt lat="43.3851" lon="2.27571">
        <ele>734.4979248</ele>
        <time>2022-07-10T11:50:58Z</time>
      </trkpt>
      <trkpt lat="43.38502" lon="2.27569">
        <ele>733.39794922</ele>
        <time>2022-07-10T11:50:59Z</time>
      </trkpt>
      <trkpt lat="43.38494" lon="2.27568">
        <ele>732.37792969</ele>
        <time>2022-07-10T11:51:00Z</time>
      </trkpt>
      <trkpt lat="43.38481" lon="2.27564">
        <ele>732.13793945</ele>
        <time>2022-07-10T11:51:01Z</time>
      </trkpt>
      <trkpt lat="43.38472" lon="2.27561">
        <ele>731.72796631</ele>
        <time>2022-07-10T11:51:02Z</time>
      </trkpt>
      <trkpt lat="43.38464" lon="2.27559">
        <ele>731.72796631</ele>
        <time>2022-07-10T11:51:03Z</time>
      </trkpt>
      <trkpt lat="43.38456" lon="2.27556">
        <ele>730.79797363</ele>
        <time>2022-07-10T11:51:04Z</time>
      </trkpt>
      <trkpt lat="43.38442" lon="2.27552">
        <ele>729.98797607</ele>
        <time>2022-07-10T11:51:05Z</time>
      </trkpt>
      <trkpt lat="43.38433" lon="2.2755">
        <ele>729.62799072</ele>
        <time>2022-07-10T11:51:06Z</time>
      </trkpt>
      <trkpt lat="43.38424" lon="2.27547">
        <ele>729.62799072</ele>
        <time>2022-07-10T11:51:07Z</time>
      </trkpt>
      <trkpt lat="43.38415" lon="2.27545">
        <ele>728.45800781</ele>
        <time>2022-07-10T11:51:08Z</time>
      </trkpt>
      <trkpt lat="43.38406" lon="2.27542">
        <ele>727.49798584</ele>
        <time>2022-07-10T11:51:09Z</time>
      </trkpt>
      <trkpt lat="43.38392" lon="2.27538">
        <ele>726.56799316</ele>
        <time>2022-07-10T11:51:10Z</time>
      </trkpt>
      <trkpt lat="43.38383" lon="2.27535">
        <ele>725.66796875</ele>
        <time>2022-07-10T11:51:11Z</time>
      </trkpt>
      <trkpt lat="43.38374" lon="2.27532">
        <ele>725.04797363</ele>
        <time>2022-07-10T11:51:12Z</time>
      </trkpt>
      <trkpt lat="43.38364" lon="2.2753">
        <ele>725.04797363</ele>
        <time>2022-07-10T11:51:13Z</time>
      </trkpt>
      <trkpt lat="43.38355" lon="2.27526">
        <ele>724.50799561</ele>
        <time>2022-07-10T11:51:14Z</time>
      </trkpt>
      <trkpt lat="43.38342" lon="2.27519">
        <ele>723.56799316</ele>
        <time>2022-07-10T11:51:15Z</time>
      </trkpt>
      <trkpt lat="43.38334" lon="2.27513">
        <ele>723.26800537</ele>
        <time>2022-07-10T11:51:16Z</time>
      </trkpt>
      <trkpt lat="43.38327" lon="2.27504">
        <ele>722.52801514</ele>
        <time>2022-07-10T11:51:17Z</time>
      </trkpt>
      <trkpt lat="43.38321" lon="2.27494">
        <ele>721.86804199</ele>
        <time>2022-07-10T11:51:18Z</time>
      </trkpt>
      <trkpt lat="43.38312" lon="2.27479">
        <ele>720.92803955</ele>
        <time>2022-07-10T11:51:19Z</time>
      </trkpt>
      <trkpt lat="43.38306" lon="2.2747">
        <ele>720.92803955</ele>
        <time>2022-07-10T11:51:20Z</time>
      </trkpt>
      <trkpt lat="43.38299" lon="2.2746">
        <ele>719.01806641</ele>
        <time>2022-07-10T11:51:21Z</time>
      </trkpt>
      <trkpt lat="43.38292" lon="2.27452">
        <ele>718.2980957</ele>
        <time>2022-07-10T11:51:22Z</time>
      </trkpt>
      <trkpt lat="43.38279" lon="2.27439">
        <ele>718.2980957</ele>
        <time>2022-07-10T11:51:23Z</time>
      </trkpt>
      <trkpt lat="43.38271" lon="2.27431">
        <ele>717.74810791</ele>
        <time>2022-07-10T11:51:24Z</time>
      </trkpt>
      <trkpt lat="43.38263" lon="2.27423">
        <ele>717.00811768</ele>
        <time>2022-07-10T11:51:25Z</time>
      </trkpt>
      <trkpt lat="43.38255" lon="2.27415">
        <ele>715.97808838</ele>
        <time>2022-07-10T11:51:26Z</time>
      </trkpt>
      <trkpt lat="43.38242" lon="2.27401">
        <ele>714.77807617</ele>
        <time>2022-07-10T11:51:27Z</time>
      </trkpt>
      <trkpt lat="43.38234" lon="2.27392">
        <ele>713.67810059</ele>
        <time>2022-07-10T11:51:28Z</time>
      </trkpt>
      <trkpt lat="43.38226" lon="2.27382">
        <ele>713.11810303</ele>
        <time>2022-07-10T11:51:29Z</time>
      </trkpt>
      <trkpt lat="43.38219" lon="2.27374">
        <ele>713.11810303</ele>
        <time>2022-07-10T11:51:30Z</time>
      </trkpt>
      <trkpt lat="43.38212" lon="2.27367">
        <ele>712.64813232</ele>
        <time>2022-07-10T11:51:31Z</time>
      </trkpt>
      <trkpt lat="43.38199" lon="2.27359">
        <ele>712.15814209</ele>
        <time>2022-07-10T11:51:32Z</time>
      </trkpt>
      <trkpt lat="43.3819" lon="2.27355">
        <ele>710.89813232</ele>
        <time>2022-07-10T11:51:33Z</time>
      </trkpt>
      <trkpt lat="43.38181" lon="2.27352">
        <ele>710.34814453</ele>
        <time>2022-07-10T11:51:34Z</time>
      </trkpt>
      <trkpt lat="43.38172" lon="2.27349">
        <ele>709.86816406</ele>
        <time>2022-07-10T11:51:35Z</time>
      </trkpt>
      <trkpt lat="43.38162" lon="2.27346">
        <ele>709.34814453</ele>
        <time>2022-07-10T11:51:36Z</time>
      </trkpt>
      <trkpt lat="43.38147" lon="2.27342">
        <ele>709.34814453</ele>
        <time>2022-07-10T11:51:37Z</time>
      </trkpt>
      <trkpt lat="43.38137" lon="2.27339">
        <ele>708.16815186</ele>
        <time>2022-07-10T11:51:38Z</time>
      </trkpt>
      <trkpt lat="43.38127" lon="2.27336">
        <ele>707.72814941</ele>
        <time>2022-07-10T11:51:39Z</time>
      </trkpt>
      <trkpt lat="43.38118" lon="2.27333">
        <ele>707.24816895</ele>
        <time>2022-07-10T11:51:40Z</time>
      </trkpt>
      <trkpt lat="43.38104" lon="2.27328">
        <ele>706.89819336</ele>
        <time>2022-07-10T11:51:41Z</time>
      </trkpt>
      <trkpt lat="43.38095" lon="2.27324">
        <ele>706.89819336</ele>
        <time>2022-07-10T11:51:42Z</time>
      </trkpt>
      <trkpt lat="43.38086" lon="2.27319">
        <ele>705.57818604</ele>
        <time>2022-07-10T11:51:43Z</time>
      </trkpt>
      <trkpt lat="43.38078" lon="2.27313">
        <ele>705.0881958</ele>
        <time>2022-07-10T11:51:44Z</time>
      </trkpt>
      <trkpt lat="43.3807" lon="2.27307">
        <ele>705.0881958</ele>
        <time>2022-07-10T11:51:45Z</time>
      </trkpt>
      <trkpt lat="43.38058" lon="2.27297">
        <ele>703.76818848</ele>
        <time>2022-07-10T11:51:46Z</time>
      </trkpt>
      <trkpt lat="43.3805" lon="2.2729">
        <ele>703.76818848</ele>
        <time>2022-07-10T11:51:47Z</time>
      </trkpt>
      <trkpt lat="43.38042" lon="2.27282">
        <ele>703.07818604</ele>
        <time>2022-07-10T11:51:48Z</time>
      </trkpt>
      <trkpt lat="43.38034" lon="2.27274">
        <ele>701.48815918</ele>
        <time>2022-07-10T11:51:49Z</time>
      </trkpt>
      <trkpt lat="43.38022" lon="2.27262">
        <ele>700.78814697</ele>
        <time>2022-07-10T11:51:50Z</time>
      </trkpt>
      <trkpt lat="43.38014" lon="2.27254">
        <ele>699.76812744</ele>
        <time>2022-07-10T11:51:51Z</time>
      </trkpt>
      <trkpt lat="43.38006" lon="2.27246">
        <ele>698.67810059</ele>
        <time>2022-07-10T11:51:52Z</time>
      </trkpt>
      <trkpt lat="43.37997" lon="2.27238">
        <ele>698.67810059</ele>
        <time>2022-07-10T11:51:53Z</time>
      </trkpt>
      <trkpt lat="43.37989" lon="2.27229">
        <ele>697.69812012</ele>
        <time>2022-07-10T11:51:54Z</time>
      </trkpt>
      <trkpt lat="43.37976" lon="2.27217">
        <ele>695.88812256</ele>
        <time>2022-07-10T11:51:55Z</time>
      </trkpt>
      <trkpt lat="43.37967" lon="2.27208">
        <ele>695.88812256</ele>
        <time>2022-07-10T11:51:56Z</time>
      </trkpt>
      <trkpt lat="43.37959" lon="2.27199">
        <ele>695.18811035</ele>
        <time>2022-07-10T11:51:57Z</time>
      </trkpt>
      <trkpt lat="43.37951" lon="2.27191">
        <ele>694.38812256</ele>
        <time>2022-07-10T11:51:58Z</time>
      </trkpt>
      <trkpt lat="43.37943" lon="2.27182">
        <ele>692.67810059</ele>
        <time>2022-07-10T11:51:59Z</time>
      </trkpt>
      <trkpt lat="43.3793" lon="2.27169">
        <ele>692.0480957</ele>
        <time>2022-07-10T11:52:00Z</time>
      </trkpt>
      <trkpt lat="43.37922" lon="2.27161">
        <ele>692.0480957</ele>
        <time>2022-07-10T11:52:01Z</time>
      </trkpt>
      <trkpt lat="43.37914" lon="2.27153">
        <ele>690.43811035</ele>
        <time>2022-07-10T11:52:02Z</time>
      </trkpt>
      <trkpt lat="43.37906" lon="2.27144">
        <ele>690.00811768</ele>
        <time>2022-07-10T11:52:03Z</time>
      </trkpt>
      <trkpt lat="43.37894" lon="2.27132">
        <ele>689.46813965</ele>
        <time>2022-07-10T11:52:04Z</time>
      </trkpt>
      <trkpt lat="43.37886" lon="2.27123">
        <ele>689.03814697</ele>
        <time>2022-07-10T11:52:05Z</time>
      </trkpt>
      <trkpt lat="43.37878" lon="2.27115">
        <ele>688.46813965</ele>
        <time>2022-07-10T11:52:06Z</time>
      </trkpt>
      <trkpt lat="43.37871" lon="2.27106">
        <ele>687.65814209</ele>
        <time>2022-07-10T11:52:07Z</time>
      </trkpt>
      <trkpt lat="43.37859" lon="2.27094">
        <ele>687.22814941</ele>
        <time>2022-07-10T11:52:08Z</time>
      </trkpt>
      <trkpt lat="43.37852" lon="2.27087">
        <ele>686.78814697</ele>
        <time>2022-07-10T11:52:09Z</time>
      </trkpt>
      <trkpt lat="43.37846" lon="2.27082">
        <ele>686.46813965</ele>
        <time>2022-07-10T11:52:10Z</time>
      </trkpt>
      <trkpt lat="43.3784" lon="2.27077">
        <ele>686.65814209</ele>
        <time>2022-07-10T11:52:11Z</time>
      </trkpt>
      <trkpt lat="43.37835" lon="2.27072">
        <ele>686.328125</ele>
        <time>2022-07-10T11:52:12Z</time>
      </trkpt>
      <trkpt lat="43.37829" lon="2.27065">
        <ele>686.11810303</ele>
        <time>2022-07-10T11:52:13Z</time>
      </trkpt>
      <trkpt lat="43.37825" lon="2.27059">
        <ele>685.99810791</ele>
        <time>2022-07-10T11:52:14Z</time>
      </trkpt>
      <trkpt lat="43.37821" lon="2.27055">
        <ele>685.33813477</ele>
        <time>2022-07-10T11:52:15Z</time>
      </trkpt>
      <trkpt lat="43.37818" lon="2.27052">
        <ele>684.68811035</ele>
        <time>2022-07-10T11:52:16Z</time>
      </trkpt>
      <trkpt lat="43.37816" lon="2.27047">
        <ele>683.95812988</ele>
        <time>2022-07-10T11:52:17Z</time>
      </trkpt>
      <trkpt lat="43.37812" lon="2.27044">
        <ele>683.11810303</ele>
        <time>2022-07-10T11:52:18Z</time>
      </trkpt>
      <trkpt lat="43.37808" lon="2.27041">
        <ele>682.35809326</ele>
        <time>2022-07-10T11:52:19Z</time>
      </trkpt>
      <trkpt lat="43.37804" lon="2.27038">
        <ele>682.35809326</ele>
        <time>2022-07-10T11:52:20Z</time>
      </trkpt>
      <trkpt lat="43.37801" lon="2.27036">
        <ele>681.37811279</ele>
        <time>2022-07-10T11:52:21Z</time>
      </trkpt>
      <trkpt lat="43.37795" lon="2.27032">
        <ele>681.13812256</ele>
        <time>2022-07-10T11:52:22Z</time>
      </trkpt>
      <trkpt lat="43.37789" lon="2.27029">
        <ele>680.67810059</ele>
        <time>2022-07-10T11:52:23Z</time>
      </trkpt>
      <trkpt lat="43.37783" lon="2.27027">
        <ele>680.16809082</ele>
        <time>2022-07-10T11:52:24Z</time>
      </trkpt>
      <trkpt lat="43.37778" lon="2.27024">
        <ele>680.16809082</ele>
        <time>2022-07-10T11:52:25Z</time>
      </trkpt>
      <trkpt lat="43.3777" lon="2.27023">
        <ele>679.49810791</ele>
        <time>2022-07-10T11:52:26Z</time>
      </trkpt>
      <trkpt lat="43.37765" lon="2.27024">
        <ele>678.43811035</ele>
        <time>2022-07-10T11:52:27Z</time>
      </trkpt>
      <trkpt lat="43.3776" lon="2.27027">
        <ele>678.43811035</ele>
        <time>2022-07-10T11:52:28Z</time>
      </trkpt>
      <trkpt lat="43.37754" lon="2.2703">
        <ele>678.05810547</ele>
        <time>2022-07-10T11:52:29Z</time>
      </trkpt>
      <trkpt lat="43.37749" lon="2.27033">
        <ele>676.8480835</ele>
        <time>2022-07-10T11:52:30Z</time>
      </trkpt>
      <trkpt lat="43.37743" lon="2.27034">
        <ele>676.8480835</ele>
        <time>2022-07-10T11:52:31Z</time>
      </trkpt>
      <trkpt lat="43.3774" lon="2.27035">
        <ele>675.96807861</ele>
        <time>2022-07-10T11:52:32Z</time>
      </trkpt>
      <trkpt lat="43.37739" lon="2.27035">
        <ele>675.96807861</ele>
        <time>2022-07-10T11:52:33Z</time>
      </trkpt>
      <trkpt lat="43.37739" lon="2.27034">
        <ele>675.97808838</ele>
        <time>2022-07-10T11:52:34Z</time>
      </trkpt>
      <trkpt lat="43.37735" lon="2.27035">
        <ele>675.87811279</ele>
        <time>2022-07-10T11:52:39Z</time>
      </trkpt>
      <trkpt lat="43.37733" lon="2.27037">
        <ele>675.87811279</ele>
        <time>2022-07-10T11:52:40Z</time>
      </trkpt>
      <trkpt lat="43.37732" lon="2.2704">
        <ele>675.74810791</ele>
        <time>2022-07-10T11:52:41Z</time>
      </trkpt>
      <trkpt lat="43.3773" lon="2.27043">
        <ele>675.74810791</ele>
        <time>2022-07-10T11:52:42Z</time>
      </trkpt>
      <trkpt lat="43.37729" lon="2.27047">
        <ele>675.53808594</ele>
        <time>2022-07-10T11:52:43Z</time>
      </trkpt>
      <trkpt lat="43.37726" lon="2.27052">
        <ele>675.48809814</ele>
        <time>2022-07-10T11:52:44Z</time>
      </trkpt>
      <trkpt lat="43.37724" lon="2.27055">
        <ele>675.48809814</ele>
        <time>2022-07-10T11:52:45Z</time>
      </trkpt>
      <trkpt lat="43.37722" lon="2.27057">
        <ele>675.43811035</ele>
        <time>2022-07-10T11:52:46Z</time>
      </trkpt>
      <trkpt lat="43.3772" lon="2.2706">
        <ele>675.2980957</ele>
        <time>2022-07-10T11:52:47Z</time>
      </trkpt>
      <trkpt lat="43.37718" lon="2.27062">
        <ele>675.00811768</ele>
        <time>2022-07-10T11:52:48Z</time>
      </trkpt>
      <trkpt lat="43.37713" lon="2.27063">
        <ele>674.828125</ele>
        <time>2022-07-10T11:52:49Z</time>
      </trkpt>
      <trkpt lat="43.3771" lon="2.27063">
        <ele>674.59814453</ele>
        <time>2022-07-10T11:52:50Z</time>
      </trkpt>
      <trkpt lat="43.37708" lon="2.27062">
        <ele>674.18817139</ele>
        <time>2022-07-10T11:52:51Z</time>
      </trkpt>
      <trkpt lat="43.37707" lon="2.27061">
        <ele>674.18817139</ele>
        <time>2022-07-10T11:52:52Z</time>
      </trkpt>
      <trkpt lat="43.37705" lon="2.27059">
        <ele>673.50817871</ele>
        <time>2022-07-10T11:52:53Z</time>
      </trkpt>
      <trkpt lat="43.37704" lon="2.27056">
        <ele>672.99816895</ele>
        <time>2022-07-10T11:52:54Z</time>
      </trkpt>
      <trkpt lat="43.37704" lon="2.27053">
        <ele>672.66815186</ele>
        <time>2022-07-10T11:52:55Z</time>
      </trkpt>
      <trkpt lat="43.37703" lon="2.27048">
        <ele>672.3081665</ele>
        <time>2022-07-10T11:52:56Z</time>
      </trkpt>
      <trkpt lat="43.37702" lon="2.27044">
        <ele>671.92816162</ele>
        <time>2022-07-10T11:52:57Z</time>
      </trkpt>
      <trkpt lat="43.37701" lon="2.27037">
        <ele>671.92816162</ele>
        <time>2022-07-10T11:52:58Z</time>
      </trkpt>
      <trkpt lat="43.377" lon="2.27033">
        <ele>671.36816406</ele>
        <time>2022-07-10T11:52:59Z</time>
      </trkpt>
      <trkpt lat="43.37698" lon="2.27028">
        <ele>671.36816406</ele>
        <time>2022-07-10T11:53:00Z</time>
      </trkpt>
      <trkpt lat="43.37697" lon="2.27023">
        <ele>671.06817627</ele>
        <time>2022-07-10T11:53:01Z</time>
      </trkpt>
      <trkpt lat="43.37694" lon="2.27016">
        <ele>670.84820557</ele>
        <time>2022-07-10T11:53:02Z</time>
      </trkpt>
      <trkpt lat="43.37691" lon="2.27011">
        <ele>670.16821289</ele>
        <time>2022-07-10T11:53:03Z</time>
      </trkpt>
      <trkpt lat="43.37688" lon="2.27006">
        <ele>669.74822998</ele>
        <time>2022-07-10T11:53:04Z</time>
      </trkpt>
      <trkpt lat="43.37685" lon="2.27002">
        <ele>669.29821777</ele>
        <time>2022-07-10T11:53:05Z</time>
      </trkpt>
      <trkpt lat="43.3768" lon="2.26996">
        <ele>669.29821777</ele>
        <time>2022-07-10T11:53:06Z</time>
      </trkpt>
      <trkpt lat="43.37678" lon="2.26992">
        <ele>668.26818848</ele>
        <time>2022-07-10T11:53:07Z</time>
      </trkpt>
      <trkpt lat="43.37676" lon="2.26988">
        <ele>667.86816406</ele>
        <time>2022-07-10T11:53:08Z</time>
      </trkpt>
      <trkpt lat="43.37675" lon="2.26985">
        <ele>667.57818604</ele>
        <time>2022-07-10T11:53:09Z</time>
      </trkpt>
      <trkpt lat="43.37674" lon="2.26981">
        <ele>667.57818604</ele>
        <time>2022-07-10T11:53:10Z</time>
      </trkpt>
      <trkpt lat="43.37672" lon="2.26973">
        <ele>667.15820312</ele>
        <time>2022-07-10T11:53:11Z</time>
      </trkpt>
      <trkpt lat="43.37671" lon="2.26969">
        <ele>666.69818115</ele>
        <time>2022-07-10T11:53:12Z</time>
      </trkpt>
      <trkpt lat="43.3767" lon="2.26965">
        <ele>666.3081665</ele>
        <time>2022-07-10T11:53:13Z</time>
      </trkpt>
      <trkpt lat="43.37669" lon="2.26961">
        <ele>666.32818604</ele>
        <time>2022-07-10T11:53:14Z</time>
      </trkpt>
      <trkpt lat="43.37667" lon="2.26958">
        <ele>666.32818604</ele>
        <time>2022-07-10T11:53:15Z</time>
      </trkpt>
      <trkpt lat="43.37665" lon="2.26953">
        <ele>666.25817871</ele>
        <time>2022-07-10T11:53:16Z</time>
      </trkpt>
      <trkpt lat="43.37662" lon="2.26949">
        <ele>666.04815674</ele>
        <time>2022-07-10T11:53:17Z</time>
      </trkpt>
      <trkpt lat="43.3766" lon="2.26946">
        <ele>665.74816895</ele>
        <time>2022-07-10T11:53:18Z</time>
      </trkpt>
      <trkpt lat="43.37658" lon="2.26943">
        <ele>665.74816895</ele>
        <time>2022-07-10T11:53:19Z</time>
      </trkpt>
      <trkpt lat="43.37655" lon="2.26939">
        <ele>664.89819336</ele>
        <time>2022-07-10T11:53:20Z</time>
      </trkpt>
      <trkpt lat="43.37654" lon="2.26935">
        <ele>664.66821289</ele>
        <time>2022-07-10T11:53:21Z</time>
      </trkpt>
      <trkpt lat="43.37653" lon="2.26929">
        <ele>664.37823486</ele>
        <time>2022-07-10T11:53:22Z</time>
      </trkpt>
      <trkpt lat="43.37652" lon="2.26925">
        <ele>664.18823242</ele>
        <time>2022-07-10T11:53:23Z</time>
      </trkpt>
      <trkpt lat="43.37652" lon="2.2692">
        <ele>664.15820312</ele>
        <time>2022-07-10T11:53:24Z</time>
      </trkpt>
      <trkpt lat="43.37652" lon="2.26915">
        <ele>664.21820068</ele>
        <time>2022-07-10T11:53:25Z</time>
      </trkpt>
      <trkpt lat="43.37651" lon="2.2691">
        <ele>664.21820068</ele>
        <time>2022-07-10T11:53:26Z</time>
      </trkpt>
      <trkpt lat="43.3765" lon="2.26906">
        <ele>664.21820068</ele>
        <time>2022-07-10T11:53:27Z</time>
      </trkpt>
      <trkpt lat="43.37649" lon="2.26901">
        <ele>664.16821289</ele>
        <time>2022-07-10T11:53:28Z</time>
      </trkpt>
      <trkpt lat="43.37647" lon="2.26896">
        <ele>664.16821289</ele>
        <time>2022-07-10T11:53:29Z</time>
      </trkpt>
      <trkpt lat="43.37646" lon="2.26892">
        <ele>663.92822266</ele>
        <time>2022-07-10T11:53:30Z</time>
      </trkpt>
      <trkpt lat="43.37645" lon="2.26889">
        <ele>663.64819336</ele>
        <time>2022-07-10T11:53:31Z</time>
      </trkpt>
      <trkpt lat="43.37642" lon="2.26884">
        <ele>663.64819336</ele>
        <time>2022-07-10T11:53:32Z</time>
      </trkpt>
      <trkpt lat="43.37638" lon="2.2688">
        <ele>663.44818115</ele>
        <time>2022-07-10T11:53:33Z</time>
      </trkpt>
      <trkpt lat="43.37632" lon="2.26874">
        <ele>663.44818115</ele>
        <time>2022-07-10T11:53:34Z</time>
      </trkpt>
      <trkpt lat="43.37628" lon="2.26871">
        <ele>663.03820801</ele>
        <time>2022-07-10T11:53:35Z</time>
      </trkpt>
      <trkpt lat="43.37624" lon="2.26868">
        <ele>663.03820801</ele>
        <time>2022-07-10T11:53:36Z</time>
      </trkpt>
      <trkpt lat="43.3762" lon="2.26864">
        <ele>662.79821777</ele>
        <time>2022-07-10T11:53:37Z</time>
      </trkpt>
      <trkpt lat="43.37613" lon="2.26859">
        <ele>662.57824707</ele>
        <time>2022-07-10T11:53:38Z</time>
      </trkpt>
      <trkpt lat="43.37609" lon="2.26856">
        <ele>662.0982666</ele>
        <time>2022-07-10T11:53:39Z</time>
      </trkpt>
      <trkpt lat="43.37605" lon="2.26852">
        <ele>662.0982666</ele>
        <time>2022-07-10T11:53:40Z</time>
      </trkpt>
      <trkpt lat="43.376" lon="2.26849">
        <ele>661.92828369</ele>
        <time>2022-07-10T11:53:41Z</time>
      </trkpt>
      <trkpt lat="43.37596" lon="2.26845">
        <ele>661.74829102</ele>
        <time>2022-07-10T11:53:42Z</time>
      </trkpt>
      <trkpt lat="43.3759" lon="2.2684">
        <ele>661.77832031</ele>
        <time>2022-07-10T11:53:43Z</time>
      </trkpt>
      <trkpt lat="43.37585" lon="2.26837">
        <ele>661.77832031</ele>
        <time>2022-07-10T11:53:44Z</time>
      </trkpt>
      <trkpt lat="43.37581" lon="2.26834">
        <ele>661.59832764</ele>
        <time>2022-07-10T11:53:45Z</time>
      </trkpt>
      <trkpt lat="43.37577" lon="2.26831">
        <ele>661.49835205</ele>
        <time>2022-07-10T11:53:46Z</time>
      </trkpt>
      <trkpt lat="43.37572" lon="2.26828">
        <ele>661.45837402</ele>
        <time>2022-07-10T11:53:47Z</time>
      </trkpt>
      <trkpt lat="43.37566" lon="2.26823">
        <ele>661.45837402</ele>
        <time>2022-07-10T11:53:48Z</time>
      </trkpt>
      <trkpt lat="43.37562" lon="2.26819">
        <ele>661.3883667</ele>
        <time>2022-07-10T11:53:49Z</time>
      </trkpt>
      <trkpt lat="43.37558" lon="2.26816">
        <ele>661.3883667</ele>
        <time>2022-07-10T11:53:50Z</time>
      </trkpt>
      <trkpt lat="43.37554" lon="2.26812">
        <ele>661.12835693</ele>
        <time>2022-07-10T11:53:51Z</time>
      </trkpt>
      <trkpt lat="43.37549" lon="2.26807">
        <ele>661.00836182</ele>
        <time>2022-07-10T11:53:52Z</time>
      </trkpt>
      <trkpt lat="43.37545" lon="2.26805">
        <ele>660.97833252</ele>
        <time>2022-07-10T11:53:53Z</time>
      </trkpt>
      <trkpt lat="43.37541" lon="2.26802">
        <ele>660.96832275</ele>
        <time>2022-07-10T11:53:54Z</time>
      </trkpt>
      <trkpt lat="43.37536" lon="2.26799">
        <ele>661.04833984</ele>
        <time>2022-07-10T11:53:55Z</time>
      </trkpt>
      <trkpt lat="43.3753" lon="2.26795">
        <ele>661.04833984</ele>
        <time>2022-07-10T11:53:56Z</time>
      </trkpt>
      <trkpt lat="43.37526" lon="2.26792">
        <ele>660.94836426</ele>
        <time>2022-07-10T11:53:57Z</time>
      </trkpt>
      <trkpt lat="43.37522" lon="2.26789">
        <ele>660.91833496</ele>
        <time>2022-07-10T11:53:58Z</time>
      </trkpt>
      <trkpt lat="43.37518" lon="2.26787">
        <ele>660.8583374</ele>
        <time>2022-07-10T11:53:59Z</time>
      </trkpt>
      <trkpt lat="43.37514" lon="2.26785">
        <ele>660.8583374</ele>
        <time>2022-07-10T11:54:00Z</time>
      </trkpt>
      <trkpt lat="43.37508" lon="2.26781">
        <ele>660.66833496</ele>
        <time>2022-07-10T11:54:01Z</time>
      </trkpt>
      <trkpt lat="43.37503" lon="2.26779">
        <ele>660.19836426</ele>
        <time>2022-07-10T11:54:02Z</time>
      </trkpt>
      <trkpt lat="43.37499" lon="2.26777">
        <ele>659.58837891</ele>
        <time>2022-07-10T11:54:03Z</time>
      </trkpt>
      <trkpt lat="43.37495" lon="2.26775">
        <ele>659.58837891</ele>
        <time>2022-07-10T11:54:04Z</time>
      </trkpt>
      <trkpt lat="43.37488" lon="2.26774">
        <ele>658.78839111</ele>
        <time>2022-07-10T11:54:05Z</time>
      </trkpt>
      <trkpt lat="43.37483" lon="2.26773">
        <ele>658.78839111</ele>
        <time>2022-07-10T11:54:06Z</time>
      </trkpt>
      <trkpt lat="43.37478" lon="2.26773">
        <ele>658.64837646</ele>
        <time>2022-07-10T11:54:07Z</time>
      </trkpt>
      <trkpt lat="43.37472" lon="2.26773">
        <ele>658.22839355</ele>
        <time>2022-07-10T11:54:08Z</time>
      </trkpt>
      <trkpt lat="43.37466" lon="2.26772">
        <ele>657.64837646</ele>
        <time>2022-07-10T11:54:09Z</time>
      </trkpt>
      <trkpt lat="43.37457" lon="2.26772">
        <ele>657.34838867</ele>
        <time>2022-07-10T11:54:10Z</time>
      </trkpt>
      <trkpt lat="43.37451" lon="2.26772">
        <ele>656.8883667</ele>
        <time>2022-07-10T11:54:11Z</time>
      </trkpt>
      <trkpt lat="43.37445" lon="2.26771">
        <ele>656.8883667</ele>
        <time>2022-07-10T11:54:12Z</time>
      </trkpt>
      <trkpt lat="43.37439" lon="2.26771">
        <ele>655.64837646</ele>
        <time>2022-07-10T11:54:13Z</time>
      </trkpt>
      <trkpt lat="43.37429" lon="2.2677">
        <ele>655.18835449</ele>
        <time>2022-07-10T11:54:14Z</time>
      </trkpt>
      <trkpt lat="43.37423" lon="2.2677">
        <ele>654.58837891</ele>
        <time>2022-07-10T11:54:15Z</time>
      </trkpt>
      <trkpt lat="43.37416" lon="2.26768">
        <ele>654.58837891</ele>
        <time>2022-07-10T11:54:16Z</time>
      </trkpt>
      <trkpt lat="43.3741" lon="2.26766">
        <ele>654.09838867</ele>
        <time>2022-07-10T11:54:17Z</time>
      </trkpt>
      <trkpt lat="43.37404" lon="2.26765">
        <ele>653.58837891</ele>
        <time>2022-07-10T11:54:18Z</time>
      </trkpt>
      <trkpt lat="43.37396" lon="2.26761">
        <ele>651.93835449</ele>
        <time>2022-07-10T11:54:19Z</time>
      </trkpt>
      <trkpt lat="43.37392" lon="2.26759">
        <ele>651.93835449</ele>
        <time>2022-07-10T11:54:20Z</time>
      </trkpt>
      <trkpt lat="43.37388" lon="2.26755">
        <ele>651.16833496</ele>
        <time>2022-07-10T11:54:21Z</time>
      </trkpt>
      <trkpt lat="43.37384" lon="2.26752">
        <ele>650.79833984</ele>
        <time>2022-07-10T11:54:22Z</time>
      </trkpt>
      <trkpt lat="43.37377" lon="2.26747">
        <ele>650.79833984</ele>
        <time>2022-07-10T11:54:23Z</time>
      </trkpt>
      <trkpt lat="43.37373" lon="2.26743">
        <ele>649.98834229</ele>
        <time>2022-07-10T11:54:24Z</time>
      </trkpt>
      <trkpt lat="43.37369" lon="2.26739">
        <ele>649.98834229</ele>
        <time>2022-07-10T11:54:25Z</time>
      </trkpt>
      <trkpt lat="43.37366" lon="2.26736">
        <ele>649.44836426</ele>
        <time>2022-07-10T11:54:26Z</time>
      </trkpt>
      <trkpt lat="43.37363" lon="2.26735">
        <ele>648.96838379</ele>
        <time>2022-07-10T11:54:27Z</time>
      </trkpt>
      <trkpt lat="43.37357" lon="2.26736">
        <ele>647.51837158</ele>
        <time>2022-07-10T11:54:28Z</time>
      </trkpt>
      <trkpt lat="43.37353" lon="2.26737">
        <ele>646.98834229</ele>
        <time>2022-07-10T11:54:29Z</time>
      </trkpt>
      <trkpt lat="43.37351" lon="2.26736">
        <ele>646.41833496</ele>
        <time>2022-07-10T11:54:30Z</time>
      </trkpt>
      <trkpt lat="43.3735" lon="2.26736">
        <ele>645.8583374</ele>
        <time>2022-07-10T11:54:31Z</time>
      </trkpt>
      <trkpt lat="43.37348" lon="2.26733">
        <ele>645.73834229</ele>
        <time>2022-07-10T11:54:32Z</time>
      </trkpt>
      <trkpt lat="43.37348" lon="2.26731">
        <ele>645.73834229</ele>
        <time>2022-07-10T11:54:33Z</time>
      </trkpt>
      <trkpt lat="43.37347" lon="2.26727">
        <ele>645.26837158</ele>
        <time>2022-07-10T11:54:34Z</time>
      </trkpt>
      <trkpt lat="43.37347" lon="2.26724">
        <ele>645.24835205</ele>
        <time>2022-07-10T11:54:35Z</time>
      </trkpt>
      <trkpt lat="43.37346" lon="2.2672">
        <ele>645.04833984</ele>
        <time>2022-07-10T11:54:36Z</time>
      </trkpt>
      <trkpt lat="43.37347" lon="2.26714">
        <ele>644.94836426</ele>
        <time>2022-07-10T11:54:37Z</time>
      </trkpt>
      <trkpt lat="43.37346" lon="2.26709">
        <ele>644.69836426</ele>
        <time>2022-07-10T11:54:38Z</time>
      </trkpt>
      <trkpt lat="43.37345" lon="2.26704">
        <ele>644.22839355</ele>
        <time>2022-07-10T11:54:39Z</time>
      </trkpt>
      <trkpt lat="43.37343" lon="2.26699">
        <ele>644.22839355</ele>
        <time>2022-07-10T11:54:40Z</time>
      </trkpt>
      <trkpt lat="43.37343" lon="2.26692">
        <ele>643.97839355</ele>
        <time>2022-07-10T11:54:41Z</time>
      </trkpt>
      <trkpt lat="43.37343" lon="2.26686">
        <ele>643.6184082</ele>
        <time>2022-07-10T11:54:42Z</time>
      </trkpt>
      <trkpt lat="43.37342" lon="2.26681">
        <ele>643.10839844</ele>
        <time>2022-07-10T11:54:43Z</time>
      </trkpt>
      <trkpt lat="43.37342" lon="2.26675">
        <ele>642.88842773</ele>
        <time>2022-07-10T11:54:44Z</time>
      </trkpt>
      <trkpt lat="43.37342" lon="2.2667">
        <ele>642.68841553</ele>
        <time>2022-07-10T11:54:45Z</time>
      </trkpt>
      <trkpt lat="43.37341" lon="2.26661">
        <ele>642.50842285</ele>
        <time>2022-07-10T11:54:46Z</time>
      </trkpt>
      <trkpt lat="43.3734" lon="2.26655">
        <ele>641.98840332</ele>
        <time>2022-07-10T11:54:47Z</time>
      </trkpt>
      <trkpt lat="43.37339" lon="2.26648">
        <ele>641.98840332</ele>
        <time>2022-07-10T11:54:48Z</time>
      </trkpt>
      <trkpt lat="43.37338" lon="2.26642">
        <ele>641.26843262</ele>
        <time>2022-07-10T11:54:49Z</time>
      </trkpt>
      <trkpt lat="43.37337" lon="2.26633">
        <ele>640.8984375</ele>
        <time>2022-07-10T11:54:50Z</time>
      </trkpt>
      <trkpt lat="43.37336" lon="2.26626">
        <ele>640.70843506</ele>
        <time>2022-07-10T11:54:51Z</time>
      </trkpt>
      <trkpt lat="43.37335" lon="2.26619">
        <ele>640.70843506</ele>
        <time>2022-07-10T11:54:52Z</time>
      </trkpt>
      <trkpt lat="43.37334" lon="2.26612">
        <ele>640.23846436</ele>
        <time>2022-07-10T11:54:53Z</time>
      </trkpt>
      <trkpt lat="43.37333" lon="2.26606">
        <ele>639.47845459</ele>
        <time>2022-07-10T11:54:54Z</time>
      </trkpt>
      <trkpt lat="43.37331" lon="2.26596">
        <ele>639.19842529</ele>
        <time>2022-07-10T11:54:55Z</time>
      </trkpt>
      <trkpt lat="43.3733" lon="2.26589">
        <ele>639.19842529</ele>
        <time>2022-07-10T11:54:56Z</time>
      </trkpt>
      <trkpt lat="43.37328" lon="2.26581">
        <ele>638.09844971</ele>
        <time>2022-07-10T11:54:57Z</time>
      </trkpt>
      <trkpt lat="43.37326" lon="2.26574">
        <ele>637.44842529</ele>
        <time>2022-07-10T11:54:58Z</time>
      </trkpt>
      <trkpt lat="43.37324" lon="2.26566">
        <ele>636.78845215</ele>
        <time>2022-07-10T11:54:59Z</time>
      </trkpt>
      <trkpt lat="43.37321" lon="2.26554">
        <ele>636.78845215</ele>
        <time>2022-07-10T11:55:00Z</time>
      </trkpt>
      <trkpt lat="43.37319" lon="2.26546">
        <ele>636.34844971</ele>
        <time>2022-07-10T11:55:01Z</time>
      </trkpt>
      <trkpt lat="43.37317" lon="2.26537">
        <ele>636.15844727</ele>
        <time>2022-07-10T11:55:02Z</time>
      </trkpt>
      <trkpt lat="43.37314" lon="2.26529">
        <ele>635.35845947</ele>
        <time>2022-07-10T11:55:03Z</time>
      </trkpt>
      <trkpt lat="43.37309" lon="2.26517">
        <ele>635.04846191</ele>
        <time>2022-07-10T11:55:04Z</time>
      </trkpt>
      <trkpt lat="43.37305" lon="2.2651">
        <ele>634.35845947</ele>
        <time>2022-07-10T11:55:05Z</time>
      </trkpt>
      <trkpt lat="43.37302" lon="2.26504">
        <ele>633.94848633</ele>
        <time>2022-07-10T11:55:06Z</time>
      </trkpt>
      <trkpt lat="43.373" lon="2.265">
        <ele>633.68847656</ele>
        <time>2022-07-10T11:55:07Z</time>
      </trkpt>
      <trkpt lat="43.373" lon="2.26497">
        <ele>633.38848877</ele>
        <time>2022-07-10T11:55:08Z</time>
      </trkpt>
      <trkpt lat="43.37301" lon="2.26494">
        <ele>633.34851074</ele>
        <time>2022-07-10T11:55:09Z</time>
      </trkpt>
      <trkpt lat="43.37302" lon="2.26492">
        <ele>633.20849609</ele>
        <time>2022-07-10T11:55:10Z</time>
      </trkpt>
      <trkpt lat="43.37304" lon="2.26491">
        <ele>633.22851562</ele>
        <time>2022-07-10T11:55:11Z</time>
      </trkpt>
      <trkpt lat="43.37306" lon="2.2649">
        <ele>633.22851562</ele>
        <time>2022-07-10T11:55:12Z</time>
      </trkpt>
      <trkpt lat="43.3731" lon="2.26489">
        <ele>633.27850342</ele>
        <time>2022-07-10T11:55:13Z</time>
      </trkpt>
      <trkpt lat="43.37313" lon="2.26488">
        <ele>633.27850342</ele>
        <time>2022-07-10T11:55:14Z</time>
      </trkpt>
      <trkpt lat="43.37316" lon="2.26486">
        <ele>633.17852783</ele>
        <time>2022-07-10T11:55:15Z</time>
      </trkpt>
      <trkpt lat="43.37319" lon="2.26484">
        <ele>633.07855225</ele>
        <time>2022-07-10T11:55:16Z</time>
      </trkpt>
      <trkpt lat="43.37324" lon="2.26482">
        <ele>633.07855225</ele>
        <time>2022-07-10T11:55:17Z</time>
      </trkpt>
      <trkpt lat="43.37327" lon="2.2648">
        <ele>632.99853516</ele>
        <time>2022-07-10T11:55:18Z</time>
      </trkpt>
      <trkpt lat="43.3733" lon="2.26478">
        <ele>633.07855225</ele>
        <time>2022-07-10T11:55:19Z</time>
      </trkpt>
      <trkpt lat="43.37333" lon="2.26477">
        <ele>633.00854492</ele>
        <time>2022-07-10T11:55:20Z</time>
      </trkpt>
      <trkpt lat="43.37339" lon="2.26475">
        <ele>632.9385376</ele>
        <time>2022-07-10T11:55:21Z</time>
      </trkpt>
      <trkpt lat="43.37342" lon="2.26473">
        <ele>632.9385376</ele>
        <time>2022-07-10T11:55:22Z</time>
      </trkpt>
      <trkpt lat="43.37345" lon="2.26472">
        <ele>632.83856201</ele>
        <time>2022-07-10T11:55:23Z</time>
      </trkpt>
      <trkpt lat="43.37349" lon="2.26471">
        <ele>632.35858154</ele>
        <time>2022-07-10T11:55:24Z</time>
      </trkpt>
      <trkpt lat="43.37352" lon="2.2647">
        <ele>631.98858643</ele>
        <time>2022-07-10T11:55:25Z</time>
      </trkpt>
      <trkpt lat="43.37358" lon="2.26468">
        <ele>631.71856689</ele>
        <time>2022-07-10T11:55:26Z</time>
      </trkpt>
      <trkpt lat="43.37361" lon="2.26468">
        <ele>631.39855957</ele>
        <time>2022-07-10T11:55:27Z</time>
      </trkpt>
      <trkpt lat="43.37365" lon="2.26468">
        <ele>631.1385498</ele>
        <time>2022-07-10T11:55:28Z</time>
      </trkpt>
      <trkpt lat="43.3737" lon="2.26468">
        <ele>630.57855225</ele>
        <time>2022-07-10T11:55:29Z</time>
      </trkpt>
      <trkpt lat="43.37374" lon="2.2647">
        <ele>629.85858154</ele>
        <time>2022-07-10T11:55:30Z</time>
      </trkpt>
      <trkpt lat="43.3738" lon="2.26472">
        <ele>629.37860107</ele>
        <time>2022-07-10T11:55:31Z</time>
      </trkpt>
      <trkpt lat="43.37385" lon="2.26474">
        <ele>628.83862305</ele>
        <time>2022-07-10T11:55:32Z</time>
      </trkpt>
      <trkpt lat="43.3739" lon="2.26477">
        <ele>628.38861084</ele>
        <time>2022-07-10T11:55:33Z</time>
      </trkpt>
      <trkpt lat="43.37395" lon="2.2648">
        <ele>628.38861084</ele>
        <time>2022-07-10T11:55:34Z</time>
      </trkpt>
      <trkpt lat="43.374" lon="2.26483">
        <ele>628.02862549</ele>
        <time>2022-07-10T11:55:35Z</time>
      </trkpt>
      <trkpt lat="43.37407" lon="2.26487">
        <ele>626.73864746</ele>
        <time>2022-07-10T11:55:36Z</time>
      </trkpt>
      <trkpt lat="43.37412" lon="2.2649">
        <ele>626.20861816</ele>
        <time>2022-07-10T11:55:37Z</time>
      </trkpt>
      <trkpt lat="43.37416" lon="2.26492">
        <ele>625.62860107</ele>
        <time>2022-07-10T11:55:38Z</time>
      </trkpt>
      <trkpt lat="43.3742" lon="2.26494">
        <ele>625.15863037</ele>
        <time>2022-07-10T11:55:39Z</time>
      </trkpt>
      <trkpt lat="43.37425" lon="2.26496">
        <ele>624.98864746</ele>
        <time>2022-07-10T11:55:40Z</time>
      </trkpt>
      <trkpt lat="43.37428" lon="2.26497">
        <ele>624.56866455</ele>
        <time>2022-07-10T11:55:41Z</time>
      </trkpt>
      <trkpt lat="43.37424" lon="2.26499">
        <ele>625.38000488</ele>
        <time>2022-07-10T11:55:42Z</time>
      </trkpt>
      <trkpt lat="43.37427" lon="2.265">
        <ele>625.38000488</ele>
        <time>2022-07-10T11:55:43Z</time>
      </trkpt>
      <trkpt lat="43.37431" lon="2.26502">
        <ele>624.07000732</ele>
        <time>2022-07-10T11:55:44Z</time>
      </trkpt>
      <trkpt lat="43.37434" lon="2.26503">
        <ele>623.29998779</ele>
        <time>2022-07-10T11:55:45Z</time>
      </trkpt>
      <trkpt lat="43.37437" lon="2.26505">
        <ele>623.29998779</ele>
        <time>2022-07-10T11:55:46Z</time>
      </trkpt>
      <trkpt lat="43.3744" lon="2.26506">
        <ele>621.60998535</ele>
        <time>2022-07-10T11:55:47Z</time>
      </trkpt>
      <trkpt lat="43.37443" lon="2.26508">
        <ele>621.60998535</ele>
        <time>2022-07-10T11:55:48Z</time>
      </trkpt>
      <trkpt lat="43.37449" lon="2.2651">
        <ele>619.86999512</ele>
        <time>2022-07-10T11:55:49Z</time>
      </trkpt>
      <trkpt lat="43.37453" lon="2.26513">
        <ele>619.15997314</ele>
        <time>2022-07-10T11:55:50Z</time>
      </trkpt>
      <trkpt lat="43.37458" lon="2.26516">
        <ele>619.15997314</ele>
        <time>2022-07-10T11:55:51Z</time>
      </trkpt>
      <trkpt lat="43.37462" lon="2.26518">
        <ele>616.70996094</ele>
        <time>2022-07-10T11:55:52Z</time>
      </trkpt>
      <trkpt lat="43.37468" lon="2.26522">
        <ele>615.61993408</ele>
        <time>2022-07-10T11:55:53Z</time>
      </trkpt>
      <trkpt lat="43.37473" lon="2.26524">
        <ele>614.32995605</ele>
        <time>2022-07-10T11:55:54Z</time>
      </trkpt>
      <trkpt lat="43.37478" lon="2.26527">
        <ele>613.59997559</ele>
        <time>2022-07-10T11:55:55Z</time>
      </trkpt>
      <trkpt lat="43.37482" lon="2.2653">
        <ele>612.7699585</ele>
        <time>2022-07-10T11:55:56Z</time>
      </trkpt>
      <trkpt lat="43.37488" lon="2.26534">
        <ele>612.7699585</ele>
        <time>2022-07-10T11:55:57Z</time>
      </trkpt>
      <trkpt lat="43.37492" lon="2.26537">
        <ele>611.69995117</ele>
        <time>2022-07-10T11:55:58Z</time>
      </trkpt>
      <trkpt lat="43.37495" lon="2.26539">
        <ele>611.69995117</ele>
        <time>2022-07-10T11:55:59Z</time>
      </trkpt>
      <trkpt lat="43.37499" lon="2.26541">
        <ele>610.77996826</ele>
        <time>2022-07-10T11:56:00Z</time>
      </trkpt>
      <trkpt lat="43.37502" lon="2.26542">
        <ele>610.31994629</ele>
        <time>2022-07-10T11:56:01Z</time>
      </trkpt>
      <trkpt lat="43.37506" lon="2.26543">
        <ele>609.72991943</ele>
        <time>2022-07-10T11:56:02Z</time>
      </trkpt>
      <trkpt lat="43.37509" lon="2.26543">
        <ele>609.13989258</ele>
        <time>2022-07-10T11:56:03Z</time>
      </trkpt>
      <trkpt lat="43.37511" lon="2.26543">
        <ele>608.53991699</ele>
        <time>2022-07-10T11:56:04Z</time>
      </trkpt>
      <trkpt lat="43.37513" lon="2.26544">
        <ele>608.53991699</ele>
        <time>2022-07-10T11:56:05Z</time>
      </trkpt>
      <trkpt lat="43.37515" lon="2.26544">
        <ele>607.85992432</ele>
        <time>2022-07-10T11:56:06Z</time>
      </trkpt>
      <trkpt lat="43.37517" lon="2.26543">
        <ele>607.85992432</ele>
        <time>2022-07-10T11:56:07Z</time>
      </trkpt>
      <trkpt lat="43.37519" lon="2.26543">
        <ele>607.82989502</ele>
        <time>2022-07-10T11:56:08Z</time>
      </trkpt>
      <trkpt lat="43.3752" lon="2.26542">
        <ele>607.89990234</ele>
        <time>2022-07-10T11:56:10Z</time>
      </trkpt>
      <trkpt lat="43.37526" lon="2.2654">
        <ele>608.40991211</ele>
        <time>2022-07-10T11:56:16Z</time>
      </trkpt>
      <trkpt lat="43.37527" lon="2.26541">
        <ele>608.38989258</ele>
        <time>2022-07-10T11:56:17Z</time>
      </trkpt>
      <trkpt lat="43.37528" lon="2.26541">
        <ele>608.38989258</ele>
        <time>2022-07-10T11:56:18Z</time>
      </trkpt>
      <trkpt lat="43.37529" lon="2.26541">
        <ele>608.38989258</ele>
        <time>2022-07-10T11:56:19Z</time>
      </trkpt>
      <trkpt lat="43.37529" lon="2.26542">
        <ele>608.56988525</ele>
        <time>2022-07-10T11:56:20Z</time>
      </trkpt>
      <trkpt lat="43.37529" lon="2.26543">
        <ele>608.56988525</ele>
        <time>2022-07-10T11:56:21Z</time>
      </trkpt>
      <trkpt lat="43.37536" lon="2.2654">
        <ele>608.84991455</ele>
        <time>2022-07-10T11:56:30Z</time>
      </trkpt>
      <trkpt lat="43.37538" lon="2.2654">
        <ele>608.83990479</ele>
        <time>2022-07-10T11:56:31Z</time>
      </trkpt>
      <trkpt lat="43.37539" lon="2.26539">
        <ele>608.77990723</ele>
        <time>2022-07-10T11:56:32Z</time>
      </trkpt>
      <trkpt lat="43.37539" lon="2.2654">
        <ele>608.69989014</ele>
        <time>2022-07-10T11:56:33Z</time>
      </trkpt>
      <trkpt lat="43.3754" lon="2.26539">
        <ele>608.69989014</ele>
        <time>2022-07-10T11:56:34Z</time>
      </trkpt>
      <trkpt lat="43.37541" lon="2.26538">
        <ele>608.72991943</ele>
        <time>2022-07-10T11:56:36Z</time>
      </trkpt>
      <trkpt lat="43.37541" lon="2.26537">
        <ele>608.76989746</ele>
        <time>2022-07-10T11:56:37Z</time>
      </trkpt>
      <trkpt lat="43.37543" lon="2.26531">
        <ele>608.72991943</ele>
        <time>2022-07-10T11:56:42Z</time>
      </trkpt>
      <trkpt lat="43.37543" lon="2.2653">
        <ele>608.85992432</ele>
        <time>2022-07-10T11:56:43Z</time>
      </trkpt>
      <trkpt lat="43.37542" lon="2.2653">
        <ele>609.03991699</ele>
        <time>2022-07-10T11:56:44Z</time>
      </trkpt>
      <trkpt lat="43.37541" lon="2.26529">
        <ele>609.26989746</ele>
        <time>2022-07-10T11:56:45Z</time>
      </trkpt>
      <trkpt lat="43.37539" lon="2.26529">
        <ele>609.56988525</ele>
        <time>2022-07-10T11:56:46Z</time>
      </trkpt>
      <trkpt lat="43.37537" lon="2.26528">
        <ele>609.88989258</ele>
        <time>2022-07-10T11:56:47Z</time>
      </trkpt>
      <trkpt lat="43.37536" lon="2.26526">
        <ele>610.17987061</ele>
        <time>2022-07-10T11:56:48Z</time>
      </trkpt>
      <trkpt lat="43.37534" lon="2.26526">
        <ele>610.42987061</ele>
        <time>2022-07-10T11:56:49Z</time>
      </trkpt>
      <trkpt lat="43.37533" lon="2.26524">
        <ele>610.42987061</ele>
        <time>2022-07-10T11:56:50Z</time>
      </trkpt>
      <trkpt lat="43.37529" lon="2.26524">
        <ele>610.61987305</ele>
        <time>2022-07-10T11:56:51Z</time>
      </trkpt>
      <trkpt lat="43.37528" lon="2.26523">
        <ele>610.63989258</ele>
        <time>2022-07-10T11:56:52Z</time>
      </trkpt>
      <trkpt lat="43.37526" lon="2.26522">
        <ele>610.55987549</ele>
        <time>2022-07-10T11:56:53Z</time>
      </trkpt>
      <trkpt lat="43.37525" lon="2.2652">
        <ele>610.40985107</ele>
        <time>2022-07-10T11:56:54Z</time>
      </trkpt>
      <trkpt lat="43.37523" lon="2.2652">
        <ele>610.29986572</ele>
        <time>2022-07-10T11:56:55Z</time>
      </trkpt>
      <trkpt lat="43.37521" lon="2.26518">
        <ele>610.29986572</ele>
        <time>2022-07-10T11:56:56Z</time>
      </trkpt>
      <trkpt lat="43.3752" lon="2.26518">
        <ele>610.04986572</ele>
        <time>2022-07-10T11:56:57Z</time>
      </trkpt>
      <trkpt lat="43.37517" lon="2.26517">
        <ele>609.90985107</ele>
        <time>2022-07-10T11:56:58Z</time>
      </trkpt>
      <trkpt lat="43.37515" lon="2.26516">
        <ele>609.81982422</ele>
        <time>2022-07-10T11:56:59Z</time>
      </trkpt>
      <trkpt lat="43.37512" lon="2.26516">
        <ele>609.77984619</ele>
        <time>2022-07-10T11:57:00Z</time>
      </trkpt>
      <trkpt lat="43.37508" lon="2.26514">
        <ele>609.71984863</ele>
        <time>2022-07-10T11:57:01Z</time>
      </trkpt>
      <trkpt lat="43.37507" lon="2.26513">
        <ele>609.71984863</ele>
        <time>2022-07-10T11:57:02Z</time>
      </trkpt>
      <trkpt lat="43.37505" lon="2.26511">
        <ele>609.7298584</ele>
        <time>2022-07-10T11:57:03Z</time>
      </trkpt>
      <trkpt lat="43.37503" lon="2.2651">
        <ele>609.71984863</ele>
        <time>2022-07-10T11:57:04Z</time>
      </trkpt>
      <trkpt lat="43.37499" lon="2.26507">
        <ele>609.71984863</ele>
        <time>2022-07-10T11:57:05Z</time>
      </trkpt>
      <trkpt lat="43.37496" lon="2.26506">
        <ele>609.77984619</ele>
        <time>2022-07-10T11:57:06Z</time>
      </trkpt>
      <trkpt lat="43.37494" lon="2.26504">
        <ele>609.77984619</ele>
        <time>2022-07-10T11:57:07Z</time>
      </trkpt>
      <trkpt lat="43.37492" lon="2.26501">
        <ele>609.76983643</ele>
        <time>2022-07-10T11:57:08Z</time>
      </trkpt>
      <trkpt lat="43.3749" lon="2.26498">
        <ele>609.55981445</ele>
        <time>2022-07-10T11:57:09Z</time>
      </trkpt>
      <trkpt lat="43.37487" lon="2.26493">
        <ele>609.38983154</ele>
        <time>2022-07-10T11:57:10Z</time>
      </trkpt>
      <trkpt lat="43.37486" lon="2.2649">
        <ele>609.14984131</ele>
        <time>2022-07-10T11:57:11Z</time>
      </trkpt>
      <trkpt lat="43.37484" lon="2.26487">
        <ele>609.06982422</ele>
        <time>2022-07-10T11:57:12Z</time>
      </trkpt>
      <trkpt lat="43.37482" lon="2.26484">
        <ele>608.86981201</ele>
        <time>2022-07-10T11:57:13Z</time>
      </trkpt>
      <trkpt lat="43.37479" lon="2.26479">
        <ele>608.86981201</ele>
        <time>2022-07-10T11:57:14Z</time>
      </trkpt>
      <trkpt lat="43.37477" lon="2.26476">
        <ele>608.59979248</ele>
        <time>2022-07-10T11:57:15Z</time>
      </trkpt>
      <trkpt lat="43.37475" lon="2.26473">
        <ele>608.51977539</ele>
        <time>2022-07-10T11:57:16Z</time>
      </trkpt>
      <trkpt lat="43.37475" lon="2.2647">
        <ele>608.61975098</ele>
        <time>2022-07-10T11:57:17Z</time>
      </trkpt>
      <trkpt lat="43.37475" lon="2.26468">
        <ele>608.61975098</ele>
        <time>2022-07-10T11:57:18Z</time>
      </trkpt>
      <trkpt lat="43.37474" lon="2.26464">
        <ele>608.48974609</ele>
        <time>2022-07-10T11:57:19Z</time>
      </trkpt>
      <trkpt lat="43.37472" lon="2.2646">
        <ele>608.48974609</ele>
        <time>2022-07-10T11:57:20Z</time>
      </trkpt>
      <trkpt lat="43.3747" lon="2.26456">
        <ele>608.32977295</ele>
        <time>2022-07-10T11:57:21Z</time>
      </trkpt>
      <trkpt lat="43.37468" lon="2.26453">
        <ele>608.32977295</ele>
        <time>2022-07-10T11:57:22Z</time>
      </trkpt>
      <trkpt lat="43.37467" lon="2.2645">
        <ele>608.4397583</ele>
        <time>2022-07-10T11:57:23Z</time>
      </trkpt>
      <trkpt lat="43.37466" lon="2.26448">
        <ele>608.4397583</ele>
        <time>2022-07-10T11:57:24Z</time>
      </trkpt>
      <trkpt lat="43.37466" lon="2.26446">
        <ele>608.4397583</ele>
        <time>2022-07-10T11:57:25Z</time>
      </trkpt>
      <trkpt lat="43.37465" lon="2.26443">
        <ele>608.19976807</ele>
        <time>2022-07-10T11:57:26Z</time>
      </trkpt>
      <trkpt lat="43.37465" lon="2.26439">
        <ele>608.13977051</ele>
        <time>2022-07-10T11:57:27Z</time>
      </trkpt>
      <trkpt lat="43.37464" lon="2.26436">
        <ele>608.09979248</ele>
        <time>2022-07-10T11:57:28Z</time>
      </trkpt>
      <trkpt lat="43.37463" lon="2.26434">
        <ele>608.08978271</ele>
        <time>2022-07-10T11:57:29Z</time>
      </trkpt>
      <trkpt lat="43.37463" lon="2.26432">
        <ele>608.08978271</ele>
        <time>2022-07-10T11:57:30Z</time>
      </trkpt>
      <trkpt lat="43.37463" lon="2.2643">
        <ele>608.25976562</ele>
        <time>2022-07-10T11:57:31Z</time>
      </trkpt>
      <trkpt lat="43.3746" lon="2.26425">
        <ele>608.25976562</ele>
        <time>2022-07-10T11:57:32Z</time>
      </trkpt>
      <trkpt lat="43.37459" lon="2.26421">
        <ele>608.28979492</ele>
        <time>2022-07-10T11:57:33Z</time>
      </trkpt>
      <trkpt lat="43.37457" lon="2.26419">
        <ele>608.48980713</ele>
        <time>2022-07-10T11:57:34Z</time>
      </trkpt>
      <trkpt lat="43.37456" lon="2.26416">
        <ele>608.48980713</ele>
        <time>2022-07-10T11:57:35Z</time>
      </trkpt>
      <trkpt lat="43.37455" lon="2.26412">
        <ele>608.47979736</ele>
        <time>2022-07-10T11:57:36Z</time>
      </trkpt>
      <trkpt lat="43.37455" lon="2.2641">
        <ele>608.55981445</ele>
        <time>2022-07-10T11:57:37Z</time>
      </trkpt>
      <trkpt lat="43.37454" lon="2.26407">
        <ele>608.63983154</ele>
        <time>2022-07-10T11:57:38Z</time>
      </trkpt>
      <trkpt lat="43.37453" lon="2.26404">
        <ele>608.74981689</ele>
        <time>2022-07-10T11:57:39Z</time>
      </trkpt>
      <trkpt lat="43.37453" lon="2.26401">
        <ele>608.95983887</ele>
        <time>2022-07-10T11:57:40Z</time>
      </trkpt>
      <trkpt lat="43.37451" lon="2.26396">
        <ele>609.29986572</ele>
        <time>2022-07-10T11:57:41Z</time>
      </trkpt>
      <trkpt lat="43.37451" lon="2.26393">
        <ele>609.59985352</ele>
        <time>2022-07-10T11:57:42Z</time>
      </trkpt>
      <trkpt lat="43.3745" lon="2.26389">
        <ele>610.01983643</ele>
        <time>2022-07-10T11:57:43Z</time>
      </trkpt>
      <trkpt lat="43.37449" lon="2.26386">
        <ele>610.38983154</ele>
        <time>2022-07-10T11:57:44Z</time>
      </trkpt>
      <trkpt lat="43.37447" lon="2.26382">
        <ele>610.38983154</ele>
        <time>2022-07-10T11:57:45Z</time>
      </trkpt>
      <trkpt lat="43.37443" lon="2.26376">
        <ele>610.77984619</ele>
        <time>2022-07-10T11:57:46Z</time>
      </trkpt>
      <trkpt lat="43.37441" lon="2.26372">
        <ele>611.01983643</ele>
        <time>2022-07-10T11:57:47Z</time>
      </trkpt>
      <trkpt lat="43.3744" lon="2.26369">
        <ele>611.01983643</ele>
        <time>2022-07-10T11:57:48Z</time>
      </trkpt>
      <trkpt lat="43.37439" lon="2.26366">
        <ele>611.49981689</ele>
        <time>2022-07-10T11:57:49Z</time>
      </trkpt>
      <trkpt lat="43.37437" lon="2.26361">
        <ele>611.49981689</ele>
        <time>2022-07-10T11:57:50Z</time>
      </trkpt>
      <trkpt lat="43.37436" lon="2.26358">
        <ele>611.99981689</ele>
        <time>2022-07-10T11:57:51Z</time>
      </trkpt>
      <trkpt lat="43.37434" lon="2.26354">
        <ele>612.36981201</ele>
        <time>2022-07-10T11:57:52Z</time>
      </trkpt>
      <trkpt lat="43.37433" lon="2.26351">
        <ele>612.47979736</ele>
        <time>2022-07-10T11:57:53Z</time>
      </trkpt>
      <trkpt lat="43.37432" lon="2.26347">
        <ele>612.58978271</ele>
        <time>2022-07-10T11:57:54Z</time>
      </trkpt>
      <trkpt lat="43.3743" lon="2.26342">
        <ele>612.90979004</ele>
        <time>2022-07-10T11:57:55Z</time>
      </trkpt>
      <trkpt lat="43.3743" lon="2.26339">
        <ele>612.97979736</ele>
        <time>2022-07-10T11:57:56Z</time>
      </trkpt>
      <trkpt lat="43.3743" lon="2.26335">
        <ele>613.25982666</ele>
        <time>2022-07-10T11:57:57Z</time>
      </trkpt>
      <trkpt lat="43.37431" lon="2.26331">
        <ele>613.35980225</ele>
        <time>2022-07-10T11:57:58Z</time>
      </trkpt>
      <trkpt lat="43.37432" lon="2.26328">
        <ele>613.35980225</ele>
        <time>2022-07-10T11:57:59Z</time>
      </trkpt>
      <trkpt lat="43.37433" lon="2.26325">
        <ele>613.58978271</ele>
        <time>2022-07-10T11:58:00Z</time>
      </trkpt>
      <trkpt lat="43.37433" lon="2.26323">
        <ele>613.58978271</ele>
        <time>2022-07-10T11:58:01Z</time>
      </trkpt>
      <trkpt lat="43.37434" lon="2.2632">
        <ele>613.99975586</ele>
        <time>2022-07-10T11:58:02Z</time>
      </trkpt>
      <trkpt lat="43.37434" lon="2.26317">
        <ele>613.99975586</ele>
        <time>2022-07-10T11:58:03Z</time>
      </trkpt>
      <trkpt lat="43.37435" lon="2.26314">
        <ele>614.24975586</ele>
        <time>2022-07-10T11:58:04Z</time>
      </trkpt>
      <trkpt lat="43.37437" lon="2.26313">
        <ele>614.24975586</ele>
        <time>2022-07-10T11:58:05Z</time>
      </trkpt>
      <trkpt lat="43.37439" lon="2.26311">
        <ele>614.38977051</ele>
        <time>2022-07-10T11:58:06Z</time>
      </trkpt>
      <trkpt lat="43.3744" lon="2.26311">
        <ele>614.33978271</ele>
        <time>2022-07-10T11:58:07Z</time>
      </trkpt>
      <trkpt lat="43.37443" lon="2.26309">
        <ele>614.35980225</ele>
        <time>2022-07-10T11:58:08Z</time>
      </trkpt>
      <trkpt lat="43.37444" lon="2.26307">
        <ele>614.43981934</ele>
        <time>2022-07-10T11:58:09Z</time>
      </trkpt>
      <trkpt lat="43.37446" lon="2.26306">
        <ele>614.38983154</ele>
        <time>2022-07-10T11:58:10Z</time>
      </trkpt>
      <trkpt lat="43.37448" lon="2.26304">
        <ele>614.65985107</ele>
        <time>2022-07-10T11:58:11Z</time>
      </trkpt>
      <trkpt lat="43.37449" lon="2.26303">
        <ele>614.65985107</ele>
        <time>2022-07-10T11:58:12Z</time>
      </trkpt>
      <trkpt lat="43.37452" lon="2.26301">
        <ele>614.65985107</ele>
        <time>2022-07-10T11:58:13Z</time>
      </trkpt>
      <trkpt lat="43.37454" lon="2.263">
        <ele>614.68988037</ele>
        <time>2022-07-10T11:58:14Z</time>
      </trkpt>
      <trkpt lat="43.37456" lon="2.26299">
        <ele>614.59985352</ele>
        <time>2022-07-10T11:58:15Z</time>
      </trkpt>
      <trkpt lat="43.37457" lon="2.26298">
        <ele>614.61987305</ele>
        <time>2022-07-10T11:58:16Z</time>
      </trkpt>
      <trkpt lat="43.3746" lon="2.26295">
        <ele>614.61987305</ele>
        <time>2022-07-10T11:58:17Z</time>
      </trkpt>
      <trkpt lat="43.37462" lon="2.26295">
        <ele>614.83984375</ele>
        <time>2022-07-10T11:58:18Z</time>
      </trkpt>
      <trkpt lat="43.37464" lon="2.26294">
        <ele>614.83984375</ele>
        <time>2022-07-10T11:58:19Z</time>
      </trkpt>
      <trkpt lat="43.37464" lon="2.26293">
        <ele>615.25982666</ele>
        <time>2022-07-10T11:58:20Z</time>
      </trkpt>
      <trkpt lat="43.37466" lon="2.26291">
        <ele>615.4498291</ele>
        <time>2022-07-10T11:58:21Z</time>
      </trkpt>
      <trkpt lat="43.37468" lon="2.2629">
        <ele>615.56982422</ele>
        <time>2022-07-10T11:58:22Z</time>
      </trkpt>
      <trkpt lat="43.3747" lon="2.2629">
        <ele>615.81982422</ele>
        <time>2022-07-10T11:58:23Z</time>
      </trkpt>
      <trkpt lat="43.37472" lon="2.26289">
        <ele>615.9498291</ele>
        <time>2022-07-10T11:58:24Z</time>
      </trkpt>
      <trkpt lat="43.37474" lon="2.26288">
        <ele>616.13983154</ele>
        <time>2022-07-10T11:58:25Z</time>
      </trkpt>
      <trkpt lat="43.37478" lon="2.26288">
        <ele>616.13983154</ele>
        <time>2022-07-10T11:58:26Z</time>
      </trkpt>
      <trkpt lat="43.3748" lon="2.26287">
        <ele>616.56982422</ele>
        <time>2022-07-10T11:58:27Z</time>
      </trkpt>
      <trkpt lat="43.37482" lon="2.26287">
        <ele>616.64984131</ele>
        <time>2022-07-10T11:58:28Z</time>
      </trkpt>
      <trkpt lat="43.37483" lon="2.26287">
        <ele>616.77984619</ele>
        <time>2022-07-10T11:58:29Z</time>
      </trkpt>
      <trkpt lat="43.37485" lon="2.26287">
        <ele>616.89984131</ele>
        <time>2022-07-10T11:58:30Z</time>
      </trkpt>
      <trkpt lat="43.37486" lon="2.26285">
        <ele>617.00982666</ele>
        <time>2022-07-10T11:58:31Z</time>
      </trkpt>
      <trkpt lat="43.37486" lon="2.26283">
        <ele>617.26983643</ele>
        <time>2022-07-10T11:58:32Z</time>
      </trkpt>
      <trkpt lat="43.37488" lon="2.26282">
        <ele>617.26983643</ele>
        <time>2022-07-10T11:58:33Z</time>
      </trkpt>
      <trkpt lat="43.3749" lon="2.2628">
        <ele>617.89984131</ele>
        <time>2022-07-10T11:58:34Z</time>
      </trkpt>
      <trkpt lat="43.37494" lon="2.26277">
        <ele>618.05981445</ele>
        <time>2022-07-10T11:58:35Z</time>
      </trkpt>
      <trkpt lat="43.37495" lon="2.26275">
        <ele>618.13983154</ele>
        <time>2022-07-10T11:58:36Z</time>
      </trkpt>
      <trkpt lat="43.37497" lon="2.26273">
        <ele>618.17980957</ele>
        <time>2022-07-10T11:58:37Z</time>
      </trkpt>
      <trkpt lat="43.37499" lon="2.26271">
        <ele>618.35980225</ele>
        <time>2022-07-10T11:58:38Z</time>
      </trkpt>
      <trkpt lat="43.37502" lon="2.26269">
        <ele>618.35980225</ele>
        <time>2022-07-10T11:58:39Z</time>
      </trkpt>
      <trkpt lat="43.37504" lon="2.26267">
        <ele>618.6998291</ele>
        <time>2022-07-10T11:58:40Z</time>
      </trkpt>
      <trkpt lat="43.37506" lon="2.26265">
        <ele>618.80981445</ele>
        <time>2022-07-10T11:58:41Z</time>
      </trkpt>
      <trkpt lat="43.37509" lon="2.26264">
        <ele>618.85980225</ele>
        <time>2022-07-10T11:58:42Z</time>
      </trkpt>
      <trkpt lat="43.37511" lon="2.26262">
        <ele>618.87982178</ele>
        <time>2022-07-10T11:58:43Z</time>
      </trkpt>
      <trkpt lat="43.37515" lon="2.26262">
        <ele>618.95983887</ele>
        <time>2022-07-10T11:58:44Z</time>
      </trkpt>
      <trkpt lat="43.37517" lon="2.26261">
        <ele>619.10986328</ele>
        <time>2022-07-10T11:58:45Z</time>
      </trkpt>
      <trkpt lat="43.37519" lon="2.26261">
        <ele>619.33984375</ele>
        <time>2022-07-10T11:58:46Z</time>
      </trkpt>
      <trkpt lat="43.37521" lon="2.26261">
        <ele>619.33984375</ele>
        <time>2022-07-10T11:58:47Z</time>
      </trkpt>
      <trkpt lat="43.37524" lon="2.26261">
        <ele>619.66986084</ele>
        <time>2022-07-10T11:58:48Z</time>
      </trkpt>
      <trkpt lat="43.37526" lon="2.26261">
        <ele>619.81988525</ele>
        <time>2022-07-10T11:58:49Z</time>
      </trkpt>
      <trkpt lat="43.37529" lon="2.26261">
        <ele>620.08990479</ele>
        <time>2022-07-10T11:58:50Z</time>
      </trkpt>
      <trkpt lat="43.37532" lon="2.26259">
        <ele>620.19989014</ele>
        <time>2022-07-10T11:58:51Z</time>
      </trkpt>
      <trkpt lat="43.37534" lon="2.26259">
        <ele>620.54986572</ele>
        <time>2022-07-10T11:58:52Z</time>
      </trkpt>
      <trkpt lat="43.37537" lon="2.26257">
        <ele>620.84985352</ele>
        <time>2022-07-10T11:58:53Z</time>
      </trkpt>
      <trkpt lat="43.37539" lon="2.26256">
        <ele>620.84985352</ele>
        <time>2022-07-10T11:58:54Z</time>
      </trkpt>
      <trkpt lat="43.37541" lon="2.26254">
        <ele>621.08984375</ele>
        <time>2022-07-10T11:58:55Z</time>
      </trkpt>
      <trkpt lat="43.37542" lon="2.26252">
        <ele>621.56982422</ele>
        <time>2022-07-10T11:58:56Z</time>
      </trkpt>
      <trkpt lat="43.37542" lon="2.2625">
        <ele>621.74981689</ele>
        <time>2022-07-10T11:58:57Z</time>
      </trkpt>
      <trkpt lat="43.3754" lon="2.26249">
        <ele>621.89984131</ele>
        <time>2022-07-10T11:58:58Z</time>
      </trkpt>
      <trkpt lat="43.37538" lon="2.26248">
        <ele>621.89984131</ele>
        <time>2022-07-10T11:58:59Z</time>
      </trkpt>
      <trkpt lat="43.37538" lon="2.26245">
        <ele>621.9798584</ele>
        <time>2022-07-10T11:59:00Z</time>
      </trkpt>
      <trkpt lat="43.37538" lon="2.26243">
        <ele>621.92987061</ele>
        <time>2022-07-10T11:59:01Z</time>
      </trkpt>
      <trkpt lat="43.37533" lon="2.26241">
        <ele>621.90985107</ele>
        <time>2022-07-10T11:59:02Z</time>
      </trkpt>
      <trkpt lat="43.37531" lon="2.26238">
        <ele>621.90985107</ele>
        <time>2022-07-10T11:59:03Z</time>
      </trkpt>
      <trkpt lat="43.37529" lon="2.26237">
        <ele>621.89984131</ele>
        <time>2022-07-10T11:59:04Z</time>
      </trkpt>
      <trkpt lat="43.37526" lon="2.26233">
        <ele>621.92987061</ele>
        <time>2022-07-10T11:59:05Z</time>
      </trkpt>
      <trkpt lat="43.37523" lon="2.2623">
        <ele>622.15985107</ele>
        <time>2022-07-10T11:59:06Z</time>
      </trkpt>
      <trkpt lat="43.37521" lon="2.26228">
        <ele>622.2298584</ele>
        <time>2022-07-10T11:59:07Z</time>
      </trkpt>
      <trkpt lat="43.37519" lon="2.26226">
        <ele>622.30987549</ele>
        <time>2022-07-10T11:59:08Z</time>
      </trkpt>
      <trkpt lat="43.37517" lon="2.26225">
        <ele>622.37988281</ele>
        <time>2022-07-10T11:59:09Z</time>
      </trkpt>
      <trkpt lat="43.37516" lon="2.26223">
        <ele>622.42987061</ele>
        <time>2022-07-10T11:59:10Z</time>
      </trkpt>
      <trkpt lat="43.37515" lon="2.26222">
        <ele>622.63989258</ele>
        <time>2022-07-10T11:59:11Z</time>
      </trkpt>
      <trkpt lat="43.37514" lon="2.26222">
        <ele>622.9598999</ele>
        <time>2022-07-10T11:59:12Z</time>
      </trkpt>
      <trkpt lat="43.37513" lon="2.2622">
        <ele>622.9598999</ele>
        <time>2022-07-10T11:59:13Z</time>
      </trkpt>
      <trkpt lat="43.3751" lon="2.26219">
        <ele>623.24987793</ele>
        <time>2022-07-10T11:59:14Z</time>
      </trkpt>
      <trkpt lat="43.37508" lon="2.26219">
        <ele>623.77990723</ele>
        <time>2022-07-10T11:59:15Z</time>
      </trkpt>
      <trkpt lat="43.37505" lon="2.26218">
        <ele>624.49987793</ele>
        <time>2022-07-10T11:59:16Z</time>
      </trkpt>
      <trkpt lat="43.37503" lon="2.26216">
        <ele>624.82989502</ele>
        <time>2022-07-10T11:59:17Z</time>
      </trkpt>
      <trkpt lat="43.37501" lon="2.26215">
        <ele>624.82989502</ele>
        <time>2022-07-10T11:59:18Z</time>
      </trkpt>
      <trkpt lat="43.37498" lon="2.26214">
        <ele>625.14990234</ele>
        <time>2022-07-10T11:59:19Z</time>
      </trkpt>
      <trkpt lat="43.37494" lon="2.26214">
        <ele>625.14990234</ele>
        <time>2022-07-10T11:59:20Z</time>
      </trkpt>
      <trkpt lat="43.37493" lon="2.26213">
        <ele>625.59991455</ele>
        <time>2022-07-10T11:59:21Z</time>
      </trkpt>
      <trkpt lat="43.37492" lon="2.26212">
        <ele>625.92993164</ele>
        <time>2022-07-10T11:59:22Z</time>
      </trkpt>
      <trkpt lat="43.3749" lon="2.26211">
        <ele>625.92993164</ele>
        <time>2022-07-10T11:59:23Z</time>
      </trkpt>
      <trkpt lat="43.3749" lon="2.26208">
        <ele>626.07995605</ele>
        <time>2022-07-10T11:59:24Z</time>
      </trkpt>
      <trkpt lat="43.37489" lon="2.26207">
        <ele>627.43994141</ele>
        <time>2022-07-10T11:59:26Z</time>
      </trkpt>
      <trkpt lat="43.37484" lon="2.26204">
        <ele>627.9899292</ele>
        <time>2022-07-10T11:59:31Z</time>
      </trkpt>
      <trkpt lat="43.37482" lon="2.26204">
        <ele>627.9899292</ele>
        <time>2022-07-10T11:59:32Z</time>
      </trkpt>
      <trkpt lat="43.37478" lon="2.26203">
        <ele>628.2399292</ele>
        <time>2022-07-10T11:59:33Z</time>
      </trkpt>
      <trkpt lat="43.37475" lon="2.26204">
        <ele>628.41992188</ele>
        <time>2022-07-10T11:59:34Z</time>
      </trkpt>
      <trkpt lat="43.37471" lon="2.26204">
        <ele>628.41992188</ele>
        <time>2022-07-10T11:59:35Z</time>
      </trkpt>
      <trkpt lat="43.37469" lon="2.26204">
        <ele>628.56994629</ele>
        <time>2022-07-10T11:59:36Z</time>
      </trkpt>
      <trkpt lat="43.37466" lon="2.26204">
        <ele>628.70996094</ele>
        <time>2022-07-10T11:59:37Z</time>
      </trkpt>
      <trkpt lat="43.37461" lon="2.26205">
        <ele>628.70996094</ele>
        <time>2022-07-10T11:59:38Z</time>
      </trkpt>
      <trkpt lat="43.37458" lon="2.26205">
        <ele>628.84997559</ele>
        <time>2022-07-10T11:59:39Z</time>
      </trkpt>
      <trkpt lat="43.37455" lon="2.26204">
        <ele>628.84997559</ele>
        <time>2022-07-10T11:59:40Z</time>
      </trkpt>
      <trkpt lat="43.37452" lon="2.26204">
        <ele>629.19995117</ele>
        <time>2022-07-10T11:59:41Z</time>
      </trkpt>
      <trkpt lat="43.37448" lon="2.26204">
        <ele>629.47998047</ele>
        <time>2022-07-10T11:59:42Z</time>
      </trkpt>
      <trkpt lat="43.37447" lon="2.26204">
        <ele>629.7199707</ele>
        <time>2022-07-10T11:59:43Z</time>
      </trkpt>
      <trkpt lat="43.37445" lon="2.26202">
        <ele>629.9699707</ele>
        <time>2022-07-10T11:59:44Z</time>
      </trkpt>
      <trkpt lat="43.37443" lon="2.262">
        <ele>630.25</ele>
        <time>2022-07-10T11:59:45Z</time>
      </trkpt>
      <trkpt lat="43.37441" lon="2.26197">
        <ele>630.40997314</ele>
        <time>2022-07-10T11:59:46Z</time>
      </trkpt>
      <trkpt lat="43.37439" lon="2.26194">
        <ele>630.40997314</ele>
        <time>2022-07-10T11:59:47Z</time>
      </trkpt>
      <trkpt lat="43.37439" lon="2.26193">
        <ele>630.83996582</ele>
        <time>2022-07-10T11:59:48Z</time>
      </trkpt>
      <trkpt lat="43.37438" lon="2.26191">
        <ele>630.94995117</ele>
        <time>2022-07-10T11:59:49Z</time>
      </trkpt>
      <trkpt lat="43.37439" lon="2.26189">
        <ele>630.94995117</ele>
        <time>2022-07-10T11:59:50Z</time>
      </trkpt>
      <trkpt lat="43.3744" lon="2.26187">
        <ele>631.44995117</ele>
        <time>2022-07-10T11:59:51Z</time>
      </trkpt>
      <trkpt lat="43.3744" lon="2.26185">
        <ele>631.68994141</ele>
        <time>2022-07-10T11:59:52Z</time>
      </trkpt>
      <trkpt lat="43.37441" lon="2.26182">
        <ele>631.9899292</ele>
        <time>2022-07-10T11:59:53Z</time>
      </trkpt>
      <trkpt lat="43.37442" lon="2.26179">
        <ele>631.9899292</ele>
        <time>2022-07-10T11:59:54Z</time>
      </trkpt>
      <trkpt lat="43.37443" lon="2.26176">
        <ele>632.63995361</ele>
        <time>2022-07-10T11:59:55Z</time>
      </trkpt>
      <trkpt lat="43.37444" lon="2.26174">
        <ele>632.92993164</ele>
        <time>2022-07-10T11:59:56Z</time>
      </trkpt>
      <trkpt lat="43.37445" lon="2.26172">
        <ele>632.92993164</ele>
        <time>2022-07-10T11:59:57Z</time>
      </trkpt>
      <trkpt lat="43.37445" lon="2.26169">
        <ele>633.28991699</ele>
        <time>2022-07-10T11:59:58Z</time>
      </trkpt>
      <trkpt lat="43.37446" lon="2.26168">
        <ele>633.93994141</ele>
        <time>2022-07-10T11:59:59Z</time>
      </trkpt>
      <trkpt lat="43.37447" lon="2.26167">
        <ele>634.20996094</ele>
        <time>2022-07-10T12:00:00Z</time>
      </trkpt>
      <trkpt lat="43.37449" lon="2.26166">
        <ele>634.20996094</ele>
        <time>2022-07-10T12:00:01Z</time>
      </trkpt>
      <trkpt lat="43.3745" lon="2.26165">
        <ele>634.62994385</ele>
        <time>2022-07-10T12:00:02Z</time>
      </trkpt>
      <trkpt lat="43.37451" lon="2.26164">
        <ele>634.62994385</ele>
        <time>2022-07-10T12:00:03Z</time>
      </trkpt>
      <trkpt lat="43.37452" lon="2.26164">
        <ele>634.84991455</ele>
        <time>2022-07-10T12:00:04Z</time>
      </trkpt>
      <trkpt lat="43.37454" lon="2.26161">
        <ele>635.35992432</ele>
        <time>2022-07-10T12:00:05Z</time>
      </trkpt>
      <trkpt lat="43.37456" lon="2.26159">
        <ele>635.72991943</ele>
        <time>2022-07-10T12:00:06Z</time>
      </trkpt>
      <trkpt lat="43.37457" lon="2.26158">
        <ele>635.93994141</ele>
        <time>2022-07-10T12:00:07Z</time>
      </trkpt>
      <trkpt lat="43.37458" lon="2.26155">
        <ele>636.06994629</ele>
        <time>2022-07-10T12:00:08Z</time>
      </trkpt>
      <trkpt lat="43.3746" lon="2.26153">
        <ele>636.27996826</ele>
        <time>2022-07-10T12:00:09Z</time>
      </trkpt>
      <trkpt lat="43.37461" lon="2.2615">
        <ele>636.36999512</ele>
        <time>2022-07-10T12:00:10Z</time>
      </trkpt>
      <trkpt lat="43.37462" lon="2.26148">
        <ele>636.51000977</ele>
        <time>2022-07-10T12:00:11Z</time>
      </trkpt>
      <trkpt lat="43.37463" lon="2.26145">
        <ele>636.51000977</ele>
        <time>2022-07-10T12:00:12Z</time>
      </trkpt>
      <trkpt lat="43.37464" lon="2.26142">
        <ele>636.82000732</ele>
        <time>2022-07-10T12:00:13Z</time>
      </trkpt>
      <trkpt lat="43.37466" lon="2.2614">
        <ele>636.82000732</ele>
        <time>2022-07-10T12:00:14Z</time>
      </trkpt>
      <trkpt lat="43.37467" lon="2.26138">
        <ele>637.26000977</ele>
        <time>2022-07-10T12:00:15Z</time>
      </trkpt>
      <trkpt lat="43.37468" lon="2.26137">
        <ele>637.40002441</ele>
        <time>2022-07-10T12:00:16Z</time>
      </trkpt>
      <trkpt lat="43.37469" lon="2.26135">
        <ele>637.40002441</ele>
        <time>2022-07-10T12:00:17Z</time>
      </trkpt>
      <trkpt lat="43.37471" lon="2.26134">
        <ele>637.59002686</ele>
        <time>2022-07-10T12:00:18Z</time>
      </trkpt>
      <trkpt lat="43.37473" lon="2.26133">
        <ele>637.70001221</ele>
        <time>2022-07-10T12:00:19Z</time>
      </trkpt>
      <trkpt lat="43.37475" lon="2.26133">
        <ele>637.70001221</ele>
        <time>2022-07-10T12:00:20Z</time>
      </trkpt>
      <trkpt lat="43.37477" lon="2.26132">
        <ele>637.88000488</ele>
        <time>2022-07-10T12:00:21Z</time>
      </trkpt>
      <trkpt lat="43.37479" lon="2.26131">
        <ele>637.96002197</ele>
        <time>2022-07-10T12:00:22Z</time>
      </trkpt>
      <trkpt lat="43.37482" lon="2.26129">
        <ele>637.96002197</ele>
        <time>2022-07-10T12:00:23Z</time>
      </trkpt>
      <trkpt lat="43.37484" lon="2.26128">
        <ele>638.36004639</ele>
        <time>2022-07-10T12:00:24Z</time>
      </trkpt>
      <trkpt lat="43.37485" lon="2.26126">
        <ele>638.65002441</ele>
        <time>2022-07-10T12:00:25Z</time>
      </trkpt>
      <trkpt lat="43.37486" lon="2.26124">
        <ele>638.65002441</ele>
        <time>2022-07-10T12:00:26Z</time>
      </trkpt>
      <trkpt lat="43.37487" lon="2.26121">
        <ele>639.04003906</ele>
        <time>2022-07-10T12:00:27Z</time>
      </trkpt>
      <trkpt lat="43.37488" lon="2.26119">
        <ele>639.02001953</ele>
        <time>2022-07-10T12:00:28Z</time>
      </trkpt>
      <trkpt lat="43.37488" lon="2.26116">
        <ele>638.80999756</ele>
        <time>2022-07-10T12:00:29Z</time>
      </trkpt>
      <trkpt lat="43.37488" lon="2.26113">
        <ele>638.65997314</ele>
        <time>2022-07-10T12:00:30Z</time>
      </trkpt>
      <trkpt lat="43.37489" lon="2.2611">
        <ele>638.65997314</ele>
        <time>2022-07-10T12:00:31Z</time>
      </trkpt>
      <trkpt lat="43.37489" lon="2.26106">
        <ele>637.85998535</ele>
        <time>2022-07-10T12:00:32Z</time>
      </trkpt>
      <trkpt lat="43.3749" lon="2.26104">
        <ele>637.55999756</ele>
        <time>2022-07-10T12:00:33Z</time>
      </trkpt>
      <trkpt lat="43.3749" lon="2.26102">
        <ele>637.15002441</ele>
        <time>2022-07-10T12:00:34Z</time>
      </trkpt>
      <trkpt lat="43.3749" lon="2.261">
        <ele>636.65002441</ele>
        <time>2022-07-10T12:00:35Z</time>
      </trkpt>
      <trkpt lat="43.3749" lon="2.26098">
        <ele>636.13000488</ele>
        <time>2022-07-10T12:00:36Z</time>
      </trkpt>
      <trkpt lat="43.37488" lon="2.26095">
        <ele>635.16003418</ele>
        <time>2022-07-10T12:00:37Z</time>
      </trkpt>
      <trkpt lat="43.37487" lon="2.26092">
        <ele>634.18005371</ele>
        <time>2022-07-10T12:00:38Z</time>
      </trkpt>
      <trkpt lat="43.37487" lon="2.26089">
        <ele>633.11004639</ele>
        <time>2022-07-10T12:00:39Z</time>
      </trkpt>
      <trkpt lat="43.37486" lon="2.26086">
        <ele>632.0100708</ele>
        <time>2022-07-10T12:00:40Z</time>
      </trkpt>
      <trkpt lat="43.37485" lon="2.26082">
        <ele>631.08007812</ele>
        <time>2022-07-10T12:00:41Z</time>
      </trkpt>
      <trkpt lat="43.37485" lon="2.26079">
        <ele>630.13006592</ele>
        <time>2022-07-10T12:00:42Z</time>
      </trkpt>
      <trkpt lat="43.37485" lon="2.26076">
        <ele>629.40008545</ele>
        <time>2022-07-10T12:00:43Z</time>
      </trkpt>
      <trkpt lat="43.37485" lon="2.26074">
        <ele>629.40008545</ele>
        <time>2022-07-10T12:00:44Z</time>
      </trkpt>
      <trkpt lat="43.37484" lon="2.26072">
        <ele>628.64007568</ele>
        <time>2022-07-10T12:00:45Z</time>
      </trkpt>
      <trkpt lat="43.37483" lon="2.26066">
        <ele>627.14007568</ele>
        <time>2022-07-10T12:00:46Z</time>
      </trkpt>
      <trkpt lat="43.37482" lon="2.26062">
        <ele>626.02008057</ele>
        <time>2022-07-10T12:00:47Z</time>
      </trkpt>
      <trkpt lat="43.37482" lon="2.26058">
        <ele>624.7600708</ele>
        <time>2022-07-10T12:00:48Z</time>
      </trkpt>
      <trkpt lat="43.37482" lon="2.26053">
        <ele>623.59008789</ele>
        <time>2022-07-10T12:00:49Z</time>
      </trkpt>
      <trkpt lat="43.37481" lon="2.26048">
        <ele>622.64007568</ele>
        <time>2022-07-10T12:00:50Z</time>
      </trkpt>
      <trkpt lat="43.3748" lon="2.26044">
        <ele>621.90008545</ele>
        <time>2022-07-10T12:00:51Z</time>
      </trkpt>
      <trkpt lat="43.37479" lon="2.26041">
        <ele>621.41009521</ele>
        <time>2022-07-10T12:00:52Z</time>
      </trkpt>
      <trkpt lat="43.37477" lon="2.26038">
        <ele>621.05010986</ele>
        <time>2022-07-10T12:00:53Z</time>
      </trkpt>
      <trkpt lat="43.37475" lon="2.26034">
        <ele>620.69012451</ele>
        <time>2022-07-10T12:00:54Z</time>
      </trkpt>
      <trkpt lat="43.37475" lon="2.26031">
        <ele>620.69012451</ele>
        <time>2022-07-10T12:00:55Z</time>
      </trkpt>
      <trkpt lat="43.37474" lon="2.26029">
        <ele>620.39013672</ele>
        <time>2022-07-10T12:00:56Z</time>
      </trkpt>
      <trkpt lat="43.37474" lon="2.26027">
        <ele>620.18011475</ele>
        <time>2022-07-10T12:00:57Z</time>
      </trkpt>
      <trkpt lat="43.37474" lon="2.26024">
        <ele>620.03009033</ele>
        <time>2022-07-10T12:00:58Z</time>
      </trkpt>
      <trkpt lat="43.37474" lon="2.26021">
        <ele>620.03009033</ele>
        <time>2022-07-10T12:00:59Z</time>
      </trkpt>
      <trkpt lat="43.37474" lon="2.26019">
        <ele>619.84008789</ele>
        <time>2022-07-10T12:01:00Z</time>
      </trkpt>
      <trkpt lat="43.37473" lon="2.26016">
        <ele>619.50006104</ele>
        <time>2022-07-10T12:01:01Z</time>
      </trkpt>
      <trkpt lat="43.37471" lon="2.26013">
        <ele>619.39007568</ele>
        <time>2022-07-10T12:01:02Z</time>
      </trkpt>
      <trkpt lat="43.37468" lon="2.26009">
        <ele>619.37005615</ele>
        <time>2022-07-10T12:01:03Z</time>
      </trkpt>
      <trkpt lat="43.37465" lon="2.26007">
        <ele>619.36004639</ele>
        <time>2022-07-10T12:01:04Z</time>
      </trkpt>
      <trkpt lat="43.37462" lon="2.26006">
        <ele>619.36004639</ele>
        <time>2022-07-10T12:01:05Z</time>
      </trkpt>
      <trkpt lat="43.37459" lon="2.26005">
        <ele>619.38006592</ele>
        <time>2022-07-10T12:01:06Z</time>
      </trkpt>
      <trkpt lat="43.37455" lon="2.26005">
        <ele>619.43005371</ele>
        <time>2022-07-10T12:01:07Z</time>
      </trkpt>
      <trkpt lat="43.3745" lon="2.26003">
        <ele>619.71008301</ele>
        <time>2022-07-10T12:01:08Z</time>
      </trkpt>
      <trkpt lat="43.37447" lon="2.26001">
        <ele>619.71008301</ele>
        <time>2022-07-10T12:01:09Z</time>
      </trkpt>
      <trkpt lat="43.37445" lon="2.25998">
        <ele>619.98010254</ele>
        <time>2022-07-10T12:01:10Z</time>
      </trkpt>
      <trkpt lat="43.37443" lon="2.25995">
        <ele>620.09008789</ele>
        <time>2022-07-10T12:01:11Z</time>
      </trkpt>
      <trkpt lat="43.3744" lon="2.2599">
        <ele>620.20007324</ele>
        <time>2022-07-10T12:01:12Z</time>
      </trkpt>
      <trkpt lat="43.37437" lon="2.25987">
        <ele>620.19006348</ele>
        <time>2022-07-10T12:01:13Z</time>
      </trkpt>
      <trkpt lat="43.37433" lon="2.25987">
        <ele>620.2300415</ele>
        <time>2022-07-10T12:01:14Z</time>
      </trkpt>
      <trkpt lat="43.3743" lon="2.25987">
        <ele>620.17004395</ele>
        <time>2022-07-10T12:01:15Z</time>
      </trkpt>
      <trkpt lat="43.37427" lon="2.25987">
        <ele>620.07006836</ele>
        <time>2022-07-10T12:01:16Z</time>
      </trkpt>
      <trkpt lat="43.37423" lon="2.25987">
        <ele>620.04003906</ele>
        <time>2022-07-10T12:01:17Z</time>
      </trkpt>
      <trkpt lat="43.3742" lon="2.25986">
        <ele>620.04003906</ele>
        <time>2022-07-10T12:01:18Z</time>
      </trkpt>
      <trkpt lat="43.37416" lon="2.25985">
        <ele>620.0300293</ele>
        <time>2022-07-10T12:01:19Z</time>
      </trkpt>
      <trkpt lat="43.37415" lon="2.25984">
        <ele>620.17004395</ele>
        <time>2022-07-10T12:01:20Z</time>
      </trkpt>
      <trkpt lat="43.3741" lon="2.25983">
        <ele>620.2300415</ele>
        <time>2022-07-10T12:01:21Z</time>
      </trkpt>
      <trkpt lat="43.37408" lon="2.25982">
        <ele>620.20001221</ele>
        <time>2022-07-10T12:01:22Z</time>
      </trkpt>
      <trkpt lat="43.37404" lon="2.25979">
        <ele>620.20001221</ele>
        <time>2022-07-10T12:01:23Z</time>
      </trkpt>
      <trkpt lat="43.374" lon="2.25977">
        <ele>620.07000732</ele>
        <time>2022-07-10T12:01:24Z</time>
      </trkpt>
      <trkpt lat="43.37397" lon="2.25974">
        <ele>620.03997803</ele>
        <time>2022-07-10T12:01:25Z</time>
      </trkpt>
      <trkpt lat="43.37391" lon="2.25967">
        <ele>620.02996826</ele>
        <time>2022-07-10T12:01:26Z</time>
      </trkpt>
      <trkpt lat="43.37388" lon="2.25963">
        <ele>620.0199585</ele>
        <time>2022-07-10T12:01:27Z</time>
      </trkpt>
      <trkpt lat="43.37384" lon="2.25962">
        <ele>619.9899292</ele>
        <time>2022-07-10T12:01:28Z</time>
      </trkpt>
      <trkpt lat="43.37383" lon="2.25958">
        <ele>620.02990723</ele>
        <time>2022-07-10T12:01:29Z</time>
      </trkpt>
      <trkpt lat="43.37381" lon="2.25957">
        <ele>619.9899292</ele>
        <time>2022-07-10T12:01:30Z</time>
      </trkpt>
      <trkpt lat="43.37379" lon="2.25954">
        <ele>619.9899292</ele>
        <time>2022-07-10T12:01:31Z</time>
      </trkpt>
      <trkpt lat="43.37377" lon="2.25951">
        <ele>619.92993164</ele>
        <time>2022-07-10T12:01:32Z</time>
      </trkpt>
      <trkpt lat="43.37375" lon="2.25948">
        <ele>619.92993164</ele>
        <time>2022-07-10T12:01:33Z</time>
      </trkpt>
      <trkpt lat="43.37372" lon="2.25946">
        <ele>619.89990234</ele>
        <time>2022-07-10T12:01:34Z</time>
      </trkpt>
      <trkpt lat="43.37367" lon="2.25944">
        <ele>619.9899292</ele>
        <time>2022-07-10T12:01:35Z</time>
      </trkpt>
      <trkpt lat="43.37362" lon="2.2594">
        <ele>620.03991699</ele>
        <time>2022-07-10T12:01:36Z</time>
      </trkpt>
      <trkpt lat="43.37359" lon="2.25937">
        <ele>620.14990234</ele>
        <time>2022-07-10T12:01:37Z</time>
      </trkpt>
      <trkpt lat="43.37355" lon="2.25933">
        <ele>620.11987305</ele>
        <time>2022-07-10T12:01:38Z</time>
      </trkpt>
      <trkpt lat="43.37348" lon="2.2593">
        <ele>620.11987305</ele>
        <time>2022-07-10T12:01:39Z</time>
      </trkpt>
      <trkpt lat="43.37344" lon="2.2593">
        <ele>620.08984375</ele>
        <time>2022-07-10T12:01:40Z</time>
      </trkpt>
      <trkpt lat="43.3734" lon="2.25929">
        <ele>620.08984375</ele>
        <time>2022-07-10T12:01:41Z</time>
      </trkpt>
      <trkpt lat="43.37335" lon="2.25929">
        <ele>619.99981689</ele>
        <time>2022-07-10T12:01:42Z</time>
      </trkpt>
      <trkpt lat="43.37331" lon="2.25929">
        <ele>620.00982666</ele>
        <time>2022-07-10T12:01:43Z</time>
      </trkpt>
      <trkpt lat="43.37324" lon="2.25924">
        <ele>620.00982666</ele>
        <time>2022-07-10T12:01:44Z</time>
      </trkpt>
      <trkpt lat="43.3732" lon="2.25922">
        <ele>619.71984863</ele>
        <time>2022-07-10T12:01:45Z</time>
      </trkpt>
      <trkpt lat="43.37316" lon="2.2592">
        <ele>619.71984863</ele>
        <time>2022-07-10T12:01:46Z</time>
      </trkpt>
      <trkpt lat="43.37312" lon="2.2592">
        <ele>619.61987305</ele>
        <time>2022-07-10T12:01:47Z</time>
      </trkpt>
      <trkpt lat="43.37307" lon="2.25918">
        <ele>619.61987305</ele>
        <time>2022-07-10T12:01:48Z</time>
      </trkpt>
      <trkpt lat="43.37304" lon="2.25915">
        <ele>619.81988525</ele>
        <time>2022-07-10T12:01:49Z</time>
      </trkpt>
      <trkpt lat="43.373" lon="2.25911">
        <ele>619.81988525</ele>
        <time>2022-07-10T12:01:50Z</time>
      </trkpt>
      <trkpt lat="43.37297" lon="2.25908">
        <ele>620.07989502</ele>
        <time>2022-07-10T12:01:51Z</time>
      </trkpt>
      <trkpt lat="43.37294" lon="2.25906">
        <ele>619.98986816</ele>
        <time>2022-07-10T12:01:52Z</time>
      </trkpt>
      <trkpt lat="43.37288" lon="2.25901">
        <ele>619.84985352</ele>
        <time>2022-07-10T12:01:53Z</time>
      </trkpt>
      <trkpt lat="43.37284" lon="2.259">
        <ele>619.67987061</ele>
        <time>2022-07-10T12:01:54Z</time>
      </trkpt>
      <trkpt lat="43.37281" lon="2.25898">
        <ele>619.67987061</ele>
        <time>2022-07-10T12:01:55Z</time>
      </trkpt>
      <trkpt lat="43.37277" lon="2.25896">
        <ele>619.63989258</ele>
        <time>2022-07-10T12:01:56Z</time>
      </trkpt>
      <trkpt lat="43.37273" lon="2.25895">
        <ele>619.73986816</ele>
        <time>2022-07-10T12:01:57Z</time>
      </trkpt>
      <trkpt lat="43.37266" lon="2.25893">
        <ele>619.73986816</ele>
        <time>2022-07-10T12:01:58Z</time>
      </trkpt>
      <trkpt lat="43.37262" lon="2.25893">
        <ele>619.73986816</ele>
        <time>2022-07-10T12:01:59Z</time>
      </trkpt>
      <trkpt lat="43.37259" lon="2.25892">
        <ele>619.73986816</ele>
        <time>2022-07-10T12:02:00Z</time>
      </trkpt>
      <trkpt lat="43.37256" lon="2.25891">
        <ele>619.71984863</ele>
        <time>2022-07-10T12:02:01Z</time>
      </trkpt>
      <trkpt lat="43.37249" lon="2.25889">
        <ele>619.56982422</ele>
        <time>2022-07-10T12:02:02Z</time>
      </trkpt>
      <trkpt lat="43.37245" lon="2.2589">
        <ele>619.52984619</ele>
        <time>2022-07-10T12:02:03Z</time>
      </trkpt>
      <trkpt lat="43.3724" lon="2.2589">
        <ele>619.32983398</ele>
        <time>2022-07-10T12:02:04Z</time>
      </trkpt>
      <trkpt lat="43.37237" lon="2.25891">
        <ele>619.32983398</ele>
        <time>2022-07-10T12:02:05Z</time>
      </trkpt>
      <trkpt lat="43.37233" lon="2.25893">
        <ele>619.26983643</ele>
        <time>2022-07-10T12:02:06Z</time>
      </trkpt>
      <trkpt lat="43.37229" lon="2.25893">
        <ele>619.30981445</ele>
        <time>2022-07-10T12:02:07Z</time>
      </trkpt>
      <trkpt lat="43.37225" lon="2.25892">
        <ele>619.30981445</ele>
        <time>2022-07-10T12:02:08Z</time>
      </trkpt>
      <trkpt lat="43.37221" lon="2.25891">
        <ele>619.36981201</ele>
        <time>2022-07-10T12:02:09Z</time>
      </trkpt>
      <trkpt lat="43.37218" lon="2.25889">
        <ele>619.38983154</ele>
        <time>2022-07-10T12:02:10Z</time>
      </trkpt>
      <trkpt lat="43.37212" lon="2.25888">
        <ele>619.33984375</ele>
        <time>2022-07-10T12:02:11Z</time>
      </trkpt>
      <trkpt lat="43.37209" lon="2.25887">
        <ele>619.33984375</ele>
        <time>2022-07-10T12:02:12Z</time>
      </trkpt>
      <trkpt lat="43.37206" lon="2.25886">
        <ele>619.49981689</ele>
        <time>2022-07-10T12:02:13Z</time>
      </trkpt>
      <trkpt lat="43.37205" lon="2.25884">
        <ele>619.49981689</ele>
        <time>2022-07-10T12:02:14Z</time>
      </trkpt>
      <trkpt lat="43.37203" lon="2.25882">
        <ele>619.58984375</ele>
        <time>2022-07-10T12:02:15Z</time>
      </trkpt>
      <trkpt lat="43.37202" lon="2.25881">
        <ele>620.2298584</ele>
        <time>2022-07-10T12:02:16Z</time>
      </trkpt>
      <trkpt lat="43.37199" lon="2.25879">
        <ele>620.73986816</ele>
        <time>2022-07-10T12:02:17Z</time>
      </trkpt>
      <trkpt lat="43.37197" lon="2.25878">
        <ele>620.73986816</ele>
        <time>2022-07-10T12:02:18Z</time>
      </trkpt>
      <trkpt lat="43.37196" lon="2.25876">
        <ele>621.30987549</ele>
        <time>2022-07-10T12:02:19Z</time>
      </trkpt>
      <trkpt lat="43.37194" lon="2.25874">
        <ele>622.52984619</ele>
        <time>2022-07-10T12:02:20Z</time>
      </trkpt>
      <trkpt lat="43.37194" lon="2.25871">
        <ele>622.9798584</ele>
        <time>2022-07-10T12:02:21Z</time>
      </trkpt>
      <trkpt lat="43.37193" lon="2.25868">
        <ele>623.43988037</ele>
        <time>2022-07-10T12:02:22Z</time>
      </trkpt>
      <trkpt lat="43.37193" lon="2.25864">
        <ele>623.7298584</ele>
        <time>2022-07-10T12:02:23Z</time>
      </trkpt>
      <trkpt lat="43.37193" lon="2.2586">
        <ele>623.95983887</ele>
        <time>2022-07-10T12:02:24Z</time>
      </trkpt>
      <trkpt lat="43.37194" lon="2.25856">
        <ele>624.07983398</ele>
        <time>2022-07-10T12:02:25Z</time>
      </trkpt>
      <trkpt lat="43.37194" lon="2.25853">
        <ele>624.11981201</ele>
        <time>2022-07-10T12:02:26Z</time>
      </trkpt>
      <trkpt lat="43.37194" lon="2.25849">
        <ele>624.17980957</ele>
        <time>2022-07-10T12:02:27Z</time>
      </trkpt>
      <trkpt lat="43.37194" lon="2.25845">
        <ele>624.17980957</ele>
        <time>2022-07-10T12:02:28Z</time>
      </trkpt>
      <trkpt lat="43.37193" lon="2.25839">
        <ele>624.26983643</ele>
        <time>2022-07-10T12:02:29Z</time>
      </trkpt>
      <trkpt lat="43.37193" lon="2.25835">
        <ele>624.26983643</ele>
        <time>2022-07-10T12:02:30Z</time>
      </trkpt>
      <trkpt lat="43.37194" lon="2.25831">
        <ele>624.4498291</ele>
        <time>2022-07-10T12:02:31Z</time>
      </trkpt>
      <trkpt lat="43.37194" lon="2.25827">
        <ele>624.4498291</ele>
        <time>2022-07-10T12:02:32Z</time>
      </trkpt>
      <trkpt lat="43.37194" lon="2.2582">
        <ele>624.58984375</ele>
        <time>2022-07-10T12:02:33Z</time>
      </trkpt>
      <trkpt lat="43.37193" lon="2.25816">
        <ele>624.75982666</ele>
        <time>2022-07-10T12:02:34Z</time>
      </trkpt>
      <trkpt lat="43.37193" lon="2.25811">
        <ele>624.79980469</ele>
        <time>2022-07-10T12:02:35Z</time>
      </trkpt>
      <trkpt lat="43.37193" lon="2.25808">
        <ele>624.75982666</ele>
        <time>2022-07-10T12:02:36Z</time>
      </trkpt>
      <trkpt lat="43.37193" lon="2.25805">
        <ele>624.74981689</ele>
        <time>2022-07-10T12:02:37Z</time>
      </trkpt>
      <trkpt lat="43.37194" lon="2.25799">
        <ele>624.65979004</ele>
        <time>2022-07-10T12:02:38Z</time>
      </trkpt>
      <trkpt lat="43.37194" lon="2.25795">
        <ele>624.60980225</ele>
        <time>2022-07-10T12:02:39Z</time>
      </trkpt>
      <trkpt lat="43.37195" lon="2.25792">
        <ele>624.60980225</ele>
        <time>2022-07-10T12:02:40Z</time>
      </trkpt>
      <trkpt lat="43.37196" lon="2.25788">
        <ele>624.58978271</ele>
        <time>2022-07-10T12:02:41Z</time>
      </trkpt>
      <trkpt lat="43.37194" lon="2.25781">
        <ele>624.60980225</ele>
        <time>2022-07-10T12:02:42Z</time>
      </trkpt>
      <trkpt lat="43.37192" lon="2.25778">
        <ele>624.60980225</ele>
        <time>2022-07-10T12:02:43Z</time>
      </trkpt>
      <trkpt lat="43.37191" lon="2.25774">
        <ele>624.58978271</ele>
        <time>2022-07-10T12:02:44Z</time>
      </trkpt>
      <trkpt lat="43.37188" lon="2.25769">
        <ele>624.61981201</ele>
        <time>2022-07-10T12:02:45Z</time>
      </trkpt>
      <trkpt lat="43.37186" lon="2.25764">
        <ele>624.65979004</ele>
        <time>2022-07-10T12:02:46Z</time>
      </trkpt>
      <trkpt lat="43.37184" lon="2.25761">
        <ele>624.78979492</ele>
        <time>2022-07-10T12:02:47Z</time>
      </trkpt>
      <trkpt lat="43.37183" lon="2.25759">
        <ele>624.88977051</ele>
        <time>2022-07-10T12:02:48Z</time>
      </trkpt>
      <trkpt lat="43.3718" lon="2.25756">
        <ele>624.9697876</ele>
        <time>2022-07-10T12:02:49Z</time>
      </trkpt>
      <trkpt lat="43.37178" lon="2.25755">
        <ele>624.9697876</ele>
        <time>2022-07-10T12:02:50Z</time>
      </trkpt>
      <trkpt lat="43.37174" lon="2.25749">
        <ele>624.9697876</ele>
        <time>2022-07-10T12:02:51Z</time>
      </trkpt>
      <trkpt lat="43.3717" lon="2.25745">
        <ele>624.9697876</ele>
        <time>2022-07-10T12:02:52Z</time>
      </trkpt>
      <trkpt lat="43.37165" lon="2.25743">
        <ele>624.88977051</ele>
        <time>2022-07-10T12:02:53Z</time>
      </trkpt>
      <trkpt lat="43.37161" lon="2.25741">
        <ele>624.88977051</ele>
        <time>2022-07-10T12:02:54Z</time>
      </trkpt>
      <trkpt lat="43.37157" lon="2.25738">
        <ele>625.02978516</ele>
        <time>2022-07-10T12:02:55Z</time>
      </trkpt>
      <trkpt lat="43.3715" lon="2.25735">
        <ele>625.02978516</ele>
        <time>2022-07-10T12:02:56Z</time>
      </trkpt>
      <trkpt lat="43.37146" lon="2.25732">
        <ele>625.02978516</ele>
        <time>2022-07-10T12:02:57Z</time>
      </trkpt>
      <trkpt lat="43.37142" lon="2.25728">
        <ele>625.14978027</ele>
        <time>2022-07-10T12:02:58Z</time>
      </trkpt>
      <trkpt lat="43.37139" lon="2.25724">
        <ele>625.1697998</ele>
        <time>2022-07-10T12:02:59Z</time>
      </trkpt>
      <trkpt lat="43.37133" lon="2.25719">
        <ele>625.1697998</ele>
        <time>2022-07-10T12:03:00Z</time>
      </trkpt>
      <trkpt lat="43.3713" lon="2.25717">
        <ele>625.17980957</ele>
        <time>2022-07-10T12:03:01Z</time>
      </trkpt>
      <trkpt lat="43.37126" lon="2.25714">
        <ele>625.17980957</ele>
        <time>2022-07-10T12:03:02Z</time>
      </trkpt>
      <trkpt lat="43.37124" lon="2.25711">
        <ele>625.26983643</ele>
        <time>2022-07-10T12:03:03Z</time>
      </trkpt>
      <trkpt lat="43.37121" lon="2.25708">
        <ele>625.27984619</ele>
        <time>2022-07-10T12:03:04Z</time>
      </trkpt>
      <trkpt lat="43.37119" lon="2.25703">
        <ele>625.27984619</ele>
        <time>2022-07-10T12:03:05Z</time>
      </trkpt>
      <trkpt lat="43.37118" lon="2.25699">
        <ele>625.27984619</ele>
        <time>2022-07-10T12:03:06Z</time>
      </trkpt>
      <trkpt lat="43.37118" lon="2.25696">
        <ele>625.27984619</ele>
        <time>2022-07-10T12:03:07Z</time>
      </trkpt>
      <trkpt lat="43.37119" lon="2.25693">
        <ele>625.30987549</ele>
        <time>2022-07-10T12:03:08Z</time>
      </trkpt>
      <trkpt lat="43.3712" lon="2.25689">
        <ele>625.74987793</ele>
        <time>2022-07-10T12:03:09Z</time>
      </trkpt>
      <trkpt lat="43.37122" lon="2.25686">
        <ele>625.92987061</ele>
        <time>2022-07-10T12:03:10Z</time>
      </trkpt>
      <trkpt lat="43.37123" lon="2.25683">
        <ele>626.19989014</ele>
        <time>2022-07-10T12:03:11Z</time>
      </trkpt>
      <trkpt lat="43.37124" lon="2.2568">
        <ele>626.29986572</ele>
        <time>2022-07-10T12:03:12Z</time>
      </trkpt>
      <trkpt lat="43.37125" lon="2.25678">
        <ele>626.36987305</ele>
        <time>2022-07-10T12:03:13Z</time>
      </trkpt>
      <trkpt lat="43.37128" lon="2.25675">
        <ele>626.66986084</ele>
        <time>2022-07-10T12:03:14Z</time>
      </trkpt>
      <trkpt lat="43.37129" lon="2.25673">
        <ele>626.83984375</ele>
        <time>2022-07-10T12:03:15Z</time>
      </trkpt>
      <trkpt lat="43.3713" lon="2.25671">
        <ele>626.83984375</ele>
        <time>2022-07-10T12:03:16Z</time>
      </trkpt>
      <trkpt lat="43.37132" lon="2.2567">
        <ele>627.05981445</ele>
        <time>2022-07-10T12:03:17Z</time>
      </trkpt>
      <trkpt lat="43.37134" lon="2.25669">
        <ele>627.59979248</ele>
        <time>2022-07-10T12:03:18Z</time>
      </trkpt>
      <trkpt lat="43.37136" lon="2.25669">
        <ele>627.84979248</ele>
        <time>2022-07-10T12:03:19Z</time>
      </trkpt>
      <trkpt lat="43.37138" lon="2.25668">
        <ele>628.22979736</ele>
        <time>2022-07-10T12:03:20Z</time>
      </trkpt>
      <trkpt lat="43.3714" lon="2.25667">
        <ele>628.26977539</ele>
        <time>2022-07-10T12:03:21Z</time>
      </trkpt>
      <trkpt lat="43.37144" lon="2.25666">
        <ele>628.51977539</ele>
        <time>2022-07-10T12:03:22Z</time>
      </trkpt>
      <trkpt lat="43.37147" lon="2.25665">
        <ele>628.84979248</ele>
        <time>2022-07-10T12:03:23Z</time>
      </trkpt>
      <trkpt lat="43.37149" lon="2.25662">
        <ele>629.06976318</ele>
        <time>2022-07-10T12:03:24Z</time>
      </trkpt>
      <trkpt lat="43.37152" lon="2.2566">
        <ele>629.44976807</ele>
        <time>2022-07-10T12:03:25Z</time>
      </trkpt>
      <trkpt lat="43.37154" lon="2.25659">
        <ele>629.44976807</ele>
        <time>2022-07-10T12:03:26Z</time>
      </trkpt>
      <trkpt lat="43.37156" lon="2.25658">
        <ele>629.57977295</ele>
        <time>2022-07-10T12:03:27Z</time>
      </trkpt>
      <trkpt lat="43.37159" lon="2.25656">
        <ele>630.11975098</ele>
        <time>2022-07-10T12:03:28Z</time>
      </trkpt>
      <trkpt lat="43.37161" lon="2.25654">
        <ele>630.32977295</ele>
        <time>2022-07-10T12:03:29Z</time>
      </trkpt>
      <trkpt lat="43.37163" lon="2.25652">
        <ele>630.7197876</ele>
        <time>2022-07-10T12:03:30Z</time>
      </trkpt>
      <trkpt lat="43.37165" lon="2.2565">
        <ele>630.7197876</ele>
        <time>2022-07-10T12:03:31Z</time>
      </trkpt>
      <trkpt lat="43.37167" lon="2.25648">
        <ele>630.95977783</ele>
        <time>2022-07-10T12:03:32Z</time>
      </trkpt>
      <trkpt lat="43.37168" lon="2.25647">
        <ele>632.15979004</ele>
        <time>2022-07-10T12:03:33Z</time>
      </trkpt>
      <trkpt lat="43.3717" lon="2.25644">
        <ele>632.60980225</ele>
        <time>2022-07-10T12:03:34Z</time>
      </trkpt>
      <trkpt lat="43.37171" lon="2.25642">
        <ele>632.60980225</ele>
        <time>2022-07-10T12:03:35Z</time>
      </trkpt>
      <trkpt lat="43.37173" lon="2.25639">
        <ele>632.57977295</ele>
        <time>2022-07-10T12:03:36Z</time>
      </trkpt>
      <trkpt lat="43.37175" lon="2.25638">
        <ele>632.64978027</ele>
        <time>2022-07-10T12:03:37Z</time>
      </trkpt>
      <trkpt lat="43.37176" lon="2.25637">
        <ele>632.86975098</ele>
        <time>2022-07-10T12:03:38Z</time>
      </trkpt>
      <trkpt lat="43.37178" lon="2.25635">
        <ele>633.48974609</ele>
        <time>2022-07-10T12:03:39Z</time>
      </trkpt>
      <trkpt lat="43.37179" lon="2.25633">
        <ele>633.48974609</ele>
        <time>2022-07-10T12:03:40Z</time>
      </trkpt>
      <trkpt lat="43.37179" lon="2.2563">
        <ele>633.88977051</ele>
        <time>2022-07-10T12:03:41Z</time>
      </trkpt>
      <trkpt lat="43.3718" lon="2.25628">
        <ele>634.05975342</ele>
        <time>2022-07-10T12:03:42Z</time>
      </trkpt>
      <trkpt lat="43.37181" lon="2.25627">
        <ele>636.95977783</ele>
        <time>2022-07-10T12:03:43Z</time>
      </trkpt>
      <trkpt lat="43.37182" lon="2.25627">
        <ele>638.12976074</ele>
        <time>2022-07-10T12:03:44Z</time>
      </trkpt>
      <trkpt lat="43.37184" lon="2.25626">
        <ele>638.12976074</ele>
        <time>2022-07-10T12:03:45Z</time>
      </trkpt>
      <trkpt lat="43.37186" lon="2.25625">
        <ele>639.72973633</ele>
        <time>2022-07-10T12:03:46Z</time>
      </trkpt>
      <trkpt lat="43.37187" lon="2.25623">
        <ele>640.60974121</ele>
        <time>2022-07-10T12:03:47Z</time>
      </trkpt>
      <trkpt lat="43.37189" lon="2.25622">
        <ele>641.85974121</ele>
        <time>2022-07-10T12:03:48Z</time>
      </trkpt>
      <trkpt lat="43.37192" lon="2.25621">
        <ele>641.81976318</ele>
        <time>2022-07-10T12:03:49Z</time>
      </trkpt>
      <trkpt lat="43.37194" lon="2.2562">
        <ele>641.81976318</ele>
        <time>2022-07-10T12:03:50Z</time>
      </trkpt>
      <trkpt lat="43.37195" lon="2.25619">
        <ele>640.92974854</ele>
        <time>2022-07-10T12:03:51Z</time>
      </trkpt>
      <trkpt lat="43.37196" lon="2.2562">
        <ele>640.86975098</ele>
        <time>2022-07-10T12:03:52Z</time>
      </trkpt>
      <trkpt lat="43.37198" lon="2.25619">
        <ele>640.64978027</ele>
        <time>2022-07-10T12:03:53Z</time>
      </trkpt>
      <trkpt lat="43.372" lon="2.25617">
        <ele>640.64978027</ele>
        <time>2022-07-10T12:03:54Z</time>
      </trkpt>
      <trkpt lat="43.37202" lon="2.25616">
        <ele>641.36975098</ele>
        <time>2022-07-10T12:03:55Z</time>
      </trkpt>
      <trkpt lat="43.37203" lon="2.25615">
        <ele>641.36975098</ele>
        <time>2022-07-10T12:03:56Z</time>
      </trkpt>
      <trkpt lat="43.37205" lon="2.25614">
        <ele>639.80975342</ele>
        <time>2022-07-10T12:03:57Z</time>
      </trkpt>
      <trkpt lat="43.37207" lon="2.25613">
        <ele>638.89978027</ele>
        <time>2022-07-10T12:03:58Z</time>
      </trkpt>
      <trkpt lat="43.37212" lon="2.25611">
        <ele>637.80975342</ele>
        <time>2022-07-10T12:03:59Z</time>
      </trkpt>
      <trkpt lat="43.37215" lon="2.2561">
        <ele>637.80975342</ele>
        <time>2022-07-10T12:04:00Z</time>
      </trkpt>
      <trkpt lat="43.37218" lon="2.2561">
        <ele>638.22973633</ele>
        <time>2022-07-10T12:04:01Z</time>
      </trkpt>
      <trkpt lat="43.37221" lon="2.25611">
        <ele>638.22973633</ele>
        <time>2022-07-10T12:04:02Z</time>
      </trkpt>
      <trkpt lat="43.37224" lon="2.25611">
        <ele>638.82971191</ele>
        <time>2022-07-10T12:04:03Z</time>
      </trkpt>
      <trkpt lat="43.37227" lon="2.25612">
        <ele>638.82971191</ele>
        <time>2022-07-10T12:04:04Z</time>
      </trkpt>
      <trkpt lat="43.3723" lon="2.25612">
        <ele>639.13970947</ele>
        <time>2022-07-10T12:04:05Z</time>
      </trkpt>
      <trkpt lat="43.37232" lon="2.25613">
        <ele>639.26971436</ele>
        <time>2022-07-10T12:04:06Z</time>
      </trkpt>
      <trkpt lat="43.37233" lon="2.25613">
        <ele>639.26971436</ele>
        <time>2022-07-10T12:04:07Z</time>
      </trkpt>
      <trkpt lat="43.37238" lon="2.25614">
        <ele>639.33972168</ele>
        <time>2022-07-10T12:04:08Z</time>
      </trkpt>
      <trkpt lat="43.37241" lon="2.25614">
        <ele>639.62969971</ele>
        <time>2022-07-10T12:04:09Z</time>
      </trkpt>
      <trkpt lat="43.37245" lon="2.25614">
        <ele>639.86968994</ele>
        <time>2022-07-10T12:04:10Z</time>
      </trkpt>
      <trkpt lat="43.37248" lon="2.25615">
        <ele>640.13970947</ele>
        <time>2022-07-10T12:04:11Z</time>
      </trkpt>
      <trkpt lat="43.37252" lon="2.25615">
        <ele>640.13970947</ele>
        <time>2022-07-10T12:04:12Z</time>
      </trkpt>
      <trkpt lat="43.37257" lon="2.25615">
        <ele>640.52972412</ele>
        <time>2022-07-10T12:04:13Z</time>
      </trkpt>
      <trkpt lat="43.3726" lon="2.25615">
        <ele>640.71972656</ele>
        <time>2022-07-10T12:04:14Z</time>
      </trkpt>
      <trkpt lat="43.37262" lon="2.25615">
        <ele>640.77972412</ele>
        <time>2022-07-10T12:04:15Z</time>
      </trkpt>
      <trkpt lat="43.37265" lon="2.25615">
        <ele>640.86975098</ele>
        <time>2022-07-10T12:04:16Z</time>
      </trkpt>
      <trkpt lat="43.37269" lon="2.25616">
        <ele>640.87976074</ele>
        <time>2022-07-10T12:04:17Z</time>
      </trkpt>
      <trkpt lat="43.37271" lon="2.25615">
        <ele>640.87976074</ele>
        <time>2022-07-10T12:04:18Z</time>
      </trkpt>
      <trkpt lat="43.37274" lon="2.25615">
        <ele>640.9697876</ele>
        <time>2022-07-10T12:04:19Z</time>
      </trkpt>
      <trkpt lat="43.37277" lon="2.25615">
        <ele>641.11981201</ele>
        <time>2022-07-10T12:04:20Z</time>
      </trkpt>
      <trkpt lat="43.37281" lon="2.25614">
        <ele>641.28979492</ele>
        <time>2022-07-10T12:04:21Z</time>
      </trkpt>
      <trkpt lat="43.37284" lon="2.25613">
        <ele>641.58978271</ele>
        <time>2022-07-10T12:04:22Z</time>
      </trkpt>
      <trkpt lat="43.37287" lon="2.25612">
        <ele>641.78979492</ele>
        <time>2022-07-10T12:04:23Z</time>
      </trkpt>
      <trkpt lat="43.37291" lon="2.25612">
        <ele>641.92980957</ele>
        <time>2022-07-10T12:04:24Z</time>
      </trkpt>
      <trkpt lat="43.37293" lon="2.25611">
        <ele>642.22979736</ele>
        <time>2022-07-10T12:04:25Z</time>
      </trkpt>
      <trkpt lat="43.37297" lon="2.25611">
        <ele>642.22979736</ele>
        <time>2022-07-10T12:04:26Z</time>
      </trkpt>
      <trkpt lat="43.373" lon="2.2561">
        <ele>642.78979492</ele>
        <time>2022-07-10T12:04:27Z</time>
      </trkpt>
      <trkpt lat="43.37303" lon="2.2561">
        <ele>643.13977051</ele>
        <time>2022-07-10T12:04:28Z</time>
      </trkpt>
      <trkpt lat="43.37306" lon="2.2561">
        <ele>643.4697876</ele>
        <time>2022-07-10T12:04:29Z</time>
      </trkpt>
      <trkpt lat="43.3731" lon="2.25609">
        <ele>643.4697876</ele>
        <time>2022-07-10T12:04:30Z</time>
      </trkpt>
      <trkpt lat="43.37314" lon="2.25608">
        <ele>644.06976318</ele>
        <time>2022-07-10T12:04:31Z</time>
      </trkpt>
      <trkpt lat="43.37316" lon="2.25607">
        <ele>644.55975342</ele>
        <time>2022-07-10T12:04:32Z</time>
      </trkpt>
      <trkpt lat="43.37319" lon="2.25606">
        <ele>644.94976807</ele>
        <time>2022-07-10T12:04:33Z</time>
      </trkpt>
      <trkpt lat="43.37321" lon="2.25607">
        <ele>645.26977539</ele>
        <time>2022-07-10T12:04:34Z</time>
      </trkpt>
      <trkpt lat="43.37326" lon="2.25609">
        <ele>645.54980469</ele>
        <time>2022-07-10T12:04:35Z</time>
      </trkpt>
      <trkpt lat="43.3733" lon="2.25609">
        <ele>645.75982666</ele>
        <time>2022-07-10T12:04:36Z</time>
      </trkpt>
      <trkpt lat="43.37335" lon="2.25609">
        <ele>645.83984375</ele>
        <time>2022-07-10T12:04:37Z</time>
      </trkpt>
      <trkpt lat="43.37339" lon="2.25609">
        <ele>646.00982666</ele>
        <time>2022-07-10T12:04:38Z</time>
      </trkpt>
      <trkpt lat="43.37345" lon="2.25609">
        <ele>646.22979736</ele>
        <time>2022-07-10T12:04:39Z</time>
      </trkpt>
      <trkpt lat="43.3735" lon="2.25609">
        <ele>646.32977295</ele>
        <time>2022-07-10T12:04:40Z</time>
      </trkpt>
      <trkpt lat="43.37353" lon="2.25609">
        <ele>646.42974854</ele>
        <time>2022-07-10T12:04:41Z</time>
      </trkpt>
      <trkpt lat="43.37357" lon="2.25608">
        <ele>646.61975098</ele>
        <time>2022-07-10T12:04:42Z</time>
      </trkpt>
      <trkpt lat="43.37361" lon="2.25607">
        <ele>646.61975098</ele>
        <time>2022-07-10T12:04:43Z</time>
      </trkpt>
      <trkpt lat="43.37367" lon="2.25605">
        <ele>646.83972168</ele>
        <time>2022-07-10T12:04:44Z</time>
      </trkpt>
      <trkpt lat="43.3737" lon="2.25605">
        <ele>646.97973633</ele>
        <time>2022-07-10T12:04:45Z</time>
      </trkpt>
      <trkpt lat="43.37374" lon="2.25604">
        <ele>647.25976562</ele>
        <time>2022-07-10T12:04:46Z</time>
      </trkpt>
      <trkpt lat="43.37377" lon="2.25604">
        <ele>647.33978271</ele>
        <time>2022-07-10T12:04:47Z</time>
      </trkpt>
      <trkpt lat="43.37381" lon="2.25603">
        <ele>647.33978271</ele>
        <time>2022-07-10T12:04:48Z</time>
      </trkpt>
      <trkpt lat="43.37386" lon="2.25601">
        <ele>647.53979492</ele>
        <time>2022-07-10T12:04:49Z</time>
      </trkpt>
      <trkpt lat="43.37389" lon="2.256">
        <ele>647.76977539</ele>
        <time>2022-07-10T12:04:50Z</time>
      </trkpt>
      <trkpt lat="43.37393" lon="2.25599">
        <ele>648.06976318</ele>
        <time>2022-07-10T12:04:51Z</time>
      </trkpt>
      <trkpt lat="43.37396" lon="2.25598">
        <ele>648.30975342</ele>
        <time>2022-07-10T12:04:52Z</time>
      </trkpt>
      <trkpt lat="43.37402" lon="2.25597">
        <ele>648.45977783</ele>
        <time>2022-07-10T12:04:53Z</time>
      </trkpt>
      <trkpt lat="43.37405" lon="2.25596">
        <ele>648.7197876</ele>
        <time>2022-07-10T12:04:54Z</time>
      </trkpt>
      <trkpt lat="43.37409" lon="2.25595">
        <ele>648.95977783</ele>
        <time>2022-07-10T12:04:55Z</time>
      </trkpt>
      <trkpt lat="43.37412" lon="2.25595">
        <ele>649.1697998</ele>
        <time>2022-07-10T12:04:56Z</time>
      </trkpt>
      <trkpt lat="43.37418" lon="2.25594">
        <ele>649.43981934</ele>
        <time>2022-07-10T12:04:57Z</time>
      </trkpt>
      <trkpt lat="43.37422" lon="2.25594">
        <ele>649.60980225</ele>
        <time>2022-07-10T12:04:58Z</time>
      </trkpt>
      <trkpt lat="43.37425" lon="2.25594">
        <ele>649.75982666</ele>
        <time>2022-07-10T12:04:59Z</time>
      </trkpt>
      <trkpt lat="43.37429" lon="2.25593">
        <ele>649.75982666</ele>
        <time>2022-07-10T12:05:00Z</time>
      </trkpt>
      <trkpt lat="43.37432" lon="2.25593">
        <ele>650.22979736</ele>
        <time>2022-07-10T12:05:01Z</time>
      </trkpt>
      <trkpt lat="43.37437" lon="2.25593">
        <ele>649.99981689</ele>
        <time>2022-07-10T12:05:02Z</time>
      </trkpt>
      <trkpt lat="43.37441" lon="2.25593">
        <ele>650.1697998</ele>
        <time>2022-07-10T12:05:03Z</time>
      </trkpt>
      <trkpt lat="43.37444" lon="2.25593">
        <ele>650.1697998</ele>
        <time>2022-07-10T12:05:04Z</time>
      </trkpt>
      <trkpt lat="43.37447" lon="2.25593">
        <ele>650.40979004</ele>
        <time>2022-07-10T12:05:05Z</time>
      </trkpt>
      <trkpt lat="43.37453" lon="2.25595">
        <ele>650.73980713</ele>
        <time>2022-07-10T12:05:06Z</time>
      </trkpt>
      <trkpt lat="43.37456" lon="2.25595">
        <ele>650.73980713</ele>
        <time>2022-07-10T12:05:07Z</time>
      </trkpt>
      <trkpt lat="43.37459" lon="2.25596">
        <ele>650.95977783</ele>
        <time>2022-07-10T12:05:08Z</time>
      </trkpt>
      <trkpt lat="43.37463" lon="2.25597">
        <ele>650.95977783</ele>
        <time>2022-07-10T12:05:09Z</time>
      </trkpt>
      <trkpt lat="43.37466" lon="2.25598">
        <ele>651.15979004</ele>
        <time>2022-07-10T12:05:10Z</time>
      </trkpt>
      <trkpt lat="43.37471" lon="2.25599">
        <ele>651.33978271</ele>
        <time>2022-07-10T12:05:11Z</time>
      </trkpt>
      <trkpt lat="43.37475" lon="2.256">
        <ele>651.33978271</ele>
        <time>2022-07-10T12:05:12Z</time>
      </trkpt>
      <trkpt lat="43.37478" lon="2.256">
        <ele>651.69976807</ele>
        <time>2022-07-10T12:05:13Z</time>
      </trkpt>
      <trkpt lat="43.37481" lon="2.256">
        <ele>651.69976807</ele>
        <time>2022-07-10T12:05:14Z</time>
      </trkpt>
      <trkpt lat="43.37485" lon="2.25599">
        <ele>652.14978027</ele>
        <time>2022-07-10T12:05:15Z</time>
      </trkpt>
      <trkpt lat="43.3749" lon="2.25598">
        <ele>652.14978027</ele>
        <time>2022-07-10T12:05:16Z</time>
      </trkpt>
      <trkpt lat="43.37493" lon="2.25597">
        <ele>652.38977051</ele>
        <time>2022-07-10T12:05:17Z</time>
      </trkpt>
      <trkpt lat="43.37496" lon="2.25597">
        <ele>652.74975586</ele>
        <time>2022-07-10T12:05:18Z</time>
      </trkpt>
      <trkpt lat="43.37499" lon="2.25597">
        <ele>652.74975586</ele>
        <time>2022-07-10T12:05:19Z</time>
      </trkpt>
      <trkpt lat="43.37503" lon="2.25599">
        <ele>652.83978271</ele>
        <time>2022-07-10T12:05:20Z</time>
      </trkpt>
      <trkpt lat="43.37505" lon="2.25599">
        <ele>653.30975342</ele>
        <time>2022-07-10T12:05:21Z</time>
      </trkpt>
      <trkpt lat="43.37507" lon="2.25599">
        <ele>653.30975342</ele>
        <time>2022-07-10T12:05:22Z</time>
      </trkpt>
      <trkpt lat="43.37509" lon="2.25599">
        <ele>653.72973633</ele>
        <time>2022-07-10T12:05:23Z</time>
      </trkpt>
      <trkpt lat="43.37513" lon="2.25602">
        <ele>653.96972656</ele>
        <time>2022-07-10T12:05:24Z</time>
      </trkpt>
      <trkpt lat="43.37515" lon="2.25604">
        <ele>654.06970215</ele>
        <time>2022-07-10T12:05:25Z</time>
      </trkpt>
      <trkpt lat="43.37518" lon="2.25606">
        <ele>654.24969482</ele>
        <time>2022-07-10T12:05:26Z</time>
      </trkpt>
      <trkpt lat="43.3752" lon="2.25608">
        <ele>654.38970947</ele>
        <time>2022-07-10T12:05:27Z</time>
      </trkpt>
      <trkpt lat="43.37523" lon="2.2561">
        <ele>654.60968018</ele>
        <time>2022-07-10T12:05:28Z</time>
      </trkpt>
      <trkpt lat="43.37526" lon="2.25615">
        <ele>654.60968018</ele>
        <time>2022-07-10T12:05:29Z</time>
      </trkpt>
      <trkpt lat="43.37529" lon="2.25618">
        <ele>655.15966797</ele>
        <time>2022-07-10T12:05:30Z</time>
      </trkpt>
      <trkpt lat="43.37531" lon="2.2562">
        <ele>655.15966797</ele>
        <time>2022-07-10T12:05:31Z</time>
      </trkpt>
      <trkpt lat="43.37534" lon="2.25623">
        <ele>655.73968506</ele>
        <time>2022-07-10T12:05:32Z</time>
      </trkpt>
      <trkpt lat="43.37538" lon="2.25626">
        <ele>656.05969238</ele>
        <time>2022-07-10T12:05:33Z</time>
      </trkpt>
      <trkpt lat="43.37541" lon="2.25628">
        <ele>656.44970703</ele>
        <time>2022-07-10T12:05:34Z</time>
      </trkpt>
      <trkpt lat="43.37544" lon="2.2563">
        <ele>656.44970703</ele>
        <time>2022-07-10T12:05:35Z</time>
      </trkpt>
      <trkpt lat="43.37547" lon="2.25632">
        <ele>657.16967773</ele>
        <time>2022-07-10T12:05:36Z</time>
      </trkpt>
      <trkpt lat="43.37549" lon="2.25633">
        <ele>657.53967285</ele>
        <time>2022-07-10T12:05:37Z</time>
      </trkpt>
      <trkpt lat="43.37554" lon="2.25636">
        <ele>657.85968018</ele>
        <time>2022-07-10T12:05:38Z</time>
      </trkpt>
      <trkpt lat="43.37557" lon="2.25637">
        <ele>658.19970703</ele>
        <time>2022-07-10T12:05:39Z</time>
      </trkpt>
      <trkpt lat="43.37559" lon="2.25638">
        <ele>658.63970947</ele>
        <time>2022-07-10T12:05:40Z</time>
      </trkpt>
      <trkpt lat="43.37563" lon="2.25639">
        <ele>659.07971191</ele>
        <time>2022-07-10T12:05:41Z</time>
      </trkpt>
      <trkpt lat="43.37566" lon="2.25639">
        <ele>659.07971191</ele>
        <time>2022-07-10T12:05:42Z</time>
      </trkpt>
      <trkpt lat="43.37571" lon="2.25639">
        <ele>660.159729</ele>
        <time>2022-07-10T12:05:43Z</time>
      </trkpt>
      <trkpt lat="43.37574" lon="2.2564">
        <ele>660.6897583</ele>
        <time>2022-07-10T12:05:44Z</time>
      </trkpt>
      <trkpt lat="43.37576" lon="2.2564">
        <ele>661.1897583</ele>
        <time>2022-07-10T12:05:45Z</time>
      </trkpt>
      <trkpt lat="43.3758" lon="2.25639">
        <ele>661.1897583</ele>
        <time>2022-07-10T12:05:46Z</time>
      </trkpt>
      <trkpt lat="43.37584" lon="2.25636">
        <ele>662.16973877</ele>
        <time>2022-07-10T12:05:47Z</time>
      </trkpt>
      <trkpt lat="43.37586" lon="2.25635">
        <ele>662.6897583</ele>
        <time>2022-07-10T12:05:48Z</time>
      </trkpt>
      <trkpt lat="43.37587" lon="2.25633">
        <ele>663.13977051</ele>
        <time>2022-07-10T12:05:49Z</time>
      </trkpt>
      <trkpt lat="43.3759" lon="2.25631">
        <ele>663.47979736</ele>
        <time>2022-07-10T12:05:50Z</time>
      </trkpt>
      <trkpt lat="43.37593" lon="2.25627">
        <ele>663.75982666</ele>
        <time>2022-07-10T12:05:51Z</time>
      </trkpt>
      <trkpt lat="43.37595" lon="2.25624">
        <ele>663.95983887</ele>
        <time>2022-07-10T12:05:52Z</time>
      </trkpt>
      <trkpt lat="43.37597" lon="2.25621">
        <ele>663.95983887</ele>
        <time>2022-07-10T12:05:53Z</time>
      </trkpt>
      <trkpt lat="43.37599" lon="2.25617">
        <ele>664.1998291</ele>
        <time>2022-07-10T12:05:54Z</time>
      </trkpt>
      <trkpt lat="43.376" lon="2.25614">
        <ele>664.61981201</ele>
        <time>2022-07-10T12:05:55Z</time>
      </trkpt>
      <trkpt lat="43.37602" lon="2.25609">
        <ele>664.61981201</ele>
        <time>2022-07-10T12:05:56Z</time>
      </trkpt>
      <trkpt lat="43.37603" lon="2.25606">
        <ele>664.84979248</ele>
        <time>2022-07-10T12:05:57Z</time>
      </trkpt>
      <trkpt lat="43.37604" lon="2.25603">
        <ele>665.11981201</ele>
        <time>2022-07-10T12:05:58Z</time>
      </trkpt>
      <trkpt lat="43.37606" lon="2.256">
        <ele>665.7197876</ele>
        <time>2022-07-10T12:05:59Z</time>
      </trkpt>
      <trkpt lat="43.37609" lon="2.25595">
        <ele>665.7197876</ele>
        <time>2022-07-10T12:06:00Z</time>
      </trkpt>
      <trkpt lat="43.37611" lon="2.25593">
        <ele>665.97979736</ele>
        <time>2022-07-10T12:06:01Z</time>
      </trkpt>
      <trkpt lat="43.37613" lon="2.25589">
        <ele>666.34979248</ele>
        <time>2022-07-10T12:06:02Z</time>
      </trkpt>
      <trkpt lat="43.37616" lon="2.25586">
        <ele>666.49981689</ele>
        <time>2022-07-10T12:06:03Z</time>
      </trkpt>
      <trkpt lat="43.37618" lon="2.25582">
        <ele>666.49981689</ele>
        <time>2022-07-10T12:06:04Z</time>
      </trkpt>
      <trkpt lat="43.37621" lon="2.25577">
        <ele>666.7197876</ele>
        <time>2022-07-10T12:06:05Z</time>
      </trkpt>
      <trkpt lat="43.37624" lon="2.25574">
        <ele>667.35980225</ele>
        <time>2022-07-10T12:06:06Z</time>
      </trkpt>
      <trkpt lat="43.37626" lon="2.25571">
        <ele>667.6998291</ele>
        <time>2022-07-10T12:06:07Z</time>
      </trkpt>
      <trkpt lat="43.37629" lon="2.25568">
        <ele>667.9798584</ele>
        <time>2022-07-10T12:06:08Z</time>
      </trkpt>
      <trkpt lat="43.37633" lon="2.25563">
        <ele>667.9798584</ele>
        <time>2022-07-10T12:06:09Z</time>
      </trkpt>
      <trkpt lat="43.37635" lon="2.2556">
        <ele>668.63983154</ele>
        <time>2022-07-10T12:06:10Z</time>
      </trkpt>
      <trkpt lat="43.37638" lon="2.25558">
        <ele>668.9498291</ele>
        <time>2022-07-10T12:06:11Z</time>
      </trkpt>
      <trkpt lat="43.37641" lon="2.25556">
        <ele>669.4197998</ele>
        <time>2022-07-10T12:06:12Z</time>
      </trkpt>
      <trkpt lat="43.37643" lon="2.25553">
        <ele>669.4197998</ele>
        <time>2022-07-10T12:06:13Z</time>
      </trkpt>
      <trkpt lat="43.37647" lon="2.2555">
        <ele>670.08978271</ele>
        <time>2022-07-10T12:06:14Z</time>
      </trkpt>
      <trkpt lat="43.37651" lon="2.25548">
        <ele>670.33978271</ele>
        <time>2022-07-10T12:06:15Z</time>
      </trkpt>
      <trkpt lat="43.37653" lon="2.25546">
        <ele>670.52978516</ele>
        <time>2022-07-10T12:06:16Z</time>
      </trkpt>
      <trkpt lat="43.37656" lon="2.25544">
        <ele>670.76977539</ele>
        <time>2022-07-10T12:06:17Z</time>
      </trkpt>
      <trkpt lat="43.37659" lon="2.25542">
        <ele>671.02978516</ele>
        <time>2022-07-10T12:06:18Z</time>
      </trkpt>
      <trkpt lat="43.37663" lon="2.2554">
        <ele>671.02978516</ele>
        <time>2022-07-10T12:06:19Z</time>
      </trkpt>
      <trkpt lat="43.37666" lon="2.25538">
        <ele>671.32977295</ele>
        <time>2022-07-10T12:06:20Z</time>
      </trkpt>
      <trkpt lat="43.37669" lon="2.25536">
        <ele>671.88977051</ele>
        <time>2022-07-10T12:06:21Z</time>
      </trkpt>
      <trkpt lat="43.37671" lon="2.25533">
        <ele>672.13977051</ele>
        <time>2022-07-10T12:06:22Z</time>
      </trkpt>
      <trkpt lat="43.37675" lon="2.2553">
        <ele>672.35974121</ele>
        <time>2022-07-10T12:06:23Z</time>
      </trkpt>
      <trkpt lat="43.37677" lon="2.25527">
        <ele>672.35974121</ele>
        <time>2022-07-10T12:06:24Z</time>
      </trkpt>
      <trkpt lat="43.3768" lon="2.25525">
        <ele>672.76971436</ele>
        <time>2022-07-10T12:06:25Z</time>
      </trkpt>
      <trkpt lat="43.37683" lon="2.25522">
        <ele>672.98968506</ele>
        <time>2022-07-10T12:06:26Z</time>
      </trkpt>
      <trkpt lat="43.37685" lon="2.25518">
        <ele>673.16967773</ele>
        <time>2022-07-10T12:06:27Z</time>
      </trkpt>
      <trkpt lat="43.37687" lon="2.25515">
        <ele>673.16967773</ele>
        <time>2022-07-10T12:06:28Z</time>
      </trkpt>
      <trkpt lat="43.37689" lon="2.25512">
        <ele>673.54968262</ele>
        <time>2022-07-10T12:06:29Z</time>
      </trkpt>
      <trkpt lat="43.37691" lon="2.25509">
        <ele>673.54968262</ele>
        <time>2022-07-10T12:06:30Z</time>
      </trkpt>
      <trkpt lat="43.37693" lon="2.25506">
        <ele>673.71966553</ele>
        <time>2022-07-10T12:06:31Z</time>
      </trkpt>
      <trkpt lat="43.37697" lon="2.25502">
        <ele>673.9296875</ele>
        <time>2022-07-10T12:06:32Z</time>
      </trkpt>
      <trkpt lat="43.37699" lon="2.255">
        <ele>674.1496582</ele>
        <time>2022-07-10T12:06:33Z</time>
      </trkpt>
      <trkpt lat="43.37701" lon="2.25497">
        <ele>674.61962891</ele>
        <time>2022-07-10T12:06:34Z</time>
      </trkpt>
      <trkpt lat="43.37704" lon="2.25494">
        <ele>674.84960938</ele>
        <time>2022-07-10T12:06:35Z</time>
      </trkpt>
      <trkpt lat="43.37706" lon="2.25491">
        <ele>675.05963135</ele>
        <time>2022-07-10T12:06:36Z</time>
      </trkpt>
      <trkpt lat="43.3771" lon="2.25487">
        <ele>675.28961182</ele>
        <time>2022-07-10T12:06:37Z</time>
      </trkpt>
      <trkpt lat="43.37713" lon="2.25485">
        <ele>675.56964111</ele>
        <time>2022-07-10T12:06:38Z</time>
      </trkpt>
      <trkpt lat="43.37716" lon="2.25482">
        <ele>675.56964111</ele>
        <time>2022-07-10T12:06:39Z</time>
      </trkpt>
      <trkpt lat="43.37719" lon="2.2548">
        <ele>676.07965088</ele>
        <time>2022-07-10T12:06:40Z</time>
      </trkpt>
      <trkpt lat="43.37723" lon="2.25477">
        <ele>676.07965088</ele>
        <time>2022-07-10T12:06:41Z</time>
      </trkpt>
      <trkpt lat="43.37726" lon="2.25475">
        <ele>676.55963135</ele>
        <time>2022-07-10T12:06:42Z</time>
      </trkpt>
      <trkpt lat="43.37729" lon="2.25473">
        <ele>676.77960205</ele>
        <time>2022-07-10T12:06:43Z</time>
      </trkpt>
      <trkpt lat="43.37732" lon="2.25471">
        <ele>677.11962891</ele>
        <time>2022-07-10T12:06:44Z</time>
      </trkpt>
      <trkpt lat="43.37737" lon="2.25469">
        <ele>677.11962891</ele>
        <time>2022-07-10T12:06:45Z</time>
      </trkpt>
      <trkpt lat="43.3774" lon="2.25466">
        <ele>677.699646</ele>
        <time>2022-07-10T12:06:46Z</time>
      </trkpt>
      <trkpt lat="43.37743" lon="2.25465">
        <ele>677.97967529</ele>
        <time>2022-07-10T12:06:47Z</time>
      </trkpt>
      <trkpt lat="43.37746" lon="2.25463">
        <ele>678.18969727</ele>
        <time>2022-07-10T12:06:48Z</time>
      </trkpt>
      <trkpt lat="43.37749" lon="2.25462">
        <ele>678.47967529</ele>
        <time>2022-07-10T12:06:49Z</time>
      </trkpt>
      <trkpt lat="43.37753" lon="2.2546">
        <ele>678.47967529</ele>
        <time>2022-07-10T12:06:50Z</time>
      </trkpt>
      <trkpt lat="43.37756" lon="2.25458">
        <ele>678.99969482</ele>
        <time>2022-07-10T12:06:51Z</time>
      </trkpt>
      <trkpt lat="43.37759" lon="2.25457">
        <ele>679.27972412</ele>
        <time>2022-07-10T12:06:52Z</time>
      </trkpt>
      <trkpt lat="43.37762" lon="2.25456">
        <ele>679.47973633</ele>
        <time>2022-07-10T12:06:53Z</time>
      </trkpt>
      <trkpt lat="43.37765" lon="2.25454">
        <ele>679.79974365</ele>
        <time>2022-07-10T12:06:54Z</time>
      </trkpt>
      <trkpt lat="43.37769" lon="2.25452">
        <ele>680.02972412</ele>
        <time>2022-07-10T12:06:55Z</time>
      </trkpt>
      <trkpt lat="43.37772" lon="2.2545">
        <ele>680.30975342</ele>
        <time>2022-07-10T12:06:56Z</time>
      </trkpt>
      <trkpt lat="43.37775" lon="2.25449">
        <ele>680.63977051</ele>
        <time>2022-07-10T12:06:57Z</time>
      </trkpt>
      <trkpt lat="43.37778" lon="2.25448">
        <ele>680.9197998</ele>
        <time>2022-07-10T12:06:58Z</time>
      </trkpt>
      <trkpt lat="43.37783" lon="2.25447">
        <ele>680.9197998</ele>
        <time>2022-07-10T12:06:59Z</time>
      </trkpt>
      <trkpt lat="43.37786" lon="2.25447">
        <ele>681.64978027</ele>
        <time>2022-07-10T12:07:00Z</time>
      </trkpt>
      <trkpt lat="43.37789" lon="2.25446">
        <ele>681.9397583</ele>
        <time>2022-07-10T12:07:01Z</time>
      </trkpt>
      <trkpt lat="43.37793" lon="2.25446">
        <ele>681.9397583</ele>
        <time>2022-07-10T12:07:02Z</time>
      </trkpt>
      <trkpt lat="43.37796" lon="2.25445">
        <ele>682.83978271</ele>
        <time>2022-07-10T12:07:03Z</time>
      </trkpt>
      <trkpt lat="43.37801" lon="2.25444">
        <ele>683.12976074</ele>
        <time>2022-07-10T12:07:04Z</time>
      </trkpt>
      <trkpt lat="43.37804" lon="2.25443">
        <ele>683.63977051</ele>
        <time>2022-07-10T12:07:05Z</time>
      </trkpt>
      <trkpt lat="43.37807" lon="2.25443">
        <ele>683.63977051</ele>
        <time>2022-07-10T12:07:06Z</time>
      </trkpt>
      <trkpt lat="43.3781" lon="2.25442">
        <ele>684.23974609</ele>
        <time>2022-07-10T12:07:07Z</time>
      </trkpt>
      <trkpt lat="43.37815" lon="2.25441">
        <ele>684.50976562</ele>
        <time>2022-07-10T12:07:08Z</time>
      </trkpt>
      <trkpt lat="43.37818" lon="2.2544">
        <ele>684.74975586</ele>
        <time>2022-07-10T12:07:09Z</time>
      </trkpt>
      <trkpt lat="43.37821" lon="2.25439">
        <ele>684.74975586</ele>
        <time>2022-07-10T12:07:10Z</time>
      </trkpt>
      <trkpt lat="43.37824" lon="2.25438">
        <ele>685.35974121</ele>
        <time>2022-07-10T12:07:11Z</time>
      </trkpt>
      <trkpt lat="43.37827" lon="2.25436">
        <ele>685.35974121</ele>
        <time>2022-07-10T12:07:12Z</time>
      </trkpt>
      <trkpt lat="43.37832" lon="2.25434">
        <ele>686.16973877</ele>
        <time>2022-07-10T12:07:13Z</time>
      </trkpt>
      <trkpt lat="43.37835" lon="2.25433">
        <ele>686.63970947</ele>
        <time>2022-07-10T12:07:14Z</time>
      </trkpt>
      <trkpt lat="43.37838" lon="2.25431">
        <ele>686.63970947</ele>
        <time>2022-07-10T12:07:15Z</time>
      </trkpt>
      <trkpt lat="43.37841" lon="2.25431">
        <ele>687.49969482</ele>
        <time>2022-07-10T12:07:16Z</time>
      </trkpt>
      <trkpt lat="43.37845" lon="2.25429">
        <ele>687.49969482</ele>
        <time>2022-07-10T12:07:17Z</time>
      </trkpt>
      <trkpt lat="43.37848" lon="2.25427">
        <ele>687.82971191</ele>
        <time>2022-07-10T12:07:18Z</time>
      </trkpt>
      <trkpt lat="43.37851" lon="2.25424">
        <ele>688.35974121</ele>
        <time>2022-07-10T12:07:19Z</time>
      </trkpt>
      <trkpt lat="43.37854" lon="2.25423">
        <ele>688.59973145</ele>
        <time>2022-07-10T12:07:20Z</time>
      </trkpt>
      <trkpt lat="43.37858" lon="2.2542">
        <ele>688.909729</ele>
        <time>2022-07-10T12:07:21Z</time>
      </trkpt>
      <trkpt lat="43.37861" lon="2.25418">
        <ele>689.14971924</ele>
        <time>2022-07-10T12:07:22Z</time>
      </trkpt>
      <trkpt lat="43.37864" lon="2.25416">
        <ele>689.51971436</ele>
        <time>2022-07-10T12:07:23Z</time>
      </trkpt>
      <trkpt lat="43.37867" lon="2.25415">
        <ele>689.7097168</ele>
        <time>2022-07-10T12:07:24Z</time>
      </trkpt>
      <trkpt lat="43.3787" lon="2.25413">
        <ele>689.7097168</ele>
        <time>2022-07-10T12:07:25Z</time>
      </trkpt>
      <trkpt lat="43.37875" lon="2.2541">
        <ele>690.03973389</ele>
        <time>2022-07-10T12:07:26Z</time>
      </trkpt>
      <trkpt lat="43.37877" lon="2.25407">
        <ele>690.24975586</ele>
        <time>2022-07-10T12:07:27Z</time>
      </trkpt>
      <trkpt lat="43.3788" lon="2.25404">
        <ele>690.24975586</ele>
        <time>2022-07-10T12:07:28Z</time>
      </trkpt>
      <trkpt lat="43.37882" lon="2.25401">
        <ele>690.84973145</ele>
        <time>2022-07-10T12:07:29Z</time>
      </trkpt>
      <trkpt lat="43.37883" lon="2.25398">
        <ele>691.07971191</ele>
        <time>2022-07-10T12:07:30Z</time>
      </trkpt>
      <trkpt lat="43.37884" lon="2.25393">
        <ele>691.24969482</ele>
        <time>2022-07-10T12:07:31Z</time>
      </trkpt>
      <trkpt lat="43.37884" lon="2.2539">
        <ele>691.39971924</ele>
        <time>2022-07-10T12:07:32Z</time>
      </trkpt>
      <trkpt lat="43.37885" lon="2.25386">
        <ele>691.51971436</ele>
        <time>2022-07-10T12:07:33Z</time>
      </trkpt>
      <trkpt lat="43.37887" lon="2.25383">
        <ele>691.51971436</ele>
        <time>2022-07-10T12:07:34Z</time>
      </trkpt>
      <trkpt lat="43.37889" lon="2.25379">
        <ele>691.58972168</ele>
        <time>2022-07-10T12:07:35Z</time>
      </trkpt>
      <trkpt lat="43.3789" lon="2.25376">
        <ele>691.67974854</ele>
        <time>2022-07-10T12:07:36Z</time>
      </trkpt>
      <trkpt lat="43.37892" lon="2.25372">
        <ele>691.92974854</ele>
        <time>2022-07-10T12:07:37Z</time>
      </trkpt>
      <trkpt lat="43.37894" lon="2.25369">
        <ele>691.92974854</ele>
        <time>2022-07-10T12:07:38Z</time>
      </trkpt>
      <trkpt lat="43.37896" lon="2.25364">
        <ele>692.45977783</ele>
        <time>2022-07-10T12:07:39Z</time>
      </trkpt>
      <trkpt lat="43.37898" lon="2.25361">
        <ele>692.67974854</ele>
        <time>2022-07-10T12:07:40Z</time>
      </trkpt>
      <trkpt lat="43.37899" lon="2.25358">
        <ele>692.67974854</ele>
        <time>2022-07-10T12:07:41Z</time>
      </trkpt>
      <trkpt lat="43.37901" lon="2.25354">
        <ele>693.11975098</ele>
        <time>2022-07-10T12:07:42Z</time>
      </trkpt>
      <trkpt lat="43.37902" lon="2.2535">
        <ele>693.33972168</ele>
        <time>2022-07-10T12:07:43Z</time>
      </trkpt>
      <trkpt lat="43.37904" lon="2.25345">
        <ele>693.33972168</ele>
        <time>2022-07-10T12:07:44Z</time>
      </trkpt>
      <trkpt lat="43.37905" lon="2.25342">
        <ele>693.79974365</ele>
        <time>2022-07-10T12:07:45Z</time>
      </trkpt>
      <trkpt lat="43.37906" lon="2.25339">
        <ele>693.91973877</ele>
        <time>2022-07-10T12:07:46Z</time>
      </trkpt>
      <trkpt lat="43.37908" lon="2.25336">
        <ele>694.09973145</ele>
        <time>2022-07-10T12:07:47Z</time>
      </trkpt>
      <trkpt lat="43.37909" lon="2.25333">
        <ele>694.09973145</ele>
        <time>2022-07-10T12:07:48Z</time>
      </trkpt>
      <trkpt lat="43.37912" lon="2.25328">
        <ele>694.34973145</ele>
        <time>2022-07-10T12:07:49Z</time>
      </trkpt>
      <trkpt lat="43.37914" lon="2.25326">
        <ele>694.88970947</ele>
        <time>2022-07-10T12:07:50Z</time>
      </trkpt>
      <trkpt lat="43.37915" lon="2.25322">
        <ele>695.09973145</ele>
        <time>2022-07-10T12:07:51Z</time>
      </trkpt>
      <trkpt lat="43.37917" lon="2.25318">
        <ele>695.38970947</ele>
        <time>2022-07-10T12:07:52Z</time>
      </trkpt>
      <trkpt lat="43.3792" lon="2.25312">
        <ele>695.38970947</ele>
        <time>2022-07-10T12:07:53Z</time>
      </trkpt>
      <trkpt lat="43.37921" lon="2.2531">
        <ele>695.73968506</ele>
        <time>2022-07-10T12:07:54Z</time>
      </trkpt>
      <trkpt lat="43.37923" lon="2.25306">
        <ele>695.97967529</ele>
        <time>2022-07-10T12:07:55Z</time>
      </trkpt>
      <trkpt lat="43.37925" lon="2.25303">
        <ele>696.30969238</ele>
        <time>2022-07-10T12:07:56Z</time>
      </trkpt>
      <trkpt lat="43.37926" lon="2.253">
        <ele>696.58972168</ele>
        <time>2022-07-10T12:07:57Z</time>
      </trkpt>
      <trkpt lat="43.3793" lon="2.25295">
        <ele>696.97973633</ele>
        <time>2022-07-10T12:07:58Z</time>
      </trkpt>
      <trkpt lat="43.37932" lon="2.25291">
        <ele>696.97973633</ele>
        <time>2022-07-10T12:07:59Z</time>
      </trkpt>
      <trkpt lat="43.37934" lon="2.25287">
        <ele>697.29974365</ele>
        <time>2022-07-10T12:08:00Z</time>
      </trkpt>
      <trkpt lat="43.37935" lon="2.25283">
        <ele>697.38977051</ele>
        <time>2022-07-10T12:08:01Z</time>
      </trkpt>
      <trkpt lat="43.37938" lon="2.25277">
        <ele>697.38977051</ele>
        <time>2022-07-10T12:08:02Z</time>
      </trkpt>
      <trkpt lat="43.3794" lon="2.25272">
        <ele>697.54974365</ele>
        <time>2022-07-10T12:08:03Z</time>
      </trkpt>
      <trkpt lat="43.37942" lon="2.25268">
        <ele>697.69976807</ele>
        <time>2022-07-10T12:08:04Z</time>
      </trkpt>
      <trkpt lat="43.37944" lon="2.25263">
        <ele>697.69976807</ele>
        <time>2022-07-10T12:08:05Z</time>
      </trkpt>
      <trkpt lat="43.37946" lon="2.25259">
        <ele>697.91973877</ele>
        <time>2022-07-10T12:08:06Z</time>
      </trkpt>
      <trkpt lat="43.37949" lon="2.25253">
        <ele>698.16973877</ele>
        <time>2022-07-10T12:08:07Z</time>
      </trkpt>
      <trkpt lat="43.37951" lon="2.25248">
        <ele>698.28973389</ele>
        <time>2022-07-10T12:08:08Z</time>
      </trkpt>
      <trkpt lat="43.37953" lon="2.25244">
        <ele>698.46972656</ele>
        <time>2022-07-10T12:08:09Z</time>
      </trkpt>
      <trkpt lat="43.37954" lon="2.25239">
        <ele>698.56970215</ele>
        <time>2022-07-10T12:08:10Z</time>
      </trkpt>
      <trkpt lat="43.37956" lon="2.25233">
        <ele>698.59973145</ele>
        <time>2022-07-10T12:08:11Z</time>
      </trkpt>
      <trkpt lat="43.37957" lon="2.25228">
        <ele>698.61975098</ele>
        <time>2022-07-10T12:08:12Z</time>
      </trkpt>
      <trkpt lat="43.37958" lon="2.25224">
        <ele>698.55975342</ele>
        <time>2022-07-10T12:08:13Z</time>
      </trkpt>
      <trkpt lat="43.3796" lon="2.25221">
        <ele>698.59973145</ele>
        <time>2022-07-10T12:08:14Z</time>
      </trkpt>
      <trkpt lat="43.37961" lon="2.25218">
        <ele>698.59973145</ele>
        <time>2022-07-10T12:08:15Z</time>
      </trkpt>
      <trkpt lat="43.37965" lon="2.25214">
        <ele>698.91973877</ele>
        <time>2022-07-10T12:08:16Z</time>
      </trkpt>
      <trkpt lat="43.37967" lon="2.25211">
        <ele>698.9597168</ele>
        <time>2022-07-10T12:08:17Z</time>
      </trkpt>
      <trkpt lat="43.37969" lon="2.25208">
        <ele>698.99969482</ele>
        <time>2022-07-10T12:08:18Z</time>
      </trkpt>
      <trkpt lat="43.37971" lon="2.25206">
        <ele>698.99969482</ele>
        <time>2022-07-10T12:08:19Z</time>
      </trkpt>
      <trkpt lat="43.37975" lon="2.25202">
        <ele>698.91967773</ele>
        <time>2022-07-10T12:08:20Z</time>
      </trkpt>
      <trkpt lat="43.37976" lon="2.25198">
        <ele>698.99969482</ele>
        <time>2022-07-10T12:08:21Z</time>
      </trkpt>
      <trkpt lat="43.37978" lon="2.25194">
        <ele>699.23968506</ele>
        <time>2022-07-10T12:08:22Z</time>
      </trkpt>
      <trkpt lat="43.37979" lon="2.2519">
        <ele>699.30969238</ele>
        <time>2022-07-10T12:08:23Z</time>
      </trkpt>
      <trkpt lat="43.3798" lon="2.25187">
        <ele>699.31970215</ele>
        <time>2022-07-10T12:08:24Z</time>
      </trkpt>
      <trkpt lat="43.37984" lon="2.25182">
        <ele>699.31970215</ele>
        <time>2022-07-10T12:08:25Z</time>
      </trkpt>
      <trkpt lat="43.37986" lon="2.25178">
        <ele>699.16967773</ele>
        <time>2022-07-10T12:08:26Z</time>
      </trkpt>
      <trkpt lat="43.37989" lon="2.25175">
        <ele>699.02966309</ele>
        <time>2022-07-10T12:08:27Z</time>
      </trkpt>
      <trkpt lat="43.37992" lon="2.25171">
        <ele>699.02966309</ele>
        <time>2022-07-10T12:08:28Z</time>
      </trkpt>
      <trkpt lat="43.37994" lon="2.25163">
        <ele>698.90966797</ele>
        <time>2022-07-10T12:08:29Z</time>
      </trkpt>
      <trkpt lat="43.37995" lon="2.25158">
        <ele>698.85968018</ele>
        <time>2022-07-10T12:08:30Z</time>
      </trkpt>
      <trkpt lat="43.37997" lon="2.25151">
        <ele>698.85968018</ele>
        <time>2022-07-10T12:08:31Z</time>
      </trkpt>
      <trkpt lat="43.37998" lon="2.25145">
        <ele>698.96966553</ele>
        <time>2022-07-10T12:08:32Z</time>
      </trkpt>
      <trkpt lat="43.37999" lon="2.25138">
        <ele>698.96966553</ele>
        <time>2022-07-10T12:08:33Z</time>
      </trkpt>
      <trkpt lat="43.38001" lon="2.25128">
        <ele>699.05969238</ele>
        <time>2022-07-10T12:08:34Z</time>
      </trkpt>
      <trkpt lat="43.38003" lon="2.25121">
        <ele>699.07971191</ele>
        <time>2022-07-10T12:08:35Z</time>
      </trkpt>
      <trkpt lat="43.38005" lon="2.25115">
        <ele>699.00970459</ele>
        <time>2022-07-10T12:08:36Z</time>
      </trkpt>
      <trkpt lat="43.38007" lon="2.25109">
        <ele>699.00970459</ele>
        <time>2022-07-10T12:08:37Z</time>
      </trkpt>
      <trkpt lat="43.3801" lon="2.25098">
        <ele>698.9597168</ele>
        <time>2022-07-10T12:08:38Z</time>
      </trkpt>
      <trkpt lat="43.38011" lon="2.25092">
        <ele>698.93969727</ele>
        <time>2022-07-10T12:08:39Z</time>
      </trkpt>
      <trkpt lat="43.38014" lon="2.25085">
        <ele>698.93969727</ele>
        <time>2022-07-10T12:08:40Z</time>
      </trkpt>
      <trkpt lat="43.38016" lon="2.25079">
        <ele>698.89971924</ele>
        <time>2022-07-10T12:08:41Z</time>
      </trkpt>
      <trkpt lat="43.38017" lon="2.25073">
        <ele>698.89971924</ele>
        <time>2022-07-10T12:08:42Z</time>
      </trkpt>
      <trkpt lat="43.38021" lon="2.25063">
        <ele>698.92974854</ele>
        <time>2022-07-10T12:08:43Z</time>
      </trkpt>
      <trkpt lat="43.38023" lon="2.25056">
        <ele>698.92974854</ele>
        <time>2022-07-10T12:08:44Z</time>
      </trkpt>
      <trkpt lat="43.38025" lon="2.25051">
        <ele>698.99975586</ele>
        <time>2022-07-10T12:08:45Z</time>
      </trkpt>
      <trkpt lat="43.38028" lon="2.25044">
        <ele>698.87976074</ele>
        <time>2022-07-10T12:08:46Z</time>
      </trkpt>
      <trkpt lat="43.38032" lon="2.25035">
        <ele>698.82977295</ele>
        <time>2022-07-10T12:08:47Z</time>
      </trkpt>
      <trkpt lat="43.38034" lon="2.25028">
        <ele>698.86975098</ele>
        <time>2022-07-10T12:08:48Z</time>
      </trkpt>
      <trkpt lat="43.38036" lon="2.25023">
        <ele>698.86975098</ele>
        <time>2022-07-10T12:08:49Z</time>
      </trkpt>
      <trkpt lat="43.38037" lon="2.25018">
        <ele>698.72973633</ele>
        <time>2022-07-10T12:08:50Z</time>
      </trkpt>
      <trkpt lat="43.3804" lon="2.25011">
        <ele>698.72973633</ele>
        <time>2022-07-10T12:08:51Z</time>
      </trkpt>
      <trkpt lat="43.38042" lon="2.25006">
        <ele>698.659729</ele>
        <time>2022-07-10T12:08:52Z</time>
      </trkpt>
      <trkpt lat="43.38044" lon="2.25001">
        <ele>698.84973145</ele>
        <time>2022-07-10T12:08:53Z</time>
      </trkpt>
      <trkpt lat="43.38046" lon="2.24996">
        <ele>698.84973145</ele>
        <time>2022-07-10T12:08:54Z</time>
      </trkpt>
      <trkpt lat="43.38048" lon="2.24991">
        <ele>698.85974121</ele>
        <time>2022-07-10T12:08:55Z</time>
      </trkpt>
      <trkpt lat="43.3805" lon="2.24982">
        <ele>698.86975098</ele>
        <time>2022-07-10T12:08:56Z</time>
      </trkpt>
      <trkpt lat="43.38052" lon="2.24976">
        <ele>698.76977539</ele>
        <time>2022-07-10T12:08:57Z</time>
      </trkpt>
      <trkpt lat="43.38054" lon="2.2497">
        <ele>698.76977539</ele>
        <time>2022-07-10T12:08:58Z</time>
      </trkpt>
      <trkpt lat="43.38055" lon="2.24963">
        <ele>698.64978027</ele>
        <time>2022-07-10T12:08:59Z</time>
      </trkpt>
      <trkpt lat="43.38057" lon="2.24957">
        <ele>698.64978027</ele>
        <time>2022-07-10T12:09:00Z</time>
      </trkpt>
      <trkpt lat="43.38059" lon="2.24945">
        <ele>698.2197876</ele>
        <time>2022-07-10T12:09:01Z</time>
      </trkpt>
      <trkpt lat="43.38059" lon="2.24939">
        <ele>697.78979492</ele>
        <time>2022-07-10T12:09:02Z</time>
      </trkpt>
      <trkpt lat="43.38058" lon="2.24932">
        <ele>697.78979492</ele>
        <time>2022-07-10T12:09:03Z</time>
      </trkpt>
      <trkpt lat="43.38056" lon="2.24925">
        <ele>697.34979248</ele>
        <time>2022-07-10T12:09:04Z</time>
      </trkpt>
      <trkpt lat="43.38051" lon="2.24917">
        <ele>697.24981689</ele>
        <time>2022-07-10T12:09:05Z</time>
      </trkpt>
      <trkpt lat="43.38048" lon="2.24913">
        <ele>697.31982422</ele>
        <time>2022-07-10T12:09:06Z</time>
      </trkpt>
      <trkpt lat="43.38044" lon="2.24908">
        <ele>697.31982422</ele>
        <time>2022-07-10T12:09:07Z</time>
      </trkpt>
      <trkpt lat="43.38039" lon="2.24902">
        <ele>697.12982178</ele>
        <time>2022-07-10T12:09:08Z</time>
      </trkpt>
      <trkpt lat="43.38035" lon="2.24897">
        <ele>697.02984619</ele>
        <time>2022-07-10T12:09:09Z</time>
      </trkpt>
      <trkpt lat="43.38028" lon="2.2489">
        <ele>696.96984863</ele>
        <time>2022-07-10T12:09:10Z</time>
      </trkpt>
      <trkpt lat="43.38024" lon="2.24885">
        <ele>696.89984131</ele>
        <time>2022-07-10T12:09:11Z</time>
      </trkpt>
      <trkpt lat="43.38019" lon="2.24881">
        <ele>696.77984619</ele>
        <time>2022-07-10T12:09:12Z</time>
      </trkpt>
      <trkpt lat="43.38015" lon="2.24876">
        <ele>696.66986084</ele>
        <time>2022-07-10T12:09:13Z</time>
      </trkpt>
      <trkpt lat="43.38009" lon="2.24869">
        <ele>696.66986084</ele>
        <time>2022-07-10T12:09:14Z</time>
      </trkpt>
      <trkpt lat="43.38005" lon="2.24864">
        <ele>696.41986084</ele>
        <time>2022-07-10T12:09:15Z</time>
      </trkpt>
      <trkpt lat="43.38001" lon="2.24859">
        <ele>696.26983643</ele>
        <time>2022-07-10T12:09:16Z</time>
      </trkpt>
      <trkpt lat="43.37998" lon="2.24854">
        <ele>696.03985596</ele>
        <time>2022-07-10T12:09:17Z</time>
      </trkpt>
      <trkpt lat="43.37993" lon="2.24848">
        <ele>696.03985596</ele>
        <time>2022-07-10T12:09:18Z</time>
      </trkpt>
      <trkpt lat="43.3799" lon="2.24844">
        <ele>695.83984375</ele>
        <time>2022-07-10T12:09:19Z</time>
      </trkpt>
      <trkpt lat="43.37986" lon="2.24841">
        <ele>695.48986816</ele>
        <time>2022-07-10T12:09:20Z</time>
      </trkpt>
      <trkpt lat="43.37982" lon="2.24837">
        <ele>695.09985352</ele>
        <time>2022-07-10T12:09:21Z</time>
      </trkpt>
      <trkpt lat="43.37979" lon="2.24832">
        <ele>694.60986328</ele>
        <time>2022-07-10T12:09:22Z</time>
      </trkpt>
      <trkpt lat="43.37973" lon="2.24825">
        <ele>694.4798584</ele>
        <time>2022-07-10T12:09:23Z</time>
      </trkpt>
      <trkpt lat="43.37969" lon="2.24821">
        <ele>694.4798584</ele>
        <time>2022-07-10T12:09:24Z</time>
      </trkpt>
      <trkpt lat="43.37965" lon="2.24817">
        <ele>694.48986816</ele>
        <time>2022-07-10T12:09:25Z</time>
      </trkpt>
      <trkpt lat="43.37963" lon="2.24814">
        <ele>694.39984131</ele>
        <time>2022-07-10T12:09:26Z</time>
      </trkpt>
      <trkpt lat="43.37958" lon="2.24808">
        <ele>694.39984131</ele>
        <time>2022-07-10T12:09:27Z</time>
      </trkpt>
      <trkpt lat="43.37954" lon="2.24804">
        <ele>694.42987061</ele>
        <time>2022-07-10T12:09:28Z</time>
      </trkpt>
      <trkpt lat="43.37949" lon="2.24799">
        <ele>694.08984375</ele>
        <time>2022-07-10T12:09:29Z</time>
      </trkpt>
      <trkpt lat="43.37946" lon="2.24795">
        <ele>694.08984375</ele>
        <time>2022-07-10T12:09:30Z</time>
      </trkpt>
      <trkpt lat="43.37942" lon="2.2479">
        <ele>693.56982422</ele>
        <time>2022-07-10T12:09:31Z</time>
      </trkpt>
      <trkpt lat="43.37937" lon="2.24783">
        <ele>693.56982422</ele>
        <time>2022-07-10T12:09:32Z</time>
      </trkpt>
      <trkpt lat="43.37933" lon="2.24779">
        <ele>692.90985107</ele>
        <time>2022-07-10T12:09:33Z</time>
      </trkpt>
      <trkpt lat="43.37929" lon="2.24775">
        <ele>692.70983887</ele>
        <time>2022-07-10T12:09:34Z</time>
      </trkpt>
      <trkpt lat="43.37925" lon="2.24771">
        <ele>692.70983887</ele>
        <time>2022-07-10T12:09:35Z</time>
      </trkpt>
      <trkpt lat="43.37918" lon="2.24767">
        <ele>692.49981689</ele>
        <time>2022-07-10T12:09:36Z</time>
      </trkpt>
      <trkpt lat="43.37915" lon="2.24763">
        <ele>692.15979004</ele>
        <time>2022-07-10T12:09:37Z</time>
      </trkpt>
      <trkpt lat="43.37913" lon="2.2476">
        <ele>691.98980713</ele>
        <time>2022-07-10T12:09:38Z</time>
      </trkpt>
      <trkpt lat="43.37909" lon="2.24756">
        <ele>691.93981934</ele>
        <time>2022-07-10T12:09:39Z</time>
      </trkpt>
      <trkpt lat="43.37905" lon="2.24752">
        <ele>691.93981934</ele>
        <time>2022-07-10T12:09:40Z</time>
      </trkpt>
      <trkpt lat="43.37899" lon="2.24746">
        <ele>691.58984375</ele>
        <time>2022-07-10T12:09:41Z</time>
      </trkpt>
      <trkpt lat="43.37893" lon="2.24741">
        <ele>691.33984375</ele>
        <time>2022-07-10T12:09:42Z</time>
      </trkpt>
      <trkpt lat="43.37887" lon="2.24735">
        <ele>690.88983154</ele>
        <time>2022-07-10T12:09:43Z</time>
      </trkpt>
      <trkpt lat="43.37881" lon="2.2473">
        <ele>690.88983154</ele>
        <time>2022-07-10T12:09:44Z</time>
      </trkpt>
      <trkpt lat="43.37876" lon="2.24724">
        <ele>690.41986084</ele>
        <time>2022-07-10T12:09:45Z</time>
      </trkpt>
      <trkpt lat="43.37868" lon="2.24716">
        <ele>690.35986328</ele>
        <time>2022-07-10T12:09:46Z</time>
      </trkpt>
      <trkpt lat="43.37863" lon="2.24709">
        <ele>690.35986328</ele>
        <time>2022-07-10T12:09:47Z</time>
      </trkpt>
      <trkpt lat="43.37858" lon="2.24704">
        <ele>690.12988281</ele>
        <time>2022-07-10T12:09:48Z</time>
      </trkpt>
      <trkpt lat="43.37853" lon="2.24698">
        <ele>689.88989258</ele>
        <time>2022-07-10T12:09:49Z</time>
      </trkpt>
      <trkpt lat="43.37846" lon="2.24689">
        <ele>689.64990234</ele>
        <time>2022-07-10T12:09:50Z</time>
      </trkpt>
      <trkpt lat="43.37842" lon="2.24684">
        <ele>689.64990234</ele>
        <time>2022-07-10T12:09:51Z</time>
      </trkpt>
      <trkpt lat="43.37838" lon="2.24677">
        <ele>689.51989746</ele>
        <time>2022-07-10T12:09:52Z</time>
      </trkpt>
      <trkpt lat="43.37834" lon="2.24671">
        <ele>689.51989746</ele>
        <time>2022-07-10T12:09:53Z</time>
      </trkpt>
      <trkpt lat="43.37831" lon="2.24665">
        <ele>689.01989746</ele>
        <time>2022-07-10T12:09:54Z</time>
      </trkpt>
      <trkpt lat="43.37825" lon="2.24655">
        <ele>688.72991943</ele>
        <time>2022-07-10T12:09:55Z</time>
      </trkpt>
      <trkpt lat="43.37822" lon="2.24649">
        <ele>688.57989502</ele>
        <time>2022-07-10T12:09:56Z</time>
      </trkpt>
      <trkpt lat="43.37818" lon="2.24643">
        <ele>688.57989502</ele>
        <time>2022-07-10T12:09:57Z</time>
      </trkpt>
      <trkpt lat="43.37815" lon="2.24636">
        <ele>688.57989502</ele>
        <time>2022-07-10T12:09:58Z</time>
      </trkpt>
      <trkpt lat="43.3781" lon="2.24627">
        <ele>688.69989014</ele>
        <time>2022-07-10T12:09:59Z</time>
      </trkpt>
      <trkpt lat="43.37806" lon="2.24622">
        <ele>688.69989014</ele>
        <time>2022-07-10T12:10:00Z</time>
      </trkpt>
      <trkpt lat="43.37803" lon="2.24616">
        <ele>688.51989746</ele>
        <time>2022-07-10T12:10:01Z</time>
      </trkpt>
      <trkpt lat="43.37799" lon="2.24611">
        <ele>689.0098877</ele>
        <time>2022-07-10T12:10:02Z</time>
      </trkpt>
      <trkpt lat="43.37795" lon="2.24606">
        <ele>688.69989014</ele>
        <time>2022-07-10T12:10:03Z</time>
      </trkpt>
      <trkpt lat="43.3779" lon="2.24599">
        <ele>688.69989014</ele>
        <time>2022-07-10T12:10:04Z</time>
      </trkpt>
      <trkpt lat="43.37787" lon="2.24594">
        <ele>688.5098877</ele>
        <time>2022-07-10T12:10:05Z</time>
      </trkpt>
      <trkpt lat="43.37784" lon="2.2459">
        <ele>688.35986328</ele>
        <time>2022-07-10T12:10:06Z</time>
      </trkpt>
      <trkpt lat="43.37782" lon="2.24585">
        <ele>688.35986328</ele>
        <time>2022-07-10T12:10:07Z</time>
      </trkpt>
      <trkpt lat="43.37779" lon="2.24578">
        <ele>688.4798584</ele>
        <time>2022-07-10T12:10:08Z</time>
      </trkpt>
      <trkpt lat="43.37776" lon="2.24574">
        <ele>688.55987549</ele>
        <time>2022-07-10T12:10:09Z</time>
      </trkpt>
      <trkpt lat="43.37774" lon="2.2457">
        <ele>688.51989746</ele>
        <time>2022-07-10T12:10:10Z</time>
      </trkpt>
      <trkpt lat="43.37771" lon="2.24566">
        <ele>688.33990479</ele>
        <time>2022-07-10T12:10:11Z</time>
      </trkpt>
      <trkpt lat="43.37767" lon="2.24561">
        <ele>688.30987549</ele>
        <time>2022-07-10T12:10:12Z</time>
      </trkpt>
      <trkpt lat="43.37764" lon="2.24559">
        <ele>688.35986328</ele>
        <time>2022-07-10T12:10:13Z</time>
      </trkpt>
      <trkpt lat="43.37761" lon="2.24556">
        <ele>688.42987061</ele>
        <time>2022-07-10T12:10:14Z</time>
      </trkpt>
      <trkpt lat="43.37757" lon="2.24554">
        <ele>688.42987061</ele>
        <time>2022-07-10T12:10:15Z</time>
      </trkpt>
      <trkpt lat="43.37754" lon="2.24552">
        <ele>688.49987793</ele>
        <time>2022-07-10T12:10:16Z</time>
      </trkpt>
      <trkpt lat="43.37748" lon="2.24548">
        <ele>688.49987793</ele>
        <time>2022-07-10T12:10:17Z</time>
      </trkpt>
      <trkpt lat="43.37745" lon="2.24546">
        <ele>688.36987305</ele>
        <time>2022-07-10T12:10:18Z</time>
      </trkpt>
      <trkpt lat="43.37742" lon="2.24543">
        <ele>688.28985596</ele>
        <time>2022-07-10T12:10:19Z</time>
      </trkpt>
      <trkpt lat="43.37738" lon="2.2454">
        <ele>688.21984863</ele>
        <time>2022-07-10T12:10:20Z</time>
      </trkpt>
      <trkpt lat="43.37732" lon="2.24537">
        <ele>688.11987305</ele>
        <time>2022-07-10T12:10:21Z</time>
      </trkpt>
      <trkpt lat="43.37729" lon="2.24536">
        <ele>688.0098877</ele>
        <time>2022-07-10T12:10:22Z</time>
      </trkpt>
      <trkpt lat="43.37725" lon="2.24534">
        <ele>687.85986328</ele>
        <time>2022-07-10T12:10:23Z</time>
      </trkpt>
      <trkpt lat="43.37722" lon="2.24531">
        <ele>687.54986572</ele>
        <time>2022-07-10T12:10:24Z</time>
      </trkpt>
      <trkpt lat="43.37717" lon="2.24529">
        <ele>687.20983887</ele>
        <time>2022-07-10T12:10:25Z</time>
      </trkpt>
      <trkpt lat="43.37711" lon="2.24524">
        <ele>686.9498291</ele>
        <time>2022-07-10T12:10:26Z</time>
      </trkpt>
      <trkpt lat="43.37706" lon="2.24522">
        <ele>686.79980469</ele>
        <time>2022-07-10T12:10:27Z</time>
      </trkpt>
      <trkpt lat="43.377" lon="2.24519">
        <ele>686.4498291</ele>
        <time>2022-07-10T12:10:28Z</time>
      </trkpt>
      <trkpt lat="43.37696" lon="2.24516">
        <ele>685.89984131</ele>
        <time>2022-07-10T12:10:29Z</time>
      </trkpt>
      <trkpt lat="43.37692" lon="2.24513">
        <ele>685.46984863</ele>
        <time>2022-07-10T12:10:30Z</time>
      </trkpt>
      <trkpt lat="43.37686" lon="2.24508">
        <ele>684.90985107</ele>
        <time>2022-07-10T12:10:31Z</time>
      </trkpt>
      <trkpt lat="43.37682" lon="2.24505">
        <ele>684.32983398</ele>
        <time>2022-07-10T12:10:32Z</time>
      </trkpt>
      <trkpt lat="43.37676" lon="2.24501">
        <ele>683.84985352</ele>
        <time>2022-07-10T12:10:33Z</time>
      </trkpt>
      <trkpt lat="43.37669" lon="2.24498">
        <ele>683.13983154</ele>
        <time>2022-07-10T12:10:34Z</time>
      </trkpt>
      <trkpt lat="43.37659" lon="2.24494">
        <ele>683.13983154</ele>
        <time>2022-07-10T12:10:35Z</time>
      </trkpt>
      <trkpt lat="43.37653" lon="2.24491">
        <ele>682.07983398</ele>
        <time>2022-07-10T12:10:36Z</time>
      </trkpt>
      <trkpt lat="43.37646" lon="2.24488">
        <ele>682.07983398</ele>
        <time>2022-07-10T12:10:37Z</time>
      </trkpt>
      <trkpt lat="43.37638" lon="2.24485">
        <ele>681.04980469</ele>
        <time>2022-07-10T12:10:38Z</time>
      </trkpt>
      <trkpt lat="43.37632" lon="2.24482">
        <ele>680.48980713</ele>
        <time>2022-07-10T12:10:39Z</time>
      </trkpt>
      <trkpt lat="43.37623" lon="2.24476">
        <ele>680.48980713</ele>
        <time>2022-07-10T12:10:40Z</time>
      </trkpt>
      <trkpt lat="43.37617" lon="2.24473">
        <ele>679.4697876</ele>
        <time>2022-07-10T12:10:41Z</time>
      </trkpt>
      <trkpt lat="43.37611" lon="2.24471">
        <ele>678.77978516</ele>
        <time>2022-07-10T12:10:42Z</time>
      </trkpt>
      <trkpt lat="43.37607" lon="2.24469">
        <ele>677.81976318</ele>
        <time>2022-07-10T12:10:43Z</time>
      </trkpt>
      <trkpt lat="43.37601" lon="2.24468">
        <ele>677.81976318</ele>
        <time>2022-07-10T12:10:44Z</time>
      </trkpt>
      <trkpt lat="43.37597" lon="2.24465">
        <ele>677.03973389</ele>
        <time>2022-07-10T12:10:45Z</time>
      </trkpt>
      <trkpt lat="43.37594" lon="2.24463">
        <ele>676.71972656</ele>
        <time>2022-07-10T12:10:46Z</time>
      </trkpt>
      <trkpt lat="43.37592" lon="2.24462">
        <ele>675.9597168</ele>
        <time>2022-07-10T12:10:47Z</time>
      </trkpt>
      <trkpt lat="43.37586" lon="2.24459">
        <ele>675.34973145</ele>
        <time>2022-07-10T12:10:48Z</time>
      </trkpt>
      <trkpt lat="43.37583" lon="2.24457">
        <ele>674.52972412</ele>
        <time>2022-07-10T12:10:49Z</time>
      </trkpt>
      <trkpt lat="43.3758" lon="2.24456">
        <ele>673.86975098</ele>
        <time>2022-07-10T12:10:50Z</time>
      </trkpt>
      <trkpt lat="43.37578" lon="2.24455">
        <ele>673.66973877</ele>
        <time>2022-07-10T12:10:51Z</time>
      </trkpt>
      <trkpt lat="43.37575" lon="2.24452">
        <ele>673.66973877</ele>
        <time>2022-07-10T12:10:52Z</time>
      </trkpt>
      <trkpt lat="43.37571" lon="2.24448">
        <ele>672.96972656</ele>
        <time>2022-07-10T12:10:53Z</time>
      </trkpt>
      <trkpt lat="43.37567" lon="2.24445">
        <ele>672.31970215</ele>
        <time>2022-07-10T12:10:54Z</time>
      </trkpt>
      <trkpt lat="43.37565" lon="2.24444">
        <ele>670.57971191</ele>
        <time>2022-07-10T12:10:55Z</time>
      </trkpt>
      <trkpt lat="43.37562" lon="2.24442">
        <ele>670.57971191</ele>
        <time>2022-07-10T12:10:56Z</time>
      </trkpt>
      <trkpt lat="43.37556" lon="2.24438">
        <ele>668.71972656</ele>
        <time>2022-07-10T12:10:57Z</time>
      </trkpt>
      <trkpt lat="43.37553" lon="2.24437">
        <ele>668.71972656</ele>
        <time>2022-07-10T12:10:58Z</time>
      </trkpt>
      <trkpt lat="43.37549" lon="2.24434">
        <ele>667.04974365</ele>
        <time>2022-07-10T12:10:59Z</time>
      </trkpt>
      <trkpt lat="43.37544" lon="2.2443">
        <ele>666.00976562</ele>
        <time>2022-07-10T12:11:00Z</time>
      </trkpt>
      <trkpt lat="43.37539" lon="2.24427">
        <ele>665.31976318</ele>
        <time>2022-07-10T12:11:01Z</time>
      </trkpt>
      <trkpt lat="43.37529" lon="2.24425">
        <ele>665.31976318</ele>
        <time>2022-07-10T12:11:02Z</time>
      </trkpt>
      <trkpt lat="43.37525" lon="2.24423">
        <ele>663.11975098</ele>
        <time>2022-07-10T12:11:03Z</time>
      </trkpt>
      <trkpt lat="43.37521" lon="2.24421">
        <ele>663.11975098</ele>
        <time>2022-07-10T12:11:04Z</time>
      </trkpt>
      <trkpt lat="43.37518" lon="2.24418">
        <ele>660.92974854</ele>
        <time>2022-07-10T12:11:05Z</time>
      </trkpt>
      <trkpt lat="43.37512" lon="2.24411">
        <ele>660.27972412</ele>
        <time>2022-07-10T12:11:06Z</time>
      </trkpt>
      <trkpt lat="43.37506" lon="2.24408">
        <ele>659.77972412</ele>
        <time>2022-07-10T12:11:07Z</time>
      </trkpt>
      <trkpt lat="43.37501" lon="2.24406">
        <ele>659.26971436</ele>
        <time>2022-07-10T12:11:08Z</time>
      </trkpt>
      <trkpt lat="43.37496" lon="2.24405">
        <ele>658.83972168</ele>
        <time>2022-07-10T12:11:09Z</time>
      </trkpt>
      <trkpt lat="43.3749" lon="2.24405">
        <ele>658.24969482</ele>
        <time>2022-07-10T12:11:10Z</time>
      </trkpt>
      <trkpt lat="43.37483" lon="2.24405">
        <ele>657.65966797</ele>
        <time>2022-07-10T12:11:11Z</time>
      </trkpt>
      <trkpt lat="43.3748" lon="2.24404">
        <ele>657.31964111</ele>
        <time>2022-07-10T12:11:12Z</time>
      </trkpt>
      <trkpt lat="43.37475" lon="2.24405">
        <ele>656.949646</ele>
        <time>2022-07-10T12:11:13Z</time>
      </trkpt>
      <trkpt lat="43.37469" lon="2.24404">
        <ele>656.949646</ele>
        <time>2022-07-10T12:11:14Z</time>
      </trkpt>
      <trkpt lat="43.37464" lon="2.24402">
        <ele>656.70965576</ele>
        <time>2022-07-10T12:11:15Z</time>
      </trkpt>
      <trkpt lat="43.37455" lon="2.24401">
        <ele>656.29968262</ele>
        <time>2022-07-10T12:11:16Z</time>
      </trkpt>
      <trkpt lat="43.3745" lon="2.24401">
        <ele>656.01965332</ele>
        <time>2022-07-10T12:11:17Z</time>
      </trkpt>
      <trkpt lat="43.37446" lon="2.244">
        <ele>655.73962402</ele>
        <time>2022-07-10T12:11:18Z</time>
      </trkpt>
      <trkpt lat="43.37441" lon="2.24401">
        <ele>655.73962402</ele>
        <time>2022-07-10T12:11:19Z</time>
      </trkpt>
      <trkpt lat="43.37433" lon="2.24401">
        <ele>655.55963135</ele>
        <time>2022-07-10T12:11:20Z</time>
      </trkpt>
      <trkpt lat="43.37428" lon="2.24401">
        <ele>655.17962646</ele>
        <time>2022-07-10T12:11:21Z</time>
      </trkpt>
      <trkpt lat="43.37423" lon="2.244">
        <ele>654.71960449</ele>
        <time>2022-07-10T12:11:22Z</time>
      </trkpt>
      <trkpt lat="43.37418" lon="2.24399">
        <ele>654.37957764</ele>
        <time>2022-07-10T12:11:23Z</time>
      </trkpt>
      <trkpt lat="43.3741" lon="2.24398">
        <ele>654.19958496</ele>
        <time>2022-07-10T12:11:24Z</time>
      </trkpt>
      <trkpt lat="43.37403" lon="2.24399">
        <ele>653.9395752</ele>
        <time>2022-07-10T12:11:25Z</time>
      </trkpt>
      <trkpt lat="43.37397" lon="2.244">
        <ele>653.85955811</ele>
        <time>2022-07-10T12:11:26Z</time>
      </trkpt>
      <trkpt lat="43.37392" lon="2.24402">
        <ele>653.6595459</ele>
        <time>2022-07-10T12:11:27Z</time>
      </trkpt>
      <trkpt lat="43.37386" lon="2.24403">
        <ele>653.31951904</ele>
        <time>2022-07-10T12:11:28Z</time>
      </trkpt>
      <trkpt lat="43.37374" lon="2.24407">
        <ele>653.09954834</ele>
        <time>2022-07-10T12:11:29Z</time>
      </trkpt>
      <trkpt lat="43.37366" lon="2.2441">
        <ele>652.76953125</ele>
        <time>2022-07-10T12:11:30Z</time>
      </trkpt>
      <trkpt lat="43.37359" lon="2.24412">
        <ele>652.76953125</ele>
        <time>2022-07-10T12:11:31Z</time>
      </trkpt>
      <trkpt lat="43.37352" lon="2.24414">
        <ele>652.54956055</ele>
        <time>2022-07-10T12:11:32Z</time>
      </trkpt>
      <trkpt lat="43.37342" lon="2.24418">
        <ele>652.28955078</ele>
        <time>2022-07-10T12:11:33Z</time>
      </trkpt>
      <trkpt lat="43.37335" lon="2.24421">
        <ele>652.12957764</ele>
        <time>2022-07-10T12:11:34Z</time>
      </trkpt>
      <trkpt lat="43.37328" lon="2.24424">
        <ele>651.61956787</ele>
        <time>2022-07-10T12:11:35Z</time>
      </trkpt>
      <trkpt lat="43.37322" lon="2.24427">
        <ele>651.30957031</ele>
        <time>2022-07-10T12:11:36Z</time>
      </trkpt>
      <trkpt lat="43.37316" lon="2.24428">
        <ele>650.86956787</ele>
        <time>2022-07-10T12:11:37Z</time>
      </trkpt>
      <trkpt lat="43.37308" lon="2.24432">
        <ele>650.30957031</ele>
        <time>2022-07-10T12:11:38Z</time>
      </trkpt>
      <trkpt lat="43.37303" lon="2.24435">
        <ele>649.73956299</ele>
        <time>2022-07-10T12:11:39Z</time>
      </trkpt>
      <trkpt lat="43.37298" lon="2.24438">
        <ele>649.73956299</ele>
        <time>2022-07-10T12:11:40Z</time>
      </trkpt>
      <trkpt lat="43.37292" lon="2.2444">
        <ele>649.36956787</ele>
        <time>2022-07-10T12:11:41Z</time>
      </trkpt>
      <trkpt lat="43.37285" lon="2.24442">
        <ele>648.47955322</ele>
        <time>2022-07-10T12:11:42Z</time>
      </trkpt>
      <trkpt lat="43.37279" lon="2.24443">
        <ele>647.95953369</ele>
        <time>2022-07-10T12:11:43Z</time>
      </trkpt>
      <trkpt lat="43.37274" lon="2.24444">
        <ele>647.95953369</ele>
        <time>2022-07-10T12:11:44Z</time>
      </trkpt>
      <trkpt lat="43.37268" lon="2.24444">
        <ele>647.05950928</ele>
        <time>2022-07-10T12:11:45Z</time>
      </trkpt>
      <trkpt lat="43.37262" lon="2.24445">
        <ele>646.71948242</ele>
        <time>2022-07-10T12:11:46Z</time>
      </trkpt>
      <trkpt lat="43.37254" lon="2.24447">
        <ele>646.45947266</ele>
        <time>2022-07-10T12:11:47Z</time>
      </trkpt>
      <trkpt lat="43.37248" lon="2.24448">
        <ele>646.04949951</ele>
        <time>2022-07-10T12:11:48Z</time>
      </trkpt>
      <trkpt lat="43.37243" lon="2.24449">
        <ele>645.57952881</ele>
        <time>2022-07-10T12:11:49Z</time>
      </trkpt>
      <trkpt lat="43.37237" lon="2.2445">
        <ele>645.35955811</ele>
        <time>2022-07-10T12:11:50Z</time>
      </trkpt>
      <trkpt lat="43.37228" lon="2.24452">
        <ele>645.35955811</ele>
        <time>2022-07-10T12:11:51Z</time>
      </trkpt>
      <trkpt lat="43.37221" lon="2.24454">
        <ele>644.37957764</ele>
        <time>2022-07-10T12:11:52Z</time>
      </trkpt>
      <trkpt lat="43.37214" lon="2.24457">
        <ele>643.91955566</ele>
        <time>2022-07-10T12:11:53Z</time>
      </trkpt>
      <trkpt lat="43.37205" lon="2.24459">
        <ele>643.91955566</ele>
        <time>2022-07-10T12:11:54Z</time>
      </trkpt>
      <trkpt lat="43.37198" lon="2.24461">
        <ele>642.46954346</ele>
        <time>2022-07-10T12:11:55Z</time>
      </trkpt>
      <trkpt lat="43.37185" lon="2.24463">
        <ele>642.46954346</ele>
        <time>2022-07-10T12:11:56Z</time>
      </trkpt>
      <trkpt lat="43.37177" lon="2.24465">
        <ele>641.04956055</ele>
        <time>2022-07-10T12:11:57Z</time>
      </trkpt>
      <trkpt lat="43.37169" lon="2.24467">
        <ele>640.21954346</ele>
        <time>2022-07-10T12:11:58Z</time>
      </trkpt>
      <trkpt lat="43.37161" lon="2.24468">
        <ele>639.39953613</ele>
        <time>2022-07-10T12:11:59Z</time>
      </trkpt>
      <trkpt lat="43.37154" lon="2.2447">
        <ele>639.39953613</ele>
        <time>2022-07-10T12:12:00Z</time>
      </trkpt>
      <trkpt lat="43.37143" lon="2.24472">
        <ele>638.20953369</ele>
        <time>2022-07-10T12:12:01Z</time>
      </trkpt>
      <trkpt lat="43.37135" lon="2.24473">
        <ele>638.20953369</ele>
        <time>2022-07-10T12:12:02Z</time>
      </trkpt>
      <trkpt lat="43.37126" lon="2.24473">
        <ele>637.17950439</ele>
        <time>2022-07-10T12:12:03Z</time>
      </trkpt>
      <trkpt lat="43.37117" lon="2.24472">
        <ele>636.48950195</ele>
        <time>2022-07-10T12:12:04Z</time>
      </trkpt>
      <trkpt lat="43.37103" lon="2.2447">
        <ele>635.6295166</ele>
        <time>2022-07-10T12:12:05Z</time>
      </trkpt>
      <trkpt lat="43.37094" lon="2.2447">
        <ele>634.95953369</ele>
        <time>2022-07-10T12:12:06Z</time>
      </trkpt>
      <trkpt lat="43.37086" lon="2.2447">
        <ele>634.23956299</ele>
        <time>2022-07-10T12:12:07Z</time>
      </trkpt>
      <trkpt lat="43.37077" lon="2.24471">
        <ele>633.73956299</ele>
        <time>2022-07-10T12:12:08Z</time>
      </trkpt>
      <trkpt lat="43.37069" lon="2.24473">
        <ele>633.73956299</ele>
        <time>2022-07-10T12:12:09Z</time>
      </trkpt>
      <trkpt lat="43.37057" lon="2.24477">
        <ele>633.12957764</ele>
        <time>2022-07-10T12:12:10Z</time>
      </trkpt>
      <trkpt lat="43.37048" lon="2.2448">
        <ele>632.83959961</ele>
        <time>2022-07-10T12:12:11Z</time>
      </trkpt>
      <trkpt lat="43.3704" lon="2.24483">
        <ele>632.60961914</ele>
        <time>2022-07-10T12:12:12Z</time>
      </trkpt>
      <trkpt lat="43.37034" lon="2.24486">
        <ele>632.6696167</ele>
        <time>2022-07-10T12:12:13Z</time>
      </trkpt>
      <trkpt lat="43.37027" lon="2.24488">
        <ele>632.84960938</ele>
        <time>2022-07-10T12:12:14Z</time>
      </trkpt>
      <trkpt lat="43.37023" lon="2.24488">
        <ele>633.09960938</ele>
        <time>2022-07-10T12:12:15Z</time>
      </trkpt>
      <trkpt lat="43.37021" lon="2.24487">
        <ele>633.34960938</ele>
        <time>2022-07-10T12:12:16Z</time>
      </trkpt>
      <trkpt lat="43.3702" lon="2.24484">
        <ele>633.45959473</ele>
        <time>2022-07-10T12:12:17Z</time>
      </trkpt>
      <trkpt lat="43.37021" lon="2.24479">
        <ele>633.35961914</ele>
        <time>2022-07-10T12:12:18Z</time>
      </trkpt>
      <trkpt lat="43.37022" lon="2.24476">
        <ele>633.26959229</ele>
        <time>2022-07-10T12:12:19Z</time>
      </trkpt>
      <trkpt lat="43.37023" lon="2.24473">
        <ele>633.26959229</ele>
        <time>2022-07-10T12:12:20Z</time>
      </trkpt>
      <trkpt lat="43.37025" lon="2.2447">
        <ele>633.26959229</ele>
        <time>2022-07-10T12:12:21Z</time>
      </trkpt>
      <trkpt lat="43.37026" lon="2.24467">
        <ele>633.33959961</ele>
        <time>2022-07-10T12:12:22Z</time>
      </trkpt>
      <trkpt lat="43.37027" lon="2.24461">
        <ele>635.03961182</ele>
        <time>2022-07-10T12:12:23Z</time>
      </trkpt>
      <trkpt lat="43.37027" lon="2.24458">
        <ele>635.03961182</ele>
        <time>2022-07-10T12:12:24Z</time>
      </trkpt>
      <trkpt lat="43.37029" lon="2.24454">
        <ele>637.64959717</ele>
        <time>2022-07-10T12:12:25Z</time>
      </trkpt>
      <trkpt lat="43.3703" lon="2.24451">
        <ele>637.64959717</ele>
        <time>2022-07-10T12:12:26Z</time>
      </trkpt>
      <trkpt lat="43.37032" lon="2.24446">
        <ele>636.34960938</ele>
        <time>2022-07-10T12:12:27Z</time>
      </trkpt>
      <trkpt lat="43.37034" lon="2.24442">
        <ele>636.34960938</ele>
        <time>2022-07-10T12:12:28Z</time>
      </trkpt>
      <trkpt lat="43.37035" lon="2.24438">
        <ele>636.18963623</ele>
        <time>2022-07-10T12:12:29Z</time>
      </trkpt>
      <trkpt lat="43.37036" lon="2.24434">
        <ele>636.18963623</ele>
        <time>2022-07-10T12:12:30Z</time>
      </trkpt>
      <trkpt lat="43.37038" lon="2.2443">
        <ele>636.47961426</ele>
        <time>2022-07-10T12:12:31Z</time>
      </trkpt>
      <trkpt lat="43.3704" lon="2.24425">
        <ele>636.47961426</ele>
        <time>2022-07-10T12:12:32Z</time>
      </trkpt>
      <trkpt lat="43.37042" lon="2.24421">
        <ele>635.92962646</ele>
        <time>2022-07-10T12:12:33Z</time>
      </trkpt>
      <trkpt lat="43.37044" lon="2.24417">
        <ele>636.68963623</ele>
        <time>2022-07-10T12:12:34Z</time>
      </trkpt>
      <trkpt lat="43.37045" lon="2.24412">
        <ele>637.1496582</ele>
        <time>2022-07-10T12:12:35Z</time>
      </trkpt>
      <trkpt lat="43.37048" lon="2.24406">
        <ele>636.71966553</ele>
        <time>2022-07-10T12:12:36Z</time>
      </trkpt>
      <trkpt lat="43.37051" lon="2.24401">
        <ele>636.71966553</ele>
        <time>2022-07-10T12:12:37Z</time>
      </trkpt>
      <trkpt lat="43.37054" lon="2.24397">
        <ele>636.199646</ele>
        <time>2022-07-10T12:12:38Z</time>
      </trkpt>
      <trkpt lat="43.37057" lon="2.24392">
        <ele>636.20965576</ele>
        <time>2022-07-10T12:12:39Z</time>
      </trkpt>
      <trkpt lat="43.3706" lon="2.24388">
        <ele>636.20965576</ele>
        <time>2022-07-10T12:12:40Z</time>
      </trkpt>
      <trkpt lat="43.37065" lon="2.24382">
        <ele>636.45965576</ele>
        <time>2022-07-10T12:12:41Z</time>
      </trkpt>
      <trkpt lat="43.37069" lon="2.24378">
        <ele>636.85968018</ele>
        <time>2022-07-10T12:12:42Z</time>
      </trkpt>
      <trkpt lat="43.37072" lon="2.24374">
        <ele>636.85968018</ele>
        <time>2022-07-10T12:12:43Z</time>
      </trkpt>
      <trkpt lat="43.37075" lon="2.24371">
        <ele>637.30969238</ele>
        <time>2022-07-10T12:12:44Z</time>
      </trkpt>
      <trkpt lat="43.37078" lon="2.24367">
        <ele>637.48968506</ele>
        <time>2022-07-10T12:12:45Z</time>
      </trkpt>
      <trkpt lat="43.37082" lon="2.24363">
        <ele>637.61968994</ele>
        <time>2022-07-10T12:12:46Z</time>
      </trkpt>
      <trkpt lat="43.37084" lon="2.2436">
        <ele>637.69970703</ele>
        <time>2022-07-10T12:12:47Z</time>
      </trkpt>
      <trkpt lat="43.37086" lon="2.24358">
        <ele>637.81970215</ele>
        <time>2022-07-10T12:12:48Z</time>
      </trkpt>
      <trkpt lat="43.37089" lon="2.24355">
        <ele>637.81970215</ele>
        <time>2022-07-10T12:12:49Z</time>
      </trkpt>
      <trkpt lat="43.37093" lon="2.24352">
        <ele>637.96972656</ele>
        <time>2022-07-10T12:12:50Z</time>
      </trkpt>
      <trkpt lat="43.37096" lon="2.2435">
        <ele>638.43969727</ele>
        <time>2022-07-10T12:12:51Z</time>
      </trkpt>
      <trkpt lat="43.37099" lon="2.24348">
        <ele>638.72967529</ele>
        <time>2022-07-10T12:12:52Z</time>
      </trkpt>
      <trkpt lat="43.37101" lon="2.24346">
        <ele>639.02966309</ele>
        <time>2022-07-10T12:12:53Z</time>
      </trkpt>
      <trkpt lat="43.37106" lon="2.24343">
        <ele>639.26965332</ele>
        <time>2022-07-10T12:12:54Z</time>
      </trkpt>
      <trkpt lat="43.37109" lon="2.2434">
        <ele>639.449646</ele>
        <time>2022-07-10T12:12:55Z</time>
      </trkpt>
      <trkpt lat="43.37112" lon="2.24338">
        <ele>639.58966064</ele>
        <time>2022-07-10T12:12:56Z</time>
      </trkpt>
      <trkpt lat="43.37115" lon="2.24335">
        <ele>639.58966064</ele>
        <time>2022-07-10T12:12:57Z</time>
      </trkpt>
      <trkpt lat="43.37118" lon="2.24333">
        <ele>639.65966797</ele>
        <time>2022-07-10T12:12:58Z</time>
      </trkpt>
      <trkpt lat="43.37122" lon="2.2433">
        <ele>639.74969482</ele>
        <time>2022-07-10T12:12:59Z</time>
      </trkpt>
      <trkpt lat="43.37124" lon="2.24327">
        <ele>639.74969482</ele>
        <time>2022-07-10T12:13:00Z</time>
      </trkpt>
      <trkpt lat="43.37127" lon="2.24325">
        <ele>640.06970215</ele>
        <time>2022-07-10T12:13:01Z</time>
      </trkpt>
      <trkpt lat="43.37129" lon="2.24323">
        <ele>640.39971924</ele>
        <time>2022-07-10T12:13:02Z</time>
      </trkpt>
      <trkpt lat="43.37133" lon="2.24321">
        <ele>640.39971924</ele>
        <time>2022-07-10T12:13:03Z</time>
      </trkpt>
      <trkpt lat="43.37136" lon="2.24318">
        <ele>641.09973145</ele>
        <time>2022-07-10T12:13:04Z</time>
      </trkpt>
      <trkpt lat="43.37138" lon="2.24315">
        <ele>641.09973145</ele>
        <time>2022-07-10T12:13:05Z</time>
      </trkpt>
      <trkpt lat="43.37141" lon="2.24312">
        <ele>641.36975098</ele>
        <time>2022-07-10T12:13:06Z</time>
      </trkpt>
      <trkpt lat="43.37144" lon="2.24309">
        <ele>641.96972656</ele>
        <time>2022-07-10T12:13:07Z</time>
      </trkpt>
      <trkpt lat="43.37149" lon="2.24304">
        <ele>642.21972656</ele>
        <time>2022-07-10T12:13:08Z</time>
      </trkpt>
      <trkpt lat="43.37152" lon="2.24301">
        <ele>642.37969971</ele>
        <time>2022-07-10T12:13:09Z</time>
      </trkpt>
      <trkpt lat="43.37155" lon="2.24298">
        <ele>642.37969971</ele>
        <time>2022-07-10T12:13:10Z</time>
      </trkpt>
      <trkpt lat="43.37158" lon="2.24294">
        <ele>642.50970459</ele>
        <time>2022-07-10T12:13:11Z</time>
      </trkpt>
      <trkpt lat="43.37161" lon="2.24291">
        <ele>642.50970459</ele>
        <time>2022-07-10T12:13:12Z</time>
      </trkpt>
      <trkpt lat="43.37166" lon="2.24286">
        <ele>642.61968994</ele>
        <time>2022-07-10T12:13:13Z</time>
      </trkpt>
      <trkpt lat="43.37168" lon="2.24282">
        <ele>642.81970215</ele>
        <time>2022-07-10T12:13:14Z</time>
      </trkpt>
      <trkpt lat="43.37171" lon="2.24279">
        <ele>642.86968994</ele>
        <time>2022-07-10T12:13:15Z</time>
      </trkpt>
      <trkpt lat="43.37174" lon="2.24276">
        <ele>642.86968994</ele>
        <time>2022-07-10T12:13:16Z</time>
      </trkpt>
      <trkpt lat="43.37179" lon="2.24272">
        <ele>643.09967041</ele>
        <time>2022-07-10T12:13:17Z</time>
      </trkpt>
      <trkpt lat="43.37182" lon="2.24269">
        <ele>643.35968018</ele>
        <time>2022-07-10T12:13:18Z</time>
      </trkpt>
      <trkpt lat="43.37185" lon="2.24266">
        <ele>643.35968018</ele>
        <time>2022-07-10T12:13:19Z</time>
      </trkpt>
      <trkpt lat="43.37188" lon="2.24263">
        <ele>643.83966064</ele>
        <time>2022-07-10T12:13:20Z</time>
      </trkpt>
      <trkpt lat="43.37191" lon="2.24259">
        <ele>644.04968262</ele>
        <time>2022-07-10T12:13:21Z</time>
      </trkpt>
      <trkpt lat="43.37195" lon="2.24254">
        <ele>644.04968262</ele>
        <time>2022-07-10T12:13:22Z</time>
      </trkpt>
      <trkpt lat="43.37198" lon="2.2425">
        <ele>644.23968506</ele>
        <time>2022-07-10T12:13:23Z</time>
      </trkpt>
      <trkpt lat="43.37201" lon="2.24246">
        <ele>644.36968994</ele>
        <time>2022-07-10T12:13:24Z</time>
      </trkpt>
      <trkpt lat="43.37203" lon="2.24242">
        <ele>644.48968506</ele>
        <time>2022-07-10T12:13:25Z</time>
      </trkpt>
      <trkpt lat="43.37207" lon="2.24235">
        <ele>644.48968506</ele>
        <time>2022-07-10T12:13:26Z</time>
      </trkpt>
      <trkpt lat="43.3721" lon="2.24231">
        <ele>644.51971436</ele>
        <time>2022-07-10T12:13:27Z</time>
      </trkpt>
      <trkpt lat="43.37213" lon="2.24227">
        <ele>644.58972168</ele>
        <time>2022-07-10T12:13:28Z</time>
      </trkpt>
      <trkpt lat="43.37216" lon="2.24223">
        <ele>644.58972168</ele>
        <time>2022-07-10T12:13:29Z</time>
      </trkpt>
      <trkpt lat="43.37218" lon="2.24218">
        <ele>644.58972168</ele>
        <time>2022-07-10T12:13:30Z</time>
      </trkpt>
      <trkpt lat="43.37223" lon="2.24212">
        <ele>644.96972656</ele>
        <time>2022-07-10T12:13:31Z</time>
      </trkpt>
      <trkpt lat="43.37225" lon="2.24207">
        <ele>645.14971924</ele>
        <time>2022-07-10T12:13:32Z</time>
      </trkpt>
      <trkpt lat="43.37228" lon="2.24203">
        <ele>645.36968994</ele>
        <time>2022-07-10T12:13:33Z</time>
      </trkpt>
      <trkpt lat="43.37231" lon="2.24199">
        <ele>645.53967285</ele>
        <time>2022-07-10T12:13:34Z</time>
      </trkpt>
      <trkpt lat="43.37235" lon="2.24192">
        <ele>645.61968994</ele>
        <time>2022-07-10T12:13:35Z</time>
      </trkpt>
      <trkpt lat="43.37238" lon="2.24188">
        <ele>645.6796875</ele>
        <time>2022-07-10T12:13:36Z</time>
      </trkpt>
      <trkpt lat="43.3724" lon="2.24185">
        <ele>645.73968506</ele>
        <time>2022-07-10T12:13:37Z</time>
      </trkpt>
      <trkpt lat="43.37242" lon="2.2418">
        <ele>645.71966553</ele>
        <time>2022-07-10T12:13:38Z</time>
      </trkpt>
      <trkpt lat="43.37244" lon="2.24176">
        <ele>645.71966553</ele>
        <time>2022-07-10T12:13:39Z</time>
      </trkpt>
      <trkpt lat="43.37248" lon="2.24169">
        <ele>646.03967285</ele>
        <time>2022-07-10T12:13:40Z</time>
      </trkpt>
      <trkpt lat="43.3725" lon="2.24165">
        <ele>646.03967285</ele>
        <time>2022-07-10T12:13:41Z</time>
      </trkpt>
      <trkpt lat="43.37252" lon="2.24161">
        <ele>645.99969482</ele>
        <time>2022-07-10T12:13:42Z</time>
      </trkpt>
      <trkpt lat="43.37254" lon="2.24157">
        <ele>645.77972412</ele>
        <time>2022-07-10T12:13:43Z</time>
      </trkpt>
      <trkpt lat="43.37258" lon="2.24151">
        <ele>645.68969727</ele>
        <time>2022-07-10T12:13:44Z</time>
      </trkpt>
      <trkpt lat="43.37261" lon="2.24147">
        <ele>645.6796875</ele>
        <time>2022-07-10T12:13:45Z</time>
      </trkpt>
      <trkpt lat="43.37264" lon="2.24143">
        <ele>645.85968018</ele>
        <time>2022-07-10T12:13:46Z</time>
      </trkpt>
      <trkpt lat="43.37267" lon="2.24138">
        <ele>646.00970459</ele>
        <time>2022-07-10T12:13:47Z</time>
      </trkpt>
      <trkpt lat="43.3727" lon="2.24134">
        <ele>646.04968262</ele>
        <time>2022-07-10T12:13:48Z</time>
      </trkpt>
      <trkpt lat="43.37274" lon="2.24127">
        <ele>646.1496582</ele>
        <time>2022-07-10T12:13:49Z</time>
      </trkpt>
      <trkpt lat="43.37277" lon="2.24123">
        <ele>646.15966797</ele>
        <time>2022-07-10T12:13:50Z</time>
      </trkpt>
      <trkpt lat="43.3728" lon="2.2412">
        <ele>646.16967773</ele>
        <time>2022-07-10T12:13:51Z</time>
      </trkpt>
      <trkpt lat="43.37283" lon="2.24116">
        <ele>646.10968018</ele>
        <time>2022-07-10T12:13:52Z</time>
      </trkpt>
      <trkpt lat="43.37287" lon="2.2411">
        <ele>645.98968506</ele>
        <time>2022-07-10T12:13:53Z</time>
      </trkpt>
      <trkpt lat="43.3729" lon="2.24105">
        <ele>645.98968506</ele>
        <time>2022-07-10T12:13:54Z</time>
      </trkpt>
      <trkpt lat="43.37292" lon="2.24101">
        <ele>645.98968506</ele>
        <time>2022-07-10T12:13:55Z</time>
      </trkpt>
      <trkpt lat="43.37294" lon="2.24096">
        <ele>645.99969482</ele>
        <time>2022-07-10T12:13:56Z</time>
      </trkpt>
      <trkpt lat="43.37297" lon="2.24092">
        <ele>646.06970215</ele>
        <time>2022-07-10T12:13:57Z</time>
      </trkpt>
      <trkpt lat="43.373" lon="2.24084">
        <ele>646.06970215</ele>
        <time>2022-07-10T12:13:58Z</time>
      </trkpt>
      <trkpt lat="43.37303" lon="2.24079">
        <ele>645.96972656</ele>
        <time>2022-07-10T12:13:59Z</time>
      </trkpt>
      <trkpt lat="43.37307" lon="2.24075">
        <ele>645.659729</ele>
        <time>2022-07-10T12:14:00Z</time>
      </trkpt>
      <trkpt lat="43.3731" lon="2.2407">
        <ele>645.34973145</ele>
        <time>2022-07-10T12:14:01Z</time>
      </trkpt>
      <trkpt lat="43.37316" lon="2.24063">
        <ele>645.16973877</ele>
        <time>2022-07-10T12:14:02Z</time>
      </trkpt>
      <trkpt lat="43.3732" lon="2.24059">
        <ele>644.56976318</ele>
        <time>2022-07-10T12:14:03Z</time>
      </trkpt>
      <trkpt lat="43.37324" lon="2.24055">
        <ele>644.30975342</ele>
        <time>2022-07-10T12:14:04Z</time>
      </trkpt>
      <trkpt lat="43.37328" lon="2.2405">
        <ele>644.16973877</ele>
        <time>2022-07-10T12:14:05Z</time>
      </trkpt>
      <trkpt lat="43.37333" lon="2.24046">
        <ele>644.16973877</ele>
        <time>2022-07-10T12:14:06Z</time>
      </trkpt>
      <trkpt lat="43.37339" lon="2.24039">
        <ele>644.05975342</ele>
        <time>2022-07-10T12:14:07Z</time>
      </trkpt>
      <trkpt lat="43.37343" lon="2.24034">
        <ele>643.95977783</ele>
        <time>2022-07-10T12:14:08Z</time>
      </trkpt>
      <trkpt lat="43.37348" lon="2.2403">
        <ele>643.81976318</ele>
        <time>2022-07-10T12:14:09Z</time>
      </trkpt>
      <trkpt lat="43.37352" lon="2.24024">
        <ele>643.62976074</ele>
        <time>2022-07-10T12:14:10Z</time>
      </trkpt>
      <trkpt lat="43.37358" lon="2.24016">
        <ele>643.34973145</ele>
        <time>2022-07-10T12:14:11Z</time>
      </trkpt>
      <trkpt lat="43.37362" lon="2.24011">
        <ele>643.34973145</ele>
        <time>2022-07-10T12:14:12Z</time>
      </trkpt>
      <trkpt lat="43.37365" lon="2.24005">
        <ele>642.48974609</ele>
        <time>2022-07-10T12:14:13Z</time>
      </trkpt>
      <trkpt lat="43.37368" lon="2.23998">
        <ele>642.48974609</ele>
        <time>2022-07-10T12:14:14Z</time>
      </trkpt>
      <trkpt lat="43.37371" lon="2.23986">
        <ele>642.07977295</ele>
        <time>2022-07-10T12:14:15Z</time>
      </trkpt>
      <trkpt lat="43.37373" lon="2.23979">
        <ele>642.07977295</ele>
        <time>2022-07-10T12:14:16Z</time>
      </trkpt>
      <trkpt lat="43.37374" lon="2.23971">
        <ele>641.6897583</ele>
        <time>2022-07-10T12:14:17Z</time>
      </trkpt>
      <trkpt lat="43.37375" lon="2.23963">
        <ele>640.77978516</ele>
        <time>2022-07-10T12:14:18Z</time>
      </trkpt>
      <trkpt lat="43.37375" lon="2.23955">
        <ele>640.77978516</ele>
        <time>2022-07-10T12:14:19Z</time>
      </trkpt>
      <trkpt lat="43.37374" lon="2.23942">
        <ele>639.85980225</ele>
        <time>2022-07-10T12:14:20Z</time>
      </trkpt>
      <trkpt lat="43.37374" lon="2.23933">
        <ele>639.4197998</ele>
        <time>2022-07-10T12:14:21Z</time>
      </trkpt>
      <trkpt lat="43.37373" lon="2.23923">
        <ele>638.90979004</ele>
        <time>2022-07-10T12:14:22Z</time>
      </trkpt>
      <trkpt lat="43.37372" lon="2.23912">
        <ele>638.90979004</ele>
        <time>2022-07-10T12:14:23Z</time>
      </trkpt>
      <trkpt lat="43.37371" lon="2.23902">
        <ele>637.7197876</ele>
        <time>2022-07-10T12:14:24Z</time>
      </trkpt>
      <trkpt lat="43.3737" lon="2.23887">
        <ele>636.92980957</ele>
        <time>2022-07-10T12:14:25Z</time>
      </trkpt>
      <trkpt lat="43.37369" lon="2.23877">
        <ele>636.92980957</ele>
        <time>2022-07-10T12:14:26Z</time>
      </trkpt>
      <trkpt lat="43.37368" lon="2.23867">
        <ele>635.52978516</ele>
        <time>2022-07-10T12:14:27Z</time>
      </trkpt>
      <trkpt lat="43.37368" lon="2.23857">
        <ele>635.52978516</ele>
        <time>2022-07-10T12:14:28Z</time>
      </trkpt>
      <trkpt lat="43.37367" lon="2.23841">
        <ele>634.87976074</ele>
        <time>2022-07-10T12:14:29Z</time>
      </trkpt>
      <trkpt lat="43.37366" lon="2.23829">
        <ele>633.77978516</ele>
        <time>2022-07-10T12:14:30Z</time>
      </trkpt>
      <trkpt lat="43.37367" lon="2.23819">
        <ele>633.20977783</ele>
        <time>2022-07-10T12:14:31Z</time>
      </trkpt>
      <trkpt lat="43.37367" lon="2.23808">
        <ele>633.20977783</ele>
        <time>2022-07-10T12:14:32Z</time>
      </trkpt>
      <trkpt lat="43.37368" lon="2.2379">
        <ele>632.55975342</ele>
        <time>2022-07-10T12:14:33Z</time>
      </trkpt>
      <trkpt lat="43.37369" lon="2.23776">
        <ele>630.77972412</ele>
        <time>2022-07-10T12:14:34Z</time>
      </trkpt>
      <trkpt lat="43.37373" lon="2.23765">
        <ele>629.57971191</ele>
        <time>2022-07-10T12:14:35Z</time>
      </trkpt>
      <trkpt lat="43.37378" lon="2.23754">
        <ele>629.57971191</ele>
        <time>2022-07-10T12:14:36Z</time>
      </trkpt>
      <trkpt lat="43.37384" lon="2.23743">
        <ele>627.48968506</ele>
        <time>2022-07-10T12:14:37Z</time>
      </trkpt>
      <trkpt lat="43.37394" lon="2.23728">
        <ele>626.6796875</ele>
        <time>2022-07-10T12:14:38Z</time>
      </trkpt>
      <trkpt lat="43.37401" lon="2.23719">
        <ele>626.6796875</ele>
        <time>2022-07-10T12:14:39Z</time>
      </trkpt>
      <trkpt lat="43.37408" lon="2.2371">
        <ele>624.41967773</ele>
        <time>2022-07-10T12:14:40Z</time>
      </trkpt>
      <trkpt lat="43.37416" lon="2.23701">
        <ele>623.37969971</ele>
        <time>2022-07-10T12:14:41Z</time>
      </trkpt>
      <trkpt lat="43.37427" lon="2.23686">
        <ele>622.22967529</ele>
        <time>2022-07-10T12:14:42Z</time>
      </trkpt>
      <trkpt lat="43.37434" lon="2.23676">
        <ele>621.53967285</ele>
        <time>2022-07-10T12:14:43Z</time>
      </trkpt>
      <trkpt lat="43.37441" lon="2.23666">
        <ele>620.76965332</ele>
        <time>2022-07-10T12:14:44Z</time>
      </trkpt>
      <trkpt lat="43.37449" lon="2.23657">
        <ele>620.76965332</ele>
        <time>2022-07-10T12:14:45Z</time>
      </trkpt>
      <trkpt lat="43.37456" lon="2.23647">
        <ele>619.93963623</ele>
        <time>2022-07-10T12:14:46Z</time>
      </trkpt>
      <trkpt lat="43.37469" lon="2.23633">
        <ele>619.18963623</ele>
        <time>2022-07-10T12:14:47Z</time>
      </trkpt>
      <trkpt lat="43.37476" lon="2.23623">
        <ele>617.8996582</ele>
        <time>2022-07-10T12:14:48Z</time>
      </trkpt>
      <trkpt lat="43.37483" lon="2.23614">
        <ele>617.40966797</ele>
        <time>2022-07-10T12:14:49Z</time>
      </trkpt>
      <trkpt lat="43.3749" lon="2.23603">
        <ele>617.15966797</ele>
        <time>2022-07-10T12:14:50Z</time>
      </trkpt>
      <trkpt lat="43.37496" lon="2.23587">
        <ele>617.34967041</ele>
        <time>2022-07-10T12:14:51Z</time>
      </trkpt>
      <trkpt lat="43.37497" lon="2.23575">
        <ele>617.34967041</ele>
        <time>2022-07-10T12:14:52Z</time>
      </trkpt>
      <trkpt lat="43.37497" lon="2.23564">
        <ele>617.79968262</ele>
        <time>2022-07-10T12:14:53Z</time>
      </trkpt>
      <trkpt lat="43.37496" lon="2.23552">
        <ele>618.05969238</ele>
        <time>2022-07-10T12:14:54Z</time>
      </trkpt>
      <trkpt lat="43.37493" lon="2.23541">
        <ele>618.05969238</ele>
        <time>2022-07-10T12:14:55Z</time>
      </trkpt>
      <trkpt lat="43.3749" lon="2.23523">
        <ele>617.65966797</ele>
        <time>2022-07-10T12:14:56Z</time>
      </trkpt>
      <trkpt lat="43.37488" lon="2.23512">
        <ele>617.3996582</ele>
        <time>2022-07-10T12:14:57Z</time>
      </trkpt>
      <trkpt lat="43.37486" lon="2.23501">
        <ele>617.11962891</ele>
        <time>2022-07-10T12:14:58Z</time>
      </trkpt>
      <trkpt lat="43.37485" lon="2.23491">
        <ele>617.11962891</ele>
        <time>2022-07-10T12:14:59Z</time>
      </trkpt>
      <trkpt lat="43.37484" lon="2.23478">
        <ele>616.82965088</ele>
        <time>2022-07-10T12:15:00Z</time>
      </trkpt>
      <trkpt lat="43.37482" lon="2.23469">
        <ele>616.82965088</ele>
        <time>2022-07-10T12:15:01Z</time>
      </trkpt>
      <trkpt lat="43.3748" lon="2.23461">
        <ele>616.85968018</ele>
        <time>2022-07-10T12:15:02Z</time>
      </trkpt>
      <trkpt lat="43.37478" lon="2.23452">
        <ele>616.85968018</ele>
        <time>2022-07-10T12:15:03Z</time>
      </trkpt>
      <trkpt lat="43.37476" lon="2.23444">
        <ele>617.08966064</ele>
        <time>2022-07-10T12:15:04Z</time>
      </trkpt>
      <trkpt lat="43.37474" lon="2.23433">
        <ele>617.35968018</ele>
        <time>2022-07-10T12:15:05Z</time>
      </trkpt>
      <trkpt lat="43.37473" lon="2.23427">
        <ele>617.68969727</ele>
        <time>2022-07-10T12:15:06Z</time>
      </trkpt>
      <trkpt lat="43.37472" lon="2.2342">
        <ele>618.04968262</ele>
        <time>2022-07-10T12:15:07Z</time>
      </trkpt>
      <trkpt lat="43.37471" lon="2.23414">
        <ele>618.48968506</ele>
        <time>2022-07-10T12:15:08Z</time>
      </trkpt>
      <trkpt lat="43.37469" lon="2.23404">
        <ele>618.8996582</ele>
        <time>2022-07-10T12:15:09Z</time>
      </trkpt>
      <trkpt lat="43.37469" lon="2.23399">
        <ele>619.28967285</ele>
        <time>2022-07-10T12:15:10Z</time>
      </trkpt>
      <trkpt lat="43.37468" lon="2.23393">
        <ele>619.699646</ele>
        <time>2022-07-10T12:15:11Z</time>
      </trkpt>
      <trkpt lat="43.37467" lon="2.23387">
        <ele>619.699646</ele>
        <time>2022-07-10T12:15:12Z</time>
      </trkpt>
      <trkpt lat="43.37466" lon="2.23382">
        <ele>620.37963867</ele>
        <time>2022-07-10T12:15:13Z</time>
      </trkpt>
      <trkpt lat="43.37464" lon="2.23373">
        <ele>620.72961426</ele>
        <time>2022-07-10T12:15:14Z</time>
      </trkpt>
      <trkpt lat="43.37463" lon="2.23367">
        <ele>621.09960938</ele>
        <time>2022-07-10T12:15:15Z</time>
      </trkpt>
      <trkpt lat="43.37462" lon="2.2336">
        <ele>621.47961426</ele>
        <time>2022-07-10T12:15:16Z</time>
      </trkpt>
      <trkpt lat="43.3746" lon="2.23354">
        <ele>621.87963867</ele>
        <time>2022-07-10T12:15:17Z</time>
      </trkpt>
      <trkpt lat="43.37458" lon="2.23345">
        <ele>622.1696167</ele>
        <time>2022-07-10T12:15:18Z</time>
      </trkpt>
      <trkpt lat="43.37457" lon="2.2334">
        <ele>622.4196167</ele>
        <time>2022-07-10T12:15:19Z</time>
      </trkpt>
      <trkpt lat="43.37457" lon="2.23335">
        <ele>622.6395874</ele>
        <time>2022-07-10T12:15:20Z</time>
      </trkpt>
      <trkpt lat="43.37458" lon="2.23331">
        <ele>622.6395874</ele>
        <time>2022-07-10T12:15:21Z</time>
      </trkpt>
      <trkpt lat="43.37459" lon="2.23328">
        <ele>623.06958008</ele>
        <time>2022-07-10T12:15:22Z</time>
      </trkpt>
      <trkpt lat="43.37461" lon="2.23326">
        <ele>623.39959717</ele>
        <time>2022-07-10T12:15:23Z</time>
      </trkpt>
      <trkpt lat="43.37462" lon="2.23323">
        <ele>623.65960693</ele>
        <time>2022-07-10T12:15:24Z</time>
      </trkpt>
      <trkpt lat="43.37464" lon="2.23322">
        <ele>623.98962402</ele>
        <time>2022-07-10T12:15:25Z</time>
      </trkpt>
      <trkpt lat="43.37466" lon="2.23319">
        <ele>623.98962402</ele>
        <time>2022-07-10T12:15:26Z</time>
      </trkpt>
      <trkpt lat="43.37469" lon="2.23316">
        <ele>624.22961426</ele>
        <time>2022-07-10T12:15:27Z</time>
      </trkpt>
      <trkpt lat="43.37471" lon="2.23314">
        <ele>624.40960693</ele>
        <time>2022-07-10T12:15:28Z</time>
      </trkpt>
      <trkpt lat="43.37472" lon="2.23311">
        <ele>624.72961426</ele>
        <time>2022-07-10T12:15:29Z</time>
      </trkpt>
      <trkpt lat="43.37473" lon="2.23308">
        <ele>625.30963135</ele>
        <time>2022-07-10T12:15:30Z</time>
      </trkpt>
      <trkpt lat="43.37475" lon="2.23305">
        <ele>625.67962646</ele>
        <time>2022-07-10T12:15:31Z</time>
      </trkpt>
      <trkpt lat="43.37475" lon="2.23301">
        <ele>626.00964355</ele>
        <time>2022-07-10T12:15:32Z</time>
      </trkpt>
      <trkpt lat="43.37476" lon="2.23298">
        <ele>626.38964844</ele>
        <time>2022-07-10T12:15:33Z</time>
      </trkpt>
      <trkpt lat="43.37476" lon="2.23295">
        <ele>626.96966553</ele>
        <time>2022-07-10T12:15:34Z</time>
      </trkpt>
      <trkpt lat="43.37476" lon="2.23292">
        <ele>627.45965576</ele>
        <time>2022-07-10T12:15:35Z</time>
      </trkpt>
      <trkpt lat="43.37478" lon="2.23288">
        <ele>627.93963623</ele>
        <time>2022-07-10T12:15:36Z</time>
      </trkpt>
      <trkpt lat="43.37479" lon="2.23285">
        <ele>628.38964844</ele>
        <time>2022-07-10T12:15:37Z</time>
      </trkpt>
      <trkpt lat="43.37479" lon="2.23283">
        <ele>628.97967529</ele>
        <time>2022-07-10T12:15:38Z</time>
      </trkpt>
      <trkpt lat="43.3748" lon="2.2328">
        <ele>628.97967529</ele>
        <time>2022-07-10T12:15:39Z</time>
      </trkpt>
      <trkpt lat="43.3748" lon="2.23278">
        <ele>630.06970215</ele>
        <time>2022-07-10T12:15:40Z</time>
      </trkpt>
      <trkpt lat="43.3748" lon="2.23273">
        <ele>630.60968018</ele>
        <time>2022-07-10T12:15:41Z</time>
      </trkpt>
      <trkpt lat="43.37481" lon="2.2327">
        <ele>630.60968018</ele>
        <time>2022-07-10T12:15:42Z</time>
      </trkpt>
      <trkpt lat="43.37483" lon="2.23266">
        <ele>631.22967529</ele>
        <time>2022-07-10T12:15:43Z</time>
      </trkpt>
      <trkpt lat="43.37484" lon="2.23263">
        <ele>631.22967529</ele>
        <time>2022-07-10T12:15:44Z</time>
      </trkpt>
      <trkpt lat="43.37486" lon="2.2326">
        <ele>631.68969727</ele>
        <time>2022-07-10T12:15:45Z</time>
      </trkpt>
      <trkpt lat="43.37488" lon="2.23258">
        <ele>632.2097168</ele>
        <time>2022-07-10T12:15:46Z</time>
      </trkpt>
      <trkpt lat="43.3749" lon="2.23256">
        <ele>632.74969482</ele>
        <time>2022-07-10T12:15:47Z</time>
      </trkpt>
      <trkpt lat="43.37493" lon="2.23254">
        <ele>633.62969971</ele>
        <time>2022-07-10T12:15:48Z</time>
      </trkpt>
      <trkpt lat="43.37495" lon="2.2325">
        <ele>633.96972656</ele>
        <time>2022-07-10T12:15:49Z</time>
      </trkpt>
      <trkpt lat="43.37496" lon="2.23248">
        <ele>634.51971436</ele>
        <time>2022-07-10T12:15:50Z</time>
      </trkpt>
      <trkpt lat="43.37497" lon="2.23246">
        <ele>634.51971436</ele>
        <time>2022-07-10T12:15:51Z</time>
      </trkpt>
      <trkpt lat="43.37498" lon="2.23243">
        <ele>635.34973145</ele>
        <time>2022-07-10T12:15:52Z</time>
      </trkpt>
      <trkpt lat="43.37499" lon="2.2324">
        <ele>635.69970703</ele>
        <time>2022-07-10T12:15:53Z</time>
      </trkpt>
      <trkpt lat="43.37501" lon="2.23236">
        <ele>635.9597168</ele>
        <time>2022-07-10T12:15:54Z</time>
      </trkpt>
      <trkpt lat="43.37502" lon="2.23234">
        <ele>636.14971924</ele>
        <time>2022-07-10T12:15:55Z</time>
      </trkpt>
      <trkpt lat="43.37504" lon="2.23231">
        <ele>636.32971191</ele>
        <time>2022-07-10T12:15:56Z</time>
      </trkpt>
      <trkpt lat="43.37506" lon="2.23229">
        <ele>636.32971191</ele>
        <time>2022-07-10T12:15:57Z</time>
      </trkpt>
      <trkpt lat="43.37507" lon="2.23225">
        <ele>636.77972412</ele>
        <time>2022-07-10T12:15:58Z</time>
      </trkpt>
      <trkpt lat="43.3751" lon="2.23221">
        <ele>636.77972412</ele>
        <time>2022-07-10T12:15:59Z</time>
      </trkpt>
      <trkpt lat="43.37512" lon="2.23219">
        <ele>637.52972412</ele>
        <time>2022-07-10T12:16:00Z</time>
      </trkpt>
      <trkpt lat="43.37513" lon="2.23217">
        <ele>637.97973633</ele>
        <time>2022-07-10T12:16:01Z</time>
      </trkpt>
      <trkpt lat="43.37515" lon="2.23216">
        <ele>638.4597168</ele>
        <time>2022-07-10T12:16:02Z</time>
      </trkpt>
      <trkpt lat="43.37517" lon="2.23215">
        <ele>638.4597168</ele>
        <time>2022-07-10T12:16:03Z</time>
      </trkpt>
      <trkpt lat="43.37519" lon="2.23215">
        <ele>639.02972412</ele>
        <time>2022-07-10T12:16:04Z</time>
      </trkpt>
      <trkpt lat="43.37521" lon="2.23215">
        <ele>639.02972412</ele>
        <time>2022-07-10T12:16:05Z</time>
      </trkpt>
      <trkpt lat="43.37524" lon="2.23214">
        <ele>639.61975098</ele>
        <time>2022-07-10T12:16:06Z</time>
      </trkpt>
      <trkpt lat="43.37526" lon="2.23211">
        <ele>640.00976562</ele>
        <time>2022-07-10T12:16:07Z</time>
      </trkpt>
      <trkpt lat="43.37529" lon="2.23207">
        <ele>640.00976562</ele>
        <time>2022-07-10T12:16:08Z</time>
      </trkpt>
      <trkpt lat="43.37531" lon="2.23204">
        <ele>640.25976562</ele>
        <time>2022-07-10T12:16:09Z</time>
      </trkpt>
      <trkpt lat="43.37532" lon="2.23201">
        <ele>640.47973633</ele>
        <time>2022-07-10T12:16:10Z</time>
      </trkpt>
      <trkpt lat="43.37533" lon="2.23199">
        <ele>640.80975342</ele>
        <time>2022-07-10T12:16:11Z</time>
      </trkpt>
      <trkpt lat="43.37535" lon="2.23196">
        <ele>640.80975342</ele>
        <time>2022-07-10T12:16:12Z</time>
      </trkpt>
      <trkpt lat="43.37537" lon="2.23193">
        <ele>641.16973877</ele>
        <time>2022-07-10T12:16:13Z</time>
      </trkpt>
      <trkpt lat="43.37538" lon="2.23191">
        <ele>641.34973145</ele>
        <time>2022-07-10T12:16:14Z</time>
      </trkpt>
      <trkpt lat="43.3754" lon="2.23189">
        <ele>641.34973145</ele>
        <time>2022-07-10T12:16:15Z</time>
      </trkpt>
      <trkpt lat="43.37542" lon="2.23186">
        <ele>641.83972168</ele>
        <time>2022-07-10T12:16:16Z</time>
      </trkpt>
      <trkpt lat="43.37545" lon="2.23181">
        <ele>642.04974365</ele>
        <time>2022-07-10T12:16:17Z</time>
      </trkpt>
      <trkpt lat="43.37546" lon="2.23177">
        <ele>642.23974609</ele>
        <time>2022-07-10T12:16:18Z</time>
      </trkpt>
      <trkpt lat="43.37547" lon="2.23173">
        <ele>642.27972412</ele>
        <time>2022-07-10T12:16:19Z</time>
      </trkpt>
      <trkpt lat="43.37548" lon="2.23169">
        <ele>642.46972656</ele>
        <time>2022-07-10T12:16:20Z</time>
      </trkpt>
      <trkpt lat="43.37549" lon="2.23165">
        <ele>642.46972656</ele>
        <time>2022-07-10T12:16:21Z</time>
      </trkpt>
      <trkpt lat="43.3755" lon="2.23158">
        <ele>642.80975342</ele>
        <time>2022-07-10T12:16:22Z</time>
      </trkpt>
      <trkpt lat="43.37551" lon="2.23154">
        <ele>642.80975342</ele>
        <time>2022-07-10T12:16:23Z</time>
      </trkpt>
      <trkpt lat="43.37552" lon="2.23151">
        <ele>643.10974121</ele>
        <time>2022-07-10T12:16:24Z</time>
      </trkpt>
      <trkpt lat="43.37552" lon="2.23147">
        <ele>643.47973633</ele>
        <time>2022-07-10T12:16:25Z</time>
      </trkpt>
      <trkpt lat="43.37554" lon="2.23142">
        <ele>644.22973633</ele>
        <time>2022-07-10T12:16:26Z</time>
      </trkpt>
      <trkpt lat="43.37555" lon="2.23139">
        <ele>644.49975586</ele>
        <time>2022-07-10T12:16:27Z</time>
      </trkpt>
      <trkpt lat="43.37556" lon="2.23136">
        <ele>644.64978027</ele>
        <time>2022-07-10T12:16:28Z</time>
      </trkpt>
      <trkpt lat="43.37558" lon="2.23133">
        <ele>644.64978027</ele>
        <time>2022-07-10T12:16:29Z</time>
      </trkpt>
      <trkpt lat="43.37559" lon="2.2313">
        <ele>644.83978271</ele>
        <time>2022-07-10T12:16:30Z</time>
      </trkpt>
      <trkpt lat="43.37561" lon="2.23125">
        <ele>645.25976562</ele>
        <time>2022-07-10T12:16:31Z</time>
      </trkpt>
      <trkpt lat="43.37563" lon="2.23122">
        <ele>645.44976807</ele>
        <time>2022-07-10T12:16:32Z</time>
      </trkpt>
      <trkpt lat="43.37565" lon="2.23118">
        <ele>645.69976807</ele>
        <time>2022-07-10T12:16:33Z</time>
      </trkpt>
      <trkpt lat="43.37567" lon="2.23115">
        <ele>645.9397583</ele>
        <time>2022-07-10T12:16:34Z</time>
      </trkpt>
      <trkpt lat="43.3757" lon="2.2311">
        <ele>645.9397583</ele>
        <time>2022-07-10T12:16:35Z</time>
      </trkpt>
      <trkpt lat="43.37571" lon="2.23107">
        <ele>646.48974609</ele>
        <time>2022-07-10T12:16:36Z</time>
      </trkpt>
      <trkpt lat="43.37573" lon="2.23104">
        <ele>646.48974609</ele>
        <time>2022-07-10T12:16:37Z</time>
      </trkpt>
      <trkpt lat="43.37574" lon="2.231">
        <ele>646.84973145</ele>
        <time>2022-07-10T12:16:38Z</time>
      </trkpt>
      <trkpt lat="43.37576" lon="2.23094">
        <ele>646.99975586</ele>
        <time>2022-07-10T12:16:39Z</time>
      </trkpt>
      <trkpt lat="43.37576" lon="2.23089">
        <ele>647.11975098</ele>
        <time>2022-07-10T12:16:40Z</time>
      </trkpt>
      <trkpt lat="43.37577" lon="2.23085">
        <ele>647.23974609</ele>
        <time>2022-07-10T12:16:41Z</time>
      </trkpt>
      <trkpt lat="43.37579" lon="2.23082">
        <ele>647.23974609</ele>
        <time>2022-07-10T12:16:42Z</time>
      </trkpt>
      <trkpt lat="43.37581" lon="2.23077">
        <ele>647.48974609</ele>
        <time>2022-07-10T12:16:43Z</time>
      </trkpt>
      <trkpt lat="43.37582" lon="2.23075">
        <ele>647.48974609</ele>
        <time>2022-07-10T12:16:44Z</time>
      </trkpt>
      <trkpt lat="43.37583" lon="2.23072">
        <ele>647.83972168</ele>
        <time>2022-07-10T12:16:45Z</time>
      </trkpt>
      <trkpt lat="43.37585" lon="2.23069">
        <ele>648.07971191</ele>
        <time>2022-07-10T12:16:46Z</time>
      </trkpt>
      <trkpt lat="43.37587" lon="2.23066">
        <ele>648.35974121</ele>
        <time>2022-07-10T12:16:47Z</time>
      </trkpt>
      <trkpt lat="43.37588" lon="2.23064">
        <ele>648.35974121</ele>
        <time>2022-07-10T12:16:48Z</time>
      </trkpt>
      <trkpt lat="43.3759" lon="2.23059">
        <ele>648.87976074</ele>
        <time>2022-07-10T12:16:49Z</time>
      </trkpt>
      <trkpt lat="43.37591" lon="2.23055">
        <ele>649.13977051</ele>
        <time>2022-07-10T12:16:50Z</time>
      </trkpt>
      <trkpt lat="43.37592" lon="2.2305">
        <ele>649.13977051</ele>
        <time>2022-07-10T12:16:51Z</time>
      </trkpt>
      <trkpt lat="43.37593" lon="2.23045">
        <ele>649.44976807</ele>
        <time>2022-07-10T12:16:52Z</time>
      </trkpt>
      <trkpt lat="43.37594" lon="2.23038">
        <ele>650.04974365</ele>
        <time>2022-07-10T12:16:53Z</time>
      </trkpt>
      <trkpt lat="43.37595" lon="2.23034">
        <ele>650.31976318</ele>
        <time>2022-07-10T12:16:54Z</time>
      </trkpt>
      <trkpt lat="43.37595" lon="2.2303">
        <ele>650.31976318</ele>
        <time>2022-07-10T12:16:55Z</time>
      </trkpt>
      <trkpt lat="43.37596" lon="2.23026">
        <ele>650.85974121</ele>
        <time>2022-07-10T12:16:56Z</time>
      </trkpt>
      <trkpt lat="43.37597" lon="2.23019">
        <ele>651.11975098</ele>
        <time>2022-07-10T12:16:57Z</time>
      </trkpt>
      <trkpt lat="43.37598" lon="2.23015">
        <ele>651.44976807</ele>
        <time>2022-07-10T12:16:58Z</time>
      </trkpt>
      <trkpt lat="43.37599" lon="2.2301">
        <ele>651.70977783</ele>
        <time>2022-07-10T12:16:59Z</time>
      </trkpt>
      <trkpt lat="43.376" lon="2.23006">
        <ele>651.70977783</ele>
        <time>2022-07-10T12:17:00Z</time>
      </trkpt>
      <trkpt lat="43.37601" lon="2.23002">
        <ele>652.1697998</ele>
        <time>2022-07-10T12:17:01Z</time>
      </trkpt>
      <trkpt lat="43.37603" lon="2.22996">
        <ele>651.97979736</ele>
        <time>2022-07-10T12:17:02Z</time>
      </trkpt>
      <trkpt lat="43.37604" lon="2.22991">
        <ele>652.10980225</ele>
        <time>2022-07-10T12:17:03Z</time>
      </trkpt>
      <trkpt lat="43.37605" lon="2.22987">
        <ele>652.34979248</ele>
        <time>2022-07-10T12:17:04Z</time>
      </trkpt>
      <trkpt lat="43.37607" lon="2.22983">
        <ele>652.49981689</ele>
        <time>2022-07-10T12:17:05Z</time>
      </trkpt>
      <trkpt lat="43.37608" lon="2.22979">
        <ele>652.62982178</ele>
        <time>2022-07-10T12:17:06Z</time>
      </trkpt>
      <trkpt lat="43.37609" lon="2.22973">
        <ele>652.80981445</ele>
        <time>2022-07-10T12:17:07Z</time>
      </trkpt>
      <trkpt lat="43.37611" lon="2.22969">
        <ele>652.84979248</ele>
        <time>2022-07-10T12:17:08Z</time>
      </trkpt>
      <trkpt lat="43.37612" lon="2.22965">
        <ele>652.98980713</ele>
        <time>2022-07-10T12:17:09Z</time>
      </trkpt>
      <trkpt lat="43.37613" lon="2.22961">
        <ele>653.1697998</ele>
        <time>2022-07-10T12:17:10Z</time>
      </trkpt>
      <trkpt lat="43.37614" lon="2.22955">
        <ele>653.26977539</ele>
        <time>2022-07-10T12:17:11Z</time>
      </trkpt>
      <trkpt lat="43.37615" lon="2.22951">
        <ele>653.30975342</ele>
        <time>2022-07-10T12:17:12Z</time>
      </trkpt>
      <trkpt lat="43.37616" lon="2.22947">
        <ele>653.33978271</ele>
        <time>2022-07-10T12:17:13Z</time>
      </trkpt>
      <trkpt lat="43.37617" lon="2.22942">
        <ele>653.40979004</ele>
        <time>2022-07-10T12:17:14Z</time>
      </trkpt>
      <trkpt lat="43.37619" lon="2.22938">
        <ele>653.4697876</ele>
        <time>2022-07-10T12:17:15Z</time>
      </trkpt>
      <trkpt lat="43.3762" lon="2.22933">
        <ele>653.65979004</ele>
        <time>2022-07-10T12:17:16Z</time>
      </trkpt>
      <trkpt lat="43.37621" lon="2.22929">
        <ele>653.78979492</ele>
        <time>2022-07-10T12:17:17Z</time>
      </trkpt>
      <trkpt lat="43.37622" lon="2.22925">
        <ele>653.78979492</ele>
        <time>2022-07-10T12:17:18Z</time>
      </trkpt>
      <trkpt lat="43.37623" lon="2.22921">
        <ele>653.93981934</ele>
        <time>2022-07-10T12:17:19Z</time>
      </trkpt>
      <trkpt lat="43.37625" lon="2.22915">
        <ele>654.03979492</ele>
        <time>2022-07-10T12:17:20Z</time>
      </trkpt>
      <trkpt lat="43.37627" lon="2.22911">
        <ele>654.10980225</ele>
        <time>2022-07-10T12:17:21Z</time>
      </trkpt>
      <trkpt lat="43.37628" lon="2.22907">
        <ele>654.17980957</ele>
        <time>2022-07-10T12:17:22Z</time>
      </trkpt>
      <trkpt lat="43.37629" lon="2.22903">
        <ele>654.34979248</ele>
        <time>2022-07-10T12:17:23Z</time>
      </trkpt>
      <trkpt lat="43.3763" lon="2.22897">
        <ele>654.43981934</ele>
        <time>2022-07-10T12:17:24Z</time>
      </trkpt>
      <trkpt lat="43.37631" lon="2.22893">
        <ele>654.54980469</ele>
        <time>2022-07-10T12:17:25Z</time>
      </trkpt>
      <trkpt lat="43.37632" lon="2.22889">
        <ele>654.56982422</ele>
        <time>2022-07-10T12:17:26Z</time>
      </trkpt>
      <trkpt lat="43.37633" lon="2.22885">
        <ele>654.59985352</ele>
        <time>2022-07-10T12:17:27Z</time>
      </trkpt>
      <trkpt lat="43.37634" lon="2.22881">
        <ele>654.59985352</ele>
        <time>2022-07-10T12:17:28Z</time>
      </trkpt>
      <trkpt lat="43.37636" lon="2.22875">
        <ele>654.62988281</ele>
        <time>2022-07-10T12:17:29Z</time>
      </trkpt>
      <trkpt lat="43.37637" lon="2.22871">
        <ele>654.84985352</ele>
        <time>2022-07-10T12:17:30Z</time>
      </trkpt>
      <trkpt lat="43.37639" lon="2.22867">
        <ele>654.84985352</ele>
        <time>2022-07-10T12:17:31Z</time>
      </trkpt>
      <trkpt lat="43.37639" lon="2.22864">
        <ele>655.01983643</ele>
        <time>2022-07-10T12:17:32Z</time>
      </trkpt>
      <trkpt lat="43.3764" lon="2.22858">
        <ele>655.03985596</ele>
        <time>2022-07-10T12:17:33Z</time>
      </trkpt>
      <trkpt lat="43.37642" lon="2.22854">
        <ele>655.03985596</ele>
        <time>2022-07-10T12:17:34Z</time>
      </trkpt>
      <trkpt lat="43.37643" lon="2.22851">
        <ele>654.84985352</ele>
        <time>2022-07-10T12:17:35Z</time>
      </trkpt>
      <trkpt lat="43.37644" lon="2.22847">
        <ele>654.68988037</ele>
        <time>2022-07-10T12:17:36Z</time>
      </trkpt>
      <trkpt lat="43.37645" lon="2.22843">
        <ele>654.68988037</ele>
        <time>2022-07-10T12:17:37Z</time>
      </trkpt>
      <trkpt lat="43.37647" lon="2.22837">
        <ele>654.2098999</ele>
        <time>2022-07-10T12:17:38Z</time>
      </trkpt>
      <trkpt lat="43.37649" lon="2.22833">
        <ele>653.96990967</ele>
        <time>2022-07-10T12:17:39Z</time>
      </trkpt>
      <trkpt lat="43.3765" lon="2.2283">
        <ele>653.72991943</ele>
        <time>2022-07-10T12:17:40Z</time>
      </trkpt>
      <trkpt lat="43.37652" lon="2.22827">
        <ele>653.53991699</ele>
        <time>2022-07-10T12:17:41Z</time>
      </trkpt>
      <trkpt lat="43.37654" lon="2.22825">
        <ele>653.63989258</ele>
        <time>2022-07-10T12:17:42Z</time>
      </trkpt>
      <trkpt lat="43.37658" lon="2.22823">
        <ele>653.63989258</ele>
        <time>2022-07-10T12:17:43Z</time>
      </trkpt>
      <trkpt lat="43.3766" lon="2.22821">
        <ele>653.71990967</ele>
        <time>2022-07-10T12:17:44Z</time>
      </trkpt>
      <trkpt lat="43.37663" lon="2.22818">
        <ele>653.71990967</ele>
        <time>2022-07-10T12:17:45Z</time>
      </trkpt>
      <trkpt lat="43.37665" lon="2.22815">
        <ele>653.79992676</ele>
        <time>2022-07-10T12:17:46Z</time>
      </trkpt>
      <trkpt lat="43.37667" lon="2.2281">
        <ele>653.88995361</ele>
        <time>2022-07-10T12:17:47Z</time>
      </trkpt>
      <trkpt lat="43.37669" lon="2.22805">
        <ele>653.88995361</ele>
        <time>2022-07-10T12:17:48Z</time>
      </trkpt>
      <trkpt lat="43.37671" lon="2.22801">
        <ele>653.92993164</ele>
        <time>2022-07-10T12:17:49Z</time>
      </trkpt>
      <trkpt lat="43.37673" lon="2.22797">
        <ele>653.71990967</ele>
        <time>2022-07-10T12:17:50Z</time>
      </trkpt>
      <trkpt lat="43.37674" lon="2.22792">
        <ele>653.52990723</ele>
        <time>2022-07-10T12:17:51Z</time>
      </trkpt>
      <trkpt lat="43.37677" lon="2.22786">
        <ele>653.52990723</ele>
        <time>2022-07-10T12:17:52Z</time>
      </trkpt>
      <trkpt lat="43.37679" lon="2.22782">
        <ele>653.22991943</ele>
        <time>2022-07-10T12:17:53Z</time>
      </trkpt>
      <trkpt lat="43.37681" lon="2.22778">
        <ele>653.22991943</ele>
        <time>2022-07-10T12:17:54Z</time>
      </trkpt>
      <trkpt lat="43.37683" lon="2.22773">
        <ele>653.05993652</ele>
        <time>2022-07-10T12:17:55Z</time>
      </trkpt>
      <trkpt lat="43.37686" lon="2.22764">
        <ele>652.92993164</ele>
        <time>2022-07-10T12:17:56Z</time>
      </trkpt>
      <trkpt lat="43.37688" lon="2.22759">
        <ele>652.7399292</ele>
        <time>2022-07-10T12:17:57Z</time>
      </trkpt>
      <trkpt lat="43.3769" lon="2.22754">
        <ele>652.65991211</ele>
        <time>2022-07-10T12:17:58Z</time>
      </trkpt>
      <trkpt lat="43.37692" lon="2.22749">
        <ele>652.65991211</ele>
        <time>2022-07-10T12:17:59Z</time>
      </trkpt>
      <trkpt lat="43.37695" lon="2.22742">
        <ele>652.35992432</ele>
        <time>2022-07-10T12:18:00Z</time>
      </trkpt>
      <trkpt lat="43.37698" lon="2.22737">
        <ele>652.32989502</ele>
        <time>2022-07-10T12:18:01Z</time>
      </trkpt>
      <trkpt lat="43.377" lon="2.22732">
        <ele>652.34991455</ele>
        <time>2022-07-10T12:18:02Z</time>
      </trkpt>
      <trkpt lat="43.37702" lon="2.22727">
        <ele>652.34991455</ele>
        <time>2022-07-10T12:18:03Z</time>
      </trkpt>
      <trkpt lat="43.37704" lon="2.22721">
        <ele>652.49993896</ele>
        <time>2022-07-10T12:18:04Z</time>
      </trkpt>
      <trkpt lat="43.37707" lon="2.22713">
        <ele>652.49993896</ele>
        <time>2022-07-10T12:18:05Z</time>
      </trkpt>
      <trkpt lat="43.37709" lon="2.22708">
        <ele>652.66992188</ele>
        <time>2022-07-10T12:18:06Z</time>
      </trkpt>
      <trkpt lat="43.37711" lon="2.22704">
        <ele>652.52990723</ele>
        <time>2022-07-10T12:18:07Z</time>
      </trkpt>
      <trkpt lat="43.37713" lon="2.22699">
        <ele>652.36993408</ele>
        <time>2022-07-10T12:18:08Z</time>
      </trkpt>
      <trkpt lat="43.37715" lon="2.22694">
        <ele>652.36993408</ele>
        <time>2022-07-10T12:18:09Z</time>
      </trkpt>
      <trkpt lat="43.37718" lon="2.22686">
        <ele>652.31994629</ele>
        <time>2022-07-10T12:18:10Z</time>
      </trkpt>
      <trkpt lat="43.3772" lon="2.22681">
        <ele>651.99993896</ele>
        <time>2022-07-10T12:18:11Z</time>
      </trkpt>
      <trkpt lat="43.37723" lon="2.22676">
        <ele>652.0199585</ele>
        <time>2022-07-10T12:18:12Z</time>
      </trkpt>
      <trkpt lat="43.37725" lon="2.22671">
        <ele>651.85998535</ele>
        <time>2022-07-10T12:18:13Z</time>
      </trkpt>
      <trkpt lat="43.37727" lon="2.22663">
        <ele>651.72998047</ele>
        <time>2022-07-10T12:18:14Z</time>
      </trkpt>
      <trkpt lat="43.37729" lon="2.22659">
        <ele>651.72998047</ele>
        <time>2022-07-10T12:18:15Z</time>
      </trkpt>
      <trkpt lat="43.3773" lon="2.22654">
        <ele>651.83996582</ele>
        <time>2022-07-10T12:18:16Z</time>
      </trkpt>
      <trkpt lat="43.37732" lon="2.2265">
        <ele>651.84997559</ele>
        <time>2022-07-10T12:18:17Z</time>
      </trkpt>
      <trkpt lat="43.37735" lon="2.22644">
        <ele>651.7199707</ele>
        <time>2022-07-10T12:18:18Z</time>
      </trkpt>
      <trkpt lat="43.37738" lon="2.22639">
        <ele>651.50994873</ele>
        <time>2022-07-10T12:18:19Z</time>
      </trkpt>
      <trkpt lat="43.37739" lon="2.22634">
        <ele>651.28997803</ele>
        <time>2022-07-10T12:18:20Z</time>
      </trkpt>
      <trkpt lat="43.37739" lon="2.22628">
        <ele>651.28997803</ele>
        <time>2022-07-10T12:18:21Z</time>
      </trkpt>
      <trkpt lat="43.3774" lon="2.22624">
        <ele>651.23999023</ele>
        <time>2022-07-10T12:18:22Z</time>
      </trkpt>
      <trkpt lat="43.37743" lon="2.22618">
        <ele>651.22998047</ele>
        <time>2022-07-10T12:18:23Z</time>
      </trkpt>
      <trkpt lat="43.37745" lon="2.22613">
        <ele>651.22998047</ele>
        <time>2022-07-10T12:18:24Z</time>
      </trkpt>
      <trkpt lat="43.37749" lon="2.22608">
        <ele>651.20996094</ele>
        <time>2022-07-10T12:18:25Z</time>
      </trkpt>
      <trkpt lat="43.37752" lon="2.22603">
        <ele>650.64996338</ele>
        <time>2022-07-10T12:18:26Z</time>
      </trkpt>
      <trkpt lat="43.37756" lon="2.22596">
        <ele>650.39996338</ele>
        <time>2022-07-10T12:18:27Z</time>
      </trkpt>
      <trkpt lat="43.37758" lon="2.22593">
        <ele>650.10998535</ele>
        <time>2022-07-10T12:18:28Z</time>
      </trkpt>
      <trkpt lat="43.37759" lon="2.22588">
        <ele>650.13000488</ele>
        <time>2022-07-10T12:18:29Z</time>
      </trkpt>
      <trkpt lat="43.37758" lon="2.22584">
        <ele>650.13000488</ele>
        <time>2022-07-10T12:18:30Z</time>
      </trkpt>
      <trkpt lat="43.37757" lon="2.22582">
        <ele>650</ele>
        <time>2022-07-10T12:18:31Z</time>
      </trkpt>
      <trkpt lat="43.37757" lon="2.22577">
        <ele>650</ele>
        <time>2022-07-10T12:18:32Z</time>
      </trkpt>
      <trkpt lat="43.37757" lon="2.22575">
        <ele>650.0300293</ele>
        <time>2022-07-10T12:18:33Z</time>
      </trkpt>
      <trkpt lat="43.37756" lon="2.22571">
        <ele>649.94000244</ele>
        <time>2022-07-10T12:18:34Z</time>
      </trkpt>
      <trkpt lat="43.37754" lon="2.22567">
        <ele>649.90002441</ele>
        <time>2022-07-10T12:18:35Z</time>
      </trkpt>
      <trkpt lat="43.37754" lon="2.22561">
        <ele>649.85003662</ele>
        <time>2022-07-10T12:18:36Z</time>
      </trkpt>
      <trkpt lat="43.37752" lon="2.22552">
        <ele>649.85003662</ele>
        <time>2022-07-10T12:18:37Z</time>
      </trkpt>
      <trkpt lat="43.37752" lon="2.22545">
        <ele>649.80004883</ele>
        <time>2022-07-10T12:18:38Z</time>
      </trkpt>
      <trkpt lat="43.37752" lon="2.22539">
        <ele>649.7300415</ele>
        <time>2022-07-10T12:18:39Z</time>
      </trkpt>
      <trkpt lat="43.37752" lon="2.22532">
        <ele>649.64001465</ele>
        <time>2022-07-10T12:18:40Z</time>
      </trkpt>
      <trkpt lat="43.37751" lon="2.22522">
        <ele>649.64001465</ele>
        <time>2022-07-10T12:18:41Z</time>
      </trkpt>
      <trkpt lat="43.3775" lon="2.22516">
        <ele>649.39001465</ele>
        <time>2022-07-10T12:18:42Z</time>
      </trkpt>
      <trkpt lat="43.37749" lon="2.22509">
        <ele>649.27001953</ele>
        <time>2022-07-10T12:18:43Z</time>
      </trkpt>
      <trkpt lat="43.37748" lon="2.22503">
        <ele>649.10003662</ele>
        <time>2022-07-10T12:18:44Z</time>
      </trkpt>
      <trkpt lat="43.37747" lon="2.22497">
        <ele>649.10003662</ele>
        <time>2022-07-10T12:18:45Z</time>
      </trkpt>
      <trkpt lat="43.37746" lon="2.22488">
        <ele>648.87005615</ele>
        <time>2022-07-10T12:18:46Z</time>
      </trkpt>
      <trkpt lat="43.37745" lon="2.22481">
        <ele>648.80004883</ele>
        <time>2022-07-10T12:18:47Z</time>
      </trkpt>
      <trkpt lat="43.37743" lon="2.22475">
        <ele>648.80004883</ele>
        <time>2022-07-10T12:18:48Z</time>
      </trkpt>
      <trkpt lat="43.37742" lon="2.22469">
        <ele>648.67004395</ele>
        <time>2022-07-10T12:18:49Z</time>
      </trkpt>
      <trkpt lat="43.3774" lon="2.22459">
        <ele>648.4800415</ele>
        <time>2022-07-10T12:18:50Z</time>
      </trkpt>
      <trkpt lat="43.37739" lon="2.22453">
        <ele>648.24005127</ele>
        <time>2022-07-10T12:18:51Z</time>
      </trkpt>
      <trkpt lat="43.37738" lon="2.22447">
        <ele>648.24005127</ele>
        <time>2022-07-10T12:18:52Z</time>
      </trkpt>
      <trkpt lat="43.37736" lon="2.22441">
        <ele>648.04003906</ele>
        <time>2022-07-10T12:18:53Z</time>
      </trkpt>
      <trkpt lat="43.37735" lon="2.22436">
        <ele>648.32006836</ele>
        <time>2022-07-10T12:18:54Z</time>
      </trkpt>
      <trkpt lat="43.37733" lon="2.22427">
        <ele>648.40008545</ele>
        <time>2022-07-10T12:18:55Z</time>
      </trkpt>
      <trkpt lat="43.37732" lon="2.2242">
        <ele>648.38006592</ele>
        <time>2022-07-10T12:18:56Z</time>
      </trkpt>
      <trkpt lat="43.3773" lon="2.22413">
        <ele>648.5100708</ele>
        <time>2022-07-10T12:18:57Z</time>
      </trkpt>
      <trkpt lat="43.37729" lon="2.22406">
        <ele>647.99005127</ele>
        <time>2022-07-10T12:18:58Z</time>
      </trkpt>
      <trkpt lat="43.37727" lon="2.22395">
        <ele>647.99005127</ele>
        <time>2022-07-10T12:18:59Z</time>
      </trkpt>
      <trkpt lat="43.37725" lon="2.22387">
        <ele>647.61004639</ele>
        <time>2022-07-10T12:19:00Z</time>
      </trkpt>
      <trkpt lat="43.37723" lon="2.22379">
        <ele>646.29003906</ele>
        <time>2022-07-10T12:19:01Z</time>
      </trkpt>
      <trkpt lat="43.37722" lon="2.22371">
        <ele>646.05004883</ele>
        <time>2022-07-10T12:19:02Z</time>
      </trkpt>
      <trkpt lat="43.37719" lon="2.2236">
        <ele>645.10003662</ele>
        <time>2022-07-10T12:19:03Z</time>
      </trkpt>
      <trkpt lat="43.37718" lon="2.22352">
        <ele>645.10003662</ele>
        <time>2022-07-10T12:19:04Z</time>
      </trkpt>
      <trkpt lat="43.37717" lon="2.22344">
        <ele>644.67004395</ele>
        <time>2022-07-10T12:19:05Z</time>
      </trkpt>
      <trkpt lat="43.37715" lon="2.22336">
        <ele>644.35003662</ele>
        <time>2022-07-10T12:19:06Z</time>
      </trkpt>
      <trkpt lat="43.37714" lon="2.22329">
        <ele>644.12005615</ele>
        <time>2022-07-10T12:19:07Z</time>
      </trkpt>
      <trkpt lat="43.37713" lon="2.22319">
        <ele>644.12005615</ele>
        <time>2022-07-10T12:19:08Z</time>
      </trkpt>
      <trkpt lat="43.37712" lon="2.22314">
        <ele>644.15008545</ele>
        <time>2022-07-10T12:19:09Z</time>
      </trkpt>
      <trkpt lat="43.37711" lon="2.22309">
        <ele>644.15008545</ele>
        <time>2022-07-10T12:19:10Z</time>
      </trkpt>
      <trkpt lat="43.37711" lon="2.22305">
        <ele>644.15008545</ele>
        <time>2022-07-10T12:19:11Z</time>
      </trkpt>
      <trkpt lat="43.37709" lon="2.22297">
        <ele>644.10009766</ele>
        <time>2022-07-10T12:19:12Z</time>
      </trkpt>
      <trkpt lat="43.37708" lon="2.2229">
        <ele>644.10009766</ele>
        <time>2022-07-10T12:19:13Z</time>
      </trkpt>
      <trkpt lat="43.37706" lon="2.22283">
        <ele>644.09008789</ele>
        <time>2022-07-10T12:19:14Z</time>
      </trkpt>
      <trkpt lat="43.37705" lon="2.22276">
        <ele>643.85009766</ele>
        <time>2022-07-10T12:19:15Z</time>
      </trkpt>
      <trkpt lat="43.37704" lon="2.22269">
        <ele>643.85009766</ele>
        <time>2022-07-10T12:19:16Z</time>
      </trkpt>
      <trkpt lat="43.37702" lon="2.22258">
        <ele>643.7901001</ele>
        <time>2022-07-10T12:19:17Z</time>
      </trkpt>
      <trkpt lat="43.37701" lon="2.22251">
        <ele>643.58007812</ele>
        <time>2022-07-10T12:19:18Z</time>
      </trkpt>
      <trkpt lat="43.37699" lon="2.22244">
        <ele>643.47009277</ele>
        <time>2022-07-10T12:19:19Z</time>
      </trkpt>
      <trkpt lat="43.37698" lon="2.22237">
        <ele>642.83007812</ele>
        <time>2022-07-10T12:19:20Z</time>
      </trkpt>
      <trkpt lat="43.37695" lon="2.2223">
        <ele>642.83007812</ele>
        <time>2022-07-10T12:19:21Z</time>
      </trkpt>
      <trkpt lat="43.37692" lon="2.22219">
        <ele>641.86010742</ele>
        <time>2022-07-10T12:19:22Z</time>
      </trkpt>
      <trkpt lat="43.37691" lon="2.22212">
        <ele>641.52008057</ele>
        <time>2022-07-10T12:19:23Z</time>
      </trkpt>
      <trkpt lat="43.3769" lon="2.22206">
        <ele>641.11010742</ele>
        <time>2022-07-10T12:19:24Z</time>
      </trkpt>
      <trkpt lat="43.37689" lon="2.22199">
        <ele>640.93011475</ele>
        <time>2022-07-10T12:19:25Z</time>
      </trkpt>
      <trkpt lat="43.37688" lon="2.2219">
        <ele>640.93011475</ele>
        <time>2022-07-10T12:19:26Z</time>
      </trkpt>
      <trkpt lat="43.37688" lon="2.22184">
        <ele>640.86010742</ele>
        <time>2022-07-10T12:19:27Z</time>
      </trkpt>
      <trkpt lat="43.37689" lon="2.22179">
        <ele>640.7901001</ele>
        <time>2022-07-10T12:19:28Z</time>
      </trkpt>
      <trkpt lat="43.37689" lon="2.22175">
        <ele>640.7901001</ele>
        <time>2022-07-10T12:19:29Z</time>
      </trkpt>
      <trkpt lat="43.3769" lon="2.22171">
        <ele>640.7600708</ele>
        <time>2022-07-10T12:19:30Z</time>
      </trkpt>
      <trkpt lat="43.37692" lon="2.22166">
        <ele>640.62005615</ele>
        <time>2022-07-10T12:19:31Z</time>
      </trkpt>
      <trkpt lat="43.37692" lon="2.22161">
        <ele>640.62005615</ele>
        <time>2022-07-10T12:19:32Z</time>
      </trkpt>
      <trkpt lat="43.37693" lon="2.22157">
        <ele>640.4800415</ele>
        <time>2022-07-10T12:19:33Z</time>
      </trkpt>
      <trkpt lat="43.37693" lon="2.22153">
        <ele>640.41003418</ele>
        <time>2022-07-10T12:19:34Z</time>
      </trkpt>
      <trkpt lat="43.37691" lon="2.22148">
        <ele>640.44006348</ele>
        <time>2022-07-10T12:19:35Z</time>
      </trkpt>
      <trkpt lat="43.3769" lon="2.22145">
        <ele>640.46008301</ele>
        <time>2022-07-10T12:19:36Z</time>
      </trkpt>
      <trkpt lat="43.37689" lon="2.22142">
        <ele>640.53009033</ele>
        <time>2022-07-10T12:19:37Z</time>
      </trkpt>
      <trkpt lat="43.37687" lon="2.2214">
        <ele>640.63006592</ele>
        <time>2022-07-10T12:19:38Z</time>
      </trkpt>
      <trkpt lat="43.37686" lon="2.22138">
        <ele>640.7600708</ele>
        <time>2022-07-10T12:19:39Z</time>
      </trkpt>
      <trkpt lat="43.37685" lon="2.22135">
        <ele>640.90008545</ele>
        <time>2022-07-10T12:19:40Z</time>
      </trkpt>
      <trkpt lat="43.37684" lon="2.22133">
        <ele>641.00006104</ele>
        <time>2022-07-10T12:19:41Z</time>
      </trkpt>
      <trkpt lat="43.37683" lon="2.2213">
        <ele>641.00006104</ele>
        <time>2022-07-10T12:19:42Z</time>
      </trkpt>
      <trkpt lat="43.37682" lon="2.22127">
        <ele>641.14007568</ele>
        <time>2022-07-10T12:19:43Z</time>
      </trkpt>
      <trkpt lat="43.3768" lon="2.22123">
        <ele>641.14007568</ele>
        <time>2022-07-10T12:19:44Z</time>
      </trkpt>
      <trkpt lat="43.37679" lon="2.2212">
        <ele>641.32006836</ele>
        <time>2022-07-10T12:19:45Z</time>
      </trkpt>
      <trkpt lat="43.37679" lon="2.22117">
        <ele>641.32006836</ele>
        <time>2022-07-10T12:19:46Z</time>
      </trkpt>
      <trkpt lat="43.37678" lon="2.22114">
        <ele>641.62005615</ele>
        <time>2022-07-10T12:19:47Z</time>
      </trkpt>
      <trkpt lat="43.37678" lon="2.2211">
        <ele>641.75006104</ele>
        <time>2022-07-10T12:19:48Z</time>
      </trkpt>
      <trkpt lat="43.37678" lon="2.22108">
        <ele>641.78009033</ele>
        <time>2022-07-10T12:19:49Z</time>
      </trkpt>
      <trkpt lat="43.37679" lon="2.22106">
        <ele>641.7600708</ele>
        <time>2022-07-10T12:19:50Z</time>
      </trkpt>
      <trkpt lat="43.37681" lon="2.22105">
        <ele>641.62005615</ele>
        <time>2022-07-10T12:19:51Z</time>
      </trkpt>
      <trkpt lat="43.37683" lon="2.22106">
        <ele>641.43005371</ele>
        <time>2022-07-10T12:19:52Z</time>
      </trkpt>
      <trkpt lat="43.37684" lon="2.22109">
        <ele>641.33007812</ele>
        <time>2022-07-10T12:19:53Z</time>
      </trkpt>
      <trkpt lat="43.37683" lon="2.22111">
        <ele>641.33007812</ele>
        <time>2022-07-10T12:19:54Z</time>
      </trkpt>
      <trkpt lat="43.37683" lon="2.22113">
        <ele>641.20007324</ele>
        <time>2022-07-10T12:19:55Z</time>
      </trkpt>
      <trkpt lat="43.37683" lon="2.22116">
        <ele>641.30004883</ele>
        <time>2022-07-10T12:19:56Z</time>
      </trkpt>
      <trkpt lat="43.37683" lon="2.2212">
        <ele>641.30004883</ele>
        <time>2022-07-10T12:19:57Z</time>
      </trkpt>
      <trkpt lat="43.37682" lon="2.22122">
        <ele>641.18005371</ele>
        <time>2022-07-10T12:19:58Z</time>
      </trkpt>
      <trkpt lat="43.37682" lon="2.22125">
        <ele>641.18005371</ele>
        <time>2022-07-10T12:19:59Z</time>
      </trkpt>
      <trkpt lat="43.37681" lon="2.22127">
        <ele>641.16003418</ele>
        <time>2022-07-10T12:20:00Z</time>
      </trkpt>
      <trkpt lat="43.3768" lon="2.22128">
        <ele>641.18005371</ele>
        <time>2022-07-10T12:20:01Z</time>
      </trkpt>
      <trkpt lat="43.3768" lon="2.22129">
        <ele>641.18005371</ele>
        <time>2022-07-10T12:20:02Z</time>
      </trkpt>
      <trkpt lat="43.37679" lon="2.22129">
        <ele>641.29003906</ele>
        <time>2022-07-10T12:20:03Z</time>
      </trkpt>
      <trkpt lat="43.37683" lon="2.22129">
        <ele>641.55004883</ele>
        <time>2022-07-10T12:20:11Z</time>
      </trkpt>
      <trkpt lat="43.37684" lon="2.2213">
        <ele>641.49005127</ele>
        <time>2022-07-10T12:20:12Z</time>
      </trkpt>
      <trkpt lat="43.37686" lon="2.22131">
        <ele>641.49005127</ele>
        <time>2022-07-10T12:20:13Z</time>
      </trkpt>
      <trkpt lat="43.37687" lon="2.22133">
        <ele>641.24005127</ele>
        <time>2022-07-10T12:20:14Z</time>
      </trkpt>
      <trkpt lat="43.37689" lon="2.22134">
        <ele>641.04003906</ele>
        <time>2022-07-10T12:20:15Z</time>
      </trkpt>
      <trkpt lat="43.37691" lon="2.22136">
        <ele>640.76000977</ele>
        <time>2022-07-10T12:20:16Z</time>
      </trkpt>
      <trkpt lat="43.37691" lon="2.22139">
        <ele>640.63000488</ele>
        <time>2022-07-10T12:20:17Z</time>
      </trkpt>
      <trkpt lat="43.3769" lon="2.22141">
        <ele>640.45001221</ele>
        <time>2022-07-10T12:20:18Z</time>
      </trkpt>
      <trkpt lat="43.37689" lon="2.22145">
        <ele>640.38000488</ele>
        <time>2022-07-10T12:20:19Z</time>
      </trkpt>
      <trkpt lat="43.37689" lon="2.22148">
        <ele>640.42999268</ele>
        <time>2022-07-10T12:20:20Z</time>
      </trkpt>
      <trkpt lat="43.37688" lon="2.2215">
        <ele>640.4699707</ele>
        <time>2022-07-10T12:20:21Z</time>
      </trkpt>
      <trkpt lat="43.37688" lon="2.22152">
        <ele>640.4699707</ele>
        <time>2022-07-10T12:20:22Z</time>
      </trkpt>
      <trkpt lat="43.37687" lon="2.22154">
        <ele>640.4699707</ele>
        <time>2022-07-10T12:20:23Z</time>
      </trkpt>
      <trkpt lat="43.37686" lon="2.22156">
        <ele>640.53997803</ele>
        <time>2022-07-10T12:20:24Z</time>
      </trkpt>
      <trkpt lat="43.37686" lon="2.22158">
        <ele>640.55999756</ele>
        <time>2022-07-10T12:20:25Z</time>
      </trkpt>
      <trkpt lat="43.37685" lon="2.2216">
        <ele>640.55999756</ele>
        <time>2022-07-10T12:20:26Z</time>
      </trkpt>
      <trkpt lat="43.37685" lon="2.22161">
        <ele>640.60998535</ele>
        <time>2022-07-10T12:20:27Z</time>
      </trkpt>
      <trkpt lat="43.37685" lon="2.22163">
        <ele>640.69000244</ele>
        <time>2022-07-10T12:20:28Z</time>
      </trkpt>
      <trkpt lat="43.37685" lon="2.22165">
        <ele>640.76000977</ele>
        <time>2022-07-10T12:20:29Z</time>
      </trkpt>
      <trkpt lat="43.37686" lon="2.22166">
        <ele>640.76000977</ele>
        <time>2022-07-10T12:20:30Z</time>
      </trkpt>
      <trkpt lat="43.37686" lon="2.22165">
        <ele>640.89001465</ele>
        <time>2022-07-10T12:20:31Z</time>
      </trkpt>
      <trkpt lat="43.37687" lon="2.22164">
        <ele>640.94000244</ele>
        <time>2022-07-10T12:20:32Z</time>
      </trkpt>
      <trkpt lat="43.37687" lon="2.22162">
        <ele>640.90997314</ele>
        <time>2022-07-10T12:20:33Z</time>
      </trkpt>
      <trkpt lat="43.37686" lon="2.22161">
        <ele>640.90997314</ele>
        <time>2022-07-10T12:20:34Z</time>
      </trkpt>
      <trkpt lat="43.37686" lon="2.22159">
        <ele>640.86999512</ele>
        <time>2022-07-10T12:20:35Z</time>
      </trkpt>
      <trkpt lat="43.37685" lon="2.22158">
        <ele>640.69000244</ele>
        <time>2022-07-10T12:20:36Z</time>
      </trkpt>
      <trkpt lat="43.37686" lon="2.22156">
        <ele>640.69000244</ele>
        <time>2022-07-10T12:20:37Z</time>
      </trkpt>
      <trkpt lat="43.37687" lon="2.22152">
        <ele>640.61999512</ele>
        <time>2022-07-10T12:20:38Z</time>
      </trkpt>
      <trkpt lat="43.37688" lon="2.22149">
        <ele>640.40997314</ele>
        <time>2022-07-10T12:20:39Z</time>
      </trkpt>
      <trkpt lat="43.37689" lon="2.22146">
        <ele>640.40997314</ele>
        <time>2022-07-10T12:20:40Z</time>
      </trkpt>
      <trkpt lat="43.3769" lon="2.22143">
        <ele>640.40997314</ele>
        <time>2022-07-10T12:20:41Z</time>
      </trkpt>
      <trkpt lat="43.3769" lon="2.22138">
        <ele>640.35998535</ele>
        <time>2022-07-10T12:20:42Z</time>
      </trkpt>
      <trkpt lat="43.37689" lon="2.22135">
        <ele>640.51000977</ele>
        <time>2022-07-10T12:20:43Z</time>
      </trkpt>
      <trkpt lat="43.37687" lon="2.22132">
        <ele>640.54003906</ele>
        <time>2022-07-10T12:20:44Z</time>
      </trkpt>
      <trkpt lat="43.37685" lon="2.22128">
        <ele>640.54003906</ele>
        <time>2022-07-10T12:20:45Z</time>
      </trkpt>
      <trkpt lat="43.37682" lon="2.22126">
        <ele>640.72003174</ele>
        <time>2022-07-10T12:20:46Z</time>
      </trkpt>
      <trkpt lat="43.3768" lon="2.22121">
        <ele>640.72003174</ele>
        <time>2022-07-10T12:20:47Z</time>
      </trkpt>
      <trkpt lat="43.37679" lon="2.22119">
        <ele>640.92004395</ele>
        <time>2022-07-10T12:20:48Z</time>
      </trkpt>
      <trkpt lat="43.37678" lon="2.22116">
        <ele>641.15002441</ele>
        <time>2022-07-10T12:20:49Z</time>
      </trkpt>
      <trkpt lat="43.37677" lon="2.22112">
        <ele>641.15002441</ele>
        <time>2022-07-10T12:20:50Z</time>
      </trkpt>
      <trkpt lat="43.37676" lon="2.22107">
        <ele>641.25</ele>
        <time>2022-07-10T12:20:51Z</time>
      </trkpt>
      <trkpt lat="43.37675" lon="2.22103">
        <ele>641.39001465</ele>
        <time>2022-07-10T12:20:52Z</time>
      </trkpt>
      <trkpt lat="43.37674" lon="2.22098">
        <ele>641.39001465</ele>
        <time>2022-07-10T12:20:53Z</time>
      </trkpt>
      <trkpt lat="43.37672" lon="2.22094">
        <ele>641.39001465</ele>
        <time>2022-07-10T12:20:54Z</time>
      </trkpt>
      <trkpt lat="43.37671" lon="2.2209">
        <ele>641.38000488</ele>
        <time>2022-07-10T12:20:55Z</time>
      </trkpt>
      <trkpt lat="43.37669" lon="2.22085">
        <ele>641.38000488</ele>
        <time>2022-07-10T12:20:56Z</time>
      </trkpt>
      <trkpt lat="43.37669" lon="2.22082">
        <ele>641.34002686</ele>
        <time>2022-07-10T12:20:57Z</time>
      </trkpt>
      <trkpt lat="43.37668" lon="2.22079">
        <ele>641.07000732</ele>
        <time>2022-07-10T12:20:58Z</time>
      </trkpt>
      <trkpt lat="43.37667" lon="2.22076">
        <ele>641.05999756</ele>
        <time>2022-07-10T12:20:59Z</time>
      </trkpt>
      <trkpt lat="43.37666" lon="2.22074">
        <ele>641.05999756</ele>
        <time>2022-07-10T12:21:00Z</time>
      </trkpt>
      <trkpt lat="43.37664" lon="2.22074">
        <ele>641.22998047</ele>
        <time>2022-07-10T12:21:01Z</time>
      </trkpt>
      <trkpt lat="43.37662" lon="2.22074">
        <ele>640.98999023</ele>
        <time>2022-07-10T12:21:02Z</time>
      </trkpt>
      <trkpt lat="43.37659" lon="2.22073">
        <ele>640.98999023</ele>
        <time>2022-07-10T12:21:03Z</time>
      </trkpt>
      <trkpt lat="43.37657" lon="2.22072">
        <ele>641.58996582</ele>
        <time>2022-07-10T12:21:04Z</time>
      </trkpt>
      <trkpt lat="43.37654" lon="2.22071">
        <ele>641.58996582</ele>
        <time>2022-07-10T12:21:05Z</time>
      </trkpt>
      <trkpt lat="43.37652" lon="2.22071">
        <ele>641.95996094</ele>
        <time>2022-07-10T12:21:06Z</time>
      </trkpt>
      <trkpt lat="43.3765" lon="2.2207">
        <ele>642.73999023</ele>
        <time>2022-07-10T12:21:07Z</time>
      </trkpt>
      <trkpt lat="43.37648" lon="2.22069">
        <ele>643.10998535</ele>
        <time>2022-07-10T12:21:08Z</time>
      </trkpt>
      <trkpt lat="43.37646" lon="2.22067">
        <ele>643.45001221</ele>
        <time>2022-07-10T12:21:09Z</time>
      </trkpt>
      <trkpt lat="43.37643" lon="2.22066">
        <ele>643.72003174</ele>
        <time>2022-07-10T12:21:10Z</time>
      </trkpt>
      <trkpt lat="43.3764" lon="2.22064">
        <ele>643.72003174</ele>
        <time>2022-07-10T12:21:11Z</time>
      </trkpt>
      <trkpt lat="43.37638" lon="2.22062">
        <ele>644.02001953</ele>
        <time>2022-07-10T12:21:12Z</time>
      </trkpt>
      <trkpt lat="43.37636" lon="2.22061">
        <ele>644.51000977</ele>
        <time>2022-07-10T12:21:13Z</time>
      </trkpt>
      <trkpt lat="43.37634" lon="2.22059">
        <ele>644.51000977</ele>
        <time>2022-07-10T12:21:14Z</time>
      </trkpt>
      <trkpt lat="43.37631" lon="2.22056">
        <ele>644.75</ele>
        <time>2022-07-10T12:21:15Z</time>
      </trkpt>
      <trkpt lat="43.37629" lon="2.22054">
        <ele>644.7199707</ele>
        <time>2022-07-10T12:21:16Z</time>
      </trkpt>
      <trkpt lat="43.37627" lon="2.22052">
        <ele>644.7199707</ele>
        <time>2022-07-10T12:21:17Z</time>
      </trkpt>
      <trkpt lat="43.37623" lon="2.22049">
        <ele>644.72998047</ele>
        <time>2022-07-10T12:21:18Z</time>
      </trkpt>
      <trkpt lat="43.37621" lon="2.22048">
        <ele>644.82000732</ele>
        <time>2022-07-10T12:21:19Z</time>
      </trkpt>
      <trkpt lat="43.37619" lon="2.22048">
        <ele>645.10003662</ele>
        <time>2022-07-10T12:21:20Z</time>
      </trkpt>
      <trkpt lat="43.37617" lon="2.22049">
        <ele>645.33001709</ele>
        <time>2022-07-10T12:21:21Z</time>
      </trkpt>
      <trkpt lat="43.37615" lon="2.22052">
        <ele>645.33001709</ele>
        <time>2022-07-10T12:21:22Z</time>
      </trkpt>
      <trkpt lat="43.37612" lon="2.22054">
        <ele>645.86999512</ele>
        <time>2022-07-10T12:21:23Z</time>
      </trkpt>
      <trkpt lat="43.3761" lon="2.22056">
        <ele>646.03997803</ele>
        <time>2022-07-10T12:21:24Z</time>
      </trkpt>
      <trkpt lat="43.37607" lon="2.22058">
        <ele>646.03997803</ele>
        <time>2022-07-10T12:21:25Z</time>
      </trkpt>
      <trkpt lat="43.37605" lon="2.2206">
        <ele>646.36999512</ele>
        <time>2022-07-10T12:21:26Z</time>
      </trkpt>
      <trkpt lat="43.37603" lon="2.22063">
        <ele>646.40002441</ele>
        <time>2022-07-10T12:21:27Z</time>
      </trkpt>
      <trkpt lat="43.376" lon="2.22067">
        <ele>646.40002441</ele>
        <time>2022-07-10T12:21:28Z</time>
      </trkpt>
      <trkpt lat="43.37598" lon="2.22069">
        <ele>646.55999756</ele>
        <time>2022-07-10T12:21:29Z</time>
      </trkpt>
      <trkpt lat="43.37595" lon="2.22071">
        <ele>646.55999756</ele>
        <time>2022-07-10T12:21:30Z</time>
      </trkpt>
      <trkpt lat="43.37593" lon="2.22073">
        <ele>646.54998779</ele>
        <time>2022-07-10T12:21:31Z</time>
      </trkpt>
      <trkpt lat="43.37588" lon="2.22073">
        <ele>646.42999268</ele>
        <time>2022-07-10T12:21:32Z</time>
      </trkpt>
      <trkpt lat="43.37583" lon="2.22074">
        <ele>646.27996826</ele>
        <time>2022-07-10T12:21:33Z</time>
      </trkpt>
      <trkpt lat="43.37579" lon="2.22075">
        <ele>646.27996826</ele>
        <time>2022-07-10T12:21:34Z</time>
      </trkpt>
      <trkpt lat="43.37576" lon="2.22075">
        <ele>646.03997803</ele>
        <time>2022-07-10T12:21:35Z</time>
      </trkpt>
      <trkpt lat="43.37571" lon="2.22077">
        <ele>645.64996338</ele>
        <time>2022-07-10T12:21:36Z</time>
      </trkpt>
      <trkpt lat="43.37567" lon="2.22076">
        <ele>645.54998779</ele>
        <time>2022-07-10T12:21:37Z</time>
      </trkpt>
      <trkpt lat="43.37562" lon="2.22077">
        <ele>645.23999023</ele>
        <time>2022-07-10T12:21:38Z</time>
      </trkpt>
      <trkpt lat="43.37558" lon="2.22077">
        <ele>645.16998291</ele>
        <time>2022-07-10T12:21:39Z</time>
      </trkpt>
      <trkpt lat="43.37553" lon="2.22078">
        <ele>645.16998291</ele>
        <time>2022-07-10T12:21:40Z</time>
      </trkpt>
      <trkpt lat="43.37544" lon="2.22077">
        <ele>644.88995361</ele>
        <time>2022-07-10T12:21:41Z</time>
      </trkpt>
      <trkpt lat="43.37539" lon="2.22077">
        <ele>644.81994629</ele>
        <time>2022-07-10T12:21:42Z</time>
      </trkpt>
      <trkpt lat="43.37535" lon="2.22077">
        <ele>644.35992432</ele>
        <time>2022-07-10T12:21:43Z</time>
      </trkpt>
      <trkpt lat="43.37531" lon="2.22077">
        <ele>644.03991699</ele>
        <time>2022-07-10T12:21:44Z</time>
      </trkpt>
      <trkpt lat="43.37528" lon="2.2208">
        <ele>643.7098999</ele>
        <time>2022-07-10T12:21:45Z</time>
      </trkpt>
      <trkpt lat="43.37524" lon="2.22083">
        <ele>643.36987305</ele>
        <time>2022-07-10T12:21:46Z</time>
      </trkpt>
      <trkpt lat="43.37523" lon="2.22085">
        <ele>643.23986816</ele>
        <time>2022-07-10T12:21:47Z</time>
      </trkpt>
      <trkpt lat="43.37521" lon="2.22087">
        <ele>643.23986816</ele>
        <time>2022-07-10T12:21:48Z</time>
      </trkpt>
      <trkpt lat="43.3752" lon="2.22088">
        <ele>643.08984375</ele>
        <time>2022-07-10T12:21:49Z</time>
      </trkpt>
      <trkpt lat="43.37519" lon="2.22088">
        <ele>643.15985107</ele>
        <time>2022-07-10T12:21:50Z</time>
      </trkpt>
      <trkpt lat="43.37518" lon="2.22087">
        <ele>643.1998291</ele>
        <time>2022-07-10T12:21:51Z</time>
      </trkpt>
      <trkpt lat="43.37512" lon="2.22089">
        <ele>643.24981689</ele>
        <time>2022-07-10T12:21:59Z</time>
      </trkpt>
      <trkpt lat="43.37511" lon="2.2209">
        <ele>643.24981689</ele>
        <time>2022-07-10T12:22:00Z</time>
      </trkpt>
      <trkpt lat="43.37509" lon="2.22092">
        <ele>643.2197876</ele>
        <time>2022-07-10T12:22:01Z</time>
      </trkpt>
      <trkpt lat="43.37508" lon="2.22094">
        <ele>643.22979736</ele>
        <time>2022-07-10T12:22:02Z</time>
      </trkpt>
      <trkpt lat="43.37507" lon="2.22097">
        <ele>643.22979736</ele>
        <time>2022-07-10T12:22:03Z</time>
      </trkpt>
      <trkpt lat="43.37506" lon="2.22101">
        <ele>643.32977295</ele>
        <time>2022-07-10T12:22:04Z</time>
      </trkpt>
      <trkpt lat="43.37505" lon="2.22105">
        <ele>643.50976562</ele>
        <time>2022-07-10T12:22:05Z</time>
      </trkpt>
      <trkpt lat="43.37503" lon="2.22108">
        <ele>643.57977295</ele>
        <time>2022-07-10T12:22:06Z</time>
      </trkpt>
      <trkpt lat="43.375" lon="2.22112">
        <ele>643.57977295</ele>
        <time>2022-07-10T12:22:07Z</time>
      </trkpt>
      <trkpt lat="43.37497" lon="2.22117">
        <ele>643.57977295</ele>
        <time>2022-07-10T12:22:08Z</time>
      </trkpt>
      <trkpt lat="43.37495" lon="2.22121">
        <ele>643.59979248</ele>
        <time>2022-07-10T12:22:09Z</time>
      </trkpt>
      <trkpt lat="43.37494" lon="2.22125">
        <ele>643.61981201</ele>
        <time>2022-07-10T12:22:10Z</time>
      </trkpt>
      <trkpt lat="43.37492" lon="2.2213">
        <ele>643.6998291</ele>
        <time>2022-07-10T12:22:11Z</time>
      </trkpt>
      <trkpt lat="43.3749" lon="2.22137">
        <ele>643.6998291</ele>
        <time>2022-07-10T12:22:12Z</time>
      </trkpt>
      <trkpt lat="43.37489" lon="2.22141">
        <ele>643.71984863</ele>
        <time>2022-07-10T12:22:13Z</time>
      </trkpt>
      <trkpt lat="43.37488" lon="2.22145">
        <ele>643.7298584</ele>
        <time>2022-07-10T12:22:14Z</time>
      </trkpt>
      <trkpt lat="43.37489" lon="2.2215">
        <ele>643.7298584</ele>
        <time>2022-07-10T12:22:15Z</time>
      </trkpt>
      <trkpt lat="43.37488" lon="2.22154">
        <ele>643.65985107</ele>
        <time>2022-07-10T12:22:16Z</time>
      </trkpt>
      <trkpt lat="43.37486" lon="2.2216">
        <ele>643.64984131</ele>
        <time>2022-07-10T12:22:17Z</time>
      </trkpt>
      <trkpt lat="43.37485" lon="2.22164">
        <ele>643.64984131</ele>
        <time>2022-07-10T12:22:18Z</time>
      </trkpt>
      <trkpt lat="43.37483" lon="2.22169">
        <ele>643.61981201</ele>
        <time>2022-07-10T12:22:19Z</time>
      </trkpt>
      <trkpt lat="43.37481" lon="2.22172">
        <ele>643.54980469</ele>
        <time>2022-07-10T12:22:20Z</time>
      </trkpt>
      <trkpt lat="43.37475" lon="2.22175">
        <ele>643.54980469</ele>
        <time>2022-07-10T12:22:21Z</time>
      </trkpt>
      <trkpt lat="43.37471" lon="2.22178">
        <ele>643.45977783</ele>
        <time>2022-07-10T12:22:22Z</time>
      </trkpt>
      <trkpt lat="43.37468" lon="2.2218">
        <ele>643.22979736</ele>
        <time>2022-07-10T12:22:23Z</time>
      </trkpt>
      <trkpt lat="43.37464" lon="2.22183">
        <ele>643.15979004</ele>
        <time>2022-07-10T12:22:24Z</time>
      </trkpt>
      <trkpt lat="43.37461" lon="2.22186">
        <ele>643.07977295</ele>
        <time>2022-07-10T12:22:25Z</time>
      </trkpt>
      <trkpt lat="43.37457" lon="2.22192">
        <ele>643.07977295</ele>
        <time>2022-07-10T12:22:26Z</time>
      </trkpt>
      <trkpt lat="43.37454" lon="2.22196">
        <ele>642.94976807</ele>
        <time>2022-07-10T12:22:27Z</time>
      </trkpt>
      <trkpt lat="43.37452" lon="2.22198">
        <ele>642.84979248</ele>
        <time>2022-07-10T12:22:28Z</time>
      </trkpt>
      <trkpt lat="43.37451" lon="2.22201">
        <ele>642.75976562</ele>
        <time>2022-07-10T12:22:29Z</time>
      </trkpt>
      <trkpt lat="43.37448" lon="2.22203">
        <ele>642.75976562</ele>
        <time>2022-07-10T12:22:30Z</time>
      </trkpt>
      <trkpt lat="43.37445" lon="2.22204">
        <ele>642.66973877</ele>
        <time>2022-07-10T12:22:31Z</time>
      </trkpt>
      <trkpt lat="43.37443" lon="2.22205">
        <ele>642.58972168</ele>
        <time>2022-07-10T12:22:32Z</time>
      </trkpt>
      <trkpt lat="43.3744" lon="2.22205">
        <ele>642.39971924</ele>
        <time>2022-07-10T12:22:33Z</time>
      </trkpt>
      <trkpt lat="43.37438" lon="2.22205">
        <ele>642.159729</ele>
        <time>2022-07-10T12:22:34Z</time>
      </trkpt>
      <trkpt lat="43.37434" lon="2.22205">
        <ele>642.00970459</ele>
        <time>2022-07-10T12:22:35Z</time>
      </trkpt>
      <trkpt lat="43.3743" lon="2.22204">
        <ele>641.82971191</ele>
        <time>2022-07-10T12:22:36Z</time>
      </trkpt>
      <trkpt lat="43.37427" lon="2.22203">
        <ele>641.68969727</ele>
        <time>2022-07-10T12:22:37Z</time>
      </trkpt>
      <trkpt lat="43.37423" lon="2.22202">
        <ele>641.33972168</ele>
        <time>2022-07-10T12:22:38Z</time>
      </trkpt>
      <trkpt lat="43.37419" lon="2.22201">
        <ele>641.33972168</ele>
        <time>2022-07-10T12:22:39Z</time>
      </trkpt>
      <trkpt lat="43.37415" lon="2.222">
        <ele>640.78973389</ele>
        <time>2022-07-10T12:22:40Z</time>
      </trkpt>
      <trkpt lat="43.37411" lon="2.222">
        <ele>640.51971436</ele>
        <time>2022-07-10T12:22:41Z</time>
      </trkpt>
      <trkpt lat="43.37408" lon="2.22199">
        <ele>640.25970459</ele>
        <time>2022-07-10T12:22:42Z</time>
      </trkpt>
      <trkpt lat="43.37405" lon="2.222">
        <ele>640.25970459</ele>
        <time>2022-07-10T12:22:43Z</time>
      </trkpt>
      <trkpt lat="43.37399" lon="2.22199">
        <ele>639.82971191</ele>
        <time>2022-07-10T12:22:44Z</time>
      </trkpt>
      <trkpt lat="43.37395" lon="2.22197">
        <ele>639.62969971</ele>
        <time>2022-07-10T12:22:45Z</time>
      </trkpt>
      <trkpt lat="43.37391" lon="2.22195">
        <ele>639.60968018</ele>
        <time>2022-07-10T12:22:46Z</time>
      </trkpt>
      <trkpt lat="43.37387" lon="2.22192">
        <ele>639.60968018</ele>
        <time>2022-07-10T12:22:47Z</time>
      </trkpt>
      <trkpt lat="43.37382" lon="2.22187">
        <ele>639.37969971</ele>
        <time>2022-07-10T12:22:48Z</time>
      </trkpt>
      <trkpt lat="43.37379" lon="2.22184">
        <ele>639.14971924</ele>
        <time>2022-07-10T12:22:49Z</time>
      </trkpt>
      <trkpt lat="43.37375" lon="2.22181">
        <ele>638.97973633</ele>
        <time>2022-07-10T12:22:50Z</time>
      </trkpt>
      <trkpt lat="43.37372" lon="2.22177">
        <ele>638.80975342</ele>
        <time>2022-07-10T12:22:51Z</time>
      </trkpt>
      <trkpt lat="43.37369" lon="2.22174">
        <ele>638.6897583</ele>
        <time>2022-07-10T12:22:52Z</time>
      </trkpt>
      <trkpt lat="43.37364" lon="2.22169">
        <ele>638.69976807</ele>
        <time>2022-07-10T12:22:53Z</time>
      </trkpt>
      <trkpt lat="43.37361" lon="2.22166">
        <ele>638.58978271</ele>
        <time>2022-07-10T12:22:54Z</time>
      </trkpt>
      <trkpt lat="43.37358" lon="2.22162">
        <ele>638.49975586</ele>
        <time>2022-07-10T12:22:55Z</time>
      </trkpt>
      <trkpt lat="43.37355" lon="2.22158">
        <ele>638.34973145</ele>
        <time>2022-07-10T12:22:56Z</time>
      </trkpt>
      <trkpt lat="43.37349" lon="2.22154">
        <ele>638.14971924</ele>
        <time>2022-07-10T12:22:57Z</time>
      </trkpt>
      <trkpt lat="43.37345" lon="2.22151">
        <ele>638.14971924</ele>
        <time>2022-07-10T12:22:58Z</time>
      </trkpt>
      <trkpt lat="43.3734" lon="2.22149">
        <ele>637.88970947</ele>
        <time>2022-07-10T12:22:59Z</time>
      </trkpt>
      <trkpt lat="43.37335" lon="2.22147">
        <ele>637.41973877</ele>
        <time>2022-07-10T12:23:00Z</time>
      </trkpt>
      <trkpt lat="43.37331" lon="2.22144">
        <ele>637.22973633</ele>
        <time>2022-07-10T12:23:01Z</time>
      </trkpt>
      <trkpt lat="43.37326" lon="2.22139">
        <ele>637.01971436</ele>
        <time>2022-07-10T12:23:02Z</time>
      </trkpt>
      <trkpt lat="43.37323" lon="2.22135">
        <ele>636.77972412</ele>
        <time>2022-07-10T12:23:03Z</time>
      </trkpt>
      <trkpt lat="43.3732" lon="2.22132">
        <ele>636.77972412</ele>
        <time>2022-07-10T12:23:04Z</time>
      </trkpt>
      <trkpt lat="43.37317" lon="2.22128">
        <ele>636.51971436</ele>
        <time>2022-07-10T12:23:05Z</time>
      </trkpt>
      <trkpt lat="43.37313" lon="2.22121">
        <ele>636.51971436</ele>
        <time>2022-07-10T12:23:06Z</time>
      </trkpt>
      <trkpt lat="43.37312" lon="2.22116">
        <ele>636.35974121</ele>
        <time>2022-07-10T12:23:07Z</time>
      </trkpt>
      <trkpt lat="43.37311" lon="2.22111">
        <ele>636.27972412</ele>
        <time>2022-07-10T12:23:08Z</time>
      </trkpt>
      <trkpt lat="43.37311" lon="2.22107">
        <ele>636.36975098</ele>
        <time>2022-07-10T12:23:09Z</time>
      </trkpt>
      <trkpt lat="43.3731" lon="2.22103">
        <ele>636.4397583</ele>
        <time>2022-07-10T12:23:10Z</time>
      </trkpt>
      <trkpt lat="43.37311" lon="2.22098">
        <ele>636.50976562</ele>
        <time>2022-07-10T12:23:11Z</time>
      </trkpt>
      <trkpt lat="43.37311" lon="2.22094">
        <ele>636.6897583</ele>
        <time>2022-07-10T12:23:12Z</time>
      </trkpt>
      <trkpt lat="43.37311" lon="2.2209">
        <ele>636.66973877</ele>
        <time>2022-07-10T12:23:13Z</time>
      </trkpt>
      <trkpt lat="43.3731" lon="2.22087">
        <ele>636.66973877</ele>
        <time>2022-07-10T12:23:14Z</time>
      </trkpt>
      <trkpt lat="43.37309" lon="2.22086">
        <ele>636.75976562</ele>
        <time>2022-07-10T12:23:15Z</time>
      </trkpt>
      <trkpt lat="43.37306" lon="2.22082">
        <ele>636.75976562</ele>
        <time>2022-07-10T12:23:16Z</time>
      </trkpt>
      <trkpt lat="43.37303" lon="2.22079">
        <ele>636.61975098</ele>
        <time>2022-07-10T12:23:17Z</time>
      </trkpt>
      <trkpt lat="43.373" lon="2.22077">
        <ele>636.61975098</ele>
        <time>2022-07-10T12:23:18Z</time>
      </trkpt>
      <trkpt lat="43.37296" lon="2.22074">
        <ele>636.28973389</ele>
        <time>2022-07-10T12:23:19Z</time>
      </trkpt>
      <trkpt lat="43.3729" lon="2.22069">
        <ele>636.09973145</ele>
        <time>2022-07-10T12:23:20Z</time>
      </trkpt>
      <trkpt lat="43.37286" lon="2.22066">
        <ele>636.09973145</ele>
        <time>2022-07-10T12:23:21Z</time>
      </trkpt>
      <trkpt lat="43.37281" lon="2.22064">
        <ele>635.84973145</ele>
        <time>2022-07-10T12:23:22Z</time>
      </trkpt>
      <trkpt lat="43.37277" lon="2.22062">
        <ele>635.12976074</ele>
        <time>2022-07-10T12:23:23Z</time>
      </trkpt>
      <trkpt lat="43.3727" lon="2.22059">
        <ele>634.88977051</ele>
        <time>2022-07-10T12:23:24Z</time>
      </trkpt>
      <trkpt lat="43.37265" lon="2.22057">
        <ele>634.6897583</ele>
        <time>2022-07-10T12:23:25Z</time>
      </trkpt>
      <trkpt lat="43.37261" lon="2.22054">
        <ele>634.659729</ele>
        <time>2022-07-10T12:23:26Z</time>
      </trkpt>
      <trkpt lat="43.37256" lon="2.22052">
        <ele>634.37969971</ele>
        <time>2022-07-10T12:23:27Z</time>
      </trkpt>
      <trkpt lat="43.37251" lon="2.2205">
        <ele>634.37969971</ele>
        <time>2022-07-10T12:23:28Z</time>
      </trkpt>
      <trkpt lat="43.37243" lon="2.22047">
        <ele>633.74969482</ele>
        <time>2022-07-10T12:23:29Z</time>
      </trkpt>
      <trkpt lat="43.37238" lon="2.22044">
        <ele>633.50970459</ele>
        <time>2022-07-10T12:23:30Z</time>
      </trkpt>
      <trkpt lat="43.37234" lon="2.22041">
        <ele>633.34973145</ele>
        <time>2022-07-10T12:23:31Z</time>
      </trkpt>
      <trkpt lat="43.37229" lon="2.22039">
        <ele>633.23974609</ele>
        <time>2022-07-10T12:23:32Z</time>
      </trkpt>
      <trkpt lat="43.37221" lon="2.22035">
        <ele>633.05975342</ele>
        <time>2022-07-10T12:23:33Z</time>
      </trkpt>
      <trkpt lat="43.37216" lon="2.22033">
        <ele>632.659729</ele>
        <time>2022-07-10T12:23:34Z</time>
      </trkpt>
      <trkpt lat="43.37212" lon="2.2203">
        <ele>632.38970947</ele>
        <time>2022-07-10T12:23:35Z</time>
      </trkpt>
      <trkpt lat="43.37207" lon="2.22027">
        <ele>632.38970947</ele>
        <time>2022-07-10T12:23:36Z</time>
      </trkpt>
      <trkpt lat="43.37203" lon="2.22025">
        <ele>631.97973633</ele>
        <time>2022-07-10T12:23:37Z</time>
      </trkpt>
      <trkpt lat="43.37196" lon="2.2202">
        <ele>632.03973389</ele>
        <time>2022-07-10T12:23:38Z</time>
      </trkpt>
      <trkpt lat="43.37192" lon="2.22017">
        <ele>632.03973389</ele>
        <time>2022-07-10T12:23:39Z</time>
      </trkpt>
      <trkpt lat="43.37188" lon="2.22014">
        <ele>631.80975342</ele>
        <time>2022-07-10T12:23:40Z</time>
      </trkpt>
      <trkpt lat="43.37184" lon="2.22011">
        <ele>631.78973389</ele>
        <time>2022-07-10T12:23:41Z</time>
      </trkpt>
      <trkpt lat="43.37179" lon="2.22008">
        <ele>631.60974121</ele>
        <time>2022-07-10T12:23:42Z</time>
      </trkpt>
      <trkpt lat="43.37175" lon="2.22005">
        <ele>631.37976074</ele>
        <time>2022-07-10T12:23:43Z</time>
      </trkpt>
      <trkpt lat="43.37171" lon="2.22002">
        <ele>631.26977539</ele>
        <time>2022-07-10T12:23:44Z</time>
      </trkpt>
      <trkpt lat="43.37167" lon="2.21999">
        <ele>631.26977539</ele>
        <time>2022-07-10T12:23:45Z</time>
      </trkpt>
      <trkpt lat="43.37163" lon="2.21996">
        <ele>631.10980225</ele>
        <time>2022-07-10T12:23:46Z</time>
      </trkpt>
      <trkpt lat="43.37157" lon="2.21992">
        <ele>630.99981689</ele>
        <time>2022-07-10T12:23:47Z</time>
      </trkpt>
      <trkpt lat="43.37154" lon="2.2199">
        <ele>630.93981934</ele>
        <time>2022-07-10T12:23:48Z</time>
      </trkpt>
      <trkpt lat="43.37149" lon="2.21988">
        <ele>630.95983887</ele>
        <time>2022-07-10T12:23:49Z</time>
      </trkpt>
      <trkpt lat="43.37145" lon="2.21984">
        <ele>630.95983887</ele>
        <time>2022-07-10T12:23:50Z</time>
      </trkpt>
      <trkpt lat="43.37139" lon="2.21977">
        <ele>630.4798584</ele>
        <time>2022-07-10T12:23:51Z</time>
      </trkpt>
      <trkpt lat="43.37135" lon="2.21973">
        <ele>629.99987793</ele>
        <time>2022-07-10T12:23:52Z</time>
      </trkpt>
      <trkpt lat="43.37132" lon="2.2197">
        <ele>629.48986816</ele>
        <time>2022-07-10T12:23:53Z</time>
      </trkpt>
      <trkpt lat="43.37127" lon="2.21967">
        <ele>629.24987793</ele>
        <time>2022-07-10T12:23:54Z</time>
      </trkpt>
      <trkpt lat="43.37123" lon="2.21964">
        <ele>628.94989014</ele>
        <time>2022-07-10T12:23:55Z</time>
      </trkpt>
      <trkpt lat="43.37117" lon="2.21958">
        <ele>628.94989014</ele>
        <time>2022-07-10T12:23:56Z</time>
      </trkpt>
      <trkpt lat="43.37112" lon="2.21955">
        <ele>628.17987061</ele>
        <time>2022-07-10T12:23:57Z</time>
      </trkpt>
      <trkpt lat="43.37108" lon="2.21953">
        <ele>627.92987061</ele>
        <time>2022-07-10T12:23:58Z</time>
      </trkpt>
      <trkpt lat="43.37103" lon="2.2195">
        <ele>627.92987061</ele>
        <time>2022-07-10T12:23:59Z</time>
      </trkpt>
      <trkpt lat="43.37096" lon="2.21948">
        <ele>627.61987305</ele>
        <time>2022-07-10T12:24:00Z</time>
      </trkpt>
      <trkpt lat="43.37092" lon="2.21948">
        <ele>627.42987061</ele>
        <time>2022-07-10T12:24:01Z</time>
      </trkpt>
      <trkpt lat="43.37087" lon="2.21946">
        <ele>626.71984863</ele>
        <time>2022-07-10T12:24:02Z</time>
      </trkpt>
      <trkpt lat="43.37082" lon="2.21945">
        <ele>625.9498291</ele>
        <time>2022-07-10T12:24:03Z</time>
      </trkpt>
      <trkpt lat="43.37077" lon="2.21946">
        <ele>625.49981689</ele>
        <time>2022-07-10T12:24:04Z</time>
      </trkpt>
      <trkpt lat="43.37069" lon="2.21947">
        <ele>625.49981689</ele>
        <time>2022-07-10T12:24:05Z</time>
      </trkpt>
      <trkpt lat="43.37063" lon="2.21947">
        <ele>624.77984619</ele>
        <time>2022-07-10T12:24:06Z</time>
      </trkpt>
      <trkpt lat="43.37058" lon="2.21948">
        <ele>623.56982422</ele>
        <time>2022-07-10T12:24:07Z</time>
      </trkpt>
      <trkpt lat="43.37053" lon="2.21949">
        <ele>622.88983154</ele>
        <time>2022-07-10T12:24:08Z</time>
      </trkpt>
      <trkpt lat="43.37046" lon="2.21952">
        <ele>622.88983154</ele>
        <time>2022-07-10T12:24:09Z</time>
      </trkpt>
      <trkpt lat="43.3704" lon="2.21955">
        <ele>621.89984131</ele>
        <time>2022-07-10T12:24:10Z</time>
      </trkpt>
      <trkpt lat="43.37035" lon="2.21959">
        <ele>621.41986084</ele>
        <time>2022-07-10T12:24:11Z</time>
      </trkpt>
      <trkpt lat="43.3703" lon="2.21962">
        <ele>621.41986084</ele>
        <time>2022-07-10T12:24:12Z</time>
      </trkpt>
      <trkpt lat="43.37024" lon="2.21967">
        <ele>620.04986572</ele>
        <time>2022-07-10T12:24:13Z</time>
      </trkpt>
      <trkpt lat="43.37017" lon="2.21973">
        <ele>619.65985107</ele>
        <time>2022-07-10T12:24:14Z</time>
      </trkpt>
      <trkpt lat="43.37012" lon="2.21975">
        <ele>619.09985352</ele>
        <time>2022-07-10T12:24:15Z</time>
      </trkpt>
      <trkpt lat="43.37009" lon="2.21978">
        <ele>618.61987305</ele>
        <time>2022-07-10T12:24:16Z</time>
      </trkpt>
      <trkpt lat="43.37006" lon="2.21982">
        <ele>618.37988281</ele>
        <time>2022-07-10T12:24:17Z</time>
      </trkpt>
      <trkpt lat="43.37001" lon="2.21988">
        <ele>617.90991211</ele>
        <time>2022-07-10T12:24:18Z</time>
      </trkpt>
      <trkpt lat="43.36997" lon="2.21991">
        <ele>617.56988525</ele>
        <time>2022-07-10T12:24:19Z</time>
      </trkpt>
      <trkpt lat="43.36993" lon="2.21994">
        <ele>617.11987305</ele>
        <time>2022-07-10T12:24:20Z</time>
      </trkpt>
      <trkpt lat="43.36989" lon="2.21996">
        <ele>616.78985596</ele>
        <time>2022-07-10T12:24:21Z</time>
      </trkpt>
      <trkpt lat="43.36985" lon="2.21998">
        <ele>616.32983398</ele>
        <time>2022-07-10T12:24:22Z</time>
      </trkpt>
      <trkpt lat="43.36978" lon="2.22003">
        <ele>615.64984131</ele>
        <time>2022-07-10T12:24:23Z</time>
      </trkpt>
      <trkpt lat="43.36975" lon="2.22005">
        <ele>615.64984131</ele>
        <time>2022-07-10T12:24:24Z</time>
      </trkpt>
      <trkpt lat="43.36972" lon="2.22006">
        <ele>614.66986084</ele>
        <time>2022-07-10T12:24:25Z</time>
      </trkpt>
      <trkpt lat="43.36969" lon="2.22008">
        <ele>614.31988525</ele>
        <time>2022-07-10T12:24:26Z</time>
      </trkpt>
      <trkpt lat="43.36963" lon="2.2201">
        <ele>613.87988281</ele>
        <time>2022-07-10T12:24:27Z</time>
      </trkpt>
      <trkpt lat="43.36959" lon="2.22012">
        <ele>613.63989258</ele>
        <time>2022-07-10T12:24:28Z</time>
      </trkpt>
      <trkpt lat="43.36955" lon="2.22014">
        <ele>613.63989258</ele>
        <time>2022-07-10T12:24:29Z</time>
      </trkpt>
      <trkpt lat="43.36951" lon="2.22016">
        <ele>612.38989258</ele>
        <time>2022-07-10T12:24:30Z</time>
      </trkpt>
      <trkpt lat="43.36948" lon="2.22017">
        <ele>612.22991943</ele>
        <time>2022-07-10T12:24:31Z</time>
      </trkpt>
      <trkpt lat="43.36943" lon="2.22018">
        <ele>611.56994629</ele>
        <time>2022-07-10T12:24:32Z</time>
      </trkpt>
      <trkpt lat="43.3694" lon="2.2202">
        <ele>611.56994629</ele>
        <time>2022-07-10T12:24:33Z</time>
      </trkpt>
      <trkpt lat="43.36937" lon="2.22022">
        <ele>611.15997314</ele>
        <time>2022-07-10T12:24:34Z</time>
      </trkpt>
      <trkpt lat="43.36934" lon="2.22023">
        <ele>610.16998291</ele>
        <time>2022-07-10T12:24:35Z</time>
      </trkpt>
      <trkpt lat="43.36928" lon="2.22025">
        <ele>610.16998291</ele>
        <time>2022-07-10T12:24:36Z</time>
      </trkpt>
      <trkpt lat="43.36923" lon="2.22027">
        <ele>609.86999512</ele>
        <time>2022-07-10T12:24:37Z</time>
      </trkpt>
      <trkpt lat="43.36919" lon="2.22028">
        <ele>609.44000244</ele>
        <time>2022-07-10T12:24:38Z</time>
      </trkpt>
      <trkpt lat="43.36916" lon="2.22027">
        <ele>609.23999023</ele>
        <time>2022-07-10T12:24:39Z</time>
      </trkpt>
      <trkpt lat="43.36912" lon="2.22028">
        <ele>608.57000732</ele>
        <time>2022-07-10T12:24:40Z</time>
      </trkpt>
      <trkpt lat="43.36905" lon="2.2203">
        <ele>608.57000732</ele>
        <time>2022-07-10T12:24:41Z</time>
      </trkpt>
      <trkpt lat="43.36902" lon="2.2203">
        <ele>608.35998535</ele>
        <time>2022-07-10T12:24:42Z</time>
      </trkpt>
      <trkpt lat="43.36897" lon="2.22032">
        <ele>607.40997314</ele>
        <time>2022-07-10T12:24:43Z</time>
      </trkpt>
      <trkpt lat="43.36891" lon="2.22035">
        <ele>607.40997314</ele>
        <time>2022-07-10T12:24:44Z</time>
      </trkpt>
      <trkpt lat="43.36881" lon="2.2204">
        <ele>606.84997559</ele>
        <time>2022-07-10T12:24:45Z</time>
      </trkpt>
      <trkpt lat="43.36875" lon="2.22043">
        <ele>606.84997559</ele>
        <time>2022-07-10T12:24:46Z</time>
      </trkpt>
      <trkpt lat="43.36868" lon="2.22047">
        <ele>606.25</ele>
        <time>2022-07-10T12:24:47Z</time>
      </trkpt>
      <trkpt lat="43.36861" lon="2.22052">
        <ele>605.54998779</ele>
        <time>2022-07-10T12:24:48Z</time>
      </trkpt>
      <trkpt lat="43.36855" lon="2.22055">
        <ele>604.79998779</ele>
        <time>2022-07-10T12:24:49Z</time>
      </trkpt>
      <trkpt lat="43.36848" lon="2.22058">
        <ele>604.40997314</ele>
        <time>2022-07-10T12:24:50Z</time>
      </trkpt>
      <trkpt lat="43.36843" lon="2.22059">
        <ele>604.25</ele>
        <time>2022-07-10T12:24:51Z</time>
      </trkpt>
      <trkpt lat="43.36838" lon="2.2206">
        <ele>603.64001465</ele>
        <time>2022-07-10T12:24:52Z</time>
      </trkpt>
      <trkpt lat="43.36832" lon="2.22062">
        <ele>603.64001465</ele>
        <time>2022-07-10T12:24:53Z</time>
      </trkpt>
      <trkpt lat="43.36823" lon="2.22064">
        <ele>602.9800415</ele>
        <time>2022-07-10T12:24:54Z</time>
      </trkpt>
      <trkpt lat="43.36817" lon="2.22063">
        <ele>602.7300415</ele>
        <time>2022-07-10T12:24:55Z</time>
      </trkpt>
      <trkpt lat="43.36811" lon="2.22064">
        <ele>602.32006836</ele>
        <time>2022-07-10T12:24:56Z</time>
      </trkpt>
      <trkpt lat="43.36805" lon="2.22064">
        <ele>602.37005615</ele>
        <time>2022-07-10T12:24:57Z</time>
      </trkpt>
      <trkpt lat="43.36799" lon="2.22063">
        <ele>602.37005615</ele>
        <time>2022-07-10T12:24:58Z</time>
      </trkpt>
      <trkpt lat="43.36788" lon="2.22063">
        <ele>601.44006348</ele>
        <time>2022-07-10T12:24:59Z</time>
      </trkpt>
      <trkpt lat="43.36781" lon="2.22062">
        <ele>600.72009277</ele>
        <time>2022-07-10T12:25:00Z</time>
      </trkpt>
      <trkpt lat="43.36774" lon="2.22061">
        <ele>599.71008301</ele>
        <time>2022-07-10T12:25:01Z</time>
      </trkpt>
      <trkpt lat="43.36767" lon="2.22061">
        <ele>599.71008301</ele>
        <time>2022-07-10T12:25:02Z</time>
      </trkpt>
      <trkpt lat="43.36756" lon="2.22059">
        <ele>598.56005859</ele>
        <time>2022-07-10T12:25:03Z</time>
      </trkpt>
      <trkpt lat="43.36749" lon="2.22059">
        <ele>598.56005859</ele>
        <time>2022-07-10T12:25:04Z</time>
      </trkpt>
      <trkpt lat="43.36742" lon="2.22057">
        <ele>598.02008057</ele>
        <time>2022-07-10T12:25:05Z</time>
      </trkpt>
      <trkpt lat="43.36735" lon="2.22056">
        <ele>597.13006592</ele>
        <time>2022-07-10T12:25:06Z</time>
      </trkpt>
      <trkpt lat="43.36729" lon="2.22054">
        <ele>597.13006592</ele>
        <time>2022-07-10T12:25:07Z</time>
      </trkpt>
      <trkpt lat="43.36719" lon="2.22053">
        <ele>596.41009521</ele>
        <time>2022-07-10T12:25:08Z</time>
      </trkpt>
      <trkpt lat="43.36712" lon="2.22051">
        <ele>595.65008545</ele>
        <time>2022-07-10T12:25:09Z</time>
      </trkpt>
      <trkpt lat="43.36706" lon="2.22049">
        <ele>594.7600708</ele>
        <time>2022-07-10T12:25:10Z</time>
      </trkpt>
      <trkpt lat="43.367" lon="2.22049">
        <ele>593.97009277</ele>
        <time>2022-07-10T12:25:11Z</time>
      </trkpt>
      <trkpt lat="43.36694" lon="2.22048">
        <ele>593.2401123</ele>
        <time>2022-07-10T12:25:12Z</time>
      </trkpt>
      <trkpt lat="43.36685" lon="2.22047">
        <ele>592.75012207</ele>
        <time>2022-07-10T12:25:13Z</time>
      </trkpt>
      <trkpt lat="43.36679" lon="2.22047">
        <ele>592.21014404</ele>
        <time>2022-07-10T12:25:14Z</time>
      </trkpt>
      <trkpt lat="43.36673" lon="2.22047">
        <ele>591.63012695</ele>
        <time>2022-07-10T12:25:15Z</time>
      </trkpt>
      <trkpt lat="43.36668" lon="2.22046">
        <ele>591.63012695</ele>
        <time>2022-07-10T12:25:16Z</time>
      </trkpt>
      <trkpt lat="43.3666" lon="2.22045">
        <ele>591.05010986</ele>
        <time>2022-07-10T12:25:17Z</time>
      </trkpt>
      <trkpt lat="43.36656" lon="2.22045">
        <ele>589.59008789</ele>
        <time>2022-07-10T12:25:18Z</time>
      </trkpt>
      <trkpt lat="43.36653" lon="2.22044">
        <ele>588.94006348</ele>
        <time>2022-07-10T12:25:19Z</time>
      </trkpt>
      <trkpt lat="43.36649" lon="2.22043">
        <ele>588.20007324</ele>
        <time>2022-07-10T12:25:20Z</time>
      </trkpt>
      <trkpt lat="43.36643" lon="2.22041">
        <ele>588.20007324</ele>
        <time>2022-07-10T12:25:21Z</time>
      </trkpt>
      <trkpt lat="43.36639" lon="2.22039">
        <ele>587.16009521</ele>
        <time>2022-07-10T12:25:22Z</time>
      </trkpt>
      <trkpt lat="43.36635" lon="2.22036">
        <ele>586.46008301</ele>
        <time>2022-07-10T12:25:23Z</time>
      </trkpt>
      <trkpt lat="43.36628" lon="2.22034">
        <ele>586.46008301</ele>
        <time>2022-07-10T12:25:24Z</time>
      </trkpt>
      <trkpt lat="43.36621" lon="2.22033">
        <ele>584.94006348</ele>
        <time>2022-07-10T12:25:25Z</time>
      </trkpt>
      <trkpt lat="43.36611" lon="2.2203">
        <ele>584.08007812</ele>
        <time>2022-07-10T12:25:26Z</time>
      </trkpt>
      <trkpt lat="43.36605" lon="2.22028">
        <ele>584.08007812</ele>
        <time>2022-07-10T12:25:27Z</time>
      </trkpt>
      <trkpt lat="43.366" lon="2.22026">
        <ele>583.35009766</ele>
        <time>2022-07-10T12:25:28Z</time>
      </trkpt>
      <trkpt lat="43.36594" lon="2.22024">
        <ele>583.35009766</ele>
        <time>2022-07-10T12:25:29Z</time>
      </trkpt>
      <trkpt lat="43.36586" lon="2.22022">
        <ele>583.11010742</ele>
        <time>2022-07-10T12:25:30Z</time>
      </trkpt>
      <trkpt lat="43.36581" lon="2.2202">
        <ele>582.50012207</ele>
        <time>2022-07-10T12:25:31Z</time>
      </trkpt>
      <trkpt lat="43.36578" lon="2.22019">
        <ele>582.10009766</ele>
        <time>2022-07-10T12:25:32Z</time>
      </trkpt>
      <trkpt lat="43.36575" lon="2.22018">
        <ele>582.08007812</ele>
        <time>2022-07-10T12:25:33Z</time>
      </trkpt>
      <trkpt lat="43.36572" lon="2.22018">
        <ele>582.17010498</ele>
        <time>2022-07-10T12:25:34Z</time>
      </trkpt>
      <trkpt lat="43.36568" lon="2.22017">
        <ele>582.2901001</ele>
        <time>2022-07-10T12:25:35Z</time>
      </trkpt>
      <trkpt lat="43.36565" lon="2.22017">
        <ele>582.62011719</ele>
        <time>2022-07-10T12:25:36Z</time>
      </trkpt>
      <trkpt lat="43.36561" lon="2.22016">
        <ele>582.62011719</ele>
        <time>2022-07-10T12:25:37Z</time>
      </trkpt>
      <trkpt lat="43.36556" lon="2.22016">
        <ele>582.68011475</ele>
        <time>2022-07-10T12:25:38Z</time>
      </trkpt>
      <trkpt lat="43.3655" lon="2.22014">
        <ele>582.83013916</ele>
        <time>2022-07-10T12:25:39Z</time>
      </trkpt>
      <trkpt lat="43.36546" lon="2.22013">
        <ele>582.81011963</ele>
        <time>2022-07-10T12:25:40Z</time>
      </trkpt>
      <trkpt lat="43.36543" lon="2.22012">
        <ele>582.73010254</ele>
        <time>2022-07-10T12:25:41Z</time>
      </trkpt>
      <trkpt lat="43.3654" lon="2.22011">
        <ele>582.58007812</ele>
        <time>2022-07-10T12:25:42Z</time>
      </trkpt>
      <trkpt lat="43.36535" lon="2.2201">
        <ele>582.58007812</ele>
        <time>2022-07-10T12:25:43Z</time>
      </trkpt>
      <trkpt lat="43.3653" lon="2.22009">
        <ele>582.25006104</ele>
        <time>2022-07-10T12:25:44Z</time>
      </trkpt>
      <trkpt lat="43.36527" lon="2.22007">
        <ele>582.14007568</ele>
        <time>2022-07-10T12:25:45Z</time>
      </trkpt>
      <trkpt lat="43.36524" lon="2.22006">
        <ele>582.16009521</ele>
        <time>2022-07-10T12:25:46Z</time>
      </trkpt>
      <trkpt lat="43.36521" lon="2.22004">
        <ele>582.22009277</ele>
        <time>2022-07-10T12:25:47Z</time>
      </trkpt>
      <trkpt lat="43.36514" lon="2.22003">
        <ele>582.22009277</ele>
        <time>2022-07-10T12:25:48Z</time>
      </trkpt>
      <trkpt lat="43.36509" lon="2.22001">
        <ele>582.13006592</ele>
        <time>2022-07-10T12:25:49Z</time>
      </trkpt>
      <trkpt lat="43.36504" lon="2.21999">
        <ele>581.77008057</ele>
        <time>2022-07-10T12:25:50Z</time>
      </trkpt>
      <trkpt lat="43.36499" lon="2.21998">
        <ele>581.48010254</ele>
        <time>2022-07-10T12:25:51Z</time>
      </trkpt>
      <trkpt lat="43.36494" lon="2.21996">
        <ele>581.48010254</ele>
        <time>2022-07-10T12:25:52Z</time>
      </trkpt>
      <trkpt lat="43.36486" lon="2.21994">
        <ele>580.95007324</ele>
        <time>2022-07-10T12:25:53Z</time>
      </trkpt>
      <trkpt lat="43.36482" lon="2.21993">
        <ele>580.85009766</ele>
        <time>2022-07-10T12:25:54Z</time>
      </trkpt>
      <trkpt lat="43.36478" lon="2.21991">
        <ele>580.58007812</ele>
        <time>2022-07-10T12:25:55Z</time>
      </trkpt>
      <trkpt lat="43.36475" lon="2.21989">
        <ele>580.2901001</ele>
        <time>2022-07-10T12:25:56Z</time>
      </trkpt>
      <trkpt lat="43.36471" lon="2.21988">
        <ele>580.2901001</ele>
        <time>2022-07-10T12:25:57Z</time>
      </trkpt>
      <trkpt lat="43.36466" lon="2.21986">
        <ele>580.06011963</ele>
        <time>2022-07-10T12:25:58Z</time>
      </trkpt>
      <trkpt lat="43.36463" lon="2.21984">
        <ele>579.53009033</ele>
        <time>2022-07-10T12:25:59Z</time>
      </trkpt>
      <trkpt lat="43.36461" lon="2.21982">
        <ele>579.13006592</ele>
        <time>2022-07-10T12:26:00Z</time>
      </trkpt>
      <trkpt lat="43.36458" lon="2.2198">
        <ele>578.94006348</ele>
        <time>2022-07-10T12:26:01Z</time>
      </trkpt>
      <trkpt lat="43.36454" lon="2.21977">
        <ele>578.60003662</ele>
        <time>2022-07-10T12:26:02Z</time>
      </trkpt>
      <trkpt lat="43.36452" lon="2.21976">
        <ele>578.29003906</ele>
        <time>2022-07-10T12:26:03Z</time>
      </trkpt>
      <trkpt lat="43.36449" lon="2.21975">
        <ele>577.86004639</ele>
        <time>2022-07-10T12:26:04Z</time>
      </trkpt>
      <trkpt lat="43.36445" lon="2.21973">
        <ele>577.86004639</ele>
        <time>2022-07-10T12:26:05Z</time>
      </trkpt>
      <trkpt lat="43.3644" lon="2.21969">
        <ele>576.56005859</ele>
        <time>2022-07-10T12:26:06Z</time>
      </trkpt>
      <trkpt lat="43.36436" lon="2.21967">
        <ele>576.56005859</ele>
        <time>2022-07-10T12:26:07Z</time>
      </trkpt>
      <trkpt lat="43.36431" lon="2.21964">
        <ele>575.99005127</ele>
        <time>2022-07-10T12:26:08Z</time>
      </trkpt>
      <trkpt lat="43.36428" lon="2.21963">
        <ele>574.9800415</ele>
        <time>2022-07-10T12:26:09Z</time>
      </trkpt>
      <trkpt lat="43.36425" lon="2.21961">
        <ele>574.58001709</ele>
        <time>2022-07-10T12:26:10Z</time>
      </trkpt>
      <trkpt lat="43.36421" lon="2.2196">
        <ele>574.11999512</ele>
        <time>2022-07-10T12:26:11Z</time>
      </trkpt>
      <trkpt lat="43.36417" lon="2.2196">
        <ele>574.11999512</ele>
        <time>2022-07-10T12:26:12Z</time>
      </trkpt>
      <trkpt lat="43.36414" lon="2.21958">
        <ele>573.65002441</ele>
        <time>2022-07-10T12:26:13Z</time>
      </trkpt>
      <trkpt lat="43.3641" lon="2.21957">
        <ele>573.65002441</ele>
        <time>2022-07-10T12:26:14Z</time>
      </trkpt>
      <trkpt lat="43.36405" lon="2.21955">
        <ele>572.68005371</ele>
        <time>2022-07-10T12:26:15Z</time>
      </trkpt>
      <trkpt lat="43.36402" lon="2.21954">
        <ele>572.68005371</ele>
        <time>2022-07-10T12:26:16Z</time>
      </trkpt>
      <trkpt lat="43.36399" lon="2.21953">
        <ele>571.69006348</ele>
        <time>2022-07-10T12:26:17Z</time>
      </trkpt>
      <trkpt lat="43.36395" lon="2.21952">
        <ele>571.54003906</ele>
        <time>2022-07-10T12:26:18Z</time>
      </trkpt>
      <trkpt lat="43.36389" lon="2.2195">
        <ele>571.54003906</ele>
        <time>2022-07-10T12:26:19Z</time>
      </trkpt>
      <trkpt lat="43.36385" lon="2.21949">
        <ele>571.35003662</ele>
        <time>2022-07-10T12:26:20Z</time>
      </trkpt>
      <trkpt lat="43.36381" lon="2.21947">
        <ele>571.06005859</ele>
        <time>2022-07-10T12:26:21Z</time>
      </trkpt>
      <trkpt lat="43.36377" lon="2.21946">
        <ele>570.96008301</ele>
        <time>2022-07-10T12:26:22Z</time>
      </trkpt>
      <trkpt lat="43.36375" lon="2.21945">
        <ele>570.91009521</ele>
        <time>2022-07-10T12:26:23Z</time>
      </trkpt>
      <trkpt lat="43.36373" lon="2.21944">
        <ele>570.91009521</ele>
        <time>2022-07-10T12:26:24Z</time>
      </trkpt>
      <trkpt lat="43.36369" lon="2.21942">
        <ele>570.91009521</ele>
        <time>2022-07-10T12:26:25Z</time>
      </trkpt>
      <trkpt lat="43.36365" lon="2.21944">
        <ele>570.72009277</ele>
        <time>2022-07-10T12:26:26Z</time>
      </trkpt>
      <trkpt lat="43.36361" lon="2.21946">
        <ele>570.55010986</ele>
        <time>2022-07-10T12:26:27Z</time>
      </trkpt>
      <trkpt lat="43.36357" lon="2.2195">
        <ele>569.9901123</ele>
        <time>2022-07-10T12:26:28Z</time>
      </trkpt>
      <trkpt lat="43.36352" lon="2.21957">
        <ele>569.9901123</ele>
        <time>2022-07-10T12:26:29Z</time>
      </trkpt>
      <trkpt lat="43.36349" lon="2.21963">
        <ele>569.57012939</ele>
        <time>2022-07-10T12:26:30Z</time>
      </trkpt>
      <trkpt lat="43.36345" lon="2.2197">
        <ele>568.43011475</ele>
        <time>2022-07-10T12:26:31Z</time>
      </trkpt>
      <trkpt lat="43.36343" lon="2.21977">
        <ele>568.43011475</ele>
        <time>2022-07-10T12:26:32Z</time>
      </trkpt>
      <trkpt lat="43.3634" lon="2.21984">
        <ele>567.37011719</ele>
        <time>2022-07-10T12:26:33Z</time>
      </trkpt>
      <trkpt lat="43.36336" lon="2.21996">
        <ele>567.37011719</ele>
        <time>2022-07-10T12:26:34Z</time>
      </trkpt>
      <trkpt lat="43.36333" lon="2.22005">
        <ele>566.16009521</ele>
        <time>2022-07-10T12:26:35Z</time>
      </trkpt>
      <trkpt lat="43.3633" lon="2.22013">
        <ele>566.16009521</ele>
        <time>2022-07-10T12:26:36Z</time>
      </trkpt>
      <trkpt lat="43.36326" lon="2.22027">
        <ele>564.58007812</ele>
        <time>2022-07-10T12:26:37Z</time>
      </trkpt>
      <trkpt lat="43.36323" lon="2.22037">
        <ele>563.73010254</ele>
        <time>2022-07-10T12:26:38Z</time>
      </trkpt>
      <trkpt lat="43.3632" lon="2.22048">
        <ele>563.73010254</ele>
        <time>2022-07-10T12:26:39Z</time>
      </trkpt>
      <trkpt lat="43.36318" lon="2.22059">
        <ele>561.97009277</ele>
        <time>2022-07-10T12:26:40Z</time>
      </trkpt>
      <trkpt lat="43.36315" lon="2.2207">
        <ele>560.96008301</ele>
        <time>2022-07-10T12:26:41Z</time>
      </trkpt>
      <trkpt lat="43.3631" lon="2.22087">
        <ele>559.9901123</ele>
        <time>2022-07-10T12:26:42Z</time>
      </trkpt>
      <trkpt lat="43.36308" lon="2.22099">
        <ele>558.85009766</ele>
        <time>2022-07-10T12:26:43Z</time>
      </trkpt>
      <trkpt lat="43.36306" lon="2.22111">
        <ele>557.92010498</ele>
        <time>2022-07-10T12:26:44Z</time>
      </trkpt>
      <trkpt lat="43.36303" lon="2.22122">
        <ele>557.92010498</ele>
        <time>2022-07-10T12:26:45Z</time>
      </trkpt>
      <trkpt lat="43.363" lon="2.22132">
        <ele>556.5401001</ele>
        <time>2022-07-10T12:26:46Z</time>
      </trkpt>
      <trkpt lat="43.36297" lon="2.22144">
        <ele>556.5401001</ele>
        <time>2022-07-10T12:26:47Z</time>
      </trkpt>
      <trkpt lat="43.36295" lon="2.2215">
        <ele>556.42010498</ele>
        <time>2022-07-10T12:26:48Z</time>
      </trkpt>
      <trkpt lat="43.36294" lon="2.22155">
        <ele>556.39007568</ele>
        <time>2022-07-10T12:26:49Z</time>
      </trkpt>
      <trkpt lat="43.36293" lon="2.22158">
        <ele>556.21008301</ele>
        <time>2022-07-10T12:26:50Z</time>
      </trkpt>
      <trkpt lat="43.36291" lon="2.22161">
        <ele>555.89007568</ele>
        <time>2022-07-10T12:26:51Z</time>
      </trkpt>
      <trkpt lat="43.36289" lon="2.22162">
        <ele>555.58007812</ele>
        <time>2022-07-10T12:26:52Z</time>
      </trkpt>
      <trkpt lat="43.36286" lon="2.22163">
        <ele>555.2600708</ele>
        <time>2022-07-10T12:26:53Z</time>
      </trkpt>
      <trkpt lat="43.36283" lon="2.22163">
        <ele>554.99005127</ele>
        <time>2022-07-10T12:26:54Z</time>
      </trkpt>
      <trkpt lat="43.3628" lon="2.22161">
        <ele>554.99005127</ele>
        <time>2022-07-10T12:26:55Z</time>
      </trkpt>
      <trkpt lat="43.36274" lon="2.22158">
        <ele>554.13006592</ele>
        <time>2022-07-10T12:26:56Z</time>
      </trkpt>
      <trkpt lat="43.3627" lon="2.22155">
        <ele>554.13006592</ele>
        <time>2022-07-10T12:26:57Z</time>
      </trkpt>
      <trkpt lat="43.36265" lon="2.22151">
        <ele>553.09008789</ele>
        <time>2022-07-10T12:26:58Z</time>
      </trkpt>
      <trkpt lat="43.36261" lon="2.22149">
        <ele>552.58007812</ele>
        <time>2022-07-10T12:26:59Z</time>
      </trkpt>
      <trkpt lat="43.36255" lon="2.22146">
        <ele>551.96008301</ele>
        <time>2022-07-10T12:27:00Z</time>
      </trkpt>
      <trkpt lat="43.36247" lon="2.22142">
        <ele>551.21008301</ele>
        <time>2022-07-10T12:27:01Z</time>
      </trkpt>
      <trkpt lat="43.36241" lon="2.22139">
        <ele>549.50006104</ele>
        <time>2022-07-10T12:27:02Z</time>
      </trkpt>
      <trkpt lat="43.36234" lon="2.22136">
        <ele>548.5100708</ele>
        <time>2022-07-10T12:27:03Z</time>
      </trkpt>
      <trkpt lat="43.36227" lon="2.22132">
        <ele>548.5100708</ele>
        <time>2022-07-10T12:27:04Z</time>
      </trkpt>
      <trkpt lat="43.36217" lon="2.22126">
        <ele>546.89007568</ele>
        <time>2022-07-10T12:27:05Z</time>
      </trkpt>
      <trkpt lat="43.3621" lon="2.22123">
        <ele>546.40008545</ele>
        <time>2022-07-10T12:27:06Z</time>
      </trkpt>
      <trkpt lat="43.36204" lon="2.2212">
        <ele>546.06005859</ele>
        <time>2022-07-10T12:27:07Z</time>
      </trkpt>
      <trkpt lat="43.36197" lon="2.22117">
        <ele>545.91003418</ele>
        <time>2022-07-10T12:27:08Z</time>
      </trkpt>
      <trkpt lat="43.36188" lon="2.22114">
        <ele>545.72003174</ele>
        <time>2022-07-10T12:27:09Z</time>
      </trkpt>
      <trkpt lat="43.36181" lon="2.22111">
        <ele>545.67004395</ele>
        <time>2022-07-10T12:27:10Z</time>
      </trkpt>
      <trkpt lat="43.36177" lon="2.22112">
        <ele>545.96014404</ele>
        <time>2022-07-10T12:27:21Z</time>
      </trkpt>
      <trkpt lat="43.36179" lon="2.2211">
        <ele>546.11016846</ele>
        <time>2022-07-10T12:27:22Z</time>
      </trkpt>
      <trkpt lat="43.36181" lon="2.22105">
        <ele>546.11016846</ele>
        <time>2022-07-10T12:27:23Z</time>
      </trkpt>
      <trkpt lat="43.36182" lon="2.22101">
        <ele>546.29016113</ele>
        <time>2022-07-10T12:27:24Z</time>
      </trkpt>
      <trkpt lat="43.36183" lon="2.22097">
        <ele>546.29016113</ele>
        <time>2022-07-10T12:27:25Z</time>
      </trkpt>
      <trkpt lat="43.36185" lon="2.22093">
        <ele>546.35015869</ele>
        <time>2022-07-10T12:27:26Z</time>
      </trkpt>
      <trkpt lat="43.36186" lon="2.2209">
        <ele>546.35015869</ele>
        <time>2022-07-10T12:27:27Z</time>
      </trkpt>
      <trkpt lat="43.36189" lon="2.22085">
        <ele>546.43017578</ele>
        <time>2022-07-10T12:27:28Z</time>
      </trkpt>
      <trkpt lat="43.36191" lon="2.22081">
        <ele>546.43017578</ele>
        <time>2022-07-10T12:27:29Z</time>
      </trkpt>
      <trkpt lat="43.36193" lon="2.22078">
        <ele>546.59014893</ele>
        <time>2022-07-10T12:27:30Z</time>
      </trkpt>
      <trkpt lat="43.36194" lon="2.22075">
        <ele>546.73016357</ele>
        <time>2022-07-10T12:27:31Z</time>
      </trkpt>
      <trkpt lat="43.36197" lon="2.22069">
        <ele>546.88018799</ele>
        <time>2022-07-10T12:27:32Z</time>
      </trkpt>
      <trkpt lat="43.36199" lon="2.22065">
        <ele>547.0501709</ele>
        <time>2022-07-10T12:27:33Z</time>
      </trkpt>
      <trkpt lat="43.362" lon="2.22061">
        <ele>547.0501709</ele>
        <time>2022-07-10T12:27:34Z</time>
      </trkpt>
      <trkpt lat="43.36201" lon="2.22057">
        <ele>547.24017334</ele>
        <time>2022-07-10T12:27:35Z</time>
      </trkpt>
      <trkpt lat="43.362" lon="2.22053">
        <ele>547.76019287</ele>
        <time>2022-07-10T12:27:36Z</time>
      </trkpt>
      <trkpt lat="43.36198" lon="2.2205">
        <ele>548.07019043</ele>
        <time>2022-07-10T12:27:37Z</time>
      </trkpt>
      <trkpt lat="43.36195" lon="2.22047">
        <ele>548.07019043</ele>
        <time>2022-07-10T12:27:38Z</time>
      </trkpt>
      <trkpt lat="43.36192" lon="2.22045">
        <ele>548.18017578</ele>
        <time>2022-07-10T12:27:39Z</time>
      </trkpt>
      <trkpt lat="43.36188" lon="2.22042">
        <ele>548.16015625</ele>
        <time>2022-07-10T12:27:40Z</time>
      </trkpt>
      <trkpt lat="43.36182" lon="2.22039">
        <ele>547.99017334</ele>
        <time>2022-07-10T12:27:41Z</time>
      </trkpt>
      <trkpt lat="43.36178" lon="2.22036">
        <ele>547.99017334</ele>
        <time>2022-07-10T12:27:42Z</time>
      </trkpt>
      <trkpt lat="43.36174" lon="2.22034">
        <ele>547.57019043</ele>
        <time>2022-07-10T12:27:43Z</time>
      </trkpt>
      <trkpt lat="43.3617" lon="2.22032">
        <ele>547.3302002</ele>
        <time>2022-07-10T12:27:44Z</time>
      </trkpt>
      <trkpt lat="43.36164" lon="2.22028">
        <ele>547.3302002</ele>
        <time>2022-07-10T12:27:45Z</time>
      </trkpt>
      <trkpt lat="43.36159" lon="2.22026">
        <ele>546.87017822</ele>
        <time>2022-07-10T12:27:46Z</time>
      </trkpt>
      <trkpt lat="43.36155" lon="2.22025">
        <ele>546.66015625</ele>
        <time>2022-07-10T12:27:47Z</time>
      </trkpt>
      <trkpt lat="43.36151" lon="2.22023">
        <ele>546.49017334</ele>
        <time>2022-07-10T12:27:48Z</time>
      </trkpt>
      <trkpt lat="43.36147" lon="2.22021">
        <ele>546.34014893</ele>
        <time>2022-07-10T12:27:49Z</time>
      </trkpt>
      <trkpt lat="43.3614" lon="2.2202">
        <ele>546.26013184</ele>
        <time>2022-07-10T12:27:50Z</time>
      </trkpt>
      <trkpt lat="43.36136" lon="2.22018">
        <ele>546.04016113</ele>
        <time>2022-07-10T12:27:51Z</time>
      </trkpt>
      <trkpt lat="43.36131" lon="2.22017">
        <ele>545.71014404</ele>
        <time>2022-07-10T12:27:52Z</time>
      </trkpt>
      <trkpt lat="43.36126" lon="2.22015">
        <ele>545.18011475</ele>
        <time>2022-07-10T12:27:53Z</time>
      </trkpt>
      <trkpt lat="43.3612" lon="2.22012">
        <ele>545.18011475</ele>
        <time>2022-07-10T12:27:54Z</time>
      </trkpt>
      <trkpt lat="43.36112" lon="2.22009">
        <ele>544.75012207</ele>
        <time>2022-07-10T12:27:55Z</time>
      </trkpt>
      <trkpt lat="43.36108" lon="2.22008">
        <ele>543.93011475</ele>
        <time>2022-07-10T12:27:56Z</time>
      </trkpt>
      <trkpt lat="43.36103" lon="2.22006">
        <ele>543.71014404</ele>
        <time>2022-07-10T12:27:57Z</time>
      </trkpt>
      <trkpt lat="43.36099" lon="2.22005">
        <ele>543.38012695</ele>
        <time>2022-07-10T12:27:58Z</time>
      </trkpt>
      <trkpt lat="43.36094" lon="2.22004">
        <ele>543.15014648</ele>
        <time>2022-07-10T12:27:59Z</time>
      </trkpt>
      <trkpt lat="43.36092" lon="2.22003">
        <ele>543.15014648</ele>
        <time>2022-07-10T12:28:00Z</time>
      </trkpt>
      <trkpt lat="43.36089" lon="2.22002">
        <ele>542.69012451</ele>
        <time>2022-07-10T12:28:01Z</time>
      </trkpt>
      <trkpt lat="43.36086" lon="2.22">
        <ele>541.59014893</ele>
        <time>2022-07-10T12:28:02Z</time>
      </trkpt>
      <trkpt lat="43.36081" lon="2.21998">
        <ele>541.28015137</ele>
        <time>2022-07-10T12:28:03Z</time>
      </trkpt>
      <trkpt lat="43.36077" lon="2.21996">
        <ele>541.12017822</ele>
        <time>2022-07-10T12:28:04Z</time>
      </trkpt>
      <trkpt lat="43.36075" lon="2.21994">
        <ele>541.12017822</ele>
        <time>2022-07-10T12:28:05Z</time>
      </trkpt>
      <trkpt lat="43.36072" lon="2.21993">
        <ele>540.79016113</ele>
        <time>2022-07-10T12:28:06Z</time>
      </trkpt>
      <trkpt lat="43.36068" lon="2.21991">
        <ele>540.67016602</ele>
        <time>2022-07-10T12:28:07Z</time>
      </trkpt>
      <trkpt lat="43.36063" lon="2.21989">
        <ele>540.45019531</ele>
        <time>2022-07-10T12:28:08Z</time>
      </trkpt>
      <trkpt lat="43.3606" lon="2.21987">
        <ele>540.31018066</ele>
        <time>2022-07-10T12:28:09Z</time>
      </trkpt>
      <trkpt lat="43.36056" lon="2.21986">
        <ele>540.31018066</ele>
        <time>2022-07-10T12:28:10Z</time>
      </trkpt>
      <trkpt lat="43.36052" lon="2.21984">
        <ele>539.93017578</ele>
        <time>2022-07-10T12:28:11Z</time>
      </trkpt>
      <trkpt lat="43.36046" lon="2.21979">
        <ele>539.81018066</ele>
        <time>2022-07-10T12:28:12Z</time>
      </trkpt>
      <trkpt lat="43.36042" lon="2.21977">
        <ele>539.81018066</ele>
        <time>2022-07-10T12:28:13Z</time>
      </trkpt>
      <trkpt lat="43.36038" lon="2.21975">
        <ele>539.62017822</ele>
        <time>2022-07-10T12:28:14Z</time>
      </trkpt>
      <trkpt lat="43.36034" lon="2.21972">
        <ele>539.36016846</ele>
        <time>2022-07-10T12:28:15Z</time>
      </trkpt>
    </trkseg>
  </trk>
</gpx>